<?xml version="1.0" encoding="UTF-8" standalone="no" ?>
<gpx xmlns="http://www.topografix.com/GPX/1/1" xmlns:xsi="http://www.w3.org/2001/XMLSchema-instance" xsi:schemaLocation="http://www.topografix.com/GPX/1/1 http://www.topografix.com/GPX/1/1/gpx.xsd" version="1.1" creator="VisuGPX - https://www.visugpx.com">
  <metadata>
    <name>balade à la plage   festival</name>
    <desc><![CDATA[balade à l\'océan puis festoch\' au dessus de saintes]]></desc>
  </metadata>
  <trk>
    <name><![CDATA[21-JUIL-13 14:06:03]]></name>
    <trkseg>
      <trkpt lat="45.57005" lon="0.55935">
        <ele>116.94</ele>
        <time>2013-07-19T16:56:48Z</time>
      </trkpt>
      <trkpt lat="45.57011" lon="0.55938">
        <ele>117.42</ele>
        <time>2013-07-19T16:57:14Z</time>
      </trkpt>
      <trkpt lat="45.57014" lon="0.55936">
        <ele>117.42</ele>
        <time>2013-07-19T16:57:35Z</time>
      </trkpt>
      <trkpt lat="45.57008" lon="0.55936">
        <ele>116.94</ele>
        <time>2013-07-19T16:58:12Z</time>
      </trkpt>
      <trkpt lat="45.57016" lon="0.5593">
        <ele>116.94</ele>
        <time>2013-07-19T16:58:13Z</time>
      </trkpt>
      <trkpt lat="45.57013" lon="0.55936">
        <ele>116.94</ele>
        <time>2013-07-19T16:58:43Z</time>
      </trkpt>
      <trkpt lat="45.57009" lon="0.55942">
        <ele>116.94</ele>
        <time>2013-07-19T16:59:27Z</time>
      </trkpt>
      <trkpt lat="45.5701" lon="0.5594">
        <ele>116.94</ele>
        <time>2013-07-19T16:59:58Z</time>
      </trkpt>
      <trkpt lat="45.57009" lon="0.5594">
        <ele>117.42</ele>
        <time>2013-07-19T17:00:36Z</time>
      </trkpt>
      <trkpt lat="45.57008" lon="0.55941">
        <ele>117.42</ele>
        <time>2013-07-19T17:00:55Z</time>
      </trkpt>
      <trkpt lat="45.57005" lon="0.55943">
        <ele>117.42</ele>
        <time>2013-07-19T17:00:59Z</time>
      </trkpt>
      <trkpt lat="45.56994" lon="0.55949">
        <ele>117.42</ele>
        <time>2013-07-19T17:01:06Z</time>
      </trkpt>
      <trkpt lat="45.56993" lon="0.55947">
        <ele>117.42</ele>
        <time>2013-07-19T17:01:07Z</time>
      </trkpt>
      <trkpt lat="45.56993" lon="0.55943">
        <ele>117.42</ele>
        <time>2013-07-19T17:01:08Z</time>
      </trkpt>
      <trkpt lat="45.56993" lon="0.5594">
        <ele>117.9</ele>
        <time>2013-07-19T17:01:09Z</time>
      </trkpt>
      <trkpt lat="45.56995" lon="0.55936">
        <ele>117.9</ele>
        <time>2013-07-19T17:01:10Z</time>
      </trkpt>
      <trkpt lat="45.56997" lon="0.55933">
        <ele>117.9</ele>
        <time>2013-07-19T17:01:11Z</time>
      </trkpt>
      <trkpt lat="45.57" lon="0.5593">
        <ele>117.9</ele>
        <time>2013-07-19T17:01:12Z</time>
      </trkpt>
      <trkpt lat="45.57018" lon="0.55911">
        <ele>117.9</ele>
        <time>2013-07-19T17:01:17Z</time>
      </trkpt>
      <trkpt lat="45.57047" lon="0.55876">
        <ele>118.38</ele>
        <time>2013-07-19T17:01:24Z</time>
      </trkpt>
      <trkpt lat="45.57123" lon="0.55796">
        <ele>118.38</ele>
        <time>2013-07-19T17:01:39Z</time>
      </trkpt>
      <trkpt lat="45.57181" lon="0.55752">
        <ele>118.38</ele>
        <time>2013-07-19T17:01:49Z</time>
      </trkpt>
      <trkpt lat="45.57186" lon="0.55746">
        <ele>118.38</ele>
        <time>2013-07-19T17:01:50Z</time>
      </trkpt>
      <trkpt lat="45.57244" lon="0.55646">
        <ele>119.82</ele>
        <time>2013-07-19T17:02:04Z</time>
      </trkpt>
      <trkpt lat="45.57248" lon="0.55638">
        <ele>119.34</ele>
        <time>2013-07-19T17:02:05Z</time>
      </trkpt>
      <trkpt lat="45.5732" lon="0.55545">
        <ele>119.82</ele>
        <time>2013-07-19T17:02:20Z</time>
      </trkpt>
      <trkpt lat="45.57387" lon="0.55475">
        <ele>119.82</ele>
        <time>2013-07-19T17:02:32Z</time>
      </trkpt>
      <trkpt lat="45.57458" lon="0.55398">
        <ele>120.78</ele>
        <time>2013-07-19T17:02:45Z</time>
      </trkpt>
      <trkpt lat="45.57497" lon="0.55347">
        <ele>120.78</ele>
        <time>2013-07-19T17:02:53Z</time>
      </trkpt>
      <trkpt lat="45.57566" lon="0.55204">
        <ele>121.26</ele>
        <time>2013-07-19T17:03:11Z</time>
      </trkpt>
      <trkpt lat="45.57624" lon="0.55065">
        <ele>119.82</ele>
        <time>2013-07-19T17:03:27Z</time>
      </trkpt>
      <trkpt lat="45.57679" lon="0.54927">
        <ele>117.9</ele>
        <time>2013-07-19T17:03:41Z</time>
      </trkpt>
      <trkpt lat="45.57714" lon="0.54763">
        <ele>117.42</ele>
        <time>2013-07-19T17:03:55Z</time>
      </trkpt>
      <trkpt lat="45.57753" lon="0.54599">
        <ele>117.42</ele>
        <time>2013-07-19T17:04:10Z</time>
      </trkpt>
      <trkpt lat="45.57821" lon="0.54505">
        <ele>117.42</ele>
        <time>2013-07-19T17:04:22Z</time>
      </trkpt>
      <trkpt lat="45.57908" lon="0.54392">
        <ele>117.42</ele>
        <time>2013-07-19T17:04:37Z</time>
      </trkpt>
      <trkpt lat="45.57997" lon="0.54287">
        <ele>117.42</ele>
        <time>2013-07-19T17:04:52Z</time>
      </trkpt>
      <trkpt lat="45.58115" lon="0.54216">
        <ele>118.38</ele>
        <time>2013-07-19T17:05:09Z</time>
      </trkpt>
      <trkpt lat="45.58218" lon="0.54143">
        <ele>118.38</ele>
        <time>2013-07-19T17:05:25Z</time>
      </trkpt>
      <trkpt lat="45.58268" lon="0.54052">
        <ele>118.86</ele>
        <time>2013-07-19T17:05:36Z</time>
      </trkpt>
      <trkpt lat="45.58322" lon="0.53869">
        <ele>117.42</ele>
        <time>2013-07-19T17:05:54Z</time>
      </trkpt>
      <trkpt lat="45.58368" lon="0.53704">
        <ele>116.94</ele>
        <time>2013-07-19T17:06:09Z</time>
      </trkpt>
      <trkpt lat="45.58403" lon="0.53551">
        <ele>116.94</ele>
        <time>2013-07-19T17:06:23Z</time>
      </trkpt>
      <trkpt lat="45.58414" lon="0.53393">
        <ele>116.94</ele>
        <time>2013-07-19T17:06:38Z</time>
      </trkpt>
      <trkpt lat="45.58418" lon="0.53343">
        <ele>117.42</ele>
        <time>2013-07-19T17:06:43Z</time>
      </trkpt>
      <trkpt lat="45.5842" lon="0.53333">
        <ele>117.42</ele>
        <time>2013-07-19T17:06:44Z</time>
      </trkpt>
      <trkpt lat="45.58434" lon="0.53284">
        <ele>117.42</ele>
        <time>2013-07-19T17:06:49Z</time>
      </trkpt>
      <trkpt lat="45.5849" lon="0.53142">
        <ele>116.46</ele>
        <time>2013-07-19T17:07:04Z</time>
      </trkpt>
      <trkpt lat="45.58551" lon="0.52995">
        <ele>115.5</ele>
        <time>2013-07-19T17:07:19Z</time>
      </trkpt>
      <trkpt lat="45.58575" lon="0.52936">
        <ele>115.98</ele>
        <time>2013-07-19T17:07:25Z</time>
      </trkpt>
      <trkpt lat="45.58649" lon="0.52837">
        <ele>116.46</ele>
        <time>2013-07-19T17:07:38Z</time>
      </trkpt>
      <trkpt lat="45.5874" lon="0.52734">
        <ele>116.46</ele>
        <time>2013-07-19T17:07:53Z</time>
      </trkpt>
      <trkpt lat="45.58776" lon="0.5269">
        <ele>116.46</ele>
        <time>2013-07-19T17:07:59Z</time>
      </trkpt>
      <trkpt lat="45.58827" lon="0.52569">
        <ele>115.98</ele>
        <time>2013-07-19T17:08:11Z</time>
      </trkpt>
      <trkpt lat="45.58879" lon="0.52408">
        <ele>115.98</ele>
        <time>2013-07-19T17:08:26Z</time>
      </trkpt>
      <trkpt lat="45.58925" lon="0.52227">
        <ele>114.53</ele>
        <time>2013-07-19T17:08:43Z</time>
      </trkpt>
      <trkpt lat="45.58926" lon="0.52066">
        <ele>114.53</ele>
        <time>2013-07-19T17:08:57Z</time>
      </trkpt>
      <trkpt lat="45.58924" lon="0.51974">
        <ele>114.53</ele>
        <time>2013-07-19T17:09:05Z</time>
      </trkpt>
      <trkpt lat="45.58925" lon="0.51963">
        <ele>114.53</ele>
        <time>2013-07-19T17:09:06Z</time>
      </trkpt>
      <trkpt lat="45.58962" lon="0.5184">
        <ele>114.05</ele>
        <time>2013-07-19T17:09:18Z</time>
      </trkpt>
      <trkpt lat="45.59044" lon="0.51724">
        <ele>114.53</ele>
        <time>2013-07-19T17:09:33Z</time>
      </trkpt>
      <trkpt lat="45.59144" lon="0.51589">
        <ele>115.5</ele>
        <time>2013-07-19T17:09:50Z</time>
      </trkpt>
      <trkpt lat="45.59284" lon="0.51402">
        <ele>116.46</ele>
        <time>2013-07-19T17:10:14Z</time>
      </trkpt>
      <trkpt lat="45.59398" lon="0.51249">
        <ele>117.42</ele>
        <time>2013-07-19T17:10:34Z</time>
      </trkpt>
      <trkpt lat="45.59492" lon="0.51123">
        <ele>116.94</ele>
        <time>2013-07-19T17:10:50Z</time>
      </trkpt>
      <trkpt lat="45.59587" lon="0.50997">
        <ele>116.94</ele>
        <time>2013-07-19T17:11:07Z</time>
      </trkpt>
      <trkpt lat="45.59664" lon="0.5087">
        <ele>117.42</ele>
        <time>2013-07-19T17:11:24Z</time>
      </trkpt>
      <trkpt lat="45.59729" lon="0.507">
        <ele>116.94</ele>
        <time>2013-07-19T17:11:41Z</time>
      </trkpt>
      <trkpt lat="45.59787" lon="0.50545">
        <ele>115.98</ele>
        <time>2013-07-19T17:11:56Z</time>
      </trkpt>
      <trkpt lat="45.5985" lon="0.50377">
        <ele>115.98</ele>
        <time>2013-07-19T17:12:13Z</time>
      </trkpt>
      <trkpt lat="45.59917" lon="0.502">
        <ele>116.46</ele>
        <time>2013-07-19T17:12:32Z</time>
      </trkpt>
      <trkpt lat="45.59979" lon="0.50035">
        <ele>115.5</ele>
        <time>2013-07-19T17:12:49Z</time>
      </trkpt>
      <trkpt lat="45.6005" lon="0.49831">
        <ele>114.05</ele>
        <time>2013-07-19T17:13:08Z</time>
      </trkpt>
      <trkpt lat="45.60102" lon="0.49654">
        <ele>113.09</ele>
        <time>2013-07-19T17:13:24Z</time>
      </trkpt>
      <trkpt lat="45.60158" lon="0.49469">
        <ele>113.09</ele>
        <time>2013-07-19T17:13:40Z</time>
      </trkpt>
      <trkpt lat="45.60232" lon="0.49324">
        <ele>112.13</ele>
        <time>2013-07-19T17:13:55Z</time>
      </trkpt>
      <trkpt lat="45.6032" lon="0.4918">
        <ele>110.21</ele>
        <time>2013-07-19T17:14:10Z</time>
      </trkpt>
      <trkpt lat="45.60351" lon="0.49097">
        <ele>110.21</ele>
        <time>2013-07-19T17:14:18Z</time>
      </trkpt>
      <trkpt lat="45.60354" lon="0.49086">
        <ele>110.69</ele>
        <time>2013-07-19T17:14:19Z</time>
      </trkpt>
      <trkpt lat="45.60405" lon="0.48891">
        <ele>109.73</ele>
        <time>2013-07-19T17:14:36Z</time>
      </trkpt>
      <trkpt lat="45.60453" lon="0.48704">
        <ele>108.29</ele>
        <time>2013-07-19T17:14:52Z</time>
      </trkpt>
      <trkpt lat="45.60501" lon="0.48522">
        <ele>108.29</ele>
        <time>2013-07-19T17:15:08Z</time>
      </trkpt>
      <trkpt lat="45.60559" lon="0.48292">
        <ele>107.32</ele>
        <time>2013-07-19T17:15:28Z</time>
      </trkpt>
      <trkpt lat="45.60576" lon="0.48169">
        <ele>108.29</ele>
        <time>2013-07-19T17:15:39Z</time>
      </trkpt>
      <trkpt lat="45.6062" lon="0.47989">
        <ele>108.29</ele>
        <time>2013-07-19T17:15:55Z</time>
      </trkpt>
      <trkpt lat="45.6068" lon="0.47784">
        <ele>107.81</ele>
        <time>2013-07-19T17:16:13Z</time>
      </trkpt>
      <trkpt lat="45.6074" lon="0.47632">
        <ele>108.29</ele>
        <time>2013-07-19T17:16:28Z</time>
      </trkpt>
      <trkpt lat="45.60772" lon="0.47576">
        <ele>107.81</ele>
        <time>2013-07-19T17:16:34Z</time>
      </trkpt>
      <trkpt lat="45.60776" lon="0.47565">
        <ele>107.81</ele>
        <time>2013-07-19T17:16:35Z</time>
      </trkpt>
      <trkpt lat="45.60778" lon="0.47553">
        <ele>107.32</ele>
        <time>2013-07-19T17:16:36Z</time>
      </trkpt>
      <trkpt lat="45.60779" lon="0.47541">
        <ele>107.32</ele>
        <time>2013-07-19T17:16:37Z</time>
      </trkpt>
      <trkpt lat="45.60779" lon="0.47528">
        <ele>107.32</ele>
        <time>2013-07-19T17:16:38Z</time>
      </trkpt>
      <trkpt lat="45.60778" lon="0.47516">
        <ele>106.84</ele>
        <time>2013-07-19T17:16:39Z</time>
      </trkpt>
      <trkpt lat="45.60776" lon="0.47504">
        <ele>106.84</ele>
        <time>2013-07-19T17:16:40Z</time>
      </trkpt>
      <trkpt lat="45.60774" lon="0.47492">
        <ele>106.84</ele>
        <time>2013-07-19T17:16:41Z</time>
      </trkpt>
      <trkpt lat="45.60736" lon="0.47304">
        <ele>106.84</ele>
        <time>2013-07-19T17:16:57Z</time>
      </trkpt>
      <trkpt lat="45.60722" lon="0.4723">
        <ele>106.84</ele>
        <time>2013-07-19T17:17:04Z</time>
      </trkpt>
      <trkpt lat="45.60721" lon="0.47219">
        <ele>106.84</ele>
        <time>2013-07-19T17:17:05Z</time>
      </trkpt>
      <trkpt lat="45.60722" lon="0.47207">
        <ele>106.84</ele>
        <time>2013-07-19T17:17:06Z</time>
      </trkpt>
      <trkpt lat="45.60722" lon="0.47195">
        <ele>106.84</ele>
        <time>2013-07-19T17:17:07Z</time>
      </trkpt>
      <trkpt lat="45.60724" lon="0.47183">
        <ele>105.88</ele>
        <time>2013-07-19T17:17:08Z</time>
      </trkpt>
      <trkpt lat="45.60746" lon="0.47001">
        <ele>105.4</ele>
        <time>2013-07-19T17:17:23Z</time>
      </trkpt>
      <trkpt lat="45.60764" lon="0.46919">
        <ele>105.4</ele>
        <time>2013-07-19T17:17:30Z</time>
      </trkpt>
      <trkpt lat="45.60828" lon="0.46833">
        <ele>106.36</ele>
        <time>2013-07-19T17:17:41Z</time>
      </trkpt>
      <trkpt lat="45.60854" lon="0.46808">
        <ele>105.88</ele>
        <time>2013-07-19T17:17:45Z</time>
      </trkpt>
      <trkpt lat="45.60989" lon="0.46732">
        <ele>105.88</ele>
        <time>2013-07-19T17:18:03Z</time>
      </trkpt>
      <trkpt lat="45.61003" lon="0.46721">
        <ele>105.88</ele>
        <time>2013-07-19T17:18:05Z</time>
      </trkpt>
      <trkpt lat="45.61009" lon="0.46714">
        <ele>105.88</ele>
        <time>2013-07-19T17:18:06Z</time>
      </trkpt>
      <trkpt lat="45.61015" lon="0.46707">
        <ele>105.88</ele>
        <time>2013-07-19T17:18:07Z</time>
      </trkpt>
      <trkpt lat="45.6102" lon="0.46698">
        <ele>105.88</ele>
        <time>2013-07-19T17:18:08Z</time>
      </trkpt>
      <trkpt lat="45.61024" lon="0.46689">
        <ele>106.36</ele>
        <time>2013-07-19T17:18:09Z</time>
      </trkpt>
      <trkpt lat="45.61027" lon="0.46679">
        <ele>106.36</ele>
        <time>2013-07-19T17:18:10Z</time>
      </trkpt>
      <trkpt lat="45.61029" lon="0.46668">
        <ele>106.36</ele>
        <time>2013-07-19T17:18:11Z</time>
      </trkpt>
      <trkpt lat="45.6103" lon="0.46658">
        <ele>106.84</ele>
        <time>2013-07-19T17:18:12Z</time>
      </trkpt>
      <trkpt lat="45.6103" lon="0.46647">
        <ele>107.32</ele>
        <time>2013-07-19T17:18:13Z</time>
      </trkpt>
      <trkpt lat="45.6103" lon="0.46637">
        <ele>107.32</ele>
        <time>2013-07-19T17:18:14Z</time>
      </trkpt>
      <trkpt lat="45.61028" lon="0.46627">
        <ele>107.81</ele>
        <time>2013-07-19T17:18:15Z</time>
      </trkpt>
      <trkpt lat="45.61026" lon="0.46618">
        <ele>107.81</ele>
        <time>2013-07-19T17:18:16Z</time>
      </trkpt>
      <trkpt lat="45.60987" lon="0.46495">
        <ele>108.77</ele>
        <time>2013-07-19T17:18:29Z</time>
      </trkpt>
      <trkpt lat="45.60953" lon="0.46335">
        <ele>110.69</ele>
        <time>2013-07-19T17:18:45Z</time>
      </trkpt>
      <trkpt lat="45.60929" lon="0.462">
        <ele>113.57</ele>
        <time>2013-07-19T17:19:00Z</time>
      </trkpt>
      <trkpt lat="45.60927" lon="0.46184">
        <ele>114.05</ele>
        <time>2013-07-19T17:19:02Z</time>
      </trkpt>
      <trkpt lat="45.60926" lon="0.46177">
        <ele>114.05</ele>
        <time>2013-07-19T17:19:03Z</time>
      </trkpt>
      <trkpt lat="45.60919" lon="0.46083">
        <ele>117.42</ele>
        <time>2013-07-19T17:19:16Z</time>
      </trkpt>
      <trkpt lat="45.60915" lon="0.46033">
        <ele>118.86</ele>
        <time>2013-07-19T17:19:23Z</time>
      </trkpt>
      <trkpt lat="45.60906" lon="0.45909">
        <ele>121.74</ele>
        <time>2013-07-19T17:19:40Z</time>
      </trkpt>
      <trkpt lat="45.60906" lon="0.45902">
        <ele>122.22</ele>
        <time>2013-07-19T17:19:41Z</time>
      </trkpt>
      <trkpt lat="45.6091" lon="0.45812">
        <ele>125.11</ele>
        <time>2013-07-19T17:19:54Z</time>
      </trkpt>
      <trkpt lat="45.60924" lon="0.45726">
        <ele>128.47</ele>
        <time>2013-07-19T17:20:07Z</time>
      </trkpt>
      <trkpt lat="45.60943" lon="0.45619">
        <ele>129.43</ele>
        <time>2013-07-19T17:20:22Z</time>
      </trkpt>
      <trkpt lat="45.60979" lon="0.45484">
        <ele>127.51</ele>
        <time>2013-07-19T17:20:36Z</time>
      </trkpt>
      <trkpt lat="45.61052" lon="0.45279">
        <ele>126.07</ele>
        <time>2013-07-19T17:20:55Z</time>
      </trkpt>
      <trkpt lat="45.61109" lon="0.45092">
        <ele>126.55</ele>
        <time>2013-07-19T17:21:12Z</time>
      </trkpt>
      <trkpt lat="45.6114" lon="0.44978">
        <ele>124.15</ele>
        <time>2013-07-19T17:21:22Z</time>
      </trkpt>
      <trkpt lat="45.61145" lon="0.44967">
        <ele>123.67</ele>
        <time>2013-07-19T17:21:23Z</time>
      </trkpt>
      <trkpt lat="45.61152" lon="0.44957">
        <ele>123.19</ele>
        <time>2013-07-19T17:21:24Z</time>
      </trkpt>
      <trkpt lat="45.61158" lon="0.44947">
        <ele>122.22</ele>
        <time>2013-07-19T17:21:25Z</time>
      </trkpt>
      <trkpt lat="45.61166" lon="0.44937">
        <ele>121.74</ele>
        <time>2013-07-19T17:21:26Z</time>
      </trkpt>
      <trkpt lat="45.61173" lon="0.44927">
        <ele>121.74</ele>
        <time>2013-07-19T17:21:27Z</time>
      </trkpt>
      <trkpt lat="45.612" lon="0.44883">
        <ele>118.86</ele>
        <time>2013-07-19T17:21:31Z</time>
      </trkpt>
      <trkpt lat="45.61205" lon="0.44869">
        <ele>118.86</ele>
        <time>2013-07-19T17:21:32Z</time>
      </trkpt>
      <trkpt lat="45.61209" lon="0.44855">
        <ele>118.38</ele>
        <time>2013-07-19T17:21:33Z</time>
      </trkpt>
      <trkpt lat="45.61211" lon="0.44839">
        <ele>117.42</ele>
        <time>2013-07-19T17:21:34Z</time>
      </trkpt>
      <trkpt lat="45.61212" lon="0.44823">
        <ele>117.42</ele>
        <time>2013-07-19T17:21:35Z</time>
      </trkpt>
      <trkpt lat="45.61218" lon="0.44746">
        <ele>114.53</ele>
        <time>2013-07-19T17:21:40Z</time>
      </trkpt>
      <trkpt lat="45.61225" lon="0.44656">
        <ele>112.13</ele>
        <time>2013-07-19T17:21:46Z</time>
      </trkpt>
      <trkpt lat="45.61232" lon="0.44564">
        <ele>108.77</ele>
        <time>2013-07-19T17:21:52Z</time>
      </trkpt>
      <trkpt lat="45.61238" lon="0.44455">
        <ele>105.88</ele>
        <time>2013-07-19T17:21:59Z</time>
      </trkpt>
      <trkpt lat="45.61242" lon="0.44424">
        <ele>104.92</ele>
        <time>2013-07-19T17:22:01Z</time>
      </trkpt>
      <trkpt lat="45.61244" lon="0.4441">
        <ele>104.44</ele>
        <time>2013-07-19T17:22:02Z</time>
      </trkpt>
      <trkpt lat="45.61244" lon="0.44396">
        <ele>103.96</ele>
        <time>2013-07-19T17:22:03Z</time>
      </trkpt>
      <trkpt lat="45.61241" lon="0.44382">
        <ele>103.48</ele>
        <time>2013-07-19T17:22:04Z</time>
      </trkpt>
      <trkpt lat="45.61236" lon="0.44371">
        <ele>103.48</ele>
        <time>2013-07-19T17:22:05Z</time>
      </trkpt>
      <trkpt lat="45.6123" lon="0.44363">
        <ele>103.48</ele>
        <time>2013-07-19T17:22:06Z</time>
      </trkpt>
      <trkpt lat="45.61223" lon="0.44356">
        <ele>103.96</ele>
        <time>2013-07-19T17:22:07Z</time>
      </trkpt>
      <trkpt lat="45.61216" lon="0.4435">
        <ele>103.48</ele>
        <time>2013-07-19T17:22:08Z</time>
      </trkpt>
      <trkpt lat="45.61209" lon="0.44343">
        <ele>103.96</ele>
        <time>2013-07-19T17:22:09Z</time>
      </trkpt>
      <trkpt lat="45.61191" lon="0.44319">
        <ele>103.96</ele>
        <time>2013-07-19T17:22:12Z</time>
      </trkpt>
      <trkpt lat="45.61188" lon="0.44308">
        <ele>103.96</ele>
        <time>2013-07-19T17:22:13Z</time>
      </trkpt>
      <trkpt lat="45.61153" lon="0.44188">
        <ele>102.04</ele>
        <time>2013-07-19T17:22:23Z</time>
      </trkpt>
      <trkpt lat="45.61148" lon="0.44124">
        <ele>102.04</ele>
        <time>2013-07-19T17:22:28Z</time>
      </trkpt>
      <trkpt lat="45.61148" lon="0.44111">
        <ele>102.04</ele>
        <time>2013-07-19T17:22:29Z</time>
      </trkpt>
      <trkpt lat="45.6115" lon="0.44087">
        <ele>102.04</ele>
        <time>2013-07-19T17:22:31Z</time>
      </trkpt>
      <trkpt lat="45.61174" lon="0.43915">
        <ele>102.04</ele>
        <time>2013-07-19T17:22:46Z</time>
      </trkpt>
      <trkpt lat="45.612" lon="0.43739">
        <ele>101.08</ele>
        <time>2013-07-19T17:23:01Z</time>
      </trkpt>
      <trkpt lat="45.61257" lon="0.43624">
        <ele>101.08</ele>
        <time>2013-07-19T17:23:13Z</time>
      </trkpt>
      <trkpt lat="45.61318" lon="0.43523">
        <ele>101.56</ele>
        <time>2013-07-19T17:23:25Z</time>
      </trkpt>
      <trkpt lat="45.61389" lon="0.43367">
        <ele>100.6</ele>
        <time>2013-07-19T17:23:40Z</time>
      </trkpt>
      <trkpt lat="45.6143" lon="0.4321">
        <ele>100.11</ele>
        <time>2013-07-19T17:23:54Z</time>
      </trkpt>
      <trkpt lat="45.61452" lon="0.43">
        <ele>100.11</ele>
        <time>2013-07-19T17:24:12Z</time>
      </trkpt>
      <trkpt lat="45.61437" lon="0.428">
        <ele>99.15</ele>
        <time>2013-07-19T17:24:29Z</time>
      </trkpt>
      <trkpt lat="45.61413" lon="0.426">
        <ele>99.63</ele>
        <time>2013-07-19T17:24:46Z</time>
      </trkpt>
      <trkpt lat="45.61413" lon="0.42588">
        <ele>99.63</ele>
        <time>2013-07-19T17:24:47Z</time>
      </trkpt>
      <trkpt lat="45.61414" lon="0.42577">
        <ele>99.63</ele>
        <time>2013-07-19T17:24:48Z</time>
      </trkpt>
      <trkpt lat="45.61429" lon="0.42495">
        <ele>99.63</ele>
        <time>2013-07-19T17:24:55Z</time>
      </trkpt>
      <trkpt lat="45.61476" lon="0.42387">
        <ele>99.15</ele>
        <time>2013-07-19T17:25:06Z</time>
      </trkpt>
      <trkpt lat="45.6148" lon="0.42378">
        <ele>99.15</ele>
        <time>2013-07-19T17:25:07Z</time>
      </trkpt>
      <trkpt lat="45.61544" lon="0.42191">
        <ele>98.67</ele>
        <time>2013-07-19T17:25:25Z</time>
      </trkpt>
      <trkpt lat="45.61574" lon="0.42006">
        <ele>99.15</ele>
        <time>2013-07-19T17:25:41Z</time>
      </trkpt>
      <trkpt lat="45.61608" lon="0.41767">
        <ele>98.19</ele>
        <time>2013-07-19T17:26:02Z</time>
      </trkpt>
      <trkpt lat="45.61634" lon="0.41589">
        <ele>98.19</ele>
        <time>2013-07-19T17:26:18Z</time>
      </trkpt>
      <trkpt lat="45.61662" lon="0.41429">
        <ele>98.19</ele>
        <time>2013-07-19T17:26:32Z</time>
      </trkpt>
      <trkpt lat="45.61668" lon="0.41407">
        <ele>98.19</ele>
        <time>2013-07-19T17:26:34Z</time>
      </trkpt>
      <trkpt lat="45.61733" lon="0.41259">
        <ele>98.19</ele>
        <time>2013-07-19T17:26:49Z</time>
      </trkpt>
      <trkpt lat="45.61833" lon="0.41082">
        <ele>97.71</ele>
        <time>2013-07-19T17:27:08Z</time>
      </trkpt>
      <trkpt lat="45.6191" lon="0.40923">
        <ele>97.23</ele>
        <time>2013-07-19T17:27:24Z</time>
      </trkpt>
      <trkpt lat="45.61964" lon="0.4075">
        <ele>97.23</ele>
        <time>2013-07-19T17:27:40Z</time>
      </trkpt>
      <trkpt lat="45.62023" lon="0.4057">
        <ele>97.23</ele>
        <time>2013-07-19T17:27:57Z</time>
      </trkpt>
      <trkpt lat="45.62085" lon="0.40376">
        <ele>97.71</ele>
        <time>2013-07-19T17:28:15Z</time>
      </trkpt>
      <trkpt lat="45.62111" lon="0.40231">
        <ele>98.19</ele>
        <time>2013-07-19T17:28:29Z</time>
      </trkpt>
      <trkpt lat="45.62108" lon="0.40065">
        <ele>97.23</ele>
        <time>2013-07-19T17:28:43Z</time>
      </trkpt>
      <trkpt lat="45.62148" lon="0.39934">
        <ele>96.75</ele>
        <time>2013-07-19T17:28:55Z</time>
      </trkpt>
      <trkpt lat="45.62166" lon="0.39795">
        <ele>96.27</ele>
        <time>2013-07-19T17:29:07Z</time>
      </trkpt>
      <trkpt lat="45.62184" lon="0.3961">
        <ele>97.23</ele>
        <time>2013-07-19T17:29:23Z</time>
      </trkpt>
      <trkpt lat="45.62201" lon="0.39426">
        <ele>96.75</ele>
        <time>2013-07-19T17:29:40Z</time>
      </trkpt>
      <trkpt lat="45.62236" lon="0.39243">
        <ele>96.75</ele>
        <time>2013-07-19T17:29:57Z</time>
      </trkpt>
      <trkpt lat="45.62269" lon="0.39082">
        <ele>96.75</ele>
        <time>2013-07-19T17:30:12Z</time>
      </trkpt>
      <trkpt lat="45.62307" lon="0.38901">
        <ele>97.23</ele>
        <time>2013-07-19T17:30:28Z</time>
      </trkpt>
      <trkpt lat="45.62338" lon="0.38763">
        <ele>97.23</ele>
        <time>2013-07-19T17:30:41Z</time>
      </trkpt>
      <trkpt lat="45.62401" lon="0.38628">
        <ele>98.19</ele>
        <time>2013-07-19T17:30:56Z</time>
      </trkpt>
      <trkpt lat="45.62436" lon="0.38555">
        <ele>100.6</ele>
        <time>2013-07-19T17:31:06Z</time>
      </trkpt>
      <trkpt lat="45.62468" lon="0.38475">
        <ele>103.96</ele>
        <time>2013-07-19T17:31:18Z</time>
      </trkpt>
      <trkpt lat="45.62495" lon="0.38379">
        <ele>106.36</ele>
        <time>2013-07-19T17:31:32Z</time>
      </trkpt>
      <trkpt lat="45.62512" lon="0.38319">
        <ele>108.77</ele>
        <time>2013-07-19T17:31:41Z</time>
      </trkpt>
      <trkpt lat="45.62514" lon="0.38312">
        <ele>109.25</ele>
        <time>2013-07-19T17:31:42Z</time>
      </trkpt>
      <trkpt lat="45.62526" lon="0.38273">
        <ele>110.21</ele>
        <time>2013-07-19T17:31:48Z</time>
      </trkpt>
      <trkpt lat="45.62528" lon="0.38267">
        <ele>110.69</ele>
        <time>2013-07-19T17:31:49Z</time>
      </trkpt>
      <trkpt lat="45.6254" lon="0.3822">
        <ele>112.13</ele>
        <time>2013-07-19T17:31:56Z</time>
      </trkpt>
      <trkpt lat="45.62568" lon="0.38129">
        <ele>112.61</ele>
        <time>2013-07-19T17:32:10Z</time>
      </trkpt>
      <trkpt lat="45.62603" lon="0.38007">
        <ele>110.21</ele>
        <time>2013-07-19T17:32:22Z</time>
      </trkpt>
      <trkpt lat="45.62635" lon="0.37895">
        <ele>113.09</ele>
        <time>2013-07-19T17:32:34Z</time>
      </trkpt>
      <trkpt lat="45.62657" lon="0.37804">
        <ele>115.01</ele>
        <time>2013-07-19T17:32:46Z</time>
      </trkpt>
      <trkpt lat="45.62659" lon="0.37678">
        <ele>113.09</ele>
        <time>2013-07-19T17:32:59Z</time>
      </trkpt>
      <trkpt lat="45.6265" lon="0.37593">
        <ele>110.21</ele>
        <time>2013-07-19T17:33:06Z</time>
      </trkpt>
      <trkpt lat="45.62636" lon="0.37466">
        <ele>107.32</ele>
        <time>2013-07-19T17:33:15Z</time>
      </trkpt>
      <trkpt lat="45.62618" lon="0.37306">
        <ele>108.77</ele>
        <time>2013-07-19T17:33:28Z</time>
      </trkpt>
      <trkpt lat="45.62608" lon="0.37221">
        <ele>111.65</ele>
        <time>2013-07-19T17:33:39Z</time>
      </trkpt>
      <trkpt lat="45.62606" lon="0.372">
        <ele>113.09</ele>
        <time>2013-07-19T17:33:42Z</time>
      </trkpt>
      <trkpt lat="45.62603" lon="0.37173">
        <ele>114.53</ele>
        <time>2013-07-19T17:33:46Z</time>
      </trkpt>
      <trkpt lat="45.62603" lon="0.37166">
        <ele>114.53</ele>
        <time>2013-07-19T17:33:47Z</time>
      </trkpt>
      <trkpt lat="45.62602" lon="0.3716">
        <ele>115.01</ele>
        <time>2013-07-19T17:33:48Z</time>
      </trkpt>
      <trkpt lat="45.62601" lon="0.37153">
        <ele>115.5</ele>
        <time>2013-07-19T17:33:49Z</time>
      </trkpt>
      <trkpt lat="45.62601" lon="0.37147">
        <ele>115.5</ele>
        <time>2013-07-19T17:33:50Z</time>
      </trkpt>
      <trkpt lat="45.626" lon="0.3714">
        <ele>115.98</ele>
        <time>2013-07-19T17:33:51Z</time>
      </trkpt>
      <trkpt lat="45.62598" lon="0.37127">
        <ele>116.46</ele>
        <time>2013-07-19T17:33:53Z</time>
      </trkpt>
      <trkpt lat="45.62596" lon="0.371">
        <ele>117.42</ele>
        <time>2013-07-19T17:33:57Z</time>
      </trkpt>
      <trkpt lat="45.62595" lon="0.37094">
        <ele>117.9</ele>
        <time>2013-07-19T17:33:58Z</time>
      </trkpt>
      <trkpt lat="45.62593" lon="0.37081">
        <ele>118.38</ele>
        <time>2013-07-19T17:34:00Z</time>
      </trkpt>
      <trkpt lat="45.62593" lon="0.37075">
        <ele>118.86</ele>
        <time>2013-07-19T17:34:01Z</time>
      </trkpt>
      <trkpt lat="45.62591" lon="0.37063">
        <ele>119.34</ele>
        <time>2013-07-19T17:34:03Z</time>
      </trkpt>
      <trkpt lat="45.62581" lon="0.36961">
        <ele>122.71</ele>
        <time>2013-07-19T17:34:19Z</time>
      </trkpt>
      <trkpt lat="45.62579" lon="0.36935">
        <ele>123.19</ele>
        <time>2013-07-19T17:34:23Z</time>
      </trkpt>
      <trkpt lat="45.62578" lon="0.36928">
        <ele>123.67</ele>
        <time>2013-07-19T17:34:24Z</time>
      </trkpt>
      <trkpt lat="45.62576" lon="0.36867">
        <ele>124.15</ele>
        <time>2013-07-19T17:34:33Z</time>
      </trkpt>
      <trkpt lat="45.62581" lon="0.3674">
        <ele>124.15</ele>
        <time>2013-07-19T17:34:49Z</time>
      </trkpt>
      <trkpt lat="45.6259" lon="0.36585">
        <ele>123.19</ele>
        <time>2013-07-19T17:35:04Z</time>
      </trkpt>
      <trkpt lat="45.626" lon="0.36398">
        <ele>121.74</ele>
        <time>2013-07-19T17:35:20Z</time>
      </trkpt>
      <trkpt lat="45.62609" lon="0.36235">
        <ele>122.71</ele>
        <time>2013-07-19T17:35:35Z</time>
      </trkpt>
      <trkpt lat="45.6262" lon="0.3605">
        <ele>119.34</ele>
        <time>2013-07-19T17:35:50Z</time>
      </trkpt>
      <trkpt lat="45.62633" lon="0.3581">
        <ele>118.38</ele>
        <time>2013-07-19T17:36:08Z</time>
      </trkpt>
      <trkpt lat="45.62641" lon="0.35673">
        <ele>119.82</ele>
        <time>2013-07-19T17:36:21Z</time>
      </trkpt>
      <trkpt lat="45.62646" lon="0.35529">
        <ele>116.46</ele>
        <time>2013-07-19T17:36:33Z</time>
      </trkpt>
      <trkpt lat="45.62646" lon="0.35516">
        <ele>116.46</ele>
        <time>2013-07-19T17:36:34Z</time>
      </trkpt>
      <trkpt lat="45.62647" lon="0.35462">
        <ele>114.53</ele>
        <time>2013-07-19T17:36:38Z</time>
      </trkpt>
      <trkpt lat="45.62651" lon="0.35337">
        <ele>115.01</ele>
        <time>2013-07-19T17:36:49Z</time>
      </trkpt>
      <trkpt lat="45.62653" lon="0.35243">
        <ele>117.42</ele>
        <time>2013-07-19T17:36:59Z</time>
      </trkpt>
      <trkpt lat="45.62654" lon="0.35234">
        <ele>117.42</ele>
        <time>2013-07-19T17:37:00Z</time>
      </trkpt>
      <trkpt lat="45.62658" lon="0.35109">
        <ele>120.78</ele>
        <time>2013-07-19T17:37:14Z</time>
      </trkpt>
      <trkpt lat="45.62658" lon="0.35084">
        <ele>121.26</ele>
        <time>2013-07-19T17:37:17Z</time>
      </trkpt>
      <trkpt lat="45.62658" lon="0.35076">
        <ele>121.74</ele>
        <time>2013-07-19T17:37:18Z</time>
      </trkpt>
      <trkpt lat="45.6266" lon="0.3502">
        <ele>122.71</ele>
        <time>2013-07-19T17:37:25Z</time>
      </trkpt>
      <trkpt lat="45.62661" lon="0.35011">
        <ele>122.71</ele>
        <time>2013-07-19T17:37:26Z</time>
      </trkpt>
      <trkpt lat="45.62665" lon="0.34856">
        <ele>124.15</ele>
        <time>2013-07-19T17:37:44Z</time>
      </trkpt>
      <trkpt lat="45.62669" lon="0.34721">
        <ele>126.07</ele>
        <time>2013-07-19T17:37:59Z</time>
      </trkpt>
      <trkpt lat="45.62673" lon="0.34582">
        <ele>124.63</ele>
        <time>2013-07-19T17:38:12Z</time>
      </trkpt>
      <trkpt lat="45.62649" lon="0.34447">
        <ele>123.67</ele>
        <time>2013-07-19T17:38:23Z</time>
      </trkpt>
      <trkpt lat="45.62593" lon="0.34279">
        <ele>124.63</ele>
        <time>2013-07-19T17:38:39Z</time>
      </trkpt>
      <trkpt lat="45.62545" lon="0.34134">
        <ele>126.55</ele>
        <time>2013-07-19T17:38:55Z</time>
      </trkpt>
      <trkpt lat="45.62497" lon="0.33991">
        <ele>126.55</ele>
        <time>2013-07-19T17:39:10Z</time>
      </trkpt>
      <trkpt lat="45.6244" lon="0.33819">
        <ele>127.51</ele>
        <time>2013-07-19T17:39:28Z</time>
      </trkpt>
      <trkpt lat="45.62388" lon="0.33666">
        <ele>127.51</ele>
        <time>2013-07-19T17:39:44Z</time>
      </trkpt>
      <trkpt lat="45.62335" lon="0.33509">
        <ele>127.99</ele>
        <time>2013-07-19T17:40:00Z</time>
      </trkpt>
      <trkpt lat="45.62285" lon="0.33358">
        <ele>129.43</ele>
        <time>2013-07-19T17:40:16Z</time>
      </trkpt>
      <trkpt lat="45.62235" lon="0.33207">
        <ele>131.84</ele>
        <time>2013-07-19T17:40:33Z</time>
      </trkpt>
      <trkpt lat="45.62194" lon="0.33085">
        <ele>135.2</ele>
        <time>2013-07-19T17:40:49Z</time>
      </trkpt>
      <trkpt lat="45.62164" lon="0.33">
        <ele>138.57</ele>
        <time>2013-07-19T17:41:02Z</time>
      </trkpt>
      <trkpt lat="45.62157" lon="0.32975">
        <ele>139.05</ele>
        <time>2013-07-19T17:41:06Z</time>
      </trkpt>
      <trkpt lat="45.62155" lon="0.32969">
        <ele>139.53</ele>
        <time>2013-07-19T17:41:07Z</time>
      </trkpt>
      <trkpt lat="45.62153" lon="0.32963">
        <ele>139.53</ele>
        <time>2013-07-19T17:41:08Z</time>
      </trkpt>
      <trkpt lat="45.62144" lon="0.32939">
        <ele>140.01</ele>
        <time>2013-07-19T17:41:12Z</time>
      </trkpt>
      <trkpt lat="45.62143" lon="0.32933">
        <ele>140.49</ele>
        <time>2013-07-19T17:41:13Z</time>
      </trkpt>
      <trkpt lat="45.62139" lon="0.32921">
        <ele>140.97</ele>
        <time>2013-07-19T17:41:15Z</time>
      </trkpt>
      <trkpt lat="45.62136" lon="0.32916">
        <ele>140.97</ele>
        <time>2013-07-19T17:41:16Z</time>
      </trkpt>
      <trkpt lat="45.62124" lon="0.32875">
        <ele>142.41</ele>
        <time>2013-07-19T17:41:23Z</time>
      </trkpt>
      <trkpt lat="45.62117" lon="0.32857">
        <ele>143.37</ele>
        <time>2013-07-19T17:41:26Z</time>
      </trkpt>
      <trkpt lat="45.62085" lon="0.3276">
        <ele>145.3</ele>
        <time>2013-07-19T17:41:42Z</time>
      </trkpt>
      <trkpt lat="45.62056" lon="0.3267">
        <ele>146.74</ele>
        <time>2013-07-19T17:41:55Z</time>
      </trkpt>
      <trkpt lat="45.6202" lon="0.32559">
        <ele>144.82</ele>
        <time>2013-07-19T17:42:09Z</time>
      </trkpt>
      <trkpt lat="45.6197" lon="0.32407">
        <ele>142.41</ele>
        <time>2013-07-19T17:42:24Z</time>
      </trkpt>
      <trkpt lat="45.61915" lon="0.32241">
        <ele>142.41</ele>
        <time>2013-07-19T17:42:40Z</time>
      </trkpt>
      <trkpt lat="45.61881" lon="0.32132">
        <ele>141.93</ele>
        <time>2013-07-19T17:42:51Z</time>
      </trkpt>
      <trkpt lat="45.61879" lon="0.32122">
        <ele>142.41</ele>
        <time>2013-07-19T17:42:52Z</time>
      </trkpt>
      <trkpt lat="45.61879" lon="0.32112">
        <ele>142.41</ele>
        <time>2013-07-19T17:42:53Z</time>
      </trkpt>
      <trkpt lat="45.61881" lon="0.32101">
        <ele>142.41</ele>
        <time>2013-07-19T17:42:54Z</time>
      </trkpt>
      <trkpt lat="45.61883" lon="0.32091">
        <ele>142.41</ele>
        <time>2013-07-19T17:42:55Z</time>
      </trkpt>
      <trkpt lat="45.61888" lon="0.32081">
        <ele>142.41</ele>
        <time>2013-07-19T17:42:56Z</time>
      </trkpt>
      <trkpt lat="45.61892" lon="0.32072">
        <ele>141.93</ele>
        <time>2013-07-19T17:42:57Z</time>
      </trkpt>
      <trkpt lat="45.61896" lon="0.32063">
        <ele>141.93</ele>
        <time>2013-07-19T17:42:58Z</time>
      </trkpt>
      <trkpt lat="45.619" lon="0.32052">
        <ele>141.93</ele>
        <time>2013-07-19T17:42:59Z</time>
      </trkpt>
      <trkpt lat="45.61903" lon="0.32041">
        <ele>141.93</ele>
        <time>2013-07-19T17:43:00Z</time>
      </trkpt>
      <trkpt lat="45.61904" lon="0.3203">
        <ele>141.93</ele>
        <time>2013-07-19T17:43:01Z</time>
      </trkpt>
      <trkpt lat="45.61905" lon="0.32018">
        <ele>141.93</ele>
        <time>2013-07-19T17:43:02Z</time>
      </trkpt>
      <trkpt lat="45.61906" lon="0.32006">
        <ele>141.45</ele>
        <time>2013-07-19T17:43:03Z</time>
      </trkpt>
      <trkpt lat="45.61901" lon="0.31819">
        <ele>138.09</ele>
        <time>2013-07-19T17:43:18Z</time>
      </trkpt>
      <trkpt lat="45.61893" lon="0.31629">
        <ele>135.2</ele>
        <time>2013-07-19T17:43:32Z</time>
      </trkpt>
      <trkpt lat="45.61891" lon="0.3142">
        <ele>134.24</ele>
        <time>2013-07-19T17:43:48Z</time>
      </trkpt>
      <trkpt lat="45.61892" lon="0.31305">
        <ele>137.13</ele>
        <time>2013-07-19T17:44:01Z</time>
      </trkpt>
      <trkpt lat="45.61874" lon="0.31171">
        <ele>135.68</ele>
        <time>2013-07-19T17:44:15Z</time>
      </trkpt>
      <trkpt lat="45.61859" lon="0.31072">
        <ele>134.24</ele>
        <time>2013-07-19T17:44:24Z</time>
      </trkpt>
      <trkpt lat="45.61841" lon="0.30971">
        <ele>130.88</ele>
        <time>2013-07-19T17:44:32Z</time>
      </trkpt>
      <trkpt lat="45.61839" lon="0.30958">
        <ele>130.88</ele>
        <time>2013-07-19T17:44:33Z</time>
      </trkpt>
      <trkpt lat="45.61828" lon="0.30888">
        <ele>128.47</ele>
        <time>2013-07-19T17:44:38Z</time>
      </trkpt>
      <trkpt lat="45.61782" lon="0.30736">
        <ele>127.51</ele>
        <time>2013-07-19T17:44:50Z</time>
      </trkpt>
      <trkpt lat="45.61732" lon="0.30589">
        <ele>128.47</ele>
        <time>2013-07-19T17:45:04Z</time>
      </trkpt>
      <trkpt lat="45.61713" lon="0.30417">
        <ele>128.47</ele>
        <time>2013-07-19T17:45:20Z</time>
      </trkpt>
      <trkpt lat="45.61677" lon="0.30276">
        <ele>128.95</ele>
        <time>2013-07-19T17:45:34Z</time>
      </trkpt>
      <trkpt lat="45.61633" lon="0.30149">
        <ele>127.99</ele>
        <time>2013-07-19T17:45:48Z</time>
      </trkpt>
      <trkpt lat="45.61628" lon="0.30142">
        <ele>127.51</ele>
        <time>2013-07-19T17:45:49Z</time>
      </trkpt>
      <trkpt lat="45.61613" lon="0.30122">
        <ele>126.07</ele>
        <time>2013-07-19T17:45:52Z</time>
      </trkpt>
      <trkpt lat="45.61607" lon="0.30116">
        <ele>125.59</ele>
        <time>2013-07-19T17:45:53Z</time>
      </trkpt>
      <trkpt lat="45.61546" lon="0.30074">
        <ele>122.71</ele>
        <time>2013-07-19T17:46:01Z</time>
      </trkpt>
      <trkpt lat="45.6153" lon="0.30063">
        <ele>121.74</ele>
        <time>2013-07-19T17:46:03Z</time>
      </trkpt>
      <trkpt lat="45.61467" lon="0.30022">
        <ele>120.3</ele>
        <time>2013-07-19T17:46:10Z</time>
      </trkpt>
      <trkpt lat="45.61413" lon="0.29981">
        <ele>117.42</ele>
        <time>2013-07-19T17:46:16Z</time>
      </trkpt>
      <trkpt lat="45.61404" lon="0.29972">
        <ele>116.94</ele>
        <time>2013-07-19T17:46:17Z</time>
      </trkpt>
      <trkpt lat="45.61396" lon="0.29962">
        <ele>116.46</ele>
        <time>2013-07-19T17:46:18Z</time>
      </trkpt>
      <trkpt lat="45.61361" lon="0.29905">
        <ele>113.09</ele>
        <time>2013-07-19T17:46:23Z</time>
      </trkpt>
      <trkpt lat="45.61332" lon="0.29818">
        <ele>109.73</ele>
        <time>2013-07-19T17:46:29Z</time>
      </trkpt>
      <trkpt lat="45.6132" lon="0.29738">
        <ele>106.36</ele>
        <time>2013-07-19T17:46:34Z</time>
      </trkpt>
      <trkpt lat="45.61319" lon="0.29721">
        <ele>105.4</ele>
        <time>2013-07-19T17:46:35Z</time>
      </trkpt>
      <trkpt lat="45.6132" lon="0.29705">
        <ele>104.92</ele>
        <time>2013-07-19T17:46:36Z</time>
      </trkpt>
      <trkpt lat="45.61323" lon="0.29688">
        <ele>103.96</ele>
        <time>2013-07-19T17:46:37Z</time>
      </trkpt>
      <trkpt lat="45.61328" lon="0.29673">
        <ele>103</ele>
        <time>2013-07-19T17:46:38Z</time>
      </trkpt>
      <trkpt lat="45.61334" lon="0.29658">
        <ele>102.52</ele>
        <time>2013-07-19T17:46:39Z</time>
      </trkpt>
      <trkpt lat="45.61372" lon="0.2957">
        <ele>99.15</ele>
        <time>2013-07-19T17:46:45Z</time>
      </trkpt>
      <trkpt lat="45.61405" lon="0.29497">
        <ele>96.27</ele>
        <time>2013-07-19T17:46:50Z</time>
      </trkpt>
      <trkpt lat="45.61437" lon="0.29443">
        <ele>92.9</ele>
        <time>2013-07-19T17:46:54Z</time>
      </trkpt>
      <trkpt lat="45.61485" lon="0.29385">
        <ele>89.06</ele>
        <time>2013-07-19T17:46:59Z</time>
      </trkpt>
      <trkpt lat="45.61504" lon="0.29361">
        <ele>87.62</ele>
        <time>2013-07-19T17:47:01Z</time>
      </trkpt>
      <trkpt lat="45.61512" lon="0.29347">
        <ele>88.58</ele>
        <time>2013-07-19T17:47:02Z</time>
      </trkpt>
      <trkpt lat="45.61518" lon="0.29331">
        <ele>87.62</ele>
        <time>2013-07-19T17:47:03Z</time>
      </trkpt>
      <trkpt lat="45.61522" lon="0.29314">
        <ele>85.69</ele>
        <time>2013-07-19T17:47:04Z</time>
      </trkpt>
      <trkpt lat="45.61525" lon="0.29296">
        <ele>85.69</ele>
        <time>2013-07-19T17:47:05Z</time>
      </trkpt>
      <trkpt lat="45.61526" lon="0.29278">
        <ele>84.25</ele>
        <time>2013-07-19T17:47:06Z</time>
      </trkpt>
      <trkpt lat="45.61528" lon="0.29244">
        <ele>82.81</ele>
        <time>2013-07-19T17:47:08Z</time>
      </trkpt>
      <trkpt lat="45.61533" lon="0.29128">
        <ele>85.21</ele>
        <time>2013-07-19T17:47:17Z</time>
      </trkpt>
      <trkpt lat="45.61539" lon="0.2901">
        <ele>88.1</ele>
        <time>2013-07-19T17:47:30Z</time>
      </trkpt>
      <trkpt lat="45.61542" lon="0.28945">
        <ele>89.54</ele>
        <time>2013-07-19T17:47:38Z</time>
      </trkpt>
      <trkpt lat="45.61548" lon="0.28825">
        <ele>92.42</ele>
        <time>2013-07-19T17:47:54Z</time>
      </trkpt>
      <trkpt lat="45.61551" lon="0.28775">
        <ele>94.35</ele>
        <time>2013-07-19T17:48:02Z</time>
      </trkpt>
      <trkpt lat="45.61554" lon="0.28727">
        <ele>95.79</ele>
        <time>2013-07-19T17:48:10Z</time>
      </trkpt>
      <trkpt lat="45.61559" lon="0.28647">
        <ele>99.15</ele>
        <time>2013-07-19T17:48:25Z</time>
      </trkpt>
      <trkpt lat="45.6156" lon="0.28566">
        <ele>102.04</ele>
        <time>2013-07-19T17:48:40Z</time>
      </trkpt>
      <trkpt lat="45.61555" lon="0.28479">
        <ele>104.92</ele>
        <time>2013-07-19T17:48:55Z</time>
      </trkpt>
      <trkpt lat="45.61547" lon="0.28358">
        <ele>107.32</ele>
        <time>2013-07-19T17:49:13Z</time>
      </trkpt>
      <trkpt lat="45.61548" lon="0.2823">
        <ele>108.77</ele>
        <time>2013-07-19T17:49:30Z</time>
      </trkpt>
      <trkpt lat="45.6155" lon="0.28182">
        <ele>109.25</ele>
        <time>2013-07-19T17:49:36Z</time>
      </trkpt>
      <trkpt lat="45.61551" lon="0.28173">
        <ele>109.25</ele>
        <time>2013-07-19T17:49:37Z</time>
      </trkpt>
      <trkpt lat="45.61574" lon="0.28023">
        <ele>107.81</ele>
        <time>2013-07-19T17:49:51Z</time>
      </trkpt>
      <trkpt lat="45.61613" lon="0.27865">
        <ele>109.25</ele>
        <time>2013-07-19T17:50:07Z</time>
      </trkpt>
      <trkpt lat="45.61645" lon="0.27735">
        <ele>111.17</ele>
        <time>2013-07-19T17:50:23Z</time>
      </trkpt>
      <trkpt lat="45.61682" lon="0.27609">
        <ele>107.81</ele>
        <time>2013-07-19T17:50:36Z</time>
      </trkpt>
      <trkpt lat="45.61721" lon="0.27512">
        <ele>104.92</ele>
        <time>2013-07-19T17:50:44Z</time>
      </trkpt>
      <trkpt lat="45.61754" lon="0.27431">
        <ele>101.56</ele>
        <time>2013-07-19T17:50:50Z</time>
      </trkpt>
      <trkpt lat="45.61788" lon="0.27344">
        <ele>98.67</ele>
        <time>2013-07-19T17:50:56Z</time>
      </trkpt>
      <trkpt lat="45.61803" lon="0.273">
        <ele>96.75</ele>
        <time>2013-07-19T17:50:59Z</time>
      </trkpt>
      <trkpt lat="45.61846" lon="0.27149">
        <ele>95.31</ele>
        <time>2013-07-19T17:51:11Z</time>
      </trkpt>
      <trkpt lat="45.61875" lon="0.2704">
        <ele>98.19</ele>
        <time>2013-07-19T17:51:24Z</time>
      </trkpt>
      <trkpt lat="45.61906" lon="0.26924">
        <ele>100.11</ele>
        <time>2013-07-19T17:51:40Z</time>
      </trkpt>
      <trkpt lat="45.61945" lon="0.26783">
        <ele>102.04</ele>
        <time>2013-07-19T17:51:58Z</time>
      </trkpt>
      <trkpt lat="45.61976" lon="0.26664">
        <ele>102.04</ele>
        <time>2013-07-19T17:52:13Z</time>
      </trkpt>
      <trkpt lat="45.61993" lon="0.26555">
        <ele>100.6</ele>
        <time>2013-07-19T17:52:25Z</time>
      </trkpt>
      <trkpt lat="45.61997" lon="0.26526">
        <ele>100.11</ele>
        <time>2013-07-19T17:52:28Z</time>
      </trkpt>
      <trkpt lat="45.61998" lon="0.26517">
        <ele>100.11</ele>
        <time>2013-07-19T17:52:29Z</time>
      </trkpt>
      <trkpt lat="45.62018" lon="0.26363">
        <ele>100.6</ele>
        <time>2013-07-19T17:52:45Z</time>
      </trkpt>
      <trkpt lat="45.62031" lon="0.26265">
        <ele>103.96</ele>
        <time>2013-07-19T17:52:57Z</time>
      </trkpt>
      <trkpt lat="45.62037" lon="0.26216">
        <ele>105.88</ele>
        <time>2013-07-19T17:53:05Z</time>
      </trkpt>
      <trkpt lat="45.62046" lon="0.2615">
        <ele>108.77</ele>
        <time>2013-07-19T17:53:17Z</time>
      </trkpt>
      <trkpt lat="45.62054" lon="0.26087">
        <ele>112.13</ele>
        <time>2013-07-19T17:53:30Z</time>
      </trkpt>
      <trkpt lat="45.62063" lon="0.26012">
        <ele>115.5</ele>
        <time>2013-07-19T17:53:45Z</time>
      </trkpt>
      <trkpt lat="45.62073" lon="0.25941">
        <ele>118.38</ele>
        <time>2013-07-19T17:53:59Z</time>
      </trkpt>
      <trkpt lat="45.6209" lon="0.2588">
        <ele>121.74</ele>
        <time>2013-07-19T17:54:12Z</time>
      </trkpt>
      <trkpt lat="45.62108" lon="0.25822">
        <ele>125.11</ele>
        <time>2013-07-19T17:54:24Z</time>
      </trkpt>
      <trkpt lat="45.6212" lon="0.25752">
        <ele>127.99</ele>
        <time>2013-07-19T17:54:38Z</time>
      </trkpt>
      <trkpt lat="45.62122" lon="0.25679">
        <ele>131.36</ele>
        <time>2013-07-19T17:54:52Z</time>
      </trkpt>
      <trkpt lat="45.62115" lon="0.25607">
        <ele>134.24</ele>
        <time>2013-07-19T17:55:06Z</time>
      </trkpt>
      <trkpt lat="45.62103" lon="0.25538">
        <ele>137.61</ele>
        <time>2013-07-19T17:55:20Z</time>
      </trkpt>
      <trkpt lat="45.62091" lon="0.25473">
        <ele>140.97</ele>
        <time>2013-07-19T17:55:33Z</time>
      </trkpt>
      <trkpt lat="45.62071" lon="0.25391">
        <ele>143.85</ele>
        <time>2013-07-19T17:55:49Z</time>
      </trkpt>
      <trkpt lat="45.6207" lon="0.25386">
        <ele>143.85</ele>
        <time>2013-07-19T17:55:50Z</time>
      </trkpt>
      <trkpt lat="45.6207" lon="0.25379">
        <ele>143.85</ele>
        <time>2013-07-19T17:55:51Z</time>
      </trkpt>
      <trkpt lat="45.6207" lon="0.25373">
        <ele>143.85</ele>
        <time>2013-07-19T17:55:52Z</time>
      </trkpt>
      <trkpt lat="45.62071" lon="0.25366">
        <ele>143.85</ele>
        <time>2013-07-19T17:55:53Z</time>
      </trkpt>
      <trkpt lat="45.62072" lon="0.2536">
        <ele>143.85</ele>
        <time>2013-07-19T17:55:54Z</time>
      </trkpt>
      <trkpt lat="45.62075" lon="0.25341">
        <ele>143.85</ele>
        <time>2013-07-19T17:55:57Z</time>
      </trkpt>
      <trkpt lat="45.62078" lon="0.25335">
        <ele>143.85</ele>
        <time>2013-07-19T17:55:58Z</time>
      </trkpt>
      <trkpt lat="45.62081" lon="0.2533">
        <ele>144.34</ele>
        <time>2013-07-19T17:55:59Z</time>
      </trkpt>
      <trkpt lat="45.62105" lon="0.25299">
        <ele>143.85</ele>
        <time>2013-07-19T17:56:05Z</time>
      </trkpt>
      <trkpt lat="45.62109" lon="0.25294">
        <ele>143.85</ele>
        <time>2013-07-19T17:56:06Z</time>
      </trkpt>
      <trkpt lat="45.62194" lon="0.25197">
        <ele>143.85</ele>
        <time>2013-07-19T17:56:22Z</time>
      </trkpt>
      <trkpt lat="45.62271" lon="0.25107">
        <ele>142.89</ele>
        <time>2013-07-19T17:56:36Z</time>
      </trkpt>
      <trkpt lat="45.62344" lon="0.24988">
        <ele>141.93</ele>
        <time>2013-07-19T17:56:50Z</time>
      </trkpt>
      <trkpt lat="45.62398" lon="0.24843">
        <ele>141.45</ele>
        <time>2013-07-19T17:57:04Z</time>
      </trkpt>
      <trkpt lat="45.62431" lon="0.24725">
        <ele>143.37</ele>
        <time>2013-07-19T17:57:18Z</time>
      </trkpt>
      <trkpt lat="45.62455" lon="0.24654">
        <ele>145.78</ele>
        <time>2013-07-19T17:57:28Z</time>
      </trkpt>
      <trkpt lat="45.62465" lon="0.24636">
        <ele>146.26</ele>
        <time>2013-07-19T17:57:31Z</time>
      </trkpt>
      <trkpt lat="45.62467" lon="0.2463">
        <ele>146.26</ele>
        <time>2013-07-19T17:57:32Z</time>
      </trkpt>
      <trkpt lat="45.62467" lon="0.24622">
        <ele>146.26</ele>
        <time>2013-07-19T17:57:33Z</time>
      </trkpt>
      <trkpt lat="45.62467" lon="0.24615">
        <ele>146.74</ele>
        <time>2013-07-19T17:57:34Z</time>
      </trkpt>
      <trkpt lat="45.62467" lon="0.24607">
        <ele>146.74</ele>
        <time>2013-07-19T17:57:35Z</time>
      </trkpt>
      <trkpt lat="45.62467" lon="0.24599">
        <ele>147.22</ele>
        <time>2013-07-19T17:57:36Z</time>
      </trkpt>
      <trkpt lat="45.62468" lon="0.24591">
        <ele>147.22</ele>
        <time>2013-07-19T17:57:37Z</time>
      </trkpt>
      <trkpt lat="45.6247" lon="0.24583">
        <ele>147.22</ele>
        <time>2013-07-19T17:57:38Z</time>
      </trkpt>
      <trkpt lat="45.62497" lon="0.24477">
        <ele>150.58</ele>
        <time>2013-07-19T17:57:53Z</time>
      </trkpt>
      <trkpt lat="45.62517" lon="0.24406">
        <ele>152.51</ele>
        <time>2013-07-19T17:58:04Z</time>
      </trkpt>
      <trkpt lat="45.62539" lon="0.24322">
        <ele>153.47</ele>
        <time>2013-07-19T17:58:17Z</time>
      </trkpt>
      <trkpt lat="45.62568" lon="0.24215">
        <ele>151.54</ele>
        <time>2013-07-19T17:58:30Z</time>
      </trkpt>
      <trkpt lat="45.62618" lon="0.2403">
        <ele>149.14</ele>
        <time>2013-07-19T17:58:46Z</time>
      </trkpt>
      <trkpt lat="45.62652" lon="0.23906">
        <ele>151.54</ele>
        <time>2013-07-19T17:58:59Z</time>
      </trkpt>
      <trkpt lat="45.62678" lon="0.23808">
        <ele>154.43</ele>
        <time>2013-07-19T17:59:12Z</time>
      </trkpt>
      <trkpt lat="45.62701" lon="0.23726">
        <ele>157.79</ele>
        <time>2013-07-19T17:59:23Z</time>
      </trkpt>
      <trkpt lat="45.62728" lon="0.23621">
        <ele>159.72</ele>
        <time>2013-07-19T17:59:38Z</time>
      </trkpt>
      <trkpt lat="45.6274" lon="0.23582">
        <ele>161.16</ele>
        <time>2013-07-19T17:59:44Z</time>
      </trkpt>
      <trkpt lat="45.62742" lon="0.23576">
        <ele>161.16</ele>
        <time>2013-07-19T17:59:45Z</time>
      </trkpt>
      <trkpt lat="45.62744" lon="0.2357">
        <ele>161.64</ele>
        <time>2013-07-19T17:59:46Z</time>
      </trkpt>
      <trkpt lat="45.62772" lon="0.2347">
        <ele>164.04</ele>
        <time>2013-07-19T18:00:00Z</time>
      </trkpt>
      <trkpt lat="45.62807" lon="0.23332">
        <ele>166.45</ele>
        <time>2013-07-19T18:00:18Z</time>
      </trkpt>
      <trkpt lat="45.6284" lon="0.23209">
        <ele>167.41</ele>
        <time>2013-07-19T18:00:33Z</time>
      </trkpt>
      <trkpt lat="45.6288" lon="0.23065">
        <ele>167.41</ele>
        <time>2013-07-19T18:00:49Z</time>
      </trkpt>
      <trkpt lat="45.62914" lon="0.22917">
        <ele>166.93</ele>
        <time>2013-07-19T18:01:03Z</time>
      </trkpt>
      <trkpt lat="45.62927" lon="0.22827">
        <ele>163.56</ele>
        <time>2013-07-19T18:01:10Z</time>
      </trkpt>
      <trkpt lat="45.62929" lon="0.22813">
        <ele>163.08</ele>
        <time>2013-07-19T18:01:11Z</time>
      </trkpt>
      <trkpt lat="45.62944" lon="0.22698">
        <ele>160.68</ele>
        <time>2013-07-19T18:01:19Z</time>
      </trkpt>
      <trkpt lat="45.62948" lon="0.22686">
        <ele>160.68</ele>
        <time>2013-07-19T18:01:20Z</time>
      </trkpt>
      <trkpt lat="45.62956" lon="0.22661">
        <ele>160.68</ele>
        <time>2013-07-19T18:01:22Z</time>
      </trkpt>
      <trkpt lat="45.62957" lon="0.22648">
        <ele>160.68</ele>
        <time>2013-07-19T18:01:23Z</time>
      </trkpt>
      <trkpt lat="45.62955" lon="0.22635">
        <ele>160.2</ele>
        <time>2013-07-19T18:01:24Z</time>
      </trkpt>
      <trkpt lat="45.62954" lon="0.22622">
        <ele>159.24</ele>
        <time>2013-07-19T18:01:25Z</time>
      </trkpt>
      <trkpt lat="45.62954" lon="0.2261">
        <ele>159.72</ele>
        <time>2013-07-19T18:01:26Z</time>
      </trkpt>
      <trkpt lat="45.62955" lon="0.22597">
        <ele>159.72</ele>
        <time>2013-07-19T18:01:27Z</time>
      </trkpt>
      <trkpt lat="45.62964" lon="0.22509">
        <ele>156.83</ele>
        <time>2013-07-19T18:01:33Z</time>
      </trkpt>
      <trkpt lat="45.62973" lon="0.22429">
        <ele>153.47</ele>
        <time>2013-07-19T18:01:38Z</time>
      </trkpt>
      <trkpt lat="45.62986" lon="0.22315">
        <ele>150.58</ele>
        <time>2013-07-19T18:01:45Z</time>
      </trkpt>
      <trkpt lat="45.62988" lon="0.22299">
        <ele>150.1</ele>
        <time>2013-07-19T18:01:46Z</time>
      </trkpt>
      <trkpt lat="45.63022" lon="0.22159">
        <ele>146.74</ele>
        <time>2013-07-19T18:01:55Z</time>
      </trkpt>
      <trkpt lat="45.63091" lon="0.21978">
        <ele>144.82</ele>
        <time>2013-07-19T18:02:08Z</time>
      </trkpt>
      <trkpt lat="45.63163" lon="0.2182">
        <ele>144.82</ele>
        <time>2013-07-19T18:02:23Z</time>
      </trkpt>
      <trkpt lat="45.63215" lon="0.21704">
        <ele>141.45</ele>
        <time>2013-07-19T18:02:33Z</time>
      </trkpt>
      <trkpt lat="45.6327" lon="0.21583">
        <ele>138.09</ele>
        <time>2013-07-19T18:02:43Z</time>
      </trkpt>
      <trkpt lat="45.63337" lon="0.21428">
        <ele>135.2</ele>
        <time>2013-07-19T18:02:56Z</time>
      </trkpt>
      <trkpt lat="45.63375" lon="0.21327">
        <ele>134.24</ele>
        <time>2013-07-19T18:03:05Z</time>
      </trkpt>
      <trkpt lat="45.63381" lon="0.21317">
        <ele>133.76</ele>
        <time>2013-07-19T18:03:06Z</time>
      </trkpt>
      <trkpt lat="45.63387" lon="0.21309">
        <ele>133.76</ele>
        <time>2013-07-19T18:03:07Z</time>
      </trkpt>
      <trkpt lat="45.63395" lon="0.21305">
        <ele>134.24</ele>
        <time>2013-07-19T18:03:08Z</time>
      </trkpt>
      <trkpt lat="45.63403" lon="0.21303">
        <ele>133.28</ele>
        <time>2013-07-19T18:03:09Z</time>
      </trkpt>
      <trkpt lat="45.63411" lon="0.21301">
        <ele>133.28</ele>
        <time>2013-07-19T18:03:10Z</time>
      </trkpt>
      <trkpt lat="45.63419" lon="0.21298">
        <ele>133.28</ele>
        <time>2013-07-19T18:03:11Z</time>
      </trkpt>
      <trkpt lat="45.63426" lon="0.21292">
        <ele>133.28</ele>
        <time>2013-07-19T18:03:12Z</time>
      </trkpt>
      <trkpt lat="45.63433" lon="0.21285">
        <ele>133.28</ele>
        <time>2013-07-19T18:03:13Z</time>
      </trkpt>
      <trkpt lat="45.63438" lon="0.21276">
        <ele>134.24</ele>
        <time>2013-07-19T18:03:14Z</time>
      </trkpt>
      <trkpt lat="45.63442" lon="0.21266">
        <ele>134.24</ele>
        <time>2013-07-19T18:03:15Z</time>
      </trkpt>
      <trkpt lat="45.63444" lon="0.21254">
        <ele>134.24</ele>
        <time>2013-07-19T18:03:16Z</time>
      </trkpt>
      <trkpt lat="45.63445" lon="0.21242">
        <ele>134.24</ele>
        <time>2013-07-19T18:03:17Z</time>
      </trkpt>
      <trkpt lat="45.63443" lon="0.21229">
        <ele>133.76</ele>
        <time>2013-07-19T18:03:18Z</time>
      </trkpt>
      <trkpt lat="45.63441" lon="0.21217">
        <ele>133.76</ele>
        <time>2013-07-19T18:03:19Z</time>
      </trkpt>
      <trkpt lat="45.6344" lon="0.21204">
        <ele>133.76</ele>
        <time>2013-07-19T18:03:20Z</time>
      </trkpt>
      <trkpt lat="45.63441" lon="0.21191">
        <ele>133.76</ele>
        <time>2013-07-19T18:03:21Z</time>
      </trkpt>
      <trkpt lat="45.63444" lon="0.21178">
        <ele>133.76</ele>
        <time>2013-07-19T18:03:22Z</time>
      </trkpt>
      <trkpt lat="45.63449" lon="0.21166">
        <ele>133.76</ele>
        <time>2013-07-19T18:03:23Z</time>
      </trkpt>
      <trkpt lat="45.63455" lon="0.21155">
        <ele>133.28</ele>
        <time>2013-07-19T18:03:24Z</time>
      </trkpt>
      <trkpt lat="45.63531" lon="0.21005">
        <ele>132.32</ele>
        <time>2013-07-19T18:03:39Z</time>
      </trkpt>
      <trkpt lat="45.63545" lon="0.20978">
        <ele>131.84</ele>
        <time>2013-07-19T18:03:42Z</time>
      </trkpt>
      <trkpt lat="45.63549" lon="0.2097">
        <ele>131.84</ele>
        <time>2013-07-19T18:03:43Z</time>
      </trkpt>
      <trkpt lat="45.63553" lon="0.2096">
        <ele>131.84</ele>
        <time>2013-07-19T18:03:44Z</time>
      </trkpt>
      <trkpt lat="45.63555" lon="0.2095">
        <ele>131.84</ele>
        <time>2013-07-19T18:03:45Z</time>
      </trkpt>
      <trkpt lat="45.63557" lon="0.2094">
        <ele>131.84</ele>
        <time>2013-07-19T18:03:46Z</time>
      </trkpt>
      <trkpt lat="45.63559" lon="0.20929">
        <ele>131.84</ele>
        <time>2013-07-19T18:03:47Z</time>
      </trkpt>
      <trkpt lat="45.63562" lon="0.20919">
        <ele>131.84</ele>
        <time>2013-07-19T18:03:48Z</time>
      </trkpt>
      <trkpt lat="45.63622" lon="0.20778">
        <ele>132.32</ele>
        <time>2013-07-19T18:04:03Z</time>
      </trkpt>
      <trkpt lat="45.6371" lon="0.20579">
        <ele>133.28</ele>
        <time>2013-07-19T18:04:25Z</time>
      </trkpt>
      <trkpt lat="45.6379" lon="0.20397">
        <ele>131.36</ele>
        <time>2013-07-19T18:04:43Z</time>
      </trkpt>
      <trkpt lat="45.63834" lon="0.20302">
        <ele>129.43</ele>
        <time>2013-07-19T18:04:52Z</time>
      </trkpt>
      <trkpt lat="45.6384" lon="0.20294">
        <ele>129.92</ele>
        <time>2013-07-19T18:04:53Z</time>
      </trkpt>
      <trkpt lat="45.63846" lon="0.20286">
        <ele>129.92</ele>
        <time>2013-07-19T18:04:54Z</time>
      </trkpt>
      <trkpt lat="45.6385" lon="0.20277">
        <ele>129.43</ele>
        <time>2013-07-19T18:04:55Z</time>
      </trkpt>
      <trkpt lat="45.63853" lon="0.20266">
        <ele>129.43</ele>
        <time>2013-07-19T18:04:56Z</time>
      </trkpt>
      <trkpt lat="45.63855" lon="0.20255">
        <ele>128.95</ele>
        <time>2013-07-19T18:04:57Z</time>
      </trkpt>
      <trkpt lat="45.63858" lon="0.20243">
        <ele>129.43</ele>
        <time>2013-07-19T18:04:58Z</time>
      </trkpt>
      <trkpt lat="45.63862" lon="0.20233">
        <ele>129.43</ele>
        <time>2013-07-19T18:04:59Z</time>
      </trkpt>
      <trkpt lat="45.63938" lon="0.2006">
        <ele>129.92</ele>
        <time>2013-07-19T18:05:16Z</time>
      </trkpt>
      <trkpt lat="45.63997" lon="0.19917">
        <ele>133.28</ele>
        <time>2013-07-19T18:05:32Z</time>
      </trkpt>
      <trkpt lat="45.64043" lon="0.19792">
        <ele>135.68</ele>
        <time>2013-07-19T18:05:47Z</time>
      </trkpt>
      <trkpt lat="45.64045" lon="0.19783">
        <ele>135.68</ele>
        <time>2013-07-19T18:05:48Z</time>
      </trkpt>
      <trkpt lat="45.6408" lon="0.19652">
        <ele>137.61</ele>
        <time>2013-07-19T18:06:02Z</time>
      </trkpt>
      <trkpt lat="45.64116" lon="0.19506">
        <ele>137.61</ele>
        <time>2013-07-19T18:06:18Z</time>
      </trkpt>
      <trkpt lat="45.64154" lon="0.19344">
        <ele>136.64</ele>
        <time>2013-07-19T18:06:35Z</time>
      </trkpt>
      <trkpt lat="45.64163" lon="0.19309">
        <ele>136.64</ele>
        <time>2013-07-19T18:06:39Z</time>
      </trkpt>
      <trkpt lat="45.64198" lon="0.19165">
        <ele>136.16</ele>
        <time>2013-07-19T18:06:54Z</time>
      </trkpt>
      <trkpt lat="45.64227" lon="0.19042">
        <ele>136.16</ele>
        <time>2013-07-19T18:07:07Z</time>
      </trkpt>
      <trkpt lat="45.64252" lon="0.18937">
        <ele>134.24</ele>
        <time>2013-07-19T18:07:18Z</time>
      </trkpt>
      <trkpt lat="45.64274" lon="0.18844">
        <ele>132.32</ele>
        <time>2013-07-19T18:07:29Z</time>
      </trkpt>
      <trkpt lat="45.64276" lon="0.18841">
        <ele>132.32</ele>
        <time>2013-07-19T18:07:30Z</time>
      </trkpt>
      <trkpt lat="45.64278" lon="0.18837">
        <ele>132.32</ele>
        <time>2013-07-19T18:07:31Z</time>
      </trkpt>
      <trkpt lat="45.64279" lon="0.18833">
        <ele>132.32</ele>
        <time>2013-07-19T18:07:32Z</time>
      </trkpt>
      <trkpt lat="45.6428" lon="0.18829">
        <ele>132.32</ele>
        <time>2013-07-19T18:07:33Z</time>
      </trkpt>
      <trkpt lat="45.6428" lon="0.18825">
        <ele>132.32</ele>
        <time>2013-07-19T18:07:34Z</time>
      </trkpt>
      <trkpt lat="45.64281" lon="0.18821">
        <ele>131.84</ele>
        <time>2013-07-19T18:07:35Z</time>
      </trkpt>
      <trkpt lat="45.64294" lon="0.18764">
        <ele>131.84</ele>
        <time>2013-07-19T18:07:45Z</time>
      </trkpt>
      <trkpt lat="45.64301" lon="0.18727">
        <ele>131.84</ele>
        <time>2013-07-19T18:07:50Z</time>
      </trkpt>
      <trkpt lat="45.64303" lon="0.18719">
        <ele>131.84</ele>
        <time>2013-07-19T18:07:51Z</time>
      </trkpt>
      <trkpt lat="45.64328" lon="0.18618">
        <ele>131.84</ele>
        <time>2013-07-19T18:08:03Z</time>
      </trkpt>
      <trkpt lat="45.6433" lon="0.18609">
        <ele>131.84</ele>
        <time>2013-07-19T18:08:04Z</time>
      </trkpt>
      <trkpt lat="45.64355" lon="0.18504">
        <ele>130.88</ele>
        <time>2013-07-19T18:08:16Z</time>
      </trkpt>
      <trkpt lat="45.64357" lon="0.18496">
        <ele>130.88</ele>
        <time>2013-07-19T18:08:17Z</time>
      </trkpt>
      <trkpt lat="45.64359" lon="0.18487">
        <ele>130.88</ele>
        <time>2013-07-19T18:08:18Z</time>
      </trkpt>
      <trkpt lat="45.64362" lon="0.18471">
        <ele>130.4</ele>
        <time>2013-07-19T18:08:20Z</time>
      </trkpt>
      <trkpt lat="45.64393" lon="0.18343">
        <ele>128.47</ele>
        <time>2013-07-19T18:08:34Z</time>
      </trkpt>
      <trkpt lat="45.64426" lon="0.18209">
        <ele>125.11</ele>
        <time>2013-07-19T18:08:46Z</time>
      </trkpt>
      <trkpt lat="45.64446" lon="0.18128">
        <ele>121.74</ele>
        <time>2013-07-19T18:08:53Z</time>
      </trkpt>
      <trkpt lat="45.64449" lon="0.18122">
        <ele>120.78</ele>
        <time>2013-07-19T18:08:54Z</time>
      </trkpt>
      <trkpt lat="45.64452" lon="0.18117">
        <ele>120.78</ele>
        <time>2013-07-19T18:08:55Z</time>
      </trkpt>
      <trkpt lat="45.64457" lon="0.18113">
        <ele>120.3</ele>
        <time>2013-07-19T18:08:56Z</time>
      </trkpt>
      <trkpt lat="45.64462" lon="0.18109">
        <ele>120.3</ele>
        <time>2013-07-19T18:08:57Z</time>
      </trkpt>
      <trkpt lat="45.64465" lon="0.18103">
        <ele>120.3</ele>
        <time>2013-07-19T18:08:58Z</time>
      </trkpt>
      <trkpt lat="45.64467" lon="0.18096">
        <ele>119.82</ele>
        <time>2013-07-19T18:08:59Z</time>
      </trkpt>
      <trkpt lat="45.64466" lon="0.18089">
        <ele>119.82</ele>
        <time>2013-07-19T18:09:00Z</time>
      </trkpt>
      <trkpt lat="45.64463" lon="0.18081">
        <ele>119.34</ele>
        <time>2013-07-19T18:09:01Z</time>
      </trkpt>
      <trkpt lat="45.64461" lon="0.18074">
        <ele>118.86</ele>
        <time>2013-07-19T18:09:02Z</time>
      </trkpt>
      <trkpt lat="45.64461" lon="0.18065">
        <ele>118.86</ele>
        <time>2013-07-19T18:09:03Z</time>
      </trkpt>
      <trkpt lat="45.64462" lon="0.18056">
        <ele>118.86</ele>
        <time>2013-07-19T18:09:04Z</time>
      </trkpt>
      <trkpt lat="45.64464" lon="0.18046">
        <ele>118.38</ele>
        <time>2013-07-19T18:09:05Z</time>
      </trkpt>
      <trkpt lat="45.64467" lon="0.18037">
        <ele>118.38</ele>
        <time>2013-07-19T18:09:06Z</time>
      </trkpt>
      <trkpt lat="45.64484" lon="0.17963">
        <ele>115.5</ele>
        <time>2013-07-19T18:09:14Z</time>
      </trkpt>
      <trkpt lat="45.64487" lon="0.17954">
        <ele>114.53</ele>
        <time>2013-07-19T18:09:16Z</time>
      </trkpt>
      <trkpt lat="45.64489" lon="0.17952">
        <ele>114.53</ele>
        <time>2013-07-19T18:09:17Z</time>
      </trkpt>
      <trkpt lat="45.6449" lon="0.17951">
        <ele>114.05</ele>
        <time>2013-07-19T18:09:18Z</time>
      </trkpt>
      <trkpt lat="45.64491" lon="0.17948">
        <ele>114.05</ele>
        <time>2013-07-19T18:09:19Z</time>
      </trkpt>
      <trkpt lat="45.64492" lon="0.17945">
        <ele>114.05</ele>
        <time>2013-07-19T18:09:20Z</time>
      </trkpt>
      <trkpt lat="45.64493" lon="0.17941">
        <ele>114.05</ele>
        <time>2013-07-19T18:09:21Z</time>
      </trkpt>
      <trkpt lat="45.645" lon="0.1792">
        <ele>113.57</ele>
        <time>2013-07-19T18:09:27Z</time>
      </trkpt>
      <trkpt lat="45.64501" lon="0.17915">
        <ele>113.57</ele>
        <time>2013-07-19T18:09:28Z</time>
      </trkpt>
      <trkpt lat="45.64515" lon="0.17861">
        <ele>111.65</ele>
        <time>2013-07-19T18:09:37Z</time>
      </trkpt>
      <trkpt lat="45.64517" lon="0.17853">
        <ele>111.65</ele>
        <time>2013-07-19T18:09:38Z</time>
      </trkpt>
      <trkpt lat="45.64519" lon="0.17845">
        <ele>111.65</ele>
        <time>2013-07-19T18:09:39Z</time>
      </trkpt>
      <trkpt lat="45.64531" lon="0.17787">
        <ele>108.29</ele>
        <time>2013-07-19T18:09:48Z</time>
      </trkpt>
      <trkpt lat="45.64531" lon="0.17781">
        <ele>108.29</ele>
        <time>2013-07-19T18:09:49Z</time>
      </trkpt>
      <trkpt lat="45.64532" lon="0.17768">
        <ele>107.81</ele>
        <time>2013-07-19T18:09:51Z</time>
      </trkpt>
      <trkpt lat="45.64534" lon="0.1776">
        <ele>107.81</ele>
        <time>2013-07-19T18:09:52Z</time>
      </trkpt>
      <trkpt lat="45.64559" lon="0.17657">
        <ele>104.92</ele>
        <time>2013-07-19T18:10:03Z</time>
      </trkpt>
      <trkpt lat="45.6459" lon="0.17522">
        <ele>102.04</ele>
        <time>2013-07-19T18:10:14Z</time>
      </trkpt>
      <trkpt lat="45.646" lon="0.17483">
        <ele>101.08</ele>
        <time>2013-07-19T18:10:17Z</time>
      </trkpt>
      <trkpt lat="45.64634" lon="0.17341">
        <ele>97.71</ele>
        <time>2013-07-19T18:10:29Z</time>
      </trkpt>
      <trkpt lat="45.64651" lon="0.17272">
        <ele>96.27</ele>
        <time>2013-07-19T18:10:38Z</time>
      </trkpt>
      <trkpt lat="45.64654" lon="0.17259">
        <ele>96.27</ele>
        <time>2013-07-19T18:10:40Z</time>
      </trkpt>
      <trkpt lat="45.64683" lon="0.17139">
        <ele>95.79</ele>
        <time>2013-07-19T18:10:55Z</time>
      </trkpt>
      <trkpt lat="45.64718" lon="0.16994">
        <ele>93.87</ele>
        <time>2013-07-19T18:11:11Z</time>
      </trkpt>
      <trkpt lat="45.64757" lon="0.16829">
        <ele>91.46</ele>
        <time>2013-07-19T18:11:30Z</time>
      </trkpt>
      <trkpt lat="45.64769" lon="0.16776">
        <ele>91.46</ele>
        <time>2013-07-19T18:11:37Z</time>
      </trkpt>
      <trkpt lat="45.64772" lon="0.16763">
        <ele>90.98</ele>
        <time>2013-07-19T18:11:39Z</time>
      </trkpt>
      <trkpt lat="45.64786" lon="0.16709">
        <ele>90.5</ele>
        <time>2013-07-19T18:11:47Z</time>
      </trkpt>
      <trkpt lat="45.6479" lon="0.16689">
        <ele>90.5</ele>
        <time>2013-07-19T18:11:50Z</time>
      </trkpt>
      <trkpt lat="45.64792" lon="0.16683">
        <ele>90.5</ele>
        <time>2013-07-19T18:11:51Z</time>
      </trkpt>
      <trkpt lat="45.64802" lon="0.16658">
        <ele>90.02</ele>
        <time>2013-07-19T18:11:56Z</time>
      </trkpt>
      <trkpt lat="45.64805" lon="0.16657">
        <ele>90.02</ele>
        <time>2013-07-19T18:11:57Z</time>
      </trkpt>
      <trkpt lat="45.64809" lon="0.16655">
        <ele>90.02</ele>
        <time>2013-07-19T18:12:07Z</time>
      </trkpt>
      <trkpt lat="45.64809" lon="0.16653">
        <ele>90.02</ele>
        <time>2013-07-19T18:12:33Z</time>
      </trkpt>
      <trkpt lat="45.6481" lon="0.16654">
        <ele>90.02</ele>
        <time>2013-07-19T18:13:00Z</time>
      </trkpt>
      <trkpt lat="45.64812" lon="0.16653">
        <ele>90.02</ele>
        <time>2013-07-19T18:13:32Z</time>
      </trkpt>
      <trkpt lat="45.6481" lon="0.16655">
        <ele>90.02</ele>
        <time>2013-07-19T18:14:05Z</time>
      </trkpt>
      <trkpt lat="45.64808" lon="0.16654">
        <ele>90.02</ele>
        <time>2013-07-19T18:14:28Z</time>
      </trkpt>
      <trkpt lat="45.64806" lon="0.16653">
        <ele>90.02</ele>
        <time>2013-07-19T18:14:29Z</time>
      </trkpt>
      <trkpt lat="45.64805" lon="0.1665">
        <ele>90.02</ele>
        <time>2013-07-19T18:14:30Z</time>
      </trkpt>
      <trkpt lat="45.64805" lon="0.16647">
        <ele>90.02</ele>
        <time>2013-07-19T18:14:31Z</time>
      </trkpt>
      <trkpt lat="45.64806" lon="0.16643">
        <ele>90.02</ele>
        <time>2013-07-19T18:14:32Z</time>
      </trkpt>
      <trkpt lat="45.64807" lon="0.16638">
        <ele>90.02</ele>
        <time>2013-07-19T18:14:33Z</time>
      </trkpt>
      <trkpt lat="45.64809" lon="0.16634">
        <ele>90.02</ele>
        <time>2013-07-19T18:14:34Z</time>
      </trkpt>
      <trkpt lat="45.6481" lon="0.16629">
        <ele>90.02</ele>
        <time>2013-07-19T18:14:35Z</time>
      </trkpt>
      <trkpt lat="45.64823" lon="0.16554">
        <ele>89.54</ele>
        <time>2013-07-19T18:14:48Z</time>
      </trkpt>
      <trkpt lat="45.64836" lon="0.16494">
        <ele>89.06</ele>
        <time>2013-07-19T18:14:58Z</time>
      </trkpt>
      <trkpt lat="45.64838" lon="0.16487">
        <ele>89.06</ele>
        <time>2013-07-19T18:14:59Z</time>
      </trkpt>
      <trkpt lat="45.64844" lon="0.16421">
        <ele>88.58</ele>
        <time>2013-07-19T18:15:08Z</time>
      </trkpt>
      <trkpt lat="45.64844" lon="0.16406">
        <ele>88.58</ele>
        <time>2013-07-19T18:15:10Z</time>
      </trkpt>
      <trkpt lat="45.64841" lon="0.16357">
        <ele>88.58</ele>
        <time>2013-07-19T18:15:17Z</time>
      </trkpt>
      <trkpt lat="45.6484" lon="0.16309">
        <ele>87.62</ele>
        <time>2013-07-19T18:15:25Z</time>
      </trkpt>
      <trkpt lat="45.64841" lon="0.16306">
        <ele>87.62</ele>
        <time>2013-07-19T18:15:26Z</time>
      </trkpt>
      <trkpt lat="45.6487" lon="0.16294">
        <ele>87.62</ele>
        <time>2013-07-19T18:15:36Z</time>
      </trkpt>
      <trkpt lat="45.64931" lon="0.1628">
        <ele>87.62</ele>
        <time>2013-07-19T18:15:49Z</time>
      </trkpt>
      <trkpt lat="45.64998" lon="0.16269">
        <ele>86.66</ele>
        <time>2013-07-19T18:16:02Z</time>
      </trkpt>
      <trkpt lat="45.65003" lon="0.1627">
        <ele>86.18</ele>
        <time>2013-07-19T18:16:03Z</time>
      </trkpt>
      <trkpt lat="45.65008" lon="0.16271">
        <ele>85.69</ele>
        <time>2013-07-19T18:16:04Z</time>
      </trkpt>
      <trkpt lat="45.65012" lon="0.16271">
        <ele>85.69</ele>
        <time>2013-07-19T18:16:05Z</time>
      </trkpt>
      <trkpt lat="45.65015" lon="0.16269">
        <ele>85.21</ele>
        <time>2013-07-19T18:16:06Z</time>
      </trkpt>
      <trkpt lat="45.65016" lon="0.16264">
        <ele>85.21</ele>
        <time>2013-07-19T18:16:07Z</time>
      </trkpt>
      <trkpt lat="45.65015" lon="0.16259">
        <ele>85.21</ele>
        <time>2013-07-19T18:16:08Z</time>
      </trkpt>
      <trkpt lat="45.65014" lon="0.16253">
        <ele>85.21</ele>
        <time>2013-07-19T18:16:09Z</time>
      </trkpt>
      <trkpt lat="45.65013" lon="0.16247">
        <ele>85.21</ele>
        <time>2013-07-19T18:16:10Z</time>
      </trkpt>
      <trkpt lat="45.65009" lon="0.16216">
        <ele>83.77</ele>
        <time>2013-07-19T18:16:14Z</time>
      </trkpt>
      <trkpt lat="45.65005" lon="0.16127">
        <ele>80.89</ele>
        <time>2013-07-19T18:16:24Z</time>
      </trkpt>
      <trkpt lat="45.65001" lon="0.16076">
        <ele>77.52</ele>
        <time>2013-07-19T18:16:31Z</time>
      </trkpt>
      <trkpt lat="45.65001" lon="0.1607">
        <ele>77.04</ele>
        <time>2013-07-19T18:16:32Z</time>
      </trkpt>
      <trkpt lat="45.65002" lon="0.16064">
        <ele>77.04</ele>
        <time>2013-07-19T18:16:33Z</time>
      </trkpt>
      <trkpt lat="45.65002" lon="0.16058">
        <ele>77.04</ele>
        <time>2013-07-19T18:16:34Z</time>
      </trkpt>
      <trkpt lat="45.65002" lon="0.16051">
        <ele>77.04</ele>
        <time>2013-07-19T18:16:35Z</time>
      </trkpt>
      <trkpt lat="45.65001" lon="0.16045">
        <ele>77.04</ele>
        <time>2013-07-19T18:16:36Z</time>
      </trkpt>
      <trkpt lat="45.64999" lon="0.16039">
        <ele>77.04</ele>
        <time>2013-07-19T18:16:37Z</time>
      </trkpt>
      <trkpt lat="45.64998" lon="0.16033">
        <ele>77.04</ele>
        <time>2013-07-19T18:16:38Z</time>
      </trkpt>
      <trkpt lat="45.64997" lon="0.16025">
        <ele>77.04</ele>
        <time>2013-07-19T18:16:39Z</time>
      </trkpt>
      <trkpt lat="45.6499" lon="0.15971">
        <ele>74.64</ele>
        <time>2013-07-19T18:16:46Z</time>
      </trkpt>
      <trkpt lat="45.6499" lon="0.15964">
        <ele>74.16</ele>
        <time>2013-07-19T18:16:47Z</time>
      </trkpt>
      <trkpt lat="45.64991" lon="0.15957">
        <ele>73.2</ele>
        <time>2013-07-19T18:16:48Z</time>
      </trkpt>
      <trkpt lat="45.64992" lon="0.1595">
        <ele>73.2</ele>
        <time>2013-07-19T18:16:49Z</time>
      </trkpt>
      <trkpt lat="45.64998" lon="0.15928">
        <ele>72.24</ele>
        <time>2013-07-19T18:16:52Z</time>
      </trkpt>
      <trkpt lat="45.65001" lon="0.15921">
        <ele>71.76</ele>
        <time>2013-07-19T18:16:53Z</time>
      </trkpt>
      <trkpt lat="45.65004" lon="0.15915">
        <ele>71.27</ele>
        <time>2013-07-19T18:16:54Z</time>
      </trkpt>
      <trkpt lat="45.65009" lon="0.1591">
        <ele>71.27</ele>
        <time>2013-07-19T18:16:55Z</time>
      </trkpt>
      <trkpt lat="45.65014" lon="0.15906">
        <ele>70.79</ele>
        <time>2013-07-19T18:16:56Z</time>
      </trkpt>
      <trkpt lat="45.6502" lon="0.15904">
        <ele>70.31</ele>
        <time>2013-07-19T18:16:57Z</time>
      </trkpt>
      <trkpt lat="45.65026" lon="0.15903">
        <ele>69.83</ele>
        <time>2013-07-19T18:16:58Z</time>
      </trkpt>
      <trkpt lat="45.65033" lon="0.15902">
        <ele>69.83</ele>
        <time>2013-07-19T18:16:59Z</time>
      </trkpt>
      <trkpt lat="45.65068" lon="0.159">
        <ele>66.47</ele>
        <time>2013-07-19T18:17:04Z</time>
      </trkpt>
      <trkpt lat="45.65079" lon="0.15898">
        <ele>64.55</ele>
        <time>2013-07-19T18:17:06Z</time>
      </trkpt>
      <trkpt lat="45.65084" lon="0.15897">
        <ele>64.55</ele>
        <time>2013-07-19T18:17:07Z</time>
      </trkpt>
      <trkpt lat="45.65089" lon="0.15896">
        <ele>64.07</ele>
        <time>2013-07-19T18:17:08Z</time>
      </trkpt>
      <trkpt lat="45.65108" lon="0.15895">
        <ele>62.14</ele>
        <time>2013-07-19T18:17:12Z</time>
      </trkpt>
      <trkpt lat="45.65116" lon="0.15895">
        <ele>61.18</ele>
        <time>2013-07-19T18:17:14Z</time>
      </trkpt>
      <trkpt lat="45.65131" lon="0.15893">
        <ele>59.74</ele>
        <time>2013-07-19T18:17:17Z</time>
      </trkpt>
      <trkpt lat="45.65152" lon="0.1589">
        <ele>58.3</ele>
        <time>2013-07-19T18:17:21Z</time>
      </trkpt>
      <trkpt lat="45.6518" lon="0.15887">
        <ele>56.37</ele>
        <time>2013-07-19T18:17:26Z</time>
      </trkpt>
      <trkpt lat="45.65185" lon="0.15888">
        <ele>55.41</ele>
        <time>2013-07-19T18:17:27Z</time>
      </trkpt>
      <trkpt lat="45.65189" lon="0.15889">
        <ele>55.41</ele>
        <time>2013-07-19T18:17:28Z</time>
      </trkpt>
      <trkpt lat="45.65198" lon="0.15892">
        <ele>54.45</ele>
        <time>2013-07-19T18:17:30Z</time>
      </trkpt>
      <trkpt lat="45.65202" lon="0.15891">
        <ele>53.97</ele>
        <time>2013-07-19T18:17:31Z</time>
      </trkpt>
      <trkpt lat="45.65206" lon="0.15889">
        <ele>53.49</ele>
        <time>2013-07-19T18:17:32Z</time>
      </trkpt>
      <trkpt lat="45.6521" lon="0.15885">
        <ele>53.49</ele>
        <time>2013-07-19T18:17:33Z</time>
      </trkpt>
      <trkpt lat="45.65213" lon="0.1588">
        <ele>53.49</ele>
        <time>2013-07-19T18:17:34Z</time>
      </trkpt>
      <trkpt lat="45.65216" lon="0.15875">
        <ele>53.49</ele>
        <time>2013-07-19T18:17:35Z</time>
      </trkpt>
      <trkpt lat="45.65219" lon="0.15868">
        <ele>53.49</ele>
        <time>2013-07-19T18:17:36Z</time>
      </trkpt>
      <trkpt lat="45.65223" lon="0.15862">
        <ele>53.01</ele>
        <time>2013-07-19T18:17:37Z</time>
      </trkpt>
      <trkpt lat="45.65229" lon="0.15849">
        <ele>53.01</ele>
        <time>2013-07-19T18:17:39Z</time>
      </trkpt>
      <trkpt lat="45.65234" lon="0.15843">
        <ele>53.01</ele>
        <time>2013-07-19T18:17:40Z</time>
      </trkpt>
      <trkpt lat="45.65243" lon="0.1583">
        <ele>52.53</ele>
        <time>2013-07-19T18:17:42Z</time>
      </trkpt>
      <trkpt lat="45.65291" lon="0.15732">
        <ele>49.16</ele>
        <time>2013-07-19T18:17:55Z</time>
      </trkpt>
      <trkpt lat="45.65297" lon="0.15712">
        <ele>48.68</ele>
        <time>2013-07-19T18:18:03Z</time>
      </trkpt>
      <trkpt lat="45.65295" lon="0.15712">
        <ele>48.68</ele>
        <time>2013-07-19T18:18:18Z</time>
      </trkpt>
      <trkpt lat="45.65295" lon="0.1571">
        <ele>48.68</ele>
        <time>2013-07-19T18:18:19Z</time>
      </trkpt>
      <trkpt lat="45.65295" lon="0.15707">
        <ele>48.68</ele>
        <time>2013-07-19T18:18:20Z</time>
      </trkpt>
      <trkpt lat="45.65294" lon="0.15704">
        <ele>48.68</ele>
        <time>2013-07-19T18:18:21Z</time>
      </trkpt>
      <trkpt lat="45.65294" lon="0.157">
        <ele>49.16</ele>
        <time>2013-07-19T18:18:22Z</time>
      </trkpt>
      <trkpt lat="45.65294" lon="0.15695">
        <ele>49.16</ele>
        <time>2013-07-19T18:18:23Z</time>
      </trkpt>
      <trkpt lat="45.65294" lon="0.1569">
        <ele>49.16</ele>
        <time>2013-07-19T18:18:24Z</time>
      </trkpt>
      <trkpt lat="45.65293" lon="0.15684">
        <ele>49.16</ele>
        <time>2013-07-19T18:18:25Z</time>
      </trkpt>
      <trkpt lat="45.65282" lon="0.15615">
        <ele>49.16</ele>
        <time>2013-07-19T18:18:35Z</time>
      </trkpt>
      <trkpt lat="45.65281" lon="0.15608">
        <ele>49.16</ele>
        <time>2013-07-19T18:18:36Z</time>
      </trkpt>
      <trkpt lat="45.65268" lon="0.15515">
        <ele>48.2</ele>
        <time>2013-07-19T18:18:48Z</time>
      </trkpt>
      <trkpt lat="45.65266" lon="0.15491">
        <ele>47.72</ele>
        <time>2013-07-19T18:18:51Z</time>
      </trkpt>
      <trkpt lat="45.65265" lon="0.15482">
        <ele>47.72</ele>
        <time>2013-07-19T18:18:52Z</time>
      </trkpt>
      <trkpt lat="45.65265" lon="0.15474">
        <ele>47.72</ele>
        <time>2013-07-19T18:18:53Z</time>
      </trkpt>
      <trkpt lat="45.65266" lon="0.15446">
        <ele>47.72</ele>
        <time>2013-07-19T18:18:56Z</time>
      </trkpt>
      <trkpt lat="45.65267" lon="0.15437">
        <ele>47.72</ele>
        <time>2013-07-19T18:18:57Z</time>
      </trkpt>
      <trkpt lat="45.65267" lon="0.15427">
        <ele>47.24</ele>
        <time>2013-07-19T18:18:58Z</time>
      </trkpt>
      <trkpt lat="45.65268" lon="0.15417">
        <ele>47.72</ele>
        <time>2013-07-19T18:18:59Z</time>
      </trkpt>
      <trkpt lat="45.65268" lon="0.15407">
        <ele>47.24</ele>
        <time>2013-07-19T18:19:00Z</time>
      </trkpt>
      <trkpt lat="45.65269" lon="0.15397">
        <ele>46.76</ele>
        <time>2013-07-19T18:19:01Z</time>
      </trkpt>
      <trkpt lat="45.6528" lon="0.1525">
        <ele>43.4</ele>
        <time>2013-07-19T18:19:15Z</time>
      </trkpt>
      <trkpt lat="45.65308" lon="0.1512">
        <ele>40.99</ele>
        <time>2013-07-19T18:19:28Z</time>
      </trkpt>
      <trkpt lat="45.65332" lon="0.14999">
        <ele>40.51</ele>
        <time>2013-07-19T18:19:41Z</time>
      </trkpt>
      <trkpt lat="45.6534" lon="0.14916">
        <ele>40.99</ele>
        <time>2013-07-19T18:19:51Z</time>
      </trkpt>
      <trkpt lat="45.65339" lon="0.14901">
        <ele>41.47</ele>
        <time>2013-07-19T18:19:53Z</time>
      </trkpt>
      <trkpt lat="45.65339" lon="0.14894">
        <ele>41.95</ele>
        <time>2013-07-19T18:19:54Z</time>
      </trkpt>
      <trkpt lat="45.6534" lon="0.14857">
        <ele>42.44</ele>
        <time>2013-07-19T18:19:59Z</time>
      </trkpt>
      <trkpt lat="45.6534" lon="0.1485">
        <ele>42.92</ele>
        <time>2013-07-19T18:20:00Z</time>
      </trkpt>
      <trkpt lat="45.65347" lon="0.14804">
        <ele>43.88</ele>
        <time>2013-07-19T18:20:07Z</time>
      </trkpt>
      <trkpt lat="45.6535" lon="0.148">
        <ele>43.88</ele>
        <time>2013-07-19T18:20:08Z</time>
      </trkpt>
      <trkpt lat="45.65354" lon="0.14799">
        <ele>43.88</ele>
        <time>2013-07-19T18:20:09Z</time>
      </trkpt>
      <trkpt lat="45.65358" lon="0.14799">
        <ele>43.88</ele>
        <time>2013-07-19T18:20:10Z</time>
      </trkpt>
      <trkpt lat="45.65364" lon="0.14801">
        <ele>43.88</ele>
        <time>2013-07-19T18:20:11Z</time>
      </trkpt>
      <trkpt lat="45.65381" lon="0.14806">
        <ele>43.4</ele>
        <time>2013-07-19T18:20:14Z</time>
      </trkpt>
      <trkpt lat="45.65388" lon="0.14807">
        <ele>42.92</ele>
        <time>2013-07-19T18:20:15Z</time>
      </trkpt>
      <trkpt lat="45.65473" lon="0.14831">
        <ele>41.95</ele>
        <time>2013-07-19T18:20:30Z</time>
      </trkpt>
      <trkpt lat="45.65526" lon="0.14844">
        <ele>40.51</ele>
        <time>2013-07-19T18:20:39Z</time>
      </trkpt>
      <trkpt lat="45.65557" lon="0.14849">
        <ele>37.15</ele>
        <time>2013-07-19T18:20:46Z</time>
      </trkpt>
      <trkpt lat="45.65558" lon="0.14844">
        <ele>37.15</ele>
        <time>2013-07-19T18:21:02Z</time>
      </trkpt>
      <trkpt lat="45.65561" lon="0.14843">
        <ele>36.67</ele>
        <time>2013-07-19T18:21:28Z</time>
      </trkpt>
      <trkpt lat="45.65558" lon="0.1484">
        <ele>37.15</ele>
        <time>2013-07-19T18:21:53Z</time>
      </trkpt>
      <trkpt lat="45.65558" lon="0.1484">
        <ele>36.67</ele>
        <time>2013-07-19T18:22:30Z</time>
      </trkpt>
      <trkpt lat="45.65558" lon="0.1484">
        <ele>37.15</ele>
        <time>2013-07-19T18:22:35Z</time>
      </trkpt>
      <trkpt lat="45.65559" lon="0.1484">
        <ele>37.15</ele>
        <time>2013-07-19T18:22:36Z</time>
      </trkpt>
      <trkpt lat="45.65561" lon="0.14839">
        <ele>37.15</ele>
        <time>2013-07-19T18:22:37Z</time>
      </trkpt>
      <trkpt lat="45.65583" lon="0.14843">
        <ele>36.67</ele>
        <time>2013-07-19T18:22:43Z</time>
      </trkpt>
      <trkpt lat="45.65593" lon="0.14843">
        <ele>36.19</ele>
        <time>2013-07-19T18:22:45Z</time>
      </trkpt>
      <trkpt lat="45.65613" lon="0.14839">
        <ele>36.19</ele>
        <time>2013-07-19T18:22:49Z</time>
      </trkpt>
      <trkpt lat="45.65618" lon="0.14837">
        <ele>36.19</ele>
        <time>2013-07-19T18:22:50Z</time>
      </trkpt>
      <trkpt lat="45.65691" lon="0.14795">
        <ele>37.15</ele>
        <time>2013-07-19T18:23:03Z</time>
      </trkpt>
      <trkpt lat="45.65696" lon="0.1479">
        <ele>37.15</ele>
        <time>2013-07-19T18:23:04Z</time>
      </trkpt>
      <trkpt lat="45.65701" lon="0.14783">
        <ele>36.67</ele>
        <time>2013-07-19T18:23:05Z</time>
      </trkpt>
      <trkpt lat="45.6575" lon="0.14673">
        <ele>38.11</ele>
        <time>2013-07-19T18:23:20Z</time>
      </trkpt>
      <trkpt lat="45.65799" lon="0.14562">
        <ele>39.07</ele>
        <time>2013-07-19T18:23:36Z</time>
      </trkpt>
      <trkpt lat="45.65845" lon="0.14462">
        <ele>39.07</ele>
        <time>2013-07-19T18:23:50Z</time>
      </trkpt>
      <trkpt lat="45.65899" lon="0.14351">
        <ele>39.07</ele>
        <time>2013-07-19T18:24:05Z</time>
      </trkpt>
      <trkpt lat="45.65924" lon="0.14301">
        <ele>39.55</ele>
        <time>2013-07-19T18:24:12Z</time>
      </trkpt>
      <trkpt lat="45.65927" lon="0.14295">
        <ele>39.55</ele>
        <time>2013-07-19T18:24:13Z</time>
      </trkpt>
      <trkpt lat="45.65931" lon="0.1429">
        <ele>40.03</ele>
        <time>2013-07-19T18:24:14Z</time>
      </trkpt>
      <trkpt lat="45.65934" lon="0.14283">
        <ele>40.03</ele>
        <time>2013-07-19T18:24:15Z</time>
      </trkpt>
      <trkpt lat="45.65935" lon="0.14277">
        <ele>39.55</ele>
        <time>2013-07-19T18:24:16Z</time>
      </trkpt>
      <trkpt lat="45.65937" lon="0.1427">
        <ele>40.03</ele>
        <time>2013-07-19T18:24:17Z</time>
      </trkpt>
      <trkpt lat="45.65939" lon="0.14264">
        <ele>40.03</ele>
        <time>2013-07-19T18:24:18Z</time>
      </trkpt>
      <trkpt lat="45.65942" lon="0.14258">
        <ele>40.03</ele>
        <time>2013-07-19T18:24:19Z</time>
      </trkpt>
      <trkpt lat="45.65945" lon="0.14252">
        <ele>40.03</ele>
        <time>2013-07-19T18:24:20Z</time>
      </trkpt>
      <trkpt lat="45.65948" lon="0.14245">
        <ele>40.03</ele>
        <time>2013-07-19T18:24:21Z</time>
      </trkpt>
      <trkpt lat="45.65951" lon="0.14239">
        <ele>40.51</ele>
        <time>2013-07-19T18:24:22Z</time>
      </trkpt>
      <trkpt lat="45.65976" lon="0.14181">
        <ele>40.51</ele>
        <time>2013-07-19T18:24:30Z</time>
      </trkpt>
      <trkpt lat="45.66029" lon="0.1407">
        <ele>41.95</ele>
        <time>2013-07-19T18:24:45Z</time>
      </trkpt>
      <trkpt lat="45.66074" lon="0.13966">
        <ele>43.4</ele>
        <time>2013-07-19T18:24:59Z</time>
      </trkpt>
      <trkpt lat="45.66105" lon="0.13896">
        <ele>43.88</ele>
        <time>2013-07-19T18:25:08Z</time>
      </trkpt>
      <trkpt lat="45.66123" lon="0.13857">
        <ele>43.88</ele>
        <time>2013-07-19T18:25:13Z</time>
      </trkpt>
      <trkpt lat="45.66127" lon="0.13851">
        <ele>42.92</ele>
        <time>2013-07-19T18:25:14Z</time>
      </trkpt>
      <trkpt lat="45.66132" lon="0.13846">
        <ele>43.4</ele>
        <time>2013-07-19T18:25:15Z</time>
      </trkpt>
      <trkpt lat="45.66137" lon="0.13842">
        <ele>43.88</ele>
        <time>2013-07-19T18:25:16Z</time>
      </trkpt>
      <trkpt lat="45.66142" lon="0.13838">
        <ele>43.88</ele>
        <time>2013-07-19T18:25:17Z</time>
      </trkpt>
      <trkpt lat="45.66145" lon="0.13832">
        <ele>43.88</ele>
        <time>2013-07-19T18:25:18Z</time>
      </trkpt>
      <trkpt lat="45.66147" lon="0.13825">
        <ele>43.4</ele>
        <time>2013-07-19T18:25:19Z</time>
      </trkpt>
      <trkpt lat="45.66146" lon="0.13819">
        <ele>43.4</ele>
        <time>2013-07-19T18:25:20Z</time>
      </trkpt>
      <trkpt lat="45.66146" lon="0.13811">
        <ele>43.4</ele>
        <time>2013-07-19T18:25:21Z</time>
      </trkpt>
      <trkpt lat="45.66145" lon="0.13804">
        <ele>43.4</ele>
        <time>2013-07-19T18:25:22Z</time>
      </trkpt>
      <trkpt lat="45.66147" lon="0.13796">
        <ele>43.4</ele>
        <time>2013-07-19T18:25:23Z</time>
      </trkpt>
      <trkpt lat="45.66149" lon="0.13788">
        <ele>43.88</ele>
        <time>2013-07-19T18:25:24Z</time>
      </trkpt>
      <trkpt lat="45.66186" lon="0.13644">
        <ele>44.84</ele>
        <time>2013-07-19T18:25:41Z</time>
      </trkpt>
      <trkpt lat="45.66228" lon="0.13462">
        <ele>43.4</ele>
        <time>2013-07-19T18:25:59Z</time>
      </trkpt>
      <trkpt lat="45.66256" lon="0.13331">
        <ele>42.44</ele>
        <time>2013-07-19T18:26:13Z</time>
      </trkpt>
      <trkpt lat="45.66291" lon="0.13186">
        <ele>40.99</ele>
        <time>2013-07-19T18:26:28Z</time>
      </trkpt>
      <trkpt lat="45.66321" lon="0.13071">
        <ele>40.51</ele>
        <time>2013-07-19T18:26:39Z</time>
      </trkpt>
      <trkpt lat="45.66355" lon="0.12991">
        <ele>40.03</ele>
        <time>2013-07-19T18:26:50Z</time>
      </trkpt>
      <trkpt lat="45.66358" lon="0.12985">
        <ele>40.03</ele>
        <time>2013-07-19T18:26:51Z</time>
      </trkpt>
      <trkpt lat="45.6636" lon="0.1298">
        <ele>39.55</ele>
        <time>2013-07-19T18:26:52Z</time>
      </trkpt>
      <trkpt lat="45.66362" lon="0.12975">
        <ele>39.55</ele>
        <time>2013-07-19T18:26:53Z</time>
      </trkpt>
      <trkpt lat="45.66363" lon="0.12971">
        <ele>39.55</ele>
        <time>2013-07-19T18:26:54Z</time>
      </trkpt>
      <trkpt lat="45.66364" lon="0.12969">
        <ele>39.55</ele>
        <time>2013-07-19T18:26:55Z</time>
      </trkpt>
      <trkpt lat="45.66369" lon="0.12955">
        <ele>39.07</ele>
        <time>2013-07-19T18:27:03Z</time>
      </trkpt>
      <trkpt lat="45.66373" lon="0.12946">
        <ele>39.55</ele>
        <time>2013-07-19T18:27:04Z</time>
      </trkpt>
      <trkpt lat="45.66425" lon="0.12815">
        <ele>38.59</ele>
        <time>2013-07-19T18:27:18Z</time>
      </trkpt>
      <trkpt lat="45.66496" lon="0.12645">
        <ele>37.15</ele>
        <time>2013-07-19T18:27:35Z</time>
      </trkpt>
      <trkpt lat="45.66552" lon="0.1251">
        <ele>37.15</ele>
        <time>2013-07-19T18:27:49Z</time>
      </trkpt>
      <trkpt lat="45.66622" lon="0.12342">
        <ele>37.63</ele>
        <time>2013-07-19T18:28:06Z</time>
      </trkpt>
      <trkpt lat="45.66644" lon="0.12293">
        <ele>37.15</ele>
        <time>2013-07-19T18:28:11Z</time>
      </trkpt>
      <trkpt lat="45.6673" lon="0.12121">
        <ele>36.19</ele>
        <time>2013-07-19T18:28:29Z</time>
      </trkpt>
      <trkpt lat="45.668" lon="0.11995">
        <ele>35.71</ele>
        <time>2013-07-19T18:28:43Z</time>
      </trkpt>
      <trkpt lat="45.66872" lon="0.11873">
        <ele>35.71</ele>
        <time>2013-07-19T18:28:57Z</time>
      </trkpt>
      <trkpt lat="45.66955" lon="0.11739">
        <ele>36.19</ele>
        <time>2013-07-19T18:29:13Z</time>
      </trkpt>
      <trkpt lat="45.67048" lon="0.11586">
        <ele>35.23</ele>
        <time>2013-07-19T18:29:31Z</time>
      </trkpt>
      <trkpt lat="45.67125" lon="0.1146">
        <ele>35.23</ele>
        <time>2013-07-19T18:29:46Z</time>
      </trkpt>
      <trkpt lat="45.6713" lon="0.11452">
        <ele>34.74</ele>
        <time>2013-07-19T18:29:47Z</time>
      </trkpt>
      <trkpt lat="45.67194" lon="0.11347">
        <ele>34.74</ele>
        <time>2013-07-19T18:30:01Z</time>
      </trkpt>
      <trkpt lat="45.67269" lon="0.11228">
        <ele>34.74</ele>
        <time>2013-07-19T18:30:17Z</time>
      </trkpt>
      <trkpt lat="45.67289" lon="0.112">
        <ele>34.26</ele>
        <time>2013-07-19T18:30:27Z</time>
      </trkpt>
      <trkpt lat="45.67289" lon="0.11198">
        <ele>34.26</ele>
        <time>2013-07-19T18:30:58Z</time>
      </trkpt>
      <trkpt lat="45.67288" lon="0.11198">
        <ele>34.26</ele>
        <time>2013-07-19T18:31:23Z</time>
      </trkpt>
      <trkpt lat="45.67288" lon="0.11197">
        <ele>34.26</ele>
        <time>2013-07-19T18:31:24Z</time>
      </trkpt>
      <trkpt lat="45.67289" lon="0.11194">
        <ele>34.26</ele>
        <time>2013-07-19T18:31:26Z</time>
      </trkpt>
      <trkpt lat="45.67291" lon="0.11191">
        <ele>34.26</ele>
        <time>2013-07-19T18:31:27Z</time>
      </trkpt>
      <trkpt lat="45.67325" lon="0.11135">
        <ele>35.23</ele>
        <time>2013-07-19T18:31:38Z</time>
      </trkpt>
      <trkpt lat="45.67379" lon="0.11046">
        <ele>38.11</ele>
        <time>2013-07-19T18:31:53Z</time>
      </trkpt>
      <trkpt lat="45.67392" lon="0.11011">
        <ele>40.03</ele>
        <time>2013-07-19T18:31:59Z</time>
      </trkpt>
      <trkpt lat="45.67394" lon="0.11004">
        <ele>40.03</ele>
        <time>2013-07-19T18:32:00Z</time>
      </trkpt>
      <trkpt lat="45.67395" lon="0.10998">
        <ele>40.51</ele>
        <time>2013-07-19T18:32:01Z</time>
      </trkpt>
      <trkpt lat="45.674" lon="0.10947">
        <ele>42.44</ele>
        <time>2013-07-19T18:32:09Z</time>
      </trkpt>
      <trkpt lat="45.67401" lon="0.10918">
        <ele>43.88</ele>
        <time>2013-07-19T18:32:14Z</time>
      </trkpt>
      <trkpt lat="45.67401" lon="0.10912">
        <ele>43.88</ele>
        <time>2013-07-19T18:32:15Z</time>
      </trkpt>
      <trkpt lat="45.67404" lon="0.10853">
        <ele>45.32</ele>
        <time>2013-07-19T18:32:24Z</time>
      </trkpt>
      <trkpt lat="45.67407" lon="0.10756">
        <ele>48.68</ele>
        <time>2013-07-19T18:32:39Z</time>
      </trkpt>
      <trkpt lat="45.67403" lon="0.10655">
        <ele>52.05</ele>
        <time>2013-07-19T18:32:54Z</time>
      </trkpt>
      <trkpt lat="45.67395" lon="0.10584">
        <ele>54.45</ele>
        <time>2013-07-19T18:33:05Z</time>
      </trkpt>
      <trkpt lat="45.67394" lon="0.10578">
        <ele>54.93</ele>
        <time>2013-07-19T18:33:06Z</time>
      </trkpt>
      <trkpt lat="45.6739" lon="0.1056">
        <ele>55.89</ele>
        <time>2013-07-19T18:33:09Z</time>
      </trkpt>
      <trkpt lat="45.67389" lon="0.10554">
        <ele>55.89</ele>
        <time>2013-07-19T18:33:10Z</time>
      </trkpt>
      <trkpt lat="45.67386" lon="0.10536">
        <ele>56.86</ele>
        <time>2013-07-19T18:33:13Z</time>
      </trkpt>
      <trkpt lat="45.67385" lon="0.10529">
        <ele>56.86</ele>
        <time>2013-07-19T18:33:14Z</time>
      </trkpt>
      <trkpt lat="45.67363" lon="0.10447">
        <ele>59.74</ele>
        <time>2013-07-19T18:33:28Z</time>
      </trkpt>
      <trkpt lat="45.67346" lon="0.10402">
        <ele>62.14</ele>
        <time>2013-07-19T18:33:36Z</time>
      </trkpt>
      <trkpt lat="45.67344" lon="0.10397">
        <ele>61.66</ele>
        <time>2013-07-19T18:33:37Z</time>
      </trkpt>
      <trkpt lat="45.67342" lon="0.10392">
        <ele>62.14</ele>
        <time>2013-07-19T18:33:38Z</time>
      </trkpt>
      <trkpt lat="45.67304" lon="0.10319">
        <ele>65.51</ele>
        <time>2013-07-19T18:33:52Z</time>
      </trkpt>
      <trkpt lat="45.67268" lon="0.10249">
        <ele>68.39</ele>
        <time>2013-07-19T18:34:05Z</time>
      </trkpt>
      <trkpt lat="45.67228" lon="0.10165">
        <ele>69.83</ele>
        <time>2013-07-19T18:34:19Z</time>
      </trkpt>
      <trkpt lat="45.67201" lon="0.10101">
        <ele>71.27</ele>
        <time>2013-07-19T18:34:29Z</time>
      </trkpt>
      <trkpt lat="45.67199" lon="0.10094">
        <ele>71.27</ele>
        <time>2013-07-19T18:34:30Z</time>
      </trkpt>
      <trkpt lat="45.67196" lon="0.10079">
        <ele>71.76</ele>
        <time>2013-07-19T18:34:32Z</time>
      </trkpt>
      <trkpt lat="45.67202" lon="0.09989">
        <ele>72.24</ele>
        <time>2013-07-19T18:34:44Z</time>
      </trkpt>
      <trkpt lat="45.67204" lon="0.09982">
        <ele>72.24</ele>
        <time>2013-07-19T18:34:45Z</time>
      </trkpt>
      <trkpt lat="45.67239" lon="0.09883">
        <ele>71.76</ele>
        <time>2013-07-19T18:35:00Z</time>
      </trkpt>
      <trkpt lat="45.67281" lon="0.09764">
        <ele>72.24</ele>
        <time>2013-07-19T18:35:16Z</time>
      </trkpt>
      <trkpt lat="45.67292" lon="0.09748">
        <ele>71.76</ele>
        <time>2013-07-19T18:35:19Z</time>
      </trkpt>
      <trkpt lat="45.67296" lon="0.09743">
        <ele>72.24</ele>
        <time>2013-07-19T18:35:20Z</time>
      </trkpt>
      <trkpt lat="45.673" lon="0.09739">
        <ele>72.24</ele>
        <time>2013-07-19T18:35:21Z</time>
      </trkpt>
      <trkpt lat="45.67303" lon="0.09734">
        <ele>71.76</ele>
        <time>2013-07-19T18:35:22Z</time>
      </trkpt>
      <trkpt lat="45.67306" lon="0.09728">
        <ele>72.24</ele>
        <time>2013-07-19T18:35:23Z</time>
      </trkpt>
      <trkpt lat="45.67308" lon="0.09721">
        <ele>71.76</ele>
        <time>2013-07-19T18:35:24Z</time>
      </trkpt>
      <trkpt lat="45.67308" lon="0.09715">
        <ele>71.76</ele>
        <time>2013-07-19T18:35:25Z</time>
      </trkpt>
      <trkpt lat="45.67306" lon="0.09708">
        <ele>71.76</ele>
        <time>2013-07-19T18:35:26Z</time>
      </trkpt>
      <trkpt lat="45.67302" lon="0.09703">
        <ele>71.76</ele>
        <time>2013-07-19T18:35:27Z</time>
      </trkpt>
      <trkpt lat="45.67298" lon="0.097">
        <ele>71.76</ele>
        <time>2013-07-19T18:35:28Z</time>
      </trkpt>
      <trkpt lat="45.67293" lon="0.09699">
        <ele>71.76</ele>
        <time>2013-07-19T18:35:29Z</time>
      </trkpt>
      <trkpt lat="45.67288" lon="0.097">
        <ele>71.27</ele>
        <time>2013-07-19T18:35:30Z</time>
      </trkpt>
      <trkpt lat="45.67284" lon="0.09701">
        <ele>71.27</ele>
        <time>2013-07-19T18:35:31Z</time>
      </trkpt>
      <trkpt lat="45.67281" lon="0.09702">
        <ele>71.27</ele>
        <time>2013-07-19T18:35:32Z</time>
      </trkpt>
      <trkpt lat="45.67277" lon="0.09701">
        <ele>71.27</ele>
        <time>2013-07-19T18:35:33Z</time>
      </trkpt>
      <trkpt lat="45.67274" lon="0.097">
        <ele>71.27</ele>
        <time>2013-07-19T18:35:34Z</time>
      </trkpt>
      <trkpt lat="45.67272" lon="0.09699">
        <ele>71.27</ele>
        <time>2013-07-19T18:35:35Z</time>
      </trkpt>
      <trkpt lat="45.67272" lon="0.09697">
        <ele>71.27</ele>
        <time>2013-07-19T18:35:46Z</time>
      </trkpt>
      <trkpt lat="45.67269" lon="0.09696">
        <ele>71.27</ele>
        <time>2013-07-19T18:35:57Z</time>
      </trkpt>
      <trkpt lat="45.67249" lon="0.0969">
        <ele>71.27</ele>
        <time>2013-07-19T18:36:04Z</time>
      </trkpt>
      <trkpt lat="45.67231" lon="0.09684">
        <ele>71.27</ele>
        <time>2013-07-19T18:36:08Z</time>
      </trkpt>
      <trkpt lat="45.67226" lon="0.09683">
        <ele>71.27</ele>
        <time>2013-07-19T18:36:09Z</time>
      </trkpt>
      <trkpt lat="45.67221" lon="0.09682">
        <ele>71.27</ele>
        <time>2013-07-19T18:36:10Z</time>
      </trkpt>
      <trkpt lat="45.67211" lon="0.09677">
        <ele>71.27</ele>
        <time>2013-07-19T18:36:12Z</time>
      </trkpt>
      <trkpt lat="45.67206" lon="0.09675">
        <ele>71.76</ele>
        <time>2013-07-19T18:36:13Z</time>
      </trkpt>
      <trkpt lat="45.67129" lon="0.09639">
        <ele>70.79</ele>
        <time>2013-07-19T18:36:27Z</time>
      </trkpt>
      <trkpt lat="45.67004" lon="0.09582">
        <ele>71.27</ele>
        <time>2013-07-19T18:36:46Z</time>
      </trkpt>
      <trkpt lat="45.6699" lon="0.09576">
        <ele>70.79</ele>
        <time>2013-07-19T18:36:48Z</time>
      </trkpt>
      <trkpt lat="45.66905" lon="0.09538">
        <ele>70.79</ele>
        <time>2013-07-19T18:37:01Z</time>
      </trkpt>
      <trkpt lat="45.66811" lon="0.09464">
        <ele>68.39</ele>
        <time>2013-07-19T18:37:16Z</time>
      </trkpt>
      <trkpt lat="45.66753" lon="0.09409">
        <ele>66.47</ele>
        <time>2013-07-19T18:37:26Z</time>
      </trkpt>
      <trkpt lat="45.66669" lon="0.09335">
        <ele>64.07</ele>
        <time>2013-07-19T18:37:39Z</time>
      </trkpt>
      <trkpt lat="45.66576" lon="0.09241">
        <ele>60.7</ele>
        <time>2013-07-19T18:37:53Z</time>
      </trkpt>
      <trkpt lat="45.6652" lon="0.09187">
        <ele>58.3</ele>
        <time>2013-07-19T18:38:00Z</time>
      </trkpt>
      <trkpt lat="45.66495" lon="0.09163">
        <ele>56.86</ele>
        <time>2013-07-19T18:38:03Z</time>
      </trkpt>
      <trkpt lat="45.66444" lon="0.09118">
        <ele>53.97</ele>
        <time>2013-07-19T18:38:09Z</time>
      </trkpt>
      <trkpt lat="45.66425" lon="0.09106">
        <ele>53.01</ele>
        <time>2013-07-19T18:38:11Z</time>
      </trkpt>
      <trkpt lat="45.66386" lon="0.09088">
        <ele>51.57</ele>
        <time>2013-07-19T18:38:15Z</time>
      </trkpt>
      <trkpt lat="45.66344" lon="0.09077">
        <ele>50.13</ele>
        <time>2013-07-19T18:38:19Z</time>
      </trkpt>
      <trkpt lat="45.66292" lon="0.09075">
        <ele>46.76</ele>
        <time>2013-07-19T18:38:25Z</time>
      </trkpt>
      <trkpt lat="45.66288" lon="0.09072">
        <ele>46.28</ele>
        <time>2013-07-19T18:38:26Z</time>
      </trkpt>
      <trkpt lat="45.66284" lon="0.09066">
        <ele>46.28</ele>
        <time>2013-07-19T18:38:27Z</time>
      </trkpt>
      <trkpt lat="45.66282" lon="0.09058">
        <ele>45.8</ele>
        <time>2013-07-19T18:38:28Z</time>
      </trkpt>
      <trkpt lat="45.6628" lon="0.09049">
        <ele>45.8</ele>
        <time>2013-07-19T18:38:29Z</time>
      </trkpt>
      <trkpt lat="45.66277" lon="0.0904">
        <ele>45.32</ele>
        <time>2013-07-19T18:38:30Z</time>
      </trkpt>
      <trkpt lat="45.66269" lon="0.09018">
        <ele>43.88</ele>
        <time>2013-07-19T18:38:33Z</time>
      </trkpt>
      <trkpt lat="45.66244" lon="0.0896">
        <ele>43.88</ele>
        <time>2013-07-19T18:38:42Z</time>
      </trkpt>
      <trkpt lat="45.66241" lon="0.08954">
        <ele>43.88</ele>
        <time>2013-07-19T18:38:43Z</time>
      </trkpt>
      <trkpt lat="45.66236" lon="0.0895">
        <ele>44.36</ele>
        <time>2013-07-19T18:38:44Z</time>
      </trkpt>
      <trkpt lat="45.66231" lon="0.08946">
        <ele>44.36</ele>
        <time>2013-07-19T18:38:45Z</time>
      </trkpt>
      <trkpt lat="45.66226" lon="0.08944">
        <ele>44.36</ele>
        <time>2013-07-19T18:38:46Z</time>
      </trkpt>
      <trkpt lat="45.6622" lon="0.08944">
        <ele>44.36</ele>
        <time>2013-07-19T18:38:47Z</time>
      </trkpt>
      <trkpt lat="45.66215" lon="0.08945">
        <ele>44.84</ele>
        <time>2013-07-19T18:38:48Z</time>
      </trkpt>
      <trkpt lat="45.6621" lon="0.08947">
        <ele>44.36</ele>
        <time>2013-07-19T18:38:49Z</time>
      </trkpt>
      <trkpt lat="45.66121" lon="0.08973">
        <ele>45.8</ele>
        <time>2013-07-19T18:39:05Z</time>
      </trkpt>
      <trkpt lat="45.66108" lon="0.08972">
        <ele>46.28</ele>
        <time>2013-07-19T18:39:07Z</time>
      </trkpt>
      <trkpt lat="45.66101" lon="0.0897">
        <ele>46.28</ele>
        <time>2013-07-19T18:39:08Z</time>
      </trkpt>
      <trkpt lat="45.66095" lon="0.08968">
        <ele>46.28</ele>
        <time>2013-07-19T18:39:09Z</time>
      </trkpt>
      <trkpt lat="45.66089" lon="0.08964">
        <ele>46.28</ele>
        <time>2013-07-19T18:39:10Z</time>
      </trkpt>
      <trkpt lat="45.66083" lon="0.08959">
        <ele>46.28</ele>
        <time>2013-07-19T18:39:11Z</time>
      </trkpt>
      <trkpt lat="45.66079" lon="0.08953">
        <ele>46.28</ele>
        <time>2013-07-19T18:39:12Z</time>
      </trkpt>
      <trkpt lat="45.66074" lon="0.08947">
        <ele>46.76</ele>
        <time>2013-07-19T18:39:13Z</time>
      </trkpt>
      <trkpt lat="45.6607" lon="0.08941">
        <ele>47.24</ele>
        <time>2013-07-19T18:39:14Z</time>
      </trkpt>
      <trkpt lat="45.66032" lon="0.08897">
        <ele>48.68</ele>
        <time>2013-07-19T18:39:23Z</time>
      </trkpt>
      <trkpt lat="45.6601" lon="0.08874">
        <ele>50.13</ele>
        <time>2013-07-19T18:39:28Z</time>
      </trkpt>
      <trkpt lat="45.65978" lon="0.08825">
        <ele>51.09</ele>
        <time>2013-07-19T18:39:37Z</time>
      </trkpt>
      <trkpt lat="45.65971" lon="0.08814">
        <ele>51.57</ele>
        <time>2013-07-19T18:39:39Z</time>
      </trkpt>
      <trkpt lat="45.65968" lon="0.08808">
        <ele>51.57</ele>
        <time>2013-07-19T18:39:40Z</time>
      </trkpt>
      <trkpt lat="45.65964" lon="0.08803">
        <ele>52.05</ele>
        <time>2013-07-19T18:39:41Z</time>
      </trkpt>
      <trkpt lat="45.6596" lon="0.08797">
        <ele>51.57</ele>
        <time>2013-07-19T18:39:42Z</time>
      </trkpt>
      <trkpt lat="45.65957" lon="0.08792">
        <ele>52.53</ele>
        <time>2013-07-19T18:39:43Z</time>
      </trkpt>
      <trkpt lat="45.65947" lon="0.08774">
        <ele>53.01</ele>
        <time>2013-07-19T18:39:46Z</time>
      </trkpt>
      <trkpt lat="45.65913" lon="0.08712">
        <ele>54.93</ele>
        <time>2013-07-19T18:39:57Z</time>
      </trkpt>
      <trkpt lat="45.6591" lon="0.08706">
        <ele>55.41</ele>
        <time>2013-07-19T18:39:58Z</time>
      </trkpt>
      <trkpt lat="45.65868" lon="0.08638">
        <ele>58.3</ele>
        <time>2013-07-19T18:40:12Z</time>
      </trkpt>
      <trkpt lat="45.65855" lon="0.08613">
        <ele>59.26</ele>
        <time>2013-07-19T18:40:17Z</time>
      </trkpt>
      <trkpt lat="45.65843" lon="0.08594">
        <ele>60.7</ele>
        <time>2013-07-19T18:40:21Z</time>
      </trkpt>
      <trkpt lat="45.6584" lon="0.08588">
        <ele>60.7</ele>
        <time>2013-07-19T18:40:22Z</time>
      </trkpt>
      <trkpt lat="45.65822" lon="0.08554">
        <ele>62.14</ele>
        <time>2013-07-19T18:40:29Z</time>
      </trkpt>
      <trkpt lat="45.65797" lon="0.08496">
        <ele>63.1</ele>
        <time>2013-07-19T18:40:43Z</time>
      </trkpt>
      <trkpt lat="45.65781" lon="0.08498">
        <ele>63.1</ele>
        <time>2013-07-19T18:40:51Z</time>
      </trkpt>
      <trkpt lat="45.65779" lon="0.08498">
        <ele>63.1</ele>
        <time>2013-07-19T18:40:52Z</time>
      </trkpt>
      <trkpt lat="45.65778" lon="0.08498">
        <ele>63.1</ele>
        <time>2013-07-19T18:40:53Z</time>
      </trkpt>
      <trkpt lat="45.65777" lon="0.08499">
        <ele>63.1</ele>
        <time>2013-07-19T18:40:54Z</time>
      </trkpt>
      <trkpt lat="45.65776" lon="0.08502">
        <ele>63.58</ele>
        <time>2013-07-19T18:40:55Z</time>
      </trkpt>
      <trkpt lat="45.65776" lon="0.08504">
        <ele>63.58</ele>
        <time>2013-07-19T18:40:56Z</time>
      </trkpt>
      <trkpt lat="45.65777" lon="0.08506">
        <ele>63.58</ele>
        <time>2013-07-19T18:40:57Z</time>
      </trkpt>
      <trkpt lat="45.65779" lon="0.0851">
        <ele>63.58</ele>
        <time>2013-07-19T18:41:11Z</time>
      </trkpt>
      <trkpt lat="45.65778" lon="0.0851">
        <ele>63.58</ele>
        <time>2013-07-19T18:41:45Z</time>
      </trkpt>
      <trkpt lat="45.6578" lon="0.0851">
        <ele>63.58</ele>
        <time>2013-07-19T18:42:23Z</time>
      </trkpt>
      <trkpt lat="45.65779" lon="0.08509">
        <ele>63.58</ele>
        <time>2013-07-19T18:42:48Z</time>
      </trkpt>
      <trkpt lat="45.6578" lon="0.08509">
        <ele>63.58</ele>
        <time>2013-07-19T18:43:19Z</time>
      </trkpt>
      <trkpt lat="45.6578" lon="0.0851">
        <ele>63.58</ele>
        <time>2013-07-19T18:43:47Z</time>
      </trkpt>
      <trkpt lat="45.6578" lon="0.0851">
        <ele>63.58</ele>
        <time>2013-07-19T18:44:26Z</time>
      </trkpt>
      <trkpt lat="45.65778" lon="0.0851">
        <ele>63.58</ele>
        <time>2013-07-19T18:44:57Z</time>
      </trkpt>
      <trkpt lat="45.65779" lon="0.08509">
        <ele>63.58</ele>
        <time>2013-07-19T18:45:35Z</time>
      </trkpt>
      <trkpt lat="45.65779" lon="0.08509">
        <ele>63.58</ele>
        <time>2013-07-19T18:46:14Z</time>
      </trkpt>
      <trkpt lat="45.65777" lon="0.0851">
        <ele>63.58</ele>
        <time>2013-07-19T18:46:52Z</time>
      </trkpt>
      <trkpt lat="45.65776" lon="0.08507">
        <ele>63.58</ele>
        <time>2013-07-19T18:47:00Z</time>
      </trkpt>
      <trkpt lat="45.65777" lon="0.08505">
        <ele>63.58</ele>
        <time>2013-07-19T18:47:01Z</time>
      </trkpt>
      <trkpt lat="45.65778" lon="0.08502">
        <ele>63.1</ele>
        <time>2013-07-19T18:47:12Z</time>
      </trkpt>
      <trkpt lat="45.65779" lon="0.08502">
        <ele>63.1</ele>
        <time>2013-07-19T18:47:29Z</time>
      </trkpt>
      <trkpt lat="45.65782" lon="0.08501">
        <ele>63.1</ele>
        <time>2013-07-19T18:47:42Z</time>
      </trkpt>
      <trkpt lat="45.65784" lon="0.08499">
        <ele>63.1</ele>
        <time>2013-07-19T18:47:43Z</time>
      </trkpt>
      <trkpt lat="45.65785" lon="0.08496">
        <ele>63.1</ele>
        <time>2013-07-19T18:47:44Z</time>
      </trkpt>
      <trkpt lat="45.65786" lon="0.08492">
        <ele>63.1</ele>
        <time>2013-07-19T18:47:45Z</time>
      </trkpt>
      <trkpt lat="45.65787" lon="0.08488">
        <ele>63.1</ele>
        <time>2013-07-19T18:47:46Z</time>
      </trkpt>
      <trkpt lat="45.65787" lon="0.08483">
        <ele>63.1</ele>
        <time>2013-07-19T18:47:47Z</time>
      </trkpt>
      <trkpt lat="45.65786" lon="0.08477">
        <ele>62.62</ele>
        <time>2013-07-19T18:47:48Z</time>
      </trkpt>
      <trkpt lat="45.65784" lon="0.08472">
        <ele>62.62</ele>
        <time>2013-07-19T18:47:49Z</time>
      </trkpt>
      <trkpt lat="45.65781" lon="0.08466">
        <ele>62.62</ele>
        <time>2013-07-19T18:47:50Z</time>
      </trkpt>
      <trkpt lat="45.65778" lon="0.08461">
        <ele>62.62</ele>
        <time>2013-07-19T18:47:51Z</time>
      </trkpt>
      <trkpt lat="45.65775" lon="0.08455">
        <ele>62.14</ele>
        <time>2013-07-19T18:47:52Z</time>
      </trkpt>
      <trkpt lat="45.65726" lon="0.08383">
        <ele>60.22</ele>
        <time>2013-07-19T18:48:03Z</time>
      </trkpt>
      <trkpt lat="45.65711" lon="0.08367">
        <ele>58.78</ele>
        <time>2013-07-19T18:48:06Z</time>
      </trkpt>
      <trkpt lat="45.65691" lon="0.08341">
        <ele>56.86</ele>
        <time>2013-07-19T18:48:11Z</time>
      </trkpt>
      <trkpt lat="45.65688" lon="0.08336">
        <ele>56.37</ele>
        <time>2013-07-19T18:48:12Z</time>
      </trkpt>
      <trkpt lat="45.65687" lon="0.08329">
        <ele>56.37</ele>
        <time>2013-07-19T18:48:13Z</time>
      </trkpt>
      <trkpt lat="45.65688" lon="0.08322">
        <ele>56.37</ele>
        <time>2013-07-19T18:48:14Z</time>
      </trkpt>
      <trkpt lat="45.6569" lon="0.08314">
        <ele>56.37</ele>
        <time>2013-07-19T18:48:15Z</time>
      </trkpt>
      <trkpt lat="45.65692" lon="0.08306">
        <ele>55.89</ele>
        <time>2013-07-19T18:48:16Z</time>
      </trkpt>
      <trkpt lat="45.65695" lon="0.08297">
        <ele>55.89</ele>
        <time>2013-07-19T18:48:17Z</time>
      </trkpt>
      <trkpt lat="45.65698" lon="0.08288">
        <ele>55.41</ele>
        <time>2013-07-19T18:48:18Z</time>
      </trkpt>
      <trkpt lat="45.65701" lon="0.08278">
        <ele>55.41</ele>
        <time>2013-07-19T18:48:19Z</time>
      </trkpt>
      <trkpt lat="45.65704" lon="0.08269">
        <ele>54.93</ele>
        <time>2013-07-19T18:48:20Z</time>
      </trkpt>
      <trkpt lat="45.65735" lon="0.08132">
        <ele>52.05</ele>
        <time>2013-07-19T18:48:33Z</time>
      </trkpt>
      <trkpt lat="45.6574" lon="0.08089">
        <ele>51.57</ele>
        <time>2013-07-19T18:48:37Z</time>
      </trkpt>
      <trkpt lat="45.65746" lon="0.08052">
        <ele>50.13</ele>
        <time>2013-07-19T18:48:41Z</time>
      </trkpt>
      <trkpt lat="45.65752" lon="0.08023">
        <ele>49.65</ele>
        <time>2013-07-19T18:48:45Z</time>
      </trkpt>
      <trkpt lat="45.65752" lon="0.08016">
        <ele>49.65</ele>
        <time>2013-07-19T18:48:46Z</time>
      </trkpt>
      <trkpt lat="45.65751" lon="0.08">
        <ele>49.65</ele>
        <time>2013-07-19T18:48:48Z</time>
      </trkpt>
      <trkpt lat="45.65753" lon="0.07966">
        <ele>49.16</ele>
        <time>2013-07-19T18:48:52Z</time>
      </trkpt>
      <trkpt lat="45.65753" lon="0.07956">
        <ele>49.16</ele>
        <time>2013-07-19T18:48:53Z</time>
      </trkpt>
      <trkpt lat="45.6575" lon="0.07799">
        <ele>45.8</ele>
        <time>2013-07-19T18:49:08Z</time>
      </trkpt>
      <trkpt lat="45.65747" lon="0.07695">
        <ele>42.92</ele>
        <time>2013-07-19T18:49:16Z</time>
      </trkpt>
      <trkpt lat="45.6576" lon="0.07584">
        <ele>39.07</ele>
        <time>2013-07-19T18:49:24Z</time>
      </trkpt>
      <trkpt lat="45.65793" lon="0.07474">
        <ele>38.59</ele>
        <time>2013-07-19T18:49:34Z</time>
      </trkpt>
      <trkpt lat="45.65874" lon="0.07335">
        <ele>37.15</ele>
        <time>2013-07-19T18:49:50Z</time>
      </trkpt>
      <trkpt lat="45.65892" lon="0.07274">
        <ele>36.19</ele>
        <time>2013-07-19T18:49:56Z</time>
      </trkpt>
      <trkpt lat="45.65928" lon="0.0713">
        <ele>35.71</ele>
        <time>2013-07-19T18:50:10Z</time>
      </trkpt>
      <trkpt lat="45.65985" lon="0.07029">
        <ele>34.74</ele>
        <time>2013-07-19T18:50:23Z</time>
      </trkpt>
      <trkpt lat="45.65986" lon="0.07022">
        <ele>34.74</ele>
        <time>2013-07-19T18:50:24Z</time>
      </trkpt>
      <trkpt lat="45.66" lon="0.06971">
        <ele>35.71</ele>
        <time>2013-07-19T18:50:31Z</time>
      </trkpt>
      <trkpt lat="45.66058" lon="0.06868">
        <ele>37.15</ele>
        <time>2013-07-19T18:50:46Z</time>
      </trkpt>
      <trkpt lat="45.66093" lon="0.06811">
        <ele>38.11</ele>
        <time>2013-07-19T18:50:56Z</time>
      </trkpt>
      <trkpt lat="45.66096" lon="0.06806">
        <ele>38.11</ele>
        <time>2013-07-19T18:50:57Z</time>
      </trkpt>
      <trkpt lat="45.661" lon="0.06801">
        <ele>38.59</ele>
        <time>2013-07-19T18:50:58Z</time>
      </trkpt>
      <trkpt lat="45.66103" lon="0.06796">
        <ele>38.59</ele>
        <time>2013-07-19T18:50:59Z</time>
      </trkpt>
      <trkpt lat="45.66107" lon="0.06791">
        <ele>38.59</ele>
        <time>2013-07-19T18:51:00Z</time>
      </trkpt>
      <trkpt lat="45.6611" lon="0.06785">
        <ele>39.07</ele>
        <time>2013-07-19T18:51:01Z</time>
      </trkpt>
      <trkpt lat="45.66114" lon="0.0678">
        <ele>39.07</ele>
        <time>2013-07-19T18:51:02Z</time>
      </trkpt>
      <trkpt lat="45.66171" lon="0.06676">
        <ele>40.51</ele>
        <time>2013-07-19T18:51:17Z</time>
      </trkpt>
      <trkpt lat="45.66218" lon="0.06561">
        <ele>43.4</ele>
        <time>2013-07-19T18:51:33Z</time>
      </trkpt>
      <trkpt lat="45.66249" lon="0.06484">
        <ele>46.28</ele>
        <time>2013-07-19T18:51:45Z</time>
      </trkpt>
      <trkpt lat="45.66281" lon="0.06394">
        <ele>49.65</ele>
        <time>2013-07-19T18:51:59Z</time>
      </trkpt>
      <trkpt lat="45.66286" lon="0.06353">
        <ele>51.09</ele>
        <time>2013-07-19T18:52:06Z</time>
      </trkpt>
      <trkpt lat="45.66287" lon="0.06347">
        <ele>51.57</ele>
        <time>2013-07-19T18:52:07Z</time>
      </trkpt>
      <trkpt lat="45.66287" lon="0.06294">
        <ele>53.01</ele>
        <time>2013-07-19T18:52:16Z</time>
      </trkpt>
      <trkpt lat="45.66278" lon="0.06202">
        <ele>56.37</ele>
        <time>2013-07-19T18:52:31Z</time>
      </trkpt>
      <trkpt lat="45.66277" lon="0.06196">
        <ele>56.37</ele>
        <time>2013-07-19T18:52:32Z</time>
      </trkpt>
      <trkpt lat="45.66272" lon="0.06149">
        <ele>57.82</ele>
        <time>2013-07-19T18:52:39Z</time>
      </trkpt>
      <trkpt lat="45.66269" lon="0.06116">
        <ele>59.26</ele>
        <time>2013-07-19T18:52:44Z</time>
      </trkpt>
      <trkpt lat="45.66268" lon="0.0611">
        <ele>59.26</ele>
        <time>2013-07-19T18:52:45Z</time>
      </trkpt>
      <trkpt lat="45.66259" lon="0.06026">
        <ele>62.62</ele>
        <time>2013-07-19T18:52:58Z</time>
      </trkpt>
      <trkpt lat="45.66251" lon="0.05959">
        <ele>65.03</ele>
        <time>2013-07-19T18:53:08Z</time>
      </trkpt>
      <trkpt lat="45.66244" lon="0.05903">
        <ele>66.95</ele>
        <time>2013-07-19T18:53:16Z</time>
      </trkpt>
      <trkpt lat="45.66235" lon="0.05815">
        <ele>69.83</ele>
        <time>2013-07-19T18:53:29Z</time>
      </trkpt>
      <trkpt lat="45.66236" lon="0.05808">
        <ele>69.83</ele>
        <time>2013-07-19T18:53:30Z</time>
      </trkpt>
      <trkpt lat="45.66237" lon="0.05779">
        <ele>70.79</ele>
        <time>2013-07-19T18:53:34Z</time>
      </trkpt>
      <trkpt lat="45.66243" lon="0.05674">
        <ele>73.68</ele>
        <time>2013-07-19T18:53:48Z</time>
      </trkpt>
      <trkpt lat="45.66248" lon="0.05539">
        <ele>74.64</ele>
        <time>2013-07-19T18:54:05Z</time>
      </trkpt>
      <trkpt lat="45.66251" lon="0.0547">
        <ele>76.08</ele>
        <time>2013-07-19T18:54:14Z</time>
      </trkpt>
      <trkpt lat="45.66251" lon="0.05462">
        <ele>76.08</ele>
        <time>2013-07-19T18:54:15Z</time>
      </trkpt>
      <trkpt lat="45.66251" lon="0.05344">
        <ele>77.04</ele>
        <time>2013-07-19T18:54:29Z</time>
      </trkpt>
      <trkpt lat="45.66238" lon="0.05223">
        <ele>78.97</ele>
        <time>2013-07-19T18:54:43Z</time>
      </trkpt>
      <trkpt lat="45.66212" lon="0.0506">
        <ele>79.45</ele>
        <time>2013-07-19T18:55:00Z</time>
      </trkpt>
      <trkpt lat="45.66185" lon="0.04898">
        <ele>81.37</ele>
        <time>2013-07-19T18:55:17Z</time>
      </trkpt>
      <trkpt lat="45.6618" lon="0.04824">
        <ele>84.73</ele>
        <time>2013-07-19T18:55:28Z</time>
      </trkpt>
      <trkpt lat="45.6618" lon="0.04818">
        <ele>85.21</ele>
        <time>2013-07-19T18:55:29Z</time>
      </trkpt>
      <trkpt lat="45.66177" lon="0.04759">
        <ele>88.1</ele>
        <time>2013-07-19T18:55:39Z</time>
      </trkpt>
      <trkpt lat="45.66169" lon="0.04698">
        <ele>91.46</ele>
        <time>2013-07-19T18:55:49Z</time>
      </trkpt>
      <trkpt lat="45.66137" lon="0.04625">
        <ele>94.35</ele>
        <time>2013-07-19T18:56:02Z</time>
      </trkpt>
      <trkpt lat="45.66132" lon="0.04615">
        <ele>94.83</ele>
        <time>2013-07-19T18:56:04Z</time>
      </trkpt>
      <trkpt lat="45.66095" lon="0.04522">
        <ele>95.31</ele>
        <time>2013-07-19T18:56:18Z</time>
      </trkpt>
      <trkpt lat="45.66089" lon="0.04498">
        <ele>96.27</ele>
        <time>2013-07-19T18:56:21Z</time>
      </trkpt>
      <trkpt lat="45.66079" lon="0.04463">
        <ele>96.75</ele>
        <time>2013-07-19T18:56:26Z</time>
      </trkpt>
      <trkpt lat="45.66066" lon="0.04431">
        <ele>97.71</ele>
        <time>2013-07-19T18:56:32Z</time>
      </trkpt>
      <trkpt lat="45.66066" lon="0.04425">
        <ele>97.71</ele>
        <time>2013-07-19T18:56:33Z</time>
      </trkpt>
      <trkpt lat="45.66066" lon="0.04419">
        <ele>97.71</ele>
        <time>2013-07-19T18:56:34Z</time>
      </trkpt>
      <trkpt lat="45.66067" lon="0.04415">
        <ele>97.71</ele>
        <time>2013-07-19T18:56:35Z</time>
      </trkpt>
      <trkpt lat="45.6607" lon="0.04412">
        <ele>98.19</ele>
        <time>2013-07-19T18:56:36Z</time>
      </trkpt>
      <trkpt lat="45.66072" lon="0.0441">
        <ele>98.19</ele>
        <time>2013-07-19T18:56:37Z</time>
      </trkpt>
      <trkpt lat="45.66074" lon="0.04408">
        <ele>98.19</ele>
        <time>2013-07-19T18:56:38Z</time>
      </trkpt>
      <trkpt lat="45.66077" lon="0.04407">
        <ele>98.19</ele>
        <time>2013-07-19T18:56:39Z</time>
      </trkpt>
      <trkpt lat="45.661" lon="0.04388">
        <ele>99.15</ele>
        <time>2013-07-19T18:56:46Z</time>
      </trkpt>
      <trkpt lat="45.66104" lon="0.04383">
        <ele>99.15</ele>
        <time>2013-07-19T18:56:47Z</time>
      </trkpt>
      <trkpt lat="45.66111" lon="0.04375">
        <ele>99.63</ele>
        <time>2013-07-19T18:56:49Z</time>
      </trkpt>
      <trkpt lat="45.66115" lon="0.04372">
        <ele>99.63</ele>
        <time>2013-07-19T18:56:50Z</time>
      </trkpt>
      <trkpt lat="45.66176" lon="0.04318">
        <ele>101.56</ele>
        <time>2013-07-19T18:57:04Z</time>
      </trkpt>
      <trkpt lat="45.6618" lon="0.04312">
        <ele>101.56</ele>
        <time>2013-07-19T18:57:05Z</time>
      </trkpt>
      <trkpt lat="45.66182" lon="0.04306">
        <ele>101.56</ele>
        <time>2013-07-19T18:57:06Z</time>
      </trkpt>
      <trkpt lat="45.66185" lon="0.04299">
        <ele>101.56</ele>
        <time>2013-07-19T18:57:07Z</time>
      </trkpt>
      <trkpt lat="45.66186" lon="0.04291">
        <ele>101.56</ele>
        <time>2013-07-19T18:57:08Z</time>
      </trkpt>
      <trkpt lat="45.66198" lon="0.04238">
        <ele>102.52</ele>
        <time>2013-07-19T18:57:15Z</time>
      </trkpt>
      <trkpt lat="45.66199" lon="0.0423">
        <ele>102.52</ele>
        <time>2013-07-19T18:57:16Z</time>
      </trkpt>
      <trkpt lat="45.66226" lon="0.0409">
        <ele>102.52</ele>
        <time>2013-07-19T18:57:32Z</time>
      </trkpt>
      <trkpt lat="45.66229" lon="0.04081">
        <ele>102.52</ele>
        <time>2013-07-19T18:57:33Z</time>
      </trkpt>
      <trkpt lat="45.66232" lon="0.04073">
        <ele>102.52</ele>
        <time>2013-07-19T18:57:34Z</time>
      </trkpt>
      <trkpt lat="45.66237" lon="0.04065">
        <ele>102.52</ele>
        <time>2013-07-19T18:57:35Z</time>
      </trkpt>
      <trkpt lat="45.66242" lon="0.04057">
        <ele>103</ele>
        <time>2013-07-19T18:57:36Z</time>
      </trkpt>
      <trkpt lat="45.66248" lon="0.04051">
        <ele>102.52</ele>
        <time>2013-07-19T18:57:37Z</time>
      </trkpt>
      <trkpt lat="45.66255" lon="0.04044">
        <ele>102.52</ele>
        <time>2013-07-19T18:57:38Z</time>
      </trkpt>
      <trkpt lat="45.66261" lon="0.04038">
        <ele>102.52</ele>
        <time>2013-07-19T18:57:39Z</time>
      </trkpt>
      <trkpt lat="45.66268" lon="0.04033">
        <ele>102.52</ele>
        <time>2013-07-19T18:57:40Z</time>
      </trkpt>
      <trkpt lat="45.66398" lon="0.03952">
        <ele>101.56</ele>
        <time>2013-07-19T18:57:57Z</time>
      </trkpt>
      <trkpt lat="45.665" lon="0.03881">
        <ele>103.48</ele>
        <time>2013-07-19T18:58:12Z</time>
      </trkpt>
      <trkpt lat="45.66505" lon="0.03874">
        <ele>103.48</ele>
        <time>2013-07-19T18:58:13Z</time>
      </trkpt>
      <trkpt lat="45.6651" lon="0.03866">
        <ele>103.48</ele>
        <time>2013-07-19T18:58:14Z</time>
      </trkpt>
      <trkpt lat="45.66561" lon="0.03736">
        <ele>103.48</ele>
        <time>2013-07-19T18:58:28Z</time>
      </trkpt>
      <trkpt lat="45.66589" lon="0.03599">
        <ele>104.44</ele>
        <time>2013-07-19T18:58:41Z</time>
      </trkpt>
      <trkpt lat="45.66592" lon="0.03444">
        <ele>105.4</ele>
        <time>2013-07-19T18:58:56Z</time>
      </trkpt>
      <trkpt lat="45.66597" lon="0.03382">
        <ele>105.88</ele>
        <time>2013-07-19T18:59:02Z</time>
      </trkpt>
      <trkpt lat="45.666" lon="0.03372">
        <ele>105.88</ele>
        <time>2013-07-19T18:59:03Z</time>
      </trkpt>
      <trkpt lat="45.66604" lon="0.03364">
        <ele>105.88</ele>
        <time>2013-07-19T18:59:04Z</time>
      </trkpt>
      <trkpt lat="45.66672" lon="0.03263">
        <ele>105.88</ele>
        <time>2013-07-19T18:59:17Z</time>
      </trkpt>
      <trkpt lat="45.66758" lon="0.03115">
        <ele>103</ele>
        <time>2013-07-19T18:59:33Z</time>
      </trkpt>
      <trkpt lat="45.6677" lon="0.03094">
        <ele>102.04</ele>
        <time>2013-07-19T18:59:35Z</time>
      </trkpt>
      <trkpt lat="45.668" lon="0.03037">
        <ele>99.63</ele>
        <time>2013-07-19T18:59:40Z</time>
      </trkpt>
      <trkpt lat="45.66873" lon="0.02903">
        <ele>96.75</ele>
        <time>2013-07-19T18:59:51Z</time>
      </trkpt>
      <trkpt lat="45.66977" lon="0.02711">
        <ele>95.31</ele>
        <time>2013-07-19T19:00:08Z</time>
      </trkpt>
      <trkpt lat="45.67042" lon="0.02585">
        <ele>96.75</ele>
        <time>2013-07-19T19:00:21Z</time>
      </trkpt>
      <trkpt lat="45.67045" lon="0.02574">
        <ele>96.75</ele>
        <time>2013-07-19T19:00:22Z</time>
      </trkpt>
      <trkpt lat="45.6705" lon="0.02553">
        <ele>97.23</ele>
        <time>2013-07-19T19:00:24Z</time>
      </trkpt>
      <trkpt lat="45.67051" lon="0.02542">
        <ele>96.75</ele>
        <time>2013-07-19T19:00:25Z</time>
      </trkpt>
      <trkpt lat="45.67052" lon="0.02531">
        <ele>97.23</ele>
        <time>2013-07-19T19:00:26Z</time>
      </trkpt>
      <trkpt lat="45.67044" lon="0.02368">
        <ele>94.83</ele>
        <time>2013-07-19T19:00:40Z</time>
      </trkpt>
      <trkpt lat="45.67036" lon="0.0223">
        <ele>91.46</ele>
        <time>2013-07-19T19:00:51Z</time>
      </trkpt>
      <trkpt lat="45.67024" lon="0.02044">
        <ele>88.1</ele>
        <time>2013-07-19T19:01:04Z</time>
      </trkpt>
      <trkpt lat="45.67015" lon="0.0191">
        <ele>84.73</ele>
        <time>2013-07-19T19:01:13Z</time>
      </trkpt>
      <trkpt lat="45.67001" lon="0.01687">
        <ele>81.37</ele>
        <time>2013-07-19T19:01:28Z</time>
      </trkpt>
      <trkpt lat="45.66987" lon="0.01462">
        <ele>81.37</ele>
        <time>2013-07-19T19:01:45Z</time>
      </trkpt>
      <trkpt lat="45.66972" lon="0.01237">
        <ele>80.41</ele>
        <time>2013-07-19T19:02:03Z</time>
      </trkpt>
      <trkpt lat="45.66959" lon="0.01016">
        <ele>80.41</ele>
        <time>2013-07-19T19:02:21Z</time>
      </trkpt>
      <trkpt lat="45.66945" lon="0.00788">
        <ele>79.93</ele>
        <time>2013-07-19T19:02:40Z</time>
      </trkpt>
      <trkpt lat="45.6694" lon="0.00615">
        <ele>80.41</ele>
        <time>2013-07-19T19:02:55Z</time>
      </trkpt>
      <trkpt lat="45.66948" lon="0.00466">
        <ele>81.37</ele>
        <time>2013-07-19T19:03:09Z</time>
      </trkpt>
      <trkpt lat="45.66948" lon="0.00347">
        <ele>82.33</ele>
        <time>2013-07-19T19:03:22Z</time>
      </trkpt>
      <trkpt lat="45.66952" lon="0.00181">
        <ele>80.41</ele>
        <time>2013-07-19T19:03:37Z</time>
      </trkpt>
      <trkpt lat="45.66981" lon="0">
        <ele>78.48</ele>
        <time>2013-07-19T19:03:52Z</time>
      </trkpt>
      <trkpt lat="45.6701" lon="-0.00146">
        <ele>77.04</ele>
        <time>2013-07-19T19:04:06Z</time>
      </trkpt>
      <trkpt lat="45.67011" lon="-0.00153">
        <ele>77.04</ele>
        <time>2013-07-19T19:04:08Z</time>
      </trkpt>
      <trkpt lat="45.67009" lon="-0.00155">
        <ele>76.56</ele>
        <time>2013-07-19T19:04:09Z</time>
      </trkpt>
      <trkpt lat="45.67006" lon="-0.00152">
        <ele>76.56</ele>
        <time>2013-07-19T19:04:11Z</time>
      </trkpt>
      <trkpt lat="45.67005" lon="-0.00148">
        <ele>76.56</ele>
        <time>2013-07-19T19:04:12Z</time>
      </trkpt>
      <trkpt lat="45.67005" lon="-0.00145">
        <ele>77.04</ele>
        <time>2013-07-19T19:04:13Z</time>
      </trkpt>
      <trkpt lat="45.66993" lon="-0.00079">
        <ele>77.52</ele>
        <time>2013-07-19T19:04:24Z</time>
      </trkpt>
      <trkpt lat="45.6697" lon="0.00031">
        <ele>77.04</ele>
        <time>2013-07-19T19:04:38Z</time>
      </trkpt>
      <trkpt lat="45.66966" lon="0.00052">
        <ele>77.04</ele>
        <time>2013-07-19T19:04:41Z</time>
      </trkpt>
      <trkpt lat="45.66963" lon="0.00057">
        <ele>77.04</ele>
        <time>2013-07-19T19:04:42Z</time>
      </trkpt>
      <trkpt lat="45.6696" lon="0.00058">
        <ele>76.56</ele>
        <time>2013-07-19T19:04:43Z</time>
      </trkpt>
      <trkpt lat="45.66956" lon="0.00056">
        <ele>76.08</ele>
        <time>2013-07-19T19:04:44Z</time>
      </trkpt>
      <trkpt lat="45.66952" lon="0.00051">
        <ele>76.08</ele>
        <time>2013-07-19T19:04:45Z</time>
      </trkpt>
      <trkpt lat="45.66949" lon="0.00045">
        <ele>76.08</ele>
        <time>2013-07-19T19:04:46Z</time>
      </trkpt>
      <trkpt lat="45.66946" lon="0.00038">
        <ele>76.08</ele>
        <time>2013-07-19T19:04:47Z</time>
      </trkpt>
      <trkpt lat="45.66943" lon="0.0003">
        <ele>76.08</ele>
        <time>2013-07-19T19:04:48Z</time>
      </trkpt>
      <trkpt lat="45.6694" lon="0.00022">
        <ele>76.08</ele>
        <time>2013-07-19T19:04:49Z</time>
      </trkpt>
      <trkpt lat="45.66939" lon="0.00014">
        <ele>76.08</ele>
        <time>2013-07-19T19:04:50Z</time>
      </trkpt>
      <trkpt lat="45.66938" lon="5.0E-5">
        <ele>76.56</ele>
        <time>2013-07-19T19:04:51Z</time>
      </trkpt>
      <trkpt lat="45.66937" lon="-5.0E-5">
        <ele>76.08</ele>
        <time>2013-07-19T19:04:52Z</time>
      </trkpt>
      <trkpt lat="45.66937" lon="-0.00014">
        <ele>76.56</ele>
        <time>2013-07-19T19:04:53Z</time>
      </trkpt>
      <trkpt lat="45.66934" lon="-0.00158">
        <ele>77.04</ele>
        <time>2013-07-19T19:05:08Z</time>
      </trkpt>
      <trkpt lat="45.66935" lon="-0.0032">
        <ele>76.56</ele>
        <time>2013-07-19T19:05:23Z</time>
      </trkpt>
      <trkpt lat="45.66939" lon="-0.00456">
        <ele>73.68</ele>
        <time>2013-07-19T19:05:34Z</time>
      </trkpt>
      <trkpt lat="45.66939" lon="-0.00546">
        <ele>70.31</ele>
        <time>2013-07-19T19:05:41Z</time>
      </trkpt>
      <trkpt lat="45.66936" lon="-0.00707">
        <ele>67.91</ele>
        <time>2013-07-19T19:05:53Z</time>
      </trkpt>
      <trkpt lat="45.66933" lon="-0.0072">
        <ele>67.43</ele>
        <time>2013-07-19T19:05:54Z</time>
      </trkpt>
      <trkpt lat="45.66928" lon="-0.00733">
        <ele>66.95</ele>
        <time>2013-07-19T19:05:55Z</time>
      </trkpt>
      <trkpt lat="45.66923" lon="-0.00744">
        <ele>66.47</ele>
        <time>2013-07-19T19:05:56Z</time>
      </trkpt>
      <trkpt lat="45.66916" lon="-0.00755">
        <ele>66.47</ele>
        <time>2013-07-19T19:05:57Z</time>
      </trkpt>
      <trkpt lat="45.66908" lon="-0.00763">
        <ele>66.47</ele>
        <time>2013-07-19T19:05:58Z</time>
      </trkpt>
      <trkpt lat="45.669" lon="-0.00772">
        <ele>65.99</ele>
        <time>2013-07-19T19:05:59Z</time>
      </trkpt>
      <trkpt lat="45.66876" lon="-0.008">
        <ele>65.03</ele>
        <time>2013-07-19T19:06:02Z</time>
      </trkpt>
      <trkpt lat="45.6687" lon="-0.00812">
        <ele>64.55</ele>
        <time>2013-07-19T19:06:03Z</time>
      </trkpt>
      <trkpt lat="45.66865" lon="-0.00824">
        <ele>64.07</ele>
        <time>2013-07-19T19:06:04Z</time>
      </trkpt>
      <trkpt lat="45.6686" lon="-0.00837">
        <ele>63.58</ele>
        <time>2013-07-19T19:06:05Z</time>
      </trkpt>
      <trkpt lat="45.66856" lon="-0.00851">
        <ele>63.58</ele>
        <time>2013-07-19T19:06:06Z</time>
      </trkpt>
      <trkpt lat="45.66853" lon="-0.00864">
        <ele>63.1</ele>
        <time>2013-07-19T19:06:07Z</time>
      </trkpt>
      <trkpt lat="45.66842" lon="-0.00906">
        <ele>62.14</ele>
        <time>2013-07-19T19:06:10Z</time>
      </trkpt>
      <trkpt lat="45.66837" lon="-0.00919">
        <ele>62.14</ele>
        <time>2013-07-19T19:06:11Z</time>
      </trkpt>
      <trkpt lat="45.66786" lon="-0.01034">
        <ele>58.78</ele>
        <time>2013-07-19T19:06:20Z</time>
      </trkpt>
      <trkpt lat="45.667" lon="-0.01198">
        <ele>56.37</ele>
        <time>2013-07-19T19:06:34Z</time>
      </trkpt>
      <trkpt lat="45.66628" lon="-0.01361">
        <ele>57.34</ele>
        <time>2013-07-19T19:06:49Z</time>
      </trkpt>
      <trkpt lat="45.66566" lon="-0.01479">
        <ele>59.26</ele>
        <time>2013-07-19T19:07:04Z</time>
      </trkpt>
      <trkpt lat="45.66515" lon="-0.01529">
        <ele>61.18</ele>
        <time>2013-07-19T19:07:14Z</time>
      </trkpt>
      <trkpt lat="45.66478" lon="-0.01554">
        <ele>63.1</ele>
        <time>2013-07-19T19:07:21Z</time>
      </trkpt>
      <trkpt lat="45.66438" lon="-0.01614">
        <ele>65.99</ele>
        <time>2013-07-19T19:07:32Z</time>
      </trkpt>
      <trkpt lat="45.66434" lon="-0.01619">
        <ele>65.99</ele>
        <time>2013-07-19T19:07:33Z</time>
      </trkpt>
      <trkpt lat="45.66431" lon="-0.01624">
        <ele>66.95</ele>
        <time>2013-07-19T19:07:34Z</time>
      </trkpt>
      <trkpt lat="45.66404" lon="-0.01666">
        <ele>68.87</ele>
        <time>2013-07-19T19:07:43Z</time>
      </trkpt>
      <trkpt lat="45.66402" lon="-0.01671">
        <ele>69.35</ele>
        <time>2013-07-19T19:07:44Z</time>
      </trkpt>
      <trkpt lat="45.66401" lon="-0.01677">
        <ele>69.35</ele>
        <time>2013-07-19T19:07:45Z</time>
      </trkpt>
      <trkpt lat="45.66396" lon="-0.01713">
        <ele>71.27</ele>
        <time>2013-07-19T19:07:51Z</time>
      </trkpt>
      <trkpt lat="45.66397" lon="-0.0172">
        <ele>71.76</ele>
        <time>2013-07-19T19:07:52Z</time>
      </trkpt>
      <trkpt lat="45.66397" lon="-0.01726">
        <ele>71.76</ele>
        <time>2013-07-19T19:07:53Z</time>
      </trkpt>
      <trkpt lat="45.66396" lon="-0.01803">
        <ele>73.2</ele>
        <time>2013-07-19T19:08:04Z</time>
      </trkpt>
      <trkpt lat="45.66394" lon="-0.01811">
        <ele>73.2</ele>
        <time>2013-07-19T19:08:05Z</time>
      </trkpt>
      <trkpt lat="45.66392" lon="-0.01818">
        <ele>73.2</ele>
        <time>2013-07-19T19:08:06Z</time>
      </trkpt>
      <trkpt lat="45.6639" lon="-0.01824">
        <ele>73.2</ele>
        <time>2013-07-19T19:08:07Z</time>
      </trkpt>
      <trkpt lat="45.66387" lon="-0.01831">
        <ele>73.68</ele>
        <time>2013-07-19T19:08:08Z</time>
      </trkpt>
      <trkpt lat="45.66384" lon="-0.01837">
        <ele>73.68</ele>
        <time>2013-07-19T19:08:09Z</time>
      </trkpt>
      <trkpt lat="45.6638" lon="-0.01843">
        <ele>74.16</ele>
        <time>2013-07-19T19:08:10Z</time>
      </trkpt>
      <trkpt lat="45.66343" lon="-0.01908">
        <ele>76.08</ele>
        <time>2013-07-19T19:08:21Z</time>
      </trkpt>
      <trkpt lat="45.66315" lon="-0.02019">
        <ele>78.48</ele>
        <time>2013-07-19T19:08:36Z</time>
      </trkpt>
      <trkpt lat="45.66303" lon="-0.02095">
        <ele>80.89</ele>
        <time>2013-07-19T19:08:46Z</time>
      </trkpt>
      <trkpt lat="45.66296" lon="-0.02153">
        <ele>82.81</ele>
        <time>2013-07-19T19:08:55Z</time>
      </trkpt>
      <trkpt lat="45.66289" lon="-0.02223">
        <ele>85.69</ele>
        <time>2013-07-19T19:09:06Z</time>
      </trkpt>
      <trkpt lat="45.66286" lon="-0.02278">
        <ele>88.58</ele>
        <time>2013-07-19T19:09:16Z</time>
      </trkpt>
      <trkpt lat="45.6628" lon="-0.02355">
        <ele>91.46</ele>
        <time>2013-07-19T19:09:29Z</time>
      </trkpt>
      <trkpt lat="45.66269" lon="-0.02467">
        <ele>92.42</ele>
        <time>2013-07-19T19:09:44Z</time>
      </trkpt>
      <trkpt lat="45.66247" lon="-0.02603">
        <ele>94.35</ele>
        <time>2013-07-19T19:10:00Z</time>
      </trkpt>
      <trkpt lat="45.66241" lon="-0.02759">
        <ele>96.75</ele>
        <time>2013-07-19T19:10:17Z</time>
      </trkpt>
      <trkpt lat="45.66227" lon="-0.0283">
        <ele>97.23</ele>
        <time>2013-07-19T19:10:25Z</time>
      </trkpt>
      <trkpt lat="45.66191" lon="-0.02962">
        <ele>99.63</ele>
        <time>2013-07-19T19:10:41Z</time>
      </trkpt>
      <trkpt lat="45.66189" lon="-0.0297">
        <ele>99.63</ele>
        <time>2013-07-19T19:10:42Z</time>
      </trkpt>
      <trkpt lat="45.66156" lon="-0.03074">
        <ele>100.11</ele>
        <time>2013-07-19T19:10:55Z</time>
      </trkpt>
      <trkpt lat="45.66155" lon="-0.03091">
        <ele>100.6</ele>
        <time>2013-07-19T19:10:57Z</time>
      </trkpt>
      <trkpt lat="45.66155" lon="-0.0315">
        <ele>101.08</ele>
        <time>2013-07-19T19:11:04Z</time>
      </trkpt>
      <trkpt lat="45.66153" lon="-0.03158">
        <ele>101.08</ele>
        <time>2013-07-19T19:11:05Z</time>
      </trkpt>
      <trkpt lat="45.66149" lon="-0.03165">
        <ele>101.08</ele>
        <time>2013-07-19T19:11:06Z</time>
      </trkpt>
      <trkpt lat="45.66144" lon="-0.03172">
        <ele>100.6</ele>
        <time>2013-07-19T19:11:07Z</time>
      </trkpt>
      <trkpt lat="45.66139" lon="-0.03179">
        <ele>100.6</ele>
        <time>2013-07-19T19:11:08Z</time>
      </trkpt>
      <trkpt lat="45.66133" lon="-0.03185">
        <ele>101.08</ele>
        <time>2013-07-19T19:11:09Z</time>
      </trkpt>
      <trkpt lat="45.66068" lon="-0.03256">
        <ele>100.11</ele>
        <time>2013-07-19T19:11:20Z</time>
      </trkpt>
      <trkpt lat="45.66063" lon="-0.03265">
        <ele>100.11</ele>
        <time>2013-07-19T19:11:21Z</time>
      </trkpt>
      <trkpt lat="45.66059" lon="-0.03274">
        <ele>99.63</ele>
        <time>2013-07-19T19:11:22Z</time>
      </trkpt>
      <trkpt lat="45.66056" lon="-0.03283">
        <ele>99.63</ele>
        <time>2013-07-19T19:11:23Z</time>
      </trkpt>
      <trkpt lat="45.66053" lon="-0.03293">
        <ele>99.63</ele>
        <time>2013-07-19T19:11:24Z</time>
      </trkpt>
      <trkpt lat="45.66045" lon="-0.03333">
        <ele>99.15</ele>
        <time>2013-07-19T19:11:28Z</time>
      </trkpt>
      <trkpt lat="45.66044" lon="-0.03344">
        <ele>99.15</ele>
        <time>2013-07-19T19:11:29Z</time>
      </trkpt>
      <trkpt lat="45.66044" lon="-0.03356">
        <ele>98.67</ele>
        <time>2013-07-19T19:11:30Z</time>
      </trkpt>
      <trkpt lat="45.66058" lon="-0.03465">
        <ele>97.71</ele>
        <time>2013-07-19T19:11:40Z</time>
      </trkpt>
      <trkpt lat="45.66092" lon="-0.0358">
        <ele>94.35</ele>
        <time>2013-07-19T19:11:51Z</time>
      </trkpt>
      <trkpt lat="45.66099" lon="-0.03602">
        <ele>93.87</ele>
        <time>2013-07-19T19:11:53Z</time>
      </trkpt>
      <trkpt lat="45.6613" lon="-0.03744">
        <ele>90.98</ele>
        <time>2013-07-19T19:12:06Z</time>
      </trkpt>
      <trkpt lat="45.66131" lon="-0.03751">
        <ele>90.5</ele>
        <time>2013-07-19T19:12:07Z</time>
      </trkpt>
      <trkpt lat="45.66133" lon="-0.03773">
        <ele>90.5</ele>
        <time>2013-07-19T19:12:10Z</time>
      </trkpt>
      <trkpt lat="45.66133" lon="-0.0378">
        <ele>90.5</ele>
        <time>2013-07-19T19:12:11Z</time>
      </trkpt>
      <trkpt lat="45.66134" lon="-0.03787">
        <ele>90.98</ele>
        <time>2013-07-19T19:12:12Z</time>
      </trkpt>
      <trkpt lat="45.66135" lon="-0.03793">
        <ele>90.98</ele>
        <time>2013-07-19T19:12:13Z</time>
      </trkpt>
      <trkpt lat="45.66136" lon="-0.038">
        <ele>91.46</ele>
        <time>2013-07-19T19:12:14Z</time>
      </trkpt>
      <trkpt lat="45.66137" lon="-0.03806">
        <ele>90.98</ele>
        <time>2013-07-19T19:12:15Z</time>
      </trkpt>
      <trkpt lat="45.66138" lon="-0.03812">
        <ele>91.46</ele>
        <time>2013-07-19T19:12:16Z</time>
      </trkpt>
      <trkpt lat="45.66139" lon="-0.03818">
        <ele>91.46</ele>
        <time>2013-07-19T19:12:17Z</time>
      </trkpt>
      <trkpt lat="45.6614" lon="-0.03824">
        <ele>90.98</ele>
        <time>2013-07-19T19:12:18Z</time>
      </trkpt>
      <trkpt lat="45.66153" lon="-0.03875">
        <ele>88.1</ele>
        <time>2013-07-19T19:12:26Z</time>
      </trkpt>
      <trkpt lat="45.66156" lon="-0.0388">
        <ele>87.62</ele>
        <time>2013-07-19T19:12:27Z</time>
      </trkpt>
      <trkpt lat="45.66159" lon="-0.03884">
        <ele>87.14</ele>
        <time>2013-07-19T19:12:28Z</time>
      </trkpt>
      <trkpt lat="45.66164" lon="-0.03886">
        <ele>86.66</ele>
        <time>2013-07-19T19:12:29Z</time>
      </trkpt>
      <trkpt lat="45.66169" lon="-0.03887">
        <ele>86.66</ele>
        <time>2013-07-19T19:12:30Z</time>
      </trkpt>
      <trkpt lat="45.66173" lon="-0.03888">
        <ele>86.18</ele>
        <time>2013-07-19T19:12:31Z</time>
      </trkpt>
      <trkpt lat="45.66178" lon="-0.03889">
        <ele>85.69</ele>
        <time>2013-07-19T19:12:32Z</time>
      </trkpt>
      <trkpt lat="45.66183" lon="-0.03892">
        <ele>85.21</ele>
        <time>2013-07-19T19:12:33Z</time>
      </trkpt>
      <trkpt lat="45.66186" lon="-0.03897">
        <ele>84.73</ele>
        <time>2013-07-19T19:12:34Z</time>
      </trkpt>
      <trkpt lat="45.66189" lon="-0.03904">
        <ele>83.77</ele>
        <time>2013-07-19T19:12:35Z</time>
      </trkpt>
      <trkpt lat="45.66191" lon="-0.03911">
        <ele>83.29</ele>
        <time>2013-07-19T19:12:36Z</time>
      </trkpt>
      <trkpt lat="45.66193" lon="-0.03918">
        <ele>82.81</ele>
        <time>2013-07-19T19:12:37Z</time>
      </trkpt>
      <trkpt lat="45.66194" lon="-0.03926">
        <ele>82.33</ele>
        <time>2013-07-19T19:12:38Z</time>
      </trkpt>
      <trkpt lat="45.66201" lon="-0.03968">
        <ele>79.45</ele>
        <time>2013-07-19T19:12:43Z</time>
      </trkpt>
      <trkpt lat="45.66204" lon="-0.04018">
        <ele>75.6</ele>
        <time>2013-07-19T19:12:48Z</time>
      </trkpt>
      <trkpt lat="45.66207" lon="-0.04038">
        <ele>74.64</ele>
        <time>2013-07-19T19:12:50Z</time>
      </trkpt>
      <trkpt lat="45.6621" lon="-0.04048">
        <ele>74.16</ele>
        <time>2013-07-19T19:12:51Z</time>
      </trkpt>
      <trkpt lat="45.66213" lon="-0.04058">
        <ele>73.68</ele>
        <time>2013-07-19T19:12:52Z</time>
      </trkpt>
      <trkpt lat="45.66217" lon="-0.04067">
        <ele>73.68</ele>
        <time>2013-07-19T19:12:53Z</time>
      </trkpt>
      <trkpt lat="45.66222" lon="-0.04076">
        <ele>73.2</ele>
        <time>2013-07-19T19:12:54Z</time>
      </trkpt>
      <trkpt lat="45.66244" lon="-0.04106">
        <ele>72.24</ele>
        <time>2013-07-19T19:12:58Z</time>
      </trkpt>
      <trkpt lat="45.6625" lon="-0.04111">
        <ele>72.24</ele>
        <time>2013-07-19T19:12:59Z</time>
      </trkpt>
      <trkpt lat="45.66256" lon="-0.04116">
        <ele>72.24</ele>
        <time>2013-07-19T19:13:00Z</time>
      </trkpt>
      <trkpt lat="45.66263" lon="-0.04119">
        <ele>72.24</ele>
        <time>2013-07-19T19:13:01Z</time>
      </trkpt>
      <trkpt lat="45.6627" lon="-0.04122">
        <ele>71.76</ele>
        <time>2013-07-19T19:13:02Z</time>
      </trkpt>
      <trkpt lat="45.66285" lon="-0.04128">
        <ele>70.79</ele>
        <time>2013-07-19T19:13:04Z</time>
      </trkpt>
      <trkpt lat="45.66292" lon="-0.04132">
        <ele>70.31</ele>
        <time>2013-07-19T19:13:05Z</time>
      </trkpt>
      <trkpt lat="45.66298" lon="-0.04137">
        <ele>69.83</ele>
        <time>2013-07-19T19:13:06Z</time>
      </trkpt>
      <trkpt lat="45.66303" lon="-0.04145">
        <ele>69.35</ele>
        <time>2013-07-19T19:13:07Z</time>
      </trkpt>
      <trkpt lat="45.66306" lon="-0.04155">
        <ele>68.87</ele>
        <time>2013-07-19T19:13:08Z</time>
      </trkpt>
      <trkpt lat="45.66308" lon="-0.04167">
        <ele>68.39</ele>
        <time>2013-07-19T19:13:09Z</time>
      </trkpt>
      <trkpt lat="45.66309" lon="-0.04178">
        <ele>67.91</ele>
        <time>2013-07-19T19:13:10Z</time>
      </trkpt>
      <trkpt lat="45.66311" lon="-0.04203">
        <ele>67.43</ele>
        <time>2013-07-19T19:13:12Z</time>
      </trkpt>
      <trkpt lat="45.66318" lon="-0.04241">
        <ele>65.99</ele>
        <time>2013-07-19T19:13:15Z</time>
      </trkpt>
      <trkpt lat="45.66327" lon="-0.04295">
        <ele>64.55</ele>
        <time>2013-07-19T19:13:19Z</time>
      </trkpt>
      <trkpt lat="45.66337" lon="-0.04383">
        <ele>61.18</ele>
        <time>2013-07-19T19:13:26Z</time>
      </trkpt>
      <trkpt lat="45.66338" lon="-0.04414">
        <ele>59.26</ele>
        <time>2013-07-19T19:13:31Z</time>
      </trkpt>
      <trkpt lat="45.66339" lon="-0.0442">
        <ele>59.26</ele>
        <time>2013-07-19T19:13:32Z</time>
      </trkpt>
      <trkpt lat="45.66365" lon="-0.04513">
        <ele>58.78</ele>
        <time>2013-07-19T19:13:43Z</time>
      </trkpt>
      <trkpt lat="45.66387" lon="-0.04649">
        <ele>55.89</ele>
        <time>2013-07-19T19:13:57Z</time>
      </trkpt>
      <trkpt lat="45.66386" lon="-0.04671">
        <ele>55.41</ele>
        <time>2013-07-19T19:13:59Z</time>
      </trkpt>
      <trkpt lat="45.66384" lon="-0.04692">
        <ele>54.45</ele>
        <time>2013-07-19T19:14:01Z</time>
      </trkpt>
      <trkpt lat="45.66384" lon="-0.04701">
        <ele>53.97</ele>
        <time>2013-07-19T19:14:02Z</time>
      </trkpt>
      <trkpt lat="45.66385" lon="-0.04708">
        <ele>53.49</ele>
        <time>2013-07-19T19:14:03Z</time>
      </trkpt>
      <trkpt lat="45.6639" lon="-0.04724">
        <ele>53.01</ele>
        <time>2013-07-19T19:14:06Z</time>
      </trkpt>
      <trkpt lat="45.66393" lon="-0.0473">
        <ele>52.53</ele>
        <time>2013-07-19T19:14:07Z</time>
      </trkpt>
      <trkpt lat="45.66397" lon="-0.04735">
        <ele>52.53</ele>
        <time>2013-07-19T19:14:08Z</time>
      </trkpt>
      <trkpt lat="45.66401" lon="-0.04741">
        <ele>53.01</ele>
        <time>2013-07-19T19:14:09Z</time>
      </trkpt>
      <trkpt lat="45.66406" lon="-0.04746">
        <ele>52.53</ele>
        <time>2013-07-19T19:14:10Z</time>
      </trkpt>
      <trkpt lat="45.66458" lon="-0.04785">
        <ele>50.61</ele>
        <time>2013-07-19T19:14:19Z</time>
      </trkpt>
      <trkpt lat="45.66464" lon="-0.04791">
        <ele>50.61</ele>
        <time>2013-07-19T19:14:20Z</time>
      </trkpt>
      <trkpt lat="45.66492" lon="-0.04839">
        <ele>48.68</ele>
        <time>2013-07-19T19:14:26Z</time>
      </trkpt>
      <trkpt lat="45.66536" lon="-0.04997">
        <ele>46.28</ele>
        <time>2013-07-19T19:14:40Z</time>
      </trkpt>
      <trkpt lat="45.66564" lon="-0.05173">
        <ele>43.88</ele>
        <time>2013-07-19T19:14:55Z</time>
      </trkpt>
      <trkpt lat="45.66563" lon="-0.0522">
        <ele>43.4</ele>
        <time>2013-07-19T19:14:59Z</time>
      </trkpt>
      <trkpt lat="45.66564" lon="-0.05243">
        <ele>42.92</ele>
        <time>2013-07-19T19:15:01Z</time>
      </trkpt>
      <trkpt lat="45.66593" lon="-0.05366">
        <ele>40.99</ele>
        <time>2013-07-19T19:15:13Z</time>
      </trkpt>
      <trkpt lat="45.66595" lon="-0.05379">
        <ele>40.03</ele>
        <time>2013-07-19T19:15:15Z</time>
      </trkpt>
      <trkpt lat="45.66594" lon="-0.05382">
        <ele>40.03</ele>
        <time>2013-07-19T19:15:16Z</time>
      </trkpt>
      <trkpt lat="45.66592" lon="-0.05384">
        <ele>40.03</ele>
        <time>2013-07-19T19:15:17Z</time>
      </trkpt>
      <trkpt lat="45.6658" lon="-0.05406">
        <ele>39.07</ele>
        <time>2013-07-19T19:15:24Z</time>
      </trkpt>
      <trkpt lat="45.66581" lon="-0.05409">
        <ele>39.07</ele>
        <time>2013-07-19T19:15:25Z</time>
      </trkpt>
      <trkpt lat="45.66583" lon="-0.05412">
        <ele>39.55</ele>
        <time>2013-07-19T19:15:26Z</time>
      </trkpt>
      <trkpt lat="45.66603" lon="-0.05449">
        <ele>39.07</ele>
        <time>2013-07-19T19:15:37Z</time>
      </trkpt>
      <trkpt lat="45.66601" lon="-0.05458">
        <ele>39.07</ele>
        <time>2013-07-19T19:15:39Z</time>
      </trkpt>
      <trkpt lat="45.66598" lon="-0.05462">
        <ele>39.07</ele>
        <time>2013-07-19T19:15:40Z</time>
      </trkpt>
      <trkpt lat="45.66595" lon="-0.05465">
        <ele>39.55</ele>
        <time>2013-07-19T19:15:41Z</time>
      </trkpt>
      <trkpt lat="45.66591" lon="-0.05469">
        <ele>39.07</ele>
        <time>2013-07-19T19:15:42Z</time>
      </trkpt>
      <trkpt lat="45.66589" lon="-0.05472">
        <ele>39.07</ele>
        <time>2013-07-19T19:15:43Z</time>
      </trkpt>
      <trkpt lat="45.66588" lon="-0.05477">
        <ele>39.07</ele>
        <time>2013-07-19T19:15:44Z</time>
      </trkpt>
      <trkpt lat="45.66589" lon="-0.05482">
        <ele>39.07</ele>
        <time>2013-07-19T19:15:45Z</time>
      </trkpt>
      <trkpt lat="45.6659" lon="-0.05487">
        <ele>39.07</ele>
        <time>2013-07-19T19:15:46Z</time>
      </trkpt>
      <trkpt lat="45.66593" lon="-0.05492">
        <ele>39.07</ele>
        <time>2013-07-19T19:15:47Z</time>
      </trkpt>
      <trkpt lat="45.66597" lon="-0.05504">
        <ele>38.59</ele>
        <time>2013-07-19T19:15:49Z</time>
      </trkpt>
      <trkpt lat="45.66605" lon="-0.05539">
        <ele>38.11</ele>
        <time>2013-07-19T19:15:54Z</time>
      </trkpt>
      <trkpt lat="45.66605" lon="-0.05547">
        <ele>38.11</ele>
        <time>2013-07-19T19:15:55Z</time>
      </trkpt>
      <trkpt lat="45.66606" lon="-0.05554">
        <ele>38.11</ele>
        <time>2013-07-19T19:15:56Z</time>
      </trkpt>
      <trkpt lat="45.66607" lon="-0.05562">
        <ele>38.11</ele>
        <time>2013-07-19T19:15:57Z</time>
      </trkpt>
      <trkpt lat="45.66609" lon="-0.0557">
        <ele>38.11</ele>
        <time>2013-07-19T19:15:58Z</time>
      </trkpt>
      <trkpt lat="45.66619" lon="-0.05602">
        <ele>38.11</ele>
        <time>2013-07-19T19:16:02Z</time>
      </trkpt>
      <trkpt lat="45.66672" lon="-0.0573">
        <ele>36.19</ele>
        <time>2013-07-19T19:16:17Z</time>
      </trkpt>
      <trkpt lat="45.66677" lon="-0.05743">
        <ele>35.71</ele>
        <time>2013-07-19T19:16:19Z</time>
      </trkpt>
      <trkpt lat="45.66677" lon="-0.0575">
        <ele>35.71</ele>
        <time>2013-07-19T19:16:20Z</time>
      </trkpt>
      <trkpt lat="45.66677" lon="-0.05756">
        <ele>35.71</ele>
        <time>2013-07-19T19:16:21Z</time>
      </trkpt>
      <trkpt lat="45.66676" lon="-0.05762">
        <ele>35.23</ele>
        <time>2013-07-19T19:16:22Z</time>
      </trkpt>
      <trkpt lat="45.66675" lon="-0.05769">
        <ele>35.23</ele>
        <time>2013-07-19T19:16:23Z</time>
      </trkpt>
      <trkpt lat="45.66675" lon="-0.05775">
        <ele>35.23</ele>
        <time>2013-07-19T19:16:24Z</time>
      </trkpt>
      <trkpt lat="45.66677" lon="-0.05782">
        <ele>34.74</ele>
        <time>2013-07-19T19:16:25Z</time>
      </trkpt>
      <trkpt lat="45.66679" lon="-0.05788">
        <ele>34.74</ele>
        <time>2013-07-19T19:16:26Z</time>
      </trkpt>
      <trkpt lat="45.66681" lon="-0.05795">
        <ele>34.74</ele>
        <time>2013-07-19T19:16:27Z</time>
      </trkpt>
      <trkpt lat="45.66721" lon="-0.05895">
        <ele>34.74</ele>
        <time>2013-07-19T19:16:41Z</time>
      </trkpt>
      <trkpt lat="45.66759" lon="-0.05988">
        <ele>34.26</ele>
        <time>2013-07-19T19:16:53Z</time>
      </trkpt>
      <trkpt lat="45.66761" lon="-0.05998">
        <ele>33.78</ele>
        <time>2013-07-19T19:16:54Z</time>
      </trkpt>
      <trkpt lat="45.66762" lon="-0.06007">
        <ele>34.26</ele>
        <time>2013-07-19T19:16:55Z</time>
      </trkpt>
      <trkpt lat="45.66762" lon="-0.06016">
        <ele>34.26</ele>
        <time>2013-07-19T19:16:56Z</time>
      </trkpt>
      <trkpt lat="45.66762" lon="-0.06026">
        <ele>33.78</ele>
        <time>2013-07-19T19:16:57Z</time>
      </trkpt>
      <trkpt lat="45.66761" lon="-0.06036">
        <ele>34.26</ele>
        <time>2013-07-19T19:16:58Z</time>
      </trkpt>
      <trkpt lat="45.6676" lon="-0.06045">
        <ele>33.78</ele>
        <time>2013-07-19T19:16:59Z</time>
      </trkpt>
      <trkpt lat="45.66748" lon="-0.06111">
        <ele>33.78</ele>
        <time>2013-07-19T19:17:06Z</time>
      </trkpt>
      <trkpt lat="45.66746" lon="-0.0612">
        <ele>33.78</ele>
        <time>2013-07-19T19:17:07Z</time>
      </trkpt>
      <trkpt lat="45.66722" lon="-0.06254">
        <ele>34.26</ele>
        <time>2013-07-19T19:17:22Z</time>
      </trkpt>
      <trkpt lat="45.66719" lon="-0.06279">
        <ele>34.74</ele>
        <time>2013-07-19T19:17:25Z</time>
      </trkpt>
      <trkpt lat="45.66719" lon="-0.06288">
        <ele>34.74</ele>
        <time>2013-07-19T19:17:26Z</time>
      </trkpt>
      <trkpt lat="45.66719" lon="-0.06296">
        <ele>35.23</ele>
        <time>2013-07-19T19:17:27Z</time>
      </trkpt>
      <trkpt lat="45.66719" lon="-0.06304">
        <ele>35.23</ele>
        <time>2013-07-19T19:17:28Z</time>
      </trkpt>
      <trkpt lat="45.66719" lon="-0.06313">
        <ele>34.74</ele>
        <time>2013-07-19T19:17:29Z</time>
      </trkpt>
      <trkpt lat="45.6672" lon="-0.06321">
        <ele>35.23</ele>
        <time>2013-07-19T19:17:30Z</time>
      </trkpt>
      <trkpt lat="45.66727" lon="-0.06389">
        <ele>35.71</ele>
        <time>2013-07-19T19:17:38Z</time>
      </trkpt>
      <trkpt lat="45.66729" lon="-0.06396">
        <ele>35.71</ele>
        <time>2013-07-19T19:17:39Z</time>
      </trkpt>
      <trkpt lat="45.66736" lon="-0.06436">
        <ele>35.71</ele>
        <time>2013-07-19T19:17:44Z</time>
      </trkpt>
      <trkpt lat="45.66757" lon="-0.06521">
        <ele>35.23</ele>
        <time>2013-07-19T19:17:55Z</time>
      </trkpt>
      <trkpt lat="45.66759" lon="-0.0653">
        <ele>35.71</ele>
        <time>2013-07-19T19:17:56Z</time>
      </trkpt>
      <trkpt lat="45.66761" lon="-0.06538">
        <ele>35.71</ele>
        <time>2013-07-19T19:17:57Z</time>
      </trkpt>
      <trkpt lat="45.66764" lon="-0.06555">
        <ele>35.71</ele>
        <time>2013-07-19T19:17:59Z</time>
      </trkpt>
      <trkpt lat="45.66768" lon="-0.06586">
        <ele>35.23</ele>
        <time>2013-07-19T19:18:03Z</time>
      </trkpt>
      <trkpt lat="45.6677" lon="-0.06594">
        <ele>35.71</ele>
        <time>2013-07-19T19:18:04Z</time>
      </trkpt>
      <trkpt lat="45.66772" lon="-0.06601">
        <ele>35.23</ele>
        <time>2013-07-19T19:18:05Z</time>
      </trkpt>
      <trkpt lat="45.66804" lon="-0.06718">
        <ele>34.26</ele>
        <time>2013-07-19T19:18:20Z</time>
      </trkpt>
      <trkpt lat="45.66849" lon="-0.06825">
        <ele>32.34</ele>
        <time>2013-07-19T19:18:35Z</time>
      </trkpt>
      <trkpt lat="45.6689" lon="-0.06958">
        <ele>31.38</ele>
        <time>2013-07-19T19:18:51Z</time>
      </trkpt>
      <trkpt lat="45.66935" lon="-0.07101">
        <ele>29.94</ele>
        <time>2013-07-19T19:19:08Z</time>
      </trkpt>
      <trkpt lat="45.66971" lon="-0.07233">
        <ele>29.46</ele>
        <time>2013-07-19T19:19:24Z</time>
      </trkpt>
      <trkpt lat="45.66974" lon="-0.0726">
        <ele>29.46</ele>
        <time>2013-07-19T19:19:27Z</time>
      </trkpt>
      <trkpt lat="45.66983" lon="-0.07382">
        <ele>30.42</ele>
        <time>2013-07-19T19:19:41Z</time>
      </trkpt>
      <trkpt lat="45.66986" lon="-0.07418">
        <ele>30.42</ele>
        <time>2013-07-19T19:19:46Z</time>
      </trkpt>
      <trkpt lat="45.66988" lon="-0.07441">
        <ele>29.94</ele>
        <time>2013-07-19T19:19:49Z</time>
      </trkpt>
      <trkpt lat="45.66987" lon="-0.07459">
        <ele>28.98</ele>
        <time>2013-07-19T19:19:51Z</time>
      </trkpt>
      <trkpt lat="45.66986" lon="-0.07469">
        <ele>28.5</ele>
        <time>2013-07-19T19:19:52Z</time>
      </trkpt>
      <trkpt lat="45.66983" lon="-0.07479">
        <ele>28.02</ele>
        <time>2013-07-19T19:19:53Z</time>
      </trkpt>
      <trkpt lat="45.66948" lon="-0.07598">
        <ele>27.05</ele>
        <time>2013-07-19T19:20:06Z</time>
      </trkpt>
      <trkpt lat="45.66933" lon="-0.07638">
        <ele>28.98</ele>
        <time>2013-07-19T19:20:12Z</time>
      </trkpt>
      <trkpt lat="45.66932" lon="-0.07644">
        <ele>28.98</ele>
        <time>2013-07-19T19:20:13Z</time>
      </trkpt>
      <trkpt lat="45.66931" lon="-0.0765">
        <ele>29.46</ele>
        <time>2013-07-19T19:20:14Z</time>
      </trkpt>
      <trkpt lat="45.66928" lon="-0.07682">
        <ele>30.9</ele>
        <time>2013-07-19T19:20:19Z</time>
      </trkpt>
      <trkpt lat="45.66928" lon="-0.07688">
        <ele>30.42</ele>
        <time>2013-07-19T19:20:20Z</time>
      </trkpt>
      <trkpt lat="45.66931" lon="-0.07722">
        <ele>31.38</ele>
        <time>2013-07-19T19:20:25Z</time>
      </trkpt>
      <trkpt lat="45.66937" lon="-0.07749">
        <ele>32.34</ele>
        <time>2013-07-19T19:20:29Z</time>
      </trkpt>
      <trkpt lat="45.66949" lon="-0.07781">
        <ele>32.82</ele>
        <time>2013-07-19T19:20:34Z</time>
      </trkpt>
      <trkpt lat="45.66971" lon="-0.07822">
        <ele>33.78</ele>
        <time>2013-07-19T19:20:41Z</time>
      </trkpt>
      <trkpt lat="45.66975" lon="-0.07827">
        <ele>33.78</ele>
        <time>2013-07-19T19:20:42Z</time>
      </trkpt>
      <trkpt lat="45.66988" lon="-0.07841">
        <ele>33.78</ele>
        <time>2013-07-19T19:20:45Z</time>
      </trkpt>
      <trkpt lat="45.66992" lon="-0.07846">
        <ele>33.3</ele>
        <time>2013-07-19T19:20:46Z</time>
      </trkpt>
      <trkpt lat="45.67021" lon="-0.07885">
        <ele>32.82</ele>
        <time>2013-07-19T19:20:54Z</time>
      </trkpt>
      <trkpt lat="45.67059" lon="-0.07938">
        <ele>30.9</ele>
        <time>2013-07-19T19:21:04Z</time>
      </trkpt>
      <trkpt lat="45.67099" lon="-0.07997">
        <ele>28.02</ele>
        <time>2013-07-19T19:21:12Z</time>
      </trkpt>
      <trkpt lat="45.67112" lon="-0.08012">
        <ele>27.05</ele>
        <time>2013-07-19T19:21:14Z</time>
      </trkpt>
      <trkpt lat="45.67117" lon="-0.08021">
        <ele>27.05</ele>
        <time>2013-07-19T19:21:15Z</time>
      </trkpt>
      <trkpt lat="45.67131" lon="-0.08049">
        <ele>26.57</ele>
        <time>2013-07-19T19:21:18Z</time>
      </trkpt>
      <trkpt lat="45.67134" lon="-0.08059">
        <ele>26.57</ele>
        <time>2013-07-19T19:21:19Z</time>
      </trkpt>
      <trkpt lat="45.67138" lon="-0.08089">
        <ele>26.57</ele>
        <time>2013-07-19T19:21:22Z</time>
      </trkpt>
      <trkpt lat="45.67143" lon="-0.08158">
        <ele>27.53</ele>
        <time>2013-07-19T19:21:30Z</time>
      </trkpt>
      <trkpt lat="45.67143" lon="-0.08165">
        <ele>28.02</ele>
        <time>2013-07-19T19:21:31Z</time>
      </trkpt>
      <trkpt lat="45.67146" lon="-0.08218">
        <ele>31.38</ele>
        <time>2013-07-19T19:21:40Z</time>
      </trkpt>
      <trkpt lat="45.6715" lon="-0.08263">
        <ele>33.78</ele>
        <time>2013-07-19T19:21:48Z</time>
      </trkpt>
      <trkpt lat="45.67154" lon="-0.08292">
        <ele>34.74</ele>
        <time>2013-07-19T19:21:53Z</time>
      </trkpt>
      <trkpt lat="45.6716" lon="-0.08329">
        <ele>36.19</ele>
        <time>2013-07-19T19:21:59Z</time>
      </trkpt>
      <trkpt lat="45.67162" lon="-0.08335">
        <ele>36.19</ele>
        <time>2013-07-19T19:22:00Z</time>
      </trkpt>
      <trkpt lat="45.6717" lon="-0.08401">
        <ele>37.63</ele>
        <time>2013-07-19T19:22:11Z</time>
      </trkpt>
      <trkpt lat="45.67171" lon="-0.08407">
        <ele>38.11</ele>
        <time>2013-07-19T19:22:12Z</time>
      </trkpt>
      <trkpt lat="45.67179" lon="-0.08475">
        <ele>39.07</ele>
        <time>2013-07-19T19:22:22Z</time>
      </trkpt>
      <trkpt lat="45.67189" lon="-0.08557">
        <ele>38.59</ele>
        <time>2013-07-19T19:22:33Z</time>
      </trkpt>
      <trkpt lat="45.67191" lon="-0.08564">
        <ele>38.59</ele>
        <time>2013-07-19T19:22:34Z</time>
      </trkpt>
      <trkpt lat="45.67193" lon="-0.08569">
        <ele>38.59</ele>
        <time>2013-07-19T19:22:35Z</time>
      </trkpt>
      <trkpt lat="45.67195" lon="-0.08573">
        <ele>38.59</ele>
        <time>2013-07-19T19:22:36Z</time>
      </trkpt>
      <trkpt lat="45.67197" lon="-0.08577">
        <ele>38.59</ele>
        <time>2013-07-19T19:22:37Z</time>
      </trkpt>
      <trkpt lat="45.67199" lon="-0.08582">
        <ele>38.59</ele>
        <time>2013-07-19T19:22:38Z</time>
      </trkpt>
      <trkpt lat="45.672" lon="-0.08588">
        <ele>39.07</ele>
        <time>2013-07-19T19:22:39Z</time>
      </trkpt>
      <trkpt lat="45.67201" lon="-0.08595">
        <ele>39.07</ele>
        <time>2013-07-19T19:22:40Z</time>
      </trkpt>
      <trkpt lat="45.67201" lon="-0.08601">
        <ele>39.07</ele>
        <time>2013-07-19T19:22:41Z</time>
      </trkpt>
      <trkpt lat="45.67214" lon="-0.08709">
        <ele>39.55</ele>
        <time>2013-07-19T19:22:55Z</time>
      </trkpt>
      <trkpt lat="45.67242" lon="-0.08825">
        <ele>39.55</ele>
        <time>2013-07-19T19:23:09Z</time>
      </trkpt>
      <trkpt lat="45.67284" lon="-0.0898">
        <ele>38.59</ele>
        <time>2013-07-19T19:23:26Z</time>
      </trkpt>
      <trkpt lat="45.67322" lon="-0.09163">
        <ele>36.67</ele>
        <time>2013-07-19T19:23:44Z</time>
      </trkpt>
      <trkpt lat="45.67348" lon="-0.09328">
        <ele>33.78</ele>
        <time>2013-07-19T19:23:59Z</time>
      </trkpt>
      <trkpt lat="45.67363" lon="-0.09481">
        <ele>30.42</ele>
        <time>2013-07-19T19:24:11Z</time>
      </trkpt>
      <trkpt lat="45.67365" lon="-0.09691">
        <ele>29.46</ele>
        <time>2013-07-19T19:24:28Z</time>
      </trkpt>
      <trkpt lat="45.67379" lon="-0.0987">
        <ele>27.53</ele>
        <time>2013-07-19T19:24:43Z</time>
      </trkpt>
      <trkpt lat="45.67386" lon="-0.0997">
        <ele>28.5</ele>
        <time>2013-07-19T19:24:52Z</time>
      </trkpt>
      <trkpt lat="45.67383" lon="-0.10001">
        <ele>28.02</ele>
        <time>2013-07-19T19:24:55Z</time>
      </trkpt>
      <trkpt lat="45.67374" lon="-0.10104">
        <ele>26.57</ele>
        <time>2013-07-19T19:25:06Z</time>
      </trkpt>
      <trkpt lat="45.67377" lon="-0.10156">
        <ele>27.53</ele>
        <time>2013-07-19T19:25:12Z</time>
      </trkpt>
      <trkpt lat="45.67378" lon="-0.10164">
        <ele>27.53</ele>
        <time>2013-07-19T19:25:13Z</time>
      </trkpt>
      <trkpt lat="45.67388" lon="-0.10294">
        <ele>28.02</ele>
        <time>2013-07-19T19:25:27Z</time>
      </trkpt>
      <trkpt lat="45.67412" lon="-0.10517">
        <ele>27.53</ele>
        <time>2013-07-19T19:25:48Z</time>
      </trkpt>
      <trkpt lat="45.67462" lon="-0.1071">
        <ele>26.57</ele>
        <time>2013-07-19T19:26:06Z</time>
      </trkpt>
      <trkpt lat="45.67501" lon="-0.10797">
        <ele>26.09</ele>
        <time>2013-07-19T19:26:15Z</time>
      </trkpt>
      <trkpt lat="45.67504" lon="-0.10808">
        <ele>26.09</ele>
        <time>2013-07-19T19:26:16Z</time>
      </trkpt>
      <trkpt lat="45.67529" lon="-0.10941">
        <ele>26.09</ele>
        <time>2013-07-19T19:26:29Z</time>
      </trkpt>
      <trkpt lat="45.67572" lon="-0.11084">
        <ele>25.61</ele>
        <time>2013-07-19T19:26:42Z</time>
      </trkpt>
      <trkpt lat="45.67635" lon="-0.1122">
        <ele>28.5</ele>
        <time>2013-07-19T19:26:58Z</time>
      </trkpt>
      <trkpt lat="45.67693" lon="-0.11352">
        <ele>28.02</ele>
        <time>2013-07-19T19:27:14Z</time>
      </trkpt>
      <trkpt lat="45.67739" lon="-0.11464">
        <ele>25.61</ele>
        <time>2013-07-19T19:27:27Z</time>
      </trkpt>
      <trkpt lat="45.67742" lon="-0.11468">
        <ele>25.13</ele>
        <time>2013-07-19T19:27:28Z</time>
      </trkpt>
      <trkpt lat="45.67746" lon="-0.11472">
        <ele>25.13</ele>
        <time>2013-07-19T19:27:29Z</time>
      </trkpt>
      <trkpt lat="45.67751" lon="-0.11474">
        <ele>25.61</ele>
        <time>2013-07-19T19:27:30Z</time>
      </trkpt>
      <trkpt lat="45.67757" lon="-0.11477">
        <ele>25.13</ele>
        <time>2013-07-19T19:27:31Z</time>
      </trkpt>
      <trkpt lat="45.67762" lon="-0.1148">
        <ele>25.13</ele>
        <time>2013-07-19T19:27:32Z</time>
      </trkpt>
      <trkpt lat="45.67768" lon="-0.11484">
        <ele>25.13</ele>
        <time>2013-07-19T19:27:33Z</time>
      </trkpt>
      <trkpt lat="45.67774" lon="-0.1149">
        <ele>25.13</ele>
        <time>2013-07-19T19:27:34Z</time>
      </trkpt>
      <trkpt lat="45.67778" lon="-0.11498">
        <ele>25.13</ele>
        <time>2013-07-19T19:27:35Z</time>
      </trkpt>
      <trkpt lat="45.67782" lon="-0.11507">
        <ele>24.65</ele>
        <time>2013-07-19T19:27:36Z</time>
      </trkpt>
      <trkpt lat="45.67784" lon="-0.11517">
        <ele>24.65</ele>
        <time>2013-07-19T19:27:37Z</time>
      </trkpt>
      <trkpt lat="45.67787" lon="-0.11527">
        <ele>24.65</ele>
        <time>2013-07-19T19:27:38Z</time>
      </trkpt>
      <trkpt lat="45.67796" lon="-0.11569">
        <ele>23.21</ele>
        <time>2013-07-19T19:27:42Z</time>
      </trkpt>
      <trkpt lat="45.67796" lon="-0.11578">
        <ele>23.21</ele>
        <time>2013-07-19T19:27:43Z</time>
      </trkpt>
      <trkpt lat="45.67794" lon="-0.11586">
        <ele>22.73</ele>
        <time>2013-07-19T19:27:44Z</time>
      </trkpt>
      <trkpt lat="45.6779" lon="-0.11593">
        <ele>22.25</ele>
        <time>2013-07-19T19:27:45Z</time>
      </trkpt>
      <trkpt lat="45.67786" lon="-0.11599">
        <ele>22.25</ele>
        <time>2013-07-19T19:27:46Z</time>
      </trkpt>
      <trkpt lat="45.67782" lon="-0.11604">
        <ele>22.73</ele>
        <time>2013-07-19T19:27:47Z</time>
      </trkpt>
      <trkpt lat="45.67778" lon="-0.1161">
        <ele>22.25</ele>
        <time>2013-07-19T19:27:48Z</time>
      </trkpt>
      <trkpt lat="45.67774" lon="-0.11617">
        <ele>22.25</ele>
        <time>2013-07-19T19:27:49Z</time>
      </trkpt>
      <trkpt lat="45.6777" lon="-0.11625">
        <ele>21.77</ele>
        <time>2013-07-19T19:27:50Z</time>
      </trkpt>
      <trkpt lat="45.67763" lon="-0.11638">
        <ele>20.81</ele>
        <time>2013-07-19T19:27:52Z</time>
      </trkpt>
      <trkpt lat="45.67762" lon="-0.11643">
        <ele>19.84</ele>
        <time>2013-07-19T19:27:53Z</time>
      </trkpt>
      <trkpt lat="45.67762" lon="-0.11647">
        <ele>18.88</ele>
        <time>2013-07-19T19:27:54Z</time>
      </trkpt>
      <trkpt lat="45.67764" lon="-0.11651">
        <ele>19.36</ele>
        <time>2013-07-19T19:27:55Z</time>
      </trkpt>
      <trkpt lat="45.67768" lon="-0.11656">
        <ele>19.36</ele>
        <time>2013-07-19T19:27:56Z</time>
      </trkpt>
      <trkpt lat="45.67772" lon="-0.11659">
        <ele>19.36</ele>
        <time>2013-07-19T19:27:57Z</time>
      </trkpt>
      <trkpt lat="45.67777" lon="-0.11664">
        <ele>18.88</ele>
        <time>2013-07-19T19:27:58Z</time>
      </trkpt>
      <trkpt lat="45.67844" lon="-0.11735">
        <ele>19.36</ele>
        <time>2013-07-19T19:28:10Z</time>
      </trkpt>
      <trkpt lat="45.67877" lon="-0.11773">
        <ele>20.32</ele>
        <time>2013-07-19T19:28:16Z</time>
      </trkpt>
      <trkpt lat="45.67881" lon="-0.1178">
        <ele>20.32</ele>
        <time>2013-07-19T19:28:17Z</time>
      </trkpt>
      <trkpt lat="45.6789" lon="-0.11794">
        <ele>20.32</ele>
        <time>2013-07-19T19:28:19Z</time>
      </trkpt>
      <trkpt lat="45.67914" lon="-0.11848">
        <ele>21.29</ele>
        <time>2013-07-19T19:28:26Z</time>
      </trkpt>
      <trkpt lat="45.67954" lon="-0.1198">
        <ele>21.29</ele>
        <time>2013-07-19T19:28:40Z</time>
      </trkpt>
      <trkpt lat="45.68016" lon="-0.12175">
        <ele>21.77</ele>
        <time>2013-07-19T19:28:59Z</time>
      </trkpt>
      <trkpt lat="45.68063" lon="-0.12326">
        <ele>22.73</ele>
        <time>2013-07-19T19:29:15Z</time>
      </trkpt>
      <trkpt lat="45.68116" lon="-0.12494">
        <ele>21.77</ele>
        <time>2013-07-19T19:29:31Z</time>
      </trkpt>
      <trkpt lat="45.68181" lon="-0.12731">
        <ele>18.88</ele>
        <time>2013-07-19T19:29:50Z</time>
      </trkpt>
      <trkpt lat="45.68249" lon="-0.129">
        <ele>19.36</ele>
        <time>2013-07-19T19:30:06Z</time>
      </trkpt>
      <trkpt lat="45.68278" lon="-0.13019">
        <ele>20.32</ele>
        <time>2013-07-19T19:30:17Z</time>
      </trkpt>
      <trkpt lat="45.68287" lon="-0.13207">
        <ele>20.32</ele>
        <time>2013-07-19T19:30:34Z</time>
      </trkpt>
      <trkpt lat="45.683" lon="-0.13394">
        <ele>19.84</ele>
        <time>2013-07-19T19:30:50Z</time>
      </trkpt>
      <trkpt lat="45.68319" lon="-0.13623">
        <ele>17.44</ele>
        <time>2013-07-19T19:31:08Z</time>
      </trkpt>
      <trkpt lat="45.68328" lon="-0.13786">
        <ele>20.32</ele>
        <time>2013-07-19T19:31:23Z</time>
      </trkpt>
      <trkpt lat="45.68327" lon="-0.13949">
        <ele>22.25</ele>
        <time>2013-07-19T19:31:38Z</time>
      </trkpt>
      <trkpt lat="45.68359" lon="-0.14056">
        <ele>24.17</ele>
        <time>2013-07-19T19:31:51Z</time>
      </trkpt>
      <trkpt lat="45.68406" lon="-0.14178">
        <ele>21.29</ele>
        <time>2013-07-19T19:32:05Z</time>
      </trkpt>
      <trkpt lat="45.68436" lon="-0.14275">
        <ele>17.92</ele>
        <time>2013-07-19T19:32:13Z</time>
      </trkpt>
      <trkpt lat="45.68453" lon="-0.14453">
        <ele>16.96</ele>
        <time>2013-07-19T19:32:27Z</time>
      </trkpt>
      <trkpt lat="45.68473" lon="-0.1465">
        <ele>16.96</ele>
        <time>2013-07-19T19:32:43Z</time>
      </trkpt>
      <trkpt lat="45.68482" lon="-0.14692">
        <ele>16.48</ele>
        <time>2013-07-19T19:32:47Z</time>
      </trkpt>
      <trkpt lat="45.68489" lon="-0.14711">
        <ele>16.96</ele>
        <time>2013-07-19T19:32:49Z</time>
      </trkpt>
      <trkpt lat="45.68547" lon="-0.14834">
        <ele>17.44</ele>
        <time>2013-07-19T19:33:03Z</time>
      </trkpt>
      <trkpt lat="45.68614" lon="-0.14973">
        <ele>17.44</ele>
        <time>2013-07-19T19:33:19Z</time>
      </trkpt>
      <trkpt lat="45.68672" lon="-0.15096">
        <ele>17.44</ele>
        <time>2013-07-19T19:33:33Z</time>
      </trkpt>
      <trkpt lat="45.68697" lon="-0.15164">
        <ele>16</ele>
        <time>2013-07-19T19:33:43Z</time>
      </trkpt>
      <trkpt lat="45.68695" lon="-0.15169">
        <ele>16.48</ele>
        <time>2013-07-19T19:33:44Z</time>
      </trkpt>
      <trkpt lat="45.68691" lon="-0.15174">
        <ele>16.48</ele>
        <time>2013-07-19T19:33:45Z</time>
      </trkpt>
      <trkpt lat="45.68687" lon="-0.15178">
        <ele>16</ele>
        <time>2013-07-19T19:33:46Z</time>
      </trkpt>
      <trkpt lat="45.68682" lon="-0.15181">
        <ele>16</ele>
        <time>2013-07-19T19:33:47Z</time>
      </trkpt>
      <trkpt lat="45.686" lon="-0.1523">
        <ele>17.44</ele>
        <time>2013-07-19T19:34:01Z</time>
      </trkpt>
      <trkpt lat="45.6847" lon="-0.15308">
        <ele>17.44</ele>
        <time>2013-07-19T19:34:20Z</time>
      </trkpt>
      <trkpt lat="45.68445" lon="-0.15328">
        <ele>17.44</ele>
        <time>2013-07-19T19:34:24Z</time>
      </trkpt>
      <trkpt lat="45.68442" lon="-0.15335">
        <ele>17.44</ele>
        <time>2013-07-19T19:34:25Z</time>
      </trkpt>
      <trkpt lat="45.6844" lon="-0.15344">
        <ele>17.44</ele>
        <time>2013-07-19T19:34:26Z</time>
      </trkpt>
      <trkpt lat="45.68441" lon="-0.15353">
        <ele>17.44</ele>
        <time>2013-07-19T19:34:27Z</time>
      </trkpt>
      <trkpt lat="45.68443" lon="-0.15362">
        <ele>17.44</ele>
        <time>2013-07-19T19:34:28Z</time>
      </trkpt>
      <trkpt lat="45.68445" lon="-0.1537">
        <ele>17.92</ele>
        <time>2013-07-19T19:34:29Z</time>
      </trkpt>
      <trkpt lat="45.68487" lon="-0.15527">
        <ele>17.92</ele>
        <time>2013-07-19T19:34:45Z</time>
      </trkpt>
      <trkpt lat="45.685" lon="-0.15688">
        <ele>18.4</ele>
        <time>2013-07-19T19:35:00Z</time>
      </trkpt>
      <trkpt lat="45.68513" lon="-0.15836">
        <ele>18.88</ele>
        <time>2013-07-19T19:35:14Z</time>
      </trkpt>
      <trkpt lat="45.68527" lon="-0.16001">
        <ele>20.32</ele>
        <time>2013-07-19T19:35:30Z</time>
      </trkpt>
      <trkpt lat="45.68539" lon="-0.16151">
        <ele>21.77</ele>
        <time>2013-07-19T19:35:45Z</time>
      </trkpt>
      <trkpt lat="45.68552" lon="-0.16309">
        <ele>23.21</ele>
        <time>2013-07-19T19:36:01Z</time>
      </trkpt>
      <trkpt lat="45.68567" lon="-0.16486">
        <ele>24.17</ele>
        <time>2013-07-19T19:36:19Z</time>
      </trkpt>
      <trkpt lat="45.68584" lon="-0.16679">
        <ele>24.17</ele>
        <time>2013-07-19T19:36:38Z</time>
      </trkpt>
      <trkpt lat="45.68587" lon="-0.16722">
        <ele>23.69</ele>
        <time>2013-07-19T19:36:42Z</time>
      </trkpt>
      <trkpt lat="45.68599" lon="-0.16877">
        <ele>22.25</ele>
        <time>2013-07-19T19:36:57Z</time>
      </trkpt>
      <trkpt lat="45.686" lon="-0.16887">
        <ele>22.25</ele>
        <time>2013-07-19T19:36:58Z</time>
      </trkpt>
      <trkpt lat="45.686" lon="-0.16898">
        <ele>22.25</ele>
        <time>2013-07-19T19:36:59Z</time>
      </trkpt>
      <trkpt lat="45.68599" lon="-0.16929">
        <ele>21.77</ele>
        <time>2013-07-19T19:37:02Z</time>
      </trkpt>
      <trkpt lat="45.68598" lon="-0.16939">
        <ele>22.73</ele>
        <time>2013-07-19T19:37:03Z</time>
      </trkpt>
      <trkpt lat="45.68596" lon="-0.1695">
        <ele>22.25</ele>
        <time>2013-07-19T19:37:04Z</time>
      </trkpt>
      <trkpt lat="45.68561" lon="-0.17098">
        <ele>21.77</ele>
        <time>2013-07-19T19:37:18Z</time>
      </trkpt>
      <trkpt lat="45.6854" lon="-0.17258">
        <ele>20.81</ele>
        <time>2013-07-19T19:37:32Z</time>
      </trkpt>
      <trkpt lat="45.68526" lon="-0.17327">
        <ele>20.32</ele>
        <time>2013-07-19T19:37:39Z</time>
      </trkpt>
      <trkpt lat="45.68524" lon="-0.17336">
        <ele>20.32</ele>
        <time>2013-07-19T19:37:40Z</time>
      </trkpt>
      <trkpt lat="45.68522" lon="-0.17345">
        <ele>19.84</ele>
        <time>2013-07-19T19:37:41Z</time>
      </trkpt>
      <trkpt lat="45.68521" lon="-0.17355">
        <ele>19.84</ele>
        <time>2013-07-19T19:37:42Z</time>
      </trkpt>
      <trkpt lat="45.6852" lon="-0.17364">
        <ele>19.84</ele>
        <time>2013-07-19T19:37:43Z</time>
      </trkpt>
      <trkpt lat="45.68518" lon="-0.17374">
        <ele>19.84</ele>
        <time>2013-07-19T19:37:44Z</time>
      </trkpt>
      <trkpt lat="45.68516" lon="-0.17383">
        <ele>19.84</ele>
        <time>2013-07-19T19:37:45Z</time>
      </trkpt>
      <trkpt lat="45.68514" lon="-0.17392">
        <ele>19.84</ele>
        <time>2013-07-19T19:37:46Z</time>
      </trkpt>
      <trkpt lat="45.68495" lon="-0.17495">
        <ele>19.36</ele>
        <time>2013-07-19T19:37:56Z</time>
      </trkpt>
      <trkpt lat="45.68492" lon="-0.17505">
        <ele>19.36</ele>
        <time>2013-07-19T19:37:57Z</time>
      </trkpt>
      <trkpt lat="45.68489" lon="-0.17514">
        <ele>18.88</ele>
        <time>2013-07-19T19:37:58Z</time>
      </trkpt>
      <trkpt lat="45.68485" lon="-0.17522">
        <ele>19.36</ele>
        <time>2013-07-19T19:37:59Z</time>
      </trkpt>
      <trkpt lat="45.68482" lon="-0.1753">
        <ele>19.36</ele>
        <time>2013-07-19T19:38:00Z</time>
      </trkpt>
      <trkpt lat="45.68478" lon="-0.17537">
        <ele>18.88</ele>
        <time>2013-07-19T19:38:01Z</time>
      </trkpt>
      <trkpt lat="45.68474" lon="-0.17545">
        <ele>18.4</ele>
        <time>2013-07-19T19:38:02Z</time>
      </trkpt>
      <trkpt lat="45.6844" lon="-0.17615">
        <ele>18.4</ele>
        <time>2013-07-19T19:38:11Z</time>
      </trkpt>
      <trkpt lat="45.68395" lon="-0.17688">
        <ele>18.4</ele>
        <time>2013-07-19T19:38:21Z</time>
      </trkpt>
      <trkpt lat="45.68344" lon="-0.1772">
        <ele>17.44</ele>
        <time>2013-07-19T19:38:29Z</time>
      </trkpt>
      <trkpt lat="45.68325" lon="-0.1774">
        <ele>16.48</ele>
        <time>2013-07-19T19:38:33Z</time>
      </trkpt>
      <trkpt lat="45.68322" lon="-0.17744">
        <ele>16.48</ele>
        <time>2013-07-19T19:38:34Z</time>
      </trkpt>
      <trkpt lat="45.68319" lon="-0.17748">
        <ele>16.48</ele>
        <time>2013-07-19T19:38:35Z</time>
      </trkpt>
      <trkpt lat="45.68315" lon="-0.1775">
        <ele>16.48</ele>
        <time>2013-07-19T19:38:36Z</time>
      </trkpt>
      <trkpt lat="45.6831" lon="-0.17751">
        <ele>16.48</ele>
        <time>2013-07-19T19:38:37Z</time>
      </trkpt>
      <trkpt lat="45.68306" lon="-0.17752">
        <ele>16.48</ele>
        <time>2013-07-19T19:38:38Z</time>
      </trkpt>
      <trkpt lat="45.68301" lon="-0.17751">
        <ele>16.48</ele>
        <time>2013-07-19T19:38:39Z</time>
      </trkpt>
      <trkpt lat="45.68296" lon="-0.17751">
        <ele>16.48</ele>
        <time>2013-07-19T19:38:40Z</time>
      </trkpt>
      <trkpt lat="45.68278" lon="-0.17751">
        <ele>16.48</ele>
        <time>2013-07-19T19:38:44Z</time>
      </trkpt>
      <trkpt lat="45.68267" lon="-0.17755">
        <ele>16.48</ele>
        <time>2013-07-19T19:38:47Z</time>
      </trkpt>
      <trkpt lat="45.68266" lon="-0.1776">
        <ele>16</ele>
        <time>2013-07-19T19:38:48Z</time>
      </trkpt>
      <trkpt lat="45.68264" lon="-0.17851">
        <ele>16</ele>
        <time>2013-07-19T19:39:00Z</time>
      </trkpt>
      <trkpt lat="45.68267" lon="-0.17944">
        <ele>15.52</ele>
        <time>2013-07-19T19:39:12Z</time>
      </trkpt>
      <trkpt lat="45.68267" lon="-0.1796">
        <ele>15.52</ele>
        <time>2013-07-19T19:39:14Z</time>
      </trkpt>
      <trkpt lat="45.68265" lon="-0.17988">
        <ele>15.52</ele>
        <time>2013-07-19T19:39:18Z</time>
      </trkpt>
      <trkpt lat="45.68257" lon="-0.18038">
        <ele>15.04</ele>
        <time>2013-07-19T19:39:25Z</time>
      </trkpt>
      <trkpt lat="45.68257" lon="-0.18045">
        <ele>15.04</ele>
        <time>2013-07-19T19:39:26Z</time>
      </trkpt>
      <trkpt lat="45.6826" lon="-0.18105">
        <ele>14.56</ele>
        <time>2013-07-19T19:39:35Z</time>
      </trkpt>
      <trkpt lat="45.68259" lon="-0.18113">
        <ele>14.56</ele>
        <time>2013-07-19T19:39:36Z</time>
      </trkpt>
      <trkpt lat="45.68259" lon="-0.1812">
        <ele>14.56</ele>
        <time>2013-07-19T19:39:37Z</time>
      </trkpt>
      <trkpt lat="45.68258" lon="-0.18127">
        <ele>14.56</ele>
        <time>2013-07-19T19:39:38Z</time>
      </trkpt>
      <trkpt lat="45.68258" lon="-0.18133">
        <ele>14.56</ele>
        <time>2013-07-19T19:39:39Z</time>
      </trkpt>
      <trkpt lat="45.68258" lon="-0.18139">
        <ele>14.08</ele>
        <time>2013-07-19T19:39:40Z</time>
      </trkpt>
      <trkpt lat="45.68259" lon="-0.18145">
        <ele>14.08</ele>
        <time>2013-07-19T19:39:41Z</time>
      </trkpt>
      <trkpt lat="45.6826" lon="-0.18159">
        <ele>14.08</ele>
        <time>2013-07-19T19:39:43Z</time>
      </trkpt>
      <trkpt lat="45.68261" lon="-0.18167">
        <ele>14.56</ele>
        <time>2013-07-19T19:39:44Z</time>
      </trkpt>
      <trkpt lat="45.68261" lon="-0.18175">
        <ele>14.56</ele>
        <time>2013-07-19T19:39:45Z</time>
      </trkpt>
      <trkpt lat="45.68262" lon="-0.18183">
        <ele>15.04</ele>
        <time>2013-07-19T19:39:46Z</time>
      </trkpt>
      <trkpt lat="45.68263" lon="-0.18191">
        <ele>15.04</ele>
        <time>2013-07-19T19:39:47Z</time>
      </trkpt>
      <trkpt lat="45.68286" lon="-0.18338">
        <ele>16</ele>
        <time>2013-07-19T19:40:03Z</time>
      </trkpt>
      <trkpt lat="45.68311" lon="-0.18454">
        <ele>16</ele>
        <time>2013-07-19T19:40:15Z</time>
      </trkpt>
      <trkpt lat="45.68318" lon="-0.18483">
        <ele>16</ele>
        <time>2013-07-19T19:40:18Z</time>
      </trkpt>
      <trkpt lat="45.68325" lon="-0.18512">
        <ele>16</ele>
        <time>2013-07-19T19:40:21Z</time>
      </trkpt>
      <trkpt lat="45.68327" lon="-0.18521">
        <ele>16</ele>
        <time>2013-07-19T19:40:22Z</time>
      </trkpt>
      <trkpt lat="45.68357" lon="-0.18666">
        <ele>16</ele>
        <time>2013-07-19T19:40:37Z</time>
      </trkpt>
      <trkpt lat="45.68361" lon="-0.18685">
        <ele>16</ele>
        <time>2013-07-19T19:40:39Z</time>
      </trkpt>
      <trkpt lat="45.68376" lon="-0.18833">
        <ele>15.52</ele>
        <time>2013-07-19T19:40:54Z</time>
      </trkpt>
      <trkpt lat="45.68389" lon="-0.18961">
        <ele>15.52</ele>
        <time>2013-07-19T19:41:07Z</time>
      </trkpt>
      <trkpt lat="45.68406" lon="-0.19115">
        <ele>14.56</ele>
        <time>2013-07-19T19:41:21Z</time>
      </trkpt>
      <trkpt lat="45.68404" lon="-0.19299">
        <ele>13.6</ele>
        <time>2013-07-19T19:41:37Z</time>
      </trkpt>
      <trkpt lat="45.68405" lon="-0.19333">
        <ele>13.6</ele>
        <time>2013-07-19T19:41:40Z</time>
      </trkpt>
      <trkpt lat="45.68436" lon="-0.19486">
        <ele>15.52</ele>
        <time>2013-07-19T19:41:55Z</time>
      </trkpt>
      <trkpt lat="45.68454" lon="-0.19617">
        <ele>17.44</ele>
        <time>2013-07-19T19:42:09Z</time>
      </trkpt>
      <trkpt lat="45.68455" lon="-0.19625">
        <ele>17.92</ele>
        <time>2013-07-19T19:42:10Z</time>
      </trkpt>
      <trkpt lat="45.68462" lon="-0.19693">
        <ele>20.81</ele>
        <time>2013-07-19T19:42:19Z</time>
      </trkpt>
      <trkpt lat="45.6847" lon="-0.19767">
        <ele>23.69</ele>
        <time>2013-07-19T19:42:31Z</time>
      </trkpt>
      <trkpt lat="45.68476" lon="-0.19814">
        <ele>26.09</ele>
        <time>2013-07-19T19:42:39Z</time>
      </trkpt>
      <trkpt lat="45.68477" lon="-0.1982">
        <ele>26.57</ele>
        <time>2013-07-19T19:42:40Z</time>
      </trkpt>
      <trkpt lat="45.68483" lon="-0.19901">
        <ele>28.98</ele>
        <time>2013-07-19T19:42:54Z</time>
      </trkpt>
      <trkpt lat="45.68491" lon="-0.20006">
        <ele>29.94</ele>
        <time>2013-07-19T19:43:09Z</time>
      </trkpt>
      <trkpt lat="45.68513" lon="-0.20155">
        <ele>29.94</ele>
        <time>2013-07-19T19:43:26Z</time>
      </trkpt>
      <trkpt lat="45.6855" lon="-0.2033">
        <ele>28.98</ele>
        <time>2013-07-19T19:43:44Z</time>
      </trkpt>
      <trkpt lat="45.68571" lon="-0.20443">
        <ele>28.5</ele>
        <time>2013-07-19T19:43:55Z</time>
      </trkpt>
      <trkpt lat="45.68571" lon="-0.20453">
        <ele>28.5</ele>
        <time>2013-07-19T19:43:56Z</time>
      </trkpt>
      <trkpt lat="45.6857" lon="-0.20464">
        <ele>28.02</ele>
        <time>2013-07-19T19:43:57Z</time>
      </trkpt>
      <trkpt lat="45.68568" lon="-0.20475">
        <ele>28.02</ele>
        <time>2013-07-19T19:43:58Z</time>
      </trkpt>
      <trkpt lat="45.68566" lon="-0.20486">
        <ele>27.53</ele>
        <time>2013-07-19T19:43:59Z</time>
      </trkpt>
      <trkpt lat="45.68551" lon="-0.20631">
        <ele>24.65</ele>
        <time>2013-07-19T19:44:11Z</time>
      </trkpt>
      <trkpt lat="45.68552" lon="-0.20833">
        <ele>21.29</ele>
        <time>2013-07-19T19:44:26Z</time>
      </trkpt>
      <trkpt lat="45.68562" lon="-0.2094">
        <ele>19.84</ele>
        <time>2013-07-19T19:44:34Z</time>
      </trkpt>
      <trkpt lat="45.68539" lon="-0.21082">
        <ele>17.92</ele>
        <time>2013-07-19T19:44:45Z</time>
      </trkpt>
      <trkpt lat="45.68489" lon="-0.2134">
        <ele>15.04</ele>
        <time>2013-07-19T19:45:05Z</time>
      </trkpt>
      <trkpt lat="45.68464" lon="-0.21531">
        <ele>14.08</ele>
        <time>2013-07-19T19:45:20Z</time>
      </trkpt>
      <trkpt lat="45.68472" lon="-0.21734">
        <ele>14.08</ele>
        <time>2013-07-19T19:45:37Z</time>
      </trkpt>
      <trkpt lat="45.68491" lon="-0.21951">
        <ele>13.6</ele>
        <time>2013-07-19T19:45:56Z</time>
      </trkpt>
      <trkpt lat="45.68492" lon="-0.22008">
        <ele>15.04</ele>
        <time>2013-07-19T19:46:02Z</time>
      </trkpt>
      <trkpt lat="45.68475" lon="-0.22085">
        <ele>17.92</ele>
        <time>2013-07-19T19:46:12Z</time>
      </trkpt>
      <trkpt lat="45.68464" lon="-0.22176">
        <ele>20.81</ele>
        <time>2013-07-19T19:46:26Z</time>
      </trkpt>
      <trkpt lat="45.68456" lon="-0.22258">
        <ele>24.17</ele>
        <time>2013-07-19T19:46:39Z</time>
      </trkpt>
      <trkpt lat="45.68452" lon="-0.22295">
        <ele>25.13</ele>
        <time>2013-07-19T19:46:45Z</time>
      </trkpt>
      <trkpt lat="45.68451" lon="-0.22307">
        <ele>26.09</ele>
        <time>2013-07-19T19:46:47Z</time>
      </trkpt>
      <trkpt lat="45.68441" lon="-0.22404">
        <ele>28.98</ele>
        <time>2013-07-19T19:47:03Z</time>
      </trkpt>
      <trkpt lat="45.68431" lon="-0.22475">
        <ele>29.46</ele>
        <time>2013-07-19T19:47:15Z</time>
      </trkpt>
      <trkpt lat="45.68429" lon="-0.22498">
        <ele>28.98</ele>
        <time>2013-07-19T19:47:18Z</time>
      </trkpt>
      <trkpt lat="45.68428" lon="-0.22552">
        <ele>28.02</ele>
        <time>2013-07-19T19:47:25Z</time>
      </trkpt>
      <trkpt lat="45.68429" lon="-0.22663">
        <ele>27.05</ele>
        <time>2013-07-19T19:47:37Z</time>
      </trkpt>
      <trkpt lat="45.68448" lon="-0.22805">
        <ele>27.05</ele>
        <time>2013-07-19T19:47:51Z</time>
      </trkpt>
      <trkpt lat="45.68473" lon="-0.22983">
        <ele>25.61</ele>
        <time>2013-07-19T19:48:06Z</time>
      </trkpt>
      <trkpt lat="45.68476" lon="-0.23135">
        <ele>27.05</ele>
        <time>2013-07-19T19:48:20Z</time>
      </trkpt>
      <trkpt lat="45.6848" lon="-0.23279">
        <ele>29.46</ele>
        <time>2013-07-19T19:48:35Z</time>
      </trkpt>
      <trkpt lat="45.68487" lon="-0.23332">
        <ele>29.94</ele>
        <time>2013-07-19T19:48:41Z</time>
      </trkpt>
      <trkpt lat="45.6849" lon="-0.2334">
        <ele>29.94</ele>
        <time>2013-07-19T19:48:42Z</time>
      </trkpt>
      <trkpt lat="45.68509" lon="-0.23458">
        <ele>32.34</ele>
        <time>2013-07-19T19:48:56Z</time>
      </trkpt>
      <trkpt lat="45.68519" lon="-0.23603">
        <ele>34.26</ele>
        <time>2013-07-19T19:49:13Z</time>
      </trkpt>
      <trkpt lat="45.68499" lon="-0.23712">
        <ele>33.78</ele>
        <time>2013-07-19T19:49:24Z</time>
      </trkpt>
      <trkpt lat="45.68476" lon="-0.23797">
        <ele>35.23</ele>
        <time>2013-07-19T19:49:34Z</time>
      </trkpt>
      <trkpt lat="45.68464" lon="-0.23848">
        <ele>37.15</ele>
        <time>2013-07-19T19:49:41Z</time>
      </trkpt>
      <trkpt lat="45.68462" lon="-0.23855">
        <ele>37.15</ele>
        <time>2013-07-19T19:49:42Z</time>
      </trkpt>
      <trkpt lat="45.68455" lon="-0.23907">
        <ele>40.03</ele>
        <time>2013-07-19T19:49:50Z</time>
      </trkpt>
      <trkpt lat="45.6845" lon="-0.23978">
        <ele>42.44</ele>
        <time>2013-07-19T19:50:02Z</time>
      </trkpt>
      <trkpt lat="45.68452" lon="-0.24052">
        <ele>43.4</ele>
        <time>2013-07-19T19:50:13Z</time>
      </trkpt>
      <trkpt lat="45.68459" lon="-0.24084">
        <ele>44.36</ele>
        <time>2013-07-19T19:50:18Z</time>
      </trkpt>
      <trkpt lat="45.68461" lon="-0.24096">
        <ele>44.84</ele>
        <time>2013-07-19T19:50:20Z</time>
      </trkpt>
      <trkpt lat="45.68482" lon="-0.24174">
        <ele>44.84</ele>
        <time>2013-07-19T19:50:33Z</time>
      </trkpt>
      <trkpt lat="45.6851" lon="-0.24284">
        <ele>44.36</ele>
        <time>2013-07-19T19:50:47Z</time>
      </trkpt>
      <trkpt lat="45.6853" lon="-0.24336">
        <ele>43.88</ele>
        <time>2013-07-19T19:50:53Z</time>
      </trkpt>
      <trkpt lat="45.68534" lon="-0.24343">
        <ele>43.88</ele>
        <time>2013-07-19T19:50:54Z</time>
      </trkpt>
      <trkpt lat="45.68548" lon="-0.24364">
        <ele>43.4</ele>
        <time>2013-07-19T19:50:57Z</time>
      </trkpt>
      <trkpt lat="45.68628" lon="-0.24438">
        <ele>42.92</ele>
        <time>2013-07-19T19:51:10Z</time>
      </trkpt>
      <trkpt lat="45.68727" lon="-0.24545">
        <ele>42.92</ele>
        <time>2013-07-19T19:51:26Z</time>
      </trkpt>
      <trkpt lat="45.68806" lon="-0.24654">
        <ele>42.44</ele>
        <time>2013-07-19T19:51:40Z</time>
      </trkpt>
      <trkpt lat="45.68881" lon="-0.24757">
        <ele>43.88</ele>
        <time>2013-07-19T19:51:54Z</time>
      </trkpt>
      <trkpt lat="45.68946" lon="-0.24859">
        <ele>44.84</ele>
        <time>2013-07-19T19:52:08Z</time>
      </trkpt>
      <trkpt lat="45.69005" lon="-0.24964">
        <ele>45.8</ele>
        <time>2013-07-19T19:52:22Z</time>
      </trkpt>
      <trkpt lat="45.69033" lon="-0.25072">
        <ele>44.84</ele>
        <time>2013-07-19T19:52:33Z</time>
      </trkpt>
      <trkpt lat="45.69048" lon="-0.25215">
        <ele>41.47</ele>
        <time>2013-07-19T19:52:46Z</time>
      </trkpt>
      <trkpt lat="45.69048" lon="-0.25262">
        <ele>40.51</ele>
        <time>2013-07-19T19:52:50Z</time>
      </trkpt>
      <trkpt lat="45.69046" lon="-0.25274">
        <ele>40.03</ele>
        <time>2013-07-19T19:52:51Z</time>
      </trkpt>
      <trkpt lat="45.69043" lon="-0.25285">
        <ele>39.55</ele>
        <time>2013-07-19T19:52:52Z</time>
      </trkpt>
      <trkpt lat="45.69005" lon="-0.25407">
        <ele>39.07</ele>
        <time>2013-07-19T19:53:03Z</time>
      </trkpt>
      <trkpt lat="45.69002" lon="-0.25511">
        <ele>40.99</ele>
        <time>2013-07-19T19:53:13Z</time>
      </trkpt>
      <trkpt lat="45.69008" lon="-0.25548">
        <ele>41.95</ele>
        <time>2013-07-19T19:53:17Z</time>
      </trkpt>
      <trkpt lat="45.69022" lon="-0.25612">
        <ele>43.4</ele>
        <time>2013-07-19T19:53:25Z</time>
      </trkpt>
      <trkpt lat="45.69022" lon="-0.25619">
        <ele>43.4</ele>
        <time>2013-07-19T19:53:26Z</time>
      </trkpt>
      <trkpt lat="45.69023" lon="-0.25628">
        <ele>43.4</ele>
        <time>2013-07-19T19:53:27Z</time>
      </trkpt>
      <trkpt lat="45.69023" lon="-0.25636">
        <ele>43.4</ele>
        <time>2013-07-19T19:53:28Z</time>
      </trkpt>
      <trkpt lat="45.69023" lon="-0.25645">
        <ele>43.4</ele>
        <time>2013-07-19T19:53:29Z</time>
      </trkpt>
      <trkpt lat="45.69006" lon="-0.25791">
        <ele>44.36</ele>
        <time>2013-07-19T19:53:45Z</time>
      </trkpt>
      <trkpt lat="45.69002" lon="-0.25807">
        <ele>44.84</ele>
        <time>2013-07-19T19:53:47Z</time>
      </trkpt>
      <trkpt lat="45.68996" lon="-0.25821">
        <ele>44.36</ele>
        <time>2013-07-19T19:53:49Z</time>
      </trkpt>
      <trkpt lat="45.68974" lon="-0.25855">
        <ele>46.76</ele>
        <time>2013-07-19T19:53:55Z</time>
      </trkpt>
      <trkpt lat="45.68954" lon="-0.25877">
        <ele>48.68</ele>
        <time>2013-07-19T19:54:00Z</time>
      </trkpt>
      <trkpt lat="45.6895" lon="-0.25881">
        <ele>48.68</ele>
        <time>2013-07-19T19:54:01Z</time>
      </trkpt>
      <trkpt lat="45.68912" lon="-0.25919">
        <ele>50.61</ele>
        <time>2013-07-19T19:54:11Z</time>
      </trkpt>
      <trkpt lat="45.68909" lon="-0.25923">
        <ele>50.61</ele>
        <time>2013-07-19T19:54:12Z</time>
      </trkpt>
      <trkpt lat="45.68907" lon="-0.25928">
        <ele>50.61</ele>
        <time>2013-07-19T19:54:13Z</time>
      </trkpt>
      <trkpt lat="45.68903" lon="-0.25938">
        <ele>51.09</ele>
        <time>2013-07-19T19:54:15Z</time>
      </trkpt>
      <trkpt lat="45.68902" lon="-0.25944">
        <ele>51.09</ele>
        <time>2013-07-19T19:54:16Z</time>
      </trkpt>
      <trkpt lat="45.68902" lon="-0.25951">
        <ele>51.09</ele>
        <time>2013-07-19T19:54:17Z</time>
      </trkpt>
      <trkpt lat="45.68902" lon="-0.25957">
        <ele>51.09</ele>
        <time>2013-07-19T19:54:18Z</time>
      </trkpt>
      <trkpt lat="45.68903" lon="-0.25964">
        <ele>51.57</ele>
        <time>2013-07-19T19:54:19Z</time>
      </trkpt>
      <trkpt lat="45.68904" lon="-0.25971">
        <ele>51.57</ele>
        <time>2013-07-19T19:54:20Z</time>
      </trkpt>
      <trkpt lat="45.68905" lon="-0.25977">
        <ele>52.05</ele>
        <time>2013-07-19T19:54:21Z</time>
      </trkpt>
      <trkpt lat="45.68924" lon="-0.26055">
        <ele>51.09</ele>
        <time>2013-07-19T19:54:35Z</time>
      </trkpt>
      <trkpt lat="45.68943" lon="-0.26148">
        <ele>51.09</ele>
        <time>2013-07-19T19:54:47Z</time>
      </trkpt>
      <trkpt lat="45.68958" lon="-0.26297">
        <ele>51.09</ele>
        <time>2013-07-19T19:55:02Z</time>
      </trkpt>
      <trkpt lat="45.6895" lon="-0.2647">
        <ele>50.61</ele>
        <time>2013-07-19T19:55:18Z</time>
      </trkpt>
      <trkpt lat="45.68944" lon="-0.26625">
        <ele>48.68</ele>
        <time>2013-07-19T19:55:33Z</time>
      </trkpt>
      <trkpt lat="45.6893" lon="-0.26788">
        <ele>45.32</ele>
        <time>2013-07-19T19:55:49Z</time>
      </trkpt>
      <trkpt lat="45.6892" lon="-0.26904">
        <ele>42.44</ele>
        <time>2013-07-19T19:55:59Z</time>
      </trkpt>
      <trkpt lat="45.68916" lon="-0.26955">
        <ele>40.99</ele>
        <time>2013-07-19T19:56:03Z</time>
      </trkpt>
      <trkpt lat="45.68888" lon="-0.27082">
        <ele>37.63</ele>
        <time>2013-07-19T19:56:13Z</time>
      </trkpt>
      <trkpt lat="45.68864" lon="-0.2713">
        <ele>35.71</ele>
        <time>2013-07-19T19:56:17Z</time>
      </trkpt>
      <trkpt lat="45.68824" lon="-0.27205">
        <ele>32.34</ele>
        <time>2013-07-19T19:56:23Z</time>
      </trkpt>
      <trkpt lat="45.68806" lon="-0.27256">
        <ele>29.94</ele>
        <time>2013-07-19T19:56:27Z</time>
      </trkpt>
      <trkpt lat="45.68805" lon="-0.27269">
        <ele>29.94</ele>
        <time>2013-07-19T19:56:28Z</time>
      </trkpt>
      <trkpt lat="45.68805" lon="-0.27282">
        <ele>29.46</ele>
        <time>2013-07-19T19:56:29Z</time>
      </trkpt>
      <trkpt lat="45.68797" lon="-0.27423">
        <ele>28.02</ele>
        <time>2013-07-19T19:56:41Z</time>
      </trkpt>
      <trkpt lat="45.68796" lon="-0.27446">
        <ele>28.02</ele>
        <time>2013-07-19T19:56:43Z</time>
      </trkpt>
      <trkpt lat="45.68799" lon="-0.2749">
        <ele>27.53</ele>
        <time>2013-07-19T19:56:47Z</time>
      </trkpt>
      <trkpt lat="45.68801" lon="-0.27501">
        <ele>27.05</ele>
        <time>2013-07-19T19:56:48Z</time>
      </trkpt>
      <trkpt lat="45.68842" lon="-0.27611">
        <ele>26.09</ele>
        <time>2013-07-19T19:57:00Z</time>
      </trkpt>
      <trkpt lat="45.68857" lon="-0.27649">
        <ele>25.61</ele>
        <time>2013-07-19T19:57:05Z</time>
      </trkpt>
      <trkpt lat="45.68858" lon="-0.27656">
        <ele>25.13</ele>
        <time>2013-07-19T19:57:06Z</time>
      </trkpt>
      <trkpt lat="45.68856" lon="-0.27662">
        <ele>25.13</ele>
        <time>2013-07-19T19:57:07Z</time>
      </trkpt>
      <trkpt lat="45.68852" lon="-0.27668">
        <ele>24.65</ele>
        <time>2013-07-19T19:57:08Z</time>
      </trkpt>
      <trkpt lat="45.68848" lon="-0.27672">
        <ele>24.17</ele>
        <time>2013-07-19T19:57:09Z</time>
      </trkpt>
      <trkpt lat="45.68842" lon="-0.27676">
        <ele>23.69</ele>
        <time>2013-07-19T19:57:10Z</time>
      </trkpt>
      <trkpt lat="45.68836" lon="-0.27681">
        <ele>23.21</ele>
        <time>2013-07-19T19:57:11Z</time>
      </trkpt>
      <trkpt lat="45.6883" lon="-0.27685">
        <ele>22.73</ele>
        <time>2013-07-19T19:57:12Z</time>
      </trkpt>
      <trkpt lat="45.68825" lon="-0.27689">
        <ele>22.25</ele>
        <time>2013-07-19T19:57:13Z</time>
      </trkpt>
      <trkpt lat="45.68822" lon="-0.27694">
        <ele>21.77</ele>
        <time>2013-07-19T19:57:14Z</time>
      </trkpt>
      <trkpt lat="45.6882" lon="-0.27699">
        <ele>21.77</ele>
        <time>2013-07-19T19:57:15Z</time>
      </trkpt>
      <trkpt lat="45.6882" lon="-0.27703">
        <ele>21.77</ele>
        <time>2013-07-19T19:57:16Z</time>
      </trkpt>
      <trkpt lat="45.68821" lon="-0.27707">
        <ele>21.29</ele>
        <time>2013-07-19T19:57:17Z</time>
      </trkpt>
      <trkpt lat="45.68823" lon="-0.27711">
        <ele>21.77</ele>
        <time>2013-07-19T19:57:18Z</time>
      </trkpt>
      <trkpt lat="45.68853" lon="-0.27766">
        <ele>22.73</ele>
        <time>2013-07-19T19:57:32Z</time>
      </trkpt>
      <trkpt lat="45.68881" lon="-0.27819">
        <ele>22.25</ele>
        <time>2013-07-19T19:57:41Z</time>
      </trkpt>
      <trkpt lat="45.68886" lon="-0.27835">
        <ele>21.77</ele>
        <time>2013-07-19T19:57:43Z</time>
      </trkpt>
      <trkpt lat="45.68903" lon="-0.2791">
        <ele>19.84</ele>
        <time>2013-07-19T19:57:51Z</time>
      </trkpt>
      <trkpt lat="45.68903" lon="-0.27921">
        <ele>19.36</ele>
        <time>2013-07-19T19:57:52Z</time>
      </trkpt>
      <trkpt lat="45.689" lon="-0.27931">
        <ele>19.36</ele>
        <time>2013-07-19T19:57:53Z</time>
      </trkpt>
      <trkpt lat="45.68894" lon="-0.2794">
        <ele>18.88</ele>
        <time>2013-07-19T19:57:54Z</time>
      </trkpt>
      <trkpt lat="45.68888" lon="-0.27948">
        <ele>18.4</ele>
        <time>2013-07-19T19:57:55Z</time>
      </trkpt>
      <trkpt lat="45.68868" lon="-0.27973">
        <ele>16.96</ele>
        <time>2013-07-19T19:57:58Z</time>
      </trkpt>
      <trkpt lat="45.68864" lon="-0.27982">
        <ele>16.48</ele>
        <time>2013-07-19T19:57:59Z</time>
      </trkpt>
      <trkpt lat="45.6886" lon="-0.27993">
        <ele>16</ele>
        <time>2013-07-19T19:58:00Z</time>
      </trkpt>
      <trkpt lat="45.68859" lon="-0.28004">
        <ele>16</ele>
        <time>2013-07-19T19:58:01Z</time>
      </trkpt>
      <trkpt lat="45.6886" lon="-0.28016">
        <ele>16</ele>
        <time>2013-07-19T19:58:02Z</time>
      </trkpt>
      <trkpt lat="45.68861" lon="-0.28028">
        <ele>15.52</ele>
        <time>2013-07-19T19:58:03Z</time>
      </trkpt>
      <trkpt lat="45.68863" lon="-0.28061">
        <ele>15.04</ele>
        <time>2013-07-19T19:58:06Z</time>
      </trkpt>
      <trkpt lat="45.68862" lon="-0.28071">
        <ele>15.04</ele>
        <time>2013-07-19T19:58:07Z</time>
      </trkpt>
      <trkpt lat="45.6886" lon="-0.28082">
        <ele>15.04</ele>
        <time>2013-07-19T19:58:08Z</time>
      </trkpt>
      <trkpt lat="45.68856" lon="-0.28091">
        <ele>15.04</ele>
        <time>2013-07-19T19:58:09Z</time>
      </trkpt>
      <trkpt lat="45.68852" lon="-0.281">
        <ele>14.56</ele>
        <time>2013-07-19T19:58:10Z</time>
      </trkpt>
      <trkpt lat="45.68847" lon="-0.28108">
        <ele>15.04</ele>
        <time>2013-07-19T19:58:11Z</time>
      </trkpt>
      <trkpt lat="45.68835" lon="-0.28134">
        <ele>15.04</ele>
        <time>2013-07-19T19:58:14Z</time>
      </trkpt>
      <trkpt lat="45.68834" lon="-0.28142">
        <ele>14.56</ele>
        <time>2013-07-19T19:58:15Z</time>
      </trkpt>
      <trkpt lat="45.68834" lon="-0.28149">
        <ele>14.56</ele>
        <time>2013-07-19T19:58:16Z</time>
      </trkpt>
      <trkpt lat="45.68835" lon="-0.28155">
        <ele>14.56</ele>
        <time>2013-07-19T19:58:17Z</time>
      </trkpt>
      <trkpt lat="45.68837" lon="-0.28161">
        <ele>15.04</ele>
        <time>2013-07-19T19:58:18Z</time>
      </trkpt>
      <trkpt lat="45.6884" lon="-0.28165">
        <ele>15.52</ele>
        <time>2013-07-19T19:58:19Z</time>
      </trkpt>
      <trkpt lat="45.68842" lon="-0.28168">
        <ele>15.52</ele>
        <time>2013-07-19T19:58:20Z</time>
      </trkpt>
      <trkpt lat="45.68845" lon="-0.28171">
        <ele>15.52</ele>
        <time>2013-07-19T19:58:21Z</time>
      </trkpt>
      <trkpt lat="45.68848" lon="-0.28174">
        <ele>15.52</ele>
        <time>2013-07-19T19:58:22Z</time>
      </trkpt>
      <trkpt lat="45.68858" lon="-0.28184">
        <ele>16.48</ele>
        <time>2013-07-19T19:58:25Z</time>
      </trkpt>
      <trkpt lat="45.68862" lon="-0.28187">
        <ele>16.48</ele>
        <time>2013-07-19T19:58:26Z</time>
      </trkpt>
      <trkpt lat="45.6887" lon="-0.28195">
        <ele>16.48</ele>
        <time>2013-07-19T19:58:28Z</time>
      </trkpt>
      <trkpt lat="45.68905" lon="-0.28252">
        <ele>17.44</ele>
        <time>2013-07-19T19:58:39Z</time>
      </trkpt>
      <trkpt lat="45.68947" lon="-0.28347">
        <ele>16</ele>
        <time>2013-07-19T19:58:53Z</time>
      </trkpt>
      <trkpt lat="45.68951" lon="-0.28354">
        <ele>15.52</ele>
        <time>2013-07-19T19:58:54Z</time>
      </trkpt>
      <trkpt lat="45.68956" lon="-0.28359">
        <ele>15.52</ele>
        <time>2013-07-19T19:58:55Z</time>
      </trkpt>
      <trkpt lat="45.6896" lon="-0.28364">
        <ele>15.04</ele>
        <time>2013-07-19T19:58:56Z</time>
      </trkpt>
      <trkpt lat="45.68964" lon="-0.28369">
        <ele>14.56</ele>
        <time>2013-07-19T19:58:57Z</time>
      </trkpt>
      <trkpt lat="45.68966" lon="-0.28375">
        <ele>15.04</ele>
        <time>2013-07-19T19:58:58Z</time>
      </trkpt>
      <trkpt lat="45.68967" lon="-0.28381">
        <ele>15.04</ele>
        <time>2013-07-19T19:58:59Z</time>
      </trkpt>
      <trkpt lat="45.68965" lon="-0.28387">
        <ele>14.56</ele>
        <time>2013-07-19T19:59:00Z</time>
      </trkpt>
      <trkpt lat="45.68962" lon="-0.28391">
        <ele>14.56</ele>
        <time>2013-07-19T19:59:01Z</time>
      </trkpt>
      <trkpt lat="45.68957" lon="-0.28393">
        <ele>14.08</ele>
        <time>2013-07-19T19:59:02Z</time>
      </trkpt>
      <trkpt lat="45.68952" lon="-0.28395">
        <ele>14.08</ele>
        <time>2013-07-19T19:59:03Z</time>
      </trkpt>
      <trkpt lat="45.68947" lon="-0.28398">
        <ele>13.6</ele>
        <time>2013-07-19T19:59:04Z</time>
      </trkpt>
      <trkpt lat="45.68937" lon="-0.28405">
        <ele>13.12</ele>
        <time>2013-07-19T19:59:06Z</time>
      </trkpt>
      <trkpt lat="45.68908" lon="-0.28431">
        <ele>11.67</ele>
        <time>2013-07-19T19:59:11Z</time>
      </trkpt>
      <trkpt lat="45.6884" lon="-0.28494">
        <ele>13.12</ele>
        <time>2013-07-19T19:59:24Z</time>
      </trkpt>
      <trkpt lat="45.68818" lon="-0.28516">
        <ele>13.12</ele>
        <time>2013-07-19T19:59:29Z</time>
      </trkpt>
      <trkpt lat="45.68786" lon="-0.28546">
        <ele>12.63</ele>
        <time>2013-07-19T19:59:37Z</time>
      </trkpt>
      <trkpt lat="45.68781" lon="-0.2855">
        <ele>12.63</ele>
        <time>2013-07-19T19:59:38Z</time>
      </trkpt>
      <trkpt lat="45.68777" lon="-0.28554">
        <ele>12.15</ele>
        <time>2013-07-19T19:59:39Z</time>
      </trkpt>
      <trkpt lat="45.68754" lon="-0.28573">
        <ele>11.19</ele>
        <time>2013-07-19T19:59:44Z</time>
      </trkpt>
      <trkpt lat="45.6875" lon="-0.28575">
        <ele>10.71</ele>
        <time>2013-07-19T19:59:45Z</time>
      </trkpt>
      <trkpt lat="45.68745" lon="-0.28575">
        <ele>10.23</ele>
        <time>2013-07-19T19:59:46Z</time>
      </trkpt>
      <trkpt lat="45.68741" lon="-0.28575">
        <ele>10.23</ele>
        <time>2013-07-19T19:59:47Z</time>
      </trkpt>
      <trkpt lat="45.68737" lon="-0.28575">
        <ele>10.23</ele>
        <time>2013-07-19T19:59:48Z</time>
      </trkpt>
      <trkpt lat="45.68732" lon="-0.28576">
        <ele>9.75</ele>
        <time>2013-07-19T19:59:49Z</time>
      </trkpt>
      <trkpt lat="45.68729" lon="-0.28577">
        <ele>9.75</ele>
        <time>2013-07-19T19:59:50Z</time>
      </trkpt>
      <trkpt lat="45.68721" lon="-0.28576">
        <ele>9.75</ele>
        <time>2013-07-19T19:59:59Z</time>
      </trkpt>
      <trkpt lat="45.68722" lon="-0.28575">
        <ele>9.75</ele>
        <time>2013-07-19T20:00:41Z</time>
      </trkpt>
      <trkpt lat="45.68722" lon="-0.28573">
        <ele>8.79</ele>
        <time>2013-07-19T20:01:09Z</time>
      </trkpt>
      <trkpt lat="45.68722" lon="-0.28574">
        <ele>8.31</ele>
        <time>2013-07-20T05:49:12Z</time>
      </trkpt>
      <trkpt lat="45.68657" lon="-0.28605">
        <ele>8.31</ele>
        <time>2013-07-20T05:49:13Z</time>
      </trkpt>
      <trkpt lat="45.68655" lon="-0.28609">
        <ele>7.83</ele>
        <time>2013-07-20T05:49:30Z</time>
      </trkpt>
      <trkpt lat="45.68664" lon="-0.28605">
        <ele>5.91</ele>
        <time>2013-07-20T05:49:52Z</time>
      </trkpt>
      <trkpt lat="45.68661" lon="-0.28606">
        <ele>3.98</ele>
        <time>2013-07-20T05:50:17Z</time>
      </trkpt>
      <trkpt lat="45.68659" lon="-0.2861">
        <ele>3.98</ele>
        <time>2013-07-20T05:50:40Z</time>
      </trkpt>
      <trkpt lat="45.6866" lon="-0.28613">
        <ele>3.98</ele>
        <time>2013-07-20T05:51:14Z</time>
      </trkpt>
      <trkpt lat="45.68663" lon="-0.28612">
        <ele>3.98</ele>
        <time>2013-07-20T05:51:43Z</time>
      </trkpt>
      <trkpt lat="45.68665" lon="-0.2861">
        <ele>3.98</ele>
        <time>2013-07-20T05:52:24Z</time>
      </trkpt>
      <trkpt lat="45.68665" lon="-0.2861">
        <ele>4.46</ele>
        <time>2013-07-20T05:52:55Z</time>
      </trkpt>
      <trkpt lat="45.68661" lon="-0.2861">
        <ele>4.46</ele>
        <time>2013-07-20T05:53:27Z</time>
      </trkpt>
      <trkpt lat="45.68661" lon="-0.2861">
        <ele>4.46</ele>
        <time>2013-07-20T05:53:57Z</time>
      </trkpt>
      <trkpt lat="45.68662" lon="-0.28611">
        <ele>4.46</ele>
        <time>2013-07-20T05:54:28Z</time>
      </trkpt>
      <trkpt lat="45.68663" lon="-0.28609">
        <ele>4.94</ele>
        <time>2013-07-20T05:54:56Z</time>
      </trkpt>
      <trkpt lat="45.6866" lon="-0.28613">
        <ele>4.94</ele>
        <time>2013-07-20T05:55:26Z</time>
      </trkpt>
      <trkpt lat="45.68659" lon="-0.28614">
        <ele>4.94</ele>
        <time>2013-07-20T05:55:52Z</time>
      </trkpt>
      <trkpt lat="45.68662" lon="-0.2861">
        <ele>4.94</ele>
        <time>2013-07-20T05:56:24Z</time>
      </trkpt>
      <trkpt lat="45.68662" lon="-0.28607">
        <ele>6.87</ele>
        <time>2013-07-20T05:56:40Z</time>
      </trkpt>
      <trkpt lat="45.68661" lon="-0.28603">
        <ele>5.91</ele>
        <time>2013-07-20T05:57:07Z</time>
      </trkpt>
      <trkpt lat="45.6866" lon="-0.28609">
        <ele>5.91</ele>
        <time>2013-07-20T05:57:40Z</time>
      </trkpt>
      <trkpt lat="45.68657" lon="-0.28608">
        <ele>5.91</ele>
        <time>2013-07-20T05:58:11Z</time>
      </trkpt>
      <trkpt lat="45.68658" lon="-0.28609">
        <ele>5.91</ele>
        <time>2013-07-20T05:58:42Z</time>
      </trkpt>
      <trkpt lat="45.68658" lon="-0.28606">
        <ele>6.39</ele>
        <time>2013-07-20T05:59:14Z</time>
      </trkpt>
      <trkpt lat="45.68655" lon="-0.28605">
        <ele>6.39</ele>
        <time>2013-07-20T05:59:51Z</time>
      </trkpt>
      <trkpt lat="45.68655" lon="-0.28613">
        <ele>6.39</ele>
        <time>2013-07-20T06:00:30Z</time>
      </trkpt>
      <trkpt lat="45.68655" lon="-0.28607">
        <ele>6.87</ele>
        <time>2013-07-20T06:01:01Z</time>
      </trkpt>
      <trkpt lat="45.68661" lon="-0.28609">
        <ele>6.87</ele>
        <time>2013-07-20T06:01:10Z</time>
      </trkpt>
      <trkpt lat="45.68693" lon="-0.28586">
        <ele>7.35</ele>
        <time>2013-07-20T06:01:26Z</time>
      </trkpt>
      <trkpt lat="45.68721" lon="-0.28562">
        <ele>7.35</ele>
        <time>2013-07-20T06:01:37Z</time>
      </trkpt>
      <trkpt lat="45.68746" lon="-0.28572">
        <ele>8.31</ele>
        <time>2013-07-20T06:01:46Z</time>
      </trkpt>
      <trkpt lat="45.68747" lon="-0.28581">
        <ele>8.31</ele>
        <time>2013-07-20T06:01:49Z</time>
      </trkpt>
      <trkpt lat="45.68745" lon="-0.28584">
        <ele>8.31</ele>
        <time>2013-07-20T06:01:50Z</time>
      </trkpt>
      <trkpt lat="45.68742" lon="-0.28587">
        <ele>8.31</ele>
        <time>2013-07-20T06:01:51Z</time>
      </trkpt>
      <trkpt lat="45.68739" lon="-0.28591">
        <ele>8.31</ele>
        <time>2013-07-20T06:01:52Z</time>
      </trkpt>
      <trkpt lat="45.68685" lon="-0.28643">
        <ele>8.31</ele>
        <time>2013-07-20T06:02:04Z</time>
      </trkpt>
      <trkpt lat="45.68615" lon="-0.28709">
        <ele>8.31</ele>
        <time>2013-07-20T06:02:19Z</time>
      </trkpt>
      <trkpt lat="45.68592" lon="-0.28737">
        <ele>8.79</ele>
        <time>2013-07-20T06:02:24Z</time>
      </trkpt>
      <trkpt lat="45.68565" lon="-0.28782">
        <ele>10.23</ele>
        <time>2013-07-20T06:02:32Z</time>
      </trkpt>
      <trkpt lat="45.68562" lon="-0.28787">
        <ele>10.23</ele>
        <time>2013-07-20T06:02:33Z</time>
      </trkpt>
      <trkpt lat="45.68548" lon="-0.28821">
        <ele>11.67</ele>
        <time>2013-07-20T06:02:40Z</time>
      </trkpt>
      <trkpt lat="45.68547" lon="-0.28827">
        <ele>11.67</ele>
        <time>2013-07-20T06:02:41Z</time>
      </trkpt>
      <trkpt lat="45.68547" lon="-0.28834">
        <ele>12.15</ele>
        <time>2013-07-20T06:02:42Z</time>
      </trkpt>
      <trkpt lat="45.68548" lon="-0.28839">
        <ele>12.15</ele>
        <time>2013-07-20T06:02:43Z</time>
      </trkpt>
      <trkpt lat="45.68549" lon="-0.28845">
        <ele>12.15</ele>
        <time>2013-07-20T06:02:44Z</time>
      </trkpt>
      <trkpt lat="45.68574" lon="-0.289">
        <ele>14.56</ele>
        <time>2013-07-20T06:02:56Z</time>
      </trkpt>
      <trkpt lat="45.68586" lon="-0.28952">
        <ele>16.96</ele>
        <time>2013-07-20T06:03:07Z</time>
      </trkpt>
      <trkpt lat="45.6857" lon="-0.28997">
        <ele>18.88</ele>
        <time>2013-07-20T06:03:16Z</time>
      </trkpt>
      <trkpt lat="45.68563" lon="-0.29005">
        <ele>18.88</ele>
        <time>2013-07-20T06:03:18Z</time>
      </trkpt>
      <trkpt lat="45.68542" lon="-0.29027">
        <ele>20.32</ele>
        <time>2013-07-20T06:03:24Z</time>
      </trkpt>
      <trkpt lat="45.68538" lon="-0.2903">
        <ele>20.32</ele>
        <time>2013-07-20T06:03:25Z</time>
      </trkpt>
      <trkpt lat="45.6852" lon="-0.29045">
        <ele>21.29</ele>
        <time>2013-07-20T06:03:30Z</time>
      </trkpt>
      <trkpt lat="45.68516" lon="-0.29048">
        <ele>21.29</ele>
        <time>2013-07-20T06:03:31Z</time>
      </trkpt>
      <trkpt lat="45.68468" lon="-0.29092">
        <ele>24.65</ele>
        <time>2013-07-20T06:03:45Z</time>
      </trkpt>
      <trkpt lat="45.68428" lon="-0.29113">
        <ele>26.57</ele>
        <time>2013-07-20T06:03:55Z</time>
      </trkpt>
      <trkpt lat="45.68351" lon="-0.29128">
        <ele>28.5</ele>
        <time>2013-07-20T06:04:11Z</time>
      </trkpt>
      <trkpt lat="45.68323" lon="-0.29141">
        <ele>29.46</ele>
        <time>2013-07-20T06:04:17Z</time>
      </trkpt>
      <trkpt lat="45.6824" lon="-0.29192">
        <ele>30.42</ele>
        <time>2013-07-20T06:04:35Z</time>
      </trkpt>
      <trkpt lat="45.68194" lon="-0.29231">
        <ele>31.38</ele>
        <time>2013-07-20T06:04:45Z</time>
      </trkpt>
      <trkpt lat="45.68191" lon="-0.29236">
        <ele>31.38</ele>
        <time>2013-07-20T06:04:46Z</time>
      </trkpt>
      <trkpt lat="45.68189" lon="-0.29243">
        <ele>31.38</ele>
        <time>2013-07-20T06:04:47Z</time>
      </trkpt>
      <trkpt lat="45.68188" lon="-0.2925">
        <ele>31.38</ele>
        <time>2013-07-20T06:04:48Z</time>
      </trkpt>
      <trkpt lat="45.68188" lon="-0.29257">
        <ele>31.38</ele>
        <time>2013-07-20T06:04:49Z</time>
      </trkpt>
      <trkpt lat="45.68188" lon="-0.29263">
        <ele>31.38</ele>
        <time>2013-07-20T06:04:50Z</time>
      </trkpt>
      <trkpt lat="45.68189" lon="-0.29271">
        <ele>31.38</ele>
        <time>2013-07-20T06:04:51Z</time>
      </trkpt>
      <trkpt lat="45.68191" lon="-0.29278">
        <ele>31.38</ele>
        <time>2013-07-20T06:04:52Z</time>
      </trkpt>
      <trkpt lat="45.68193" lon="-0.29285">
        <ele>31.38</ele>
        <time>2013-07-20T06:04:53Z</time>
      </trkpt>
      <trkpt lat="45.68197" lon="-0.29291">
        <ele>31.38</ele>
        <time>2013-07-20T06:04:54Z</time>
      </trkpt>
      <trkpt lat="45.68201" lon="-0.29298">
        <ele>31.38</ele>
        <time>2013-07-20T06:04:55Z</time>
      </trkpt>
      <trkpt lat="45.6821" lon="-0.29319">
        <ele>31.38</ele>
        <time>2013-07-20T06:04:58Z</time>
      </trkpt>
      <trkpt lat="45.68212" lon="-0.29326">
        <ele>31.38</ele>
        <time>2013-07-20T06:04:59Z</time>
      </trkpt>
      <trkpt lat="45.68247" lon="-0.29459">
        <ele>32.34</ele>
        <time>2013-07-20T06:05:16Z</time>
      </trkpt>
      <trkpt lat="45.68286" lon="-0.29585">
        <ele>32.82</ele>
        <time>2013-07-20T06:05:32Z</time>
      </trkpt>
      <trkpt lat="45.68317" lon="-0.29691">
        <ele>33.78</ele>
        <time>2013-07-20T06:05:45Z</time>
      </trkpt>
      <trkpt lat="45.6832" lon="-0.29699">
        <ele>33.78</ele>
        <time>2013-07-20T06:05:46Z</time>
      </trkpt>
      <trkpt lat="45.68344" lon="-0.29764">
        <ele>34.26</ele>
        <time>2013-07-20T06:05:54Z</time>
      </trkpt>
      <trkpt lat="45.68348" lon="-0.29771">
        <ele>35.23</ele>
        <time>2013-07-20T06:05:55Z</time>
      </trkpt>
      <trkpt lat="45.68352" lon="-0.29778">
        <ele>34.74</ele>
        <time>2013-07-20T06:05:56Z</time>
      </trkpt>
      <trkpt lat="45.68354" lon="-0.29786">
        <ele>34.74</ele>
        <time>2013-07-20T06:05:57Z</time>
      </trkpt>
      <trkpt lat="45.68356" lon="-0.29795">
        <ele>34.74</ele>
        <time>2013-07-20T06:05:58Z</time>
      </trkpt>
      <trkpt lat="45.68357" lon="-0.29803">
        <ele>34.74</ele>
        <time>2013-07-20T06:05:59Z</time>
      </trkpt>
      <trkpt lat="45.68358" lon="-0.29812">
        <ele>34.74</ele>
        <time>2013-07-20T06:06:00Z</time>
      </trkpt>
      <trkpt lat="45.6836" lon="-0.29821">
        <ele>34.74</ele>
        <time>2013-07-20T06:06:01Z</time>
      </trkpt>
      <trkpt lat="45.68403" lon="-0.29966">
        <ele>36.67</ele>
        <time>2013-07-20T06:06:19Z</time>
      </trkpt>
      <trkpt lat="45.68437" lon="-0.30077">
        <ele>38.59</ele>
        <time>2013-07-20T06:06:33Z</time>
      </trkpt>
      <trkpt lat="45.68474" lon="-0.30201">
        <ele>39.55</ele>
        <time>2013-07-20T06:06:49Z</time>
      </trkpt>
      <trkpt lat="45.68512" lon="-0.3032">
        <ele>38.11</ele>
        <time>2013-07-20T06:07:03Z</time>
      </trkpt>
      <trkpt lat="45.68555" lon="-0.30472">
        <ele>36.19</ele>
        <time>2013-07-20T06:07:19Z</time>
      </trkpt>
      <trkpt lat="45.68558" lon="-0.30481">
        <ele>36.67</ele>
        <time>2013-07-20T06:07:20Z</time>
      </trkpt>
      <trkpt lat="45.68562" lon="-0.3049">
        <ele>36.19</ele>
        <time>2013-07-20T06:07:21Z</time>
      </trkpt>
      <trkpt lat="45.68565" lon="-0.30498">
        <ele>36.67</ele>
        <time>2013-07-20T06:07:22Z</time>
      </trkpt>
      <trkpt lat="45.68568" lon="-0.30506">
        <ele>36.19</ele>
        <time>2013-07-20T06:07:23Z</time>
      </trkpt>
      <trkpt lat="45.6857" lon="-0.30515">
        <ele>36.19</ele>
        <time>2013-07-20T06:07:24Z</time>
      </trkpt>
      <trkpt lat="45.68573" lon="-0.30524">
        <ele>36.19</ele>
        <time>2013-07-20T06:07:25Z</time>
      </trkpt>
      <trkpt lat="45.68615" lon="-0.30665">
        <ele>34.26</ele>
        <time>2013-07-20T06:07:39Z</time>
      </trkpt>
      <trkpt lat="45.68663" lon="-0.30821">
        <ele>32.34</ele>
        <time>2013-07-20T06:07:54Z</time>
      </trkpt>
      <trkpt lat="45.68733" lon="-0.31056">
        <ele>29.46</ele>
        <time>2013-07-20T06:08:15Z</time>
      </trkpt>
      <trkpt lat="45.68794" lon="-0.31256">
        <ele>27.53</ele>
        <time>2013-07-20T06:08:33Z</time>
      </trkpt>
      <trkpt lat="45.6885" lon="-0.31442">
        <ele>25.61</ele>
        <time>2013-07-20T06:08:50Z</time>
      </trkpt>
      <trkpt lat="45.68875" lon="-0.31521">
        <ele>23.21</ele>
        <time>2013-07-20T06:09:00Z</time>
      </trkpt>
      <trkpt lat="45.68876" lon="-0.3152">
        <ele>23.21</ele>
        <time>2013-07-20T06:09:01Z</time>
      </trkpt>
      <trkpt lat="45.68875" lon="-0.31516">
        <ele>23.21</ele>
        <time>2013-07-20T06:09:06Z</time>
      </trkpt>
      <trkpt lat="45.68873" lon="-0.31506">
        <ele>23.69</ele>
        <time>2013-07-20T06:09:21Z</time>
      </trkpt>
      <trkpt lat="45.68871" lon="-0.31503">
        <ele>23.69</ele>
        <time>2013-07-20T06:09:56Z</time>
      </trkpt>
      <trkpt lat="45.68873" lon="-0.31503">
        <ele>24.17</ele>
        <time>2013-07-20T06:10:31Z</time>
      </trkpt>
      <trkpt lat="45.68872" lon="-0.31504">
        <ele>24.17</ele>
        <time>2013-07-20T06:11:10Z</time>
      </trkpt>
      <trkpt lat="45.68872" lon="-0.31504">
        <ele>24.17</ele>
        <time>2013-07-20T06:11:43Z</time>
      </trkpt>
      <trkpt lat="45.68873" lon="-0.31505">
        <ele>24.65</ele>
        <time>2013-07-20T06:12:14Z</time>
      </trkpt>
      <trkpt lat="45.68874" lon="-0.31505">
        <ele>24.65</ele>
        <time>2013-07-20T06:12:46Z</time>
      </trkpt>
      <trkpt lat="45.68874" lon="-0.31505">
        <ele>24.65</ele>
        <time>2013-07-20T06:13:16Z</time>
      </trkpt>
      <trkpt lat="45.68872" lon="-0.31504">
        <ele>24.65</ele>
        <time>2013-07-20T06:13:43Z</time>
      </trkpt>
      <trkpt lat="45.68873" lon="-0.31501">
        <ele>24.65</ele>
        <time>2013-07-20T06:14:15Z</time>
      </trkpt>
      <trkpt lat="45.68873" lon="-0.31501">
        <ele>24.65</ele>
        <time>2013-07-20T06:14:48Z</time>
      </trkpt>
      <trkpt lat="45.68872" lon="-0.31501">
        <ele>25.13</ele>
        <time>2013-07-20T06:15:19Z</time>
      </trkpt>
      <trkpt lat="45.68871" lon="-0.31502">
        <ele>24.65</ele>
        <time>2013-07-20T06:15:53Z</time>
      </trkpt>
      <trkpt lat="45.68871" lon="-0.31502">
        <ele>25.13</ele>
        <time>2013-07-20T06:16:17Z</time>
      </trkpt>
      <trkpt lat="45.68872" lon="-0.31501">
        <ele>25.13</ele>
        <time>2013-07-20T06:16:46Z</time>
      </trkpt>
      <trkpt lat="45.68873" lon="-0.31501">
        <ele>25.61</ele>
        <time>2013-07-20T06:17:18Z</time>
      </trkpt>
      <trkpt lat="45.68872" lon="-0.31501">
        <ele>25.61</ele>
        <time>2013-07-20T06:17:47Z</time>
      </trkpt>
      <trkpt lat="45.68872" lon="-0.31502">
        <ele>25.61</ele>
        <time>2013-07-20T06:18:12Z</time>
      </trkpt>
      <trkpt lat="45.68872" lon="-0.31506">
        <ele>25.13</ele>
        <time>2013-07-20T06:18:16Z</time>
      </trkpt>
      <trkpt lat="45.68872" lon="-0.31509">
        <ele>25.13</ele>
        <time>2013-07-20T06:18:17Z</time>
      </trkpt>
      <trkpt lat="45.68886" lon="-0.31561">
        <ele>25.13</ele>
        <time>2013-07-20T06:18:27Z</time>
      </trkpt>
      <trkpt lat="45.6892" lon="-0.31669">
        <ele>24.17</ele>
        <time>2013-07-20T06:18:41Z</time>
      </trkpt>
      <trkpt lat="45.68925" lon="-0.31694">
        <ele>23.69</ele>
        <time>2013-07-20T06:18:49Z</time>
      </trkpt>
      <trkpt lat="45.68925" lon="-0.31698">
        <ele>23.69</ele>
        <time>2013-07-20T06:19:22Z</time>
      </trkpt>
      <trkpt lat="45.68925" lon="-0.317">
        <ele>23.69</ele>
        <time>2013-07-20T06:19:52Z</time>
      </trkpt>
      <trkpt lat="45.68926" lon="-0.31703">
        <ele>23.69</ele>
        <time>2013-07-20T06:19:53Z</time>
      </trkpt>
      <trkpt lat="45.68933" lon="-0.3173">
        <ele>24.17</ele>
        <time>2013-07-20T06:19:59Z</time>
      </trkpt>
      <trkpt lat="45.68934" lon="-0.31736">
        <ele>24.17</ele>
        <time>2013-07-20T06:20:00Z</time>
      </trkpt>
      <trkpt lat="45.68933" lon="-0.31743">
        <ele>24.17</ele>
        <time>2013-07-20T06:20:01Z</time>
      </trkpt>
      <trkpt lat="45.68932" lon="-0.31749">
        <ele>24.17</ele>
        <time>2013-07-20T06:20:02Z</time>
      </trkpt>
      <trkpt lat="45.68929" lon="-0.31754">
        <ele>24.17</ele>
        <time>2013-07-20T06:20:03Z</time>
      </trkpt>
      <trkpt lat="45.68926" lon="-0.31759">
        <ele>23.69</ele>
        <time>2013-07-20T06:20:04Z</time>
      </trkpt>
      <trkpt lat="45.68922" lon="-0.31763">
        <ele>23.69</ele>
        <time>2013-07-20T06:20:05Z</time>
      </trkpt>
      <trkpt lat="45.68913" lon="-0.31774">
        <ele>23.69</ele>
        <time>2013-07-20T06:20:07Z</time>
      </trkpt>
      <trkpt lat="45.68884" lon="-0.3182">
        <ele>23.21</ele>
        <time>2013-07-20T06:20:14Z</time>
      </trkpt>
      <trkpt lat="45.6881" lon="-0.31948">
        <ele>22.73</ele>
        <time>2013-07-20T06:20:31Z</time>
      </trkpt>
      <trkpt lat="45.6873" lon="-0.32085">
        <ele>24.17</ele>
        <time>2013-07-20T06:20:49Z</time>
      </trkpt>
      <trkpt lat="45.68722" lon="-0.321">
        <ele>24.65</ele>
        <time>2013-07-20T06:20:51Z</time>
      </trkpt>
      <trkpt lat="45.68718" lon="-0.32108">
        <ele>25.13</ele>
        <time>2013-07-20T06:20:52Z</time>
      </trkpt>
      <trkpt lat="45.68669" lon="-0.32259">
        <ele>27.05</ele>
        <time>2013-07-20T06:21:10Z</time>
      </trkpt>
      <trkpt lat="45.68626" lon="-0.32394">
        <ele>29.46</ele>
        <time>2013-07-20T06:21:27Z</time>
      </trkpt>
      <trkpt lat="45.68568" lon="-0.32568">
        <ele>29.46</ele>
        <time>2013-07-20T06:21:48Z</time>
      </trkpt>
      <trkpt lat="45.68531" lon="-0.32684">
        <ele>28.98</ele>
        <time>2013-07-20T06:22:01Z</time>
      </trkpt>
      <trkpt lat="45.68489" lon="-0.32817">
        <ele>27.05</ele>
        <time>2013-07-20T06:22:14Z</time>
      </trkpt>
      <trkpt lat="45.68484" lon="-0.32836">
        <ele>26.09</ele>
        <time>2013-07-20T06:22:16Z</time>
      </trkpt>
      <trkpt lat="45.68485" lon="-0.32845">
        <ele>25.61</ele>
        <time>2013-07-20T06:22:17Z</time>
      </trkpt>
      <trkpt lat="45.68487" lon="-0.32852">
        <ele>25.61</ele>
        <time>2013-07-20T06:22:18Z</time>
      </trkpt>
      <trkpt lat="45.6849" lon="-0.32858">
        <ele>25.13</ele>
        <time>2013-07-20T06:22:19Z</time>
      </trkpt>
      <trkpt lat="45.68493" lon="-0.32862">
        <ele>25.13</ele>
        <time>2013-07-20T06:22:20Z</time>
      </trkpt>
      <trkpt lat="45.68498" lon="-0.32867">
        <ele>25.13</ele>
        <time>2013-07-20T06:22:21Z</time>
      </trkpt>
      <trkpt lat="45.68502" lon="-0.32871">
        <ele>25.13</ele>
        <time>2013-07-20T06:22:22Z</time>
      </trkpt>
      <trkpt lat="45.68507" lon="-0.32875">
        <ele>25.13</ele>
        <time>2013-07-20T06:22:23Z</time>
      </trkpt>
      <trkpt lat="45.68511" lon="-0.32881">
        <ele>25.13</ele>
        <time>2013-07-20T06:22:24Z</time>
      </trkpt>
      <trkpt lat="45.68513" lon="-0.32887">
        <ele>24.65</ele>
        <time>2013-07-20T06:22:25Z</time>
      </trkpt>
      <trkpt lat="45.68513" lon="-0.32893">
        <ele>24.17</ele>
        <time>2013-07-20T06:22:26Z</time>
      </trkpt>
      <trkpt lat="45.68513" lon="-0.32899">
        <ele>24.17</ele>
        <time>2013-07-20T06:22:27Z</time>
      </trkpt>
      <trkpt lat="45.68512" lon="-0.32906">
        <ele>24.17</ele>
        <time>2013-07-20T06:22:28Z</time>
      </trkpt>
      <trkpt lat="45.68513" lon="-0.32913">
        <ele>24.17</ele>
        <time>2013-07-20T06:22:29Z</time>
      </trkpt>
      <trkpt lat="45.68514" lon="-0.3292">
        <ele>24.17</ele>
        <time>2013-07-20T06:22:30Z</time>
      </trkpt>
      <trkpt lat="45.68517" lon="-0.32927">
        <ele>24.17</ele>
        <time>2013-07-20T06:22:31Z</time>
      </trkpt>
      <trkpt lat="45.68521" lon="-0.32934">
        <ele>23.69</ele>
        <time>2013-07-20T06:22:32Z</time>
      </trkpt>
      <trkpt lat="45.68525" lon="-0.32941">
        <ele>23.69</ele>
        <time>2013-07-20T06:22:33Z</time>
      </trkpt>
      <trkpt lat="45.68583" lon="-0.33047">
        <ele>21.29</ele>
        <time>2013-07-20T06:22:45Z</time>
      </trkpt>
      <trkpt lat="45.68667" lon="-0.33199">
        <ele>18.4</ele>
        <time>2013-07-20T06:23:00Z</time>
      </trkpt>
      <trkpt lat="45.68751" lon="-0.33349">
        <ele>17.44</ele>
        <time>2013-07-20T06:23:16Z</time>
      </trkpt>
      <trkpt lat="45.6877" lon="-0.33379">
        <ele>16</ele>
        <time>2013-07-20T06:23:20Z</time>
      </trkpt>
      <trkpt lat="45.68778" lon="-0.33389">
        <ele>15.52</ele>
        <time>2013-07-20T06:23:22Z</time>
      </trkpt>
      <trkpt lat="45.68804" lon="-0.33434">
        <ele>14.08</ele>
        <time>2013-07-20T06:23:33Z</time>
      </trkpt>
      <trkpt lat="45.68808" lon="-0.33443">
        <ele>14.08</ele>
        <time>2013-07-20T06:23:35Z</time>
      </trkpt>
      <trkpt lat="45.6881" lon="-0.33449">
        <ele>14.08</ele>
        <time>2013-07-20T06:23:36Z</time>
      </trkpt>
      <trkpt lat="45.68843" lon="-0.33552">
        <ele>13.6</ele>
        <time>2013-07-20T06:23:49Z</time>
      </trkpt>
      <trkpt lat="45.68901" lon="-0.33734">
        <ele>11.19</ele>
        <time>2013-07-20T06:24:06Z</time>
      </trkpt>
      <trkpt lat="45.68952" lon="-0.33896">
        <ele>13.12</ele>
        <time>2013-07-20T06:24:23Z</time>
      </trkpt>
      <trkpt lat="45.68995" lon="-0.34028">
        <ele>12.63</ele>
        <time>2013-07-20T06:24:39Z</time>
      </trkpt>
      <trkpt lat="45.69056" lon="-0.34222">
        <ele>9.27</ele>
        <time>2013-07-20T06:24:58Z</time>
      </trkpt>
      <trkpt lat="45.69083" lon="-0.34316">
        <ele>8.79</ele>
        <time>2013-07-20T06:25:10Z</time>
      </trkpt>
      <trkpt lat="45.69083" lon="-0.34318">
        <ele>8.79</ele>
        <time>2013-07-20T06:25:27Z</time>
      </trkpt>
      <trkpt lat="45.69084" lon="-0.3432">
        <ele>8.79</ele>
        <time>2013-07-20T06:25:37Z</time>
      </trkpt>
      <trkpt lat="45.69085" lon="-0.34322">
        <ele>9.27</ele>
        <time>2013-07-20T06:25:38Z</time>
      </trkpt>
      <trkpt lat="45.69086" lon="-0.34323">
        <ele>9.27</ele>
        <time>2013-07-20T06:25:39Z</time>
      </trkpt>
      <trkpt lat="45.69089" lon="-0.34334">
        <ele>9.27</ele>
        <time>2013-07-20T06:25:43Z</time>
      </trkpt>
      <trkpt lat="45.69089" lon="-0.34337">
        <ele>9.27</ele>
        <time>2013-07-20T06:25:44Z</time>
      </trkpt>
      <trkpt lat="45.69087" lon="-0.34341">
        <ele>9.75</ele>
        <time>2013-07-20T06:25:45Z</time>
      </trkpt>
      <trkpt lat="45.69085" lon="-0.34345">
        <ele>9.75</ele>
        <time>2013-07-20T06:25:46Z</time>
      </trkpt>
      <trkpt lat="45.69083" lon="-0.34349">
        <ele>9.75</ele>
        <time>2013-07-20T06:25:47Z</time>
      </trkpt>
      <trkpt lat="45.69043" lon="-0.3443">
        <ele>10.71</ele>
        <time>2013-07-20T06:26:01Z</time>
      </trkpt>
      <trkpt lat="45.68999" lon="-0.3452">
        <ele>11.67</ele>
        <time>2013-07-20T06:26:13Z</time>
      </trkpt>
      <trkpt lat="45.68996" lon="-0.34528">
        <ele>11.67</ele>
        <time>2013-07-20T06:26:14Z</time>
      </trkpt>
      <trkpt lat="45.68975" lon="-0.34568">
        <ele>11.67</ele>
        <time>2013-07-20T06:26:19Z</time>
      </trkpt>
      <trkpt lat="45.68915" lon="-0.34691">
        <ele>11.67</ele>
        <time>2013-07-20T06:26:33Z</time>
      </trkpt>
      <trkpt lat="45.68892" lon="-0.34739">
        <ele>12.15</ele>
        <time>2013-07-20T06:26:38Z</time>
      </trkpt>
      <trkpt lat="45.68888" lon="-0.34748">
        <ele>12.15</ele>
        <time>2013-07-20T06:26:39Z</time>
      </trkpt>
      <trkpt lat="45.68838" lon="-0.34849">
        <ele>12.15</ele>
        <time>2013-07-20T06:26:50Z</time>
      </trkpt>
      <trkpt lat="45.68786" lon="-0.34959">
        <ele>11.67</ele>
        <time>2013-07-20T06:27:02Z</time>
      </trkpt>
      <trkpt lat="45.68782" lon="-0.34968">
        <ele>12.15</ele>
        <time>2013-07-20T06:27:03Z</time>
      </trkpt>
      <trkpt lat="45.68721" lon="-0.35098">
        <ele>11.67</ele>
        <time>2013-07-20T06:27:17Z</time>
      </trkpt>
      <trkpt lat="45.68643" lon="-0.3528">
        <ele>10.71</ele>
        <time>2013-07-20T06:27:35Z</time>
      </trkpt>
      <trkpt lat="45.68611" lon="-0.35358">
        <ele>10.23</ele>
        <time>2013-07-20T06:27:43Z</time>
      </trkpt>
      <trkpt lat="45.686" lon="-0.35409">
        <ele>9.75</ele>
        <time>2013-07-20T06:27:48Z</time>
      </trkpt>
      <trkpt lat="45.68597" lon="-0.35419">
        <ele>9.75</ele>
        <time>2013-07-20T06:27:49Z</time>
      </trkpt>
      <trkpt lat="45.68593" lon="-0.35428">
        <ele>9.75</ele>
        <time>2013-07-20T06:27:50Z</time>
      </trkpt>
      <trkpt lat="45.68588" lon="-0.35436">
        <ele>9.75</ele>
        <time>2013-07-20T06:27:51Z</time>
      </trkpt>
      <trkpt lat="45.68582" lon="-0.35443">
        <ele>9.75</ele>
        <time>2013-07-20T06:27:52Z</time>
      </trkpt>
      <trkpt lat="45.68576" lon="-0.3545">
        <ele>9.75</ele>
        <time>2013-07-20T06:27:53Z</time>
      </trkpt>
      <trkpt lat="45.68553" lon="-0.3548">
        <ele>9.75</ele>
        <time>2013-07-20T06:27:57Z</time>
      </trkpt>
      <trkpt lat="45.68549" lon="-0.35489">
        <ele>9.75</ele>
        <time>2013-07-20T06:27:58Z</time>
      </trkpt>
      <trkpt lat="45.68545" lon="-0.35499">
        <ele>9.75</ele>
        <time>2013-07-20T06:27:59Z</time>
      </trkpt>
      <trkpt lat="45.68541" lon="-0.35508">
        <ele>9.75</ele>
        <time>2013-07-20T06:28:00Z</time>
      </trkpt>
      <trkpt lat="45.68538" lon="-0.35519">
        <ele>10.23</ele>
        <time>2013-07-20T06:28:01Z</time>
      </trkpt>
      <trkpt lat="45.68536" lon="-0.35529">
        <ele>10.71</ele>
        <time>2013-07-20T06:28:02Z</time>
      </trkpt>
      <trkpt lat="45.68517" lon="-0.35661">
        <ele>11.19</ele>
        <time>2013-07-20T06:28:15Z</time>
      </trkpt>
      <trkpt lat="45.68516" lon="-0.3567">
        <ele>11.19</ele>
        <time>2013-07-20T06:28:16Z</time>
      </trkpt>
      <trkpt lat="45.68515" lon="-0.3568">
        <ele>10.71</ele>
        <time>2013-07-20T06:28:17Z</time>
      </trkpt>
      <trkpt lat="45.68513" lon="-0.3569">
        <ele>10.71</ele>
        <time>2013-07-20T06:28:18Z</time>
      </trkpt>
      <trkpt lat="45.68484" lon="-0.35886">
        <ele>10.23</ele>
        <time>2013-07-20T06:28:36Z</time>
      </trkpt>
      <trkpt lat="45.68456" lon="-0.36088">
        <ele>10.23</ele>
        <time>2013-07-20T06:28:54Z</time>
      </trkpt>
      <trkpt lat="45.68424" lon="-0.363">
        <ele>9.75</ele>
        <time>2013-07-20T06:29:13Z</time>
      </trkpt>
      <trkpt lat="45.68396" lon="-0.36496">
        <ele>9.27</ele>
        <time>2013-07-20T06:29:30Z</time>
      </trkpt>
      <trkpt lat="45.68362" lon="-0.36734">
        <ele>9.27</ele>
        <time>2013-07-20T06:29:51Z</time>
      </trkpt>
      <trkpt lat="45.68333" lon="-0.36928">
        <ele>9.27</ele>
        <time>2013-07-20T06:30:08Z</time>
      </trkpt>
      <trkpt lat="45.6831" lon="-0.37085">
        <ele>9.75</ele>
        <time>2013-07-20T06:30:22Z</time>
      </trkpt>
      <trkpt lat="45.68292" lon="-0.37229">
        <ele>10.23</ele>
        <time>2013-07-20T06:30:36Z</time>
      </trkpt>
      <trkpt lat="45.68272" lon="-0.37443">
        <ele>9.27</ele>
        <time>2013-07-20T06:30:55Z</time>
      </trkpt>
      <trkpt lat="45.68252" lon="-0.37635">
        <ele>10.23</ele>
        <time>2013-07-20T06:31:12Z</time>
      </trkpt>
      <trkpt lat="45.68235" lon="-0.37826">
        <ele>9.27</ele>
        <time>2013-07-20T06:31:28Z</time>
      </trkpt>
      <trkpt lat="45.68209" lon="-0.38101">
        <ele>8.79</ele>
        <time>2013-07-20T06:31:51Z</time>
      </trkpt>
      <trkpt lat="45.68192" lon="-0.38284">
        <ele>8.79</ele>
        <time>2013-07-20T06:32:07Z</time>
      </trkpt>
      <trkpt lat="45.68192" lon="-0.38296">
        <ele>8.79</ele>
        <time>2013-07-20T06:32:08Z</time>
      </trkpt>
      <trkpt lat="45.68211" lon="-0.38429">
        <ele>9.27</ele>
        <time>2013-07-20T06:32:20Z</time>
      </trkpt>
      <trkpt lat="45.68255" lon="-0.38581">
        <ele>8.79</ele>
        <time>2013-07-20T06:32:36Z</time>
      </trkpt>
      <trkpt lat="45.68293" lon="-0.3872">
        <ele>9.75</ele>
        <time>2013-07-20T06:32:50Z</time>
      </trkpt>
      <trkpt lat="45.68345" lon="-0.3889">
        <ele>10.23</ele>
        <time>2013-07-20T06:33:07Z</time>
      </trkpt>
      <trkpt lat="45.68408" lon="-0.39086">
        <ele>9.75</ele>
        <time>2013-07-20T06:33:25Z</time>
      </trkpt>
      <trkpt lat="45.68476" lon="-0.39249">
        <ele>8.79</ele>
        <time>2013-07-20T06:33:40Z</time>
      </trkpt>
      <trkpt lat="45.68558" lon="-0.39399">
        <ele>8.31</ele>
        <time>2013-07-20T06:33:56Z</time>
      </trkpt>
      <trkpt lat="45.6864" lon="-0.3953">
        <ele>9.27</ele>
        <time>2013-07-20T06:34:11Z</time>
      </trkpt>
      <trkpt lat="45.68732" lon="-0.39619">
        <ele>10.71</ele>
        <time>2013-07-20T06:34:26Z</time>
      </trkpt>
      <trkpt lat="45.68756" lon="-0.39647">
        <ele>11.67</ele>
        <time>2013-07-20T06:34:31Z</time>
      </trkpt>
      <trkpt lat="45.6876" lon="-0.39653">
        <ele>11.67</ele>
        <time>2013-07-20T06:34:32Z</time>
      </trkpt>
      <trkpt lat="45.68771" lon="-0.3967">
        <ele>12.15</ele>
        <time>2013-07-20T06:34:35Z</time>
      </trkpt>
      <trkpt lat="45.68783" lon="-0.39686">
        <ele>12.63</ele>
        <time>2013-07-20T06:34:38Z</time>
      </trkpt>
      <trkpt lat="45.68788" lon="-0.39689">
        <ele>13.12</ele>
        <time>2013-07-20T06:34:39Z</time>
      </trkpt>
      <trkpt lat="45.68793" lon="-0.3969">
        <ele>13.12</ele>
        <time>2013-07-20T06:34:40Z</time>
      </trkpt>
      <trkpt lat="45.68798" lon="-0.39689">
        <ele>13.12</ele>
        <time>2013-07-20T06:34:41Z</time>
      </trkpt>
      <trkpt lat="45.68802" lon="-0.39687">
        <ele>13.6</ele>
        <time>2013-07-20T06:34:42Z</time>
      </trkpt>
      <trkpt lat="45.68806" lon="-0.39685">
        <ele>13.6</ele>
        <time>2013-07-20T06:34:43Z</time>
      </trkpt>
      <trkpt lat="45.6881" lon="-0.39684">
        <ele>13.6</ele>
        <time>2013-07-20T06:34:44Z</time>
      </trkpt>
      <trkpt lat="45.68815" lon="-0.39684">
        <ele>13.6</ele>
        <time>2013-07-20T06:34:45Z</time>
      </trkpt>
      <trkpt lat="45.68819" lon="-0.39685">
        <ele>13.6</ele>
        <time>2013-07-20T06:34:46Z</time>
      </trkpt>
      <trkpt lat="45.68823" lon="-0.39688">
        <ele>13.6</ele>
        <time>2013-07-20T06:34:47Z</time>
      </trkpt>
      <trkpt lat="45.68826" lon="-0.39693">
        <ele>13.6</ele>
        <time>2013-07-20T06:34:48Z</time>
      </trkpt>
      <trkpt lat="45.68828" lon="-0.39699">
        <ele>13.12</ele>
        <time>2013-07-20T06:34:49Z</time>
      </trkpt>
      <trkpt lat="45.68829" lon="-0.39706">
        <ele>13.12</ele>
        <time>2013-07-20T06:34:50Z</time>
      </trkpt>
      <trkpt lat="45.68828" lon="-0.39714">
        <ele>13.12</ele>
        <time>2013-07-20T06:34:51Z</time>
      </trkpt>
      <trkpt lat="45.68827" lon="-0.39722">
        <ele>12.63</ele>
        <time>2013-07-20T06:34:52Z</time>
      </trkpt>
      <trkpt lat="45.68825" lon="-0.3973">
        <ele>12.63</ele>
        <time>2013-07-20T06:34:53Z</time>
      </trkpt>
      <trkpt lat="45.68822" lon="-0.39748">
        <ele>12.63</ele>
        <time>2013-07-20T06:34:55Z</time>
      </trkpt>
      <trkpt lat="45.68822" lon="-0.39758">
        <ele>12.15</ele>
        <time>2013-07-20T06:34:56Z</time>
      </trkpt>
      <trkpt lat="45.68823" lon="-0.39769">
        <ele>12.15</ele>
        <time>2013-07-20T06:34:57Z</time>
      </trkpt>
      <trkpt lat="45.68824" lon="-0.39781">
        <ele>11.67</ele>
        <time>2013-07-20T06:34:58Z</time>
      </trkpt>
      <trkpt lat="45.68826" lon="-0.39793">
        <ele>11.67</ele>
        <time>2013-07-20T06:34:59Z</time>
      </trkpt>
      <trkpt lat="45.68865" lon="-0.39923">
        <ele>9.27</ele>
        <time>2013-07-20T06:35:10Z</time>
      </trkpt>
      <trkpt lat="45.68919" lon="-0.40039">
        <ele>12.15</ele>
        <time>2013-07-20T06:35:23Z</time>
      </trkpt>
      <trkpt lat="45.6892" lon="-0.40046">
        <ele>12.15</ele>
        <time>2013-07-20T06:35:24Z</time>
      </trkpt>
      <trkpt lat="45.68919" lon="-0.40054">
        <ele>12.15</ele>
        <time>2013-07-20T06:35:25Z</time>
      </trkpt>
      <trkpt lat="45.68917" lon="-0.4006">
        <ele>12.15</ele>
        <time>2013-07-20T06:35:26Z</time>
      </trkpt>
      <trkpt lat="45.68914" lon="-0.40066">
        <ele>12.15</ele>
        <time>2013-07-20T06:35:27Z</time>
      </trkpt>
      <trkpt lat="45.6891" lon="-0.40072">
        <ele>11.67</ele>
        <time>2013-07-20T06:35:28Z</time>
      </trkpt>
      <trkpt lat="45.68904" lon="-0.40075">
        <ele>11.67</ele>
        <time>2013-07-20T06:35:29Z</time>
      </trkpt>
      <trkpt lat="45.68897" lon="-0.40078">
        <ele>11.19</ele>
        <time>2013-07-20T06:35:30Z</time>
      </trkpt>
      <trkpt lat="45.6889" lon="-0.4008">
        <ele>11.19</ele>
        <time>2013-07-20T06:35:31Z</time>
      </trkpt>
      <trkpt lat="45.68795" lon="-0.40115">
        <ele>9.27</ele>
        <time>2013-07-20T06:35:42Z</time>
      </trkpt>
      <trkpt lat="45.6868" lon="-0.40163">
        <ele>8.31</ele>
        <time>2013-07-20T06:35:56Z</time>
      </trkpt>
      <trkpt lat="45.68673" lon="-0.40171">
        <ele>8.31</ele>
        <time>2013-07-20T06:35:57Z</time>
      </trkpt>
      <trkpt lat="45.68666" lon="-0.40179">
        <ele>8.31</ele>
        <time>2013-07-20T06:35:58Z</time>
      </trkpt>
      <trkpt lat="45.6866" lon="-0.40188">
        <ele>8.31</ele>
        <time>2013-07-20T06:35:59Z</time>
      </trkpt>
      <trkpt lat="45.68654" lon="-0.40197">
        <ele>8.31</ele>
        <time>2013-07-20T06:36:00Z</time>
      </trkpt>
      <trkpt lat="45.68648" lon="-0.40207">
        <ele>8.31</ele>
        <time>2013-07-20T06:36:01Z</time>
      </trkpt>
      <trkpt lat="45.68644" lon="-0.40218">
        <ele>8.31</ele>
        <time>2013-07-20T06:36:02Z</time>
      </trkpt>
      <trkpt lat="45.6864" lon="-0.40229">
        <ele>7.83</ele>
        <time>2013-07-20T06:36:03Z</time>
      </trkpt>
      <trkpt lat="45.68637" lon="-0.40241">
        <ele>7.83</ele>
        <time>2013-07-20T06:36:04Z</time>
      </trkpt>
      <trkpt lat="45.68635" lon="-0.40252">
        <ele>7.83</ele>
        <time>2013-07-20T06:36:05Z</time>
      </trkpt>
      <trkpt lat="45.68633" lon="-0.40265">
        <ele>7.83</ele>
        <time>2013-07-20T06:36:06Z</time>
      </trkpt>
      <trkpt lat="45.68632" lon="-0.40277">
        <ele>7.83</ele>
        <time>2013-07-20T06:36:07Z</time>
      </trkpt>
      <trkpt lat="45.68631" lon="-0.40289">
        <ele>7.83</ele>
        <time>2013-07-20T06:36:08Z</time>
      </trkpt>
      <trkpt lat="45.68632" lon="-0.40302">
        <ele>7.83</ele>
        <time>2013-07-20T06:36:09Z</time>
      </trkpt>
      <trkpt lat="45.68633" lon="-0.40314">
        <ele>7.83</ele>
        <time>2013-07-20T06:36:10Z</time>
      </trkpt>
      <trkpt lat="45.68635" lon="-0.40326">
        <ele>7.83</ele>
        <time>2013-07-20T06:36:11Z</time>
      </trkpt>
      <trkpt lat="45.68637" lon="-0.40338">
        <ele>7.83</ele>
        <time>2013-07-20T06:36:12Z</time>
      </trkpt>
      <trkpt lat="45.68689" lon="-0.40553">
        <ele>7.83</ele>
        <time>2013-07-20T06:36:31Z</time>
      </trkpt>
      <trkpt lat="45.68728" lon="-0.40772">
        <ele>7.35</ele>
        <time>2013-07-20T06:36:49Z</time>
      </trkpt>
      <trkpt lat="45.68744" lon="-0.40999">
        <ele>7.83</ele>
        <time>2013-07-20T06:37:08Z</time>
      </trkpt>
      <trkpt lat="45.68757" lon="-0.41253">
        <ele>8.31</ele>
        <time>2013-07-20T06:37:30Z</time>
      </trkpt>
      <trkpt lat="45.68758" lon="-0.41439">
        <ele>8.31</ele>
        <time>2013-07-20T06:37:47Z</time>
      </trkpt>
      <trkpt lat="45.68748" lon="-0.41627">
        <ele>8.31</ele>
        <time>2013-07-20T06:38:05Z</time>
      </trkpt>
      <trkpt lat="45.68727" lon="-0.41791">
        <ele>9.27</ele>
        <time>2013-07-20T06:38:20Z</time>
      </trkpt>
      <trkpt lat="45.68708" lon="-0.42001">
        <ele>9.75</ele>
        <time>2013-07-20T06:38:39Z</time>
      </trkpt>
      <trkpt lat="45.68694" lon="-0.42213">
        <ele>8.79</ele>
        <time>2013-07-20T06:38:58Z</time>
      </trkpt>
      <trkpt lat="45.68688" lon="-0.42287">
        <ele>7.35</ele>
        <time>2013-07-20T06:39:08Z</time>
      </trkpt>
      <trkpt lat="45.68685" lon="-0.42308">
        <ele>7.35</ele>
        <time>2013-07-20T06:39:13Z</time>
      </trkpt>
      <trkpt lat="45.68684" lon="-0.4231">
        <ele>7.35</ele>
        <time>2013-07-20T06:39:14Z</time>
      </trkpt>
      <trkpt lat="45.68681" lon="-0.42306">
        <ele>7.35</ele>
        <time>2013-07-20T06:39:16Z</time>
      </trkpt>
      <trkpt lat="45.68681" lon="-0.42302">
        <ele>7.35</ele>
        <time>2013-07-20T06:39:17Z</time>
      </trkpt>
      <trkpt lat="45.68687" lon="-0.42246">
        <ele>7.83</ele>
        <time>2013-07-20T06:39:26Z</time>
      </trkpt>
      <trkpt lat="45.68694" lon="-0.42142">
        <ele>7.83</ele>
        <time>2013-07-20T06:39:38Z</time>
      </trkpt>
      <trkpt lat="45.68705" lon="-0.41999">
        <ele>8.31</ele>
        <time>2013-07-20T06:39:54Z</time>
      </trkpt>
      <trkpt lat="45.68708" lon="-0.41924">
        <ele>7.35</ele>
        <time>2013-07-20T06:40:04Z</time>
      </trkpt>
      <trkpt lat="45.68708" lon="-0.41922">
        <ele>7.35</ele>
        <time>2013-07-20T06:40:05Z</time>
      </trkpt>
      <trkpt lat="45.68709" lon="-0.4192">
        <ele>7.35</ele>
        <time>2013-07-20T06:40:09Z</time>
      </trkpt>
      <trkpt lat="45.68712" lon="-0.41922">
        <ele>6.87</ele>
        <time>2013-07-20T06:40:23Z</time>
      </trkpt>
      <trkpt lat="45.68713" lon="-0.41921">
        <ele>6.87</ele>
        <time>2013-07-20T06:40:48Z</time>
      </trkpt>
      <trkpt lat="45.68715" lon="-0.4192">
        <ele>7.83</ele>
        <time>2013-07-20T06:40:54Z</time>
      </trkpt>
      <trkpt lat="45.68717" lon="-0.41924">
        <ele>7.83</ele>
        <time>2013-07-20T06:40:57Z</time>
      </trkpt>
      <trkpt lat="45.68717" lon="-0.41926">
        <ele>7.83</ele>
        <time>2013-07-20T06:40:58Z</time>
      </trkpt>
      <trkpt lat="45.68717" lon="-0.4193">
        <ele>7.83</ele>
        <time>2013-07-20T06:40:59Z</time>
      </trkpt>
      <trkpt lat="45.68717" lon="-0.41933">
        <ele>7.83</ele>
        <time>2013-07-20T06:41:00Z</time>
      </trkpt>
      <trkpt lat="45.68716" lon="-0.41938">
        <ele>7.83</ele>
        <time>2013-07-20T06:41:01Z</time>
      </trkpt>
      <trkpt lat="45.68715" lon="-0.41942">
        <ele>7.83</ele>
        <time>2013-07-20T06:41:02Z</time>
      </trkpt>
      <trkpt lat="45.68713" lon="-0.41959">
        <ele>7.83</ele>
        <time>2013-07-20T06:41:05Z</time>
      </trkpt>
      <trkpt lat="45.68713" lon="-0.41965">
        <ele>7.83</ele>
        <time>2013-07-20T06:41:06Z</time>
      </trkpt>
      <trkpt lat="45.68709" lon="-0.42005">
        <ele>8.31</ele>
        <time>2013-07-20T06:41:12Z</time>
      </trkpt>
      <trkpt lat="45.68709" lon="-0.42012">
        <ele>8.31</ele>
        <time>2013-07-20T06:41:13Z</time>
      </trkpt>
      <trkpt lat="45.68699" lon="-0.42143">
        <ele>8.31</ele>
        <time>2013-07-20T06:41:27Z</time>
      </trkpt>
      <trkpt lat="45.68696" lon="-0.42191">
        <ele>7.83</ele>
        <time>2013-07-20T06:41:32Z</time>
      </trkpt>
      <trkpt lat="45.68693" lon="-0.42208">
        <ele>8.31</ele>
        <time>2013-07-20T06:41:34Z</time>
      </trkpt>
      <trkpt lat="45.68681" lon="-0.42336">
        <ele>8.31</ele>
        <time>2013-07-20T06:41:47Z</time>
      </trkpt>
      <trkpt lat="45.68667" lon="-0.42456">
        <ele>7.83</ele>
        <time>2013-07-20T06:41:59Z</time>
      </trkpt>
      <trkpt lat="45.68666" lon="-0.426">
        <ele>7.35</ele>
        <time>2013-07-20T06:42:13Z</time>
      </trkpt>
      <trkpt lat="45.68664" lon="-0.42699">
        <ele>7.83</ele>
        <time>2013-07-20T06:42:22Z</time>
      </trkpt>
      <trkpt lat="45.6865" lon="-0.42818">
        <ele>8.31</ele>
        <time>2013-07-20T06:42:33Z</time>
      </trkpt>
      <trkpt lat="45.68645" lon="-0.42858">
        <ele>7.83</ele>
        <time>2013-07-20T06:42:37Z</time>
      </trkpt>
      <trkpt lat="45.68651" lon="-0.43006">
        <ele>6.87</ele>
        <time>2013-07-20T06:42:51Z</time>
      </trkpt>
      <trkpt lat="45.68684" lon="-0.4314">
        <ele>7.35</ele>
        <time>2013-07-20T06:43:04Z</time>
      </trkpt>
      <trkpt lat="45.68694" lon="-0.43182">
        <ele>6.87</ele>
        <time>2013-07-20T06:43:08Z</time>
      </trkpt>
      <trkpt lat="45.68696" lon="-0.43194">
        <ele>6.87</ele>
        <time>2013-07-20T06:43:09Z</time>
      </trkpt>
      <trkpt lat="45.68696" lon="-0.43205">
        <ele>6.87</ele>
        <time>2013-07-20T06:43:10Z</time>
      </trkpt>
      <trkpt lat="45.68696" lon="-0.43272">
        <ele>7.35</ele>
        <time>2013-07-20T06:43:16Z</time>
      </trkpt>
      <trkpt lat="45.68672" lon="-0.43393">
        <ele>7.35</ele>
        <time>2013-07-20T06:43:28Z</time>
      </trkpt>
      <trkpt lat="45.68636" lon="-0.43551">
        <ele>6.87</ele>
        <time>2013-07-20T06:43:43Z</time>
      </trkpt>
      <trkpt lat="45.68603" lon="-0.43708">
        <ele>6.87</ele>
        <time>2013-07-20T06:43:58Z</time>
      </trkpt>
      <trkpt lat="45.68569" lon="-0.43865">
        <ele>6.87</ele>
        <time>2013-07-20T06:44:13Z</time>
      </trkpt>
      <trkpt lat="45.68535" lon="-0.44026">
        <ele>7.35</ele>
        <time>2013-07-20T06:44:28Z</time>
      </trkpt>
      <trkpt lat="45.68512" lon="-0.44197">
        <ele>6.87</ele>
        <time>2013-07-20T06:44:43Z</time>
      </trkpt>
      <trkpt lat="45.68508" lon="-0.44415">
        <ele>6.39</ele>
        <time>2013-07-20T06:45:02Z</time>
      </trkpt>
      <trkpt lat="45.68503" lon="-0.44621">
        <ele>6.39</ele>
        <time>2013-07-20T06:45:20Z</time>
      </trkpt>
      <trkpt lat="45.68499" lon="-0.44826">
        <ele>6.39</ele>
        <time>2013-07-20T06:45:38Z</time>
      </trkpt>
      <trkpt lat="45.68497" lon="-0.45027">
        <ele>6.87</ele>
        <time>2013-07-20T06:45:56Z</time>
      </trkpt>
      <trkpt lat="45.68516" lon="-0.45195">
        <ele>6.87</ele>
        <time>2013-07-20T06:46:11Z</time>
      </trkpt>
      <trkpt lat="45.68541" lon="-0.45386">
        <ele>6.87</ele>
        <time>2013-07-20T06:46:28Z</time>
      </trkpt>
      <trkpt lat="45.68577" lon="-0.45565">
        <ele>6.87</ele>
        <time>2013-07-20T06:46:44Z</time>
      </trkpt>
      <trkpt lat="45.68618" lon="-0.45756">
        <ele>6.87</ele>
        <time>2013-07-20T06:47:01Z</time>
      </trkpt>
      <trkpt lat="45.68669" lon="-0.45953">
        <ele>6.39</ele>
        <time>2013-07-20T06:47:19Z</time>
      </trkpt>
      <trkpt lat="45.68737" lon="-0.46132">
        <ele>6.87</ele>
        <time>2013-07-20T06:47:36Z</time>
      </trkpt>
      <trkpt lat="45.6882" lon="-0.4631">
        <ele>5.91</ele>
        <time>2013-07-20T06:47:54Z</time>
      </trkpt>
      <trkpt lat="45.68857" lon="-0.46452">
        <ele>6.87</ele>
        <time>2013-07-20T06:48:07Z</time>
      </trkpt>
      <trkpt lat="45.68872" lon="-0.46517">
        <ele>6.87</ele>
        <time>2013-07-20T06:48:13Z</time>
      </trkpt>
      <trkpt lat="45.68875" lon="-0.46528">
        <ele>6.87</ele>
        <time>2013-07-20T06:48:14Z</time>
      </trkpt>
      <trkpt lat="45.68931" lon="-0.46624">
        <ele>6.87</ele>
        <time>2013-07-20T06:48:25Z</time>
      </trkpt>
      <trkpt lat="45.68992" lon="-0.46746">
        <ele>7.35</ele>
        <time>2013-07-20T06:48:38Z</time>
      </trkpt>
      <trkpt lat="45.69046" lon="-0.46943">
        <ele>6.87</ele>
        <time>2013-07-20T06:48:56Z</time>
      </trkpt>
      <trkpt lat="45.69118" lon="-0.47122">
        <ele>7.35</ele>
        <time>2013-07-20T06:49:14Z</time>
      </trkpt>
      <trkpt lat="45.69201" lon="-0.47277">
        <ele>6.39</ele>
        <time>2013-07-20T06:49:30Z</time>
      </trkpt>
      <trkpt lat="45.69272" lon="-0.47442">
        <ele>6.39</ele>
        <time>2013-07-20T06:49:46Z</time>
      </trkpt>
      <trkpt lat="45.69318" lon="-0.47519">
        <ele>6.39</ele>
        <time>2013-07-20T06:49:55Z</time>
      </trkpt>
      <trkpt lat="45.694" lon="-0.47587">
        <ele>7.35</ele>
        <time>2013-07-20T06:50:08Z</time>
      </trkpt>
      <trkpt lat="45.69405" lon="-0.47593">
        <ele>7.35</ele>
        <time>2013-07-20T06:50:09Z</time>
      </trkpt>
      <trkpt lat="45.69411" lon="-0.47601">
        <ele>7.35</ele>
        <time>2013-07-20T06:50:10Z</time>
      </trkpt>
      <trkpt lat="45.6942" lon="-0.47617">
        <ele>7.35</ele>
        <time>2013-07-20T06:50:12Z</time>
      </trkpt>
      <trkpt lat="45.69425" lon="-0.47625">
        <ele>7.83</ele>
        <time>2013-07-20T06:50:13Z</time>
      </trkpt>
      <trkpt lat="45.6949" lon="-0.47788">
        <ele>8.31</ele>
        <time>2013-07-20T06:50:30Z</time>
      </trkpt>
      <trkpt lat="45.69567" lon="-0.47929">
        <ele>8.31</ele>
        <time>2013-07-20T06:50:46Z</time>
      </trkpt>
      <trkpt lat="45.69627" lon="-0.48063">
        <ele>7.83</ele>
        <time>2013-07-20T06:51:00Z</time>
      </trkpt>
      <trkpt lat="45.69681" lon="-0.48231">
        <ele>6.87</ele>
        <time>2013-07-20T06:51:15Z</time>
      </trkpt>
      <trkpt lat="45.6975" lon="-0.48416">
        <ele>7.35</ele>
        <time>2013-07-20T06:51:33Z</time>
      </trkpt>
      <trkpt lat="45.69765" lon="-0.48482">
        <ele>6.87</ele>
        <time>2013-07-20T06:51:39Z</time>
      </trkpt>
      <trkpt lat="45.69766" lon="-0.48494">
        <ele>6.87</ele>
        <time>2013-07-20T06:51:40Z</time>
      </trkpt>
      <trkpt lat="45.69773" lon="-0.48628">
        <ele>6.39</ele>
        <time>2013-07-20T06:51:51Z</time>
      </trkpt>
      <trkpt lat="45.69776" lon="-0.48639">
        <ele>6.39</ele>
        <time>2013-07-20T06:51:52Z</time>
      </trkpt>
      <trkpt lat="45.6978" lon="-0.4865">
        <ele>6.39</ele>
        <time>2013-07-20T06:51:53Z</time>
      </trkpt>
      <trkpt lat="45.69789" lon="-0.48669">
        <ele>5.91</ele>
        <time>2013-07-20T06:51:55Z</time>
      </trkpt>
      <trkpt lat="45.69794" lon="-0.48678">
        <ele>6.39</ele>
        <time>2013-07-20T06:51:56Z</time>
      </trkpt>
      <trkpt lat="45.69878" lon="-0.48831">
        <ele>6.87</ele>
        <time>2013-07-20T06:52:13Z</time>
      </trkpt>
      <trkpt lat="45.69941" lon="-0.49008">
        <ele>6.39</ele>
        <time>2013-07-20T06:52:30Z</time>
      </trkpt>
      <trkpt lat="45.69998" lon="-0.49157">
        <ele>6.39</ele>
        <time>2013-07-20T06:52:44Z</time>
      </trkpt>
      <trkpt lat="45.70084" lon="-0.49351">
        <ele>6.39</ele>
        <time>2013-07-20T06:53:04Z</time>
      </trkpt>
      <trkpt lat="45.70099" lon="-0.49391">
        <ele>6.39</ele>
        <time>2013-07-20T06:53:09Z</time>
      </trkpt>
      <trkpt lat="45.701" lon="-0.49398">
        <ele>6.39</ele>
        <time>2013-07-20T06:53:10Z</time>
      </trkpt>
      <trkpt lat="45.70101" lon="-0.49404">
        <ele>6.39</ele>
        <time>2013-07-20T06:53:11Z</time>
      </trkpt>
      <trkpt lat="45.701" lon="-0.49409">
        <ele>6.39</ele>
        <time>2013-07-20T06:53:12Z</time>
      </trkpt>
      <trkpt lat="45.70099" lon="-0.49414">
        <ele>5.91</ele>
        <time>2013-07-20T06:53:13Z</time>
      </trkpt>
      <trkpt lat="45.70097" lon="-0.49417">
        <ele>5.91</ele>
        <time>2013-07-20T06:53:14Z</time>
      </trkpt>
      <trkpt lat="45.70095" lon="-0.49421">
        <ele>5.42</ele>
        <time>2013-07-20T06:53:15Z</time>
      </trkpt>
      <trkpt lat="45.70094" lon="-0.49425">
        <ele>5.42</ele>
        <time>2013-07-20T06:53:16Z</time>
      </trkpt>
      <trkpt lat="45.70094" lon="-0.4943">
        <ele>4.94</ele>
        <time>2013-07-20T06:53:17Z</time>
      </trkpt>
      <trkpt lat="45.70095" lon="-0.49434">
        <ele>4.94</ele>
        <time>2013-07-20T06:53:18Z</time>
      </trkpt>
      <trkpt lat="45.70096" lon="-0.49436">
        <ele>4.94</ele>
        <time>2013-07-20T06:53:19Z</time>
      </trkpt>
      <trkpt lat="45.70116" lon="-0.49466">
        <ele>4.94</ele>
        <time>2013-07-20T06:53:29Z</time>
      </trkpt>
      <trkpt lat="45.70128" lon="-0.49479">
        <ele>5.42</ele>
        <time>2013-07-20T06:53:33Z</time>
      </trkpt>
      <trkpt lat="45.70132" lon="-0.49483">
        <ele>5.42</ele>
        <time>2013-07-20T06:53:34Z</time>
      </trkpt>
      <trkpt lat="45.70138" lon="-0.49494">
        <ele>5.42</ele>
        <time>2013-07-20T06:53:36Z</time>
      </trkpt>
      <trkpt lat="45.70181" lon="-0.49579">
        <ele>5.42</ele>
        <time>2013-07-20T06:53:48Z</time>
      </trkpt>
      <trkpt lat="45.70235" lon="-0.49728">
        <ele>5.91</ele>
        <time>2013-07-20T06:54:04Z</time>
      </trkpt>
      <trkpt lat="45.70281" lon="-0.49905">
        <ele>5.42</ele>
        <time>2013-07-20T06:54:21Z</time>
      </trkpt>
      <trkpt lat="45.70311" lon="-0.5002">
        <ele>5.91</ele>
        <time>2013-07-20T06:54:33Z</time>
      </trkpt>
      <trkpt lat="45.70338" lon="-0.50108">
        <ele>5.91</ele>
        <time>2013-07-20T06:54:43Z</time>
      </trkpt>
      <trkpt lat="45.70341" lon="-0.50117">
        <ele>5.91</ele>
        <time>2013-07-20T06:54:44Z</time>
      </trkpt>
      <trkpt lat="45.70389" lon="-0.50255">
        <ele>5.91</ele>
        <time>2013-07-20T06:54:58Z</time>
      </trkpt>
      <trkpt lat="45.70441" lon="-0.50405">
        <ele>5.91</ele>
        <time>2013-07-20T06:55:13Z</time>
      </trkpt>
      <trkpt lat="45.70484" lon="-0.50549">
        <ele>5.91</ele>
        <time>2013-07-20T06:55:27Z</time>
      </trkpt>
      <trkpt lat="45.70528" lon="-0.50707">
        <ele>5.91</ele>
        <time>2013-07-20T06:55:42Z</time>
      </trkpt>
      <trkpt lat="45.70579" lon="-0.50892">
        <ele>5.91</ele>
        <time>2013-07-20T06:55:59Z</time>
      </trkpt>
      <trkpt lat="45.70607" lon="-0.51048">
        <ele>5.91</ele>
        <time>2013-07-20T06:56:13Z</time>
      </trkpt>
      <trkpt lat="45.7063" lon="-0.51208">
        <ele>5.91</ele>
        <time>2013-07-20T06:56:28Z</time>
      </trkpt>
      <trkpt lat="45.70656" lon="-0.51399">
        <ele>5.42</ele>
        <time>2013-07-20T06:56:46Z</time>
      </trkpt>
      <trkpt lat="45.70675" lon="-0.51542">
        <ele>5.42</ele>
        <time>2013-07-20T06:56:59Z</time>
      </trkpt>
      <trkpt lat="45.70686" lon="-0.51714">
        <ele>5.91</ele>
        <time>2013-07-20T06:57:14Z</time>
      </trkpt>
      <trkpt lat="45.70717" lon="-0.51893">
        <ele>5.91</ele>
        <time>2013-07-20T06:57:30Z</time>
      </trkpt>
      <trkpt lat="45.70736" lon="-0.51965">
        <ele>6.39</ele>
        <time>2013-07-20T06:57:37Z</time>
      </trkpt>
      <trkpt lat="45.70767" lon="-0.52131">
        <ele>6.39</ele>
        <time>2013-07-20T06:57:53Z</time>
      </trkpt>
      <trkpt lat="45.70784" lon="-0.52252">
        <ele>6.39</ele>
        <time>2013-07-20T06:58:04Z</time>
      </trkpt>
      <trkpt lat="45.7079" lon="-0.5241">
        <ele>6.39</ele>
        <time>2013-07-20T06:58:18Z</time>
      </trkpt>
      <trkpt lat="45.70795" lon="-0.52576">
        <ele>5.91</ele>
        <time>2013-07-20T06:58:32Z</time>
      </trkpt>
      <trkpt lat="45.70801" lon="-0.52801">
        <ele>5.91</ele>
        <time>2013-07-20T06:58:51Z</time>
      </trkpt>
      <trkpt lat="45.70819" lon="-0.52946">
        <ele>6.39</ele>
        <time>2013-07-20T06:59:04Z</time>
      </trkpt>
      <trkpt lat="45.70827" lon="-0.52965">
        <ele>6.39</ele>
        <time>2013-07-20T06:59:06Z</time>
      </trkpt>
      <trkpt lat="45.70832" lon="-0.52974">
        <ele>6.39</ele>
        <time>2013-07-20T06:59:07Z</time>
      </trkpt>
      <trkpt lat="45.70837" lon="-0.52982">
        <ele>6.39</ele>
        <time>2013-07-20T06:59:08Z</time>
      </trkpt>
      <trkpt lat="45.70842" lon="-0.5299">
        <ele>6.39</ele>
        <time>2013-07-20T06:59:09Z</time>
      </trkpt>
      <trkpt lat="45.70849" lon="-0.52996">
        <ele>6.39</ele>
        <time>2013-07-20T06:59:10Z</time>
      </trkpt>
      <trkpt lat="45.70936" lon="-0.5307">
        <ele>8.79</ele>
        <time>2013-07-20T06:59:24Z</time>
      </trkpt>
      <trkpt lat="45.71005" lon="-0.53157">
        <ele>11.19</ele>
        <time>2013-07-20T06:59:39Z</time>
      </trkpt>
      <trkpt lat="45.71036" lon="-0.53213">
        <ele>12.15</ele>
        <time>2013-07-20T06:59:47Z</time>
      </trkpt>
      <trkpt lat="45.71089" lon="-0.53368">
        <ele>12.15</ele>
        <time>2013-07-20T07:00:05Z</time>
      </trkpt>
      <trkpt lat="45.71153" lon="-0.53557">
        <ele>10.71</ele>
        <time>2013-07-20T07:00:23Z</time>
      </trkpt>
      <trkpt lat="45.71211" lon="-0.53733">
        <ele>9.75</ele>
        <time>2013-07-20T07:00:39Z</time>
      </trkpt>
      <trkpt lat="45.71251" lon="-0.53862">
        <ele>10.71</ele>
        <time>2013-07-20T07:00:53Z</time>
      </trkpt>
      <trkpt lat="45.713" lon="-0.54033">
        <ele>11.67</ele>
        <time>2013-07-20T07:01:11Z</time>
      </trkpt>
      <trkpt lat="45.71342" lon="-0.54194">
        <ele>12.63</ele>
        <time>2013-07-20T07:01:28Z</time>
      </trkpt>
      <trkpt lat="45.71383" lon="-0.54369">
        <ele>14.08</ele>
        <time>2013-07-20T07:01:46Z</time>
      </trkpt>
      <trkpt lat="45.71425" lon="-0.54557">
        <ele>14.08</ele>
        <time>2013-07-20T07:02:04Z</time>
      </trkpt>
      <trkpt lat="45.71473" lon="-0.54769">
        <ele>12.63</ele>
        <time>2013-07-20T07:02:23Z</time>
      </trkpt>
      <trkpt lat="45.71534" lon="-0.55041">
        <ele>9.75</ele>
        <time>2013-07-20T07:02:45Z</time>
      </trkpt>
      <trkpt lat="45.71599" lon="-0.55269">
        <ele>8.79</ele>
        <time>2013-07-20T07:03:03Z</time>
      </trkpt>
      <trkpt lat="45.71642" lon="-0.55365">
        <ele>11.67</ele>
        <time>2013-07-20T07:03:13Z</time>
      </trkpt>
      <trkpt lat="45.71737" lon="-0.55523">
        <ele>12.63</ele>
        <time>2013-07-20T07:03:32Z</time>
      </trkpt>
      <trkpt lat="45.71786" lon="-0.55643">
        <ele>11.19</ele>
        <time>2013-07-20T07:03:44Z</time>
      </trkpt>
      <trkpt lat="45.71813" lon="-0.55727">
        <ele>11.19</ele>
        <time>2013-07-20T07:03:55Z</time>
      </trkpt>
      <trkpt lat="45.7182" lon="-0.55764">
        <ele>11.19</ele>
        <time>2013-07-20T07:04:05Z</time>
      </trkpt>
      <trkpt lat="45.71819" lon="-0.5577">
        <ele>11.19</ele>
        <time>2013-07-20T07:04:06Z</time>
      </trkpt>
      <trkpt lat="45.71816" lon="-0.55807">
        <ele>10.71</ele>
        <time>2013-07-20T07:04:11Z</time>
      </trkpt>
      <trkpt lat="45.71816" lon="-0.55816">
        <ele>10.71</ele>
        <time>2013-07-20T07:04:12Z</time>
      </trkpt>
      <trkpt lat="45.71817" lon="-0.55825">
        <ele>10.71</ele>
        <time>2013-07-20T07:04:13Z</time>
      </trkpt>
      <trkpt lat="45.71819" lon="-0.55834">
        <ele>10.71</ele>
        <time>2013-07-20T07:04:14Z</time>
      </trkpt>
      <trkpt lat="45.71821" lon="-0.55843">
        <ele>10.71</ele>
        <time>2013-07-20T07:04:15Z</time>
      </trkpt>
      <trkpt lat="45.71824" lon="-0.55852">
        <ele>10.71</ele>
        <time>2013-07-20T07:04:16Z</time>
      </trkpt>
      <trkpt lat="45.71875" lon="-0.56007">
        <ele>10.71</ele>
        <time>2013-07-20T07:04:32Z</time>
      </trkpt>
      <trkpt lat="45.7195" lon="-0.56225">
        <ele>9.27</ele>
        <time>2013-07-20T07:04:52Z</time>
      </trkpt>
      <trkpt lat="45.72045" lon="-0.56438">
        <ele>9.27</ele>
        <time>2013-07-20T07:05:12Z</time>
      </trkpt>
      <trkpt lat="45.72115" lon="-0.56566">
        <ele>11.67</ele>
        <time>2013-07-20T07:05:27Z</time>
      </trkpt>
      <trkpt lat="45.72187" lon="-0.56675">
        <ele>13.6</ele>
        <time>2013-07-20T07:05:42Z</time>
      </trkpt>
      <trkpt lat="45.72245" lon="-0.56749">
        <ele>15.52</ele>
        <time>2013-07-20T07:05:54Z</time>
      </trkpt>
      <trkpt lat="45.7225" lon="-0.56753">
        <ele>16</ele>
        <time>2013-07-20T07:05:55Z</time>
      </trkpt>
      <trkpt lat="45.72265" lon="-0.56764">
        <ele>16.48</ele>
        <time>2013-07-20T07:05:58Z</time>
      </trkpt>
      <trkpt lat="45.72269" lon="-0.5677">
        <ele>16.48</ele>
        <time>2013-07-20T07:05:59Z</time>
      </trkpt>
      <trkpt lat="45.72271" lon="-0.56776">
        <ele>16.48</ele>
        <time>2013-07-20T07:06:00Z</time>
      </trkpt>
      <trkpt lat="45.72272" lon="-0.56784">
        <ele>16.48</ele>
        <time>2013-07-20T07:06:01Z</time>
      </trkpt>
      <trkpt lat="45.72272" lon="-0.56791">
        <ele>16.48</ele>
        <time>2013-07-20T07:06:02Z</time>
      </trkpt>
      <trkpt lat="45.72272" lon="-0.568">
        <ele>16</ele>
        <time>2013-07-20T07:06:03Z</time>
      </trkpt>
      <trkpt lat="45.72273" lon="-0.56808">
        <ele>16.48</ele>
        <time>2013-07-20T07:06:04Z</time>
      </trkpt>
      <trkpt lat="45.72275" lon="-0.56817">
        <ele>16</ele>
        <time>2013-07-20T07:06:05Z</time>
      </trkpt>
      <trkpt lat="45.72323" lon="-0.56979">
        <ele>16.96</ele>
        <time>2013-07-20T07:06:22Z</time>
      </trkpt>
      <trkpt lat="45.72402" lon="-0.57133">
        <ele>17.92</ele>
        <time>2013-07-20T07:06:40Z</time>
      </trkpt>
      <trkpt lat="45.7248" lon="-0.57279">
        <ele>16.96</ele>
        <time>2013-07-20T07:06:56Z</time>
      </trkpt>
      <trkpt lat="45.72571" lon="-0.57525">
        <ele>16</ele>
        <time>2013-07-20T07:07:19Z</time>
      </trkpt>
      <trkpt lat="45.72622" lon="-0.57744">
        <ele>13.12</ele>
        <time>2013-07-20T07:07:37Z</time>
      </trkpt>
      <trkpt lat="45.7269" lon="-0.57965">
        <ele>12.63</ele>
        <time>2013-07-20T07:07:56Z</time>
      </trkpt>
      <trkpt lat="45.72739" lon="-0.5815">
        <ele>11.19</ele>
        <time>2013-07-20T07:08:12Z</time>
      </trkpt>
      <trkpt lat="45.72737" lon="-0.58301">
        <ele>8.31</ele>
        <time>2013-07-20T07:08:23Z</time>
      </trkpt>
      <trkpt lat="45.72755" lon="-0.58449">
        <ele>7.83</ele>
        <time>2013-07-20T07:08:34Z</time>
      </trkpt>
      <trkpt lat="45.72826" lon="-0.58672">
        <ele>7.35</ele>
        <time>2013-07-20T07:08:53Z</time>
      </trkpt>
      <trkpt lat="45.72889" lon="-0.58844">
        <ele>7.83</ele>
        <time>2013-07-20T07:09:09Z</time>
      </trkpt>
      <trkpt lat="45.72917" lon="-0.58927">
        <ele>8.79</ele>
        <time>2013-07-20T07:09:17Z</time>
      </trkpt>
      <trkpt lat="45.72918" lon="-0.58937">
        <ele>8.79</ele>
        <time>2013-07-20T07:09:18Z</time>
      </trkpt>
      <trkpt lat="45.72919" lon="-0.58947">
        <ele>8.79</ele>
        <time>2013-07-20T07:09:19Z</time>
      </trkpt>
      <trkpt lat="45.72918" lon="-0.58957">
        <ele>9.27</ele>
        <time>2013-07-20T07:09:20Z</time>
      </trkpt>
      <trkpt lat="45.72917" lon="-0.58966">
        <ele>9.27</ele>
        <time>2013-07-20T07:09:21Z</time>
      </trkpt>
      <trkpt lat="45.72913" lon="-0.59001">
        <ele>8.79</ele>
        <time>2013-07-20T07:09:25Z</time>
      </trkpt>
      <trkpt lat="45.72914" lon="-0.59011">
        <ele>8.31</ele>
        <time>2013-07-20T07:09:26Z</time>
      </trkpt>
      <trkpt lat="45.72945" lon="-0.59165">
        <ele>7.83</ele>
        <time>2013-07-20T07:09:40Z</time>
      </trkpt>
      <trkpt lat="45.7298" lon="-0.59339">
        <ele>7.35</ele>
        <time>2013-07-20T07:09:56Z</time>
      </trkpt>
      <trkpt lat="45.73008" lon="-0.59488">
        <ele>6.87</ele>
        <time>2013-07-20T07:10:09Z</time>
      </trkpt>
      <trkpt lat="45.73045" lon="-0.59676">
        <ele>6.87</ele>
        <time>2013-07-20T07:10:26Z</time>
      </trkpt>
      <trkpt lat="45.73076" lon="-0.59875">
        <ele>6.87</ele>
        <time>2013-07-20T07:10:44Z</time>
      </trkpt>
      <trkpt lat="45.73105" lon="-0.60064">
        <ele>6.87</ele>
        <time>2013-07-20T07:11:01Z</time>
      </trkpt>
      <trkpt lat="45.73131" lon="-0.60267">
        <ele>6.87</ele>
        <time>2013-07-20T07:11:19Z</time>
      </trkpt>
      <trkpt lat="45.73147" lon="-0.60426">
        <ele>8.79</ele>
        <time>2013-07-20T07:11:34Z</time>
      </trkpt>
      <trkpt lat="45.73151" lon="-0.60466">
        <ele>9.75</ele>
        <time>2013-07-20T07:11:39Z</time>
      </trkpt>
      <trkpt lat="45.73153" lon="-0.60487">
        <ele>10.71</ele>
        <time>2013-07-20T07:11:42Z</time>
      </trkpt>
      <trkpt lat="45.73154" lon="-0.60567">
        <ele>13.6</ele>
        <time>2013-07-20T07:11:54Z</time>
      </trkpt>
      <trkpt lat="45.73155" lon="-0.6058">
        <ele>14.08</ele>
        <time>2013-07-20T07:11:56Z</time>
      </trkpt>
      <trkpt lat="45.73159" lon="-0.60599">
        <ele>15.04</ele>
        <time>2013-07-20T07:11:59Z</time>
      </trkpt>
      <trkpt lat="45.73159" lon="-0.60606">
        <ele>15.04</ele>
        <time>2013-07-20T07:12:00Z</time>
      </trkpt>
      <trkpt lat="45.73162" lon="-0.60619">
        <ele>15.52</ele>
        <time>2013-07-20T07:12:02Z</time>
      </trkpt>
      <trkpt lat="45.73167" lon="-0.60637">
        <ele>16.48</ele>
        <time>2013-07-20T07:12:05Z</time>
      </trkpt>
      <trkpt lat="45.73169" lon="-0.60643">
        <ele>16.96</ele>
        <time>2013-07-20T07:12:06Z</time>
      </trkpt>
      <trkpt lat="45.73172" lon="-0.60649">
        <ele>16.96</ele>
        <time>2013-07-20T07:12:07Z</time>
      </trkpt>
      <trkpt lat="45.73183" lon="-0.60678">
        <ele>18.4</ele>
        <time>2013-07-20T07:12:12Z</time>
      </trkpt>
      <trkpt lat="45.73186" lon="-0.60683">
        <ele>18.4</ele>
        <time>2013-07-20T07:12:13Z</time>
      </trkpt>
      <trkpt lat="45.73217" lon="-0.60734">
        <ele>21.77</ele>
        <time>2013-07-20T07:12:24Z</time>
      </trkpt>
      <trkpt lat="45.73227" lon="-0.60747">
        <ele>22.73</ele>
        <time>2013-07-20T07:12:27Z</time>
      </trkpt>
      <trkpt lat="45.73229" lon="-0.60751">
        <ele>22.73</ele>
        <time>2013-07-20T07:12:28Z</time>
      </trkpt>
      <trkpt lat="45.73257" lon="-0.60826">
        <ele>25.13</ele>
        <time>2013-07-20T07:12:41Z</time>
      </trkpt>
      <trkpt lat="45.7327" lon="-0.60865">
        <ele>25.61</ele>
        <time>2013-07-20T07:12:47Z</time>
      </trkpt>
      <trkpt lat="45.73277" lon="-0.60885">
        <ele>26.09</ele>
        <time>2013-07-20T07:12:50Z</time>
      </trkpt>
      <trkpt lat="45.73286" lon="-0.60904">
        <ele>26.09</ele>
        <time>2013-07-20T07:12:53Z</time>
      </trkpt>
      <trkpt lat="45.7335" lon="-0.60988">
        <ele>24.17</ele>
        <time>2013-07-20T07:13:09Z</time>
      </trkpt>
      <trkpt lat="45.73359" lon="-0.61001">
        <ele>24.65</ele>
        <time>2013-07-20T07:13:11Z</time>
      </trkpt>
      <trkpt lat="45.73363" lon="-0.61008">
        <ele>24.17</ele>
        <time>2013-07-20T07:13:12Z</time>
      </trkpt>
      <trkpt lat="45.73373" lon="-0.61034">
        <ele>23.21</ele>
        <time>2013-07-20T07:13:15Z</time>
      </trkpt>
      <trkpt lat="45.73379" lon="-0.61041">
        <ele>22.73</ele>
        <time>2013-07-20T07:13:16Z</time>
      </trkpt>
      <trkpt lat="45.73443" lon="-0.61113">
        <ele>21.29</ele>
        <time>2013-07-20T07:13:26Z</time>
      </trkpt>
      <trkpt lat="45.7345" lon="-0.61116">
        <ele>21.29</ele>
        <time>2013-07-20T07:13:27Z</time>
      </trkpt>
      <trkpt lat="45.73456" lon="-0.61118">
        <ele>21.29</ele>
        <time>2013-07-20T07:13:28Z</time>
      </trkpt>
      <trkpt lat="45.73462" lon="-0.61122">
        <ele>21.77</ele>
        <time>2013-07-20T07:13:29Z</time>
      </trkpt>
      <trkpt lat="45.73467" lon="-0.61127">
        <ele>22.25</ele>
        <time>2013-07-20T07:13:30Z</time>
      </trkpt>
      <trkpt lat="45.73472" lon="-0.61132">
        <ele>22.25</ele>
        <time>2013-07-20T07:13:31Z</time>
      </trkpt>
      <trkpt lat="45.73477" lon="-0.61137">
        <ele>22.25</ele>
        <time>2013-07-20T07:13:32Z</time>
      </trkpt>
      <trkpt lat="45.73483" lon="-0.61142">
        <ele>22.25</ele>
        <time>2013-07-20T07:13:33Z</time>
      </trkpt>
      <trkpt lat="45.7352" lon="-0.61169">
        <ele>21.77</ele>
        <time>2013-07-20T07:13:39Z</time>
      </trkpt>
      <trkpt lat="45.73526" lon="-0.61175">
        <ele>21.77</ele>
        <time>2013-07-20T07:13:40Z</time>
      </trkpt>
      <trkpt lat="45.73531" lon="-0.61182">
        <ele>21.77</ele>
        <time>2013-07-20T07:13:41Z</time>
      </trkpt>
      <trkpt lat="45.73536" lon="-0.61189">
        <ele>21.77</ele>
        <time>2013-07-20T07:13:42Z</time>
      </trkpt>
      <trkpt lat="45.7354" lon="-0.61197">
        <ele>21.77</ele>
        <time>2013-07-20T07:13:43Z</time>
      </trkpt>
      <trkpt lat="45.73607" lon="-0.61329">
        <ele>19.36</ele>
        <time>2013-07-20T07:13:58Z</time>
      </trkpt>
      <trkpt lat="45.73664" lon="-0.61442">
        <ele>16</ele>
        <time>2013-07-20T07:14:09Z</time>
      </trkpt>
      <trkpt lat="45.73757" lon="-0.61584">
        <ele>14.08</ele>
        <time>2013-07-20T07:14:25Z</time>
      </trkpt>
      <trkpt lat="45.73849" lon="-0.61721">
        <ele>12.15</ele>
        <time>2013-07-20T07:14:41Z</time>
      </trkpt>
      <trkpt lat="45.73938" lon="-0.61838">
        <ele>12.15</ele>
        <time>2013-07-20T07:14:55Z</time>
      </trkpt>
      <trkpt lat="45.74003" lon="-0.61986">
        <ele>10.23</ele>
        <time>2013-07-20T07:15:10Z</time>
      </trkpt>
      <trkpt lat="45.74059" lon="-0.62138">
        <ele>8.79</ele>
        <time>2013-07-20T07:15:25Z</time>
      </trkpt>
      <trkpt lat="45.74062" lon="-0.62147">
        <ele>8.79</ele>
        <time>2013-07-20T07:15:26Z</time>
      </trkpt>
      <trkpt lat="45.74095" lon="-0.6222">
        <ele>7.35</ele>
        <time>2013-07-20T07:15:35Z</time>
      </trkpt>
      <trkpt lat="45.74099" lon="-0.62225">
        <ele>6.87</ele>
        <time>2013-07-20T07:15:36Z</time>
      </trkpt>
      <trkpt lat="45.74101" lon="-0.62232">
        <ele>6.87</ele>
        <time>2013-07-20T07:15:37Z</time>
      </trkpt>
      <trkpt lat="45.741" lon="-0.62238">
        <ele>6.87</ele>
        <time>2013-07-20T07:15:38Z</time>
      </trkpt>
      <trkpt lat="45.74097" lon="-0.62243">
        <ele>6.39</ele>
        <time>2013-07-20T07:15:39Z</time>
      </trkpt>
      <trkpt lat="45.74092" lon="-0.62246">
        <ele>6.39</ele>
        <time>2013-07-20T07:15:40Z</time>
      </trkpt>
      <trkpt lat="45.74088" lon="-0.6225">
        <ele>6.87</ele>
        <time>2013-07-20T07:15:41Z</time>
      </trkpt>
      <trkpt lat="45.74083" lon="-0.62255">
        <ele>6.87</ele>
        <time>2013-07-20T07:15:42Z</time>
      </trkpt>
      <trkpt lat="45.7408" lon="-0.62262">
        <ele>6.87</ele>
        <time>2013-07-20T07:15:43Z</time>
      </trkpt>
      <trkpt lat="45.74077" lon="-0.6227">
        <ele>6.87</ele>
        <time>2013-07-20T07:15:44Z</time>
      </trkpt>
      <trkpt lat="45.74074" lon="-0.62279">
        <ele>6.87</ele>
        <time>2013-07-20T07:15:45Z</time>
      </trkpt>
      <trkpt lat="45.74072" lon="-0.62289">
        <ele>6.87</ele>
        <time>2013-07-20T07:15:46Z</time>
      </trkpt>
      <trkpt lat="45.74071" lon="-0.62299">
        <ele>6.87</ele>
        <time>2013-07-20T07:15:47Z</time>
      </trkpt>
      <trkpt lat="45.74069" lon="-0.6232">
        <ele>6.87</ele>
        <time>2013-07-20T07:15:49Z</time>
      </trkpt>
      <trkpt lat="45.74073" lon="-0.62521">
        <ele>7.35</ele>
        <time>2013-07-20T07:16:08Z</time>
      </trkpt>
      <trkpt lat="45.74075" lon="-0.62638">
        <ele>6.87</ele>
        <time>2013-07-20T07:16:21Z</time>
      </trkpt>
      <trkpt lat="45.7408" lon="-0.62659">
        <ele>6.87</ele>
        <time>2013-07-20T07:16:27Z</time>
      </trkpt>
      <trkpt lat="45.74082" lon="-0.62665">
        <ele>6.87</ele>
        <time>2013-07-20T07:16:28Z</time>
      </trkpt>
      <trkpt lat="45.74082" lon="-0.62673">
        <ele>6.87</ele>
        <time>2013-07-20T07:16:29Z</time>
      </trkpt>
      <trkpt lat="45.74081" lon="-0.62681">
        <ele>6.87</ele>
        <time>2013-07-20T07:16:30Z</time>
      </trkpt>
      <trkpt lat="45.7408" lon="-0.6269">
        <ele>6.87</ele>
        <time>2013-07-20T07:16:31Z</time>
      </trkpt>
      <trkpt lat="45.7408" lon="-0.62699">
        <ele>6.87</ele>
        <time>2013-07-20T07:16:32Z</time>
      </trkpt>
      <trkpt lat="45.7408" lon="-0.62754">
        <ele>7.35</ele>
        <time>2013-07-20T07:16:38Z</time>
      </trkpt>
      <trkpt lat="45.7408" lon="-0.62872">
        <ele>7.35</ele>
        <time>2013-07-20T07:16:51Z</time>
      </trkpt>
      <trkpt lat="45.7408" lon="-0.63013">
        <ele>7.35</ele>
        <time>2013-07-20T07:17:06Z</time>
      </trkpt>
      <trkpt lat="45.74082" lon="-0.63161">
        <ele>7.83</ele>
        <time>2013-07-20T07:17:21Z</time>
      </trkpt>
      <trkpt lat="45.7409" lon="-0.63341">
        <ele>7.83</ele>
        <time>2013-07-20T07:17:38Z</time>
      </trkpt>
      <trkpt lat="45.74123" lon="-0.63515">
        <ele>8.79</ele>
        <time>2013-07-20T07:17:55Z</time>
      </trkpt>
      <trkpt lat="45.7417" lon="-0.6365">
        <ele>9.27</ele>
        <time>2013-07-20T07:18:11Z</time>
      </trkpt>
      <trkpt lat="45.74192" lon="-0.63721">
        <ele>8.79</ele>
        <time>2013-07-20T07:18:19Z</time>
      </trkpt>
      <trkpt lat="45.74193" lon="-0.63731">
        <ele>8.79</ele>
        <time>2013-07-20T07:18:20Z</time>
      </trkpt>
      <trkpt lat="45.74193" lon="-0.63741">
        <ele>8.79</ele>
        <time>2013-07-20T07:18:21Z</time>
      </trkpt>
      <trkpt lat="45.74193" lon="-0.63753">
        <ele>8.79</ele>
        <time>2013-07-20T07:18:22Z</time>
      </trkpt>
      <trkpt lat="45.74192" lon="-0.63764">
        <ele>8.79</ele>
        <time>2013-07-20T07:18:23Z</time>
      </trkpt>
      <trkpt lat="45.7419" lon="-0.63775">
        <ele>8.31</ele>
        <time>2013-07-20T07:18:24Z</time>
      </trkpt>
      <trkpt lat="45.74188" lon="-0.63787">
        <ele>8.31</ele>
        <time>2013-07-20T07:18:25Z</time>
      </trkpt>
      <trkpt lat="45.74175" lon="-0.63856">
        <ele>6.87</ele>
        <time>2013-07-20T07:18:32Z</time>
      </trkpt>
      <trkpt lat="45.74174" lon="-0.63866">
        <ele>6.87</ele>
        <time>2013-07-20T07:18:33Z</time>
      </trkpt>
      <trkpt lat="45.74175" lon="-0.63885">
        <ele>7.35</ele>
        <time>2013-07-20T07:18:35Z</time>
      </trkpt>
      <trkpt lat="45.74174" lon="-0.63894">
        <ele>7.35</ele>
        <time>2013-07-20T07:18:36Z</time>
      </trkpt>
      <trkpt lat="45.74171" lon="-0.63904">
        <ele>7.35</ele>
        <time>2013-07-20T07:18:37Z</time>
      </trkpt>
      <trkpt lat="45.74169" lon="-0.63914">
        <ele>7.35</ele>
        <time>2013-07-20T07:18:38Z</time>
      </trkpt>
      <trkpt lat="45.74168" lon="-0.63924">
        <ele>7.35</ele>
        <time>2013-07-20T07:18:39Z</time>
      </trkpt>
      <trkpt lat="45.74167" lon="-0.63934">
        <ele>7.35</ele>
        <time>2013-07-20T07:18:40Z</time>
      </trkpt>
      <trkpt lat="45.74166" lon="-0.63945">
        <ele>7.35</ele>
        <time>2013-07-20T07:18:41Z</time>
      </trkpt>
      <trkpt lat="45.74158" lon="-0.64088">
        <ele>8.79</ele>
        <time>2013-07-20T07:18:55Z</time>
      </trkpt>
      <trkpt lat="45.74182" lon="-0.64249">
        <ele>9.75</ele>
        <time>2013-07-20T07:19:11Z</time>
      </trkpt>
      <trkpt lat="45.742" lon="-0.64433">
        <ele>10.23</ele>
        <time>2013-07-20T07:19:28Z</time>
      </trkpt>
      <trkpt lat="45.74198" lon="-0.64623">
        <ele>10.23</ele>
        <time>2013-07-20T07:19:45Z</time>
      </trkpt>
      <trkpt lat="45.74171" lon="-0.64795">
        <ele>11.19</ele>
        <time>2013-07-20T07:20:01Z</time>
      </trkpt>
      <trkpt lat="45.74131" lon="-0.64934">
        <ele>11.67</ele>
        <time>2013-07-20T07:20:16Z</time>
      </trkpt>
      <trkpt lat="45.74121" lon="-0.64961">
        <ele>11.67</ele>
        <time>2013-07-20T07:20:19Z</time>
      </trkpt>
      <trkpt lat="45.74074" lon="-0.65094">
        <ele>12.63</ele>
        <time>2013-07-20T07:20:34Z</time>
      </trkpt>
      <trkpt lat="45.74047" lon="-0.65183">
        <ele>13.12</ele>
        <time>2013-07-20T07:20:46Z</time>
      </trkpt>
      <trkpt lat="45.74045" lon="-0.65191">
        <ele>13.12</ele>
        <time>2013-07-20T07:20:59Z</time>
      </trkpt>
      <trkpt lat="45.74043" lon="-0.65195">
        <ele>13.6</ele>
        <time>2013-07-20T07:21:19Z</time>
      </trkpt>
      <trkpt lat="45.74043" lon="-0.65196">
        <ele>13.12</ele>
        <time>2013-07-20T07:21:30Z</time>
      </trkpt>
      <trkpt lat="45.74042" lon="-0.65198">
        <ele>13.12</ele>
        <time>2013-07-20T07:21:31Z</time>
      </trkpt>
      <trkpt lat="45.74042" lon="-0.65201">
        <ele>13.6</ele>
        <time>2013-07-20T07:21:32Z</time>
      </trkpt>
      <trkpt lat="45.74034" lon="-0.65229">
        <ele>14.08</ele>
        <time>2013-07-20T07:21:38Z</time>
      </trkpt>
      <trkpt lat="45.74033" lon="-0.65236">
        <ele>14.08</ele>
        <time>2013-07-20T07:21:39Z</time>
      </trkpt>
      <trkpt lat="45.74012" lon="-0.65359">
        <ele>16</ele>
        <time>2013-07-20T07:21:55Z</time>
      </trkpt>
      <trkpt lat="45.74011" lon="-0.65504">
        <ele>17.92</ele>
        <time>2013-07-20T07:22:11Z</time>
      </trkpt>
      <trkpt lat="45.74018" lon="-0.65648">
        <ele>19.84</ele>
        <time>2013-07-20T07:22:27Z</time>
      </trkpt>
      <trkpt lat="45.74024" lon="-0.65814">
        <ele>22.73</ele>
        <time>2013-07-20T07:22:46Z</time>
      </trkpt>
      <trkpt lat="45.74029" lon="-0.65904">
        <ele>24.17</ele>
        <time>2013-07-20T07:22:59Z</time>
      </trkpt>
      <trkpt lat="45.74031" lon="-0.65909">
        <ele>24.17</ele>
        <time>2013-07-20T07:23:00Z</time>
      </trkpt>
      <trkpt lat="45.74034" lon="-0.65913">
        <ele>24.65</ele>
        <time>2013-07-20T07:23:01Z</time>
      </trkpt>
      <trkpt lat="45.74037" lon="-0.65917">
        <ele>24.65</ele>
        <time>2013-07-20T07:23:02Z</time>
      </trkpt>
      <trkpt lat="45.74041" lon="-0.65922">
        <ele>24.65</ele>
        <time>2013-07-20T07:23:03Z</time>
      </trkpt>
      <trkpt lat="45.74044" lon="-0.65927">
        <ele>24.65</ele>
        <time>2013-07-20T07:23:04Z</time>
      </trkpt>
      <trkpt lat="45.74047" lon="-0.65933">
        <ele>25.13</ele>
        <time>2013-07-20T07:23:05Z</time>
      </trkpt>
      <trkpt lat="45.74049" lon="-0.65939">
        <ele>25.13</ele>
        <time>2013-07-20T07:23:06Z</time>
      </trkpt>
      <trkpt lat="45.74051" lon="-0.65946">
        <ele>25.13</ele>
        <time>2013-07-20T07:23:07Z</time>
      </trkpt>
      <trkpt lat="45.74052" lon="-0.65953">
        <ele>25.13</ele>
        <time>2013-07-20T07:23:08Z</time>
      </trkpt>
      <trkpt lat="45.74051" lon="-0.6596">
        <ele>25.61</ele>
        <time>2013-07-20T07:23:09Z</time>
      </trkpt>
      <trkpt lat="45.7405" lon="-0.65967">
        <ele>25.61</ele>
        <time>2013-07-20T07:23:10Z</time>
      </trkpt>
      <trkpt lat="45.74049" lon="-0.65975">
        <ele>26.09</ele>
        <time>2013-07-20T07:23:11Z</time>
      </trkpt>
      <trkpt lat="45.74047" lon="-0.65982">
        <ele>26.09</ele>
        <time>2013-07-20T07:23:12Z</time>
      </trkpt>
      <trkpt lat="45.74044" lon="-0.65988">
        <ele>26.09</ele>
        <time>2013-07-20T07:23:13Z</time>
      </trkpt>
      <trkpt lat="45.74041" lon="-0.65994">
        <ele>26.57</ele>
        <time>2013-07-20T07:23:14Z</time>
      </trkpt>
      <trkpt lat="45.74038" lon="-0.66001">
        <ele>26.57</ele>
        <time>2013-07-20T07:23:15Z</time>
      </trkpt>
      <trkpt lat="45.74036" lon="-0.66009">
        <ele>26.57</ele>
        <time>2013-07-20T07:23:16Z</time>
      </trkpt>
      <trkpt lat="45.74035" lon="-0.66016">
        <ele>27.05</ele>
        <time>2013-07-20T07:23:17Z</time>
      </trkpt>
      <trkpt lat="45.74035" lon="-0.66024">
        <ele>27.05</ele>
        <time>2013-07-20T07:23:18Z</time>
      </trkpt>
      <trkpt lat="45.74035" lon="-0.66032">
        <ele>27.05</ele>
        <time>2013-07-20T07:23:19Z</time>
      </trkpt>
      <trkpt lat="45.74036" lon="-0.6604">
        <ele>27.05</ele>
        <time>2013-07-20T07:23:20Z</time>
      </trkpt>
      <trkpt lat="45.74041" lon="-0.6612">
        <ele>28.5</ele>
        <time>2013-07-20T07:23:30Z</time>
      </trkpt>
      <trkpt lat="45.74044" lon="-0.66127">
        <ele>28.98</ele>
        <time>2013-07-20T07:23:31Z</time>
      </trkpt>
      <trkpt lat="45.74048" lon="-0.66133">
        <ele>29.46</ele>
        <time>2013-07-20T07:23:32Z</time>
      </trkpt>
      <trkpt lat="45.74061" lon="-0.66149">
        <ele>29.94</ele>
        <time>2013-07-20T07:23:35Z</time>
      </trkpt>
      <trkpt lat="45.74064" lon="-0.66156">
        <ele>29.94</ele>
        <time>2013-07-20T07:23:36Z</time>
      </trkpt>
      <trkpt lat="45.74067" lon="-0.66163">
        <ele>29.94</ele>
        <time>2013-07-20T07:23:37Z</time>
      </trkpt>
      <trkpt lat="45.74069" lon="-0.66171">
        <ele>30.42</ele>
        <time>2013-07-20T07:23:38Z</time>
      </trkpt>
      <trkpt lat="45.74069" lon="-0.66179">
        <ele>30.9</ele>
        <time>2013-07-20T07:23:39Z</time>
      </trkpt>
      <trkpt lat="45.74069" lon="-0.66187">
        <ele>30.42</ele>
        <time>2013-07-20T07:23:40Z</time>
      </trkpt>
      <trkpt lat="45.74067" lon="-0.66195">
        <ele>30.9</ele>
        <time>2013-07-20T07:23:41Z</time>
      </trkpt>
      <trkpt lat="45.74065" lon="-0.66202">
        <ele>30.9</ele>
        <time>2013-07-20T07:23:42Z</time>
      </trkpt>
      <trkpt lat="45.74062" lon="-0.66209">
        <ele>30.9</ele>
        <time>2013-07-20T07:23:43Z</time>
      </trkpt>
      <trkpt lat="45.74058" lon="-0.66216">
        <ele>30.9</ele>
        <time>2013-07-20T07:23:44Z</time>
      </trkpt>
      <trkpt lat="45.74055" lon="-0.66223">
        <ele>31.38</ele>
        <time>2013-07-20T07:23:45Z</time>
      </trkpt>
      <trkpt lat="45.74052" lon="-0.6623">
        <ele>31.38</ele>
        <time>2013-07-20T07:23:46Z</time>
      </trkpt>
      <trkpt lat="45.74051" lon="-0.66238">
        <ele>31.38</ele>
        <time>2013-07-20T07:23:47Z</time>
      </trkpt>
      <trkpt lat="45.7405" lon="-0.66247">
        <ele>31.38</ele>
        <time>2013-07-20T07:23:48Z</time>
      </trkpt>
      <trkpt lat="45.74049" lon="-0.66255">
        <ele>31.38</ele>
        <time>2013-07-20T07:23:49Z</time>
      </trkpt>
      <trkpt lat="45.74049" lon="-0.66263">
        <ele>31.86</ele>
        <time>2013-07-20T07:23:50Z</time>
      </trkpt>
      <trkpt lat="45.74054" lon="-0.66387">
        <ele>34.74</ele>
        <time>2013-07-20T07:24:05Z</time>
      </trkpt>
      <trkpt lat="45.7406" lon="-0.66511">
        <ele>38.11</ele>
        <time>2013-07-20T07:24:21Z</time>
      </trkpt>
      <trkpt lat="45.74064" lon="-0.666">
        <ele>40.99</ele>
        <time>2013-07-20T07:24:33Z</time>
      </trkpt>
      <trkpt lat="45.74068" lon="-0.66676">
        <ele>44.36</ele>
        <time>2013-07-20T07:24:44Z</time>
      </trkpt>
      <trkpt lat="45.74072" lon="-0.66754">
        <ele>47.24</ele>
        <time>2013-07-20T07:24:56Z</time>
      </trkpt>
      <trkpt lat="45.74077" lon="-0.66856">
        <ele>50.61</ele>
        <time>2013-07-20T07:25:12Z</time>
      </trkpt>
      <trkpt lat="45.74086" lon="-0.66988">
        <ele>53.01</ele>
        <time>2013-07-20T07:25:31Z</time>
      </trkpt>
      <trkpt lat="45.74098" lon="-0.67043">
        <ele>53.01</ele>
        <time>2013-07-20T07:25:38Z</time>
      </trkpt>
      <trkpt lat="45.74159" lon="-0.67163">
        <ele>54.93</ele>
        <time>2013-07-20T07:25:55Z</time>
      </trkpt>
      <trkpt lat="45.74254" lon="-0.67239">
        <ele>57.34</ele>
        <time>2013-07-20T07:26:12Z</time>
      </trkpt>
      <trkpt lat="45.74351" lon="-0.67304">
        <ele>59.26</ele>
        <time>2013-07-20T07:26:28Z</time>
      </trkpt>
      <trkpt lat="45.7445" lon="-0.67401">
        <ele>61.66</ele>
        <time>2013-07-20T07:26:46Z</time>
      </trkpt>
      <trkpt lat="45.74506" lon="-0.67511">
        <ele>63.1</ele>
        <time>2013-07-20T07:27:01Z</time>
      </trkpt>
      <trkpt lat="45.74509" lon="-0.67519">
        <ele>63.1</ele>
        <time>2013-07-20T07:27:02Z</time>
      </trkpt>
      <trkpt lat="45.7454" lon="-0.67672">
        <ele>64.55</ele>
        <time>2013-07-20T07:27:19Z</time>
      </trkpt>
      <trkpt lat="45.74538" lon="-0.67838">
        <ele>67.91</ele>
        <time>2013-07-20T07:27:36Z</time>
      </trkpt>
      <trkpt lat="45.74534" lon="-0.67933">
        <ele>69.83</ele>
        <time>2013-07-20T07:27:49Z</time>
      </trkpt>
      <trkpt lat="45.74531" lon="-0.68044">
        <ele>70.79</ele>
        <time>2013-07-20T07:28:03Z</time>
      </trkpt>
      <trkpt lat="45.74524" lon="-0.68198">
        <ele>72.72</ele>
        <time>2013-07-20T07:28:20Z</time>
      </trkpt>
      <trkpt lat="45.74528" lon="-0.68417">
        <ele>73.2</ele>
        <time>2013-07-20T07:28:41Z</time>
      </trkpt>
      <trkpt lat="45.74547" lon="-0.68629">
        <ele>70.79</ele>
        <time>2013-07-20T07:28:59Z</time>
      </trkpt>
      <trkpt lat="45.74563" lon="-0.68804">
        <ele>67.43</ele>
        <time>2013-07-20T07:29:12Z</time>
      </trkpt>
      <trkpt lat="45.74568" lon="-0.68861">
        <ele>66.47</ele>
        <time>2013-07-20T07:29:16Z</time>
      </trkpt>
      <trkpt lat="45.74576" lon="-0.68951">
        <ele>64.07</ele>
        <time>2013-07-20T07:29:22Z</time>
      </trkpt>
      <trkpt lat="45.74584" lon="-0.69063">
        <ele>60.7</ele>
        <time>2013-07-20T07:29:29Z</time>
      </trkpt>
      <trkpt lat="45.74585" lon="-0.69079">
        <ele>60.22</ele>
        <time>2013-07-20T07:29:30Z</time>
      </trkpt>
      <trkpt lat="45.74588" lon="-0.69127">
        <ele>59.74</ele>
        <time>2013-07-20T07:29:33Z</time>
      </trkpt>
      <trkpt lat="45.7459" lon="-0.69141">
        <ele>59.74</ele>
        <time>2013-07-20T07:29:34Z</time>
      </trkpt>
      <trkpt lat="45.74604" lon="-0.69197">
        <ele>59.74</ele>
        <time>2013-07-20T07:29:38Z</time>
      </trkpt>
      <trkpt lat="45.74609" lon="-0.6921">
        <ele>59.74</ele>
        <time>2013-07-20T07:29:39Z</time>
      </trkpt>
      <trkpt lat="45.74639" lon="-0.69342">
        <ele>58.78</ele>
        <time>2013-07-20T07:29:49Z</time>
      </trkpt>
      <trkpt lat="45.74665" lon="-0.69642">
        <ele>58.78</ele>
        <time>2013-07-20T07:30:11Z</time>
      </trkpt>
      <trkpt lat="45.74688" lon="-0.69885">
        <ele>56.37</ele>
        <time>2013-07-20T07:30:29Z</time>
      </trkpt>
      <trkpt lat="45.74697" lon="-0.6999">
        <ele>53.49</ele>
        <time>2013-07-20T07:30:36Z</time>
      </trkpt>
      <trkpt lat="45.74701" lon="-0.70253">
        <ele>50.61</ele>
        <time>2013-07-20T07:30:53Z</time>
      </trkpt>
      <trkpt lat="45.74668" lon="-0.70524">
        <ele>50.61</ele>
        <time>2013-07-20T07:31:12Z</time>
      </trkpt>
      <trkpt lat="45.74642" lon="-0.70715">
        <ele>53.49</ele>
        <time>2013-07-20T07:31:29Z</time>
      </trkpt>
      <trkpt lat="45.74618" lon="-0.70888">
        <ele>53.97</ele>
        <time>2013-07-20T07:31:47Z</time>
      </trkpt>
      <trkpt lat="45.7461" lon="-0.70953">
        <ele>51.57</ele>
        <time>2013-07-20T07:31:53Z</time>
      </trkpt>
      <trkpt lat="45.74594" lon="-0.71072">
        <ele>48.2</ele>
        <time>2013-07-20T07:32:02Z</time>
      </trkpt>
      <trkpt lat="45.74576" lon="-0.71204">
        <ele>51.09</ele>
        <time>2013-07-20T07:32:13Z</time>
      </trkpt>
      <trkpt lat="45.74575" lon="-0.71213">
        <ele>51.57</ele>
        <time>2013-07-20T07:32:14Z</time>
      </trkpt>
      <trkpt lat="45.74561" lon="-0.71325">
        <ele>53.01</ele>
        <time>2013-07-20T07:32:26Z</time>
      </trkpt>
      <trkpt lat="45.74535" lon="-0.71506">
        <ele>53.01</ele>
        <time>2013-07-20T07:32:42Z</time>
      </trkpt>
      <trkpt lat="45.74506" lon="-0.717">
        <ele>50.13</ele>
        <time>2013-07-20T07:32:58Z</time>
      </trkpt>
      <trkpt lat="45.74492" lon="-0.71796">
        <ele>48.2</ele>
        <time>2013-07-20T07:33:05Z</time>
      </trkpt>
      <trkpt lat="45.74453" lon="-0.7206">
        <ele>45.8</ele>
        <time>2013-07-20T07:33:23Z</time>
      </trkpt>
      <trkpt lat="45.7442" lon="-0.72282">
        <ele>44.36</ele>
        <time>2013-07-20T07:33:41Z</time>
      </trkpt>
      <trkpt lat="45.74387" lon="-0.7251">
        <ele>45.8</ele>
        <time>2013-07-20T07:33:59Z</time>
      </trkpt>
      <trkpt lat="45.74348" lon="-0.72677">
        <ele>43.4</ele>
        <time>2013-07-20T07:34:14Z</time>
      </trkpt>
      <trkpt lat="45.74303" lon="-0.72833">
        <ele>40.03</ele>
        <time>2013-07-20T07:34:26Z</time>
      </trkpt>
      <trkpt lat="45.74239" lon="-0.73066">
        <ele>39.07</ele>
        <time>2013-07-20T07:34:45Z</time>
      </trkpt>
      <trkpt lat="45.74188" lon="-0.73251">
        <ele>40.99</ele>
        <time>2013-07-20T07:35:02Z</time>
      </trkpt>
      <trkpt lat="45.74138" lon="-0.73431">
        <ele>39.55</ele>
        <time>2013-07-20T07:35:20Z</time>
      </trkpt>
      <trkpt lat="45.74125" lon="-0.73478">
        <ele>38.11</ele>
        <time>2013-07-20T07:35:24Z</time>
      </trkpt>
      <trkpt lat="45.74078" lon="-0.73622">
        <ele>40.03</ele>
        <time>2013-07-20T07:35:37Z</time>
      </trkpt>
      <trkpt lat="45.74013" lon="-0.73751">
        <ele>41.95</ele>
        <time>2013-07-20T07:35:53Z</time>
      </trkpt>
      <trkpt lat="45.73948" lon="-0.73917">
        <ele>40.51</ele>
        <time>2013-07-20T07:36:10Z</time>
      </trkpt>
      <trkpt lat="45.73935" lon="-0.7395">
        <ele>39.07</ele>
        <time>2013-07-20T07:36:13Z</time>
      </trkpt>
      <trkpt lat="45.73908" lon="-0.74018">
        <ele>37.15</ele>
        <time>2013-07-20T07:36:19Z</time>
      </trkpt>
      <trkpt lat="45.7385" lon="-0.74165">
        <ele>37.15</ele>
        <time>2013-07-20T07:36:33Z</time>
      </trkpt>
      <trkpt lat="45.73804" lon="-0.74288">
        <ele>39.55</ele>
        <time>2013-07-20T07:36:47Z</time>
      </trkpt>
      <trkpt lat="45.73766" lon="-0.74415">
        <ele>43.4</ele>
        <time>2013-07-20T07:37:01Z</time>
      </trkpt>
      <trkpt lat="45.7373" lon="-0.74536">
        <ele>44.36</ele>
        <time>2013-07-20T07:37:15Z</time>
      </trkpt>
      <trkpt lat="45.73683" lon="-0.7466">
        <ele>44.84</ele>
        <time>2013-07-20T07:37:29Z</time>
      </trkpt>
      <trkpt lat="45.73624" lon="-0.74814">
        <ele>44.36</ele>
        <time>2013-07-20T07:37:46Z</time>
      </trkpt>
      <trkpt lat="45.73563" lon="-0.74985">
        <ele>41.95</ele>
        <time>2013-07-20T07:38:01Z</time>
      </trkpt>
      <trkpt lat="45.73512" lon="-0.75167">
        <ele>39.55</ele>
        <time>2013-07-20T07:38:16Z</time>
      </trkpt>
      <trkpt lat="45.73471" lon="-0.75333">
        <ele>36.67</ele>
        <time>2013-07-20T07:38:29Z</time>
      </trkpt>
      <trkpt lat="45.73414" lon="-0.75579">
        <ele>35.71</ele>
        <time>2013-07-20T07:38:48Z</time>
      </trkpt>
      <trkpt lat="45.73378" lon="-0.75779">
        <ele>32.82</ele>
        <time>2013-07-20T07:39:04Z</time>
      </trkpt>
      <trkpt lat="45.73371" lon="-0.75821">
        <ele>31.38</ele>
        <time>2013-07-20T07:39:07Z</time>
      </trkpt>
      <trkpt lat="45.7334" lon="-0.75992">
        <ele>31.38</ele>
        <time>2013-07-20T07:39:20Z</time>
      </trkpt>
      <trkpt lat="45.73342" lon="-0.76167">
        <ele>30.42</ele>
        <time>2013-07-20T07:39:34Z</time>
      </trkpt>
      <trkpt lat="45.73339" lon="-0.76295">
        <ele>27.05</ele>
        <time>2013-07-20T07:39:44Z</time>
      </trkpt>
      <trkpt lat="45.73315" lon="-0.76458">
        <ele>25.61</ele>
        <time>2013-07-20T07:39:56Z</time>
      </trkpt>
      <trkpt lat="45.73294" lon="-0.76613">
        <ele>27.53</ele>
        <time>2013-07-20T07:40:10Z</time>
      </trkpt>
      <trkpt lat="45.73275" lon="-0.76819">
        <ele>29.46</ele>
        <time>2013-07-20T07:40:30Z</time>
      </trkpt>
      <trkpt lat="45.73287" lon="-0.76959">
        <ele>28.02</ele>
        <time>2013-07-20T07:40:43Z</time>
      </trkpt>
      <trkpt lat="45.73338" lon="-0.77141">
        <ele>27.05</ele>
        <time>2013-07-20T07:40:58Z</time>
      </trkpt>
      <trkpt lat="45.73418" lon="-0.77378">
        <ele>25.13</ele>
        <time>2013-07-20T07:41:18Z</time>
      </trkpt>
      <trkpt lat="45.73495" lon="-0.77612">
        <ele>24.65</ele>
        <time>2013-07-20T07:41:37Z</time>
      </trkpt>
      <trkpt lat="45.73546" lon="-0.77766">
        <ele>28.02</ele>
        <time>2013-07-20T07:41:52Z</time>
      </trkpt>
      <trkpt lat="45.73592" lon="-0.77891">
        <ele>30.9</ele>
        <time>2013-07-20T07:42:07Z</time>
      </trkpt>
      <trkpt lat="45.73647" lon="-0.78017">
        <ele>32.34</ele>
        <time>2013-07-20T07:42:23Z</time>
      </trkpt>
      <trkpt lat="45.73664" lon="-0.78057">
        <ele>32.34</ele>
        <time>2013-07-20T07:42:28Z</time>
      </trkpt>
      <trkpt lat="45.73709" lon="-0.78212">
        <ele>31.38</ele>
        <time>2013-07-20T07:42:44Z</time>
      </trkpt>
      <trkpt lat="45.73732" lon="-0.78373">
        <ele>34.74</ele>
        <time>2013-07-20T07:43:01Z</time>
      </trkpt>
      <trkpt lat="45.7375" lon="-0.78539">
        <ele>34.74</ele>
        <time>2013-07-20T07:43:19Z</time>
      </trkpt>
      <trkpt lat="45.73772" lon="-0.78734">
        <ele>32.82</ele>
        <time>2013-07-20T07:43:35Z</time>
      </trkpt>
      <trkpt lat="45.73791" lon="-0.78908">
        <ele>36.19</ele>
        <time>2013-07-20T07:43:50Z</time>
      </trkpt>
      <trkpt lat="45.73809" lon="-0.79102">
        <ele>37.63</ele>
        <time>2013-07-20T07:44:09Z</time>
      </trkpt>
      <trkpt lat="45.73816" lon="-0.79243">
        <ele>34.26</ele>
        <time>2013-07-20T07:44:21Z</time>
      </trkpt>
      <trkpt lat="45.73824" lon="-0.79355">
        <ele>31.38</ele>
        <time>2013-07-20T07:44:29Z</time>
      </trkpt>
      <trkpt lat="45.73828" lon="-0.79448">
        <ele>28.02</ele>
        <time>2013-07-20T07:44:35Z</time>
      </trkpt>
      <trkpt lat="45.73838" lon="-0.79643">
        <ele>28.98</ele>
        <time>2013-07-20T07:44:49Z</time>
      </trkpt>
      <trkpt lat="45.73849" lon="-0.79848">
        <ele>29.94</ele>
        <time>2013-07-20T07:45:06Z</time>
      </trkpt>
      <trkpt lat="45.73862" lon="-0.80093">
        <ele>31.86</ele>
        <time>2013-07-20T07:45:29Z</time>
      </trkpt>
      <trkpt lat="45.73873" lon="-0.80306">
        <ele>32.82</ele>
        <time>2013-07-20T07:45:49Z</time>
      </trkpt>
      <trkpt lat="45.73888" lon="-0.80492">
        <ele>33.78</ele>
        <time>2013-07-20T07:46:06Z</time>
      </trkpt>
      <trkpt lat="45.73917" lon="-0.80665">
        <ele>36.19</ele>
        <time>2013-07-20T07:46:23Z</time>
      </trkpt>
      <trkpt lat="45.7397" lon="-0.80813">
        <ele>37.63</ele>
        <time>2013-07-20T07:46:40Z</time>
      </trkpt>
      <trkpt lat="45.74013" lon="-0.80972">
        <ele>37.15</ele>
        <time>2013-07-20T07:46:55Z</time>
      </trkpt>
      <trkpt lat="45.74046" lon="-0.81191">
        <ele>34.74</ele>
        <time>2013-07-20T07:47:12Z</time>
      </trkpt>
      <trkpt lat="45.74033" lon="-0.81305">
        <ele>33.3</ele>
        <time>2013-07-20T07:47:21Z</time>
      </trkpt>
      <trkpt lat="45.73989" lon="-0.81452">
        <ele>32.34</ele>
        <time>2013-07-20T07:47:35Z</time>
      </trkpt>
      <trkpt lat="45.73988" lon="-0.81463">
        <ele>32.34</ele>
        <time>2013-07-20T07:47:37Z</time>
      </trkpt>
      <trkpt lat="45.73989" lon="-0.8147">
        <ele>32.34</ele>
        <time>2013-07-20T07:47:38Z</time>
      </trkpt>
      <trkpt lat="45.73989" lon="-0.81477">
        <ele>32.34</ele>
        <time>2013-07-20T07:47:39Z</time>
      </trkpt>
      <trkpt lat="45.73989" lon="-0.81484">
        <ele>32.34</ele>
        <time>2013-07-20T07:47:40Z</time>
      </trkpt>
      <trkpt lat="45.73986" lon="-0.8149">
        <ele>32.34</ele>
        <time>2013-07-20T07:47:41Z</time>
      </trkpt>
      <trkpt lat="45.73983" lon="-0.81496">
        <ele>32.34</ele>
        <time>2013-07-20T07:47:42Z</time>
      </trkpt>
      <trkpt lat="45.73979" lon="-0.815">
        <ele>32.34</ele>
        <time>2013-07-20T07:47:43Z</time>
      </trkpt>
      <trkpt lat="45.73973" lon="-0.81505">
        <ele>32.34</ele>
        <time>2013-07-20T07:47:44Z</time>
      </trkpt>
      <trkpt lat="45.73969" lon="-0.81512">
        <ele>31.86</ele>
        <time>2013-07-20T07:47:45Z</time>
      </trkpt>
      <trkpt lat="45.73965" lon="-0.8152">
        <ele>32.34</ele>
        <time>2013-07-20T07:47:46Z</time>
      </trkpt>
      <trkpt lat="45.73962" lon="-0.8153">
        <ele>32.34</ele>
        <time>2013-07-20T07:47:47Z</time>
      </trkpt>
      <trkpt lat="45.73958" lon="-0.8154">
        <ele>32.34</ele>
        <time>2013-07-20T07:47:48Z</time>
      </trkpt>
      <trkpt lat="45.73921" lon="-0.81655">
        <ele>30.9</ele>
        <time>2013-07-20T07:47:58Z</time>
      </trkpt>
      <trkpt lat="45.73869" lon="-0.81819">
        <ele>27.53</ele>
        <time>2013-07-20T07:48:11Z</time>
      </trkpt>
      <trkpt lat="45.73785" lon="-0.82087">
        <ele>26.57</ele>
        <time>2013-07-20T07:48:32Z</time>
      </trkpt>
      <trkpt lat="45.73774" lon="-0.82227">
        <ele>27.53</ele>
        <time>2013-07-20T07:48:43Z</time>
      </trkpt>
      <trkpt lat="45.73812" lon="-0.82367">
        <ele>28.02</ele>
        <time>2013-07-20T07:48:55Z</time>
      </trkpt>
      <trkpt lat="45.73873" lon="-0.82517">
        <ele>27.05</ele>
        <time>2013-07-20T07:49:10Z</time>
      </trkpt>
      <trkpt lat="45.73924" lon="-0.82671">
        <ele>28.98</ele>
        <time>2013-07-20T07:49:25Z</time>
      </trkpt>
      <trkpt lat="45.73931" lon="-0.82815">
        <ele>32.34</ele>
        <time>2013-07-20T07:49:39Z</time>
      </trkpt>
      <trkpt lat="45.73939" lon="-0.82962">
        <ele>32.82</ele>
        <time>2013-07-20T07:49:57Z</time>
      </trkpt>
      <trkpt lat="45.73965" lon="-0.83068">
        <ele>31.86</ele>
        <time>2013-07-20T07:50:09Z</time>
      </trkpt>
      <trkpt lat="45.74037" lon="-0.83229">
        <ele>32.34</ele>
        <time>2013-07-20T07:50:26Z</time>
      </trkpt>
      <trkpt lat="45.74112" lon="-0.83386">
        <ele>32.34</ele>
        <time>2013-07-20T07:50:43Z</time>
      </trkpt>
      <trkpt lat="45.74184" lon="-0.83553">
        <ele>33.3</ele>
        <time>2013-07-20T07:51:01Z</time>
      </trkpt>
      <trkpt lat="45.74206" lon="-0.83703">
        <ele>29.94</ele>
        <time>2013-07-20T07:51:14Z</time>
      </trkpt>
      <trkpt lat="45.7421" lon="-0.83744">
        <ele>28.5</ele>
        <time>2013-07-20T07:51:17Z</time>
      </trkpt>
      <trkpt lat="45.7423" lon="-0.83908">
        <ele>29.94</ele>
        <time>2013-07-20T07:51:31Z</time>
      </trkpt>
      <trkpt lat="45.74251" lon="-0.84093">
        <ele>31.38</ele>
        <time>2013-07-20T07:51:49Z</time>
      </trkpt>
      <trkpt lat="45.74271" lon="-0.84268">
        <ele>31.86</ele>
        <time>2013-07-20T07:52:05Z</time>
      </trkpt>
      <trkpt lat="45.74298" lon="-0.84506">
        <ele>33.78</ele>
        <time>2013-07-20T07:52:27Z</time>
      </trkpt>
      <trkpt lat="45.74303" lon="-0.84739">
        <ele>32.82</ele>
        <time>2013-07-20T07:52:47Z</time>
      </trkpt>
      <trkpt lat="45.74299" lon="-0.84927">
        <ele>32.34</ele>
        <time>2013-07-20T07:53:03Z</time>
      </trkpt>
      <trkpt lat="45.74297" lon="-0.85065">
        <ele>34.74</ele>
        <time>2013-07-20T07:53:16Z</time>
      </trkpt>
      <trkpt lat="45.74293" lon="-0.85262">
        <ele>35.71</ele>
        <time>2013-07-20T07:53:35Z</time>
      </trkpt>
      <trkpt lat="45.7429" lon="-0.85468">
        <ele>36.67</ele>
        <time>2013-07-20T07:53:54Z</time>
      </trkpt>
      <trkpt lat="45.74285" lon="-0.85682">
        <ele>37.63</ele>
        <time>2013-07-20T07:54:13Z</time>
      </trkpt>
      <trkpt lat="45.74283" lon="-0.8587">
        <ele>36.67</ele>
        <time>2013-07-20T07:54:30Z</time>
      </trkpt>
      <trkpt lat="45.743" lon="-0.86056">
        <ele>37.15</ele>
        <time>2013-07-20T07:54:46Z</time>
      </trkpt>
      <trkpt lat="45.74342" lon="-0.86224">
        <ele>36.19</ele>
        <time>2013-07-20T07:55:02Z</time>
      </trkpt>
      <trkpt lat="45.74368" lon="-0.86312">
        <ele>35.71</ele>
        <time>2013-07-20T07:55:11Z</time>
      </trkpt>
      <trkpt lat="45.74426" lon="-0.86507">
        <ele>37.63</ele>
        <time>2013-07-20T07:55:30Z</time>
      </trkpt>
      <trkpt lat="45.74478" lon="-0.86685">
        <ele>37.63</ele>
        <time>2013-07-20T07:55:47Z</time>
      </trkpt>
      <trkpt lat="45.74512" lon="-0.86856">
        <ele>36.67</ele>
        <time>2013-07-20T07:56:03Z</time>
      </trkpt>
      <trkpt lat="45.74515" lon="-0.87045">
        <ele>38.11</ele>
        <time>2013-07-20T07:56:19Z</time>
      </trkpt>
      <trkpt lat="45.74507" lon="-0.87214">
        <ele>36.19</ele>
        <time>2013-07-20T07:56:34Z</time>
      </trkpt>
      <trkpt lat="45.74498" lon="-0.874">
        <ele>36.67</ele>
        <time>2013-07-20T07:56:50Z</time>
      </trkpt>
      <trkpt lat="45.7449" lon="-0.87584">
        <ele>36.67</ele>
        <time>2013-07-20T07:57:06Z</time>
      </trkpt>
      <trkpt lat="45.74481" lon="-0.87757">
        <ele>33.78</ele>
        <time>2013-07-20T07:57:21Z</time>
      </trkpt>
      <trkpt lat="45.74481" lon="-0.8787">
        <ele>31.38</ele>
        <time>2013-07-20T07:57:31Z</time>
      </trkpt>
      <trkpt lat="45.74484" lon="-0.87942">
        <ele>30.9</ele>
        <time>2013-07-20T07:57:37Z</time>
      </trkpt>
      <trkpt lat="45.74493" lon="-0.88045">
        <ele>30.9</ele>
        <time>2013-07-20T07:57:47Z</time>
      </trkpt>
      <trkpt lat="45.74494" lon="-0.88054">
        <ele>31.38</ele>
        <time>2013-07-20T07:57:48Z</time>
      </trkpt>
      <trkpt lat="45.74495" lon="-0.88072">
        <ele>30.9</ele>
        <time>2013-07-20T07:57:50Z</time>
      </trkpt>
      <trkpt lat="45.74497" lon="-0.8808">
        <ele>30.9</ele>
        <time>2013-07-20T07:57:51Z</time>
      </trkpt>
      <trkpt lat="45.74502" lon="-0.88152">
        <ele>29.46</ele>
        <time>2013-07-20T07:58:02Z</time>
      </trkpt>
      <trkpt lat="45.74502" lon="-0.88157">
        <ele>29.46</ele>
        <time>2013-07-20T07:58:09Z</time>
      </trkpt>
      <trkpt lat="45.74502" lon="-0.8816">
        <ele>28.98</ele>
        <time>2013-07-20T07:58:10Z</time>
      </trkpt>
      <trkpt lat="45.74504" lon="-0.88184">
        <ele>28.98</ele>
        <time>2013-07-20T07:58:15Z</time>
      </trkpt>
      <trkpt lat="45.74503" lon="-0.88302">
        <ele>26.09</ele>
        <time>2013-07-20T07:58:28Z</time>
      </trkpt>
      <trkpt lat="45.74504" lon="-0.88312">
        <ele>26.57</ele>
        <time>2013-07-20T07:58:29Z</time>
      </trkpt>
      <trkpt lat="45.74505" lon="-0.88323">
        <ele>26.09</ele>
        <time>2013-07-20T07:58:30Z</time>
      </trkpt>
      <trkpt lat="45.74507" lon="-0.88333">
        <ele>26.09</ele>
        <time>2013-07-20T07:58:31Z</time>
      </trkpt>
      <trkpt lat="45.7451" lon="-0.88343">
        <ele>26.57</ele>
        <time>2013-07-20T07:58:32Z</time>
      </trkpt>
      <trkpt lat="45.74513" lon="-0.88353">
        <ele>26.09</ele>
        <time>2013-07-20T07:58:33Z</time>
      </trkpt>
      <trkpt lat="45.74545" lon="-0.88459">
        <ele>28.02</ele>
        <time>2013-07-20T07:58:45Z</time>
      </trkpt>
      <trkpt lat="45.74566" lon="-0.88628">
        <ele>29.94</ele>
        <time>2013-07-20T07:59:03Z</time>
      </trkpt>
      <trkpt lat="45.74595" lon="-0.88847">
        <ele>29.94</ele>
        <time>2013-07-20T07:59:24Z</time>
      </trkpt>
      <trkpt lat="45.74618" lon="-0.89037">
        <ele>30.42</ele>
        <time>2013-07-20T07:59:41Z</time>
      </trkpt>
      <trkpt lat="45.74649" lon="-0.89291">
        <ele>30.9</ele>
        <time>2013-07-20T08:00:03Z</time>
      </trkpt>
      <trkpt lat="45.74677" lon="-0.89519">
        <ele>31.38</ele>
        <time>2013-07-20T08:00:22Z</time>
      </trkpt>
      <trkpt lat="45.74709" lon="-0.89779">
        <ele>28.98</ele>
        <time>2013-07-20T08:00:42Z</time>
      </trkpt>
      <trkpt lat="45.74723" lon="-0.89892">
        <ele>26.09</ele>
        <time>2013-07-20T08:00:50Z</time>
      </trkpt>
      <trkpt lat="45.74757" lon="-0.90078">
        <ele>24.17</ele>
        <time>2013-07-20T08:01:03Z</time>
      </trkpt>
      <trkpt lat="45.74812" lon="-0.90231">
        <ele>26.09</ele>
        <time>2013-07-20T08:01:17Z</time>
      </trkpt>
      <trkpt lat="45.74871" lon="-0.90433">
        <ele>27.53</ele>
        <time>2013-07-20T08:01:36Z</time>
      </trkpt>
      <trkpt lat="45.74917" lon="-0.90599">
        <ele>28.98</ele>
        <time>2013-07-20T08:01:52Z</time>
      </trkpt>
      <trkpt lat="45.74983" lon="-0.9083">
        <ele>30.9</ele>
        <time>2013-07-20T08:02:15Z</time>
      </trkpt>
      <trkpt lat="45.75021" lon="-0.90998">
        <ele>31.38</ele>
        <time>2013-07-20T08:02:32Z</time>
      </trkpt>
      <trkpt lat="45.75051" lon="-0.91176">
        <ele>29.46</ele>
        <time>2013-07-20T08:02:50Z</time>
      </trkpt>
      <trkpt lat="45.75074" lon="-0.91318">
        <ele>26.09</ele>
        <time>2013-07-20T08:03:02Z</time>
      </trkpt>
      <trkpt lat="45.75079" lon="-0.91372">
        <ele>25.13</ele>
        <time>2013-07-20T08:03:09Z</time>
      </trkpt>
      <trkpt lat="45.75076" lon="-0.91376">
        <ele>25.13</ele>
        <time>2013-07-20T08:03:10Z</time>
      </trkpt>
      <trkpt lat="45.75072" lon="-0.91377">
        <ele>25.13</ele>
        <time>2013-07-20T08:03:11Z</time>
      </trkpt>
      <trkpt lat="45.75067" lon="-0.91378">
        <ele>24.65</ele>
        <time>2013-07-20T08:03:12Z</time>
      </trkpt>
      <trkpt lat="45.75062" lon="-0.91379">
        <ele>25.13</ele>
        <time>2013-07-20T08:03:13Z</time>
      </trkpt>
      <trkpt lat="45.75057" lon="-0.9138">
        <ele>25.13</ele>
        <time>2013-07-20T08:03:14Z</time>
      </trkpt>
      <trkpt lat="45.74988" lon="-0.91406">
        <ele>24.65</ele>
        <time>2013-07-20T08:03:26Z</time>
      </trkpt>
      <trkpt lat="45.749" lon="-0.91444">
        <ele>25.13</ele>
        <time>2013-07-20T08:03:42Z</time>
      </trkpt>
      <trkpt lat="45.74811" lon="-0.91481">
        <ele>25.61</ele>
        <time>2013-07-20T08:03:56Z</time>
      </trkpt>
      <trkpt lat="45.74696" lon="-0.91529">
        <ele>26.09</ele>
        <time>2013-07-20T08:04:13Z</time>
      </trkpt>
      <trkpt lat="45.74594" lon="-0.91571">
        <ele>26.09</ele>
        <time>2013-07-20T08:04:28Z</time>
      </trkpt>
      <trkpt lat="45.74513" lon="-0.91644">
        <ele>25.61</ele>
        <time>2013-07-20T08:04:41Z</time>
      </trkpt>
      <trkpt lat="45.74439" lon="-0.91747">
        <ele>25.13</ele>
        <time>2013-07-20T08:04:55Z</time>
      </trkpt>
      <trkpt lat="45.74363" lon="-0.91852">
        <ele>25.61</ele>
        <time>2013-07-20T08:05:11Z</time>
      </trkpt>
      <trkpt lat="45.74307" lon="-0.9193">
        <ele>22.25</ele>
        <time>2013-07-20T08:05:22Z</time>
      </trkpt>
      <trkpt lat="45.74212" lon="-0.92064">
        <ele>19.84</ele>
        <time>2013-07-20T08:05:38Z</time>
      </trkpt>
      <trkpt lat="45.7412" lon="-0.92218">
        <ele>17.44</ele>
        <time>2013-07-20T08:05:55Z</time>
      </trkpt>
      <trkpt lat="45.74045" lon="-0.92347">
        <ele>16.96</ele>
        <time>2013-07-20T08:06:09Z</time>
      </trkpt>
      <trkpt lat="45.7395" lon="-0.92494">
        <ele>14.56</ele>
        <time>2013-07-20T08:06:26Z</time>
      </trkpt>
      <trkpt lat="45.7386" lon="-0.92627">
        <ele>12.63</ele>
        <time>2013-07-20T08:06:42Z</time>
      </trkpt>
      <trkpt lat="45.73777" lon="-0.92718">
        <ele>11.67</ele>
        <time>2013-07-20T08:06:56Z</time>
      </trkpt>
      <trkpt lat="45.73669" lon="-0.92829">
        <ele>10.71</ele>
        <time>2013-07-20T08:07:13Z</time>
      </trkpt>
      <trkpt lat="45.73577" lon="-0.92923">
        <ele>10.71</ele>
        <time>2013-07-20T08:07:28Z</time>
      </trkpt>
      <trkpt lat="45.73498" lon="-0.93026">
        <ele>10.23</ele>
        <time>2013-07-20T08:07:43Z</time>
      </trkpt>
      <trkpt lat="45.73465" lon="-0.93138">
        <ele>10.23</ele>
        <time>2013-07-20T08:07:56Z</time>
      </trkpt>
      <trkpt lat="45.73436" lon="-0.93295">
        <ele>11.67</ele>
        <time>2013-07-20T08:08:13Z</time>
      </trkpt>
      <trkpt lat="45.73413" lon="-0.93403">
        <ele>12.63</ele>
        <time>2013-07-20T08:08:26Z</time>
      </trkpt>
      <trkpt lat="45.73368" lon="-0.93497">
        <ele>14.08</ele>
        <time>2013-07-20T08:08:40Z</time>
      </trkpt>
      <trkpt lat="45.73312" lon="-0.93556">
        <ele>13.12</ele>
        <time>2013-07-20T08:08:52Z</time>
      </trkpt>
      <trkpt lat="45.73238" lon="-0.93611">
        <ele>13.12</ele>
        <time>2013-07-20T08:09:06Z</time>
      </trkpt>
      <trkpt lat="45.73132" lon="-0.9369">
        <ele>12.15</ele>
        <time>2013-07-20T08:09:23Z</time>
      </trkpt>
      <trkpt lat="45.73036" lon="-0.93779">
        <ele>10.23</ele>
        <time>2013-07-20T08:09:39Z</time>
      </trkpt>
      <trkpt lat="45.72937" lon="-0.93883">
        <ele>7.35</ele>
        <time>2013-07-20T08:09:57Z</time>
      </trkpt>
      <trkpt lat="45.72913" lon="-0.93908">
        <ele>6.87</ele>
        <time>2013-07-20T08:10:02Z</time>
      </trkpt>
      <trkpt lat="45.72904" lon="-0.93917">
        <ele>6.87</ele>
        <time>2013-07-20T08:10:04Z</time>
      </trkpt>
      <trkpt lat="45.72901" lon="-0.93922">
        <ele>6.87</ele>
        <time>2013-07-20T08:10:05Z</time>
      </trkpt>
      <trkpt lat="45.72892" lon="-0.93931">
        <ele>6.39</ele>
        <time>2013-07-20T08:10:10Z</time>
      </trkpt>
      <trkpt lat="45.72892" lon="-0.93933">
        <ele>6.39</ele>
        <time>2013-07-20T08:10:11Z</time>
      </trkpt>
      <trkpt lat="45.72891" lon="-0.93936">
        <ele>6.39</ele>
        <time>2013-07-20T08:10:12Z</time>
      </trkpt>
      <trkpt lat="45.72891" lon="-0.93939">
        <ele>6.39</ele>
        <time>2013-07-20T08:10:13Z</time>
      </trkpt>
      <trkpt lat="45.72892" lon="-0.93943">
        <ele>6.39</ele>
        <time>2013-07-20T08:10:14Z</time>
      </trkpt>
      <trkpt lat="45.72892" lon="-0.93947">
        <ele>5.91</ele>
        <time>2013-07-20T08:10:15Z</time>
      </trkpt>
      <trkpt lat="45.72892" lon="-0.93952">
        <ele>5.91</ele>
        <time>2013-07-20T08:10:16Z</time>
      </trkpt>
      <trkpt lat="45.72889" lon="-0.94003">
        <ele>5.42</ele>
        <time>2013-07-20T08:10:28Z</time>
      </trkpt>
      <trkpt lat="45.7289" lon="-0.94004">
        <ele>5.42</ele>
        <time>2013-07-20T08:10:31Z</time>
      </trkpt>
      <trkpt lat="45.72891" lon="-0.94004">
        <ele>5.42</ele>
        <time>2013-07-20T08:10:32Z</time>
      </trkpt>
      <trkpt lat="45.72892" lon="-0.94004">
        <ele>5.42</ele>
        <time>2013-07-20T08:10:33Z</time>
      </trkpt>
      <trkpt lat="45.72891" lon="-0.94005">
        <ele>5.42</ele>
        <time>2013-07-20T08:10:45Z</time>
      </trkpt>
      <trkpt lat="45.72888" lon="-0.94008">
        <ele>4.94</ele>
        <time>2013-07-20T08:10:50Z</time>
      </trkpt>
      <trkpt lat="45.72888" lon="-0.9401">
        <ele>4.94</ele>
        <time>2013-07-20T08:10:51Z</time>
      </trkpt>
      <trkpt lat="45.72886" lon="-0.94012">
        <ele>5.42</ele>
        <time>2013-07-20T08:10:52Z</time>
      </trkpt>
      <trkpt lat="45.72885" lon="-0.94015">
        <ele>4.94</ele>
        <time>2013-07-20T08:10:53Z</time>
      </trkpt>
      <trkpt lat="45.72883" lon="-0.94018">
        <ele>5.42</ele>
        <time>2013-07-20T08:10:54Z</time>
      </trkpt>
      <trkpt lat="45.72851" lon="-0.94077">
        <ele>4.94</ele>
        <time>2013-07-20T08:11:08Z</time>
      </trkpt>
      <trkpt lat="45.72843" lon="-0.94092">
        <ele>4.46</ele>
        <time>2013-07-20T08:11:11Z</time>
      </trkpt>
      <trkpt lat="45.72838" lon="-0.9412">
        <ele>4.46</ele>
        <time>2013-07-20T08:11:17Z</time>
      </trkpt>
      <trkpt lat="45.72841" lon="-0.94124">
        <ele>4.46</ele>
        <time>2013-07-20T08:11:18Z</time>
      </trkpt>
      <trkpt lat="45.72844" lon="-0.94126">
        <ele>4.46</ele>
        <time>2013-07-20T08:11:19Z</time>
      </trkpt>
      <trkpt lat="45.72847" lon="-0.94128">
        <ele>4.46</ele>
        <time>2013-07-20T08:11:20Z</time>
      </trkpt>
      <trkpt lat="45.7285" lon="-0.94128">
        <ele>4.46</ele>
        <time>2013-07-20T08:11:21Z</time>
      </trkpt>
      <trkpt lat="45.72853" lon="-0.94129">
        <ele>4.46</ele>
        <time>2013-07-20T08:11:22Z</time>
      </trkpt>
      <trkpt lat="45.72856" lon="-0.94128">
        <ele>4.46</ele>
        <time>2013-07-20T08:11:23Z</time>
      </trkpt>
      <trkpt lat="45.72858" lon="-0.94128">
        <ele>4.46</ele>
        <time>2013-07-20T08:11:24Z</time>
      </trkpt>
      <trkpt lat="45.7286" lon="-0.94127">
        <ele>4.94</ele>
        <time>2013-07-20T08:11:25Z</time>
      </trkpt>
      <trkpt lat="45.72864" lon="-0.94125">
        <ele>4.94</ele>
        <time>2013-07-20T08:11:37Z</time>
      </trkpt>
      <trkpt lat="45.72864" lon="-0.94126">
        <ele>4.94</ele>
        <time>2013-07-20T08:12:08Z</time>
      </trkpt>
      <trkpt lat="45.72862" lon="-0.94127">
        <ele>4.94</ele>
        <time>2013-07-20T08:12:44Z</time>
      </trkpt>
      <trkpt lat="45.72863" lon="-0.94131">
        <ele>4.94</ele>
        <time>2013-07-20T08:13:16Z</time>
      </trkpt>
      <trkpt lat="45.72862" lon="-0.94128">
        <ele>4.94</ele>
        <time>2013-07-20T08:13:40Z</time>
      </trkpt>
      <trkpt lat="45.72862" lon="-0.94128">
        <ele>4.94</ele>
        <time>2013-07-20T08:14:19Z</time>
      </trkpt>
      <trkpt lat="45.72862" lon="-0.94128">
        <ele>4.94</ele>
        <time>2013-07-20T08:14:50Z</time>
      </trkpt>
      <trkpt lat="45.72861" lon="-0.94126">
        <ele>4.94</ele>
        <time>2013-07-20T08:15:27Z</time>
      </trkpt>
      <trkpt lat="45.7286" lon="-0.94126">
        <ele>5.42</ele>
        <time>2013-07-20T08:16:01Z</time>
      </trkpt>
      <trkpt lat="45.72862" lon="-0.94125">
        <ele>5.42</ele>
        <time>2013-07-20T08:16:33Z</time>
      </trkpt>
      <trkpt lat="45.72863" lon="-0.94125">
        <ele>5.42</ele>
        <time>2013-07-20T08:16:59Z</time>
      </trkpt>
      <trkpt lat="45.72863" lon="-0.94125">
        <ele>5.42</ele>
        <time>2013-07-20T08:17:22Z</time>
      </trkpt>
      <trkpt lat="45.72865" lon="-0.94121">
        <ele>5.42</ele>
        <time>2013-07-20T08:17:53Z</time>
      </trkpt>
      <trkpt lat="45.72864" lon="-0.94124">
        <ele>5.42</ele>
        <time>2013-07-20T08:18:20Z</time>
      </trkpt>
      <trkpt lat="45.72863" lon="-0.94123">
        <ele>5.42</ele>
        <time>2013-07-20T08:18:48Z</time>
      </trkpt>
      <trkpt lat="45.72863" lon="-0.94126">
        <ele>5.42</ele>
        <time>2013-07-20T08:19:19Z</time>
      </trkpt>
      <trkpt lat="45.72864" lon="-0.94122">
        <ele>4.94</ele>
        <time>2013-07-20T08:19:52Z</time>
      </trkpt>
      <trkpt lat="45.72862" lon="-0.94121">
        <ele>4.94</ele>
        <time>2013-07-20T08:20:17Z</time>
      </trkpt>
      <trkpt lat="45.72863" lon="-0.94123">
        <ele>4.94</ele>
        <time>2013-07-20T08:20:52Z</time>
      </trkpt>
      <trkpt lat="45.72863" lon="-0.94126">
        <ele>4.94</ele>
        <time>2013-07-20T08:21:21Z</time>
      </trkpt>
      <trkpt lat="45.72861" lon="-0.94126">
        <ele>5.42</ele>
        <time>2013-07-20T08:21:40Z</time>
      </trkpt>
      <trkpt lat="45.72858" lon="-0.94129">
        <ele>4.94</ele>
        <time>2013-07-20T08:21:45Z</time>
      </trkpt>
      <trkpt lat="45.72857" lon="-0.94131">
        <ele>4.94</ele>
        <time>2013-07-20T08:21:46Z</time>
      </trkpt>
      <trkpt lat="45.72855" lon="-0.94133">
        <ele>4.94</ele>
        <time>2013-07-20T08:21:47Z</time>
      </trkpt>
      <trkpt lat="45.72853" lon="-0.94134">
        <ele>4.94</ele>
        <time>2013-07-20T08:21:48Z</time>
      </trkpt>
      <trkpt lat="45.7285" lon="-0.94135">
        <ele>4.94</ele>
        <time>2013-07-20T08:21:49Z</time>
      </trkpt>
      <trkpt lat="45.72847" lon="-0.94134">
        <ele>4.94</ele>
        <time>2013-07-20T08:21:50Z</time>
      </trkpt>
      <trkpt lat="45.72844" lon="-0.94133">
        <ele>4.46</ele>
        <time>2013-07-20T08:21:51Z</time>
      </trkpt>
      <trkpt lat="45.72829" lon="-0.94133">
        <ele>4.46</ele>
        <time>2013-07-20T08:21:55Z</time>
      </trkpt>
      <trkpt lat="45.72825" lon="-0.94135">
        <ele>4.46</ele>
        <time>2013-07-20T08:21:56Z</time>
      </trkpt>
      <trkpt lat="45.7282" lon="-0.94137">
        <ele>4.46</ele>
        <time>2013-07-20T08:21:57Z</time>
      </trkpt>
      <trkpt lat="45.72815" lon="-0.9414">
        <ele>4.46</ele>
        <time>2013-07-20T08:21:58Z</time>
      </trkpt>
      <trkpt lat="45.72811" lon="-0.94144">
        <ele>4.46</ele>
        <time>2013-07-20T08:21:59Z</time>
      </trkpt>
      <trkpt lat="45.72807" lon="-0.94148">
        <ele>4.46</ele>
        <time>2013-07-20T08:22:00Z</time>
      </trkpt>
      <trkpt lat="45.72802" lon="-0.94154">
        <ele>4.46</ele>
        <time>2013-07-20T08:22:01Z</time>
      </trkpt>
      <trkpt lat="45.72798" lon="-0.94159">
        <ele>4.46</ele>
        <time>2013-07-20T08:22:02Z</time>
      </trkpt>
      <trkpt lat="45.72731" lon="-0.94249">
        <ele>4.94</ele>
        <time>2013-07-20T08:22:17Z</time>
      </trkpt>
      <trkpt lat="45.7268" lon="-0.94313">
        <ele>5.42</ele>
        <time>2013-07-20T08:22:28Z</time>
      </trkpt>
      <trkpt lat="45.72675" lon="-0.9432">
        <ele>5.42</ele>
        <time>2013-07-20T08:22:29Z</time>
      </trkpt>
      <trkpt lat="45.72671" lon="-0.94326">
        <ele>5.42</ele>
        <time>2013-07-20T08:22:30Z</time>
      </trkpt>
      <trkpt lat="45.72628" lon="-0.94407">
        <ele>4.46</ele>
        <time>2013-07-20T08:22:43Z</time>
      </trkpt>
      <trkpt lat="45.72628" lon="-0.94413">
        <ele>4.46</ele>
        <time>2013-07-20T08:22:44Z</time>
      </trkpt>
      <trkpt lat="45.72628" lon="-0.9442">
        <ele>4.46</ele>
        <time>2013-07-20T08:22:45Z</time>
      </trkpt>
      <trkpt lat="45.7263" lon="-0.94426">
        <ele>4.46</ele>
        <time>2013-07-20T08:22:46Z</time>
      </trkpt>
      <trkpt lat="45.72632" lon="-0.94433">
        <ele>4.46</ele>
        <time>2013-07-20T08:22:47Z</time>
      </trkpt>
      <trkpt lat="45.72634" lon="-0.9444">
        <ele>4.94</ele>
        <time>2013-07-20T08:22:48Z</time>
      </trkpt>
      <trkpt lat="45.72659" lon="-0.94546">
        <ele>4.94</ele>
        <time>2013-07-20T08:23:03Z</time>
      </trkpt>
      <trkpt lat="45.72681" lon="-0.94632">
        <ele>4.94</ele>
        <time>2013-07-20T08:23:14Z</time>
      </trkpt>
      <trkpt lat="45.72688" lon="-0.94653">
        <ele>4.94</ele>
        <time>2013-07-20T08:23:17Z</time>
      </trkpt>
      <trkpt lat="45.72694" lon="-0.94666">
        <ele>4.94</ele>
        <time>2013-07-20T08:23:19Z</time>
      </trkpt>
      <trkpt lat="45.72746" lon="-0.94789">
        <ele>6.87</ele>
        <time>2013-07-20T08:23:36Z</time>
      </trkpt>
      <trkpt lat="45.72748" lon="-0.94795">
        <ele>6.87</ele>
        <time>2013-07-20T08:23:37Z</time>
      </trkpt>
      <trkpt lat="45.72748" lon="-0.94801">
        <ele>6.87</ele>
        <time>2013-07-20T08:23:38Z</time>
      </trkpt>
      <trkpt lat="45.72746" lon="-0.94804">
        <ele>6.87</ele>
        <time>2013-07-20T08:23:39Z</time>
      </trkpt>
      <trkpt lat="45.72743" lon="-0.94806">
        <ele>6.87</ele>
        <time>2013-07-20T08:23:40Z</time>
      </trkpt>
      <trkpt lat="45.7274" lon="-0.94806">
        <ele>6.87</ele>
        <time>2013-07-20T08:23:41Z</time>
      </trkpt>
      <trkpt lat="45.72737" lon="-0.94805">
        <ele>6.87</ele>
        <time>2013-07-20T08:23:42Z</time>
      </trkpt>
      <trkpt lat="45.72735" lon="-0.94804">
        <ele>6.87</ele>
        <time>2013-07-20T08:23:43Z</time>
      </trkpt>
      <trkpt lat="45.72711" lon="-0.94799">
        <ele>7.35</ele>
        <time>2013-07-20T08:23:49Z</time>
      </trkpt>
      <trkpt lat="45.72707" lon="-0.94799">
        <ele>7.35</ele>
        <time>2013-07-20T08:23:50Z</time>
      </trkpt>
      <trkpt lat="45.72702" lon="-0.948">
        <ele>7.35</ele>
        <time>2013-07-20T08:23:51Z</time>
      </trkpt>
      <trkpt lat="45.72688" lon="-0.94808">
        <ele>7.35</ele>
        <time>2013-07-20T08:23:54Z</time>
      </trkpt>
      <trkpt lat="45.72683" lon="-0.94811">
        <ele>7.83</ele>
        <time>2013-07-20T08:23:55Z</time>
      </trkpt>
      <trkpt lat="45.72678" lon="-0.94816">
        <ele>7.83</ele>
        <time>2013-07-20T08:23:56Z</time>
      </trkpt>
      <trkpt lat="45.72641" lon="-0.9485">
        <ele>7.83</ele>
        <time>2013-07-20T08:24:04Z</time>
      </trkpt>
      <trkpt lat="45.72625" lon="-0.94859">
        <ele>7.83</ele>
        <time>2013-07-20T08:24:07Z</time>
      </trkpt>
      <trkpt lat="45.72619" lon="-0.94861">
        <ele>7.83</ele>
        <time>2013-07-20T08:24:08Z</time>
      </trkpt>
      <trkpt lat="45.72613" lon="-0.94861">
        <ele>8.31</ele>
        <time>2013-07-20T08:24:09Z</time>
      </trkpt>
      <trkpt lat="45.72606" lon="-0.9486">
        <ele>8.31</ele>
        <time>2013-07-20T08:24:10Z</time>
      </trkpt>
      <trkpt lat="45.726" lon="-0.94858">
        <ele>7.83</ele>
        <time>2013-07-20T08:24:11Z</time>
      </trkpt>
      <trkpt lat="45.72594" lon="-0.94856">
        <ele>7.83</ele>
        <time>2013-07-20T08:24:12Z</time>
      </trkpt>
      <trkpt lat="45.72589" lon="-0.94853">
        <ele>7.83</ele>
        <time>2013-07-20T08:24:13Z</time>
      </trkpt>
      <trkpt lat="45.72568" lon="-0.94844">
        <ele>6.87</ele>
        <time>2013-07-20T08:24:21Z</time>
      </trkpt>
      <trkpt lat="45.72552" lon="-0.94813">
        <ele>6.39</ele>
        <time>2013-07-20T08:24:31Z</time>
      </trkpt>
      <trkpt lat="45.72494" lon="-0.94732">
        <ele>3.98</ele>
        <time>2013-07-20T08:24:46Z</time>
      </trkpt>
      <trkpt lat="45.7249" lon="-0.94729">
        <ele>3.5</ele>
        <time>2013-07-20T08:24:47Z</time>
      </trkpt>
      <trkpt lat="45.72485" lon="-0.94728">
        <ele>3.5</ele>
        <time>2013-07-20T08:24:48Z</time>
      </trkpt>
      <trkpt lat="45.72481" lon="-0.94729">
        <ele>3.02</ele>
        <time>2013-07-20T08:24:49Z</time>
      </trkpt>
      <trkpt lat="45.72477" lon="-0.94733">
        <ele>3.02</ele>
        <time>2013-07-20T08:24:50Z</time>
      </trkpt>
      <trkpt lat="45.72474" lon="-0.94738">
        <ele>3.02</ele>
        <time>2013-07-20T08:24:51Z</time>
      </trkpt>
      <trkpt lat="45.72471" lon="-0.94744">
        <ele>3.02</ele>
        <time>2013-07-20T08:24:52Z</time>
      </trkpt>
      <trkpt lat="45.72443" lon="-0.94789">
        <ele>2.54</ele>
        <time>2013-07-20T08:24:59Z</time>
      </trkpt>
      <trkpt lat="45.72421" lon="-0.94836">
        <ele>3.02</ele>
        <time>2013-07-20T08:25:05Z</time>
      </trkpt>
      <trkpt lat="45.72419" lon="-0.94845">
        <ele>3.02</ele>
        <time>2013-07-20T08:25:06Z</time>
      </trkpt>
      <trkpt lat="45.72417" lon="-0.94855">
        <ele>3.02</ele>
        <time>2013-07-20T08:25:07Z</time>
      </trkpt>
      <trkpt lat="45.72415" lon="-0.94864">
        <ele>3.02</ele>
        <time>2013-07-20T08:25:08Z</time>
      </trkpt>
      <trkpt lat="45.72414" lon="-0.94874">
        <ele>3.5</ele>
        <time>2013-07-20T08:25:09Z</time>
      </trkpt>
      <trkpt lat="45.72411" lon="-0.94992">
        <ele>3.5</ele>
        <time>2013-07-20T08:25:21Z</time>
      </trkpt>
      <trkpt lat="45.72417" lon="-0.95021">
        <ele>3.5</ele>
        <time>2013-07-20T08:25:24Z</time>
      </trkpt>
      <trkpt lat="45.72474" lon="-0.95146">
        <ele>3.5</ele>
        <time>2013-07-20T08:25:39Z</time>
      </trkpt>
      <trkpt lat="45.72518" lon="-0.95262">
        <ele>3.98</ele>
        <time>2013-07-20T08:25:52Z</time>
      </trkpt>
      <trkpt lat="45.72554" lon="-0.95405">
        <ele>3.98</ele>
        <time>2013-07-20T08:26:07Z</time>
      </trkpt>
      <trkpt lat="45.72568" lon="-0.95533">
        <ele>4.46</ele>
        <time>2013-07-20T08:26:20Z</time>
      </trkpt>
      <trkpt lat="45.72574" lon="-0.95698">
        <ele>3.02</ele>
        <time>2013-07-20T08:26:35Z</time>
      </trkpt>
      <trkpt lat="45.72576" lon="-0.95812">
        <ele>3.02</ele>
        <time>2013-07-20T08:26:46Z</time>
      </trkpt>
      <trkpt lat="45.72574" lon="-0.95822">
        <ele>3.02</ele>
        <time>2013-07-20T08:26:47Z</time>
      </trkpt>
      <trkpt lat="45.72572" lon="-0.95832">
        <ele>2.54</ele>
        <time>2013-07-20T08:26:48Z</time>
      </trkpt>
      <trkpt lat="45.72567" lon="-0.95851">
        <ele>2.54</ele>
        <time>2013-07-20T08:26:50Z</time>
      </trkpt>
      <trkpt lat="45.72539" lon="-0.95979">
        <ele>2.54</ele>
        <time>2013-07-20T08:27:03Z</time>
      </trkpt>
      <trkpt lat="45.72537" lon="-0.96021">
        <ele>2.54</ele>
        <time>2013-07-20T08:27:07Z</time>
      </trkpt>
      <trkpt lat="45.72534" lon="-0.96138">
        <ele>3.02</ele>
        <time>2013-07-20T08:27:19Z</time>
      </trkpt>
      <trkpt lat="45.72532" lon="-0.96147">
        <ele>3.02</ele>
        <time>2013-07-20T08:27:20Z</time>
      </trkpt>
      <trkpt lat="45.72528" lon="-0.96155">
        <ele>3.02</ele>
        <time>2013-07-20T08:27:21Z</time>
      </trkpt>
      <trkpt lat="45.72524" lon="-0.9616">
        <ele>3.02</ele>
        <time>2013-07-20T08:27:22Z</time>
      </trkpt>
      <trkpt lat="45.72518" lon="-0.96165">
        <ele>2.54</ele>
        <time>2013-07-20T08:27:23Z</time>
      </trkpt>
      <trkpt lat="45.72513" lon="-0.96169">
        <ele>3.02</ele>
        <time>2013-07-20T08:27:24Z</time>
      </trkpt>
      <trkpt lat="45.72507" lon="-0.96174">
        <ele>3.02</ele>
        <time>2013-07-20T08:27:25Z</time>
      </trkpt>
      <trkpt lat="45.72502" lon="-0.9618">
        <ele>2.54</ele>
        <time>2013-07-20T08:27:26Z</time>
      </trkpt>
      <trkpt lat="45.72497" lon="-0.96187">
        <ele>2.54</ele>
        <time>2013-07-20T08:27:27Z</time>
      </trkpt>
      <trkpt lat="45.72494" lon="-0.96196">
        <ele>2.54</ele>
        <time>2013-07-20T08:27:28Z</time>
      </trkpt>
      <trkpt lat="45.72492" lon="-0.96206">
        <ele>2.54</ele>
        <time>2013-07-20T08:27:29Z</time>
      </trkpt>
      <trkpt lat="45.72491" lon="-0.96215">
        <ele>2.54</ele>
        <time>2013-07-20T08:27:30Z</time>
      </trkpt>
      <trkpt lat="45.72469" lon="-0.96363">
        <ele>2.54</ele>
        <time>2013-07-20T08:27:45Z</time>
      </trkpt>
      <trkpt lat="45.72461" lon="-0.96405">
        <ele>2.06</ele>
        <time>2013-07-20T08:27:53Z</time>
      </trkpt>
      <trkpt lat="45.72455" lon="-0.96413">
        <ele>2.54</ele>
        <time>2013-07-20T08:27:55Z</time>
      </trkpt>
      <trkpt lat="45.72451" lon="-0.96416">
        <ele>2.54</ele>
        <time>2013-07-20T08:27:56Z</time>
      </trkpt>
      <trkpt lat="45.72372" lon="-0.96479">
        <ele>3.5</ele>
        <time>2013-07-20T08:28:10Z</time>
      </trkpt>
      <trkpt lat="45.72247" lon="-0.96579">
        <ele>3.5</ele>
        <time>2013-07-20T08:28:30Z</time>
      </trkpt>
      <trkpt lat="45.72134" lon="-0.9667">
        <ele>3.02</ele>
        <time>2013-07-20T08:28:48Z</time>
      </trkpt>
      <trkpt lat="45.72059" lon="-0.9673">
        <ele>4.94</ele>
        <time>2013-07-20T08:29:00Z</time>
      </trkpt>
      <trkpt lat="45.71932" lon="-0.96832">
        <ele>3.02</ele>
        <time>2013-07-20T08:29:21Z</time>
      </trkpt>
      <trkpt lat="45.71832" lon="-0.96914">
        <ele>3.02</ele>
        <time>2013-07-20T08:29:38Z</time>
      </trkpt>
      <trkpt lat="45.7173" lon="-0.96995">
        <ele>3.98</ele>
        <time>2013-07-20T08:29:55Z</time>
      </trkpt>
      <trkpt lat="45.71622" lon="-0.97092">
        <ele>3.5</ele>
        <time>2013-07-20T08:30:14Z</time>
      </trkpt>
      <trkpt lat="45.71543" lon="-0.97194">
        <ele>3.98</ele>
        <time>2013-07-20T08:30:31Z</time>
      </trkpt>
      <trkpt lat="45.71443" lon="-0.97268">
        <ele>3.5</ele>
        <time>2013-07-20T08:30:48Z</time>
      </trkpt>
      <trkpt lat="45.71348" lon="-0.97289">
        <ele>3.02</ele>
        <time>2013-07-20T08:31:02Z</time>
      </trkpt>
      <trkpt lat="45.71237" lon="-0.97285">
        <ele>3.02</ele>
        <time>2013-07-20T08:31:18Z</time>
      </trkpt>
      <trkpt lat="45.71084" lon="-0.97279">
        <ele>3.5</ele>
        <time>2013-07-20T08:31:40Z</time>
      </trkpt>
      <trkpt lat="45.70991" lon="-0.97275">
        <ele>3.5</ele>
        <time>2013-07-20T08:31:55Z</time>
      </trkpt>
      <trkpt lat="45.70906" lon="-0.97272">
        <ele>4.46</ele>
        <time>2013-07-20T08:32:10Z</time>
      </trkpt>
      <trkpt lat="45.70901" lon="-0.97272">
        <ele>4.46</ele>
        <time>2013-07-20T08:32:11Z</time>
      </trkpt>
      <trkpt lat="45.70811" lon="-0.97271">
        <ele>3.5</ele>
        <time>2013-07-20T08:32:26Z</time>
      </trkpt>
      <trkpt lat="45.70699" lon="-0.97296">
        <ele>3.02</ele>
        <time>2013-07-20T08:32:43Z</time>
      </trkpt>
      <trkpt lat="45.70587" lon="-0.97365">
        <ele>3.02</ele>
        <time>2013-07-20T08:33:01Z</time>
      </trkpt>
      <trkpt lat="45.70498" lon="-0.9746">
        <ele>3.98</ele>
        <time>2013-07-20T08:33:17Z</time>
      </trkpt>
      <trkpt lat="45.70437" lon="-0.97558">
        <ele>3.5</ele>
        <time>2013-07-20T08:33:31Z</time>
      </trkpt>
      <trkpt lat="45.70386" lon="-0.97685">
        <ele>3.98</ele>
        <time>2013-07-20T08:33:47Z</time>
      </trkpt>
      <trkpt lat="45.70364" lon="-0.97757">
        <ele>4.46</ele>
        <time>2013-07-20T08:33:56Z</time>
      </trkpt>
      <trkpt lat="45.70363" lon="-0.97766">
        <ele>4.46</ele>
        <time>2013-07-20T08:33:57Z</time>
      </trkpt>
      <trkpt lat="45.70363" lon="-0.97774">
        <ele>4.94</ele>
        <time>2013-07-20T08:33:58Z</time>
      </trkpt>
      <trkpt lat="45.70363" lon="-0.97782">
        <ele>4.94</ele>
        <time>2013-07-20T08:33:59Z</time>
      </trkpt>
      <trkpt lat="45.70362" lon="-0.9779">
        <ele>4.94</ele>
        <time>2013-07-20T08:34:00Z</time>
      </trkpt>
      <trkpt lat="45.70359" lon="-0.97797">
        <ele>4.94</ele>
        <time>2013-07-20T08:34:01Z</time>
      </trkpt>
      <trkpt lat="45.70355" lon="-0.97803">
        <ele>4.46</ele>
        <time>2013-07-20T08:34:02Z</time>
      </trkpt>
      <trkpt lat="45.7035" lon="-0.97808">
        <ele>4.46</ele>
        <time>2013-07-20T08:34:03Z</time>
      </trkpt>
      <trkpt lat="45.70346" lon="-0.97815">
        <ele>4.46</ele>
        <time>2013-07-20T08:34:04Z</time>
      </trkpt>
      <trkpt lat="45.70342" lon="-0.97822">
        <ele>4.46</ele>
        <time>2013-07-20T08:34:05Z</time>
      </trkpt>
      <trkpt lat="45.70302" lon="-0.97958">
        <ele>4.46</ele>
        <time>2013-07-20T08:34:20Z</time>
      </trkpt>
      <trkpt lat="45.70244" lon="-0.98151">
        <ele>3.02</ele>
        <time>2013-07-20T08:34:40Z</time>
      </trkpt>
      <trkpt lat="45.70202" lon="-0.98286">
        <ele>2.54</ele>
        <time>2013-07-20T08:34:55Z</time>
      </trkpt>
      <trkpt lat="45.70184" lon="-0.9834">
        <ele>3.02</ele>
        <time>2013-07-20T08:35:02Z</time>
      </trkpt>
      <trkpt lat="45.70183" lon="-0.98346">
        <ele>2.06</ele>
        <time>2013-07-20T08:35:03Z</time>
      </trkpt>
      <trkpt lat="45.70184" lon="-0.98351">
        <ele>2.06</ele>
        <time>2013-07-20T08:35:04Z</time>
      </trkpt>
      <trkpt lat="45.70191" lon="-0.98372">
        <ele>1.58</ele>
        <time>2013-07-20T08:35:13Z</time>
      </trkpt>
      <trkpt lat="45.7019" lon="-0.98375">
        <ele>2.06</ele>
        <time>2013-07-20T08:35:44Z</time>
      </trkpt>
      <trkpt lat="45.70191" lon="-0.98374">
        <ele>2.06</ele>
        <time>2013-07-20T08:36:12Z</time>
      </trkpt>
      <trkpt lat="45.70192" lon="-0.98375">
        <ele>2.06</ele>
        <time>2013-07-20T08:36:44Z</time>
      </trkpt>
      <trkpt lat="45.70192" lon="-0.98375">
        <ele>2.06</ele>
        <time>2013-07-20T08:37:15Z</time>
      </trkpt>
      <trkpt lat="45.70192" lon="-0.98376">
        <ele>2.06</ele>
        <time>2013-07-20T08:37:51Z</time>
      </trkpt>
      <trkpt lat="45.70192" lon="-0.98374">
        <ele>2.06</ele>
        <time>2013-07-20T08:38:31Z</time>
      </trkpt>
      <trkpt lat="45.70191" lon="-0.98373">
        <ele>2.06</ele>
        <time>2013-07-20T08:39:11Z</time>
      </trkpt>
      <trkpt lat="45.70191" lon="-0.98374">
        <ele>2.06</ele>
        <time>2013-07-20T08:39:50Z</time>
      </trkpt>
      <trkpt lat="45.70191" lon="-0.98374">
        <ele>2.54</ele>
        <time>2013-07-20T08:40:28Z</time>
      </trkpt>
      <trkpt lat="45.70191" lon="-0.98376">
        <ele>2.54</ele>
        <time>2013-07-20T08:41:03Z</time>
      </trkpt>
      <trkpt lat="45.7019" lon="-0.98376">
        <ele>2.54</ele>
        <time>2013-07-20T08:41:42Z</time>
      </trkpt>
      <trkpt lat="45.70192" lon="-0.98375">
        <ele>2.54</ele>
        <time>2013-07-20T08:42:30Z</time>
      </trkpt>
      <trkpt lat="45.70192" lon="-0.98376">
        <ele>2.54</ele>
        <time>2013-07-20T08:43:04Z</time>
      </trkpt>
      <trkpt lat="45.70192" lon="-0.98375">
        <ele>2.54</ele>
        <time>2013-07-20T08:43:42Z</time>
      </trkpt>
      <trkpt lat="45.70192" lon="-0.98375">
        <ele>2.54</ele>
        <time>2013-07-20T08:44:18Z</time>
      </trkpt>
      <trkpt lat="45.70191" lon="-0.98375">
        <ele>3.02</ele>
        <time>2013-07-20T08:44:44Z</time>
      </trkpt>
      <trkpt lat="45.70191" lon="-0.98374">
        <ele>2.54</ele>
        <time>2013-07-20T08:45:16Z</time>
      </trkpt>
      <trkpt lat="45.70192" lon="-0.98374">
        <ele>3.02</ele>
        <time>2013-07-20T08:46:01Z</time>
      </trkpt>
      <trkpt lat="45.70191" lon="-0.98374">
        <ele>3.02</ele>
        <time>2013-07-20T08:46:37Z</time>
      </trkpt>
      <trkpt lat="45.70191" lon="-0.98375">
        <ele>3.02</ele>
        <time>2013-07-20T08:47:14Z</time>
      </trkpt>
      <trkpt lat="45.70192" lon="-0.98374">
        <ele>3.02</ele>
        <time>2013-07-20T08:47:51Z</time>
      </trkpt>
      <trkpt lat="45.70193" lon="-0.98374">
        <ele>3.02</ele>
        <time>2013-07-20T08:48:21Z</time>
      </trkpt>
      <trkpt lat="45.70192" lon="-0.98372">
        <ele>2.54</ele>
        <time>2013-07-20T08:48:49Z</time>
      </trkpt>
      <trkpt lat="45.70191" lon="-0.98371">
        <ele>2.54</ele>
        <time>2013-07-20T08:49:24Z</time>
      </trkpt>
      <trkpt lat="45.7019" lon="-0.98372">
        <ele>2.54</ele>
        <time>2013-07-20T08:50:01Z</time>
      </trkpt>
      <trkpt lat="45.70191" lon="-0.98375">
        <ele>2.06</ele>
        <time>2013-07-20T08:50:34Z</time>
      </trkpt>
      <trkpt lat="45.70191" lon="-0.98375">
        <ele>2.06</ele>
        <time>2013-07-20T08:50:55Z</time>
      </trkpt>
      <trkpt lat="45.70185" lon="-0.98396">
        <ele>2.54</ele>
        <time>2013-07-20T08:51:06Z</time>
      </trkpt>
      <trkpt lat="45.70183" lon="-0.98398">
        <ele>2.06</ele>
        <time>2013-07-20T08:51:07Z</time>
      </trkpt>
      <trkpt lat="45.7015" lon="-0.98418">
        <ele>2.06</ele>
        <time>2013-07-20T08:51:19Z</time>
      </trkpt>
      <trkpt lat="45.70147" lon="-0.98423">
        <ele>2.06</ele>
        <time>2013-07-20T08:51:20Z</time>
      </trkpt>
      <trkpt lat="45.70145" lon="-0.98428">
        <ele>2.06</ele>
        <time>2013-07-20T08:51:21Z</time>
      </trkpt>
      <trkpt lat="45.70092" lon="-0.98519">
        <ele>2.54</ele>
        <time>2013-07-20T08:51:36Z</time>
      </trkpt>
      <trkpt lat="45.70017" lon="-0.98617">
        <ele>3.02</ele>
        <time>2013-07-20T08:51:52Z</time>
      </trkpt>
      <trkpt lat="45.69939" lon="-0.98718">
        <ele>2.54</ele>
        <time>2013-07-20T08:52:08Z</time>
      </trkpt>
      <trkpt lat="45.69857" lon="-0.98836">
        <ele>3.5</ele>
        <time>2013-07-20T08:52:26Z</time>
      </trkpt>
      <trkpt lat="45.698" lon="-0.98943">
        <ele>3.5</ele>
        <time>2013-07-20T08:52:41Z</time>
      </trkpt>
      <trkpt lat="45.69716" lon="-0.99076">
        <ele>3.5</ele>
        <time>2013-07-20T08:52:59Z</time>
      </trkpt>
      <trkpt lat="45.69624" lon="-0.99156">
        <ele>2.06</ele>
        <time>2013-07-20T08:53:14Z</time>
      </trkpt>
      <trkpt lat="45.69519" lon="-0.99245">
        <ele>2.54</ele>
        <time>2013-07-20T08:53:31Z</time>
      </trkpt>
      <trkpt lat="45.6943" lon="-0.99337">
        <ele>3.02</ele>
        <time>2013-07-20T08:53:47Z</time>
      </trkpt>
      <trkpt lat="45.69342" lon="-0.99429">
        <ele>3.02</ele>
        <time>2013-07-20T08:54:03Z</time>
      </trkpt>
      <trkpt lat="45.69247" lon="-0.99511">
        <ele>3.02</ele>
        <time>2013-07-20T08:54:19Z</time>
      </trkpt>
      <trkpt lat="45.69135" lon="-0.99606">
        <ele>3.02</ele>
        <time>2013-07-20T08:54:38Z</time>
      </trkpt>
      <trkpt lat="45.69033" lon="-0.997">
        <ele>3.02</ele>
        <time>2013-07-20T08:54:56Z</time>
      </trkpt>
      <trkpt lat="45.68936" lon="-0.99794">
        <ele>3.98</ele>
        <time>2013-07-20T08:55:14Z</time>
      </trkpt>
      <trkpt lat="45.68879" lon="-0.99847">
        <ele>7.35</ele>
        <time>2013-07-20T08:55:26Z</time>
      </trkpt>
      <trkpt lat="45.68794" lon="-0.99896">
        <ele>9.27</ele>
        <time>2013-07-20T08:55:42Z</time>
      </trkpt>
      <trkpt lat="45.68685" lon="-0.99911">
        <ele>10.23</ele>
        <time>2013-07-20T08:55:59Z</time>
      </trkpt>
      <trkpt lat="45.68591" lon="-0.99889">
        <ele>10.23</ele>
        <time>2013-07-20T08:56:13Z</time>
      </trkpt>
      <trkpt lat="45.68548" lon="-0.99874">
        <ele>11.19</ele>
        <time>2013-07-20T08:56:20Z</time>
      </trkpt>
      <trkpt lat="45.68525" lon="-0.99866">
        <ele>10.71</ele>
        <time>2013-07-20T08:56:24Z</time>
      </trkpt>
      <trkpt lat="45.68413" lon="-0.99842">
        <ele>11.19</ele>
        <time>2013-07-20T08:56:43Z</time>
      </trkpt>
      <trkpt lat="45.68402" lon="-0.99842">
        <ele>11.67</ele>
        <time>2013-07-20T08:56:45Z</time>
      </trkpt>
      <trkpt lat="45.68398" lon="-0.99843">
        <ele>11.19</ele>
        <time>2013-07-20T08:56:46Z</time>
      </trkpt>
      <trkpt lat="45.68393" lon="-0.99846">
        <ele>11.67</ele>
        <time>2013-07-20T08:56:47Z</time>
      </trkpt>
      <trkpt lat="45.6839" lon="-0.99851">
        <ele>11.67</ele>
        <time>2013-07-20T08:56:48Z</time>
      </trkpt>
      <trkpt lat="45.68387" lon="-0.99857">
        <ele>11.67</ele>
        <time>2013-07-20T08:56:49Z</time>
      </trkpt>
      <trkpt lat="45.68385" lon="-0.99864">
        <ele>11.67</ele>
        <time>2013-07-20T08:56:50Z</time>
      </trkpt>
      <trkpt lat="45.68382" lon="-0.9987">
        <ele>11.19</ele>
        <time>2013-07-20T08:56:51Z</time>
      </trkpt>
      <trkpt lat="45.6838" lon="-0.99877">
        <ele>11.67</ele>
        <time>2013-07-20T08:56:52Z</time>
      </trkpt>
      <trkpt lat="45.68379" lon="-0.99884">
        <ele>11.67</ele>
        <time>2013-07-20T08:56:53Z</time>
      </trkpt>
      <trkpt lat="45.68379" lon="-0.99892">
        <ele>11.67</ele>
        <time>2013-07-20T08:56:54Z</time>
      </trkpt>
      <trkpt lat="45.68381" lon="-0.999">
        <ele>11.67</ele>
        <time>2013-07-20T08:56:55Z</time>
      </trkpt>
      <trkpt lat="45.68384" lon="-0.99908">
        <ele>11.67</ele>
        <time>2013-07-20T08:56:56Z</time>
      </trkpt>
      <trkpt lat="45.68387" lon="-0.99915">
        <ele>11.67</ele>
        <time>2013-07-20T08:56:57Z</time>
      </trkpt>
      <trkpt lat="45.6844" lon="-1.00035">
        <ele>11.67</ele>
        <time>2013-07-20T08:57:12Z</time>
      </trkpt>
      <trkpt lat="45.68488" lon="-1.00148">
        <ele>11.19</ele>
        <time>2013-07-20T08:57:26Z</time>
      </trkpt>
      <trkpt lat="45.68551" lon="-1.00298">
        <ele>11.67</ele>
        <time>2013-07-20T08:57:43Z</time>
      </trkpt>
      <trkpt lat="45.68631" lon="-1.00487">
        <ele>14.56</ele>
        <time>2013-07-20T08:58:04Z</time>
      </trkpt>
      <trkpt lat="45.68707" lon="-1.00677">
        <ele>16</ele>
        <time>2013-07-20T08:58:25Z</time>
      </trkpt>
      <trkpt lat="45.68752" lon="-1.00844">
        <ele>15.52</ele>
        <time>2013-07-20T08:58:42Z</time>
      </trkpt>
      <trkpt lat="45.68787" lon="-1.01016">
        <ele>13.6</ele>
        <time>2013-07-20T08:58:58Z</time>
      </trkpt>
      <trkpt lat="45.68836" lon="-1.01271">
        <ele>12.63</ele>
        <time>2013-07-20T08:59:20Z</time>
      </trkpt>
      <trkpt lat="45.68844" lon="-1.0142">
        <ele>11.19</ele>
        <time>2013-07-20T08:59:33Z</time>
      </trkpt>
      <trkpt lat="45.68846" lon="-1.01534">
        <ele>10.23</ele>
        <time>2013-07-20T08:59:42Z</time>
      </trkpt>
      <trkpt lat="45.68851" lon="-1.01585">
        <ele>9.75</ele>
        <time>2013-07-20T08:59:46Z</time>
      </trkpt>
      <trkpt lat="45.68899" lon="-1.01841">
        <ele>10.71</ele>
        <time>2013-07-20T09:00:07Z</time>
      </trkpt>
      <trkpt lat="45.68933" lon="-1.02024">
        <ele>8.79</ele>
        <time>2013-07-20T09:00:24Z</time>
      </trkpt>
      <trkpt lat="45.68972" lon="-1.02202">
        <ele>9.27</ele>
        <time>2013-07-20T09:00:41Z</time>
      </trkpt>
      <trkpt lat="45.69017" lon="-1.02363">
        <ele>7.35</ele>
        <time>2013-07-20T09:00:58Z</time>
      </trkpt>
      <trkpt lat="45.69068" lon="-1.02541">
        <ele>5.42</ele>
        <time>2013-07-20T09:01:16Z</time>
      </trkpt>
      <trkpt lat="45.69121" lon="-1.02723">
        <ele>4.46</ele>
        <time>2013-07-20T09:01:34Z</time>
      </trkpt>
      <trkpt lat="45.69157" lon="-1.02913">
        <ele>4.94</ele>
        <time>2013-07-20T09:01:53Z</time>
      </trkpt>
      <trkpt lat="45.69169" lon="-1.03074">
        <ele>4.94</ele>
        <time>2013-07-20T09:02:09Z</time>
      </trkpt>
      <trkpt lat="45.6917" lon="-1.03092">
        <ele>4.94</ele>
        <time>2013-07-20T09:02:11Z</time>
      </trkpt>
      <trkpt lat="45.69182" lon="-1.03266">
        <ele>4.46</ele>
        <time>2013-07-20T09:02:29Z</time>
      </trkpt>
      <trkpt lat="45.69215" lon="-1.03434">
        <ele>5.42</ele>
        <time>2013-07-20T09:02:46Z</time>
      </trkpt>
      <trkpt lat="45.69279" lon="-1.03596">
        <ele>6.87</ele>
        <time>2013-07-20T09:03:04Z</time>
      </trkpt>
      <trkpt lat="45.69353" lon="-1.03759">
        <ele>9.75</ele>
        <time>2013-07-20T09:03:23Z</time>
      </trkpt>
      <trkpt lat="45.69408" lon="-1.03894">
        <ele>13.6</ele>
        <time>2013-07-20T09:03:40Z</time>
      </trkpt>
      <trkpt lat="45.69441" lon="-1.0402">
        <ele>14.56</ele>
        <time>2013-07-20T09:03:57Z</time>
      </trkpt>
      <trkpt lat="45.6947" lon="-1.04146">
        <ele>15.04</ele>
        <time>2013-07-20T09:04:13Z</time>
      </trkpt>
      <trkpt lat="45.69497" lon="-1.0426">
        <ele>15.04</ele>
        <time>2013-07-20T09:04:26Z</time>
      </trkpt>
      <trkpt lat="45.69533" lon="-1.04419">
        <ele>16.96</ele>
        <time>2013-07-20T09:04:44Z</time>
      </trkpt>
      <trkpt lat="45.69566" lon="-1.04562">
        <ele>19.84</ele>
        <time>2013-07-20T09:05:02Z</time>
      </trkpt>
      <trkpt lat="45.69599" lon="-1.04682">
        <ele>22.73</ele>
        <time>2013-07-20T09:05:18Z</time>
      </trkpt>
      <trkpt lat="45.69654" lon="-1.04812">
        <ele>24.17</ele>
        <time>2013-07-20T09:05:36Z</time>
      </trkpt>
      <trkpt lat="45.69702" lon="-1.04915">
        <ele>24.17</ele>
        <time>2013-07-20T09:05:51Z</time>
      </trkpt>
      <trkpt lat="45.6976" lon="-1.05045">
        <ele>24.17</ele>
        <time>2013-07-20T09:06:08Z</time>
      </trkpt>
      <trkpt lat="45.69778" lon="-1.05083">
        <ele>23.69</ele>
        <time>2013-07-20T09:06:13Z</time>
      </trkpt>
      <trkpt lat="45.69782" lon="-1.05089">
        <ele>23.69</ele>
        <time>2013-07-20T09:06:14Z</time>
      </trkpt>
      <trkpt lat="45.69791" lon="-1.05102">
        <ele>23.21</ele>
        <time>2013-07-20T09:06:16Z</time>
      </trkpt>
      <trkpt lat="45.69794" lon="-1.05109">
        <ele>23.21</ele>
        <time>2013-07-20T09:06:17Z</time>
      </trkpt>
      <trkpt lat="45.69797" lon="-1.05117">
        <ele>23.21</ele>
        <time>2013-07-20T09:06:18Z</time>
      </trkpt>
      <trkpt lat="45.69799" lon="-1.05126">
        <ele>23.21</ele>
        <time>2013-07-20T09:06:19Z</time>
      </trkpt>
      <trkpt lat="45.69801" lon="-1.05135">
        <ele>22.73</ele>
        <time>2013-07-20T09:06:20Z</time>
      </trkpt>
      <trkpt lat="45.69804" lon="-1.05144">
        <ele>22.73</ele>
        <time>2013-07-20T09:06:21Z</time>
      </trkpt>
      <trkpt lat="45.69807" lon="-1.05152">
        <ele>22.73</ele>
        <time>2013-07-20T09:06:22Z</time>
      </trkpt>
      <trkpt lat="45.69811" lon="-1.0516">
        <ele>22.73</ele>
        <time>2013-07-20T09:06:23Z</time>
      </trkpt>
      <trkpt lat="45.69816" lon="-1.05168">
        <ele>22.73</ele>
        <time>2013-07-20T09:06:24Z</time>
      </trkpt>
      <trkpt lat="45.6988" lon="-1.05301">
        <ele>20.81</ele>
        <time>2013-07-20T09:06:39Z</time>
      </trkpt>
      <trkpt lat="45.69955" lon="-1.05464">
        <ele>19.84</ele>
        <time>2013-07-20T09:06:57Z</time>
      </trkpt>
      <trkpt lat="45.69992" lon="-1.05531">
        <ele>18.4</ele>
        <time>2013-07-20T09:07:05Z</time>
      </trkpt>
      <trkpt lat="45.70057" lon="-1.05597">
        <ele>16.96</ele>
        <time>2013-07-20T09:07:17Z</time>
      </trkpt>
      <trkpt lat="45.70063" lon="-1.05603">
        <ele>16.48</ele>
        <time>2013-07-20T09:07:22Z</time>
      </trkpt>
      <trkpt lat="45.70063" lon="-1.05607">
        <ele>16.96</ele>
        <time>2013-07-20T09:07:23Z</time>
      </trkpt>
      <trkpt lat="45.70062" lon="-1.05612">
        <ele>16.48</ele>
        <time>2013-07-20T09:07:24Z</time>
      </trkpt>
      <trkpt lat="45.7006" lon="-1.05617">
        <ele>16.48</ele>
        <time>2013-07-20T09:07:25Z</time>
      </trkpt>
      <trkpt lat="45.70058" lon="-1.05623">
        <ele>16</ele>
        <time>2013-07-20T09:07:26Z</time>
      </trkpt>
      <trkpt lat="45.70055" lon="-1.05629">
        <ele>16.48</ele>
        <time>2013-07-20T09:07:27Z</time>
      </trkpt>
      <trkpt lat="45.70053" lon="-1.05635">
        <ele>16</ele>
        <time>2013-07-20T09:07:28Z</time>
      </trkpt>
      <trkpt lat="45.70045" lon="-1.05656">
        <ele>15.52</ele>
        <time>2013-07-20T09:07:31Z</time>
      </trkpt>
      <trkpt lat="45.70027" lon="-1.05694">
        <ele>14.56</ele>
        <time>2013-07-20T09:07:36Z</time>
      </trkpt>
      <trkpt lat="45.69997" lon="-1.0582">
        <ele>13.6</ele>
        <time>2013-07-20T09:07:49Z</time>
      </trkpt>
      <trkpt lat="45.69979" lon="-1.05895">
        <ele>12.63</ele>
        <time>2013-07-20T09:07:56Z</time>
      </trkpt>
      <trkpt lat="45.69975" lon="-1.05904">
        <ele>12.63</ele>
        <time>2013-07-20T09:07:57Z</time>
      </trkpt>
      <trkpt lat="45.69971" lon="-1.05913">
        <ele>12.63</ele>
        <time>2013-07-20T09:07:58Z</time>
      </trkpt>
      <trkpt lat="45.6991" lon="-1.06002">
        <ele>13.6</ele>
        <time>2013-07-20T09:08:11Z</time>
      </trkpt>
      <trkpt lat="45.69847" lon="-1.06085">
        <ele>16</ele>
        <time>2013-07-20T09:08:25Z</time>
      </trkpt>
      <trkpt lat="45.6984" lon="-1.06096">
        <ele>16.48</ele>
        <time>2013-07-20T09:08:27Z</time>
      </trkpt>
      <trkpt lat="45.6983" lon="-1.0611">
        <ele>17.44</ele>
        <time>2013-07-20T09:08:30Z</time>
      </trkpt>
      <trkpt lat="45.69827" lon="-1.06115">
        <ele>17.92</ele>
        <time>2013-07-20T09:08:31Z</time>
      </trkpt>
      <trkpt lat="45.69782" lon="-1.06184">
        <ele>20.81</ele>
        <time>2013-07-20T09:08:46Z</time>
      </trkpt>
      <trkpt lat="45.69781" lon="-1.0619">
        <ele>20.81</ele>
        <time>2013-07-20T09:08:47Z</time>
      </trkpt>
      <trkpt lat="45.6978" lon="-1.06196">
        <ele>20.81</ele>
        <time>2013-07-20T09:08:48Z</time>
      </trkpt>
      <trkpt lat="45.6978" lon="-1.06203">
        <ele>20.81</ele>
        <time>2013-07-20T09:08:49Z</time>
      </trkpt>
      <trkpt lat="45.69781" lon="-1.0621">
        <ele>20.81</ele>
        <time>2013-07-20T09:08:50Z</time>
      </trkpt>
      <trkpt lat="45.69783" lon="-1.06216">
        <ele>21.29</ele>
        <time>2013-07-20T09:08:51Z</time>
      </trkpt>
      <trkpt lat="45.69785" lon="-1.06222">
        <ele>20.81</ele>
        <time>2013-07-20T09:08:52Z</time>
      </trkpt>
      <trkpt lat="45.69789" lon="-1.06227">
        <ele>20.81</ele>
        <time>2013-07-20T09:08:53Z</time>
      </trkpt>
      <trkpt lat="45.69792" lon="-1.06233">
        <ele>20.81</ele>
        <time>2013-07-20T09:08:54Z</time>
      </trkpt>
      <trkpt lat="45.69831" lon="-1.06304">
        <ele>19.84</ele>
        <time>2013-07-20T09:09:05Z</time>
      </trkpt>
      <trkpt lat="45.69833" lon="-1.06312">
        <ele>20.32</ele>
        <time>2013-07-20T09:09:06Z</time>
      </trkpt>
      <trkpt lat="45.69833" lon="-1.0632">
        <ele>19.84</ele>
        <time>2013-07-20T09:09:07Z</time>
      </trkpt>
      <trkpt lat="45.69833" lon="-1.06328">
        <ele>20.32</ele>
        <time>2013-07-20T09:09:08Z</time>
      </trkpt>
      <trkpt lat="45.69831" lon="-1.06336">
        <ele>20.32</ele>
        <time>2013-07-20T09:09:09Z</time>
      </trkpt>
      <trkpt lat="45.69829" lon="-1.06344">
        <ele>20.81</ele>
        <time>2013-07-20T09:09:10Z</time>
      </trkpt>
      <trkpt lat="45.69826" lon="-1.06351">
        <ele>20.81</ele>
        <time>2013-07-20T09:09:11Z</time>
      </trkpt>
      <trkpt lat="45.69823" lon="-1.06357">
        <ele>20.81</ele>
        <time>2013-07-20T09:09:12Z</time>
      </trkpt>
      <trkpt lat="45.69779" lon="-1.06434">
        <ele>22.73</ele>
        <time>2013-07-20T09:09:25Z</time>
      </trkpt>
      <trkpt lat="45.69724" lon="-1.06515">
        <ele>24.17</ele>
        <time>2013-07-20T09:09:40Z</time>
      </trkpt>
      <trkpt lat="45.69654" lon="-1.06613">
        <ele>22.73</ele>
        <time>2013-07-20T09:09:57Z</time>
      </trkpt>
      <trkpt lat="45.69579" lon="-1.06688">
        <ele>22.73</ele>
        <time>2013-07-20T09:10:11Z</time>
      </trkpt>
      <trkpt lat="45.69548" lon="-1.06707">
        <ele>23.21</ele>
        <time>2013-07-20T09:10:16Z</time>
      </trkpt>
      <trkpt lat="45.69542" lon="-1.06712">
        <ele>23.21</ele>
        <time>2013-07-20T09:10:17Z</time>
      </trkpt>
      <trkpt lat="45.69537" lon="-1.06718">
        <ele>22.73</ele>
        <time>2013-07-20T09:10:18Z</time>
      </trkpt>
      <trkpt lat="45.69522" lon="-1.0674">
        <ele>22.73</ele>
        <time>2013-07-20T09:10:21Z</time>
      </trkpt>
      <trkpt lat="45.69518" lon="-1.06749">
        <ele>23.21</ele>
        <time>2013-07-20T09:10:22Z</time>
      </trkpt>
      <trkpt lat="45.69515" lon="-1.06758">
        <ele>22.73</ele>
        <time>2013-07-20T09:10:23Z</time>
      </trkpt>
      <trkpt lat="45.69498" lon="-1.06818">
        <ele>21.29</ele>
        <time>2013-07-20T09:10:29Z</time>
      </trkpt>
      <trkpt lat="45.69494" lon="-1.06827">
        <ele>20.81</ele>
        <time>2013-07-20T09:10:30Z</time>
      </trkpt>
      <trkpt lat="45.69488" lon="-1.06836">
        <ele>19.36</ele>
        <time>2013-07-20T09:10:31Z</time>
      </trkpt>
      <trkpt lat="45.69482" lon="-1.06845">
        <ele>19.84</ele>
        <time>2013-07-20T09:10:32Z</time>
      </trkpt>
      <trkpt lat="45.69476" lon="-1.06854">
        <ele>18.88</ele>
        <time>2013-07-20T09:10:33Z</time>
      </trkpt>
      <trkpt lat="45.69423" lon="-1.06913">
        <ele>15.52</ele>
        <time>2013-07-20T09:10:40Z</time>
      </trkpt>
      <trkpt lat="45.69415" lon="-1.06919">
        <ele>15.52</ele>
        <time>2013-07-20T09:10:41Z</time>
      </trkpt>
      <trkpt lat="45.69407" lon="-1.06923">
        <ele>15.52</ele>
        <time>2013-07-20T09:10:42Z</time>
      </trkpt>
      <trkpt lat="45.69313" lon="-1.06954">
        <ele>16.48</ele>
        <time>2013-07-20T09:10:55Z</time>
      </trkpt>
      <trkpt lat="45.693" lon="-1.06958">
        <ele>17.44</ele>
        <time>2013-07-20T09:10:57Z</time>
      </trkpt>
      <trkpt lat="45.69218" lon="-1.06984">
        <ele>19.36</ele>
        <time>2013-07-20T09:11:11Z</time>
      </trkpt>
      <trkpt lat="45.69152" lon="-1.06996">
        <ele>20.81</ele>
        <time>2013-07-20T09:11:23Z</time>
      </trkpt>
      <trkpt lat="45.69132" lon="-1.07003">
        <ele>21.77</ele>
        <time>2013-07-20T09:11:27Z</time>
      </trkpt>
      <trkpt lat="45.69062" lon="-1.0704">
        <ele>22.73</ele>
        <time>2013-07-20T09:11:42Z</time>
      </trkpt>
      <trkpt lat="45.68975" lon="-1.07085">
        <ele>23.21</ele>
        <time>2013-07-20T09:11:59Z</time>
      </trkpt>
      <trkpt lat="45.68948" lon="-1.07103">
        <ele>22.25</ele>
        <time>2013-07-20T09:12:05Z</time>
      </trkpt>
      <trkpt lat="45.68944" lon="-1.07108">
        <ele>22.25</ele>
        <time>2013-07-20T09:12:06Z</time>
      </trkpt>
      <trkpt lat="45.68941" lon="-1.07114">
        <ele>22.25</ele>
        <time>2013-07-20T09:12:07Z</time>
      </trkpt>
      <trkpt lat="45.68938" lon="-1.0712">
        <ele>22.25</ele>
        <time>2013-07-20T09:12:08Z</time>
      </trkpt>
      <trkpt lat="45.68935" lon="-1.07127">
        <ele>22.25</ele>
        <time>2013-07-20T09:12:09Z</time>
      </trkpt>
      <trkpt lat="45.68908" lon="-1.07197">
        <ele>21.29</ele>
        <time>2013-07-20T09:12:18Z</time>
      </trkpt>
      <trkpt lat="45.68872" lon="-1.07316">
        <ele>18.88</ele>
        <time>2013-07-20T09:12:30Z</time>
      </trkpt>
      <trkpt lat="45.68868" lon="-1.07325">
        <ele>18.88</ele>
        <time>2013-07-20T09:12:31Z</time>
      </trkpt>
      <trkpt lat="45.68863" lon="-1.07332">
        <ele>18.88</ele>
        <time>2013-07-20T09:12:32Z</time>
      </trkpt>
      <trkpt lat="45.68858" lon="-1.07338">
        <ele>19.36</ele>
        <time>2013-07-20T09:12:33Z</time>
      </trkpt>
      <trkpt lat="45.68852" lon="-1.07343">
        <ele>18.88</ele>
        <time>2013-07-20T09:12:34Z</time>
      </trkpt>
      <trkpt lat="45.68846" lon="-1.07346">
        <ele>19.84</ele>
        <time>2013-07-20T09:12:35Z</time>
      </trkpt>
      <trkpt lat="45.6884" lon="-1.07349">
        <ele>19.84</ele>
        <time>2013-07-20T09:12:36Z</time>
      </trkpt>
      <trkpt lat="45.68834" lon="-1.07351">
        <ele>19.84</ele>
        <time>2013-07-20T09:12:37Z</time>
      </trkpt>
      <trkpt lat="45.68827" lon="-1.07353">
        <ele>20.32</ele>
        <time>2013-07-20T09:12:38Z</time>
      </trkpt>
      <trkpt lat="45.68759" lon="-1.07374">
        <ele>23.21</ele>
        <time>2013-07-20T09:12:50Z</time>
      </trkpt>
      <trkpt lat="45.6875" lon="-1.07382">
        <ele>23.69</ele>
        <time>2013-07-20T09:12:52Z</time>
      </trkpt>
      <trkpt lat="45.68676" lon="-1.07459">
        <ele>25.61</ele>
        <time>2013-07-20T09:13:09Z</time>
      </trkpt>
      <trkpt lat="45.68651" lon="-1.07486">
        <ele>25.13</ele>
        <time>2013-07-20T09:13:15Z</time>
      </trkpt>
      <trkpt lat="45.68647" lon="-1.07491">
        <ele>25.13</ele>
        <time>2013-07-20T09:13:16Z</time>
      </trkpt>
      <trkpt lat="45.68641" lon="-1.07503">
        <ele>24.65</ele>
        <time>2013-07-20T09:13:18Z</time>
      </trkpt>
      <trkpt lat="45.68638" lon="-1.0751">
        <ele>24.65</ele>
        <time>2013-07-20T09:13:19Z</time>
      </trkpt>
      <trkpt lat="45.68636" lon="-1.07518">
        <ele>24.65</ele>
        <time>2013-07-20T09:13:20Z</time>
      </trkpt>
      <trkpt lat="45.68635" lon="-1.07527">
        <ele>24.65</ele>
        <time>2013-07-20T09:13:21Z</time>
      </trkpt>
      <trkpt lat="45.68634" lon="-1.07535">
        <ele>24.65</ele>
        <time>2013-07-20T09:13:22Z</time>
      </trkpt>
      <trkpt lat="45.68634" lon="-1.07544">
        <ele>24.65</ele>
        <time>2013-07-20T09:13:23Z</time>
      </trkpt>
      <trkpt lat="45.68629" lon="-1.07654">
        <ele>23.69</ele>
        <time>2013-07-20T09:13:35Z</time>
      </trkpt>
      <trkpt lat="45.68627" lon="-1.07662">
        <ele>23.69</ele>
        <time>2013-07-20T09:13:36Z</time>
      </trkpt>
      <trkpt lat="45.68624" lon="-1.07671">
        <ele>23.69</ele>
        <time>2013-07-20T09:13:37Z</time>
      </trkpt>
      <trkpt lat="45.6862" lon="-1.07678">
        <ele>23.69</ele>
        <time>2013-07-20T09:13:38Z</time>
      </trkpt>
      <trkpt lat="45.68616" lon="-1.07686">
        <ele>23.69</ele>
        <time>2013-07-20T09:13:39Z</time>
      </trkpt>
      <trkpt lat="45.68611" lon="-1.07692">
        <ele>23.21</ele>
        <time>2013-07-20T09:13:40Z</time>
      </trkpt>
      <trkpt lat="45.68606" lon="-1.07698">
        <ele>23.21</ele>
        <time>2013-07-20T09:13:41Z</time>
      </trkpt>
      <trkpt lat="45.68601" lon="-1.07703">
        <ele>23.21</ele>
        <time>2013-07-20T09:13:42Z</time>
      </trkpt>
      <trkpt lat="45.68596" lon="-1.07709">
        <ele>22.73</ele>
        <time>2013-07-20T09:13:43Z</time>
      </trkpt>
      <trkpt lat="45.68586" lon="-1.0772">
        <ele>22.73</ele>
        <time>2013-07-20T09:13:45Z</time>
      </trkpt>
      <trkpt lat="45.6858" lon="-1.07725">
        <ele>22.25</ele>
        <time>2013-07-20T09:13:46Z</time>
      </trkpt>
      <trkpt lat="45.68547" lon="-1.07758">
        <ele>21.29</ele>
        <time>2013-07-20T09:13:52Z</time>
      </trkpt>
      <trkpt lat="45.68541" lon="-1.07763">
        <ele>20.81</ele>
        <time>2013-07-20T09:13:53Z</time>
      </trkpt>
      <trkpt lat="45.68502" lon="-1.07801">
        <ele>17.92</ele>
        <time>2013-07-20T09:13:59Z</time>
      </trkpt>
      <trkpt lat="45.68462" lon="-1.07838">
        <ele>14.56</ele>
        <time>2013-07-20T09:14:04Z</time>
      </trkpt>
      <trkpt lat="45.68426" lon="-1.0787">
        <ele>11.19</ele>
        <time>2013-07-20T09:14:08Z</time>
      </trkpt>
      <trkpt lat="45.68368" lon="-1.07921">
        <ele>7.83</ele>
        <time>2013-07-20T09:14:14Z</time>
      </trkpt>
      <trkpt lat="45.68349" lon="-1.07939">
        <ele>6.39</ele>
        <time>2013-07-20T09:14:16Z</time>
      </trkpt>
      <trkpt lat="45.68276" lon="-1.08004">
        <ele>4.94</ele>
        <time>2013-07-20T09:14:24Z</time>
      </trkpt>
      <trkpt lat="45.6827" lon="-1.08012">
        <ele>3.5</ele>
        <time>2013-07-20T09:14:25Z</time>
      </trkpt>
      <trkpt lat="45.68268" lon="-1.08022">
        <ele>2.54</ele>
        <time>2013-07-20T09:14:26Z</time>
      </trkpt>
      <trkpt lat="45.68269" lon="-1.08032">
        <ele>2.06</ele>
        <time>2013-07-20T09:14:27Z</time>
      </trkpt>
      <trkpt lat="45.68272" lon="-1.08042">
        <ele>1.58</ele>
        <time>2013-07-20T09:14:28Z</time>
      </trkpt>
      <trkpt lat="45.68275" lon="-1.08051">
        <ele>1.58</ele>
        <time>2013-07-20T09:14:29Z</time>
      </trkpt>
      <trkpt lat="45.6828" lon="-1.0806">
        <ele>1.58</ele>
        <time>2013-07-20T09:14:30Z</time>
      </trkpt>
      <trkpt lat="45.68287" lon="-1.08078">
        <ele>1.58</ele>
        <time>2013-07-20T09:14:32Z</time>
      </trkpt>
      <trkpt lat="45.68289" lon="-1.08088">
        <ele>2.06</ele>
        <time>2013-07-20T09:14:33Z</time>
      </trkpt>
      <trkpt lat="45.68287" lon="-1.08098">
        <ele>2.06</ele>
        <time>2013-07-20T09:14:34Z</time>
      </trkpt>
      <trkpt lat="45.68283" lon="-1.08106">
        <ele>2.06</ele>
        <time>2013-07-20T09:14:35Z</time>
      </trkpt>
      <trkpt lat="45.68277" lon="-1.08111">
        <ele>2.06</ele>
        <time>2013-07-20T09:14:36Z</time>
      </trkpt>
      <trkpt lat="45.6827" lon="-1.08115">
        <ele>1.58</ele>
        <time>2013-07-20T09:14:37Z</time>
      </trkpt>
      <trkpt lat="45.68124" lon="-1.08223">
        <ele>1.58</ele>
        <time>2013-07-20T09:15:00Z</time>
      </trkpt>
      <trkpt lat="45.68003" lon="-1.0833">
        <ele>2.06</ele>
        <time>2013-07-20T09:15:20Z</time>
      </trkpt>
      <trkpt lat="45.67987" lon="-1.08349">
        <ele>2.06</ele>
        <time>2013-07-20T09:15:23Z</time>
      </trkpt>
      <trkpt lat="45.67982" lon="-1.08357">
        <ele>2.54</ele>
        <time>2013-07-20T09:15:24Z</time>
      </trkpt>
      <trkpt lat="45.67978" lon="-1.08365">
        <ele>2.54</ele>
        <time>2013-07-20T09:15:25Z</time>
      </trkpt>
      <trkpt lat="45.67975" lon="-1.08373">
        <ele>3.02</ele>
        <time>2013-07-20T09:15:26Z</time>
      </trkpt>
      <trkpt lat="45.67973" lon="-1.08382">
        <ele>2.54</ele>
        <time>2013-07-20T09:15:27Z</time>
      </trkpt>
      <trkpt lat="45.67971" lon="-1.08391">
        <ele>3.02</ele>
        <time>2013-07-20T09:15:28Z</time>
      </trkpt>
      <trkpt lat="45.67934" lon="-1.08536">
        <ele>2.54</ele>
        <time>2013-07-20T09:15:44Z</time>
      </trkpt>
      <trkpt lat="45.67917" lon="-1.08613">
        <ele>1.1</ele>
        <time>2013-07-20T09:15:52Z</time>
      </trkpt>
      <trkpt lat="45.67917" lon="-1.08623">
        <ele>1.1</ele>
        <time>2013-07-20T09:15:53Z</time>
      </trkpt>
      <trkpt lat="45.67917" lon="-1.08632">
        <ele>1.58</ele>
        <time>2013-07-20T09:15:54Z</time>
      </trkpt>
      <trkpt lat="45.67918" lon="-1.0865">
        <ele>1.58</ele>
        <time>2013-07-20T09:15:56Z</time>
      </trkpt>
      <trkpt lat="45.67917" lon="-1.08659">
        <ele>1.58</ele>
        <time>2013-07-20T09:15:57Z</time>
      </trkpt>
      <trkpt lat="45.67915" lon="-1.08667">
        <ele>1.1</ele>
        <time>2013-07-20T09:15:58Z</time>
      </trkpt>
      <trkpt lat="45.67911" lon="-1.08675">
        <ele>1.1</ele>
        <time>2013-07-20T09:15:59Z</time>
      </trkpt>
      <trkpt lat="45.67907" lon="-1.08682">
        <ele>1.58</ele>
        <time>2013-07-20T09:16:00Z</time>
      </trkpt>
      <trkpt lat="45.67902" lon="-1.08687">
        <ele>1.58</ele>
        <time>2013-07-20T09:16:01Z</time>
      </trkpt>
      <trkpt lat="45.67896" lon="-1.08692">
        <ele>1.58</ele>
        <time>2013-07-20T09:16:02Z</time>
      </trkpt>
      <trkpt lat="45.6789" lon="-1.08697">
        <ele>1.58</ele>
        <time>2013-07-20T09:16:03Z</time>
      </trkpt>
      <trkpt lat="45.67879" lon="-1.08704">
        <ele>2.06</ele>
        <time>2013-07-20T09:16:05Z</time>
      </trkpt>
      <trkpt lat="45.67872" lon="-1.08707">
        <ele>2.06</ele>
        <time>2013-07-20T09:16:06Z</time>
      </trkpt>
      <trkpt lat="45.67866" lon="-1.08708">
        <ele>2.06</ele>
        <time>2013-07-20T09:16:07Z</time>
      </trkpt>
      <trkpt lat="45.67792" lon="-1.08719">
        <ele>5.42</ele>
        <time>2013-07-20T09:16:20Z</time>
      </trkpt>
      <trkpt lat="45.67788" lon="-1.0872">
        <ele>5.42</ele>
        <time>2013-07-20T09:16:21Z</time>
      </trkpt>
      <trkpt lat="45.67783" lon="-1.0872">
        <ele>5.91</ele>
        <time>2013-07-20T09:16:22Z</time>
      </trkpt>
      <trkpt lat="45.67778" lon="-1.08719">
        <ele>5.91</ele>
        <time>2013-07-20T09:16:23Z</time>
      </trkpt>
      <trkpt lat="45.67774" lon="-1.08718">
        <ele>6.39</ele>
        <time>2013-07-20T09:16:24Z</time>
      </trkpt>
      <trkpt lat="45.67721" lon="-1.08713">
        <ele>9.27</ele>
        <time>2013-07-20T09:16:37Z</time>
      </trkpt>
      <trkpt lat="45.6767" lon="-1.08707">
        <ele>12.15</ele>
        <time>2013-07-20T09:16:51Z</time>
      </trkpt>
      <trkpt lat="45.67647" lon="-1.08713">
        <ele>12.15</ele>
        <time>2013-07-20T09:16:56Z</time>
      </trkpt>
      <trkpt lat="45.67634" lon="-1.08718">
        <ele>12.15</ele>
        <time>2013-07-20T09:16:59Z</time>
      </trkpt>
      <trkpt lat="45.67601" lon="-1.08733">
        <ele>12.15</ele>
        <time>2013-07-20T09:17:07Z</time>
      </trkpt>
      <trkpt lat="45.67568" lon="-1.08742">
        <ele>13.6</ele>
        <time>2013-07-20T09:17:14Z</time>
      </trkpt>
      <trkpt lat="45.67534" lon="-1.0875">
        <ele>14.08</ele>
        <time>2013-07-20T09:17:21Z</time>
      </trkpt>
      <trkpt lat="45.67524" lon="-1.0875">
        <ele>14.56</ele>
        <time>2013-07-20T09:17:23Z</time>
      </trkpt>
      <trkpt lat="45.67515" lon="-1.08749">
        <ele>15.04</ele>
        <time>2013-07-20T09:17:25Z</time>
      </trkpt>
      <trkpt lat="45.67505" lon="-1.08747">
        <ele>15.52</ele>
        <time>2013-07-20T09:17:27Z</time>
      </trkpt>
      <trkpt lat="45.67422" lon="-1.08702">
        <ele>16.96</ele>
        <time>2013-07-20T09:17:45Z</time>
      </trkpt>
      <trkpt lat="45.67404" lon="-1.08692">
        <ele>17.92</ele>
        <time>2013-07-20T09:17:49Z</time>
      </trkpt>
      <trkpt lat="45.674" lon="-1.0869">
        <ele>17.92</ele>
        <time>2013-07-20T09:17:50Z</time>
      </trkpt>
      <trkpt lat="45.67362" lon="-1.08671">
        <ele>18.88</ele>
        <time>2013-07-20T09:18:02Z</time>
      </trkpt>
      <trkpt lat="45.67325" lon="-1.08666">
        <ele>20.32</ele>
        <time>2013-07-20T09:18:11Z</time>
      </trkpt>
      <trkpt lat="45.67305" lon="-1.08688">
        <ele>20.81</ele>
        <time>2013-07-20T09:18:21Z</time>
      </trkpt>
      <trkpt lat="45.67305" lon="-1.08692">
        <ele>20.32</ele>
        <time>2013-07-20T09:18:22Z</time>
      </trkpt>
      <trkpt lat="45.6732" lon="-1.08741">
        <ele>20.81</ele>
        <time>2013-07-20T09:18:31Z</time>
      </trkpt>
      <trkpt lat="45.67351" lon="-1.08846">
        <ele>21.29</ele>
        <time>2013-07-20T09:18:47Z</time>
      </trkpt>
      <trkpt lat="45.6738" lon="-1.08931">
        <ele>22.73</ele>
        <time>2013-07-20T09:18:59Z</time>
      </trkpt>
      <trkpt lat="45.67382" lon="-1.08938">
        <ele>23.21</ele>
        <time>2013-07-20T09:19:00Z</time>
      </trkpt>
      <trkpt lat="45.67401" lon="-1.09069">
        <ele>24.17</ele>
        <time>2013-07-20T09:19:16Z</time>
      </trkpt>
      <trkpt lat="45.67403" lon="-1.09094">
        <ele>24.65</ele>
        <time>2013-07-20T09:19:19Z</time>
      </trkpt>
      <trkpt lat="45.67426" lon="-1.09209">
        <ele>24.17</ele>
        <time>2013-07-20T09:19:34Z</time>
      </trkpt>
      <trkpt lat="45.67481" lon="-1.09326">
        <ele>22.73</ele>
        <time>2013-07-20T09:19:50Z</time>
      </trkpt>
      <trkpt lat="45.67523" lon="-1.09387">
        <ele>23.21</ele>
        <time>2013-07-20T09:19:59Z</time>
      </trkpt>
      <trkpt lat="45.67528" lon="-1.09394">
        <ele>23.21</ele>
        <time>2013-07-20T09:20:00Z</time>
      </trkpt>
      <trkpt lat="45.6757" lon="-1.09482">
        <ele>25.13</ele>
        <time>2013-07-20T09:20:13Z</time>
      </trkpt>
      <trkpt lat="45.67574" lon="-1.09496">
        <ele>25.61</ele>
        <time>2013-07-20T09:20:15Z</time>
      </trkpt>
      <trkpt lat="45.67585" lon="-1.09549">
        <ele>26.57</ele>
        <time>2013-07-20T09:20:22Z</time>
      </trkpt>
      <trkpt lat="45.67595" lon="-1.09659">
        <ele>25.61</ele>
        <time>2013-07-20T09:20:36Z</time>
      </trkpt>
      <trkpt lat="45.67605" lon="-1.0971">
        <ele>23.69</ele>
        <time>2013-07-20T09:20:42Z</time>
      </trkpt>
      <trkpt lat="45.67617" lon="-1.09745">
        <ele>23.21</ele>
        <time>2013-07-20T09:20:46Z</time>
      </trkpt>
      <trkpt lat="45.67675" lon="-1.09836">
        <ele>22.73</ele>
        <time>2013-07-20T09:20:59Z</time>
      </trkpt>
      <trkpt lat="45.67751" lon="-1.09934">
        <ele>22.73</ele>
        <time>2013-07-20T09:21:14Z</time>
      </trkpt>
      <trkpt lat="45.67816" lon="-1.10001">
        <ele>23.69</ele>
        <time>2013-07-20T09:21:27Z</time>
      </trkpt>
      <trkpt lat="45.6783" lon="-1.1002">
        <ele>23.69</ele>
        <time>2013-07-20T09:21:30Z</time>
      </trkpt>
      <trkpt lat="45.67834" lon="-1.10028">
        <ele>23.21</ele>
        <time>2013-07-20T09:21:31Z</time>
      </trkpt>
      <trkpt lat="45.67872" lon="-1.10113">
        <ele>22.25</ele>
        <time>2013-07-20T09:21:41Z</time>
      </trkpt>
      <trkpt lat="45.67942" lon="-1.10216">
        <ele>22.25</ele>
        <time>2013-07-20T09:21:55Z</time>
      </trkpt>
      <trkpt lat="45.68025" lon="-1.10303">
        <ele>22.73</ele>
        <time>2013-07-20T09:22:10Z</time>
      </trkpt>
      <trkpt lat="45.68099" lon="-1.10396">
        <ele>23.21</ele>
        <time>2013-07-20T09:22:24Z</time>
      </trkpt>
      <trkpt lat="45.68204" lon="-1.10542">
        <ele>22.73</ele>
        <time>2013-07-20T09:22:44Z</time>
      </trkpt>
      <trkpt lat="45.68268" lon="-1.10628">
        <ele>21.77</ele>
        <time>2013-07-20T09:22:57Z</time>
      </trkpt>
      <trkpt lat="45.68342" lon="-1.10702">
        <ele>19.36</ele>
        <time>2013-07-20T09:23:10Z</time>
      </trkpt>
      <trkpt lat="45.68424" lon="-1.10791">
        <ele>18.4</ele>
        <time>2013-07-20T09:23:24Z</time>
      </trkpt>
      <trkpt lat="45.68453" lon="-1.10825">
        <ele>16.96</ele>
        <time>2013-07-20T09:23:29Z</time>
      </trkpt>
      <trkpt lat="45.68459" lon="-1.10833">
        <ele>16.96</ele>
        <time>2013-07-20T09:23:30Z</time>
      </trkpt>
      <trkpt lat="45.68513" lon="-1.10906">
        <ele>13.12</ele>
        <time>2013-07-20T09:23:40Z</time>
      </trkpt>
      <trkpt lat="45.68517" lon="-1.10913">
        <ele>13.12</ele>
        <time>2013-07-20T09:23:41Z</time>
      </trkpt>
      <trkpt lat="45.68523" lon="-1.10926">
        <ele>12.15</ele>
        <time>2013-07-20T09:23:43Z</time>
      </trkpt>
      <trkpt lat="45.68523" lon="-1.10931">
        <ele>11.67</ele>
        <time>2013-07-20T09:23:44Z</time>
      </trkpt>
      <trkpt lat="45.68522" lon="-1.10937">
        <ele>11.67</ele>
        <time>2013-07-20T09:23:45Z</time>
      </trkpt>
      <trkpt lat="45.68521" lon="-1.10942">
        <ele>11.19</ele>
        <time>2013-07-20T09:23:46Z</time>
      </trkpt>
      <trkpt lat="45.68518" lon="-1.10946">
        <ele>11.19</ele>
        <time>2013-07-20T09:23:47Z</time>
      </trkpt>
      <trkpt lat="45.68514" lon="-1.10951">
        <ele>11.19</ele>
        <time>2013-07-20T09:23:48Z</time>
      </trkpt>
      <trkpt lat="45.68511" lon="-1.10955">
        <ele>11.19</ele>
        <time>2013-07-20T09:23:49Z</time>
      </trkpt>
      <trkpt lat="45.68489" lon="-1.10981">
        <ele>12.15</ele>
        <time>2013-07-20T09:23:55Z</time>
      </trkpt>
      <trkpt lat="45.6845" lon="-1.11028">
        <ele>14.08</ele>
        <time>2013-07-20T09:24:06Z</time>
      </trkpt>
      <trkpt lat="45.68439" lon="-1.11041">
        <ele>14.56</ele>
        <time>2013-07-20T09:24:09Z</time>
      </trkpt>
      <trkpt lat="45.68435" lon="-1.11045">
        <ele>15.04</ele>
        <time>2013-07-20T09:24:10Z</time>
      </trkpt>
      <trkpt lat="45.68432" lon="-1.11049">
        <ele>15.04</ele>
        <time>2013-07-20T09:24:11Z</time>
      </trkpt>
      <trkpt lat="45.68428" lon="-1.11053">
        <ele>15.04</ele>
        <time>2013-07-20T09:24:12Z</time>
      </trkpt>
      <trkpt lat="45.68425" lon="-1.11057">
        <ele>15.04</ele>
        <time>2013-07-20T09:24:13Z</time>
      </trkpt>
      <trkpt lat="45.68421" lon="-1.1106">
        <ele>15.52</ele>
        <time>2013-07-20T09:24:14Z</time>
      </trkpt>
      <trkpt lat="45.68416" lon="-1.11062">
        <ele>15.52</ele>
        <time>2013-07-20T09:24:15Z</time>
      </trkpt>
      <trkpt lat="45.68355" lon="-1.1109">
        <ele>17.92</ele>
        <time>2013-07-20T09:24:28Z</time>
      </trkpt>
      <trkpt lat="45.68316" lon="-1.11107">
        <ele>18.4</ele>
        <time>2013-07-20T09:24:36Z</time>
      </trkpt>
      <trkpt lat="45.68311" lon="-1.1111">
        <ele>18.88</ele>
        <time>2013-07-20T09:24:37Z</time>
      </trkpt>
      <trkpt lat="45.68242" lon="-1.1117">
        <ele>21.77</ele>
        <time>2013-07-20T09:24:53Z</time>
      </trkpt>
      <trkpt lat="45.68238" lon="-1.11174">
        <ele>21.77</ele>
        <time>2013-07-20T09:24:54Z</time>
      </trkpt>
      <trkpt lat="45.68192" lon="-1.11216">
        <ele>23.69</ele>
        <time>2013-07-20T09:25:07Z</time>
      </trkpt>
      <trkpt lat="45.68183" lon="-1.11223">
        <ele>23.69</ele>
        <time>2013-07-20T09:25:09Z</time>
      </trkpt>
      <trkpt lat="45.68151" lon="-1.11251">
        <ele>24.65</ele>
        <time>2013-07-20T09:25:17Z</time>
      </trkpt>
      <trkpt lat="45.68143" lon="-1.11258">
        <ele>23.69</ele>
        <time>2013-07-20T09:25:19Z</time>
      </trkpt>
      <trkpt lat="45.68139" lon="-1.11261">
        <ele>23.69</ele>
        <time>2013-07-20T09:25:20Z</time>
      </trkpt>
      <trkpt lat="45.68127" lon="-1.11272">
        <ele>23.21</ele>
        <time>2013-07-20T09:25:23Z</time>
      </trkpt>
      <trkpt lat="45.68122" lon="-1.11276">
        <ele>23.21</ele>
        <time>2013-07-20T09:25:24Z</time>
      </trkpt>
      <trkpt lat="45.68094" lon="-1.11304">
        <ele>21.77</ele>
        <time>2013-07-20T09:25:30Z</time>
      </trkpt>
      <trkpt lat="45.68064" lon="-1.11352">
        <ele>19.84</ele>
        <time>2013-07-20T09:25:36Z</time>
      </trkpt>
      <trkpt lat="45.68053" lon="-1.11369">
        <ele>18.88</ele>
        <time>2013-07-20T09:25:38Z</time>
      </trkpt>
      <trkpt lat="45.68043" lon="-1.11388">
        <ele>17.92</ele>
        <time>2013-07-20T09:25:40Z</time>
      </trkpt>
      <trkpt lat="45.68037" lon="-1.11397">
        <ele>17.44</ele>
        <time>2013-07-20T09:25:41Z</time>
      </trkpt>
      <trkpt lat="45.68032" lon="-1.11405">
        <ele>17.44</ele>
        <time>2013-07-20T09:25:42Z</time>
      </trkpt>
      <trkpt lat="45.68026" lon="-1.11413">
        <ele>18.4</ele>
        <time>2013-07-20T09:25:43Z</time>
      </trkpt>
      <trkpt lat="45.68019" lon="-1.11421">
        <ele>18.4</ele>
        <time>2013-07-20T09:25:44Z</time>
      </trkpt>
      <trkpt lat="45.67968" lon="-1.11472">
        <ele>15.04</ele>
        <time>2013-07-20T09:25:51Z</time>
      </trkpt>
      <trkpt lat="45.67959" lon="-1.11477">
        <ele>15.04</ele>
        <time>2013-07-20T09:25:52Z</time>
      </trkpt>
      <trkpt lat="45.6795" lon="-1.11481">
        <ele>14.56</ele>
        <time>2013-07-20T09:25:53Z</time>
      </trkpt>
      <trkpt lat="45.67869" lon="-1.11523">
        <ele>13.12</ele>
        <time>2013-07-20T09:26:03Z</time>
      </trkpt>
      <trkpt lat="45.67833" lon="-1.11574">
        <ele>16</ele>
        <time>2013-07-20T09:26:13Z</time>
      </trkpt>
      <trkpt lat="45.67815" lon="-1.11622">
        <ele>18.88</ele>
        <time>2013-07-20T09:26:23Z</time>
      </trkpt>
      <trkpt lat="45.67808" lon="-1.1168">
        <ele>22.25</ele>
        <time>2013-07-20T09:26:35Z</time>
      </trkpt>
      <trkpt lat="45.6781" lon="-1.1175">
        <ele>25.13</ele>
        <time>2013-07-20T09:26:48Z</time>
      </trkpt>
      <trkpt lat="45.67815" lon="-1.11825">
        <ele>28.5</ele>
        <time>2013-07-20T09:27:03Z</time>
      </trkpt>
      <trkpt lat="45.67815" lon="-1.11882">
        <ele>28.98</ele>
        <time>2013-07-20T09:27:16Z</time>
      </trkpt>
      <trkpt lat="45.67811" lon="-1.11911">
        <ele>28.98</ele>
        <time>2013-07-20T09:27:21Z</time>
      </trkpt>
      <trkpt lat="45.67803" lon="-1.1194">
        <ele>28.02</ele>
        <time>2013-07-20T09:27:25Z</time>
      </trkpt>
      <trkpt lat="45.678" lon="-1.11947">
        <ele>28.02</ele>
        <time>2013-07-20T09:27:26Z</time>
      </trkpt>
      <trkpt lat="45.67796" lon="-1.11954">
        <ele>27.53</ele>
        <time>2013-07-20T09:27:27Z</time>
      </trkpt>
      <trkpt lat="45.67791" lon="-1.11961">
        <ele>26.57</ele>
        <time>2013-07-20T09:27:28Z</time>
      </trkpt>
      <trkpt lat="45.67786" lon="-1.11967">
        <ele>26.09</ele>
        <time>2013-07-20T09:27:29Z</time>
      </trkpt>
      <trkpt lat="45.67774" lon="-1.11981">
        <ele>25.13</ele>
        <time>2013-07-20T09:27:31Z</time>
      </trkpt>
      <trkpt lat="45.67767" lon="-1.11986">
        <ele>24.65</ele>
        <time>2013-07-20T09:27:32Z</time>
      </trkpt>
      <trkpt lat="45.67732" lon="-1.1201">
        <ele>21.29</ele>
        <time>2013-07-20T09:27:36Z</time>
      </trkpt>
      <trkpt lat="45.67683" lon="-1.12046">
        <ele>19.84</ele>
        <time>2013-07-20T09:27:41Z</time>
      </trkpt>
      <trkpt lat="45.67674" lon="-1.12056">
        <ele>17.92</ele>
        <time>2013-07-20T09:27:42Z</time>
      </trkpt>
      <trkpt lat="45.67666" lon="-1.12068">
        <ele>17.44</ele>
        <time>2013-07-20T09:27:43Z</time>
      </trkpt>
      <trkpt lat="45.67659" lon="-1.12081">
        <ele>16.96</ele>
        <time>2013-07-20T09:27:44Z</time>
      </trkpt>
      <trkpt lat="45.67652" lon="-1.12096">
        <ele>16</ele>
        <time>2013-07-20T09:27:45Z</time>
      </trkpt>
      <trkpt lat="45.67636" lon="-1.12139">
        <ele>14.56</ele>
        <time>2013-07-20T09:27:48Z</time>
      </trkpt>
      <trkpt lat="45.67618" lon="-1.12182">
        <ele>12.63</ele>
        <time>2013-07-20T09:27:51Z</time>
      </trkpt>
      <trkpt lat="45.67611" lon="-1.12195">
        <ele>12.15</ele>
        <time>2013-07-20T09:27:52Z</time>
      </trkpt>
      <trkpt lat="45.67603" lon="-1.12207">
        <ele>12.15</ele>
        <time>2013-07-20T09:27:53Z</time>
      </trkpt>
      <trkpt lat="45.67595" lon="-1.12218">
        <ele>11.67</ele>
        <time>2013-07-20T09:27:54Z</time>
      </trkpt>
      <trkpt lat="45.67586" lon="-1.12227">
        <ele>12.15</ele>
        <time>2013-07-20T09:27:55Z</time>
      </trkpt>
      <trkpt lat="45.67578" lon="-1.12236">
        <ele>11.67</ele>
        <time>2013-07-20T09:27:56Z</time>
      </trkpt>
      <trkpt lat="45.67517" lon="-1.12297">
        <ele>13.6</ele>
        <time>2013-07-20T09:28:05Z</time>
      </trkpt>
      <trkpt lat="45.67487" lon="-1.12324">
        <ele>15.04</ele>
        <time>2013-07-20T09:28:11Z</time>
      </trkpt>
      <trkpt lat="45.67482" lon="-1.12328">
        <ele>15.52</ele>
        <time>2013-07-20T09:28:12Z</time>
      </trkpt>
      <trkpt lat="45.67477" lon="-1.12333">
        <ele>15.52</ele>
        <time>2013-07-20T09:28:13Z</time>
      </trkpt>
      <trkpt lat="45.67472" lon="-1.12338">
        <ele>15.52</ele>
        <time>2013-07-20T09:28:14Z</time>
      </trkpt>
      <trkpt lat="45.67467" lon="-1.12343">
        <ele>15.52</ele>
        <time>2013-07-20T09:28:15Z</time>
      </trkpt>
      <trkpt lat="45.67433" lon="-1.12373">
        <ele>14.56</ele>
        <time>2013-07-20T09:28:21Z</time>
      </trkpt>
      <trkpt lat="45.67426" lon="-1.12376">
        <ele>14.56</ele>
        <time>2013-07-20T09:28:22Z</time>
      </trkpt>
      <trkpt lat="45.67419" lon="-1.12378">
        <ele>14.08</ele>
        <time>2013-07-20T09:28:23Z</time>
      </trkpt>
      <trkpt lat="45.67412" lon="-1.12378">
        <ele>14.08</ele>
        <time>2013-07-20T09:28:24Z</time>
      </trkpt>
      <trkpt lat="45.67404" lon="-1.12377">
        <ele>13.6</ele>
        <time>2013-07-20T09:28:25Z</time>
      </trkpt>
      <trkpt lat="45.67397" lon="-1.12375">
        <ele>13.6</ele>
        <time>2013-07-20T09:28:26Z</time>
      </trkpt>
      <trkpt lat="45.6739" lon="-1.12372">
        <ele>13.12</ele>
        <time>2013-07-20T09:28:27Z</time>
      </trkpt>
      <trkpt lat="45.67383" lon="-1.12369">
        <ele>13.12</ele>
        <time>2013-07-20T09:28:28Z</time>
      </trkpt>
      <trkpt lat="45.67377" lon="-1.12364">
        <ele>13.12</ele>
        <time>2013-07-20T09:28:29Z</time>
      </trkpt>
      <trkpt lat="45.67272" lon="-1.12298">
        <ele>11.19</ele>
        <time>2013-07-20T09:28:44Z</time>
      </trkpt>
      <trkpt lat="45.67264" lon="-1.12296">
        <ele>11.19</ele>
        <time>2013-07-20T09:28:45Z</time>
      </trkpt>
      <trkpt lat="45.67256" lon="-1.12294">
        <ele>11.19</ele>
        <time>2013-07-20T09:28:46Z</time>
      </trkpt>
      <trkpt lat="45.67248" lon="-1.12294">
        <ele>10.71</ele>
        <time>2013-07-20T09:28:47Z</time>
      </trkpt>
      <trkpt lat="45.6724" lon="-1.12295">
        <ele>10.71</ele>
        <time>2013-07-20T09:28:48Z</time>
      </trkpt>
      <trkpt lat="45.67232" lon="-1.12296">
        <ele>10.23</ele>
        <time>2013-07-20T09:28:49Z</time>
      </trkpt>
      <trkpt lat="45.67224" lon="-1.12298">
        <ele>10.23</ele>
        <time>2013-07-20T09:28:50Z</time>
      </trkpt>
      <trkpt lat="45.6714" lon="-1.12319">
        <ele>9.27</ele>
        <time>2013-07-20T09:29:01Z</time>
      </trkpt>
      <trkpt lat="45.67045" lon="-1.12343">
        <ele>9.27</ele>
        <time>2013-07-20T09:29:14Z</time>
      </trkpt>
      <trkpt lat="45.66932" lon="-1.12373">
        <ele>9.27</ele>
        <time>2013-07-20T09:29:30Z</time>
      </trkpt>
      <trkpt lat="45.66874" lon="-1.12386">
        <ele>8.79</ele>
        <time>2013-07-20T09:29:38Z</time>
      </trkpt>
      <trkpt lat="45.66867" lon="-1.12387">
        <ele>8.79</ele>
        <time>2013-07-20T09:29:39Z</time>
      </trkpt>
      <trkpt lat="45.6686" lon="-1.12387">
        <ele>9.27</ele>
        <time>2013-07-20T09:29:40Z</time>
      </trkpt>
      <trkpt lat="45.66847" lon="-1.12386">
        <ele>10.23</ele>
        <time>2013-07-20T09:29:42Z</time>
      </trkpt>
      <trkpt lat="45.66841" lon="-1.12384">
        <ele>9.75</ele>
        <time>2013-07-20T09:29:43Z</time>
      </trkpt>
      <trkpt lat="45.66836" lon="-1.12383">
        <ele>9.75</ele>
        <time>2013-07-20T09:29:44Z</time>
      </trkpt>
      <trkpt lat="45.6683" lon="-1.12381">
        <ele>9.75</ele>
        <time>2013-07-20T09:29:45Z</time>
      </trkpt>
      <trkpt lat="45.66825" lon="-1.12379">
        <ele>9.75</ele>
        <time>2013-07-20T09:29:46Z</time>
      </trkpt>
      <trkpt lat="45.66751" lon="-1.12343">
        <ele>9.75</ele>
        <time>2013-07-20T09:29:59Z</time>
      </trkpt>
      <trkpt lat="45.66666" lon="-1.12301">
        <ele>11.67</ele>
        <time>2013-07-20T09:30:13Z</time>
      </trkpt>
      <trkpt lat="45.66626" lon="-1.12279">
        <ele>13.6</ele>
        <time>2013-07-20T09:30:22Z</time>
      </trkpt>
      <trkpt lat="45.66617" lon="-1.12273">
        <ele>13.6</ele>
        <time>2013-07-20T09:30:24Z</time>
      </trkpt>
      <trkpt lat="45.66613" lon="-1.1227">
        <ele>14.08</ele>
        <time>2013-07-20T09:30:25Z</time>
      </trkpt>
      <trkpt lat="45.6661" lon="-1.12265">
        <ele>14.08</ele>
        <time>2013-07-20T09:30:26Z</time>
      </trkpt>
      <trkpt lat="45.66607" lon="-1.12259">
        <ele>14.56</ele>
        <time>2013-07-20T09:30:27Z</time>
      </trkpt>
      <trkpt lat="45.66605" lon="-1.12254">
        <ele>14.08</ele>
        <time>2013-07-20T09:30:28Z</time>
      </trkpt>
      <trkpt lat="45.66593" lon="-1.12186">
        <ele>15.04</ele>
        <time>2013-07-20T09:30:39Z</time>
      </trkpt>
      <trkpt lat="45.66585" lon="-1.12147">
        <ele>14.56</ele>
        <time>2013-07-20T09:30:45Z</time>
      </trkpt>
      <trkpt lat="45.66582" lon="-1.1214">
        <ele>15.04</ele>
        <time>2013-07-20T09:30:46Z</time>
      </trkpt>
      <trkpt lat="45.6658" lon="-1.12133">
        <ele>15.04</ele>
        <time>2013-07-20T09:30:47Z</time>
      </trkpt>
      <trkpt lat="45.66577" lon="-1.12126">
        <ele>15.04</ele>
        <time>2013-07-20T09:30:48Z</time>
      </trkpt>
      <trkpt lat="45.66573" lon="-1.1212">
        <ele>15.04</ele>
        <time>2013-07-20T09:30:49Z</time>
      </trkpt>
      <trkpt lat="45.66569" lon="-1.12116">
        <ele>15.04</ele>
        <time>2013-07-20T09:30:50Z</time>
      </trkpt>
      <trkpt lat="45.66565" lon="-1.12112">
        <ele>15.04</ele>
        <time>2013-07-20T09:30:51Z</time>
      </trkpt>
      <trkpt lat="45.66559" lon="-1.1211">
        <ele>15.52</ele>
        <time>2013-07-20T09:30:52Z</time>
      </trkpt>
      <trkpt lat="45.66554" lon="-1.12109">
        <ele>15.52</ele>
        <time>2013-07-20T09:30:53Z</time>
      </trkpt>
      <trkpt lat="45.66548" lon="-1.12109">
        <ele>15.52</ele>
        <time>2013-07-20T09:30:54Z</time>
      </trkpt>
      <trkpt lat="45.66543" lon="-1.12109">
        <ele>15.52</ele>
        <time>2013-07-20T09:30:55Z</time>
      </trkpt>
      <trkpt lat="45.66537" lon="-1.1211">
        <ele>15.52</ele>
        <time>2013-07-20T09:30:56Z</time>
      </trkpt>
      <trkpt lat="45.66505" lon="-1.1212">
        <ele>16</ele>
        <time>2013-07-20T09:31:02Z</time>
      </trkpt>
      <trkpt lat="45.66483" lon="-1.12124">
        <ele>16.48</ele>
        <time>2013-07-20T09:31:07Z</time>
      </trkpt>
      <trkpt lat="45.6646" lon="-1.1212">
        <ele>17.44</ele>
        <time>2013-07-20T09:31:12Z</time>
      </trkpt>
      <trkpt lat="45.66455" lon="-1.12118">
        <ele>16.96</ele>
        <time>2013-07-20T09:31:13Z</time>
      </trkpt>
      <trkpt lat="45.6645" lon="-1.12115">
        <ele>16.96</ele>
        <time>2013-07-20T09:31:14Z</time>
      </trkpt>
      <trkpt lat="45.6644" lon="-1.12108">
        <ele>16.96</ele>
        <time>2013-07-20T09:31:16Z</time>
      </trkpt>
      <trkpt lat="45.66376" lon="-1.12026">
        <ele>15.52</ele>
        <time>2013-07-20T09:31:30Z</time>
      </trkpt>
      <trkpt lat="45.66306" lon="-1.11923">
        <ele>16.48</ele>
        <time>2013-07-20T09:31:46Z</time>
      </trkpt>
      <trkpt lat="45.66236" lon="-1.11822">
        <ele>15.52</ele>
        <time>2013-07-20T09:32:01Z</time>
      </trkpt>
      <trkpt lat="45.6623" lon="-1.11817">
        <ele>15.52</ele>
        <time>2013-07-20T09:32:02Z</time>
      </trkpt>
      <trkpt lat="45.66225" lon="-1.11812">
        <ele>15.52</ele>
        <time>2013-07-20T09:32:03Z</time>
      </trkpt>
      <trkpt lat="45.66219" lon="-1.1181">
        <ele>16</ele>
        <time>2013-07-20T09:32:04Z</time>
      </trkpt>
      <trkpt lat="45.66213" lon="-1.11809">
        <ele>16</ele>
        <time>2013-07-20T09:32:05Z</time>
      </trkpt>
      <trkpt lat="45.66207" lon="-1.1181">
        <ele>16</ele>
        <time>2013-07-20T09:32:06Z</time>
      </trkpt>
      <trkpt lat="45.66201" lon="-1.11812">
        <ele>16.48</ele>
        <time>2013-07-20T09:32:07Z</time>
      </trkpt>
      <trkpt lat="45.66195" lon="-1.11815">
        <ele>16</ele>
        <time>2013-07-20T09:32:08Z</time>
      </trkpt>
      <trkpt lat="45.66189" lon="-1.11819">
        <ele>16</ele>
        <time>2013-07-20T09:32:09Z</time>
      </trkpt>
      <trkpt lat="45.66183" lon="-1.11822">
        <ele>16.48</ele>
        <time>2013-07-20T09:32:10Z</time>
      </trkpt>
      <trkpt lat="45.66105" lon="-1.11864">
        <ele>16.96</ele>
        <time>2013-07-20T09:32:24Z</time>
      </trkpt>
      <trkpt lat="45.66084" lon="-1.11868">
        <ele>17.44</ele>
        <time>2013-07-20T09:32:28Z</time>
      </trkpt>
      <trkpt lat="45.66064" lon="-1.11869">
        <ele>18.88</ele>
        <time>2013-07-20T09:32:33Z</time>
      </trkpt>
      <trkpt lat="45.66045" lon="-1.1187">
        <ele>19.84</ele>
        <time>2013-07-20T09:32:37Z</time>
      </trkpt>
      <trkpt lat="45.66041" lon="-1.1187">
        <ele>20.32</ele>
        <time>2013-07-20T09:32:38Z</time>
      </trkpt>
      <trkpt lat="45.66036" lon="-1.1187">
        <ele>20.32</ele>
        <time>2013-07-20T09:32:39Z</time>
      </trkpt>
      <trkpt lat="45.66028" lon="-1.1187">
        <ele>20.81</ele>
        <time>2013-07-20T09:32:41Z</time>
      </trkpt>
      <trkpt lat="45.66024" lon="-1.11872">
        <ele>21.29</ele>
        <time>2013-07-20T09:32:42Z</time>
      </trkpt>
      <trkpt lat="45.65996" lon="-1.11898">
        <ele>20.32</ele>
        <time>2013-07-20T09:32:51Z</time>
      </trkpt>
      <trkpt lat="45.65993" lon="-1.11904">
        <ele>20.32</ele>
        <time>2013-07-20T09:32:52Z</time>
      </trkpt>
      <trkpt lat="45.65983" lon="-1.11922">
        <ele>20.32</ele>
        <time>2013-07-20T09:32:55Z</time>
      </trkpt>
      <trkpt lat="45.65965" lon="-1.1195">
        <ele>17.92</ele>
        <time>2013-07-20T09:32:59Z</time>
      </trkpt>
      <trkpt lat="45.65959" lon="-1.11956">
        <ele>17.44</ele>
        <time>2013-07-20T09:33:00Z</time>
      </trkpt>
      <trkpt lat="45.65954" lon="-1.11961">
        <ele>16.96</ele>
        <time>2013-07-20T09:33:01Z</time>
      </trkpt>
      <trkpt lat="45.65945" lon="-1.11968">
        <ele>15.52</ele>
        <time>2013-07-20T09:33:03Z</time>
      </trkpt>
      <trkpt lat="45.65938" lon="-1.11973">
        <ele>15.04</ele>
        <time>2013-07-20T09:33:05Z</time>
      </trkpt>
      <trkpt lat="45.65934" lon="-1.11976">
        <ele>14.56</ele>
        <time>2013-07-20T09:33:06Z</time>
      </trkpt>
      <trkpt lat="45.65905" lon="-1.12002">
        <ele>14.08</ele>
        <time>2013-07-20T09:33:13Z</time>
      </trkpt>
      <trkpt lat="45.65897" lon="-1.1201">
        <ele>14.08</ele>
        <time>2013-07-20T09:33:15Z</time>
      </trkpt>
      <trkpt lat="45.65893" lon="-1.12015">
        <ele>13.6</ele>
        <time>2013-07-20T09:33:16Z</time>
      </trkpt>
      <trkpt lat="45.65889" lon="-1.12018">
        <ele>13.6</ele>
        <time>2013-07-20T09:33:17Z</time>
      </trkpt>
      <trkpt lat="45.65873" lon="-1.12032">
        <ele>12.15</ele>
        <time>2013-07-20T09:33:21Z</time>
      </trkpt>
      <trkpt lat="45.65868" lon="-1.12034">
        <ele>11.67</ele>
        <time>2013-07-20T09:33:22Z</time>
      </trkpt>
      <trkpt lat="45.65862" lon="-1.12036">
        <ele>11.67</ele>
        <time>2013-07-20T09:33:23Z</time>
      </trkpt>
      <trkpt lat="45.65857" lon="-1.12036">
        <ele>11.19</ele>
        <time>2013-07-20T09:33:24Z</time>
      </trkpt>
      <trkpt lat="45.6585" lon="-1.12037">
        <ele>10.71</ele>
        <time>2013-07-20T09:33:25Z</time>
      </trkpt>
      <trkpt lat="45.65844" lon="-1.12037">
        <ele>10.23</ele>
        <time>2013-07-20T09:33:26Z</time>
      </trkpt>
      <trkpt lat="45.65796" lon="-1.12034">
        <ele>8.31</ele>
        <time>2013-07-20T09:33:32Z</time>
      </trkpt>
      <trkpt lat="45.65747" lon="-1.12043">
        <ele>8.31</ele>
        <time>2013-07-20T09:33:39Z</time>
      </trkpt>
      <trkpt lat="45.65724" lon="-1.12057">
        <ele>8.79</ele>
        <time>2013-07-20T09:33:47Z</time>
      </trkpt>
      <trkpt lat="45.65725" lon="-1.1206">
        <ele>8.79</ele>
        <time>2013-07-20T09:33:51Z</time>
      </trkpt>
      <trkpt lat="45.65726" lon="-1.12063">
        <ele>9.27</ele>
        <time>2013-07-20T09:34:06Z</time>
      </trkpt>
      <trkpt lat="45.65724" lon="-1.12065">
        <ele>9.27</ele>
        <time>2013-07-20T09:34:30Z</time>
      </trkpt>
      <trkpt lat="45.65724" lon="-1.12064">
        <ele>9.27</ele>
        <time>2013-07-20T09:34:55Z</time>
      </trkpt>
      <trkpt lat="45.65723" lon="-1.12065">
        <ele>9.27</ele>
        <time>2013-07-20T09:35:15Z</time>
      </trkpt>
      <trkpt lat="45.65723" lon="-1.12068">
        <ele>9.27</ele>
        <time>2013-07-20T09:35:19Z</time>
      </trkpt>
      <trkpt lat="45.65738" lon="-1.12109">
        <ele>10.23</ele>
        <time>2013-07-20T09:35:28Z</time>
      </trkpt>
      <trkpt lat="45.65746" lon="-1.12133">
        <ele>10.71</ele>
        <time>2013-07-20T09:35:32Z</time>
      </trkpt>
      <trkpt lat="45.65748" lon="-1.12139">
        <ele>10.71</ele>
        <time>2013-07-20T09:35:33Z</time>
      </trkpt>
      <trkpt lat="45.65765" lon="-1.12216">
        <ele>11.67</ele>
        <time>2013-07-20T09:35:44Z</time>
      </trkpt>
      <trkpt lat="45.65782" lon="-1.12337">
        <ele>11.67</ele>
        <time>2013-07-20T09:35:59Z</time>
      </trkpt>
      <trkpt lat="45.65816" lon="-1.1246">
        <ele>10.23</ele>
        <time>2013-07-20T09:36:13Z</time>
      </trkpt>
      <trkpt lat="45.65846" lon="-1.12575">
        <ele>11.67</ele>
        <time>2013-07-20T09:36:27Z</time>
      </trkpt>
      <trkpt lat="45.65849" lon="-1.12589">
        <ele>12.63</ele>
        <time>2013-07-20T09:36:29Z</time>
      </trkpt>
      <trkpt lat="45.65849" lon="-1.12597">
        <ele>12.63</ele>
        <time>2013-07-20T09:36:30Z</time>
      </trkpt>
      <trkpt lat="45.65849" lon="-1.12604">
        <ele>12.63</ele>
        <time>2013-07-20T09:36:31Z</time>
      </trkpt>
      <trkpt lat="45.65848" lon="-1.1261">
        <ele>12.63</ele>
        <time>2013-07-20T09:36:32Z</time>
      </trkpt>
      <trkpt lat="45.65845" lon="-1.12616">
        <ele>12.63</ele>
        <time>2013-07-20T09:36:33Z</time>
      </trkpt>
      <trkpt lat="45.65842" lon="-1.12619">
        <ele>12.63</ele>
        <time>2013-07-20T09:36:34Z</time>
      </trkpt>
      <trkpt lat="45.65839" lon="-1.1262">
        <ele>13.12</ele>
        <time>2013-07-20T09:36:35Z</time>
      </trkpt>
      <trkpt lat="45.65835" lon="-1.12619">
        <ele>13.6</ele>
        <time>2013-07-20T09:36:36Z</time>
      </trkpt>
      <trkpt lat="45.65832" lon="-1.12618">
        <ele>14.08</ele>
        <time>2013-07-20T09:36:37Z</time>
      </trkpt>
      <trkpt lat="45.65828" lon="-1.12616">
        <ele>14.08</ele>
        <time>2013-07-20T09:36:38Z</time>
      </trkpt>
      <trkpt lat="45.65825" lon="-1.12614">
        <ele>14.08</ele>
        <time>2013-07-20T09:36:39Z</time>
      </trkpt>
      <trkpt lat="45.65821" lon="-1.12611">
        <ele>14.56</ele>
        <time>2013-07-20T09:36:40Z</time>
      </trkpt>
      <trkpt lat="45.6581" lon="-1.12601">
        <ele>15.04</ele>
        <time>2013-07-20T09:36:43Z</time>
      </trkpt>
      <trkpt lat="45.65806" lon="-1.12598">
        <ele>15.04</ele>
        <time>2013-07-20T09:36:44Z</time>
      </trkpt>
      <trkpt lat="45.65751" lon="-1.1255">
        <ele>16.96</ele>
        <time>2013-07-20T09:37:00Z</time>
      </trkpt>
      <trkpt lat="45.65743" lon="-1.12544">
        <ele>16.96</ele>
        <time>2013-07-20T09:37:02Z</time>
      </trkpt>
      <trkpt lat="45.65672" lon="-1.12485">
        <ele>16</ele>
        <time>2013-07-20T09:37:16Z</time>
      </trkpt>
      <trkpt lat="45.6566" lon="-1.12475">
        <ele>15.52</ele>
        <time>2013-07-20T09:37:18Z</time>
      </trkpt>
      <trkpt lat="45.65551" lon="-1.1238">
        <ele>13.12</ele>
        <time>2013-07-20T09:37:35Z</time>
      </trkpt>
      <trkpt lat="45.65453" lon="-1.12296">
        <ele>12.63</ele>
        <time>2013-07-20T09:37:50Z</time>
      </trkpt>
      <trkpt lat="45.65355" lon="-1.12211">
        <ele>12.63</ele>
        <time>2013-07-20T09:38:07Z</time>
      </trkpt>
      <trkpt lat="45.65317" lon="-1.12189">
        <ele>12.63</ele>
        <time>2013-07-20T09:38:14Z</time>
      </trkpt>
      <trkpt lat="45.65311" lon="-1.12188">
        <ele>12.15</ele>
        <time>2013-07-20T09:38:15Z</time>
      </trkpt>
      <trkpt lat="45.65307" lon="-1.12187">
        <ele>12.63</ele>
        <time>2013-07-20T09:38:16Z</time>
      </trkpt>
      <trkpt lat="45.65302" lon="-1.12187">
        <ele>12.63</ele>
        <time>2013-07-20T09:38:17Z</time>
      </trkpt>
      <trkpt lat="45.65297" lon="-1.1219">
        <ele>12.63</ele>
        <time>2013-07-20T09:38:18Z</time>
      </trkpt>
      <trkpt lat="45.65294" lon="-1.12193">
        <ele>12.63</ele>
        <time>2013-07-20T09:38:19Z</time>
      </trkpt>
      <trkpt lat="45.65291" lon="-1.12198">
        <ele>12.15</ele>
        <time>2013-07-20T09:38:20Z</time>
      </trkpt>
      <trkpt lat="45.65288" lon="-1.12203">
        <ele>12.63</ele>
        <time>2013-07-20T09:38:21Z</time>
      </trkpt>
      <trkpt lat="45.65286" lon="-1.12208">
        <ele>12.63</ele>
        <time>2013-07-20T09:38:22Z</time>
      </trkpt>
      <trkpt lat="45.65277" lon="-1.12224">
        <ele>12.63</ele>
        <time>2013-07-20T09:38:25Z</time>
      </trkpt>
      <trkpt lat="45.65269" lon="-1.12232">
        <ele>12.63</ele>
        <time>2013-07-20T09:38:27Z</time>
      </trkpt>
      <trkpt lat="45.65266" lon="-1.12235">
        <ele>12.63</ele>
        <time>2013-07-20T09:38:28Z</time>
      </trkpt>
      <trkpt lat="45.65262" lon="-1.12238">
        <ele>12.63</ele>
        <time>2013-07-20T09:38:29Z</time>
      </trkpt>
      <trkpt lat="45.6526" lon="-1.12241">
        <ele>12.63</ele>
        <time>2013-07-20T09:38:30Z</time>
      </trkpt>
      <trkpt lat="45.65258" lon="-1.12245">
        <ele>12.63</ele>
        <time>2013-07-20T09:38:31Z</time>
      </trkpt>
      <trkpt lat="45.65256" lon="-1.1225">
        <ele>12.63</ele>
        <time>2013-07-20T09:38:32Z</time>
      </trkpt>
      <trkpt lat="45.65255" lon="-1.12255">
        <ele>12.15</ele>
        <time>2013-07-20T09:38:33Z</time>
      </trkpt>
      <trkpt lat="45.65254" lon="-1.1226">
        <ele>13.12</ele>
        <time>2013-07-20T09:38:34Z</time>
      </trkpt>
      <trkpt lat="45.65252" lon="-1.12265">
        <ele>12.63</ele>
        <time>2013-07-20T09:38:35Z</time>
      </trkpt>
      <trkpt lat="45.6525" lon="-1.12269">
        <ele>12.63</ele>
        <time>2013-07-20T09:38:36Z</time>
      </trkpt>
      <trkpt lat="45.65249" lon="-1.12274">
        <ele>12.63</ele>
        <time>2013-07-20T09:38:37Z</time>
      </trkpt>
      <trkpt lat="45.65246" lon="-1.12284">
        <ele>12.63</ele>
        <time>2013-07-20T09:38:40Z</time>
      </trkpt>
      <trkpt lat="45.65246" lon="-1.12289">
        <ele>12.15</ele>
        <time>2013-07-20T09:38:41Z</time>
      </trkpt>
      <trkpt lat="45.65247" lon="-1.12293">
        <ele>12.63</ele>
        <time>2013-07-20T09:38:42Z</time>
      </trkpt>
      <trkpt lat="45.65249" lon="-1.12297">
        <ele>12.15</ele>
        <time>2013-07-20T09:38:43Z</time>
      </trkpt>
      <trkpt lat="45.65251" lon="-1.12301">
        <ele>12.15</ele>
        <time>2013-07-20T09:38:44Z</time>
      </trkpt>
      <trkpt lat="45.65252" lon="-1.12306">
        <ele>12.15</ele>
        <time>2013-07-20T09:38:45Z</time>
      </trkpt>
      <trkpt lat="45.65252" lon="-1.1231">
        <ele>12.15</ele>
        <time>2013-07-20T09:38:46Z</time>
      </trkpt>
      <trkpt lat="45.65251" lon="-1.12313">
        <ele>12.15</ele>
        <time>2013-07-20T09:38:47Z</time>
      </trkpt>
      <trkpt lat="45.6525" lon="-1.12316">
        <ele>12.15</ele>
        <time>2013-07-20T09:38:48Z</time>
      </trkpt>
      <trkpt lat="45.65248" lon="-1.12318">
        <ele>12.15</ele>
        <time>2013-07-20T09:38:49Z</time>
      </trkpt>
      <trkpt lat="45.65245" lon="-1.12318">
        <ele>12.15</ele>
        <time>2013-07-20T09:38:50Z</time>
      </trkpt>
      <trkpt lat="45.65242" lon="-1.12319">
        <ele>12.15</ele>
        <time>2013-07-20T09:38:51Z</time>
      </trkpt>
      <trkpt lat="45.6524" lon="-1.1232">
        <ele>12.15</ele>
        <time>2013-07-20T09:38:52Z</time>
      </trkpt>
      <trkpt lat="45.65238" lon="-1.12322">
        <ele>12.15</ele>
        <time>2013-07-20T09:38:53Z</time>
      </trkpt>
      <trkpt lat="45.65238" lon="-1.12325">
        <ele>11.67</ele>
        <time>2013-07-20T09:38:54Z</time>
      </trkpt>
      <trkpt lat="45.65238" lon="-1.12327">
        <ele>11.67</ele>
        <time>2013-07-20T09:38:55Z</time>
      </trkpt>
      <trkpt lat="45.65238" lon="-1.1233">
        <ele>11.67</ele>
        <time>2013-07-20T09:38:56Z</time>
      </trkpt>
      <trkpt lat="45.65238" lon="-1.12332">
        <ele>11.67</ele>
        <time>2013-07-20T09:38:57Z</time>
      </trkpt>
      <trkpt lat="45.65238" lon="-1.12334">
        <ele>11.67</ele>
        <time>2013-07-20T09:38:58Z</time>
      </trkpt>
      <trkpt lat="45.65237" lon="-1.12336">
        <ele>11.67</ele>
        <time>2013-07-20T09:38:59Z</time>
      </trkpt>
      <trkpt lat="45.65236" lon="-1.12337">
        <ele>11.67</ele>
        <time>2013-07-20T09:39:00Z</time>
      </trkpt>
      <trkpt lat="45.65234" lon="-1.12337">
        <ele>11.67</ele>
        <time>2013-07-20T09:39:01Z</time>
      </trkpt>
      <trkpt lat="45.65233" lon="-1.12337">
        <ele>11.67</ele>
        <time>2013-07-20T09:39:02Z</time>
      </trkpt>
      <trkpt lat="45.65231" lon="-1.12337">
        <ele>11.67</ele>
        <time>2013-07-20T09:39:03Z</time>
      </trkpt>
      <trkpt lat="45.65229" lon="-1.12337">
        <ele>11.19</ele>
        <time>2013-07-20T09:39:04Z</time>
      </trkpt>
      <trkpt lat="45.65227" lon="-1.12339">
        <ele>11.19</ele>
        <time>2013-07-20T09:39:05Z</time>
      </trkpt>
      <trkpt lat="45.65207" lon="-1.1236">
        <ele>10.71</ele>
        <time>2013-07-20T09:39:13Z</time>
      </trkpt>
      <trkpt lat="45.65187" lon="-1.12394">
        <ele>10.71</ele>
        <time>2013-07-20T09:39:26Z</time>
      </trkpt>
      <trkpt lat="45.65189" lon="-1.12393">
        <ele>11.19</ele>
        <time>2013-07-20T09:39:45Z</time>
      </trkpt>
      <trkpt lat="45.65188" lon="-1.12394">
        <ele>11.19</ele>
        <time>2013-07-20T09:40:19Z</time>
      </trkpt>
      <trkpt lat="45.65187" lon="-1.12394">
        <ele>11.19</ele>
        <time>2013-07-20T09:40:45Z</time>
      </trkpt>
      <trkpt lat="45.65188" lon="-1.12395">
        <ele>11.19</ele>
        <time>2013-07-20T09:40:51Z</time>
      </trkpt>
      <trkpt lat="45.65195" lon="-1.12396">
        <ele>10.23</ele>
        <time>2013-07-20T09:41:05Z</time>
      </trkpt>
      <trkpt lat="45.65195" lon="-1.12397">
        <ele>10.71</ele>
        <time>2013-07-20T09:41:44Z</time>
      </trkpt>
      <trkpt lat="45.65196" lon="-1.12396">
        <ele>11.19</ele>
        <time>2013-07-20T09:41:53Z</time>
      </trkpt>
      <trkpt lat="45.65211" lon="-1.1236">
        <ele>10.71</ele>
        <time>2013-07-20T09:42:05Z</time>
      </trkpt>
      <trkpt lat="45.65213" lon="-1.12353">
        <ele>11.19</ele>
        <time>2013-07-20T09:42:07Z</time>
      </trkpt>
      <trkpt lat="45.65213" lon="-1.1235">
        <ele>11.19</ele>
        <time>2013-07-20T09:42:08Z</time>
      </trkpt>
      <trkpt lat="45.65211" lon="-1.12347">
        <ele>11.67</ele>
        <time>2013-07-20T09:42:09Z</time>
      </trkpt>
      <trkpt lat="45.65209" lon="-1.12344">
        <ele>11.67</ele>
        <time>2013-07-20T09:42:10Z</time>
      </trkpt>
      <trkpt lat="45.65207" lon="-1.12342">
        <ele>11.67</ele>
        <time>2013-07-20T09:42:11Z</time>
      </trkpt>
      <trkpt lat="45.65204" lon="-1.12341">
        <ele>11.67</ele>
        <time>2013-07-20T09:42:12Z</time>
      </trkpt>
      <trkpt lat="45.65174" lon="-1.12311">
        <ele>12.15</ele>
        <time>2013-07-20T09:42:26Z</time>
      </trkpt>
      <trkpt lat="45.6517" lon="-1.12285">
        <ele>11.19</ele>
        <time>2013-07-20T09:42:36Z</time>
      </trkpt>
      <trkpt lat="45.65171" lon="-1.12283">
        <ele>11.19</ele>
        <time>2013-07-20T09:42:38Z</time>
      </trkpt>
      <trkpt lat="45.65172" lon="-1.12282">
        <ele>11.19</ele>
        <time>2013-07-20T09:42:39Z</time>
      </trkpt>
      <trkpt lat="45.65174" lon="-1.12282">
        <ele>11.19</ele>
        <time>2013-07-20T09:42:40Z</time>
      </trkpt>
      <trkpt lat="45.65175" lon="-1.12282">
        <ele>11.19</ele>
        <time>2013-07-20T09:42:41Z</time>
      </trkpt>
      <trkpt lat="45.65176" lon="-1.12284">
        <ele>11.67</ele>
        <time>2013-07-20T09:42:42Z</time>
      </trkpt>
      <trkpt lat="45.65175" lon="-1.12286">
        <ele>11.67</ele>
        <time>2013-07-20T09:42:43Z</time>
      </trkpt>
      <trkpt lat="45.65174" lon="-1.12287">
        <ele>11.67</ele>
        <time>2013-07-20T09:42:44Z</time>
      </trkpt>
      <trkpt lat="45.65172" lon="-1.12287">
        <ele>11.67</ele>
        <time>2013-07-20T09:42:45Z</time>
      </trkpt>
      <trkpt lat="45.65171" lon="-1.12288">
        <ele>11.67</ele>
        <time>2013-07-20T09:42:46Z</time>
      </trkpt>
      <trkpt lat="45.65168" lon="-1.12287">
        <ele>11.67</ele>
        <time>2013-07-20T09:42:47Z</time>
      </trkpt>
      <trkpt lat="45.65166" lon="-1.12286">
        <ele>12.15</ele>
        <time>2013-07-20T09:42:48Z</time>
      </trkpt>
      <trkpt lat="45.65164" lon="-1.12284">
        <ele>11.67</ele>
        <time>2013-07-20T09:42:49Z</time>
      </trkpt>
      <trkpt lat="45.65162" lon="-1.12283">
        <ele>11.67</ele>
        <time>2013-07-20T09:42:50Z</time>
      </trkpt>
      <trkpt lat="45.6516" lon="-1.1228">
        <ele>11.67</ele>
        <time>2013-07-20T09:42:51Z</time>
      </trkpt>
      <trkpt lat="45.65159" lon="-1.12277">
        <ele>11.67</ele>
        <time>2013-07-20T09:42:52Z</time>
      </trkpt>
      <trkpt lat="45.65157" lon="-1.12275">
        <ele>11.67</ele>
        <time>2013-07-20T09:42:53Z</time>
      </trkpt>
      <trkpt lat="45.65141" lon="-1.12237">
        <ele>11.19</ele>
        <time>2013-07-20T09:43:09Z</time>
      </trkpt>
      <trkpt lat="45.65141" lon="-1.12234">
        <ele>11.19</ele>
        <time>2013-07-20T09:43:19Z</time>
      </trkpt>
      <trkpt lat="45.6514" lon="-1.12232">
        <ele>11.19</ele>
        <time>2013-07-20T09:43:20Z</time>
      </trkpt>
      <trkpt lat="45.65139" lon="-1.1223">
        <ele>11.19</ele>
        <time>2013-07-20T09:43:21Z</time>
      </trkpt>
      <trkpt lat="45.65139" lon="-1.12228">
        <ele>11.19</ele>
        <time>2013-07-20T09:43:22Z</time>
      </trkpt>
      <trkpt lat="45.65137" lon="-1.12226">
        <ele>11.19</ele>
        <time>2013-07-20T09:43:23Z</time>
      </trkpt>
      <trkpt lat="45.65136" lon="-1.12223">
        <ele>11.19</ele>
        <time>2013-07-20T09:43:24Z</time>
      </trkpt>
      <trkpt lat="45.65125" lon="-1.12196">
        <ele>11.19</ele>
        <time>2013-07-20T09:43:36Z</time>
      </trkpt>
      <trkpt lat="45.65125" lon="-1.12193">
        <ele>11.19</ele>
        <time>2013-07-20T09:43:37Z</time>
      </trkpt>
      <trkpt lat="45.65124" lon="-1.12192">
        <ele>11.19</ele>
        <time>2013-07-20T09:43:38Z</time>
      </trkpt>
      <trkpt lat="45.65123" lon="-1.12192">
        <ele>11.19</ele>
        <time>2013-07-20T09:43:39Z</time>
      </trkpt>
      <trkpt lat="45.65138" lon="-1.12225">
        <ele>11.19</ele>
        <time>2013-07-20T09:43:53Z</time>
      </trkpt>
      <trkpt lat="45.6514" lon="-1.12227">
        <ele>11.19</ele>
        <time>2013-07-20T09:44:06Z</time>
      </trkpt>
      <trkpt lat="45.65142" lon="-1.12234">
        <ele>11.19</ele>
        <time>2013-07-20T09:44:25Z</time>
      </trkpt>
      <trkpt lat="45.65144" lon="-1.12236">
        <ele>11.19</ele>
        <time>2013-07-20T09:44:36Z</time>
      </trkpt>
      <trkpt lat="45.65141" lon="-1.12233">
        <ele>6.87</ele>
        <time>2013-07-20T10:39:19Z</time>
      </trkpt>
      <trkpt lat="45.65141" lon="-1.12233">
        <ele>6.39</ele>
        <time>2013-07-20T10:39:21Z</time>
      </trkpt>
      <trkpt lat="45.65141" lon="-1.12232">
        <ele>9.75</ele>
        <time>2013-07-20T10:39:46Z</time>
      </trkpt>
      <trkpt lat="45.65142" lon="-1.12233">
        <ele>12.63</ele>
        <time>2013-07-20T10:40:16Z</time>
      </trkpt>
      <trkpt lat="45.65143" lon="-1.1223">
        <ele>13.6</ele>
        <time>2013-07-20T10:41:01Z</time>
      </trkpt>
      <trkpt lat="45.65143" lon="-1.12234">
        <ele>13.6</ele>
        <time>2013-07-20T10:41:31Z</time>
      </trkpt>
      <trkpt lat="45.65156" lon="-1.12267">
        <ele>13.6</ele>
        <time>2013-07-20T10:41:40Z</time>
      </trkpt>
      <trkpt lat="45.65157" lon="-1.12272">
        <ele>13.6</ele>
        <time>2013-07-20T10:41:41Z</time>
      </trkpt>
      <trkpt lat="45.65159" lon="-1.12277">
        <ele>13.6</ele>
        <time>2013-07-20T10:41:42Z</time>
      </trkpt>
      <trkpt lat="45.65161" lon="-1.12282">
        <ele>13.6</ele>
        <time>2013-07-20T10:41:43Z</time>
      </trkpt>
      <trkpt lat="45.65163" lon="-1.12287">
        <ele>13.6</ele>
        <time>2013-07-20T10:41:44Z</time>
      </trkpt>
      <trkpt lat="45.65182" lon="-1.12314">
        <ele>13.6</ele>
        <time>2013-07-20T10:41:51Z</time>
      </trkpt>
      <trkpt lat="45.65185" lon="-1.12318">
        <ele>14.08</ele>
        <time>2013-07-20T10:41:52Z</time>
      </trkpt>
      <trkpt lat="45.65192" lon="-1.12325">
        <ele>14.08</ele>
        <time>2013-07-20T10:41:54Z</time>
      </trkpt>
      <trkpt lat="45.65212" lon="-1.12343">
        <ele>13.6</ele>
        <time>2013-07-20T10:42:00Z</time>
      </trkpt>
      <trkpt lat="45.65217" lon="-1.12344">
        <ele>13.6</ele>
        <time>2013-07-20T10:42:01Z</time>
      </trkpt>
      <trkpt lat="45.65221" lon="-1.12343">
        <ele>13.12</ele>
        <time>2013-07-20T10:42:02Z</time>
      </trkpt>
      <trkpt lat="45.65229" lon="-1.12338">
        <ele>14.08</ele>
        <time>2013-07-20T10:42:04Z</time>
      </trkpt>
      <trkpt lat="45.65233" lon="-1.12336">
        <ele>14.08</ele>
        <time>2013-07-20T10:42:05Z</time>
      </trkpt>
      <trkpt lat="45.65237" lon="-1.12335">
        <ele>14.08</ele>
        <time>2013-07-20T10:42:06Z</time>
      </trkpt>
      <trkpt lat="45.65259" lon="-1.12321">
        <ele>15.04</ele>
        <time>2013-07-20T10:42:13Z</time>
      </trkpt>
      <trkpt lat="45.65253" lon="-1.12295">
        <ele>16</ele>
        <time>2013-07-20T10:42:18Z</time>
      </trkpt>
      <trkpt lat="45.65254" lon="-1.12269">
        <ele>15.52</ele>
        <time>2013-07-20T10:42:23Z</time>
      </trkpt>
      <trkpt lat="45.65258" lon="-1.12254">
        <ele>15.52</ele>
        <time>2013-07-20T10:42:26Z</time>
      </trkpt>
      <trkpt lat="45.65284" lon="-1.12219">
        <ele>14.56</ele>
        <time>2013-07-20T10:42:34Z</time>
      </trkpt>
      <trkpt lat="45.65291" lon="-1.12207">
        <ele>14.56</ele>
        <time>2013-07-20T10:42:36Z</time>
      </trkpt>
      <trkpt lat="45.65314" lon="-1.12193">
        <ele>14.56</ele>
        <time>2013-07-20T10:42:41Z</time>
      </trkpt>
      <trkpt lat="45.65319" lon="-1.12195">
        <ele>14.56</ele>
        <time>2013-07-20T10:42:42Z</time>
      </trkpt>
      <trkpt lat="45.65324" lon="-1.12197">
        <ele>15.04</ele>
        <time>2013-07-20T10:42:43Z</time>
      </trkpt>
      <trkpt lat="45.65329" lon="-1.12199">
        <ele>15.04</ele>
        <time>2013-07-20T10:42:44Z</time>
      </trkpt>
      <trkpt lat="45.65385" lon="-1.12239">
        <ele>15.04</ele>
        <time>2013-07-20T10:42:55Z</time>
      </trkpt>
      <trkpt lat="45.65458" lon="-1.12302">
        <ele>14.56</ele>
        <time>2013-07-20T10:43:09Z</time>
      </trkpt>
      <trkpt lat="45.65535" lon="-1.12369">
        <ele>14.08</ele>
        <time>2013-07-20T10:43:22Z</time>
      </trkpt>
      <trkpt lat="45.65612" lon="-1.12436">
        <ele>15.52</ele>
        <time>2013-07-20T10:43:35Z</time>
      </trkpt>
      <trkpt lat="45.65687" lon="-1.12503">
        <ele>17.92</ele>
        <time>2013-07-20T10:43:50Z</time>
      </trkpt>
      <trkpt lat="45.65768" lon="-1.12573">
        <ele>18.4</ele>
        <time>2013-07-20T10:44:07Z</time>
      </trkpt>
      <trkpt lat="45.65834" lon="-1.12635">
        <ele>16</ele>
        <time>2013-07-20T10:44:19Z</time>
      </trkpt>
      <trkpt lat="45.65837" lon="-1.12661">
        <ele>15.52</ele>
        <time>2013-07-20T10:44:24Z</time>
      </trkpt>
      <trkpt lat="45.65826" lon="-1.12691">
        <ele>16</ele>
        <time>2013-07-20T10:44:29Z</time>
      </trkpt>
      <trkpt lat="45.65815" lon="-1.12758">
        <ele>16</ele>
        <time>2013-07-20T10:44:38Z</time>
      </trkpt>
      <trkpt lat="45.65832" lon="-1.128">
        <ele>16</ele>
        <time>2013-07-20T10:44:44Z</time>
      </trkpt>
      <trkpt lat="45.65881" lon="-1.12932">
        <ele>11.19</ele>
        <time>2013-07-20T10:44:57Z</time>
      </trkpt>
      <trkpt lat="45.65886" lon="-1.12944">
        <ele>11.19</ele>
        <time>2013-07-20T10:44:58Z</time>
      </trkpt>
      <trkpt lat="45.65916" lon="-1.13016">
        <ele>12.63</ele>
        <time>2013-07-20T10:45:06Z</time>
      </trkpt>
      <trkpt lat="45.6593" lon="-1.13142">
        <ele>13.12</ele>
        <time>2013-07-20T10:45:18Z</time>
      </trkpt>
      <trkpt lat="45.65932" lon="-1.13186">
        <ele>13.12</ele>
        <time>2013-07-20T10:45:23Z</time>
      </trkpt>
      <trkpt lat="45.65968" lon="-1.13279">
        <ele>13.6</ele>
        <time>2013-07-20T10:45:34Z</time>
      </trkpt>
      <trkpt lat="45.66014" lon="-1.13347">
        <ele>10.23</ele>
        <time>2013-07-20T10:45:42Z</time>
      </trkpt>
      <trkpt lat="45.66071" lon="-1.13428">
        <ele>10.23</ele>
        <time>2013-07-20T10:45:52Z</time>
      </trkpt>
      <trkpt lat="45.66135" lon="-1.1352">
        <ele>11.19</ele>
        <time>2013-07-20T10:46:04Z</time>
      </trkpt>
      <trkpt lat="45.6615" lon="-1.13542">
        <ele>11.67</ele>
        <time>2013-07-20T10:46:08Z</time>
      </trkpt>
      <trkpt lat="45.66174" lon="-1.13576">
        <ele>9.75</ele>
        <time>2013-07-20T10:46:13Z</time>
      </trkpt>
      <trkpt lat="45.66195" lon="-1.13604">
        <ele>13.12</ele>
        <time>2013-07-20T10:46:20Z</time>
      </trkpt>
      <trkpt lat="45.66198" lon="-1.13611">
        <ele>13.12</ele>
        <time>2013-07-20T10:46:31Z</time>
      </trkpt>
      <trkpt lat="45.66196" lon="-1.13615">
        <ele>13.6</ele>
        <time>2013-07-20T10:46:53Z</time>
      </trkpt>
      <trkpt lat="45.66194" lon="-1.13607">
        <ele>13.12</ele>
        <time>2013-07-20T10:47:02Z</time>
      </trkpt>
      <trkpt lat="45.66193" lon="-1.13606">
        <ele>12.63</ele>
        <time>2013-07-20T10:47:03Z</time>
      </trkpt>
      <trkpt lat="45.66193" lon="-1.13555">
        <ele>11.19</ele>
        <time>2013-07-20T10:47:12Z</time>
      </trkpt>
      <trkpt lat="45.66194" lon="-1.13464">
        <ele>10.23</ele>
        <time>2013-07-20T10:47:24Z</time>
      </trkpt>
      <trkpt lat="45.66193" lon="-1.13443">
        <ele>9.75</ele>
        <time>2013-07-20T10:47:32Z</time>
      </trkpt>
      <trkpt lat="45.66194" lon="-1.13443">
        <ele>9.75</ele>
        <time>2013-07-20T10:47:59Z</time>
      </trkpt>
      <trkpt lat="45.66194" lon="-1.13444">
        <ele>9.75</ele>
        <time>2013-07-20T10:48:15Z</time>
      </trkpt>
      <trkpt lat="45.66195" lon="-1.13448">
        <ele>9.75</ele>
        <time>2013-07-20T10:48:30Z</time>
      </trkpt>
      <trkpt lat="45.66195" lon="-1.13452">
        <ele>9.75</ele>
        <time>2013-07-20T10:48:34Z</time>
      </trkpt>
      <trkpt lat="45.66195" lon="-1.13453">
        <ele>10.23</ele>
        <time>2013-07-20T10:48:35Z</time>
      </trkpt>
      <trkpt lat="45.66195" lon="-1.13456">
        <ele>10.23</ele>
        <time>2013-07-20T10:48:36Z</time>
      </trkpt>
      <trkpt lat="45.66194" lon="-1.13458">
        <ele>10.23</ele>
        <time>2013-07-20T10:48:37Z</time>
      </trkpt>
      <trkpt lat="45.66194" lon="-1.1346">
        <ele>10.23</ele>
        <time>2013-07-20T10:48:38Z</time>
      </trkpt>
      <trkpt lat="45.66194" lon="-1.13463">
        <ele>10.23</ele>
        <time>2013-07-20T10:48:39Z</time>
      </trkpt>
      <trkpt lat="45.66194" lon="-1.13466">
        <ele>10.23</ele>
        <time>2013-07-20T10:48:40Z</time>
      </trkpt>
      <trkpt lat="45.66194" lon="-1.13468">
        <ele>10.71</ele>
        <time>2013-07-20T10:48:41Z</time>
      </trkpt>
      <trkpt lat="45.66194" lon="-1.13471">
        <ele>10.71</ele>
        <time>2013-07-20T10:48:42Z</time>
      </trkpt>
      <trkpt lat="45.66194" lon="-1.13474">
        <ele>10.71</ele>
        <time>2013-07-20T10:48:43Z</time>
      </trkpt>
      <trkpt lat="45.66194" lon="-1.13477">
        <ele>10.71</ele>
        <time>2013-07-20T10:48:44Z</time>
      </trkpt>
      <trkpt lat="45.66193" lon="-1.13526">
        <ele>10.71</ele>
        <time>2013-07-20T10:48:55Z</time>
      </trkpt>
      <trkpt lat="45.66193" lon="-1.13589">
        <ele>12.15</ele>
        <time>2013-07-20T10:49:09Z</time>
      </trkpt>
      <trkpt lat="45.66194" lon="-1.13618">
        <ele>13.6</ele>
        <time>2013-07-20T10:49:19Z</time>
      </trkpt>
      <trkpt lat="45.66196" lon="-1.13661">
        <ele>13.6</ele>
        <time>2013-07-20T10:49:30Z</time>
      </trkpt>
      <trkpt lat="45.66185" lon="-1.13693">
        <ele>12.15</ele>
        <time>2013-07-20T10:49:42Z</time>
      </trkpt>
      <trkpt lat="45.66184" lon="-1.13698">
        <ele>11.67</ele>
        <time>2013-07-20T10:49:52Z</time>
      </trkpt>
      <trkpt lat="45.66185" lon="-1.13696">
        <ele>12.15</ele>
        <time>2013-07-20T10:50:04Z</time>
      </trkpt>
      <trkpt lat="45.66179" lon="-1.13706">
        <ele>11.19</ele>
        <time>2013-07-20T10:50:17Z</time>
      </trkpt>
      <trkpt lat="45.6618" lon="-1.1371">
        <ele>10.71</ele>
        <time>2013-07-20T10:50:37Z</time>
      </trkpt>
      <trkpt lat="45.66175" lon="-1.13711">
        <ele>10.71</ele>
        <time>2013-07-20T10:51:20Z</time>
      </trkpt>
      <trkpt lat="45.6618" lon="-1.13709">
        <ele>10.71</ele>
        <time>2013-07-20T10:52:00Z</time>
      </trkpt>
      <trkpt lat="45.6618" lon="-1.13709">
        <ele>10.71</ele>
        <time>2013-07-20T10:52:42Z</time>
      </trkpt>
      <trkpt lat="45.66182" lon="-1.13712">
        <ele>11.19</ele>
        <time>2013-07-20T10:53:11Z</time>
      </trkpt>
      <trkpt lat="45.66181" lon="-1.13712">
        <ele>10.71</ele>
        <time>2013-07-20T10:53:46Z</time>
      </trkpt>
      <trkpt lat="45.66181" lon="-1.13712">
        <ele>5.42</ele>
        <time>2013-07-20T14:19:41Z</time>
      </trkpt>
      <trkpt lat="45.66075" lon="-1.13686">
        <ele>4.46</ele>
        <time>2013-07-20T14:19:50Z</time>
      </trkpt>
      <trkpt lat="45.66069" lon="-1.13688">
        <ele>4.46</ele>
        <time>2013-07-20T14:20:16Z</time>
      </trkpt>
      <trkpt lat="45.66069" lon="-1.13691">
        <ele>4.46</ele>
        <time>2013-07-20T14:20:49Z</time>
      </trkpt>
      <trkpt lat="45.66067" lon="-1.13687">
        <ele>4.46</ele>
        <time>2013-07-20T14:21:15Z</time>
      </trkpt>
      <trkpt lat="45.66068" lon="-1.1369">
        <ele>3.98</ele>
        <time>2013-07-20T14:21:49Z</time>
      </trkpt>
      <trkpt lat="45.66068" lon="-1.13688">
        <ele>3.98</ele>
        <time>2013-07-20T14:22:13Z</time>
      </trkpt>
      <trkpt lat="45.66068" lon="-1.13689">
        <ele>3.98</ele>
        <time>2013-07-20T14:22:39Z</time>
      </trkpt>
      <trkpt lat="45.66067" lon="-1.13689">
        <ele>3.02</ele>
        <time>2013-07-20T14:22:58Z</time>
      </trkpt>
      <trkpt lat="45.6607" lon="-1.13689">
        <ele>4.46</ele>
        <time>2013-07-20T14:30:01Z</time>
      </trkpt>
      <trkpt lat="45.6607" lon="-1.13689">
        <ele>4.46</ele>
        <time>2013-07-20T14:30:02Z</time>
      </trkpt>
      <trkpt lat="45.66069" lon="-1.13691">
        <ele>0.62</ele>
        <time>2013-07-20T14:30:18Z</time>
      </trkpt>
      <trkpt lat="45.66069" lon="-1.1369">
        <ele>-1.79</ele>
        <time>2013-07-20T14:31:13Z</time>
      </trkpt>
      <trkpt lat="45.6607" lon="-1.13689">
        <ele>-1.79</ele>
        <time>2013-07-20T14:31:57Z</time>
      </trkpt>
      <trkpt lat="45.66069" lon="-1.13692">
        <ele>-1.79</ele>
        <time>2013-07-20T14:32:46Z</time>
      </trkpt>
      <trkpt lat="45.66069" lon="-1.13692">
        <ele>-2.75</ele>
        <time>2013-07-20T14:32:52Z</time>
      </trkpt>
      <trkpt lat="45.65266" lon="-1.12321">
        <ele>16.48</ele>
        <time>2013-07-20T16:04:54Z</time>
      </trkpt>
      <trkpt lat="45.65264" lon="-1.12321">
        <ele>15.52</ele>
        <time>2013-07-20T16:05:07Z</time>
      </trkpt>
      <trkpt lat="45.65255" lon="-1.12324">
        <ele>14.08</ele>
        <time>2013-07-20T16:05:14Z</time>
      </trkpt>
      <trkpt lat="45.65251" lon="-1.12329">
        <ele>13.6</ele>
        <time>2013-07-20T16:05:18Z</time>
      </trkpt>
      <trkpt lat="45.65245" lon="-1.12336">
        <ele>12.63</ele>
        <time>2013-07-20T16:05:26Z</time>
      </trkpt>
      <trkpt lat="45.65242" lon="-1.12337">
        <ele>11.67</ele>
        <time>2013-07-20T16:05:42Z</time>
      </trkpt>
      <trkpt lat="45.65244" lon="-1.12337">
        <ele>12.15</ele>
        <time>2013-07-20T16:06:24Z</time>
      </trkpt>
      <trkpt lat="45.65246" lon="-1.12338">
        <ele>11.67</ele>
        <time>2013-07-20T16:06:58Z</time>
      </trkpt>
      <trkpt lat="45.65243" lon="-1.12338">
        <ele>11.67</ele>
        <time>2013-07-20T16:07:50Z</time>
      </trkpt>
      <trkpt lat="45.65244" lon="-1.12336">
        <ele>11.67</ele>
        <time>2013-07-20T16:08:20Z</time>
      </trkpt>
      <trkpt lat="45.65234" lon="-1.12332">
        <ele>11.67</ele>
        <time>2013-07-20T16:08:30Z</time>
      </trkpt>
      <trkpt lat="45.65235" lon="-1.12334">
        <ele>11.67</ele>
        <time>2013-07-20T16:08:31Z</time>
      </trkpt>
      <trkpt lat="45.65237" lon="-1.12335">
        <ele>11.67</ele>
        <time>2013-07-20T16:08:32Z</time>
      </trkpt>
      <trkpt lat="45.65239" lon="-1.12336">
        <ele>11.67</ele>
        <time>2013-07-20T16:08:33Z</time>
      </trkpt>
      <trkpt lat="45.65242" lon="-1.12336">
        <ele>11.67</ele>
        <time>2013-07-20T16:08:34Z</time>
      </trkpt>
      <trkpt lat="45.65244" lon="-1.12335">
        <ele>11.67</ele>
        <time>2013-07-20T16:08:35Z</time>
      </trkpt>
      <trkpt lat="45.65247" lon="-1.12333">
        <ele>11.67</ele>
        <time>2013-07-20T16:08:36Z</time>
      </trkpt>
      <trkpt lat="45.65249" lon="-1.12331">
        <ele>12.15</ele>
        <time>2013-07-20T16:08:37Z</time>
      </trkpt>
      <trkpt lat="45.65252" lon="-1.12329">
        <ele>12.15</ele>
        <time>2013-07-20T16:08:38Z</time>
      </trkpt>
      <trkpt lat="45.65261" lon="-1.12318">
        <ele>12.63</ele>
        <time>2013-07-20T16:08:43Z</time>
      </trkpt>
      <trkpt lat="45.65258" lon="-1.12306">
        <ele>13.12</ele>
        <time>2013-07-20T16:08:46Z</time>
      </trkpt>
      <trkpt lat="45.65259" lon="-1.12259">
        <ele>13.12</ele>
        <time>2013-07-20T16:08:57Z</time>
      </trkpt>
      <trkpt lat="45.65262" lon="-1.12252">
        <ele>12.63</ele>
        <time>2013-07-20T16:09:07Z</time>
      </trkpt>
      <trkpt lat="45.65257" lon="-1.12254">
        <ele>12.63</ele>
        <time>2013-07-20T16:09:50Z</time>
      </trkpt>
      <trkpt lat="45.65259" lon="-1.12247">
        <ele>12.63</ele>
        <time>2013-07-20T16:09:56Z</time>
      </trkpt>
      <trkpt lat="45.65287" lon="-1.12216">
        <ele>12.63</ele>
        <time>2013-07-20T16:10:07Z</time>
      </trkpt>
      <trkpt lat="45.65313" lon="-1.1219">
        <ele>12.15</ele>
        <time>2013-07-20T16:10:18Z</time>
      </trkpt>
      <trkpt lat="45.65331" lon="-1.12197">
        <ele>12.15</ele>
        <time>2013-07-20T16:10:32Z</time>
      </trkpt>
      <trkpt lat="45.65329" lon="-1.12198">
        <ele>12.63</ele>
        <time>2013-07-20T16:11:11Z</time>
      </trkpt>
      <trkpt lat="45.65329" lon="-1.12194">
        <ele>13.12</ele>
        <time>2013-07-20T16:11:48Z</time>
      </trkpt>
      <trkpt lat="45.65331" lon="-1.12194">
        <ele>13.12</ele>
        <time>2013-07-20T16:12:28Z</time>
      </trkpt>
      <trkpt lat="45.6533" lon="-1.12197">
        <ele>13.6</ele>
        <time>2013-07-20T16:13:07Z</time>
      </trkpt>
      <trkpt lat="45.65327" lon="-1.12192">
        <ele>13.12</ele>
        <time>2013-07-20T16:13:15Z</time>
      </trkpt>
      <trkpt lat="45.65321" lon="-1.12188">
        <ele>13.12</ele>
        <time>2013-07-20T16:13:19Z</time>
      </trkpt>
      <trkpt lat="45.65294" lon="-1.1218">
        <ele>13.6</ele>
        <time>2013-07-20T16:13:27Z</time>
      </trkpt>
      <trkpt lat="45.6529" lon="-1.1218">
        <ele>14.08</ele>
        <time>2013-07-20T16:13:28Z</time>
      </trkpt>
      <trkpt lat="45.65207" lon="-1.12172">
        <ele>15.04</ele>
        <time>2013-07-20T16:13:45Z</time>
      </trkpt>
      <trkpt lat="45.65176" lon="-1.12169">
        <ele>15.04</ele>
        <time>2013-07-20T16:13:55Z</time>
      </trkpt>
      <trkpt lat="45.65137" lon="-1.12163">
        <ele>14.56</ele>
        <time>2013-07-20T16:14:05Z</time>
      </trkpt>
      <trkpt lat="45.65133" lon="-1.12161">
        <ele>14.56</ele>
        <time>2013-07-20T16:14:06Z</time>
      </trkpt>
      <trkpt lat="45.65129" lon="-1.12159">
        <ele>14.56</ele>
        <time>2013-07-20T16:14:07Z</time>
      </trkpt>
      <trkpt lat="45.65114" lon="-1.1215">
        <ele>14.56</ele>
        <time>2013-07-20T16:14:11Z</time>
      </trkpt>
      <trkpt lat="45.6508" lon="-1.12092">
        <ele>13.12</ele>
        <time>2013-07-20T16:14:25Z</time>
      </trkpt>
      <trkpt lat="45.6505" lon="-1.12045">
        <ele>13.12</ele>
        <time>2013-07-20T16:14:54Z</time>
      </trkpt>
      <trkpt lat="45.6505" lon="-1.12045">
        <ele>13.12</ele>
        <time>2013-07-20T16:14:56Z</time>
      </trkpt>
      <trkpt lat="45.65055" lon="-1.12042">
        <ele>11.67</ele>
        <time>2013-07-20T16:15:21Z</time>
      </trkpt>
      <trkpt lat="45.65033" lon="-1.11995">
        <ele>12.15</ele>
        <time>2013-07-20T16:15:34Z</time>
      </trkpt>
      <trkpt lat="45.65031" lon="-1.11994">
        <ele>11.67</ele>
        <time>2013-07-20T16:15:35Z</time>
      </trkpt>
      <trkpt lat="45.65028" lon="-1.11995">
        <ele>11.67</ele>
        <time>2013-07-20T16:15:36Z</time>
      </trkpt>
      <trkpt lat="45.65026" lon="-1.11993">
        <ele>11.67</ele>
        <time>2013-07-20T16:15:37Z</time>
      </trkpt>
      <trkpt lat="45.65024" lon="-1.1199">
        <ele>12.15</ele>
        <time>2013-07-20T16:15:38Z</time>
      </trkpt>
      <trkpt lat="45.65022" lon="-1.11986">
        <ele>11.67</ele>
        <time>2013-07-20T16:15:39Z</time>
      </trkpt>
      <trkpt lat="45.6502" lon="-1.11982">
        <ele>12.15</ele>
        <time>2013-07-20T16:15:40Z</time>
      </trkpt>
      <trkpt lat="45.64974" lon="-1.11881">
        <ele>12.63</ele>
        <time>2013-07-20T16:15:57Z</time>
      </trkpt>
      <trkpt lat="45.64948" lon="-1.1182">
        <ele>11.19</ele>
        <time>2013-07-20T16:16:06Z</time>
      </trkpt>
      <trkpt lat="45.64903" lon="-1.11703">
        <ele>10.71</ele>
        <time>2013-07-20T16:16:21Z</time>
      </trkpt>
      <trkpt lat="45.64843" lon="-1.11563">
        <ele>11.19</ele>
        <time>2013-07-20T16:16:40Z</time>
      </trkpt>
      <trkpt lat="45.64827" lon="-1.1148">
        <ele>10.71</ele>
        <time>2013-07-20T16:16:51Z</time>
      </trkpt>
      <trkpt lat="45.64826" lon="-1.11464">
        <ele>11.19</ele>
        <time>2013-07-20T16:16:53Z</time>
      </trkpt>
      <trkpt lat="45.64817" lon="-1.11405">
        <ele>10.23</ele>
        <time>2013-07-20T16:17:03Z</time>
      </trkpt>
      <trkpt lat="45.64812" lon="-1.11378">
        <ele>10.23</ele>
        <time>2013-07-20T16:17:07Z</time>
      </trkpt>
      <trkpt lat="45.6481" lon="-1.11372">
        <ele>10.23</ele>
        <time>2013-07-20T16:17:08Z</time>
      </trkpt>
      <trkpt lat="45.64808" lon="-1.11365">
        <ele>10.23</ele>
        <time>2013-07-20T16:17:09Z</time>
      </trkpt>
      <trkpt lat="45.64807" lon="-1.11358">
        <ele>10.23</ele>
        <time>2013-07-20T16:17:10Z</time>
      </trkpt>
      <trkpt lat="45.64806" lon="-1.1135">
        <ele>10.23</ele>
        <time>2013-07-20T16:17:11Z</time>
      </trkpt>
      <trkpt lat="45.64804" lon="-1.11343">
        <ele>10.23</ele>
        <time>2013-07-20T16:17:12Z</time>
      </trkpt>
      <trkpt lat="45.64803" lon="-1.11335">
        <ele>10.23</ele>
        <time>2013-07-20T16:17:13Z</time>
      </trkpt>
      <trkpt lat="45.64787" lon="-1.11239">
        <ele>9.27</ele>
        <time>2013-07-20T16:17:25Z</time>
      </trkpt>
      <trkpt lat="45.64787" lon="-1.11234">
        <ele>8.31</ele>
        <time>2013-07-20T16:17:26Z</time>
      </trkpt>
      <trkpt lat="45.64777" lon="-1.11178">
        <ele>8.31</ele>
        <time>2013-07-20T16:17:37Z</time>
      </trkpt>
      <trkpt lat="45.64753" lon="-1.11056">
        <ele>8.31</ele>
        <time>2013-07-20T16:17:53Z</time>
      </trkpt>
      <trkpt lat="45.64736" lon="-1.10957">
        <ele>9.75</ele>
        <time>2013-07-20T16:18:04Z</time>
      </trkpt>
      <trkpt lat="45.64729" lon="-1.10932">
        <ele>9.75</ele>
        <time>2013-07-20T16:18:07Z</time>
      </trkpt>
      <trkpt lat="45.64714" lon="-1.10839">
        <ele>12.63</ele>
        <time>2013-07-20T16:18:19Z</time>
      </trkpt>
      <trkpt lat="45.64711" lon="-1.10817">
        <ele>12.63</ele>
        <time>2013-07-20T16:18:22Z</time>
      </trkpt>
      <trkpt lat="45.6471" lon="-1.10803">
        <ele>13.12</ele>
        <time>2013-07-20T16:18:24Z</time>
      </trkpt>
      <trkpt lat="45.647" lon="-1.10699">
        <ele>15.52</ele>
        <time>2013-07-20T16:18:39Z</time>
      </trkpt>
      <trkpt lat="45.64699" lon="-1.10692">
        <ele>16</ele>
        <time>2013-07-20T16:18:40Z</time>
      </trkpt>
      <trkpt lat="45.64695" lon="-1.10593">
        <ele>17.44</ele>
        <time>2013-07-20T16:18:55Z</time>
      </trkpt>
      <trkpt lat="45.64694" lon="-1.10588">
        <ele>17.44</ele>
        <time>2013-07-20T16:18:56Z</time>
      </trkpt>
      <trkpt lat="45.64692" lon="-1.10583">
        <ele>17.92</ele>
        <time>2013-07-20T16:18:57Z</time>
      </trkpt>
      <trkpt lat="45.64691" lon="-1.10577">
        <ele>17.44</ele>
        <time>2013-07-20T16:18:58Z</time>
      </trkpt>
      <trkpt lat="45.6469" lon="-1.10571">
        <ele>17.44</ele>
        <time>2013-07-20T16:18:59Z</time>
      </trkpt>
      <trkpt lat="45.64689" lon="-1.10564">
        <ele>17.44</ele>
        <time>2013-07-20T16:19:00Z</time>
      </trkpt>
      <trkpt lat="45.6469" lon="-1.10558">
        <ele>17.44</ele>
        <time>2013-07-20T16:19:01Z</time>
      </trkpt>
      <trkpt lat="45.6469" lon="-1.10552">
        <ele>17.44</ele>
        <time>2013-07-20T16:19:02Z</time>
      </trkpt>
      <trkpt lat="45.64691" lon="-1.10545">
        <ele>17.92</ele>
        <time>2013-07-20T16:19:03Z</time>
      </trkpt>
      <trkpt lat="45.64691" lon="-1.10538">
        <ele>17.44</ele>
        <time>2013-07-20T16:19:04Z</time>
      </trkpt>
      <trkpt lat="45.64692" lon="-1.10531">
        <ele>17.44</ele>
        <time>2013-07-20T16:19:05Z</time>
      </trkpt>
      <trkpt lat="45.64693" lon="-1.10525">
        <ele>17.44</ele>
        <time>2013-07-20T16:19:06Z</time>
      </trkpt>
      <trkpt lat="45.64693" lon="-1.10517">
        <ele>17.44</ele>
        <time>2013-07-20T16:19:07Z</time>
      </trkpt>
      <trkpt lat="45.64692" lon="-1.1051">
        <ele>17.44</ele>
        <time>2013-07-20T16:19:08Z</time>
      </trkpt>
      <trkpt lat="45.64678" lon="-1.10402">
        <ele>16</ele>
        <time>2013-07-20T16:19:21Z</time>
      </trkpt>
      <trkpt lat="45.64671" lon="-1.10353">
        <ele>14.08</ele>
        <time>2013-07-20T16:19:26Z</time>
      </trkpt>
      <trkpt lat="45.64664" lon="-1.10303">
        <ele>13.12</ele>
        <time>2013-07-20T16:19:31Z</time>
      </trkpt>
      <trkpt lat="45.64661" lon="-1.10294">
        <ele>13.12</ele>
        <time>2013-07-20T16:19:32Z</time>
      </trkpt>
      <trkpt lat="45.64657" lon="-1.10285">
        <ele>12.63</ele>
        <time>2013-07-20T16:19:33Z</time>
      </trkpt>
      <trkpt lat="45.64629" lon="-1.10228">
        <ele>11.67</ele>
        <time>2013-07-20T16:19:40Z</time>
      </trkpt>
      <trkpt lat="45.64627" lon="-1.1022">
        <ele>12.15</ele>
        <time>2013-07-20T16:19:41Z</time>
      </trkpt>
      <trkpt lat="45.64627" lon="-1.10212">
        <ele>12.15</ele>
        <time>2013-07-20T16:19:42Z</time>
      </trkpt>
      <trkpt lat="45.64628" lon="-1.10204">
        <ele>12.15</ele>
        <time>2013-07-20T16:19:43Z</time>
      </trkpt>
      <trkpt lat="45.6463" lon="-1.10198">
        <ele>12.15</ele>
        <time>2013-07-20T16:19:44Z</time>
      </trkpt>
      <trkpt lat="45.64633" lon="-1.10193">
        <ele>12.15</ele>
        <time>2013-07-20T16:19:45Z</time>
      </trkpt>
      <trkpt lat="45.64636" lon="-1.10189">
        <ele>12.15</ele>
        <time>2013-07-20T16:19:46Z</time>
      </trkpt>
      <trkpt lat="45.64639" lon="-1.10185">
        <ele>12.63</ele>
        <time>2013-07-20T16:19:47Z</time>
      </trkpt>
      <trkpt lat="45.64642" lon="-1.10182">
        <ele>13.6</ele>
        <time>2013-07-20T16:19:48Z</time>
      </trkpt>
      <trkpt lat="45.64644" lon="-1.1018">
        <ele>13.6</ele>
        <time>2013-07-20T16:19:49Z</time>
      </trkpt>
      <trkpt lat="45.64646" lon="-1.10178">
        <ele>13.6</ele>
        <time>2013-07-20T16:19:50Z</time>
      </trkpt>
      <trkpt lat="45.64647" lon="-1.10177">
        <ele>13.6</ele>
        <time>2013-07-20T16:19:51Z</time>
      </trkpt>
      <trkpt lat="45.64648" lon="-1.10176">
        <ele>14.08</ele>
        <time>2013-07-20T16:19:52Z</time>
      </trkpt>
      <trkpt lat="45.6465" lon="-1.10175">
        <ele>14.08</ele>
        <time>2013-07-20T16:19:53Z</time>
      </trkpt>
      <trkpt lat="45.64652" lon="-1.10173">
        <ele>14.08</ele>
        <time>2013-07-20T16:19:54Z</time>
      </trkpt>
      <trkpt lat="45.64655" lon="-1.1017">
        <ele>14.08</ele>
        <time>2013-07-20T16:19:55Z</time>
      </trkpt>
      <trkpt lat="45.64658" lon="-1.10166">
        <ele>14.56</ele>
        <time>2013-07-20T16:19:56Z</time>
      </trkpt>
      <trkpt lat="45.64662" lon="-1.10163">
        <ele>14.56</ele>
        <time>2013-07-20T16:19:57Z</time>
      </trkpt>
      <trkpt lat="45.64672" lon="-1.10153">
        <ele>16</ele>
        <time>2013-07-20T16:20:00Z</time>
      </trkpt>
      <trkpt lat="45.64698" lon="-1.10129">
        <ele>17.92</ele>
        <time>2013-07-20T16:20:07Z</time>
      </trkpt>
      <trkpt lat="45.64733" lon="-1.10081">
        <ele>18.88</ele>
        <time>2013-07-20T16:20:18Z</time>
      </trkpt>
      <trkpt lat="45.64782" lon="-1.10014">
        <ele>17.92</ele>
        <time>2013-07-20T16:20:31Z</time>
      </trkpt>
      <trkpt lat="45.6485" lon="-1.09915">
        <ele>15.52</ele>
        <time>2013-07-20T16:20:46Z</time>
      </trkpt>
      <trkpt lat="45.64856" lon="-1.0991">
        <ele>15.04</ele>
        <time>2013-07-20T16:20:47Z</time>
      </trkpt>
      <trkpt lat="45.64863" lon="-1.09906">
        <ele>14.56</ele>
        <time>2013-07-20T16:20:48Z</time>
      </trkpt>
      <trkpt lat="45.64869" lon="-1.09904">
        <ele>14.08</ele>
        <time>2013-07-20T16:20:49Z</time>
      </trkpt>
      <trkpt lat="45.64874" lon="-1.09902">
        <ele>14.08</ele>
        <time>2013-07-20T16:20:50Z</time>
      </trkpt>
      <trkpt lat="45.64944" lon="-1.09876">
        <ele>12.15</ele>
        <time>2013-07-20T16:21:02Z</time>
      </trkpt>
      <trkpt lat="45.65074" lon="-1.09817">
        <ele>10.23</ele>
        <time>2013-07-20T16:21:19Z</time>
      </trkpt>
      <trkpt lat="45.65194" lon="-1.09763">
        <ele>10.23</ele>
        <time>2013-07-20T16:21:36Z</time>
      </trkpt>
      <trkpt lat="45.65223" lon="-1.09743">
        <ele>10.23</ele>
        <time>2013-07-20T16:21:41Z</time>
      </trkpt>
      <trkpt lat="45.65228" lon="-1.09737">
        <ele>10.71</ele>
        <time>2013-07-20T16:21:42Z</time>
      </trkpt>
      <trkpt lat="45.65233" lon="-1.0973">
        <ele>10.71</ele>
        <time>2013-07-20T16:21:43Z</time>
      </trkpt>
      <trkpt lat="45.65269" lon="-1.09656">
        <ele>8.79</ele>
        <time>2013-07-20T16:21:52Z</time>
      </trkpt>
      <trkpt lat="45.65272" lon="-1.09648">
        <ele>9.27</ele>
        <time>2013-07-20T16:21:53Z</time>
      </trkpt>
      <trkpt lat="45.65275" lon="-1.09639">
        <ele>9.27</ele>
        <time>2013-07-20T16:21:54Z</time>
      </trkpt>
      <trkpt lat="45.65279" lon="-1.09629">
        <ele>9.27</ele>
        <time>2013-07-20T16:21:55Z</time>
      </trkpt>
      <trkpt lat="45.65282" lon="-1.0962">
        <ele>9.27</ele>
        <time>2013-07-20T16:21:56Z</time>
      </trkpt>
      <trkpt lat="45.65326" lon="-1.0949">
        <ele>7.83</ele>
        <time>2013-07-20T16:22:09Z</time>
      </trkpt>
      <trkpt lat="45.65328" lon="-1.0948">
        <ele>7.35</ele>
        <time>2013-07-20T16:22:10Z</time>
      </trkpt>
      <trkpt lat="45.65329" lon="-1.09469">
        <ele>7.83</ele>
        <time>2013-07-20T16:22:11Z</time>
      </trkpt>
      <trkpt lat="45.65329" lon="-1.09459">
        <ele>7.83</ele>
        <time>2013-07-20T16:22:12Z</time>
      </trkpt>
      <trkpt lat="45.65328" lon="-1.09448">
        <ele>8.31</ele>
        <time>2013-07-20T16:22:13Z</time>
      </trkpt>
      <trkpt lat="45.65327" lon="-1.09438">
        <ele>8.31</ele>
        <time>2013-07-20T16:22:14Z</time>
      </trkpt>
      <trkpt lat="45.65325" lon="-1.09428">
        <ele>8.79</ele>
        <time>2013-07-20T16:22:15Z</time>
      </trkpt>
      <trkpt lat="45.65322" lon="-1.09418">
        <ele>8.79</ele>
        <time>2013-07-20T16:22:16Z</time>
      </trkpt>
      <trkpt lat="45.6532" lon="-1.09409">
        <ele>8.79</ele>
        <time>2013-07-20T16:22:17Z</time>
      </trkpt>
      <trkpt lat="45.65285" lon="-1.09302">
        <ele>10.71</ele>
        <time>2013-07-20T16:22:30Z</time>
      </trkpt>
      <trkpt lat="45.65263" lon="-1.09185">
        <ele>12.15</ele>
        <time>2013-07-20T16:22:45Z</time>
      </trkpt>
      <trkpt lat="45.65247" lon="-1.09105">
        <ele>11.19</ele>
        <time>2013-07-20T16:22:57Z</time>
      </trkpt>
      <trkpt lat="45.65239" lon="-1.09066">
        <ele>12.63</ele>
        <time>2013-07-20T16:23:06Z</time>
      </trkpt>
      <trkpt lat="45.6523" lon="-1.09012">
        <ele>14.08</ele>
        <time>2013-07-20T16:23:14Z</time>
      </trkpt>
      <trkpt lat="45.65229" lon="-1.08874">
        <ele>13.6</ele>
        <time>2013-07-20T16:23:31Z</time>
      </trkpt>
      <trkpt lat="45.65228" lon="-1.08864">
        <ele>13.6</ele>
        <time>2013-07-20T16:23:32Z</time>
      </trkpt>
      <trkpt lat="45.65221" lon="-1.08837">
        <ele>13.6</ele>
        <time>2013-07-20T16:23:35Z</time>
      </trkpt>
      <trkpt lat="45.65195" lon="-1.0873">
        <ele>15.52</ele>
        <time>2013-07-20T16:23:48Z</time>
      </trkpt>
      <trkpt lat="45.6518" lon="-1.08591">
        <ele>16.96</ele>
        <time>2013-07-20T16:24:06Z</time>
      </trkpt>
      <trkpt lat="45.65179" lon="-1.08589">
        <ele>16.96</ele>
        <time>2013-07-20T16:24:07Z</time>
      </trkpt>
      <trkpt lat="45.65177" lon="-1.08591">
        <ele>17.44</ele>
        <time>2013-07-20T16:24:08Z</time>
      </trkpt>
      <trkpt lat="45.65175" lon="-1.08595">
        <ele>16.96</ele>
        <time>2013-07-20T16:24:10Z</time>
      </trkpt>
      <trkpt lat="45.65173" lon="-1.08596">
        <ele>16.96</ele>
        <time>2013-07-20T16:24:11Z</time>
      </trkpt>
      <trkpt lat="45.65172" lon="-1.08599">
        <ele>16.48</ele>
        <time>2013-07-20T16:24:12Z</time>
      </trkpt>
      <trkpt lat="45.65171" lon="-1.08601">
        <ele>16.48</ele>
        <time>2013-07-20T16:24:13Z</time>
      </trkpt>
      <trkpt lat="45.65165" lon="-1.08606">
        <ele>16.48</ele>
        <time>2013-07-20T16:24:20Z</time>
      </trkpt>
      <trkpt lat="45.65182" lon="-1.08588">
        <ele>18.4</ele>
        <time>2013-07-20T16:36:49Z</time>
      </trkpt>
      <trkpt lat="45.65182" lon="-1.08588">
        <ele>18.4</ele>
        <time>2013-07-20T16:36:56Z</time>
      </trkpt>
      <trkpt lat="45.6518" lon="-1.08603">
        <ele>21.29</ele>
        <time>2013-07-20T16:37:05Z</time>
      </trkpt>
      <trkpt lat="45.65179" lon="-1.08603">
        <ele>22.25</ele>
        <time>2013-07-20T16:37:07Z</time>
      </trkpt>
      <trkpt lat="45.65171" lon="-1.08605">
        <ele>25.61</ele>
        <time>2013-07-20T16:37:15Z</time>
      </trkpt>
      <trkpt lat="45.65167" lon="-1.08606">
        <ele>28.98</ele>
        <time>2013-07-20T16:37:40Z</time>
      </trkpt>
      <trkpt lat="45.65166" lon="-1.08607">
        <ele>28.98</ele>
        <time>2013-07-20T16:38:13Z</time>
      </trkpt>
      <trkpt lat="45.65166" lon="-1.08608">
        <ele>28.5</ele>
        <time>2013-07-20T16:38:29Z</time>
      </trkpt>
      <trkpt lat="45.6517" lon="-1.08607">
        <ele>28.98</ele>
        <time>2013-07-20T16:38:32Z</time>
      </trkpt>
      <trkpt lat="45.65172" lon="-1.08605">
        <ele>28.5</ele>
        <time>2013-07-20T16:38:33Z</time>
      </trkpt>
      <trkpt lat="45.65174" lon="-1.08601">
        <ele>28.5</ele>
        <time>2013-07-20T16:38:34Z</time>
      </trkpt>
      <trkpt lat="45.65174" lon="-1.08596">
        <ele>28.5</ele>
        <time>2013-07-20T16:38:35Z</time>
      </trkpt>
      <trkpt lat="45.65175" lon="-1.08592">
        <ele>28.98</ele>
        <time>2013-07-20T16:38:36Z</time>
      </trkpt>
      <trkpt lat="45.65176" lon="-1.08587">
        <ele>28.98</ele>
        <time>2013-07-20T16:38:37Z</time>
      </trkpt>
      <trkpt lat="45.65176" lon="-1.08581">
        <ele>29.46</ele>
        <time>2013-07-20T16:38:38Z</time>
      </trkpt>
      <trkpt lat="45.65175" lon="-1.08576">
        <ele>29.46</ele>
        <time>2013-07-20T16:38:39Z</time>
      </trkpt>
      <trkpt lat="45.65164" lon="-1.08485">
        <ele>29.46</ele>
        <time>2013-07-20T16:38:51Z</time>
      </trkpt>
      <trkpt lat="45.65162" lon="-1.08478">
        <ele>29.46</ele>
        <time>2013-07-20T16:38:52Z</time>
      </trkpt>
      <trkpt lat="45.6516" lon="-1.08471">
        <ele>28.98</ele>
        <time>2013-07-20T16:38:53Z</time>
      </trkpt>
      <trkpt lat="45.65159" lon="-1.08463">
        <ele>28.98</ele>
        <time>2013-07-20T16:38:54Z</time>
      </trkpt>
      <trkpt lat="45.65159" lon="-1.08455">
        <ele>28.98</ele>
        <time>2013-07-20T16:38:55Z</time>
      </trkpt>
      <trkpt lat="45.65159" lon="-1.08446">
        <ele>28.98</ele>
        <time>2013-07-20T16:38:56Z</time>
      </trkpt>
      <trkpt lat="45.65159" lon="-1.08437">
        <ele>28.98</ele>
        <time>2013-07-20T16:38:57Z</time>
      </trkpt>
      <trkpt lat="45.65157" lon="-1.08428">
        <ele>29.46</ele>
        <time>2013-07-20T16:38:58Z</time>
      </trkpt>
      <trkpt lat="45.65155" lon="-1.0842">
        <ele>29.46</ele>
        <time>2013-07-20T16:38:59Z</time>
      </trkpt>
      <trkpt lat="45.65115" lon="-1.08276">
        <ele>30.9</ele>
        <time>2013-07-20T16:39:16Z</time>
      </trkpt>
      <trkpt lat="45.6508" lon="-1.08156">
        <ele>31.86</ele>
        <time>2013-07-20T16:39:31Z</time>
      </trkpt>
      <trkpt lat="45.65077" lon="-1.0815">
        <ele>31.38</ele>
        <time>2013-07-20T16:39:32Z</time>
      </trkpt>
      <trkpt lat="45.65074" lon="-1.08145">
        <ele>30.9</ele>
        <time>2013-07-20T16:39:33Z</time>
      </trkpt>
      <trkpt lat="45.65072" lon="-1.08141">
        <ele>30.9</ele>
        <time>2013-07-20T16:39:34Z</time>
      </trkpt>
      <trkpt lat="45.65069" lon="-1.08137">
        <ele>30.9</ele>
        <time>2013-07-20T16:39:35Z</time>
      </trkpt>
      <trkpt lat="45.65063" lon="-1.08124">
        <ele>30.42</ele>
        <time>2013-07-20T16:39:38Z</time>
      </trkpt>
      <trkpt lat="45.65062" lon="-1.08119">
        <ele>30.9</ele>
        <time>2013-07-20T16:39:39Z</time>
      </trkpt>
      <trkpt lat="45.65062" lon="-1.08112">
        <ele>30.9</ele>
        <time>2013-07-20T16:39:40Z</time>
      </trkpt>
      <trkpt lat="45.65065" lon="-1.08106">
        <ele>30.42</ele>
        <time>2013-07-20T16:39:41Z</time>
      </trkpt>
      <trkpt lat="45.65068" lon="-1.08101">
        <ele>30.9</ele>
        <time>2013-07-20T16:39:42Z</time>
      </trkpt>
      <trkpt lat="45.65072" lon="-1.08096">
        <ele>30.9</ele>
        <time>2013-07-20T16:39:43Z</time>
      </trkpt>
      <trkpt lat="45.65075" lon="-1.08092">
        <ele>30.9</ele>
        <time>2013-07-20T16:39:44Z</time>
      </trkpt>
      <trkpt lat="45.65084" lon="-1.0808">
        <ele>30.9</ele>
        <time>2013-07-20T16:39:50Z</time>
      </trkpt>
      <trkpt lat="45.65084" lon="-1.08079">
        <ele>30.9</ele>
        <time>2013-07-20T16:39:51Z</time>
      </trkpt>
      <trkpt lat="45.65084" lon="-1.08077">
        <ele>30.42</ele>
        <time>2013-07-20T16:39:52Z</time>
      </trkpt>
      <trkpt lat="45.65083" lon="-1.08076">
        <ele>30.42</ele>
        <time>2013-07-20T16:39:53Z</time>
      </trkpt>
      <trkpt lat="45.65081" lon="-1.08075">
        <ele>30.9</ele>
        <time>2013-07-20T16:39:54Z</time>
      </trkpt>
      <trkpt lat="45.6508" lon="-1.08073">
        <ele>30.42</ele>
        <time>2013-07-20T16:39:55Z</time>
      </trkpt>
      <trkpt lat="45.65079" lon="-1.08069">
        <ele>30.42</ele>
        <time>2013-07-20T16:39:56Z</time>
      </trkpt>
      <trkpt lat="45.65079" lon="-1.08065">
        <ele>30.9</ele>
        <time>2013-07-20T16:39:57Z</time>
      </trkpt>
      <trkpt lat="45.65079" lon="-1.0806">
        <ele>30.9</ele>
        <time>2013-07-20T16:39:58Z</time>
      </trkpt>
      <trkpt lat="45.65079" lon="-1.08055">
        <ele>30.9</ele>
        <time>2013-07-20T16:39:59Z</time>
      </trkpt>
      <trkpt lat="45.65083" lon="-1.07957">
        <ele>31.86</ele>
        <time>2013-07-20T16:40:13Z</time>
      </trkpt>
      <trkpt lat="45.65091" lon="-1.07833">
        <ele>32.82</ele>
        <time>2013-07-20T16:40:29Z</time>
      </trkpt>
      <trkpt lat="45.65092" lon="-1.07677">
        <ele>29.46</ele>
        <time>2013-07-20T16:40:46Z</time>
      </trkpt>
      <trkpt lat="45.65093" lon="-1.07661">
        <ele>28.98</ele>
        <time>2013-07-20T16:40:48Z</time>
      </trkpt>
      <trkpt lat="45.65094" lon="-1.07653">
        <ele>28.98</ele>
        <time>2013-07-20T16:40:49Z</time>
      </trkpt>
      <trkpt lat="45.65095" lon="-1.07645">
        <ele>28.5</ele>
        <time>2013-07-20T16:40:50Z</time>
      </trkpt>
      <trkpt lat="45.65095" lon="-1.07636">
        <ele>28.98</ele>
        <time>2013-07-20T16:40:51Z</time>
      </trkpt>
      <trkpt lat="45.65093" lon="-1.07628">
        <ele>29.46</ele>
        <time>2013-07-20T16:40:52Z</time>
      </trkpt>
      <trkpt lat="45.65092" lon="-1.07619">
        <ele>29.46</ele>
        <time>2013-07-20T16:40:53Z</time>
      </trkpt>
      <trkpt lat="45.65067" lon="-1.07492">
        <ele>32.34</ele>
        <time>2013-07-20T16:41:09Z</time>
      </trkpt>
      <trkpt lat="45.6506" lon="-1.07463">
        <ele>33.3</ele>
        <time>2013-07-20T16:41:13Z</time>
      </trkpt>
      <trkpt lat="45.65059" lon="-1.07457">
        <ele>33.78</ele>
        <time>2013-07-20T16:41:14Z</time>
      </trkpt>
      <trkpt lat="45.65037" lon="-1.07371">
        <ele>35.71</ele>
        <time>2013-07-20T16:41:28Z</time>
      </trkpt>
      <trkpt lat="45.65013" lon="-1.07262">
        <ele>33.3</ele>
        <time>2013-07-20T16:41:42Z</time>
      </trkpt>
      <trkpt lat="45.64986" lon="-1.07176">
        <ele>30.9</ele>
        <time>2013-07-20T16:41:50Z</time>
      </trkpt>
      <trkpt lat="45.64971" lon="-1.07067">
        <ele>28.02</ele>
        <time>2013-07-20T16:41:59Z</time>
      </trkpt>
      <trkpt lat="45.64961" lon="-1.07011">
        <ele>27.53</ele>
        <time>2013-07-20T16:42:07Z</time>
      </trkpt>
      <trkpt lat="45.64961" lon="-1.07008">
        <ele>28.02</ele>
        <time>2013-07-20T16:42:08Z</time>
      </trkpt>
      <trkpt lat="45.64961" lon="-1.07005">
        <ele>28.5</ele>
        <time>2013-07-20T16:42:09Z</time>
      </trkpt>
      <trkpt lat="45.64962" lon="-1.07004">
        <ele>28.02</ele>
        <time>2013-07-20T16:42:10Z</time>
      </trkpt>
      <trkpt lat="45.64962" lon="-1.07002">
        <ele>28.02</ele>
        <time>2013-07-20T16:42:11Z</time>
      </trkpt>
      <trkpt lat="45.64962" lon="-1.06999">
        <ele>28.5</ele>
        <time>2013-07-20T16:42:12Z</time>
      </trkpt>
      <trkpt lat="45.64957" lon="-1.06967">
        <ele>28.98</ele>
        <time>2013-07-20T16:42:18Z</time>
      </trkpt>
      <trkpt lat="45.64958" lon="-1.06961">
        <ele>29.46</ele>
        <time>2013-07-20T16:42:19Z</time>
      </trkpt>
      <trkpt lat="45.64959" lon="-1.06947">
        <ele>29.46</ele>
        <time>2013-07-20T16:42:21Z</time>
      </trkpt>
      <trkpt lat="45.64965" lon="-1.06903">
        <ele>28.98</ele>
        <time>2013-07-20T16:42:27Z</time>
      </trkpt>
      <trkpt lat="45.6497" lon="-1.06862">
        <ele>28.98</ele>
        <time>2013-07-20T16:42:34Z</time>
      </trkpt>
      <trkpt lat="45.64969" lon="-1.06822">
        <ele>27.53</ele>
        <time>2013-07-20T16:42:42Z</time>
      </trkpt>
      <trkpt lat="45.64968" lon="-1.06816">
        <ele>27.05</ele>
        <time>2013-07-20T16:42:43Z</time>
      </trkpt>
      <trkpt lat="45.64967" lon="-1.06808">
        <ele>27.05</ele>
        <time>2013-07-20T16:42:44Z</time>
      </trkpt>
      <trkpt lat="45.64965" lon="-1.06801">
        <ele>27.05</ele>
        <time>2013-07-20T16:42:45Z</time>
      </trkpt>
      <trkpt lat="45.64963" lon="-1.06793">
        <ele>26.57</ele>
        <time>2013-07-20T16:42:46Z</time>
      </trkpt>
      <trkpt lat="45.64933" lon="-1.06674">
        <ele>24.65</ele>
        <time>2013-07-20T16:42:59Z</time>
      </trkpt>
      <trkpt lat="45.64888" lon="-1.06519">
        <ele>25.13</ele>
        <time>2013-07-20T16:43:15Z</time>
      </trkpt>
      <trkpt lat="45.64874" lon="-1.06489">
        <ele>25.61</ele>
        <time>2013-07-20T16:43:19Z</time>
      </trkpt>
      <trkpt lat="45.6487" lon="-1.06484">
        <ele>25.61</ele>
        <time>2013-07-20T16:43:20Z</time>
      </trkpt>
      <trkpt lat="45.64867" lon="-1.06478">
        <ele>26.09</ele>
        <time>2013-07-20T16:43:21Z</time>
      </trkpt>
      <trkpt lat="45.64865" lon="-1.06473">
        <ele>25.61</ele>
        <time>2013-07-20T16:43:22Z</time>
      </trkpt>
      <trkpt lat="45.64864" lon="-1.06467">
        <ele>25.61</ele>
        <time>2013-07-20T16:43:23Z</time>
      </trkpt>
      <trkpt lat="45.64865" lon="-1.06462">
        <ele>25.61</ele>
        <time>2013-07-20T16:43:24Z</time>
      </trkpt>
      <trkpt lat="45.64867" lon="-1.06457">
        <ele>26.09</ele>
        <time>2013-07-20T16:43:25Z</time>
      </trkpt>
      <trkpt lat="45.64868" lon="-1.06452">
        <ele>26.09</ele>
        <time>2013-07-20T16:43:26Z</time>
      </trkpt>
      <trkpt lat="45.64868" lon="-1.06446">
        <ele>26.57</ele>
        <time>2013-07-20T16:43:27Z</time>
      </trkpt>
      <trkpt lat="45.64867" lon="-1.06441">
        <ele>27.05</ele>
        <time>2013-07-20T16:43:28Z</time>
      </trkpt>
      <trkpt lat="45.64866" lon="-1.06435">
        <ele>27.05</ele>
        <time>2013-07-20T16:43:29Z</time>
      </trkpt>
      <trkpt lat="45.64846" lon="-1.06371">
        <ele>28.98</ele>
        <time>2013-07-20T16:43:42Z</time>
      </trkpt>
      <trkpt lat="45.64838" lon="-1.06341">
        <ele>29.94</ele>
        <time>2013-07-20T16:43:52Z</time>
      </trkpt>
      <trkpt lat="45.64822" lon="-1.06288">
        <ele>30.42</ele>
        <time>2013-07-20T16:44:03Z</time>
      </trkpt>
      <trkpt lat="45.64791" lon="-1.06161">
        <ele>29.94</ele>
        <time>2013-07-20T16:44:19Z</time>
      </trkpt>
      <trkpt lat="45.64783" lon="-1.05988">
        <ele>28.02</ele>
        <time>2013-07-20T16:44:35Z</time>
      </trkpt>
      <trkpt lat="45.64778" lon="-1.0593">
        <ele>27.53</ele>
        <time>2013-07-20T16:44:40Z</time>
      </trkpt>
      <trkpt lat="45.64776" lon="-1.05919">
        <ele>27.05</ele>
        <time>2013-07-20T16:44:41Z</time>
      </trkpt>
      <trkpt lat="45.64773" lon="-1.05909">
        <ele>27.05</ele>
        <time>2013-07-20T16:44:42Z</time>
      </trkpt>
      <trkpt lat="45.64767" lon="-1.05889">
        <ele>27.05</ele>
        <time>2013-07-20T16:44:44Z</time>
      </trkpt>
      <trkpt lat="45.64763" lon="-1.0588">
        <ele>27.05</ele>
        <time>2013-07-20T16:44:45Z</time>
      </trkpt>
      <trkpt lat="45.64734" lon="-1.05821">
        <ele>25.13</ele>
        <time>2013-07-20T16:44:53Z</time>
      </trkpt>
      <trkpt lat="45.64733" lon="-1.05816">
        <ele>25.13</ele>
        <time>2013-07-20T16:44:54Z</time>
      </trkpt>
      <trkpt lat="45.64734" lon="-1.0581">
        <ele>25.13</ele>
        <time>2013-07-20T16:44:55Z</time>
      </trkpt>
      <trkpt lat="45.64737" lon="-1.05804">
        <ele>25.13</ele>
        <time>2013-07-20T16:44:56Z</time>
      </trkpt>
      <trkpt lat="45.64741" lon="-1.058">
        <ele>25.13</ele>
        <time>2013-07-20T16:44:57Z</time>
      </trkpt>
      <trkpt lat="45.64745" lon="-1.05796">
        <ele>25.61</ele>
        <time>2013-07-20T16:44:58Z</time>
      </trkpt>
      <trkpt lat="45.64749" lon="-1.05792">
        <ele>25.61</ele>
        <time>2013-07-20T16:44:59Z</time>
      </trkpt>
      <trkpt lat="45.64767" lon="-1.05776">
        <ele>26.57</ele>
        <time>2013-07-20T16:45:03Z</time>
      </trkpt>
      <trkpt lat="45.64771" lon="-1.05772">
        <ele>26.57</ele>
        <time>2013-07-20T16:45:04Z</time>
      </trkpt>
      <trkpt lat="45.64775" lon="-1.05767">
        <ele>27.53</ele>
        <time>2013-07-20T16:45:05Z</time>
      </trkpt>
      <trkpt lat="45.64778" lon="-1.05761">
        <ele>27.53</ele>
        <time>2013-07-20T16:45:06Z</time>
      </trkpt>
      <trkpt lat="45.6478" lon="-1.05755">
        <ele>28.02</ele>
        <time>2013-07-20T16:45:07Z</time>
      </trkpt>
      <trkpt lat="45.64781" lon="-1.05748">
        <ele>28.02</ele>
        <time>2013-07-20T16:45:08Z</time>
      </trkpt>
      <trkpt lat="45.64781" lon="-1.0574">
        <ele>28.5</ele>
        <time>2013-07-20T16:45:09Z</time>
      </trkpt>
      <trkpt lat="45.64781" lon="-1.05726">
        <ele>28.5</ele>
        <time>2013-07-20T16:45:11Z</time>
      </trkpt>
      <trkpt lat="45.6478" lon="-1.05604">
        <ele>30.9</ele>
        <time>2013-07-20T16:45:26Z</time>
      </trkpt>
      <trkpt lat="45.64795" lon="-1.05464">
        <ele>32.82</ele>
        <time>2013-07-20T16:45:43Z</time>
      </trkpt>
      <trkpt lat="45.64824" lon="-1.0532">
        <ele>33.3</ele>
        <time>2013-07-20T16:46:00Z</time>
      </trkpt>
      <trkpt lat="45.64836" lon="-1.05183">
        <ele>33.78</ele>
        <time>2013-07-20T16:46:15Z</time>
      </trkpt>
      <trkpt lat="45.64834" lon="-1.05049">
        <ele>34.74</ele>
        <time>2013-07-20T16:46:29Z</time>
      </trkpt>
      <trkpt lat="45.64836" lon="-1.05039">
        <ele>34.26</ele>
        <time>2013-07-20T16:46:30Z</time>
      </trkpt>
      <trkpt lat="45.64838" lon="-1.0503">
        <ele>34.74</ele>
        <time>2013-07-20T16:46:31Z</time>
      </trkpt>
      <trkpt lat="45.6484" lon="-1.05021">
        <ele>34.26</ele>
        <time>2013-07-20T16:46:32Z</time>
      </trkpt>
      <trkpt lat="45.64843" lon="-1.05012">
        <ele>34.26</ele>
        <time>2013-07-20T16:46:33Z</time>
      </trkpt>
      <trkpt lat="45.64845" lon="-1.05004">
        <ele>34.74</ele>
        <time>2013-07-20T16:46:34Z</time>
      </trkpt>
      <trkpt lat="45.64881" lon="-1.04897">
        <ele>34.74</ele>
        <time>2013-07-20T16:46:47Z</time>
      </trkpt>
      <trkpt lat="45.64885" lon="-1.0488">
        <ele>34.26</ele>
        <time>2013-07-20T16:46:49Z</time>
      </trkpt>
      <trkpt lat="45.64886" lon="-1.04815">
        <ele>31.86</ele>
        <time>2013-07-20T16:46:56Z</time>
      </trkpt>
      <trkpt lat="45.64885" lon="-1.04808">
        <ele>31.86</ele>
        <time>2013-07-20T16:46:57Z</time>
      </trkpt>
      <trkpt lat="45.64882" lon="-1.04803">
        <ele>31.86</ele>
        <time>2013-07-20T16:46:58Z</time>
      </trkpt>
      <trkpt lat="45.64878" lon="-1.04798">
        <ele>31.86</ele>
        <time>2013-07-20T16:46:59Z</time>
      </trkpt>
      <trkpt lat="45.64874" lon="-1.04794">
        <ele>32.34</ele>
        <time>2013-07-20T16:47:00Z</time>
      </trkpt>
      <trkpt lat="45.6487" lon="-1.04789">
        <ele>32.34</ele>
        <time>2013-07-20T16:47:01Z</time>
      </trkpt>
      <trkpt lat="45.64866" lon="-1.04782">
        <ele>32.34</ele>
        <time>2013-07-20T16:47:02Z</time>
      </trkpt>
      <trkpt lat="45.64864" lon="-1.04775">
        <ele>31.86</ele>
        <time>2013-07-20T16:47:03Z</time>
      </trkpt>
      <trkpt lat="45.64862" lon="-1.04766">
        <ele>31.38</ele>
        <time>2013-07-20T16:47:04Z</time>
      </trkpt>
      <trkpt lat="45.64862" lon="-1.04758">
        <ele>31.38</ele>
        <time>2013-07-20T16:47:05Z</time>
      </trkpt>
      <trkpt lat="45.64863" lon="-1.0475">
        <ele>30.9</ele>
        <time>2013-07-20T16:47:06Z</time>
      </trkpt>
      <trkpt lat="45.64865" lon="-1.04742">
        <ele>30.9</ele>
        <time>2013-07-20T16:47:07Z</time>
      </trkpt>
      <trkpt lat="45.64869" lon="-1.04735">
        <ele>30.9</ele>
        <time>2013-07-20T16:47:08Z</time>
      </trkpt>
      <trkpt lat="45.64873" lon="-1.0473">
        <ele>30.9</ele>
        <time>2013-07-20T16:47:09Z</time>
      </trkpt>
      <trkpt lat="45.64879" lon="-1.04726">
        <ele>30.9</ele>
        <time>2013-07-20T16:47:10Z</time>
      </trkpt>
      <trkpt lat="45.64884" lon="-1.04724">
        <ele>31.38</ele>
        <time>2013-07-20T16:47:11Z</time>
      </trkpt>
      <trkpt lat="45.64889" lon="-1.04721">
        <ele>31.38</ele>
        <time>2013-07-20T16:47:12Z</time>
      </trkpt>
      <trkpt lat="45.64893" lon="-1.04716">
        <ele>31.38</ele>
        <time>2013-07-20T16:47:13Z</time>
      </trkpt>
      <trkpt lat="45.64897" lon="-1.04709">
        <ele>31.86</ele>
        <time>2013-07-20T16:47:14Z</time>
      </trkpt>
      <trkpt lat="45.649" lon="-1.04701">
        <ele>31.38</ele>
        <time>2013-07-20T16:47:15Z</time>
      </trkpt>
      <trkpt lat="45.64903" lon="-1.04692">
        <ele>31.86</ele>
        <time>2013-07-20T16:47:16Z</time>
      </trkpt>
      <trkpt lat="45.64905" lon="-1.04683">
        <ele>31.38</ele>
        <time>2013-07-20T16:47:17Z</time>
      </trkpt>
      <trkpt lat="45.6496" lon="-1.04542">
        <ele>32.34</ele>
        <time>2013-07-20T16:47:33Z</time>
      </trkpt>
      <trkpt lat="45.65013" lon="-1.04464">
        <ele>32.34</ele>
        <time>2013-07-20T16:47:44Z</time>
      </trkpt>
      <trkpt lat="45.65017" lon="-1.04456">
        <ele>32.34</ele>
        <time>2013-07-20T16:47:45Z</time>
      </trkpt>
      <trkpt lat="45.65019" lon="-1.04447">
        <ele>31.86</ele>
        <time>2013-07-20T16:47:46Z</time>
      </trkpt>
      <trkpt lat="45.65021" lon="-1.04438">
        <ele>31.86</ele>
        <time>2013-07-20T16:47:47Z</time>
      </trkpt>
      <trkpt lat="45.6502" lon="-1.04429">
        <ele>31.86</ele>
        <time>2013-07-20T16:47:48Z</time>
      </trkpt>
      <trkpt lat="45.65019" lon="-1.04419">
        <ele>32.34</ele>
        <time>2013-07-20T16:47:49Z</time>
      </trkpt>
      <trkpt lat="45.64986" lon="-1.04282">
        <ele>31.86</ele>
        <time>2013-07-20T16:48:03Z</time>
      </trkpt>
      <trkpt lat="45.64927" lon="-1.04122">
        <ele>29.94</ele>
        <time>2013-07-20T16:48:19Z</time>
      </trkpt>
      <trkpt lat="45.64901" lon="-1.03983">
        <ele>30.9</ele>
        <time>2013-07-20T16:48:33Z</time>
      </trkpt>
      <trkpt lat="45.6488" lon="-1.03843">
        <ele>30.42</ele>
        <time>2013-07-20T16:48:47Z</time>
      </trkpt>
      <trkpt lat="45.64875" lon="-1.03709">
        <ele>30.42</ele>
        <time>2013-07-20T16:49:00Z</time>
      </trkpt>
      <trkpt lat="45.64856" lon="-1.03565">
        <ele>29.46</ele>
        <time>2013-07-20T16:49:14Z</time>
      </trkpt>
      <trkpt lat="45.64824" lon="-1.03438">
        <ele>30.42</ele>
        <time>2013-07-20T16:49:27Z</time>
      </trkpt>
      <trkpt lat="45.64815" lon="-1.03413">
        <ele>30.42</ele>
        <time>2013-07-20T16:49:30Z</time>
      </trkpt>
      <trkpt lat="45.64812" lon="-1.03407">
        <ele>29.94</ele>
        <time>2013-07-20T16:49:31Z</time>
      </trkpt>
      <trkpt lat="45.64809" lon="-1.03397">
        <ele>29.94</ele>
        <time>2013-07-20T16:49:33Z</time>
      </trkpt>
      <trkpt lat="45.64813" lon="-1.034">
        <ele>29.46</ele>
        <time>2013-07-20T16:49:36Z</time>
      </trkpt>
      <trkpt lat="45.64814" lon="-1.03404">
        <ele>29.46</ele>
        <time>2013-07-20T16:49:37Z</time>
      </trkpt>
      <trkpt lat="45.64816" lon="-1.03408">
        <ele>29.46</ele>
        <time>2013-07-20T16:49:38Z</time>
      </trkpt>
      <trkpt lat="45.64819" lon="-1.03411">
        <ele>29.46</ele>
        <time>2013-07-20T16:49:39Z</time>
      </trkpt>
      <trkpt lat="45.64823" lon="-1.03412">
        <ele>29.46</ele>
        <time>2013-07-20T16:49:40Z</time>
      </trkpt>
      <trkpt lat="45.64828" lon="-1.0341">
        <ele>29.46</ele>
        <time>2013-07-20T16:49:41Z</time>
      </trkpt>
      <trkpt lat="45.64831" lon="-1.03406">
        <ele>29.46</ele>
        <time>2013-07-20T16:49:42Z</time>
      </trkpt>
      <trkpt lat="45.64834" lon="-1.03401">
        <ele>29.46</ele>
        <time>2013-07-20T16:49:43Z</time>
      </trkpt>
      <trkpt lat="45.64837" lon="-1.03395">
        <ele>29.46</ele>
        <time>2013-07-20T16:49:44Z</time>
      </trkpt>
      <trkpt lat="45.64863" lon="-1.03346">
        <ele>30.9</ele>
        <time>2013-07-20T16:49:52Z</time>
      </trkpt>
      <trkpt lat="45.64867" lon="-1.03341">
        <ele>30.42</ele>
        <time>2013-07-20T16:49:53Z</time>
      </trkpt>
      <trkpt lat="45.64874" lon="-1.03331">
        <ele>31.86</ele>
        <time>2013-07-20T16:49:55Z</time>
      </trkpt>
      <trkpt lat="45.64893" lon="-1.03301">
        <ele>31.86</ele>
        <time>2013-07-20T16:50:01Z</time>
      </trkpt>
      <trkpt lat="45.64925" lon="-1.03245">
        <ele>32.34</ele>
        <time>2013-07-20T16:50:10Z</time>
      </trkpt>
      <trkpt lat="45.6493" lon="-1.0324">
        <ele>32.34</ele>
        <time>2013-07-20T16:50:11Z</time>
      </trkpt>
      <trkpt lat="45.64935" lon="-1.03235">
        <ele>32.34</ele>
        <time>2013-07-20T16:50:12Z</time>
      </trkpt>
      <trkpt lat="45.64941" lon="-1.03231">
        <ele>32.82</ele>
        <time>2013-07-20T16:50:13Z</time>
      </trkpt>
      <trkpt lat="45.64947" lon="-1.03227">
        <ele>32.34</ele>
        <time>2013-07-20T16:50:14Z</time>
      </trkpt>
      <trkpt lat="45.64953" lon="-1.03224">
        <ele>32.34</ele>
        <time>2013-07-20T16:50:15Z</time>
      </trkpt>
      <trkpt lat="45.65003" lon="-1.03181">
        <ele>31.86</ele>
        <time>2013-07-20T16:50:26Z</time>
      </trkpt>
      <trkpt lat="45.6501" lon="-1.0317">
        <ele>32.34</ele>
        <time>2013-07-20T16:50:29Z</time>
      </trkpt>
      <trkpt lat="45.65013" lon="-1.03165">
        <ele>32.34</ele>
        <time>2013-07-20T16:50:30Z</time>
      </trkpt>
      <trkpt lat="45.65027" lon="-1.03134">
        <ele>32.82</ele>
        <time>2013-07-20T16:50:35Z</time>
      </trkpt>
      <trkpt lat="45.6503" lon="-1.03127">
        <ele>32.82</ele>
        <time>2013-07-20T16:50:36Z</time>
      </trkpt>
      <trkpt lat="45.65031" lon="-1.0312">
        <ele>32.82</ele>
        <time>2013-07-20T16:50:37Z</time>
      </trkpt>
      <trkpt lat="45.65035" lon="-1.03104">
        <ele>33.3</ele>
        <time>2013-07-20T16:50:39Z</time>
      </trkpt>
      <trkpt lat="45.65038" lon="-1.03097">
        <ele>33.3</ele>
        <time>2013-07-20T16:50:40Z</time>
      </trkpt>
      <trkpt lat="45.65081" lon="-1.03013">
        <ele>33.78</ele>
        <time>2013-07-20T16:50:53Z</time>
      </trkpt>
      <trkpt lat="45.65086" lon="-1.02998">
        <ele>33.78</ele>
        <time>2013-07-20T16:50:55Z</time>
      </trkpt>
      <trkpt lat="45.65088" lon="-1.0299">
        <ele>34.26</ele>
        <time>2013-07-20T16:50:56Z</time>
      </trkpt>
      <trkpt lat="45.6509" lon="-1.02981">
        <ele>34.26</ele>
        <time>2013-07-20T16:50:57Z</time>
      </trkpt>
      <trkpt lat="45.6509" lon="-1.02972">
        <ele>34.26</ele>
        <time>2013-07-20T16:50:58Z</time>
      </trkpt>
      <trkpt lat="45.6509" lon="-1.02963">
        <ele>34.26</ele>
        <time>2013-07-20T16:50:59Z</time>
      </trkpt>
      <trkpt lat="45.65092" lon="-1.02929">
        <ele>34.26</ele>
        <time>2013-07-20T16:51:03Z</time>
      </trkpt>
      <trkpt lat="45.65091" lon="-1.02914">
        <ele>34.74</ele>
        <time>2013-07-20T16:51:05Z</time>
      </trkpt>
      <trkpt lat="45.65094" lon="-1.02792">
        <ele>34.74</ele>
        <time>2013-07-20T16:51:19Z</time>
      </trkpt>
      <trkpt lat="45.65096" lon="-1.02784">
        <ele>35.23</ele>
        <time>2013-07-20T16:51:20Z</time>
      </trkpt>
      <trkpt lat="45.65099" lon="-1.02776">
        <ele>35.23</ele>
        <time>2013-07-20T16:51:21Z</time>
      </trkpt>
      <trkpt lat="45.65154" lon="-1.02648">
        <ele>37.15</ele>
        <time>2013-07-20T16:51:37Z</time>
      </trkpt>
      <trkpt lat="45.65166" lon="-1.02614">
        <ele>37.15</ele>
        <time>2013-07-20T16:51:41Z</time>
      </trkpt>
      <trkpt lat="45.65169" lon="-1.02605">
        <ele>37.15</ele>
        <time>2013-07-20T16:51:42Z</time>
      </trkpt>
      <trkpt lat="45.6517" lon="-1.02596">
        <ele>37.15</ele>
        <time>2013-07-20T16:51:43Z</time>
      </trkpt>
      <trkpt lat="45.65173" lon="-1.02577">
        <ele>37.15</ele>
        <time>2013-07-20T16:51:45Z</time>
      </trkpt>
      <trkpt lat="45.65173" lon="-1.02558">
        <ele>37.63</ele>
        <time>2013-07-20T16:51:47Z</time>
      </trkpt>
      <trkpt lat="45.65173" lon="-1.02549">
        <ele>37.63</ele>
        <time>2013-07-20T16:51:48Z</time>
      </trkpt>
      <trkpt lat="45.6517" lon="-1.02522">
        <ele>37.63</ele>
        <time>2013-07-20T16:51:51Z</time>
      </trkpt>
      <trkpt lat="45.65159" lon="-1.02453">
        <ele>37.15</ele>
        <time>2013-07-20T16:51:59Z</time>
      </trkpt>
      <trkpt lat="45.65158" lon="-1.02444">
        <ele>37.15</ele>
        <time>2013-07-20T16:52:00Z</time>
      </trkpt>
      <trkpt lat="45.65158" lon="-1.02398">
        <ele>36.19</ele>
        <time>2013-07-20T16:52:06Z</time>
      </trkpt>
      <trkpt lat="45.65158" lon="-1.02393">
        <ele>36.19</ele>
        <time>2013-07-20T16:52:07Z</time>
      </trkpt>
      <trkpt lat="45.65159" lon="-1.0239">
        <ele>35.71</ele>
        <time>2013-07-20T16:52:08Z</time>
      </trkpt>
      <trkpt lat="45.6516" lon="-1.0239">
        <ele>35.71</ele>
        <time>2013-07-20T16:52:19Z</time>
      </trkpt>
      <trkpt lat="45.6516" lon="-1.02388">
        <ele>35.23</ele>
        <time>2013-07-20T16:52:26Z</time>
      </trkpt>
      <trkpt lat="45.65161" lon="-1.02386">
        <ele>35.71</ele>
        <time>2013-07-20T16:52:27Z</time>
      </trkpt>
      <trkpt lat="45.65163" lon="-1.02383">
        <ele>35.71</ele>
        <time>2013-07-20T16:52:28Z</time>
      </trkpt>
      <trkpt lat="45.65165" lon="-1.02381">
        <ele>35.71</ele>
        <time>2013-07-20T16:52:29Z</time>
      </trkpt>
      <trkpt lat="45.65168" lon="-1.02379">
        <ele>35.71</ele>
        <time>2013-07-20T16:52:30Z</time>
      </trkpt>
      <trkpt lat="45.65172" lon="-1.02377">
        <ele>35.71</ele>
        <time>2013-07-20T16:52:31Z</time>
      </trkpt>
      <trkpt lat="45.65176" lon="-1.02375">
        <ele>36.19</ele>
        <time>2013-07-20T16:52:32Z</time>
      </trkpt>
      <trkpt lat="45.6518" lon="-1.02373">
        <ele>36.19</ele>
        <time>2013-07-20T16:52:33Z</time>
      </trkpt>
      <trkpt lat="45.6525" lon="-1.02342">
        <ele>37.63</ele>
        <time>2013-07-20T16:52:46Z</time>
      </trkpt>
      <trkpt lat="45.65359" lon="-1.02308">
        <ele>38.11</ele>
        <time>2013-07-20T16:53:03Z</time>
      </trkpt>
      <trkpt lat="45.65373" lon="-1.02307">
        <ele>38.11</ele>
        <time>2013-07-20T16:53:05Z</time>
      </trkpt>
      <trkpt lat="45.6538" lon="-1.02306">
        <ele>38.11</ele>
        <time>2013-07-20T16:53:06Z</time>
      </trkpt>
      <trkpt lat="45.65517" lon="-1.02292">
        <ele>38.59</ele>
        <time>2013-07-20T16:53:25Z</time>
      </trkpt>
      <trkpt lat="45.65614" lon="-1.02284">
        <ele>39.55</ele>
        <time>2013-07-20T16:53:38Z</time>
      </trkpt>
      <trkpt lat="45.65723" lon="-1.02234">
        <ele>40.51</ele>
        <time>2013-07-20T16:53:54Z</time>
      </trkpt>
      <trkpt lat="45.65825" lon="-1.02125">
        <ele>41.95</ele>
        <time>2013-07-20T16:54:12Z</time>
      </trkpt>
      <trkpt lat="45.6593" lon="-1.02002">
        <ele>40.99</ele>
        <time>2013-07-20T16:54:29Z</time>
      </trkpt>
      <trkpt lat="45.66037" lon="-1.01882">
        <ele>40.51</ele>
        <time>2013-07-20T16:54:46Z</time>
      </trkpt>
      <trkpt lat="45.66128" lon="-1.01778">
        <ele>37.15</ele>
        <time>2013-07-20T16:55:00Z</time>
      </trkpt>
      <trkpt lat="45.66143" lon="-1.01761">
        <ele>36.67</ele>
        <time>2013-07-20T16:55:02Z</time>
      </trkpt>
      <trkpt lat="45.66213" lon="-1.01682">
        <ele>32.82</ele>
        <time>2013-07-20T16:55:11Z</time>
      </trkpt>
      <trkpt lat="45.66221" lon="-1.01672">
        <ele>32.82</ele>
        <time>2013-07-20T16:55:12Z</time>
      </trkpt>
      <trkpt lat="45.66237" lon="-1.01653">
        <ele>31.86</ele>
        <time>2013-07-20T16:55:14Z</time>
      </trkpt>
      <trkpt lat="45.66271" lon="-1.01615">
        <ele>30.42</ele>
        <time>2013-07-20T16:55:18Z</time>
      </trkpt>
      <trkpt lat="45.66355" lon="-1.01519">
        <ele>27.05</ele>
        <time>2013-07-20T16:55:28Z</time>
      </trkpt>
      <trkpt lat="45.66443" lon="-1.01398">
        <ele>24.17</ele>
        <time>2013-07-20T16:55:40Z</time>
      </trkpt>
      <trkpt lat="45.6652" lon="-1.01258">
        <ele>21.29</ele>
        <time>2013-07-20T16:55:54Z</time>
      </trkpt>
      <trkpt lat="45.66521" lon="-1.01247">
        <ele>21.29</ele>
        <time>2013-07-20T16:55:55Z</time>
      </trkpt>
      <trkpt lat="45.66523" lon="-1.01236">
        <ele>21.29</ele>
        <time>2013-07-20T16:55:56Z</time>
      </trkpt>
      <trkpt lat="45.66526" lon="-1.01226">
        <ele>20.81</ele>
        <time>2013-07-20T16:55:57Z</time>
      </trkpt>
      <trkpt lat="45.66531" lon="-1.01218">
        <ele>20.81</ele>
        <time>2013-07-20T16:55:58Z</time>
      </trkpt>
      <trkpt lat="45.66537" lon="-1.01212">
        <ele>20.32</ele>
        <time>2013-07-20T16:55:59Z</time>
      </trkpt>
      <trkpt lat="45.66543" lon="-1.01207">
        <ele>19.84</ele>
        <time>2013-07-20T16:56:00Z</time>
      </trkpt>
      <trkpt lat="45.66549" lon="-1.01201">
        <ele>19.84</ele>
        <time>2013-07-20T16:56:01Z</time>
      </trkpt>
      <trkpt lat="45.66554" lon="-1.01193">
        <ele>20.32</ele>
        <time>2013-07-20T16:56:02Z</time>
      </trkpt>
      <trkpt lat="45.66558" lon="-1.01183">
        <ele>20.32</ele>
        <time>2013-07-20T16:56:03Z</time>
      </trkpt>
      <trkpt lat="45.66639" lon="-1.01003">
        <ele>19.84</ele>
        <time>2013-07-20T16:56:22Z</time>
      </trkpt>
      <trkpt lat="45.66716" lon="-1.00841">
        <ele>19.84</ele>
        <time>2013-07-20T16:56:39Z</time>
      </trkpt>
      <trkpt lat="45.66818" lon="-1.00616">
        <ele>19.36</ele>
        <time>2013-07-20T16:57:02Z</time>
      </trkpt>
      <trkpt lat="45.66908" lon="-1.00427">
        <ele>18.88</ele>
        <time>2013-07-20T16:57:22Z</time>
      </trkpt>
      <trkpt lat="45.67015" lon="-1.00261">
        <ele>19.84</ele>
        <time>2013-07-20T16:57:42Z</time>
      </trkpt>
      <trkpt lat="45.67137" lon="-1.00119">
        <ele>21.29</ele>
        <time>2013-07-20T16:58:03Z</time>
      </trkpt>
      <trkpt lat="45.67271" lon="-1.00005">
        <ele>21.29</ele>
        <time>2013-07-20T16:58:23Z</time>
      </trkpt>
      <trkpt lat="45.67412" lon="-0.99919">
        <ele>21.29</ele>
        <time>2013-07-20T16:58:41Z</time>
      </trkpt>
      <trkpt lat="45.67565" lon="-0.99862">
        <ele>19.84</ele>
        <time>2013-07-20T16:58:58Z</time>
      </trkpt>
      <trkpt lat="45.67754" lon="-0.99831">
        <ele>17.92</ele>
        <time>2013-07-20T16:59:19Z</time>
      </trkpt>
      <trkpt lat="45.67931" lon="-0.9983">
        <ele>17.44</ele>
        <time>2013-07-20T16:59:39Z</time>
      </trkpt>
      <trkpt lat="45.68086" lon="-0.99826">
        <ele>18.88</ele>
        <time>2013-07-20T16:59:58Z</time>
      </trkpt>
      <trkpt lat="45.68261" lon="-0.99825">
        <ele>18.88</ele>
        <time>2013-07-20T17:00:20Z</time>
      </trkpt>
      <trkpt lat="45.68325" lon="-0.99834">
        <ele>18.4</ele>
        <time>2013-07-20T17:00:29Z</time>
      </trkpt>
      <trkpt lat="45.68332" lon="-0.99832">
        <ele>18.4</ele>
        <time>2013-07-20T17:00:30Z</time>
      </trkpt>
      <trkpt lat="45.68338" lon="-0.99828">
        <ele>18.4</ele>
        <time>2013-07-20T17:00:31Z</time>
      </trkpt>
      <trkpt lat="45.68344" lon="-0.99822">
        <ele>18.4</ele>
        <time>2013-07-20T17:00:32Z</time>
      </trkpt>
      <trkpt lat="45.6835" lon="-0.99816">
        <ele>18.88</ele>
        <time>2013-07-20T17:00:33Z</time>
      </trkpt>
      <trkpt lat="45.68356" lon="-0.99811">
        <ele>18.88</ele>
        <time>2013-07-20T17:00:34Z</time>
      </trkpt>
      <trkpt lat="45.68363" lon="-0.99808">
        <ele>18.4</ele>
        <time>2013-07-20T17:00:35Z</time>
      </trkpt>
      <trkpt lat="45.6837" lon="-0.99808">
        <ele>18.4</ele>
        <time>2013-07-20T17:00:36Z</time>
      </trkpt>
      <trkpt lat="45.68378" lon="-0.9981">
        <ele>18.88</ele>
        <time>2013-07-20T17:00:37Z</time>
      </trkpt>
      <trkpt lat="45.68385" lon="-0.99813">
        <ele>18.4</ele>
        <time>2013-07-20T17:00:38Z</time>
      </trkpt>
      <trkpt lat="45.68514" lon="-0.99855">
        <ele>17.92</ele>
        <time>2013-07-20T17:00:54Z</time>
      </trkpt>
      <trkpt lat="45.68663" lon="-0.99901">
        <ele>17.44</ele>
        <time>2013-07-20T17:01:12Z</time>
      </trkpt>
      <trkpt lat="45.68797" lon="-0.99888">
        <ele>16.96</ele>
        <time>2013-07-20T17:01:28Z</time>
      </trkpt>
      <trkpt lat="45.68914" lon="-0.9981">
        <ele>15.52</ele>
        <time>2013-07-20T17:01:43Z</time>
      </trkpt>
      <trkpt lat="45.68929" lon="-0.99795">
        <ele>14.08</ele>
        <time>2013-07-20T17:01:45Z</time>
      </trkpt>
      <trkpt lat="45.68959" lon="-0.99767">
        <ele>12.15</ele>
        <time>2013-07-20T17:01:49Z</time>
      </trkpt>
      <trkpt lat="45.69094" lon="-0.99638">
        <ele>9.75</ele>
        <time>2013-07-20T17:02:07Z</time>
      </trkpt>
      <trkpt lat="45.6924" lon="-0.99512">
        <ele>9.75</ele>
        <time>2013-07-20T17:02:27Z</time>
      </trkpt>
      <trkpt lat="45.69384" lon="-0.99383">
        <ele>10.23</ele>
        <time>2013-07-20T17:02:47Z</time>
      </trkpt>
      <trkpt lat="45.69513" lon="-0.99244">
        <ele>9.27</ele>
        <time>2013-07-20T17:03:06Z</time>
      </trkpt>
      <trkpt lat="45.69649" lon="-0.99129">
        <ele>9.27</ele>
        <time>2013-07-20T17:03:25Z</time>
      </trkpt>
      <trkpt lat="45.69768" lon="-0.98998">
        <ele>9.75</ele>
        <time>2013-07-20T17:03:44Z</time>
      </trkpt>
      <trkpt lat="45.69859" lon="-0.98828">
        <ele>10.71</ele>
        <time>2013-07-20T17:04:04Z</time>
      </trkpt>
      <trkpt lat="45.6994" lon="-0.98711">
        <ele>10.23</ele>
        <time>2013-07-20T17:04:19Z</time>
      </trkpt>
      <trkpt lat="45.70057" lon="-0.9856">
        <ele>9.27</ele>
        <time>2013-07-20T17:04:39Z</time>
      </trkpt>
      <trkpt lat="45.70149" lon="-0.98409">
        <ele>9.27</ele>
        <time>2013-07-20T17:04:57Z</time>
      </trkpt>
      <trkpt lat="45.70212" lon="-0.98246">
        <ele>9.27</ele>
        <time>2013-07-20T17:05:14Z</time>
      </trkpt>
      <trkpt lat="45.70264" lon="-0.98074">
        <ele>9.75</ele>
        <time>2013-07-20T17:05:32Z</time>
      </trkpt>
      <trkpt lat="45.70318" lon="-0.97892">
        <ele>10.23</ele>
        <time>2013-07-20T17:05:52Z</time>
      </trkpt>
      <trkpt lat="45.70341" lon="-0.97803">
        <ele>10.71</ele>
        <time>2013-07-20T17:06:02Z</time>
      </trkpt>
      <trkpt lat="45.70341" lon="-0.97794">
        <ele>11.19</ele>
        <time>2013-07-20T17:06:03Z</time>
      </trkpt>
      <trkpt lat="45.70341" lon="-0.97785">
        <ele>11.19</ele>
        <time>2013-07-20T17:06:04Z</time>
      </trkpt>
      <trkpt lat="45.70343" lon="-0.97776">
        <ele>10.71</ele>
        <time>2013-07-20T17:06:05Z</time>
      </trkpt>
      <trkpt lat="45.70346" lon="-0.97769">
        <ele>10.71</ele>
        <time>2013-07-20T17:06:06Z</time>
      </trkpt>
      <trkpt lat="45.7035" lon="-0.97763">
        <ele>10.71</ele>
        <time>2013-07-20T17:06:07Z</time>
      </trkpt>
      <trkpt lat="45.70354" lon="-0.97757">
        <ele>10.71</ele>
        <time>2013-07-20T17:06:08Z</time>
      </trkpt>
      <trkpt lat="45.70358" lon="-0.9775">
        <ele>10.71</ele>
        <time>2013-07-20T17:06:09Z</time>
      </trkpt>
      <trkpt lat="45.70362" lon="-0.97742">
        <ele>10.71</ele>
        <time>2013-07-20T17:06:10Z</time>
      </trkpt>
      <trkpt lat="45.7041" lon="-0.97604">
        <ele>11.19</ele>
        <time>2013-07-20T17:06:25Z</time>
      </trkpt>
      <trkpt lat="45.70498" lon="-0.97452">
        <ele>10.71</ele>
        <time>2013-07-20T17:06:43Z</time>
      </trkpt>
      <trkpt lat="45.70608" lon="-0.97343">
        <ele>10.23</ele>
        <time>2013-07-20T17:07:00Z</time>
      </trkpt>
      <trkpt lat="45.70737" lon="-0.97278">
        <ele>9.27</ele>
        <time>2013-07-20T17:07:17Z</time>
      </trkpt>
      <trkpt lat="45.7087" lon="-0.97265">
        <ele>10.71</ele>
        <time>2013-07-20T17:07:35Z</time>
      </trkpt>
      <trkpt lat="45.71014" lon="-0.97271">
        <ele>9.75</ele>
        <time>2013-07-20T17:07:55Z</time>
      </trkpt>
      <trkpt lat="45.71192" lon="-0.97276">
        <ele>8.79</ele>
        <time>2013-07-20T17:08:16Z</time>
      </trkpt>
      <trkpt lat="45.71339" lon="-0.97281">
        <ele>8.79</ele>
        <time>2013-07-20T17:08:34Z</time>
      </trkpt>
      <trkpt lat="45.71459" lon="-0.97253">
        <ele>9.27</ele>
        <time>2013-07-20T17:08:50Z</time>
      </trkpt>
      <trkpt lat="45.71561" lon="-0.97166">
        <ele>9.27</ele>
        <time>2013-07-20T17:09:06Z</time>
      </trkpt>
      <trkpt lat="45.71631" lon="-0.97075">
        <ele>9.27</ele>
        <time>2013-07-20T17:09:20Z</time>
      </trkpt>
      <trkpt lat="45.71741" lon="-0.9698">
        <ele>8.31</ele>
        <time>2013-07-20T17:09:37Z</time>
      </trkpt>
      <trkpt lat="45.71892" lon="-0.96859">
        <ele>8.79</ele>
        <time>2013-07-20T17:09:59Z</time>
      </trkpt>
      <trkpt lat="45.72014" lon="-0.96761">
        <ele>8.31</ele>
        <time>2013-07-20T17:10:17Z</time>
      </trkpt>
      <trkpt lat="45.72161" lon="-0.96643">
        <ele>7.83</ele>
        <time>2013-07-20T17:10:39Z</time>
      </trkpt>
      <trkpt lat="45.7228" lon="-0.96548">
        <ele>7.83</ele>
        <time>2013-07-20T17:10:57Z</time>
      </trkpt>
      <trkpt lat="45.7239" lon="-0.96461">
        <ele>8.31</ele>
        <time>2013-07-20T17:11:14Z</time>
      </trkpt>
      <trkpt lat="45.72457" lon="-0.96405">
        <ele>7.83</ele>
        <time>2013-07-20T17:11:25Z</time>
      </trkpt>
      <trkpt lat="45.72461" lon="-0.96398">
        <ele>7.35</ele>
        <time>2013-07-20T17:11:26Z</time>
      </trkpt>
      <trkpt lat="45.72465" lon="-0.96389">
        <ele>7.83</ele>
        <time>2013-07-20T17:11:27Z</time>
      </trkpt>
      <trkpt lat="45.72468" lon="-0.96379">
        <ele>7.83</ele>
        <time>2013-07-20T17:11:28Z</time>
      </trkpt>
      <trkpt lat="45.7247" lon="-0.9637">
        <ele>7.83</ele>
        <time>2013-07-20T17:11:29Z</time>
      </trkpt>
      <trkpt lat="45.72472" lon="-0.9636">
        <ele>7.83</ele>
        <time>2013-07-20T17:11:30Z</time>
      </trkpt>
      <trkpt lat="45.725" lon="-0.96182">
        <ele>7.83</ele>
        <time>2013-07-20T17:11:48Z</time>
      </trkpt>
      <trkpt lat="45.72504" lon="-0.96175">
        <ele>7.35</ele>
        <time>2013-07-20T17:11:49Z</time>
      </trkpt>
      <trkpt lat="45.72509" lon="-0.96169">
        <ele>7.35</ele>
        <time>2013-07-20T17:11:50Z</time>
      </trkpt>
      <trkpt lat="45.72514" lon="-0.96165">
        <ele>7.83</ele>
        <time>2013-07-20T17:11:51Z</time>
      </trkpt>
      <trkpt lat="45.7252" lon="-0.96161">
        <ele>7.83</ele>
        <time>2013-07-20T17:11:52Z</time>
      </trkpt>
      <trkpt lat="45.72525" lon="-0.96157">
        <ele>7.35</ele>
        <time>2013-07-20T17:11:53Z</time>
      </trkpt>
      <trkpt lat="45.72529" lon="-0.96152">
        <ele>7.35</ele>
        <time>2013-07-20T17:11:54Z</time>
      </trkpt>
      <trkpt lat="45.72532" lon="-0.96145">
        <ele>7.83</ele>
        <time>2013-07-20T17:11:55Z</time>
      </trkpt>
      <trkpt lat="45.72534" lon="-0.96137">
        <ele>7.83</ele>
        <time>2013-07-20T17:11:56Z</time>
      </trkpt>
      <trkpt lat="45.72535" lon="-0.96128">
        <ele>7.83</ele>
        <time>2013-07-20T17:11:57Z</time>
      </trkpt>
      <trkpt lat="45.72535" lon="-0.96119">
        <ele>8.31</ele>
        <time>2013-07-20T17:11:58Z</time>
      </trkpt>
      <trkpt lat="45.7254" lon="-0.95981">
        <ele>7.83</ele>
        <time>2013-07-20T17:12:13Z</time>
      </trkpt>
      <trkpt lat="45.72541" lon="-0.95961">
        <ele>7.83</ele>
        <time>2013-07-20T17:12:15Z</time>
      </trkpt>
      <trkpt lat="45.72543" lon="-0.95942">
        <ele>7.35</ele>
        <time>2013-07-20T17:12:17Z</time>
      </trkpt>
      <trkpt lat="45.72545" lon="-0.95932">
        <ele>7.35</ele>
        <time>2013-07-20T17:12:18Z</time>
      </trkpt>
      <trkpt lat="45.72547" lon="-0.95923">
        <ele>7.83</ele>
        <time>2013-07-20T17:12:19Z</time>
      </trkpt>
      <trkpt lat="45.72577" lon="-0.95789">
        <ele>7.35</ele>
        <time>2013-07-20T17:12:34Z</time>
      </trkpt>
      <trkpt lat="45.72572" lon="-0.9563">
        <ele>7.35</ele>
        <time>2013-07-20T17:12:50Z</time>
      </trkpt>
      <trkpt lat="45.72566" lon="-0.95489">
        <ele>8.31</ele>
        <time>2013-07-20T17:13:05Z</time>
      </trkpt>
      <trkpt lat="45.72557" lon="-0.95414">
        <ele>7.83</ele>
        <time>2013-07-20T17:13:14Z</time>
      </trkpt>
      <trkpt lat="45.72523" lon="-0.95281">
        <ele>7.35</ele>
        <time>2013-07-20T17:13:29Z</time>
      </trkpt>
      <trkpt lat="45.72476" lon="-0.95147">
        <ele>7.35</ele>
        <time>2013-07-20T17:13:44Z</time>
      </trkpt>
      <trkpt lat="45.72425" lon="-0.95039">
        <ele>7.35</ele>
        <time>2013-07-20T17:13:57Z</time>
      </trkpt>
      <trkpt lat="45.72407" lon="-0.94929">
        <ele>7.35</ele>
        <time>2013-07-20T17:14:08Z</time>
      </trkpt>
      <trkpt lat="45.72429" lon="-0.94818">
        <ele>6.87</ele>
        <time>2013-07-20T17:14:20Z</time>
      </trkpt>
      <trkpt lat="45.72433" lon="-0.9481">
        <ele>6.87</ele>
        <time>2013-07-20T17:14:21Z</time>
      </trkpt>
      <trkpt lat="45.72446" lon="-0.94786">
        <ele>6.87</ele>
        <time>2013-07-20T17:14:24Z</time>
      </trkpt>
      <trkpt lat="45.7252" lon="-0.94665">
        <ele>7.83</ele>
        <time>2013-07-20T17:14:40Z</time>
      </trkpt>
      <trkpt lat="45.7256" lon="-0.94543">
        <ele>7.35</ele>
        <time>2013-07-20T17:14:54Z</time>
      </trkpt>
      <trkpt lat="45.72562" lon="-0.94525">
        <ele>7.35</ele>
        <time>2013-07-20T17:14:56Z</time>
      </trkpt>
      <trkpt lat="45.72563" lon="-0.94516">
        <ele>6.87</ele>
        <time>2013-07-20T17:14:57Z</time>
      </trkpt>
      <trkpt lat="45.72564" lon="-0.94508">
        <ele>6.87</ele>
        <time>2013-07-20T17:14:58Z</time>
      </trkpt>
      <trkpt lat="45.72568" lon="-0.94492">
        <ele>6.87</ele>
        <time>2013-07-20T17:15:00Z</time>
      </trkpt>
      <trkpt lat="45.72571" lon="-0.94485">
        <ele>6.87</ele>
        <time>2013-07-20T17:15:01Z</time>
      </trkpt>
      <trkpt lat="45.72575" lon="-0.94479">
        <ele>6.87</ele>
        <time>2013-07-20T17:15:02Z</time>
      </trkpt>
      <trkpt lat="45.72601" lon="-0.94437">
        <ele>7.35</ele>
        <time>2013-07-20T17:15:09Z</time>
      </trkpt>
      <trkpt lat="45.72622" lon="-0.94398">
        <ele>7.83</ele>
        <time>2013-07-20T17:15:16Z</time>
      </trkpt>
      <trkpt lat="45.72626" lon="-0.94394">
        <ele>8.31</ele>
        <time>2013-07-20T17:15:17Z</time>
      </trkpt>
      <trkpt lat="45.7263" lon="-0.9439">
        <ele>8.31</ele>
        <time>2013-07-20T17:15:18Z</time>
      </trkpt>
      <trkpt lat="45.72635" lon="-0.94387">
        <ele>8.31</ele>
        <time>2013-07-20T17:15:19Z</time>
      </trkpt>
      <trkpt lat="45.72639" lon="-0.94384">
        <ele>8.31</ele>
        <time>2013-07-20T17:15:20Z</time>
      </trkpt>
      <trkpt lat="45.72643" lon="-0.94379">
        <ele>8.79</ele>
        <time>2013-07-20T17:15:21Z</time>
      </trkpt>
      <trkpt lat="45.72647" lon="-0.94374">
        <ele>9.27</ele>
        <time>2013-07-20T17:15:22Z</time>
      </trkpt>
      <trkpt lat="45.7265" lon="-0.94367">
        <ele>9.27</ele>
        <time>2013-07-20T17:15:23Z</time>
      </trkpt>
      <trkpt lat="45.72675" lon="-0.94324">
        <ele>9.27</ele>
        <time>2013-07-20T17:15:30Z</time>
      </trkpt>
      <trkpt lat="45.72736" lon="-0.94243">
        <ele>8.31</ele>
        <time>2013-07-20T17:15:43Z</time>
      </trkpt>
      <trkpt lat="45.72826" lon="-0.9413">
        <ele>8.79</ele>
        <time>2013-07-20T17:16:01Z</time>
      </trkpt>
      <trkpt lat="45.7283" lon="-0.94123">
        <ele>8.79</ele>
        <time>2013-07-20T17:16:02Z</time>
      </trkpt>
      <trkpt lat="45.72833" lon="-0.94116">
        <ele>8.79</ele>
        <time>2013-07-20T17:16:03Z</time>
      </trkpt>
      <trkpt lat="45.72888" lon="-0.94003">
        <ele>9.75</ele>
        <time>2013-07-20T17:16:18Z</time>
      </trkpt>
      <trkpt lat="45.7289" lon="-0.93994">
        <ele>9.75</ele>
        <time>2013-07-20T17:16:19Z</time>
      </trkpt>
      <trkpt lat="45.72892" lon="-0.93985">
        <ele>9.75</ele>
        <time>2013-07-20T17:16:20Z</time>
      </trkpt>
      <trkpt lat="45.72893" lon="-0.93914">
        <ele>10.71</ele>
        <time>2013-07-20T17:16:28Z</time>
      </trkpt>
      <trkpt lat="45.72885" lon="-0.9378">
        <ele>11.19</ele>
        <time>2013-07-20T17:16:44Z</time>
      </trkpt>
      <trkpt lat="45.72867" lon="-0.93613">
        <ele>12.63</ele>
        <time>2013-07-20T17:17:03Z</time>
      </trkpt>
      <trkpt lat="45.7286" lon="-0.93461">
        <ele>11.19</ele>
        <time>2013-07-20T17:17:19Z</time>
      </trkpt>
      <trkpt lat="45.72881" lon="-0.9329">
        <ele>11.67</ele>
        <time>2013-07-20T17:17:37Z</time>
      </trkpt>
      <trkpt lat="45.72918" lon="-0.93147">
        <ele>12.15</ele>
        <time>2013-07-20T17:17:53Z</time>
      </trkpt>
      <trkpt lat="45.72945" lon="-0.93023">
        <ele>11.19</ele>
        <time>2013-07-20T17:18:07Z</time>
      </trkpt>
      <trkpt lat="45.72975" lon="-0.92871">
        <ele>11.67</ele>
        <time>2013-07-20T17:18:24Z</time>
      </trkpt>
      <trkpt lat="45.7301" lon="-0.927">
        <ele>11.67</ele>
        <time>2013-07-20T17:18:42Z</time>
      </trkpt>
      <trkpt lat="45.73043" lon="-0.92534">
        <ele>12.63</ele>
        <time>2013-07-20T17:19:00Z</time>
      </trkpt>
      <trkpt lat="45.73075" lon="-0.92373">
        <ele>14.08</ele>
        <time>2013-07-20T17:19:18Z</time>
      </trkpt>
      <trkpt lat="45.73114" lon="-0.92181">
        <ele>15.52</ele>
        <time>2013-07-20T17:19:40Z</time>
      </trkpt>
      <trkpt lat="45.73138" lon="-0.92058">
        <ele>17.92</ele>
        <time>2013-07-20T17:19:56Z</time>
      </trkpt>
      <trkpt lat="45.73166" lon="-0.9192">
        <ele>18.88</ele>
        <time>2013-07-20T17:20:13Z</time>
      </trkpt>
      <trkpt lat="45.73206" lon="-0.91748">
        <ele>20.81</ele>
        <time>2013-07-20T17:20:34Z</time>
      </trkpt>
      <trkpt lat="45.7323" lon="-0.91676">
        <ele>20.81</ele>
        <time>2013-07-20T17:20:43Z</time>
      </trkpt>
      <trkpt lat="45.73279" lon="-0.91536">
        <ele>22.25</ele>
        <time>2013-07-20T17:21:00Z</time>
      </trkpt>
      <trkpt lat="45.73334" lon="-0.91383">
        <ele>23.21</ele>
        <time>2013-07-20T17:21:19Z</time>
      </trkpt>
      <trkpt lat="45.73354" lon="-0.91326">
        <ele>22.73</ele>
        <time>2013-07-20T17:21:27Z</time>
      </trkpt>
      <trkpt lat="45.7339" lon="-0.91226">
        <ele>23.21</ele>
        <time>2013-07-20T17:21:41Z</time>
      </trkpt>
      <trkpt lat="45.73449" lon="-0.9106">
        <ele>24.17</ele>
        <time>2013-07-20T17:22:02Z</time>
      </trkpt>
      <trkpt lat="45.73489" lon="-0.90947">
        <ele>24.65</ele>
        <time>2013-07-20T17:22:16Z</time>
      </trkpt>
      <trkpt lat="45.73533" lon="-0.90822">
        <ele>25.13</ele>
        <time>2013-07-20T17:22:32Z</time>
      </trkpt>
      <trkpt lat="45.73586" lon="-0.90675">
        <ele>24.17</ele>
        <time>2013-07-20T17:22:49Z</time>
      </trkpt>
      <trkpt lat="45.73644" lon="-0.90525">
        <ele>25.13</ele>
        <time>2013-07-20T17:23:06Z</time>
      </trkpt>
      <trkpt lat="45.73694" lon="-0.90401">
        <ele>26.57</ele>
        <time>2013-07-20T17:23:22Z</time>
      </trkpt>
      <trkpt lat="45.73747" lon="-0.90269">
        <ele>26.09</ele>
        <time>2013-07-20T17:23:38Z</time>
      </trkpt>
      <trkpt lat="45.73762" lon="-0.9023">
        <ele>25.13</ele>
        <time>2013-07-20T17:23:43Z</time>
      </trkpt>
      <trkpt lat="45.73763" lon="-0.90224">
        <ele>24.65</ele>
        <time>2013-07-20T17:23:44Z</time>
      </trkpt>
      <trkpt lat="45.73764" lon="-0.90219">
        <ele>24.65</ele>
        <time>2013-07-20T17:23:45Z</time>
      </trkpt>
      <trkpt lat="45.73765" lon="-0.90216">
        <ele>24.65</ele>
        <time>2013-07-20T17:23:46Z</time>
      </trkpt>
      <trkpt lat="45.73766" lon="-0.90214">
        <ele>24.17</ele>
        <time>2013-07-20T17:23:57Z</time>
      </trkpt>
      <trkpt lat="45.73768" lon="-0.90211">
        <ele>24.17</ele>
        <time>2013-07-20T17:24:21Z</time>
      </trkpt>
      <trkpt lat="45.73769" lon="-0.9021">
        <ele>24.65</ele>
        <time>2013-07-20T17:24:22Z</time>
      </trkpt>
      <trkpt lat="45.73774" lon="-0.90197">
        <ele>24.65</ele>
        <time>2013-07-20T17:24:38Z</time>
      </trkpt>
      <trkpt lat="45.73776" lon="-0.90196">
        <ele>24.65</ele>
        <time>2013-07-20T17:24:54Z</time>
      </trkpt>
      <trkpt lat="45.73777" lon="-0.90194">
        <ele>24.65</ele>
        <time>2013-07-20T17:24:55Z</time>
      </trkpt>
      <trkpt lat="45.73778" lon="-0.90192">
        <ele>24.65</ele>
        <time>2013-07-20T17:24:56Z</time>
      </trkpt>
      <trkpt lat="45.73779" lon="-0.90189">
        <ele>24.65</ele>
        <time>2013-07-20T17:24:57Z</time>
      </trkpt>
      <trkpt lat="45.7378" lon="-0.90186">
        <ele>24.65</ele>
        <time>2013-07-20T17:24:58Z</time>
      </trkpt>
      <trkpt lat="45.73791" lon="-0.90156">
        <ele>25.13</ele>
        <time>2013-07-20T17:25:05Z</time>
      </trkpt>
      <trkpt lat="45.73802" lon="-0.9013">
        <ele>25.13</ele>
        <time>2013-07-20T17:25:10Z</time>
      </trkpt>
      <trkpt lat="45.73843" lon="-0.90024">
        <ele>25.61</ele>
        <time>2013-07-20T17:25:27Z</time>
      </trkpt>
      <trkpt lat="45.73894" lon="-0.89899">
        <ele>25.13</ele>
        <time>2013-07-20T17:25:45Z</time>
      </trkpt>
      <trkpt lat="45.73907" lon="-0.89866">
        <ele>25.13</ele>
        <time>2013-07-20T17:25:50Z</time>
      </trkpt>
      <trkpt lat="45.73942" lon="-0.89776">
        <ele>26.09</ele>
        <time>2013-07-20T17:26:04Z</time>
      </trkpt>
      <trkpt lat="45.73985" lon="-0.89667">
        <ele>28.5</ele>
        <time>2013-07-20T17:26:22Z</time>
      </trkpt>
      <trkpt lat="45.74" lon="-0.89632">
        <ele>29.94</ele>
        <time>2013-07-20T17:26:28Z</time>
      </trkpt>
      <trkpt lat="45.74043" lon="-0.89522">
        <ele>30.9</ele>
        <time>2013-07-20T17:26:44Z</time>
      </trkpt>
      <trkpt lat="45.74103" lon="-0.89371">
        <ele>31.86</ele>
        <time>2013-07-20T17:27:03Z</time>
      </trkpt>
      <trkpt lat="45.74157" lon="-0.89238">
        <ele>31.38</ele>
        <time>2013-07-20T17:27:19Z</time>
      </trkpt>
      <trkpt lat="45.74229" lon="-0.89077">
        <ele>30.9</ele>
        <time>2013-07-20T17:27:37Z</time>
      </trkpt>
      <trkpt lat="45.74282" lon="-0.8896">
        <ele>31.38</ele>
        <time>2013-07-20T17:27:50Z</time>
      </trkpt>
      <trkpt lat="45.74329" lon="-0.88824">
        <ele>31.38</ele>
        <time>2013-07-20T17:28:05Z</time>
      </trkpt>
      <trkpt lat="45.74377" lon="-0.88689">
        <ele>30.9</ele>
        <time>2013-07-20T17:28:19Z</time>
      </trkpt>
      <trkpt lat="45.74467" lon="-0.88476">
        <ele>28.98</ele>
        <time>2013-07-20T17:28:41Z</time>
      </trkpt>
      <trkpt lat="45.74502" lon="-0.88355">
        <ele>27.53</ele>
        <time>2013-07-20T17:28:54Z</time>
      </trkpt>
      <trkpt lat="45.74505" lon="-0.88349">
        <ele>27.53</ele>
        <time>2013-07-20T17:28:55Z</time>
      </trkpt>
      <trkpt lat="45.74507" lon="-0.88344">
        <ele>27.05</ele>
        <time>2013-07-20T17:28:56Z</time>
      </trkpt>
      <trkpt lat="45.74508" lon="-0.88338">
        <ele>27.05</ele>
        <time>2013-07-20T17:28:57Z</time>
      </trkpt>
      <trkpt lat="45.74508" lon="-0.88331">
        <ele>27.53</ele>
        <time>2013-07-20T17:28:58Z</time>
      </trkpt>
      <trkpt lat="45.74506" lon="-0.88325">
        <ele>27.53</ele>
        <time>2013-07-20T17:28:59Z</time>
      </trkpt>
      <trkpt lat="45.74505" lon="-0.88317">
        <ele>27.53</ele>
        <time>2013-07-20T17:29:00Z</time>
      </trkpt>
      <trkpt lat="45.74504" lon="-0.8831">
        <ele>27.53</ele>
        <time>2013-07-20T17:29:01Z</time>
      </trkpt>
      <trkpt lat="45.74503" lon="-0.88302">
        <ele>27.53</ele>
        <time>2013-07-20T17:29:02Z</time>
      </trkpt>
      <trkpt lat="45.74502" lon="-0.88293">
        <ele>27.53</ele>
        <time>2013-07-20T17:29:03Z</time>
      </trkpt>
      <trkpt lat="45.74502" lon="-0.88285">
        <ele>27.05</ele>
        <time>2013-07-20T17:29:04Z</time>
      </trkpt>
      <trkpt lat="45.74505" lon="-0.88179">
        <ele>29.46</ele>
        <time>2013-07-20T17:29:18Z</time>
      </trkpt>
      <trkpt lat="45.74505" lon="-0.88172">
        <ele>29.94</ele>
        <time>2013-07-20T17:29:19Z</time>
      </trkpt>
      <trkpt lat="45.74496" lon="-0.88061">
        <ele>32.82</ele>
        <time>2013-07-20T17:29:34Z</time>
      </trkpt>
      <trkpt lat="45.74485" lon="-0.87951">
        <ele>32.82</ele>
        <time>2013-07-20T17:29:47Z</time>
      </trkpt>
      <trkpt lat="45.74479" lon="-0.87809">
        <ele>33.78</ele>
        <time>2013-07-20T17:30:03Z</time>
      </trkpt>
      <trkpt lat="45.74485" lon="-0.8766">
        <ele>35.23</ele>
        <time>2013-07-20T17:30:20Z</time>
      </trkpt>
      <trkpt lat="45.74492" lon="-0.87498">
        <ele>36.67</ele>
        <time>2013-07-20T17:30:39Z</time>
      </trkpt>
      <trkpt lat="45.74498" lon="-0.87368">
        <ele>37.15</ele>
        <time>2013-07-20T17:30:54Z</time>
      </trkpt>
      <trkpt lat="45.74504" lon="-0.87224">
        <ele>37.63</ele>
        <time>2013-07-20T17:31:10Z</time>
      </trkpt>
      <trkpt lat="45.74513" lon="-0.87047">
        <ele>38.59</ele>
        <time>2013-07-20T17:31:30Z</time>
      </trkpt>
      <trkpt lat="45.74512" lon="-0.86886">
        <ele>38.11</ele>
        <time>2013-07-20T17:31:47Z</time>
      </trkpt>
      <trkpt lat="45.74507" lon="-0.86839">
        <ele>38.11</ele>
        <time>2013-07-20T17:31:52Z</time>
      </trkpt>
      <trkpt lat="45.74477" lon="-0.86692">
        <ele>38.11</ele>
        <time>2013-07-20T17:32:08Z</time>
      </trkpt>
      <trkpt lat="45.74425" lon="-0.86516">
        <ele>38.59</ele>
        <time>2013-07-20T17:32:28Z</time>
      </trkpt>
      <trkpt lat="45.74377" lon="-0.86352">
        <ele>38.59</ele>
        <time>2013-07-20T17:32:46Z</time>
      </trkpt>
      <trkpt lat="45.74322" lon="-0.86169">
        <ele>38.11</ele>
        <time>2013-07-20T17:33:05Z</time>
      </trkpt>
      <trkpt lat="45.74285" lon="-0.85982">
        <ele>38.11</ele>
        <time>2013-07-20T17:33:25Z</time>
      </trkpt>
      <trkpt lat="45.74281" lon="-0.8578">
        <ele>38.11</ele>
        <time>2013-07-20T17:33:45Z</time>
      </trkpt>
      <trkpt lat="45.74285" lon="-0.85606">
        <ele>37.63</ele>
        <time>2013-07-20T17:34:02Z</time>
      </trkpt>
      <trkpt lat="45.74288" lon="-0.85431">
        <ele>38.59</ele>
        <time>2013-07-20T17:34:19Z</time>
      </trkpt>
      <trkpt lat="45.7429" lon="-0.85257">
        <ele>36.67</ele>
        <time>2013-07-20T17:34:36Z</time>
      </trkpt>
      <trkpt lat="45.74295" lon="-0.85069">
        <ele>35.71</ele>
        <time>2013-07-20T17:34:54Z</time>
      </trkpt>
      <trkpt lat="45.74297" lon="-0.84875">
        <ele>33.78</ele>
        <time>2013-07-20T17:35:12Z</time>
      </trkpt>
      <trkpt lat="45.74301" lon="-0.8467">
        <ele>33.78</ele>
        <time>2013-07-20T17:35:31Z</time>
      </trkpt>
      <trkpt lat="45.74293" lon="-0.84484">
        <ele>34.26</ele>
        <time>2013-07-20T17:35:51Z</time>
      </trkpt>
      <trkpt lat="45.74273" lon="-0.84304">
        <ele>33.3</ele>
        <time>2013-07-20T17:36:10Z</time>
      </trkpt>
      <trkpt lat="45.74246" lon="-0.8406">
        <ele>32.82</ele>
        <time>2013-07-20T17:36:33Z</time>
      </trkpt>
      <trkpt lat="45.7422" lon="-0.83849">
        <ele>28.98</ele>
        <time>2013-07-20T17:36:54Z</time>
      </trkpt>
      <trkpt lat="45.74219" lon="-0.83837">
        <ele>28.98</ele>
        <time>2013-07-20T17:36:55Z</time>
      </trkpt>
      <trkpt lat="45.74209" lon="-0.8375">
        <ele>29.46</ele>
        <time>2013-07-20T17:37:03Z</time>
      </trkpt>
      <trkpt lat="45.74196" lon="-0.8364">
        <ele>31.38</ele>
        <time>2013-07-20T17:37:16Z</time>
      </trkpt>
      <trkpt lat="45.74195" lon="-0.83633">
        <ele>31.86</ele>
        <time>2013-07-20T17:37:17Z</time>
      </trkpt>
      <trkpt lat="45.74177" lon="-0.83536">
        <ele>32.82</ele>
        <time>2013-07-20T17:37:31Z</time>
      </trkpt>
      <trkpt lat="45.74174" lon="-0.83529">
        <ele>33.3</ele>
        <time>2013-07-20T17:37:32Z</time>
      </trkpt>
      <trkpt lat="45.74125" lon="-0.83421">
        <ele>33.3</ele>
        <time>2013-07-20T17:37:48Z</time>
      </trkpt>
      <trkpt lat="45.74066" lon="-0.83295">
        <ele>33.3</ele>
        <time>2013-07-20T17:38:04Z</time>
      </trkpt>
      <trkpt lat="45.74001" lon="-0.83159">
        <ele>32.34</ele>
        <time>2013-07-20T17:38:21Z</time>
      </trkpt>
      <trkpt lat="45.73894" lon="-0.8257">
        <ele>36.67</ele>
        <time>2013-07-20T17:40:33Z</time>
      </trkpt>
      <trkpt lat="45.73893" lon="-0.82571">
        <ele>36.67</ele>
        <time>2013-07-20T17:40:34Z</time>
      </trkpt>
      <trkpt lat="45.73887" lon="-0.82573">
        <ele>36.67</ele>
        <time>2013-07-20T17:40:58Z</time>
      </trkpt>
      <trkpt lat="45.73888" lon="-0.82574">
        <ele>35.23</ele>
        <time>2013-07-20T17:41:01Z</time>
      </trkpt>
      <trkpt lat="45.73893" lon="-0.8258">
        <ele>31.86</ele>
        <time>2013-07-20T17:41:13Z</time>
      </trkpt>
      <trkpt lat="45.73893" lon="-0.82578">
        <ele>29.94</ele>
        <time>2013-07-20T17:41:21Z</time>
      </trkpt>
      <trkpt lat="45.73893" lon="-0.82571">
        <ele>29.94</ele>
        <time>2013-07-20T17:41:24Z</time>
      </trkpt>
      <trkpt lat="45.73892" lon="-0.82568">
        <ele>29.94</ele>
        <time>2013-07-20T17:41:25Z</time>
      </trkpt>
      <trkpt lat="45.73889" lon="-0.8256">
        <ele>29.46</ele>
        <time>2013-07-20T17:41:27Z</time>
      </trkpt>
      <trkpt lat="45.73868" lon="-0.82517">
        <ele>28.5</ele>
        <time>2013-07-20T17:41:38Z</time>
      </trkpt>
      <trkpt lat="45.73867" lon="-0.82514">
        <ele>28.5</ele>
        <time>2013-07-20T17:41:39Z</time>
      </trkpt>
      <trkpt lat="45.73867" lon="-0.82511">
        <ele>28.5</ele>
        <time>2013-07-20T17:41:40Z</time>
      </trkpt>
      <trkpt lat="45.73869" lon="-0.82509">
        <ele>28.5</ele>
        <time>2013-07-20T17:41:41Z</time>
      </trkpt>
      <trkpt lat="45.73871" lon="-0.82509">
        <ele>28.5</ele>
        <time>2013-07-20T17:41:42Z</time>
      </trkpt>
      <trkpt lat="45.73876" lon="-0.82516">
        <ele>28.02</ele>
        <time>2013-07-20T17:41:45Z</time>
      </trkpt>
      <trkpt lat="45.73877" lon="-0.8252">
        <ele>28.02</ele>
        <time>2013-07-20T17:41:46Z</time>
      </trkpt>
      <trkpt lat="45.73898" lon="-0.82563">
        <ele>27.05</ele>
        <time>2013-07-20T17:41:58Z</time>
      </trkpt>
      <trkpt lat="45.73904" lon="-0.82563">
        <ele>26.57</ele>
        <time>2013-07-20T17:42:00Z</time>
      </trkpt>
      <trkpt lat="45.73906" lon="-0.82561">
        <ele>26.09</ele>
        <time>2013-07-20T17:42:01Z</time>
      </trkpt>
      <trkpt lat="45.73909" lon="-0.82558">
        <ele>26.09</ele>
        <time>2013-07-20T17:42:02Z</time>
      </trkpt>
      <trkpt lat="45.73919" lon="-0.82548">
        <ele>25.61</ele>
        <time>2013-07-20T17:42:05Z</time>
      </trkpt>
      <trkpt lat="45.73952" lon="-0.82518">
        <ele>24.65</ele>
        <time>2013-07-20T17:42:13Z</time>
      </trkpt>
      <trkpt lat="45.74005" lon="-0.82457">
        <ele>24.17</ele>
        <time>2013-07-20T17:42:24Z</time>
      </trkpt>
      <trkpt lat="45.74011" lon="-0.82453">
        <ele>23.69</ele>
        <time>2013-07-20T17:42:25Z</time>
      </trkpt>
      <trkpt lat="45.74017" lon="-0.8245">
        <ele>23.69</ele>
        <time>2013-07-20T17:42:26Z</time>
      </trkpt>
      <trkpt lat="45.74031" lon="-0.82444">
        <ele>23.69</ele>
        <time>2013-07-20T17:42:28Z</time>
      </trkpt>
      <trkpt lat="45.74037" lon="-0.82439">
        <ele>23.69</ele>
        <time>2013-07-20T17:42:29Z</time>
      </trkpt>
      <trkpt lat="45.74041" lon="-0.82433">
        <ele>24.17</ele>
        <time>2013-07-20T17:42:30Z</time>
      </trkpt>
      <trkpt lat="45.74045" lon="-0.82425">
        <ele>24.17</ele>
        <time>2013-07-20T17:42:31Z</time>
      </trkpt>
      <trkpt lat="45.74047" lon="-0.82416">
        <ele>24.17</ele>
        <time>2013-07-20T17:42:32Z</time>
      </trkpt>
      <trkpt lat="45.74048" lon="-0.82407">
        <ele>23.69</ele>
        <time>2013-07-20T17:42:33Z</time>
      </trkpt>
      <trkpt lat="45.74049" lon="-0.82398">
        <ele>23.69</ele>
        <time>2013-07-20T17:42:34Z</time>
      </trkpt>
      <trkpt lat="45.7405" lon="-0.82388">
        <ele>23.69</ele>
        <time>2013-07-20T17:42:35Z</time>
      </trkpt>
      <trkpt lat="45.74069" lon="-0.82267">
        <ele>24.17</ele>
        <time>2013-07-20T17:42:49Z</time>
      </trkpt>
      <trkpt lat="45.74109" lon="-0.82177">
        <ele>25.13</ele>
        <time>2013-07-20T17:43:02Z</time>
      </trkpt>
      <trkpt lat="45.74143" lon="-0.8211">
        <ele>25.61</ele>
        <time>2013-07-20T17:43:12Z</time>
      </trkpt>
      <trkpt lat="45.74172" lon="-0.82036">
        <ele>26.57</ele>
        <time>2013-07-20T17:43:22Z</time>
      </trkpt>
      <trkpt lat="45.74205" lon="-0.81905">
        <ele>27.53</ele>
        <time>2013-07-20T17:43:38Z</time>
      </trkpt>
      <trkpt lat="45.74242" lon="-0.81797">
        <ele>28.98</ele>
        <time>2013-07-20T17:43:52Z</time>
      </trkpt>
      <trkpt lat="45.74248" lon="-0.81783">
        <ele>29.46</ele>
        <time>2013-07-20T17:43:54Z</time>
      </trkpt>
      <trkpt lat="45.74291" lon="-0.8171">
        <ele>32.34</ele>
        <time>2013-07-20T17:44:08Z</time>
      </trkpt>
      <trkpt lat="45.74349" lon="-0.81635">
        <ele>34.26</ele>
        <time>2013-07-20T17:44:25Z</time>
      </trkpt>
      <trkpt lat="45.74427" lon="-0.81555">
        <ele>34.26</ele>
        <time>2013-07-20T17:44:41Z</time>
      </trkpt>
      <trkpt lat="45.74491" lon="-0.81457">
        <ele>33.78</ele>
        <time>2013-07-20T17:44:56Z</time>
      </trkpt>
      <trkpt lat="45.74507" lon="-0.8143">
        <ele>33.3</ele>
        <time>2013-07-20T17:45:00Z</time>
      </trkpt>
      <trkpt lat="45.74512" lon="-0.81425">
        <ele>33.3</ele>
        <time>2013-07-20T17:45:01Z</time>
      </trkpt>
      <trkpt lat="45.74517" lon="-0.81421">
        <ele>33.3</ele>
        <time>2013-07-20T17:45:02Z</time>
      </trkpt>
      <trkpt lat="45.74522" lon="-0.81417">
        <ele>33.3</ele>
        <time>2013-07-20T17:45:03Z</time>
      </trkpt>
      <trkpt lat="45.74528" lon="-0.81413">
        <ele>33.3</ele>
        <time>2013-07-20T17:45:04Z</time>
      </trkpt>
      <trkpt lat="45.74533" lon="-0.8141">
        <ele>33.78</ele>
        <time>2013-07-20T17:45:05Z</time>
      </trkpt>
      <trkpt lat="45.74541" lon="-0.81401">
        <ele>33.78</ele>
        <time>2013-07-20T17:45:07Z</time>
      </trkpt>
      <trkpt lat="45.74544" lon="-0.81395">
        <ele>33.78</ele>
        <time>2013-07-20T17:45:08Z</time>
      </trkpt>
      <trkpt lat="45.74547" lon="-0.8139">
        <ele>33.78</ele>
        <time>2013-07-20T17:45:09Z</time>
      </trkpt>
      <trkpt lat="45.74548" lon="-0.81383">
        <ele>33.78</ele>
        <time>2013-07-20T17:45:10Z</time>
      </trkpt>
      <trkpt lat="45.74547" lon="-0.81377">
        <ele>33.78</ele>
        <time>2013-07-20T17:45:11Z</time>
      </trkpt>
      <trkpt lat="45.74546" lon="-0.81371">
        <ele>33.78</ele>
        <time>2013-07-20T17:45:12Z</time>
      </trkpt>
      <trkpt lat="45.74545" lon="-0.81365">
        <ele>33.78</ele>
        <time>2013-07-20T17:45:13Z</time>
      </trkpt>
      <trkpt lat="45.74543" lon="-0.81345">
        <ele>32.82</ele>
        <time>2013-07-20T17:45:18Z</time>
      </trkpt>
      <trkpt lat="45.74545" lon="-0.81342">
        <ele>32.82</ele>
        <time>2013-07-20T17:45:19Z</time>
      </trkpt>
      <trkpt lat="45.74548" lon="-0.8134">
        <ele>32.82</ele>
        <time>2013-07-20T17:45:20Z</time>
      </trkpt>
      <trkpt lat="45.74552" lon="-0.81338">
        <ele>33.3</ele>
        <time>2013-07-20T17:45:21Z</time>
      </trkpt>
      <trkpt lat="45.74556" lon="-0.81337">
        <ele>33.3</ele>
        <time>2013-07-20T17:45:22Z</time>
      </trkpt>
      <trkpt lat="45.74573" lon="-0.8133">
        <ele>34.26</ele>
        <time>2013-07-20T17:45:26Z</time>
      </trkpt>
      <trkpt lat="45.74593" lon="-0.81316">
        <ele>34.74</ele>
        <time>2013-07-20T17:45:31Z</time>
      </trkpt>
      <trkpt lat="45.74621" lon="-0.81289">
        <ele>36.19</ele>
        <time>2013-07-20T17:45:39Z</time>
      </trkpt>
      <trkpt lat="45.74623" lon="-0.81284">
        <ele>36.19</ele>
        <time>2013-07-20T17:45:40Z</time>
      </trkpt>
      <trkpt lat="45.74624" lon="-0.81279">
        <ele>36.19</ele>
        <time>2013-07-20T17:45:41Z</time>
      </trkpt>
      <trkpt lat="45.74623" lon="-0.81274">
        <ele>36.67</ele>
        <time>2013-07-20T17:45:42Z</time>
      </trkpt>
      <trkpt lat="45.74621" lon="-0.81269">
        <ele>36.19</ele>
        <time>2013-07-20T17:45:43Z</time>
      </trkpt>
      <trkpt lat="45.74619" lon="-0.81264">
        <ele>36.67</ele>
        <time>2013-07-20T17:45:44Z</time>
      </trkpt>
      <trkpt lat="45.74604" lon="-0.81207">
        <ele>36.19</ele>
        <time>2013-07-20T17:45:53Z</time>
      </trkpt>
      <trkpt lat="45.74604" lon="-0.81201">
        <ele>35.71</ele>
        <time>2013-07-20T17:45:54Z</time>
      </trkpt>
      <trkpt lat="45.74604" lon="-0.81197">
        <ele>35.71</ele>
        <time>2013-07-20T17:45:55Z</time>
      </trkpt>
      <trkpt lat="45.74606" lon="-0.81181">
        <ele>35.71</ele>
        <time>2013-07-20T17:45:58Z</time>
      </trkpt>
      <trkpt lat="45.74609" lon="-0.81176">
        <ele>35.71</ele>
        <time>2013-07-20T17:45:59Z</time>
      </trkpt>
      <trkpt lat="45.74612" lon="-0.81171">
        <ele>35.71</ele>
        <time>2013-07-20T17:46:00Z</time>
      </trkpt>
      <trkpt lat="45.74653" lon="-0.81118">
        <ele>36.67</ele>
        <time>2013-07-20T17:46:10Z</time>
      </trkpt>
      <trkpt lat="45.74719" lon="-0.81">
        <ele>37.15</ele>
        <time>2013-07-20T17:46:26Z</time>
      </trkpt>
      <trkpt lat="45.74784" lon="-0.80858">
        <ele>36.67</ele>
        <time>2013-07-20T17:46:43Z</time>
      </trkpt>
      <trkpt lat="45.74868" lon="-0.8071">
        <ele>36.19</ele>
        <time>2013-07-20T17:47:01Z</time>
      </trkpt>
      <trkpt lat="45.74946" lon="-0.80652">
        <ele>36.19</ele>
        <time>2013-07-20T17:47:13Z</time>
      </trkpt>
      <trkpt lat="45.75082" lon="-0.80582">
        <ele>34.74</ele>
        <time>2013-07-20T17:47:31Z</time>
      </trkpt>
      <trkpt lat="45.75189" lon="-0.80516">
        <ele>35.23</ele>
        <time>2013-07-20T17:47:47Z</time>
      </trkpt>
      <trkpt lat="45.75298" lon="-0.80419">
        <ele>33.3</ele>
        <time>2013-07-20T17:48:04Z</time>
      </trkpt>
      <trkpt lat="45.75414" lon="-0.80313">
        <ele>31.86</ele>
        <time>2013-07-20T17:48:21Z</time>
      </trkpt>
      <trkpt lat="45.75509" lon="-0.80269">
        <ele>29.94</ele>
        <time>2013-07-20T17:48:33Z</time>
      </trkpt>
      <trkpt lat="45.75649" lon="-0.80244">
        <ele>29.94</ele>
        <time>2013-07-20T17:48:51Z</time>
      </trkpt>
      <trkpt lat="45.7573" lon="-0.80173">
        <ele>30.42</ele>
        <time>2013-07-20T17:49:04Z</time>
      </trkpt>
      <trkpt lat="45.75796" lon="-0.80052">
        <ele>30.9</ele>
        <time>2013-07-20T17:49:19Z</time>
      </trkpt>
      <trkpt lat="45.75866" lon="-0.79894">
        <ele>32.34</ele>
        <time>2013-07-20T17:49:38Z</time>
      </trkpt>
      <trkpt lat="45.75923" lon="-0.79795">
        <ele>33.3</ele>
        <time>2013-07-20T17:49:53Z</time>
      </trkpt>
      <trkpt lat="45.75985" lon="-0.79717">
        <ele>33.3</ele>
        <time>2013-07-20T17:50:06Z</time>
      </trkpt>
      <trkpt lat="45.76077" lon="-0.79632">
        <ele>33.3</ele>
        <time>2013-07-20T17:50:22Z</time>
      </trkpt>
      <trkpt lat="45.76133" lon="-0.79529">
        <ele>32.82</ele>
        <time>2013-07-20T17:50:34Z</time>
      </trkpt>
      <trkpt lat="45.76189" lon="-0.79411">
        <ele>34.26</ele>
        <time>2013-07-20T17:50:49Z</time>
      </trkpt>
      <trkpt lat="45.7626" lon="-0.79291">
        <ele>32.34</ele>
        <time>2013-07-20T17:51:05Z</time>
      </trkpt>
      <trkpt lat="45.76358" lon="-0.79161">
        <ele>30.42</ele>
        <time>2013-07-20T17:51:22Z</time>
      </trkpt>
      <trkpt lat="45.76421" lon="-0.79097">
        <ele>30.42</ele>
        <time>2013-07-20T17:51:32Z</time>
      </trkpt>
      <trkpt lat="45.76528" lon="-0.79053">
        <ele>28.98</ele>
        <time>2013-07-20T17:51:47Z</time>
      </trkpt>
      <trkpt lat="45.7665" lon="-0.79007">
        <ele>27.53</ele>
        <time>2013-07-20T17:52:02Z</time>
      </trkpt>
      <trkpt lat="45.76756" lon="-0.78966">
        <ele>29.94</ele>
        <time>2013-07-20T17:52:18Z</time>
      </trkpt>
      <trkpt lat="45.76875" lon="-0.78948">
        <ele>27.53</ele>
        <time>2013-07-20T17:52:35Z</time>
      </trkpt>
      <trkpt lat="45.76971" lon="-0.789">
        <ele>26.57</ele>
        <time>2013-07-20T17:52:48Z</time>
      </trkpt>
      <trkpt lat="45.77019" lon="-0.78875">
        <ele>25.13</ele>
        <time>2013-07-20T17:52:54Z</time>
      </trkpt>
      <trkpt lat="45.77028" lon="-0.78874">
        <ele>24.65</ele>
        <time>2013-07-20T17:52:55Z</time>
      </trkpt>
      <trkpt lat="45.77036" lon="-0.78873">
        <ele>24.65</ele>
        <time>2013-07-20T17:52:56Z</time>
      </trkpt>
      <trkpt lat="45.77045" lon="-0.78873">
        <ele>23.69</ele>
        <time>2013-07-20T17:52:57Z</time>
      </trkpt>
      <trkpt lat="45.77054" lon="-0.78873">
        <ele>23.69</ele>
        <time>2013-07-20T17:52:58Z</time>
      </trkpt>
      <trkpt lat="45.7709" lon="-0.78874">
        <ele>21.77</ele>
        <time>2013-07-20T17:53:02Z</time>
      </trkpt>
      <trkpt lat="45.77208" lon="-0.78878">
        <ele>19.36</ele>
        <time>2013-07-20T17:53:15Z</time>
      </trkpt>
      <trkpt lat="45.77319" lon="-0.78881">
        <ele>18.88</ele>
        <time>2013-07-20T17:53:28Z</time>
      </trkpt>
      <trkpt lat="45.77327" lon="-0.78879">
        <ele>18.88</ele>
        <time>2013-07-20T17:53:29Z</time>
      </trkpt>
      <trkpt lat="45.77335" lon="-0.78875">
        <ele>18.88</ele>
        <time>2013-07-20T17:53:30Z</time>
      </trkpt>
      <trkpt lat="45.77342" lon="-0.7887">
        <ele>19.36</ele>
        <time>2013-07-20T17:53:31Z</time>
      </trkpt>
      <trkpt lat="45.77349" lon="-0.78862">
        <ele>19.84</ele>
        <time>2013-07-20T17:53:32Z</time>
      </trkpt>
      <trkpt lat="45.77354" lon="-0.78855">
        <ele>19.84</ele>
        <time>2013-07-20T17:53:33Z</time>
      </trkpt>
      <trkpt lat="45.77359" lon="-0.78847">
        <ele>19.84</ele>
        <time>2013-07-20T17:53:34Z</time>
      </trkpt>
      <trkpt lat="45.77363" lon="-0.78839">
        <ele>20.32</ele>
        <time>2013-07-20T17:53:35Z</time>
      </trkpt>
      <trkpt lat="45.77426" lon="-0.78758">
        <ele>22.25</ele>
        <time>2013-07-20T17:53:48Z</time>
      </trkpt>
      <trkpt lat="45.77455" lon="-0.78736">
        <ele>22.73</ele>
        <time>2013-07-20T17:53:53Z</time>
      </trkpt>
      <trkpt lat="45.77461" lon="-0.78733">
        <ele>22.73</ele>
        <time>2013-07-20T17:53:54Z</time>
      </trkpt>
      <trkpt lat="45.77538" lon="-0.78695">
        <ele>24.17</ele>
        <time>2013-07-20T17:54:07Z</time>
      </trkpt>
      <trkpt lat="45.77621" lon="-0.7866">
        <ele>25.13</ele>
        <time>2013-07-20T17:54:21Z</time>
      </trkpt>
      <trkpt lat="45.77699" lon="-0.78602">
        <ele>27.05</ele>
        <time>2013-07-20T17:54:36Z</time>
      </trkpt>
      <trkpt lat="45.77747" lon="-0.78566">
        <ele>27.05</ele>
        <time>2013-07-20T17:54:45Z</time>
      </trkpt>
      <trkpt lat="45.77834" lon="-0.78501">
        <ele>28.02</ele>
        <time>2013-07-20T17:55:01Z</time>
      </trkpt>
      <trkpt lat="45.7793" lon="-0.7843">
        <ele>28.5</ele>
        <time>2013-07-20T17:55:17Z</time>
      </trkpt>
      <trkpt lat="45.78013" lon="-0.78368">
        <ele>29.46</ele>
        <time>2013-07-20T17:55:32Z</time>
      </trkpt>
      <trkpt lat="45.78049" lon="-0.78339">
        <ele>30.42</ele>
        <time>2013-07-20T17:55:39Z</time>
      </trkpt>
      <trkpt lat="45.78071" lon="-0.78312">
        <ele>30.9</ele>
        <time>2013-07-20T17:55:44Z</time>
      </trkpt>
      <trkpt lat="45.78076" lon="-0.78298">
        <ele>30.9</ele>
        <time>2013-07-20T17:55:46Z</time>
      </trkpt>
      <trkpt lat="45.78078" lon="-0.7829">
        <ele>31.38</ele>
        <time>2013-07-20T17:55:47Z</time>
      </trkpt>
      <trkpt lat="45.78085" lon="-0.78178">
        <ele>31.86</ele>
        <time>2013-07-20T17:56:01Z</time>
      </trkpt>
      <trkpt lat="45.78087" lon="-0.78044">
        <ele>32.34</ele>
        <time>2013-07-20T17:56:17Z</time>
      </trkpt>
      <trkpt lat="45.78099" lon="-0.77917">
        <ele>32.82</ele>
        <time>2013-07-20T17:56:31Z</time>
      </trkpt>
      <trkpt lat="45.78102" lon="-0.77909">
        <ele>32.82</ele>
        <time>2013-07-20T17:56:32Z</time>
      </trkpt>
      <trkpt lat="45.78163" lon="-0.77784">
        <ele>31.38</ele>
        <time>2013-07-20T17:56:47Z</time>
      </trkpt>
      <trkpt lat="45.78203" lon="-0.77673">
        <ele>34.26</ele>
        <time>2013-07-20T17:57:01Z</time>
      </trkpt>
      <trkpt lat="45.78218" lon="-0.776">
        <ele>36.19</ele>
        <time>2013-07-20T17:57:11Z</time>
      </trkpt>
      <trkpt lat="45.78219" lon="-0.77592">
        <ele>35.71</ele>
        <time>2013-07-20T17:57:12Z</time>
      </trkpt>
      <trkpt lat="45.78246" lon="-0.77458">
        <ele>37.15</ele>
        <time>2013-07-20T17:57:30Z</time>
      </trkpt>
      <trkpt lat="45.78265" lon="-0.77378">
        <ele>38.11</ele>
        <time>2013-07-20T17:57:40Z</time>
      </trkpt>
      <trkpt lat="45.78268" lon="-0.77371">
        <ele>38.11</ele>
        <time>2013-07-20T17:57:41Z</time>
      </trkpt>
      <trkpt lat="45.78272" lon="-0.77364">
        <ele>38.11</ele>
        <time>2013-07-20T17:57:42Z</time>
      </trkpt>
      <trkpt lat="45.78276" lon="-0.77357">
        <ele>38.11</ele>
        <time>2013-07-20T17:57:43Z</time>
      </trkpt>
      <trkpt lat="45.7828" lon="-0.77352">
        <ele>38.59</ele>
        <time>2013-07-20T17:57:44Z</time>
      </trkpt>
      <trkpt lat="45.78344" lon="-0.77288">
        <ele>40.51</ele>
        <time>2013-07-20T17:57:58Z</time>
      </trkpt>
      <trkpt lat="45.78401" lon="-0.77235">
        <ele>42.92</ele>
        <time>2013-07-20T17:58:13Z</time>
      </trkpt>
      <trkpt lat="45.78435" lon="-0.77204">
        <ele>43.88</ele>
        <time>2013-07-20T17:58:22Z</time>
      </trkpt>
      <trkpt lat="45.78459" lon="-0.77182">
        <ele>44.84</ele>
        <time>2013-07-20T17:58:28Z</time>
      </trkpt>
      <trkpt lat="45.78463" lon="-0.77178">
        <ele>45.32</ele>
        <time>2013-07-20T17:58:29Z</time>
      </trkpt>
      <trkpt lat="45.78519" lon="-0.77109">
        <ele>46.76</ele>
        <time>2013-07-20T17:58:44Z</time>
      </trkpt>
      <trkpt lat="45.78568" lon="-0.77016">
        <ele>48.2</ele>
        <time>2013-07-20T17:59:00Z</time>
      </trkpt>
      <trkpt lat="45.78637" lon="-0.76937">
        <ele>48.68</ele>
        <time>2013-07-20T17:59:15Z</time>
      </trkpt>
      <trkpt lat="45.78729" lon="-0.76847">
        <ele>50.13</ele>
        <time>2013-07-20T17:59:33Z</time>
      </trkpt>
      <trkpt lat="45.78812" lon="-0.76765">
        <ele>51.09</ele>
        <time>2013-07-20T17:59:49Z</time>
      </trkpt>
      <trkpt lat="45.7888" lon="-0.76699">
        <ele>52.53</ele>
        <time>2013-07-20T18:00:02Z</time>
      </trkpt>
      <trkpt lat="45.78948" lon="-0.7663">
        <ele>51.09</ele>
        <time>2013-07-20T18:00:16Z</time>
      </trkpt>
      <trkpt lat="45.79024" lon="-0.76523">
        <ele>49.16</ele>
        <time>2013-07-20T18:00:33Z</time>
      </trkpt>
      <trkpt lat="45.79113" lon="-0.76387">
        <ele>45.8</ele>
        <time>2013-07-20T18:00:49Z</time>
      </trkpt>
      <trkpt lat="45.7919" lon="-0.76272">
        <ele>42.92</ele>
        <time>2013-07-20T18:01:02Z</time>
      </trkpt>
      <trkpt lat="45.79236" lon="-0.76199">
        <ele>41.47</ele>
        <time>2013-07-20T18:01:10Z</time>
      </trkpt>
      <trkpt lat="45.7924" lon="-0.76189">
        <ele>41.47</ele>
        <time>2013-07-20T18:01:11Z</time>
      </trkpt>
      <trkpt lat="45.79244" lon="-0.76178">
        <ele>41.47</ele>
        <time>2013-07-20T18:01:12Z</time>
      </trkpt>
      <trkpt lat="45.79246" lon="-0.76167">
        <ele>40.99</ele>
        <time>2013-07-20T18:01:13Z</time>
      </trkpt>
      <trkpt lat="45.79247" lon="-0.76155">
        <ele>41.47</ele>
        <time>2013-07-20T18:01:14Z</time>
      </trkpt>
      <trkpt lat="45.79247" lon="-0.76144">
        <ele>41.47</ele>
        <time>2013-07-20T18:01:15Z</time>
      </trkpt>
      <trkpt lat="45.79246" lon="-0.76133">
        <ele>41.47</ele>
        <time>2013-07-20T18:01:16Z</time>
      </trkpt>
      <trkpt lat="45.79245" lon="-0.76122">
        <ele>41.47</ele>
        <time>2013-07-20T18:01:17Z</time>
      </trkpt>
      <trkpt lat="45.79243" lon="-0.76111">
        <ele>41.47</ele>
        <time>2013-07-20T18:01:18Z</time>
      </trkpt>
      <trkpt lat="45.79238" lon="-0.76092">
        <ele>41.47</ele>
        <time>2013-07-20T18:01:20Z</time>
      </trkpt>
      <trkpt lat="45.79202" lon="-0.75952">
        <ele>41.47</ele>
        <time>2013-07-20T18:01:36Z</time>
      </trkpt>
      <trkpt lat="45.79205" lon="-0.75947">
        <ele>40.99</ele>
        <time>2013-07-20T18:01:37Z</time>
      </trkpt>
      <trkpt lat="45.79208" lon="-0.75943">
        <ele>40.99</ele>
        <time>2013-07-20T18:01:38Z</time>
      </trkpt>
      <trkpt lat="45.79212" lon="-0.7594">
        <ele>40.99</ele>
        <time>2013-07-20T18:01:39Z</time>
      </trkpt>
      <trkpt lat="45.79216" lon="-0.75936">
        <ele>40.99</ele>
        <time>2013-07-20T18:01:40Z</time>
      </trkpt>
      <trkpt lat="45.79221" lon="-0.75932">
        <ele>40.99</ele>
        <time>2013-07-20T18:01:41Z</time>
      </trkpt>
      <trkpt lat="45.7927" lon="-0.75885">
        <ele>40.51</ele>
        <time>2013-07-20T18:01:51Z</time>
      </trkpt>
      <trkpt lat="45.79279" lon="-0.75875">
        <ele>40.51</ele>
        <time>2013-07-20T18:01:53Z</time>
      </trkpt>
      <trkpt lat="45.79363" lon="-0.7579">
        <ele>38.59</ele>
        <time>2013-07-20T18:02:08Z</time>
      </trkpt>
      <trkpt lat="45.79374" lon="-0.75777">
        <ele>38.59</ele>
        <time>2013-07-20T18:02:10Z</time>
      </trkpt>
      <trkpt lat="45.79379" lon="-0.75769">
        <ele>38.59</ele>
        <time>2013-07-20T18:02:11Z</time>
      </trkpt>
      <trkpt lat="45.79384" lon="-0.75761">
        <ele>38.59</ele>
        <time>2013-07-20T18:02:12Z</time>
      </trkpt>
      <trkpt lat="45.79388" lon="-0.75752">
        <ele>38.59</ele>
        <time>2013-07-20T18:02:13Z</time>
      </trkpt>
      <trkpt lat="45.79392" lon="-0.75743">
        <ele>38.59</ele>
        <time>2013-07-20T18:02:14Z</time>
      </trkpt>
      <trkpt lat="45.79414" lon="-0.75678">
        <ele>37.63</ele>
        <time>2013-07-20T18:02:21Z</time>
      </trkpt>
      <trkpt lat="45.79419" lon="-0.75669">
        <ele>37.63</ele>
        <time>2013-07-20T18:02:22Z</time>
      </trkpt>
      <trkpt lat="45.79424" lon="-0.75662">
        <ele>37.63</ele>
        <time>2013-07-20T18:02:23Z</time>
      </trkpt>
      <trkpt lat="45.79431" lon="-0.75656">
        <ele>37.15</ele>
        <time>2013-07-20T18:02:24Z</time>
      </trkpt>
      <trkpt lat="45.79438" lon="-0.75651">
        <ele>36.67</ele>
        <time>2013-07-20T18:02:25Z</time>
      </trkpt>
      <trkpt lat="45.79446" lon="-0.75647">
        <ele>36.19</ele>
        <time>2013-07-20T18:02:26Z</time>
      </trkpt>
      <trkpt lat="45.79477" lon="-0.75626">
        <ele>34.26</ele>
        <time>2013-07-20T18:02:30Z</time>
      </trkpt>
      <trkpt lat="45.79483" lon="-0.75617">
        <ele>33.3</ele>
        <time>2013-07-20T18:02:31Z</time>
      </trkpt>
      <trkpt lat="45.79487" lon="-0.75607">
        <ele>32.82</ele>
        <time>2013-07-20T18:02:32Z</time>
      </trkpt>
      <trkpt lat="45.7949" lon="-0.75594">
        <ele>31.86</ele>
        <time>2013-07-20T18:02:33Z</time>
      </trkpt>
      <trkpt lat="45.79491" lon="-0.75581">
        <ele>31.86</ele>
        <time>2013-07-20T18:02:34Z</time>
      </trkpt>
      <trkpt lat="45.7949" lon="-0.75568">
        <ele>31.38</ele>
        <time>2013-07-20T18:02:35Z</time>
      </trkpt>
      <trkpt lat="45.79489" lon="-0.75554">
        <ele>30.9</ele>
        <time>2013-07-20T18:02:36Z</time>
      </trkpt>
      <trkpt lat="45.79473" lon="-0.75398">
        <ele>28.5</ele>
        <time>2013-07-20T18:02:48Z</time>
      </trkpt>
      <trkpt lat="45.79474" lon="-0.75386">
        <ele>28.02</ele>
        <time>2013-07-20T18:02:49Z</time>
      </trkpt>
      <trkpt lat="45.79475" lon="-0.75374">
        <ele>28.02</ele>
        <time>2013-07-20T18:02:50Z</time>
      </trkpt>
      <trkpt lat="45.79478" lon="-0.75362">
        <ele>27.53</ele>
        <time>2013-07-20T18:02:51Z</time>
      </trkpt>
      <trkpt lat="45.79482" lon="-0.75352">
        <ele>27.53</ele>
        <time>2013-07-20T18:02:52Z</time>
      </trkpt>
      <trkpt lat="45.79486" lon="-0.75343">
        <ele>28.02</ele>
        <time>2013-07-20T18:02:53Z</time>
      </trkpt>
      <trkpt lat="45.79491" lon="-0.75335">
        <ele>28.02</ele>
        <time>2013-07-20T18:02:54Z</time>
      </trkpt>
      <trkpt lat="45.79506" lon="-0.75316">
        <ele>29.46</ele>
        <time>2013-07-20T18:02:57Z</time>
      </trkpt>
      <trkpt lat="45.79555" lon="-0.75271">
        <ele>32.34</ele>
        <time>2013-07-20T18:03:09Z</time>
      </trkpt>
      <trkpt lat="45.79597" lon="-0.75233">
        <ele>35.23</ele>
        <time>2013-07-20T18:03:22Z</time>
      </trkpt>
      <trkpt lat="45.79638" lon="-0.7519">
        <ele>38.59</ele>
        <time>2013-07-20T18:03:36Z</time>
      </trkpt>
      <trkpt lat="45.79662" lon="-0.75134">
        <ele>41.47</ele>
        <time>2013-07-20T18:03:49Z</time>
      </trkpt>
      <trkpt lat="45.79682" lon="-0.75041">
        <ele>43.4</ele>
        <time>2013-07-20T18:04:06Z</time>
      </trkpt>
      <trkpt lat="45.79704" lon="-0.74932">
        <ele>44.84</ele>
        <time>2013-07-20T18:04:23Z</time>
      </trkpt>
      <trkpt lat="45.79714" lon="-0.74808">
        <ele>45.8</ele>
        <time>2013-07-20T18:04:39Z</time>
      </trkpt>
      <trkpt lat="45.79726" lon="-0.7476">
        <ele>45.8</ele>
        <time>2013-07-20T18:04:45Z</time>
      </trkpt>
      <trkpt lat="45.79795" lon="-0.74652">
        <ele>46.76</ele>
        <time>2013-07-20T18:05:01Z</time>
      </trkpt>
      <trkpt lat="45.79847" lon="-0.746">
        <ele>47.72</ele>
        <time>2013-07-20T18:05:11Z</time>
      </trkpt>
      <trkpt lat="45.79947" lon="-0.74536">
        <ele>48.2</ele>
        <time>2013-07-20T18:05:28Z</time>
      </trkpt>
      <trkpt lat="45.79952" lon="-0.74531">
        <ele>48.2</ele>
        <time>2013-07-20T18:05:29Z</time>
      </trkpt>
      <trkpt lat="45.79957" lon="-0.74525">
        <ele>48.2</ele>
        <time>2013-07-20T18:05:30Z</time>
      </trkpt>
      <trkpt lat="45.80002" lon="-0.74435">
        <ele>48.2</ele>
        <time>2013-07-20T18:05:43Z</time>
      </trkpt>
      <trkpt lat="45.80006" lon="-0.74421">
        <ele>48.68</ele>
        <time>2013-07-20T18:05:45Z</time>
      </trkpt>
      <trkpt lat="45.80028" lon="-0.74378">
        <ele>48.68</ele>
        <time>2013-07-20T18:05:53Z</time>
      </trkpt>
      <trkpt lat="45.80079" lon="-0.74289">
        <ele>48.2</ele>
        <time>2013-07-20T18:06:06Z</time>
      </trkpt>
      <trkpt lat="45.80159" lon="-0.74126">
        <ele>47.24</ele>
        <time>2013-07-20T18:06:25Z</time>
      </trkpt>
      <trkpt lat="45.80249" lon="-0.73943">
        <ele>46.28</ele>
        <time>2013-07-20T18:06:45Z</time>
      </trkpt>
      <trkpt lat="45.80278" lon="-0.7389">
        <ele>47.24</ele>
        <time>2013-07-20T18:06:52Z</time>
      </trkpt>
      <trkpt lat="45.80283" lon="-0.73883">
        <ele>47.24</ele>
        <time>2013-07-20T18:06:53Z</time>
      </trkpt>
      <trkpt lat="45.80289" lon="-0.73877">
        <ele>47.24</ele>
        <time>2013-07-20T18:06:54Z</time>
      </trkpt>
      <trkpt lat="45.80384" lon="-0.73809">
        <ele>47.72</ele>
        <time>2013-07-20T18:07:09Z</time>
      </trkpt>
      <trkpt lat="45.80459" lon="-0.73711">
        <ele>49.16</ele>
        <time>2013-07-20T18:07:24Z</time>
      </trkpt>
      <trkpt lat="45.80512" lon="-0.73636">
        <ele>49.16</ele>
        <time>2013-07-20T18:07:37Z</time>
      </trkpt>
      <trkpt lat="45.80618" lon="-0.735">
        <ele>50.13</ele>
        <time>2013-07-20T18:07:59Z</time>
      </trkpt>
      <trkpt lat="45.80705" lon="-0.73424">
        <ele>50.13</ele>
        <time>2013-07-20T18:08:15Z</time>
      </trkpt>
      <trkpt lat="45.80791" lon="-0.73374">
        <ele>47.24</ele>
        <time>2013-07-20T18:08:28Z</time>
      </trkpt>
      <trkpt lat="45.80897" lon="-0.73354">
        <ele>43.88</ele>
        <time>2013-07-20T18:08:42Z</time>
      </trkpt>
      <trkpt lat="45.80968" lon="-0.73335">
        <ele>40.51</ele>
        <time>2013-07-20T18:08:50Z</time>
      </trkpt>
      <trkpt lat="45.8106" lon="-0.73299">
        <ele>38.59</ele>
        <time>2013-07-20T18:09:00Z</time>
      </trkpt>
      <trkpt lat="45.81068" lon="-0.73293">
        <ele>38.59</ele>
        <time>2013-07-20T18:09:01Z</time>
      </trkpt>
      <trkpt lat="45.81148" lon="-0.73204">
        <ele>35.23</ele>
        <time>2013-07-20T18:09:12Z</time>
      </trkpt>
      <trkpt lat="45.81221" lon="-0.7311">
        <ele>32.34</ele>
        <time>2013-07-20T18:09:23Z</time>
      </trkpt>
      <trkpt lat="45.81254" lon="-0.73052">
        <ele>31.38</ele>
        <time>2013-07-20T18:09:30Z</time>
      </trkpt>
      <trkpt lat="45.81262" lon="-0.73037">
        <ele>31.86</ele>
        <time>2013-07-20T18:09:32Z</time>
      </trkpt>
      <trkpt lat="45.81265" lon="-0.7303">
        <ele>31.86</ele>
        <time>2013-07-20T18:09:33Z</time>
      </trkpt>
      <trkpt lat="45.81269" lon="-0.73022">
        <ele>32.34</ele>
        <time>2013-07-20T18:09:34Z</time>
      </trkpt>
      <trkpt lat="45.81288" lon="-0.72982">
        <ele>33.78</ele>
        <time>2013-07-20T18:09:40Z</time>
      </trkpt>
      <trkpt lat="45.81336" lon="-0.72912">
        <ele>36.67</ele>
        <time>2013-07-20T18:09:54Z</time>
      </trkpt>
      <trkpt lat="45.8139" lon="-0.72855">
        <ele>39.55</ele>
        <time>2013-07-20T18:10:08Z</time>
      </trkpt>
      <trkpt lat="45.81445" lon="-0.72797">
        <ele>42.92</ele>
        <time>2013-07-20T18:10:24Z</time>
      </trkpt>
      <trkpt lat="45.81496" lon="-0.72745">
        <ele>45.32</ele>
        <time>2013-07-20T18:10:39Z</time>
      </trkpt>
      <trkpt lat="45.81499" lon="-0.72741">
        <ele>45.8</ele>
        <time>2013-07-20T18:10:40Z</time>
      </trkpt>
      <trkpt lat="45.81503" lon="-0.72737">
        <ele>45.8</ele>
        <time>2013-07-20T18:10:41Z</time>
      </trkpt>
      <trkpt lat="45.81507" lon="-0.72733">
        <ele>45.8</ele>
        <time>2013-07-20T18:10:42Z</time>
      </trkpt>
      <trkpt lat="45.81511" lon="-0.72729">
        <ele>45.8</ele>
        <time>2013-07-20T18:10:43Z</time>
      </trkpt>
      <trkpt lat="45.81515" lon="-0.72725">
        <ele>46.28</ele>
        <time>2013-07-20T18:10:44Z</time>
      </trkpt>
      <trkpt lat="45.81529" lon="-0.7271">
        <ele>46.28</ele>
        <time>2013-07-20T18:10:48Z</time>
      </trkpt>
      <trkpt lat="45.81594" lon="-0.72651">
        <ele>46.76</ele>
        <time>2013-07-20T18:11:04Z</time>
      </trkpt>
      <trkpt lat="45.81671" lon="-0.72581">
        <ele>44.36</ele>
        <time>2013-07-20T18:11:19Z</time>
      </trkpt>
      <trkpt lat="45.81742" lon="-0.72495">
        <ele>45.32</ele>
        <time>2013-07-20T18:11:34Z</time>
      </trkpt>
      <trkpt lat="45.81811" lon="-0.72413">
        <ele>47.72</ele>
        <time>2013-07-20T18:11:50Z</time>
      </trkpt>
      <trkpt lat="45.81881" lon="-0.72328">
        <ele>47.72</ele>
        <time>2013-07-20T18:12:06Z</time>
      </trkpt>
      <trkpt lat="45.81949" lon="-0.72248">
        <ele>45.32</ele>
        <time>2013-07-20T18:12:20Z</time>
      </trkpt>
      <trkpt lat="45.82015" lon="-0.72168">
        <ele>41.47</ele>
        <time>2013-07-20T18:12:31Z</time>
      </trkpt>
      <trkpt lat="45.82029" lon="-0.72152">
        <ele>40.99</ele>
        <time>2013-07-20T18:12:33Z</time>
      </trkpt>
      <trkpt lat="45.82078" lon="-0.72094">
        <ele>37.63</ele>
        <time>2013-07-20T18:12:40Z</time>
      </trkpt>
      <trkpt lat="45.82166" lon="-0.71988">
        <ele>38.59</ele>
        <time>2013-07-20T18:12:54Z</time>
      </trkpt>
      <trkpt lat="45.82244" lon="-0.71894">
        <ele>40.03</ele>
        <time>2013-07-20T18:13:10Z</time>
      </trkpt>
      <trkpt lat="45.82315" lon="-0.71809">
        <ele>40.03</ele>
        <time>2013-07-20T18:13:24Z</time>
      </trkpt>
      <trkpt lat="45.82389" lon="-0.71694">
        <ele>40.03</ele>
        <time>2013-07-20T18:13:40Z</time>
      </trkpt>
      <trkpt lat="45.8244" lon="-0.71565">
        <ele>40.51</ele>
        <time>2013-07-20T18:13:56Z</time>
      </trkpt>
      <trkpt lat="45.82483" lon="-0.71449">
        <ele>37.15</ele>
        <time>2013-07-20T18:14:07Z</time>
      </trkpt>
      <trkpt lat="45.82534" lon="-0.71325">
        <ele>34.26</ele>
        <time>2013-07-20T18:14:18Z</time>
      </trkpt>
      <trkpt lat="45.82613" lon="-0.7116">
        <ele>30.9</ele>
        <time>2013-07-20T18:14:33Z</time>
      </trkpt>
      <trkpt lat="45.82695" lon="-0.7099">
        <ele>31.86</ele>
        <time>2013-07-20T18:14:49Z</time>
      </trkpt>
      <trkpt lat="45.82761" lon="-0.70838">
        <ele>32.82</ele>
        <time>2013-07-20T18:15:06Z</time>
      </trkpt>
      <trkpt lat="45.82829" lon="-0.70721">
        <ele>31.38</ele>
        <time>2013-07-20T18:15:20Z</time>
      </trkpt>
      <trkpt lat="45.82946" lon="-0.70581">
        <ele>30.9</ele>
        <time>2013-07-20T18:15:39Z</time>
      </trkpt>
      <trkpt lat="45.83039" lon="-0.70511">
        <ele>29.46</ele>
        <time>2013-07-20T18:15:53Z</time>
      </trkpt>
      <trkpt lat="45.83053" lon="-0.70506">
        <ele>28.5</ele>
        <time>2013-07-20T18:15:55Z</time>
      </trkpt>
      <trkpt lat="45.83094" lon="-0.70483">
        <ele>28.02</ele>
        <time>2013-07-20T18:16:01Z</time>
      </trkpt>
      <trkpt lat="45.83099" lon="-0.70477">
        <ele>27.53</ele>
        <time>2013-07-20T18:16:02Z</time>
      </trkpt>
      <trkpt lat="45.83105" lon="-0.70471">
        <ele>27.53</ele>
        <time>2013-07-20T18:16:03Z</time>
      </trkpt>
      <trkpt lat="45.8311" lon="-0.70463">
        <ele>27.53</ele>
        <time>2013-07-20T18:16:04Z</time>
      </trkpt>
      <trkpt lat="45.83114" lon="-0.70456">
        <ele>28.02</ele>
        <time>2013-07-20T18:16:05Z</time>
      </trkpt>
      <trkpt lat="45.83172" lon="-0.70326">
        <ele>27.53</ele>
        <time>2013-07-20T18:16:19Z</time>
      </trkpt>
      <trkpt lat="45.8318" lon="-0.70306">
        <ele>27.53</ele>
        <time>2013-07-20T18:16:21Z</time>
      </trkpt>
      <trkpt lat="45.83183" lon="-0.70295">
        <ele>27.05</ele>
        <time>2013-07-20T18:16:22Z</time>
      </trkpt>
      <trkpt lat="45.83185" lon="-0.70284">
        <ele>27.05</ele>
        <time>2013-07-20T18:16:23Z</time>
      </trkpt>
      <trkpt lat="45.83186" lon="-0.70272">
        <ele>27.05</ele>
        <time>2013-07-20T18:16:24Z</time>
      </trkpt>
      <trkpt lat="45.83186" lon="-0.70261">
        <ele>27.05</ele>
        <time>2013-07-20T18:16:25Z</time>
      </trkpt>
      <trkpt lat="45.83186" lon="-0.70251">
        <ele>27.05</ele>
        <time>2013-07-20T18:16:26Z</time>
      </trkpt>
      <trkpt lat="45.83185" lon="-0.7024">
        <ele>26.09</ele>
        <time>2013-07-20T18:16:27Z</time>
      </trkpt>
      <trkpt lat="45.8317" lon="-0.70091">
        <ele>23.69</ele>
        <time>2013-07-20T18:16:40Z</time>
      </trkpt>
      <trkpt lat="45.83171" lon="-0.70078">
        <ele>23.21</ele>
        <time>2013-07-20T18:16:41Z</time>
      </trkpt>
      <trkpt lat="45.83172" lon="-0.70065">
        <ele>22.73</ele>
        <time>2013-07-20T18:16:42Z</time>
      </trkpt>
      <trkpt lat="45.83175" lon="-0.70053">
        <ele>22.25</ele>
        <time>2013-07-20T18:16:43Z</time>
      </trkpt>
      <trkpt lat="45.83178" lon="-0.70041">
        <ele>21.77</ele>
        <time>2013-07-20T18:16:44Z</time>
      </trkpt>
      <trkpt lat="45.83181" lon="-0.70029">
        <ele>21.77</ele>
        <time>2013-07-20T18:16:45Z</time>
      </trkpt>
      <trkpt lat="45.83185" lon="-0.70018">
        <ele>21.29</ele>
        <time>2013-07-20T18:16:46Z</time>
      </trkpt>
      <trkpt lat="45.83194" lon="-0.69996">
        <ele>21.77</ele>
        <time>2013-07-20T18:16:48Z</time>
      </trkpt>
      <trkpt lat="45.83277" lon="-0.69833">
        <ele>18.88</ele>
        <time>2013-07-20T18:17:04Z</time>
      </trkpt>
      <trkpt lat="45.83345" lon="-0.69664">
        <ele>16.96</ele>
        <time>2013-07-20T18:17:20Z</time>
      </trkpt>
      <trkpt lat="45.83399" lon="-0.69525">
        <ele>17.92</ele>
        <time>2013-07-20T18:17:35Z</time>
      </trkpt>
      <trkpt lat="45.83439" lon="-0.69434">
        <ele>18.4</ele>
        <time>2013-07-20T18:17:48Z</time>
      </trkpt>
      <trkpt lat="45.83442" lon="-0.69428">
        <ele>18.4</ele>
        <time>2013-07-20T18:17:49Z</time>
      </trkpt>
      <trkpt lat="45.83445" lon="-0.69422">
        <ele>18.4</ele>
        <time>2013-07-20T18:17:50Z</time>
      </trkpt>
      <trkpt lat="45.83447" lon="-0.69416">
        <ele>18.4</ele>
        <time>2013-07-20T18:17:51Z</time>
      </trkpt>
      <trkpt lat="45.83448" lon="-0.69409">
        <ele>18.4</ele>
        <time>2013-07-20T18:17:52Z</time>
      </trkpt>
      <trkpt lat="45.8345" lon="-0.69402">
        <ele>18.4</ele>
        <time>2013-07-20T18:17:53Z</time>
      </trkpt>
      <trkpt lat="45.83465" lon="-0.69292">
        <ele>19.84</ele>
        <time>2013-07-20T18:18:07Z</time>
      </trkpt>
      <trkpt lat="45.83482" lon="-0.69155">
        <ele>21.29</ele>
        <time>2013-07-20T18:18:23Z</time>
      </trkpt>
      <trkpt lat="45.83485" lon="-0.69031">
        <ele>18.88</ele>
        <time>2013-07-20T18:18:37Z</time>
      </trkpt>
      <trkpt lat="45.83481" lon="-0.68901">
        <ele>19.84</ele>
        <time>2013-07-20T18:18:51Z</time>
      </trkpt>
      <trkpt lat="45.83477" lon="-0.68746">
        <ele>19.36</ele>
        <time>2013-07-20T18:19:07Z</time>
      </trkpt>
      <trkpt lat="45.83484" lon="-0.68601">
        <ele>18.88</ele>
        <time>2013-07-20T18:19:22Z</time>
      </trkpt>
      <trkpt lat="45.8349" lon="-0.68546">
        <ele>17.92</ele>
        <time>2013-07-20T18:19:29Z</time>
      </trkpt>
      <trkpt lat="45.83492" lon="-0.68545">
        <ele>16.96</ele>
        <time>2013-07-20T18:19:30Z</time>
      </trkpt>
      <trkpt lat="45.83494" lon="-0.68547">
        <ele>16.96</ele>
        <time>2013-07-20T18:19:31Z</time>
      </trkpt>
      <trkpt lat="45.83495" lon="-0.68551">
        <ele>16.96</ele>
        <time>2013-07-20T18:19:32Z</time>
      </trkpt>
      <trkpt lat="45.83496" lon="-0.68555">
        <ele>16.96</ele>
        <time>2013-07-20T18:19:33Z</time>
      </trkpt>
      <trkpt lat="45.83496" lon="-0.68559">
        <ele>16.96</ele>
        <time>2013-07-20T18:19:34Z</time>
      </trkpt>
      <trkpt lat="45.83496" lon="-0.68563">
        <ele>16.96</ele>
        <time>2013-07-20T18:19:35Z</time>
      </trkpt>
      <trkpt lat="45.83496" lon="-0.68566">
        <ele>16.96</ele>
        <time>2013-07-20T18:19:36Z</time>
      </trkpt>
      <trkpt lat="45.83492" lon="-0.68572">
        <ele>16.96</ele>
        <time>2013-07-20T18:19:42Z</time>
      </trkpt>
      <trkpt lat="45.83487" lon="-0.68567">
        <ele>17.44</ele>
        <time>2013-07-20T18:19:46Z</time>
      </trkpt>
      <trkpt lat="45.83486" lon="-0.68563">
        <ele>17.44</ele>
        <time>2013-07-20T18:19:47Z</time>
      </trkpt>
      <trkpt lat="45.83487" lon="-0.68559">
        <ele>17.44</ele>
        <time>2013-07-20T18:19:48Z</time>
      </trkpt>
      <trkpt lat="45.83488" lon="-0.68554">
        <ele>17.44</ele>
        <time>2013-07-20T18:19:49Z</time>
      </trkpt>
      <trkpt lat="45.83489" lon="-0.68548">
        <ele>17.44</ele>
        <time>2013-07-20T18:19:50Z</time>
      </trkpt>
      <trkpt lat="45.8349" lon="-0.68535">
        <ele>17.92</ele>
        <time>2013-07-20T18:19:52Z</time>
      </trkpt>
      <trkpt lat="45.83492" lon="-0.68502">
        <ele>17.44</ele>
        <time>2013-07-20T18:19:56Z</time>
      </trkpt>
      <trkpt lat="45.83499" lon="-0.6837">
        <ele>17.92</ele>
        <time>2013-07-20T18:20:11Z</time>
      </trkpt>
      <trkpt lat="45.83508" lon="-0.68258">
        <ele>14.56</ele>
        <time>2013-07-20T18:20:23Z</time>
      </trkpt>
      <trkpt lat="45.83512" lon="-0.682">
        <ele>14.56</ele>
        <time>2013-07-20T18:20:29Z</time>
      </trkpt>
      <trkpt lat="45.83512" lon="-0.68191">
        <ele>14.56</ele>
        <time>2013-07-20T18:20:30Z</time>
      </trkpt>
      <trkpt lat="45.83512" lon="-0.68174">
        <ele>14.56</ele>
        <time>2013-07-20T18:20:32Z</time>
      </trkpt>
      <trkpt lat="45.83512" lon="-0.68166">
        <ele>14.56</ele>
        <time>2013-07-20T18:20:33Z</time>
      </trkpt>
      <trkpt lat="45.83509" lon="-0.68128">
        <ele>13.6</ele>
        <time>2013-07-20T18:20:38Z</time>
      </trkpt>
      <trkpt lat="45.83508" lon="-0.68121">
        <ele>13.6</ele>
        <time>2013-07-20T18:20:39Z</time>
      </trkpt>
      <trkpt lat="45.83501" lon="-0.68082">
        <ele>13.12</ele>
        <time>2013-07-20T18:20:44Z</time>
      </trkpt>
      <trkpt lat="45.835" lon="-0.68065">
        <ele>13.12</ele>
        <time>2013-07-20T18:20:46Z</time>
      </trkpt>
      <trkpt lat="45.83493" lon="-0.68003">
        <ele>11.19</ele>
        <time>2013-07-20T18:20:56Z</time>
      </trkpt>
      <trkpt lat="45.83491" lon="-0.67979">
        <ele>10.71</ele>
        <time>2013-07-20T18:21:00Z</time>
      </trkpt>
      <trkpt lat="45.83487" lon="-0.67939">
        <ele>10.23</ele>
        <time>2013-07-20T18:21:06Z</time>
      </trkpt>
      <trkpt lat="45.83488" lon="-0.67932">
        <ele>10.23</ele>
        <time>2013-07-20T18:21:07Z</time>
      </trkpt>
      <trkpt lat="45.8349" lon="-0.67918">
        <ele>9.27</ele>
        <time>2013-07-20T18:21:09Z</time>
      </trkpt>
      <trkpt lat="45.83491" lon="-0.6791">
        <ele>9.27</ele>
        <time>2013-07-20T18:21:10Z</time>
      </trkpt>
      <trkpt lat="45.83493" lon="-0.67904">
        <ele>8.79</ele>
        <time>2013-07-20T18:21:11Z</time>
      </trkpt>
      <trkpt lat="45.83495" lon="-0.67899">
        <ele>8.79</ele>
        <time>2013-07-20T18:21:12Z</time>
      </trkpt>
      <trkpt lat="45.83497" lon="-0.67894">
        <ele>8.31</ele>
        <time>2013-07-20T18:21:13Z</time>
      </trkpt>
      <trkpt lat="45.83498" lon="-0.67891">
        <ele>8.31</ele>
        <time>2013-07-20T18:21:14Z</time>
      </trkpt>
      <trkpt lat="45.835" lon="-0.67888">
        <ele>8.31</ele>
        <time>2013-07-20T18:21:15Z</time>
      </trkpt>
      <trkpt lat="45.83501" lon="-0.67885">
        <ele>7.83</ele>
        <time>2013-07-20T18:21:16Z</time>
      </trkpt>
      <trkpt lat="45.83527" lon="-0.67838">
        <ele>6.87</ele>
        <time>2013-07-20T18:21:30Z</time>
      </trkpt>
      <trkpt lat="45.83538" lon="-0.67818">
        <ele>4.94</ele>
        <time>2013-07-20T18:21:43Z</time>
      </trkpt>
      <trkpt lat="45.83554" lon="-0.67805">
        <ele>3.98</ele>
        <time>2013-07-20T18:21:55Z</time>
      </trkpt>
      <trkpt lat="45.83582" lon="-0.67817">
        <ele>2.06</ele>
        <time>2013-07-20T18:22:07Z</time>
      </trkpt>
      <trkpt lat="45.83582" lon="-0.67818">
        <ele>2.54</ele>
        <time>2013-07-20T18:22:22Z</time>
      </trkpt>
      <trkpt lat="45.83579" lon="-0.67821">
        <ele>2.54</ele>
        <time>2013-07-20T18:22:50Z</time>
      </trkpt>
      <trkpt lat="45.83578" lon="-0.67818">
        <ele>2.06</ele>
        <time>2013-07-20T18:22:55Z</time>
      </trkpt>
      <trkpt lat="45.83577" lon="-0.67817">
        <ele>2.54</ele>
        <time>2013-07-20T18:22:56Z</time>
      </trkpt>
      <trkpt lat="45.83576" lon="-0.67816">
        <ele>2.54</ele>
        <time>2013-07-20T18:22:57Z</time>
      </trkpt>
      <trkpt lat="45.83575" lon="-0.67814">
        <ele>2.54</ele>
        <time>2013-07-20T18:22:58Z</time>
      </trkpt>
      <trkpt lat="45.83573" lon="-0.67813">
        <ele>2.54</ele>
        <time>2013-07-20T18:22:59Z</time>
      </trkpt>
      <trkpt lat="45.83571" lon="-0.67812">
        <ele>2.54</ele>
        <time>2013-07-20T18:23:00Z</time>
      </trkpt>
      <trkpt lat="45.83569" lon="-0.6781">
        <ele>2.54</ele>
        <time>2013-07-20T18:23:01Z</time>
      </trkpt>
      <trkpt lat="45.83546" lon="-0.6781">
        <ele>3.98</ele>
        <time>2013-07-20T18:23:13Z</time>
      </trkpt>
      <trkpt lat="45.83517" lon="-0.67856">
        <ele>6.87</ele>
        <time>2013-07-20T18:23:31Z</time>
      </trkpt>
      <trkpt lat="45.83502" lon="-0.67888">
        <ele>8.31</ele>
        <time>2013-07-20T18:23:44Z</time>
      </trkpt>
      <trkpt lat="45.83499" lon="-0.67892">
        <ele>8.31</ele>
        <time>2013-07-20T18:23:47Z</time>
      </trkpt>
      <trkpt lat="45.83498" lon="-0.67892">
        <ele>7.83</ele>
        <time>2013-07-20T18:23:48Z</time>
      </trkpt>
      <trkpt lat="45.83496" lon="-0.6789">
        <ele>8.31</ele>
        <time>2013-07-20T18:23:49Z</time>
      </trkpt>
      <trkpt lat="45.83494" lon="-0.67889">
        <ele>8.31</ele>
        <time>2013-07-20T18:23:50Z</time>
      </trkpt>
      <trkpt lat="45.83492" lon="-0.67887">
        <ele>8.31</ele>
        <time>2013-07-20T18:23:51Z</time>
      </trkpt>
      <trkpt lat="45.83473" lon="-0.67869">
        <ele>7.35</ele>
        <time>2013-07-20T18:24:03Z</time>
      </trkpt>
      <trkpt lat="45.83453" lon="-0.67846">
        <ele>5.91</ele>
        <time>2013-07-20T18:24:13Z</time>
      </trkpt>
      <trkpt lat="45.8345" lon="-0.67844">
        <ele>5.91</ele>
        <time>2013-07-20T18:24:15Z</time>
      </trkpt>
      <trkpt lat="45.83448" lon="-0.67843">
        <ele>5.42</ele>
        <time>2013-07-20T18:24:16Z</time>
      </trkpt>
      <trkpt lat="45.83447" lon="-0.67841">
        <ele>5.42</ele>
        <time>2013-07-20T18:24:17Z</time>
      </trkpt>
      <trkpt lat="45.83446" lon="-0.6784">
        <ele>5.42</ele>
        <time>2013-07-20T18:24:18Z</time>
      </trkpt>
      <trkpt lat="45.83445" lon="-0.67838">
        <ele>5.42</ele>
        <time>2013-07-20T18:24:19Z</time>
      </trkpt>
      <trkpt lat="45.83414" lon="-0.67808">
        <ele>3.98</ele>
        <time>2013-07-20T18:24:31Z</time>
      </trkpt>
      <trkpt lat="45.83414" lon="-0.67808">
        <ele>3.98</ele>
        <time>2013-07-20T18:24:45Z</time>
      </trkpt>
      <trkpt lat="45.8341" lon="-0.67803">
        <ele>4.46</ele>
        <time>2013-07-20T18:25:06Z</time>
      </trkpt>
      <trkpt lat="45.8341" lon="-0.678">
        <ele>4.46</ele>
        <time>2013-07-20T18:25:11Z</time>
      </trkpt>
      <trkpt lat="45.8341" lon="-0.67799">
        <ele>4.46</ele>
        <time>2013-07-20T18:25:12Z</time>
      </trkpt>
      <trkpt lat="45.8339" lon="-0.67767">
        <ele>3.5</ele>
        <time>2013-07-20T18:25:24Z</time>
      </trkpt>
      <trkpt lat="45.83358" lon="-0.67734">
        <ele>4.46</ele>
        <time>2013-07-20T18:25:38Z</time>
      </trkpt>
      <trkpt lat="45.83338" lon="-0.67686">
        <ele>5.42</ele>
        <time>2013-07-20T18:25:52Z</time>
      </trkpt>
      <trkpt lat="45.83311" lon="-0.67615">
        <ele>8.79</ele>
        <time>2013-07-20T18:26:09Z</time>
      </trkpt>
      <trkpt lat="45.83288" lon="-0.67559">
        <ele>8.79</ele>
        <time>2013-07-20T18:26:24Z</time>
      </trkpt>
      <trkpt lat="45.83265" lon="-0.67514">
        <ele>9.27</ele>
        <time>2013-07-20T18:26:37Z</time>
      </trkpt>
      <trkpt lat="45.83239" lon="-0.67461">
        <ele>9.27</ele>
        <time>2013-07-20T18:26:51Z</time>
      </trkpt>
      <trkpt lat="45.83214" lon="-0.67413">
        <ele>9.75</ele>
        <time>2013-07-20T18:27:05Z</time>
      </trkpt>
      <trkpt lat="45.8319" lon="-0.67365">
        <ele>9.75</ele>
        <time>2013-07-20T18:27:18Z</time>
      </trkpt>
      <trkpt lat="45.83167" lon="-0.67327">
        <ele>10.23</ele>
        <time>2013-07-20T18:27:33Z</time>
      </trkpt>
      <trkpt lat="45.83165" lon="-0.67312">
        <ele>9.75</ele>
        <time>2013-07-20T18:27:38Z</time>
      </trkpt>
      <trkpt lat="45.83172" lon="-0.67305">
        <ele>9.27</ele>
        <time>2013-07-20T18:27:48Z</time>
      </trkpt>
      <trkpt lat="45.83171" lon="-0.67304">
        <ele>8.31</ele>
        <time>2013-07-20T18:27:58Z</time>
      </trkpt>
      <trkpt lat="45.8317" lon="-0.67303">
        <ele>8.31</ele>
        <time>2013-07-20T18:28:10Z</time>
      </trkpt>
      <trkpt lat="45.83266" lon="-0.67344">
        <ele>-20.53</ele>
        <time>2013-07-21T07:36:50Z</time>
      </trkpt>
      <trkpt lat="45.83266" lon="-0.67343">
        <ele>-20.53</ele>
        <time>2013-07-21T07:36:51Z</time>
      </trkpt>
      <trkpt lat="45.83265" lon="-0.67352">
        <ele>-17.17</ele>
        <time>2013-07-21T07:37:12Z</time>
      </trkpt>
      <trkpt lat="45.83268" lon="-0.67353">
        <ele>-13.8</ele>
        <time>2013-07-21T07:37:16Z</time>
      </trkpt>
      <trkpt lat="45.83268" lon="-0.67353">
        <ele>-10.92</ele>
        <time>2013-07-21T07:37:21Z</time>
      </trkpt>
      <trkpt lat="45.83268" lon="-0.67353">
        <ele>-9</ele>
        <time>2013-07-21T07:37:24Z</time>
      </trkpt>
      <trkpt lat="45.83269" lon="-0.67355">
        <ele>-5.15</ele>
        <time>2013-07-21T07:37:31Z</time>
      </trkpt>
      <trkpt lat="45.8327" lon="-0.67353">
        <ele>-1.79</ele>
        <time>2013-07-21T07:37:48Z</time>
      </trkpt>
      <trkpt lat="45.8327" lon="-0.67352">
        <ele>0.62</ele>
        <time>2013-07-21T07:38:05Z</time>
      </trkpt>
      <trkpt lat="45.83268" lon="-0.67354">
        <ele>3.02</ele>
        <time>2013-07-21T07:38:24Z</time>
      </trkpt>
      <trkpt lat="45.8327" lon="-0.67352">
        <ele>4.46</ele>
        <time>2013-07-21T07:38:46Z</time>
      </trkpt>
      <trkpt lat="45.83269" lon="-0.67354">
        <ele>4.94</ele>
        <time>2013-07-21T07:39:10Z</time>
      </trkpt>
      <trkpt lat="45.83269" lon="-0.67356">
        <ele>5.42</ele>
        <time>2013-07-21T07:40:11Z</time>
      </trkpt>
      <trkpt lat="45.83269" lon="-0.67356">
        <ele>4.46</ele>
        <time>2013-07-21T07:40:26Z</time>
      </trkpt>
      <trkpt lat="45.83269" lon="-0.67356">
        <ele>5.91</ele>
        <time>2013-07-21T07:40:58Z</time>
      </trkpt>
      <trkpt lat="45.83269" lon="-0.67354">
        <ele>5.91</ele>
        <time>2013-07-21T07:41:03Z</time>
      </trkpt>
      <trkpt lat="45.83272" lon="-0.67352">
        <ele>5.91</ele>
        <time>2013-07-21T07:41:19Z</time>
      </trkpt>
      <trkpt lat="45.83272" lon="-0.67346">
        <ele>5.91</ele>
        <time>2013-07-21T07:41:27Z</time>
      </trkpt>
      <trkpt lat="45.83269" lon="-0.67338">
        <ele>5.42</ele>
        <time>2013-07-21T07:41:35Z</time>
      </trkpt>
      <trkpt lat="45.83257" lon="-0.67315">
        <ele>5.42</ele>
        <time>2013-07-21T07:41:53Z</time>
      </trkpt>
      <trkpt lat="45.83243" lon="-0.67291">
        <ele>5.91</ele>
        <time>2013-07-21T07:42:11Z</time>
      </trkpt>
      <trkpt lat="45.83235" lon="-0.67276">
        <ele>5.42</ele>
        <time>2013-07-21T07:42:24Z</time>
      </trkpt>
      <trkpt lat="45.8323" lon="-0.67268">
        <ele>5.91</ele>
        <time>2013-07-21T07:42:39Z</time>
      </trkpt>
      <trkpt lat="45.83225" lon="-0.67261">
        <ele>5.91</ele>
        <time>2013-07-21T07:42:45Z</time>
      </trkpt>
      <trkpt lat="45.83219" lon="-0.67262">
        <ele>6.39</ele>
        <time>2013-07-21T07:42:49Z</time>
      </trkpt>
      <trkpt lat="45.83194" lon="-0.67283">
        <ele>9.27</ele>
        <time>2013-07-21T07:43:14Z</time>
      </trkpt>
      <trkpt lat="45.83179" lon="-0.67298">
        <ele>11.19</ele>
        <time>2013-07-21T07:43:33Z</time>
      </trkpt>
      <trkpt lat="45.83169" lon="-0.6731">
        <ele>11.67</ele>
        <time>2013-07-21T07:43:44Z</time>
      </trkpt>
      <trkpt lat="45.83169" lon="-0.67317">
        <ele>12.15</ele>
        <time>2013-07-21T07:43:58Z</time>
      </trkpt>
      <trkpt lat="45.83172" lon="-0.67327">
        <ele>12.15</ele>
        <time>2013-07-21T07:44:03Z</time>
      </trkpt>
      <trkpt lat="45.83174" lon="-0.67329">
        <ele>12.15</ele>
        <time>2013-07-21T07:44:04Z</time>
      </trkpt>
      <trkpt lat="45.83175" lon="-0.67331">
        <ele>12.15</ele>
        <time>2013-07-21T07:44:05Z</time>
      </trkpt>
      <trkpt lat="45.83193" lon="-0.67369">
        <ele>12.15</ele>
        <time>2013-07-21T07:44:16Z</time>
      </trkpt>
      <trkpt lat="45.83235" lon="-0.67449">
        <ele>12.15</ele>
        <time>2013-07-21T07:44:31Z</time>
      </trkpt>
      <trkpt lat="45.83237" lon="-0.67454">
        <ele>12.15</ele>
        <time>2013-07-21T07:44:32Z</time>
      </trkpt>
      <trkpt lat="45.83263" lon="-0.67509">
        <ele>11.67</ele>
        <time>2013-07-21T07:44:42Z</time>
      </trkpt>
      <trkpt lat="45.83267" lon="-0.67521">
        <ele>11.67</ele>
        <time>2013-07-21T07:44:44Z</time>
      </trkpt>
      <trkpt lat="45.83271" lon="-0.67526">
        <ele>11.67</ele>
        <time>2013-07-21T07:44:45Z</time>
      </trkpt>
      <trkpt lat="45.83277" lon="-0.67536">
        <ele>11.67</ele>
        <time>2013-07-21T07:44:47Z</time>
      </trkpt>
      <trkpt lat="45.8328" lon="-0.67542">
        <ele>11.19</ele>
        <time>2013-07-21T07:44:48Z</time>
      </trkpt>
      <trkpt lat="45.83325" lon="-0.67639">
        <ele>10.23</ele>
        <time>2013-07-21T07:45:05Z</time>
      </trkpt>
      <trkpt lat="45.83327" lon="-0.67646">
        <ele>9.75</ele>
        <time>2013-07-21T07:45:13Z</time>
      </trkpt>
      <trkpt lat="45.83324" lon="-0.67643">
        <ele>9.27</ele>
        <time>2013-07-21T07:45:24Z</time>
      </trkpt>
      <trkpt lat="45.83322" lon="-0.67641">
        <ele>9.75</ele>
        <time>2013-07-21T07:45:25Z</time>
      </trkpt>
      <trkpt lat="45.83321" lon="-0.67639">
        <ele>10.23</ele>
        <time>2013-07-21T07:45:26Z</time>
      </trkpt>
      <trkpt lat="45.8332" lon="-0.67636">
        <ele>9.75</ele>
        <time>2013-07-21T07:45:27Z</time>
      </trkpt>
      <trkpt lat="45.83319" lon="-0.67632">
        <ele>10.23</ele>
        <time>2013-07-21T07:45:28Z</time>
      </trkpt>
      <trkpt lat="45.83318" lon="-0.67628">
        <ele>10.23</ele>
        <time>2013-07-21T07:45:29Z</time>
      </trkpt>
      <trkpt lat="45.83316" lon="-0.67624">
        <ele>10.71</ele>
        <time>2013-07-21T07:45:30Z</time>
      </trkpt>
      <trkpt lat="45.83287" lon="-0.6756">
        <ele>12.63</ele>
        <time>2013-07-21T07:45:43Z</time>
      </trkpt>
      <trkpt lat="45.83243" lon="-0.67473">
        <ele>12.15</ele>
        <time>2013-07-21T07:45:58Z</time>
      </trkpt>
      <trkpt lat="45.83197" lon="-0.67379">
        <ele>12.15</ele>
        <time>2013-07-21T07:46:14Z</time>
      </trkpt>
      <trkpt lat="45.83189" lon="-0.67364">
        <ele>12.15</ele>
        <time>2013-07-21T07:46:17Z</time>
      </trkpt>
      <trkpt lat="45.83187" lon="-0.67359">
        <ele>12.15</ele>
        <time>2013-07-21T07:46:18Z</time>
      </trkpt>
      <trkpt lat="45.83185" lon="-0.67354">
        <ele>12.63</ele>
        <time>2013-07-21T07:46:19Z</time>
      </trkpt>
      <trkpt lat="45.83177" lon="-0.67336">
        <ele>12.15</ele>
        <time>2013-07-21T07:46:23Z</time>
      </trkpt>
      <trkpt lat="45.83175" lon="-0.67334">
        <ele>12.15</ele>
        <time>2013-07-21T07:46:24Z</time>
      </trkpt>
      <trkpt lat="45.83172" lon="-0.67332">
        <ele>12.63</ele>
        <time>2013-07-21T07:46:25Z</time>
      </trkpt>
      <trkpt lat="45.8317" lon="-0.67328">
        <ele>12.63</ele>
        <time>2013-07-21T07:46:26Z</time>
      </trkpt>
      <trkpt lat="45.83167" lon="-0.67324">
        <ele>12.63</ele>
        <time>2013-07-21T07:46:27Z</time>
      </trkpt>
      <trkpt lat="45.83156" lon="-0.67303">
        <ele>12.63</ele>
        <time>2013-07-21T07:46:32Z</time>
      </trkpt>
      <trkpt lat="45.83135" lon="-0.67274">
        <ele>13.12</ele>
        <time>2013-07-21T07:46:38Z</time>
      </trkpt>
      <trkpt lat="45.83101" lon="-0.67218">
        <ele>12.63</ele>
        <time>2013-07-21T07:46:50Z</time>
      </trkpt>
      <trkpt lat="45.83071" lon="-0.67205">
        <ele>13.6</ele>
        <time>2013-07-21T07:47:03Z</time>
      </trkpt>
      <trkpt lat="45.83055" lon="-0.67198">
        <ele>14.08</ele>
        <time>2013-07-21T07:47:09Z</time>
      </trkpt>
      <trkpt lat="45.83052" lon="-0.67194">
        <ele>14.08</ele>
        <time>2013-07-21T07:47:10Z</time>
      </trkpt>
      <trkpt lat="45.83007" lon="-0.67129">
        <ele>12.63</ele>
        <time>2013-07-21T07:47:23Z</time>
      </trkpt>
      <trkpt lat="45.82986" lon="-0.671">
        <ele>9.75</ele>
        <time>2013-07-21T07:47:28Z</time>
      </trkpt>
      <trkpt lat="45.82983" lon="-0.67095">
        <ele>9.75</ele>
        <time>2013-07-21T07:47:29Z</time>
      </trkpt>
      <trkpt lat="45.82927" lon="-0.67026">
        <ele>7.35</ele>
        <time>2013-07-21T07:47:41Z</time>
      </trkpt>
      <trkpt lat="45.82842" lon="-0.6696">
        <ele>10.23</ele>
        <time>2013-07-21T07:47:53Z</time>
      </trkpt>
      <trkpt lat="45.8276" lon="-0.66883">
        <ele>12.63</ele>
        <time>2013-07-21T07:48:08Z</time>
      </trkpt>
      <trkpt lat="45.82695" lon="-0.66799">
        <ele>11.67</ele>
        <time>2013-07-21T07:48:21Z</time>
      </trkpt>
      <trkpt lat="45.826" lon="-0.66681">
        <ele>9.75</ele>
        <time>2013-07-21T07:48:37Z</time>
      </trkpt>
      <trkpt lat="45.82528" lon="-0.66589">
        <ele>11.19</ele>
        <time>2013-07-21T07:48:50Z</time>
      </trkpt>
      <trkpt lat="45.82446" lon="-0.66479">
        <ele>11.67</ele>
        <time>2013-07-21T07:49:06Z</time>
      </trkpt>
      <trkpt lat="45.82345" lon="-0.66342">
        <ele>11.67</ele>
        <time>2013-07-21T07:49:25Z</time>
      </trkpt>
      <trkpt lat="45.82289" lon="-0.66219">
        <ele>11.67</ele>
        <time>2013-07-21T07:49:39Z</time>
      </trkpt>
      <trkpt lat="45.82206" lon="-0.6604">
        <ele>9.75</ele>
        <time>2013-07-21T07:49:58Z</time>
      </trkpt>
      <trkpt lat="45.82131" lon="-0.65934">
        <ele>8.79</ele>
        <time>2013-07-21T07:50:11Z</time>
      </trkpt>
      <trkpt lat="45.82088" lon="-0.65886">
        <ele>8.79</ele>
        <time>2013-07-21T07:50:18Z</time>
      </trkpt>
      <trkpt lat="45.82081" lon="-0.65882">
        <ele>8.79</ele>
        <time>2013-07-21T07:50:19Z</time>
      </trkpt>
      <trkpt lat="45.82074" lon="-0.65879">
        <ele>9.27</ele>
        <time>2013-07-21T07:50:20Z</time>
      </trkpt>
      <trkpt lat="45.82037" lon="-0.65866">
        <ele>8.79</ele>
        <time>2013-07-21T07:50:25Z</time>
      </trkpt>
      <trkpt lat="45.8203" lon="-0.65862">
        <ele>9.27</ele>
        <time>2013-07-21T07:50:26Z</time>
      </trkpt>
      <trkpt lat="45.82017" lon="-0.65852">
        <ele>8.79</ele>
        <time>2013-07-21T07:50:28Z</time>
      </trkpt>
      <trkpt lat="45.82011" lon="-0.65846">
        <ele>8.31</ele>
        <time>2013-07-21T07:50:29Z</time>
      </trkpt>
      <trkpt lat="45.81941" lon="-0.65751">
        <ele>9.27</ele>
        <time>2013-07-21T07:50:42Z</time>
      </trkpt>
      <trkpt lat="45.81847" lon="-0.65632">
        <ele>10.23</ele>
        <time>2013-07-21T07:51:00Z</time>
      </trkpt>
      <trkpt lat="45.81734" lon="-0.65514">
        <ele>7.35</ele>
        <time>2013-07-21T07:51:17Z</time>
      </trkpt>
      <trkpt lat="45.81664" lon="-0.65471">
        <ele>10.23</ele>
        <time>2013-07-21T07:51:28Z</time>
      </trkpt>
      <trkpt lat="45.816" lon="-0.65403">
        <ele>13.12</ele>
        <time>2013-07-21T07:51:42Z</time>
      </trkpt>
      <trkpt lat="45.81495" lon="-0.65307">
        <ele>13.6</ele>
        <time>2013-07-21T07:52:01Z</time>
      </trkpt>
      <trkpt lat="45.81434" lon="-0.65251">
        <ele>16</ele>
        <time>2013-07-21T07:52:13Z</time>
      </trkpt>
      <trkpt lat="45.81342" lon="-0.6517">
        <ele>16.96</ele>
        <time>2013-07-21T07:52:31Z</time>
      </trkpt>
      <trkpt lat="45.81236" lon="-0.65111">
        <ele>13.6</ele>
        <time>2013-07-21T07:52:47Z</time>
      </trkpt>
      <trkpt lat="45.81118" lon="-0.65068">
        <ele>12.15</ele>
        <time>2013-07-21T07:53:03Z</time>
      </trkpt>
      <trkpt lat="45.80974" lon="-0.65017">
        <ele>10.71</ele>
        <time>2013-07-21T07:53:23Z</time>
      </trkpt>
      <trkpt lat="45.8087" lon="-0.64989">
        <ele>10.71</ele>
        <time>2013-07-21T07:53:37Z</time>
      </trkpt>
      <trkpt lat="45.80762" lon="-0.64936">
        <ele>10.71</ele>
        <time>2013-07-21T07:53:53Z</time>
      </trkpt>
      <trkpt lat="45.80642" lon="-0.64876">
        <ele>9.27</ele>
        <time>2013-07-21T07:54:10Z</time>
      </trkpt>
      <trkpt lat="45.80617" lon="-0.64868">
        <ele>8.79</ele>
        <time>2013-07-21T07:54:13Z</time>
      </trkpt>
      <trkpt lat="45.80608" lon="-0.64867">
        <ele>8.31</ele>
        <time>2013-07-21T07:54:14Z</time>
      </trkpt>
      <trkpt lat="45.80598" lon="-0.64867">
        <ele>8.31</ele>
        <time>2013-07-21T07:54:15Z</time>
      </trkpt>
      <trkpt lat="45.80589" lon="-0.64868">
        <ele>8.31</ele>
        <time>2013-07-21T07:54:16Z</time>
      </trkpt>
      <trkpt lat="45.80581" lon="-0.64869">
        <ele>8.31</ele>
        <time>2013-07-21T07:54:17Z</time>
      </trkpt>
      <trkpt lat="45.80501" lon="-0.64889">
        <ele>10.23</ele>
        <time>2013-07-21T07:54:28Z</time>
      </trkpt>
      <trkpt lat="45.80398" lon="-0.64896">
        <ele>13.12</ele>
        <time>2013-07-21T07:54:45Z</time>
      </trkpt>
      <trkpt lat="45.80286" lon="-0.64904">
        <ele>13.12</ele>
        <time>2013-07-21T07:55:03Z</time>
      </trkpt>
      <trkpt lat="45.80192" lon="-0.64929">
        <ele>12.15</ele>
        <time>2013-07-21T07:55:17Z</time>
      </trkpt>
      <trkpt lat="45.80078" lon="-0.64986">
        <ele>10.23</ele>
        <time>2013-07-21T07:55:32Z</time>
      </trkpt>
      <trkpt lat="45.80014" lon="-0.65029">
        <ele>13.6</ele>
        <time>2013-07-21T07:55:42Z</time>
      </trkpt>
      <trkpt lat="45.80008" lon="-0.65032">
        <ele>13.6</ele>
        <time>2013-07-21T07:55:43Z</time>
      </trkpt>
      <trkpt lat="45.80003" lon="-0.65035">
        <ele>14.08</ele>
        <time>2013-07-21T07:55:44Z</time>
      </trkpt>
      <trkpt lat="45.79992" lon="-0.65038">
        <ele>14.56</ele>
        <time>2013-07-21T07:55:46Z</time>
      </trkpt>
      <trkpt lat="45.79986" lon="-0.65039">
        <ele>15.04</ele>
        <time>2013-07-21T07:55:47Z</time>
      </trkpt>
      <trkpt lat="45.79981" lon="-0.65039">
        <ele>15.52</ele>
        <time>2013-07-21T07:55:48Z</time>
      </trkpt>
      <trkpt lat="45.79892" lon="-0.65015">
        <ele>16.48</ele>
        <time>2013-07-21T07:56:04Z</time>
      </trkpt>
      <trkpt lat="45.79798" lon="-0.64994">
        <ele>16.96</ele>
        <time>2013-07-21T07:56:20Z</time>
      </trkpt>
      <trkpt lat="45.79693" lon="-0.64998">
        <ele>18.4</ele>
        <time>2013-07-21T07:56:37Z</time>
      </trkpt>
      <trkpt lat="45.79573" lon="-0.65001">
        <ele>19.84</ele>
        <time>2013-07-21T07:56:56Z</time>
      </trkpt>
      <trkpt lat="45.79478" lon="-0.65029">
        <ele>22.25</ele>
        <time>2013-07-21T07:57:13Z</time>
      </trkpt>
      <trkpt lat="45.79381" lon="-0.65089">
        <ele>23.21</ele>
        <time>2013-07-21T07:57:30Z</time>
      </trkpt>
      <trkpt lat="45.79332" lon="-0.65128">
        <ele>21.29</ele>
        <time>2013-07-21T07:57:38Z</time>
      </trkpt>
      <trkpt lat="45.79265" lon="-0.6523">
        <ele>20.32</ele>
        <time>2013-07-21T07:57:51Z</time>
      </trkpt>
      <trkpt lat="45.7926" lon="-0.65235">
        <ele>20.81</ele>
        <time>2013-07-21T07:57:52Z</time>
      </trkpt>
      <trkpt lat="45.79238" lon="-0.65253">
        <ele>22.25</ele>
        <time>2013-07-21T07:57:57Z</time>
      </trkpt>
      <trkpt lat="45.79234" lon="-0.65255">
        <ele>22.73</ele>
        <time>2013-07-21T07:57:58Z</time>
      </trkpt>
      <trkpt lat="45.79193" lon="-0.65265">
        <ele>25.61</ele>
        <time>2013-07-21T07:58:08Z</time>
      </trkpt>
      <trkpt lat="45.79149" lon="-0.65269">
        <ele>28.98</ele>
        <time>2013-07-21T07:58:20Z</time>
      </trkpt>
      <trkpt lat="45.79104" lon="-0.65272">
        <ele>32.34</ele>
        <time>2013-07-21T07:58:32Z</time>
      </trkpt>
      <trkpt lat="45.79057" lon="-0.65261">
        <ele>34.26</ele>
        <time>2013-07-21T07:58:44Z</time>
      </trkpt>
      <trkpt lat="45.79053" lon="-0.6526">
        <ele>34.74</ele>
        <time>2013-07-21T07:58:45Z</time>
      </trkpt>
      <trkpt lat="45.79019" lon="-0.65248">
        <ele>34.74</ele>
        <time>2013-07-21T07:58:52Z</time>
      </trkpt>
      <trkpt lat="45.79014" lon="-0.65247">
        <ele>34.26</ele>
        <time>2013-07-21T07:58:53Z</time>
      </trkpt>
      <trkpt lat="45.78988" lon="-0.65239">
        <ele>34.26</ele>
        <time>2013-07-21T07:58:58Z</time>
      </trkpt>
      <trkpt lat="45.78983" lon="-0.65238">
        <ele>33.78</ele>
        <time>2013-07-21T07:58:59Z</time>
      </trkpt>
      <trkpt lat="45.78977" lon="-0.65239">
        <ele>34.26</ele>
        <time>2013-07-21T07:59:00Z</time>
      </trkpt>
      <trkpt lat="45.78971" lon="-0.6524">
        <ele>34.26</ele>
        <time>2013-07-21T07:59:01Z</time>
      </trkpt>
      <trkpt lat="45.78966" lon="-0.65242">
        <ele>33.78</ele>
        <time>2013-07-21T07:59:02Z</time>
      </trkpt>
      <trkpt lat="45.7896" lon="-0.65245">
        <ele>33.78</ele>
        <time>2013-07-21T07:59:03Z</time>
      </trkpt>
      <trkpt lat="45.78954" lon="-0.65248">
        <ele>33.78</ele>
        <time>2013-07-21T07:59:04Z</time>
      </trkpt>
      <trkpt lat="45.78935" lon="-0.65262">
        <ele>31.38</ele>
        <time>2013-07-21T07:59:07Z</time>
      </trkpt>
      <trkpt lat="45.7889" lon="-0.65298">
        <ele>28.02</ele>
        <time>2013-07-21T07:59:13Z</time>
      </trkpt>
      <trkpt lat="45.78872" lon="-0.65311">
        <ele>27.05</ele>
        <time>2013-07-21T07:59:15Z</time>
      </trkpt>
      <trkpt lat="45.78816" lon="-0.6535">
        <ele>23.69</ele>
        <time>2013-07-21T07:59:21Z</time>
      </trkpt>
      <trkpt lat="45.78784" lon="-0.6536">
        <ele>22.25</ele>
        <time>2013-07-21T07:59:24Z</time>
      </trkpt>
      <trkpt lat="45.78774" lon="-0.6536">
        <ele>21.77</ele>
        <time>2013-07-21T07:59:25Z</time>
      </trkpt>
      <trkpt lat="45.78699" lon="-0.65348">
        <ele>24.65</ele>
        <time>2013-07-21T07:59:34Z</time>
      </trkpt>
      <trkpt lat="45.78677" lon="-0.65338">
        <ele>25.61</ele>
        <time>2013-07-21T07:59:38Z</time>
      </trkpt>
      <trkpt lat="45.78672" lon="-0.65334">
        <ele>26.09</ele>
        <time>2013-07-21T07:59:39Z</time>
      </trkpt>
      <trkpt lat="45.78617" lon="-0.65263">
        <ele>27.05</ele>
        <time>2013-07-21T07:59:53Z</time>
      </trkpt>
      <trkpt lat="45.78587" lon="-0.65235">
        <ele>26.57</ele>
        <time>2013-07-21T07:59:59Z</time>
      </trkpt>
      <trkpt lat="45.78581" lon="-0.65232">
        <ele>26.57</ele>
        <time>2013-07-21T08:00:00Z</time>
      </trkpt>
      <trkpt lat="45.78568" lon="-0.65228">
        <ele>26.57</ele>
        <time>2013-07-21T08:00:02Z</time>
      </trkpt>
      <trkpt lat="45.78561" lon="-0.65227">
        <ele>26.57</ele>
        <time>2013-07-21T08:00:03Z</time>
      </trkpt>
      <trkpt lat="45.78454" lon="-0.65224">
        <ele>25.61</ele>
        <time>2013-07-21T08:00:19Z</time>
      </trkpt>
      <trkpt lat="45.78415" lon="-0.65221">
        <ele>22.25</ele>
        <time>2013-07-21T08:00:24Z</time>
      </trkpt>
      <trkpt lat="45.78407" lon="-0.6522">
        <ele>22.25</ele>
        <time>2013-07-21T08:00:25Z</time>
      </trkpt>
      <trkpt lat="45.78372" lon="-0.65218">
        <ele>20.81</ele>
        <time>2013-07-21T08:00:29Z</time>
      </trkpt>
      <trkpt lat="45.78309" lon="-0.65228">
        <ele>17.44</ele>
        <time>2013-07-21T08:00:36Z</time>
      </trkpt>
      <trkpt lat="45.78195" lon="-0.65295">
        <ele>16.96</ele>
        <time>2013-07-21T08:00:51Z</time>
      </trkpt>
      <trkpt lat="45.78109" lon="-0.65305">
        <ele>16.96</ele>
        <time>2013-07-21T08:01:03Z</time>
      </trkpt>
      <trkpt lat="45.78033" lon="-0.65299">
        <ele>20.32</ele>
        <time>2013-07-21T08:01:15Z</time>
      </trkpt>
      <trkpt lat="45.77973" lon="-0.65286">
        <ele>23.21</ele>
        <time>2013-07-21T08:01:27Z</time>
      </trkpt>
      <trkpt lat="45.77876" lon="-0.65262">
        <ele>26.57</ele>
        <time>2013-07-21T08:01:47Z</time>
      </trkpt>
      <trkpt lat="45.77794" lon="-0.65239">
        <ele>28.02</ele>
        <time>2013-07-21T08:02:03Z</time>
      </trkpt>
      <trkpt lat="45.77693" lon="-0.65211">
        <ele>28.98</ele>
        <time>2013-07-21T08:02:22Z</time>
      </trkpt>
      <trkpt lat="45.77606" lon="-0.65182">
        <ele>28.98</ele>
        <time>2013-07-21T08:02:37Z</time>
      </trkpt>
      <trkpt lat="45.77501" lon="-0.65143">
        <ele>28.98</ele>
        <time>2013-07-21T08:02:55Z</time>
      </trkpt>
      <trkpt lat="45.77388" lon="-0.65088">
        <ele>28.02</ele>
        <time>2013-07-21T08:03:14Z</time>
      </trkpt>
      <trkpt lat="45.77278" lon="-0.65035">
        <ele>24.65</ele>
        <time>2013-07-21T08:03:30Z</time>
      </trkpt>
      <trkpt lat="45.77271" lon="-0.65032">
        <ele>24.17</ele>
        <time>2013-07-21T08:03:31Z</time>
      </trkpt>
      <trkpt lat="45.77246" lon="-0.6502">
        <ele>23.21</ele>
        <time>2013-07-21T08:03:34Z</time>
      </trkpt>
      <trkpt lat="45.77193" lon="-0.64996">
        <ele>19.84</ele>
        <time>2013-07-21T08:03:40Z</time>
      </trkpt>
      <trkpt lat="45.77184" lon="-0.64993">
        <ele>19.84</ele>
        <time>2013-07-21T08:03:41Z</time>
      </trkpt>
      <trkpt lat="45.77154" lon="-0.64984">
        <ele>17.92</ele>
        <time>2013-07-21T08:03:44Z</time>
      </trkpt>
      <trkpt lat="45.77134" lon="-0.64978">
        <ele>16.96</ele>
        <time>2013-07-21T08:03:46Z</time>
      </trkpt>
      <trkpt lat="45.77071" lon="-0.64962">
        <ele>13.12</ele>
        <time>2013-07-21T08:03:52Z</time>
      </trkpt>
      <trkpt lat="45.77016" lon="-0.64949">
        <ele>10.23</ele>
        <time>2013-07-21T08:03:57Z</time>
      </trkpt>
      <trkpt lat="45.77005" lon="-0.64949">
        <ele>10.23</ele>
        <time>2013-07-21T08:03:58Z</time>
      </trkpt>
      <trkpt lat="45.76972" lon="-0.64947">
        <ele>8.79</ele>
        <time>2013-07-21T08:04:01Z</time>
      </trkpt>
      <trkpt lat="45.76963" lon="-0.64941">
        <ele>8.79</ele>
        <time>2013-07-21T08:04:02Z</time>
      </trkpt>
      <trkpt lat="45.76955" lon="-0.64932">
        <ele>8.79</ele>
        <time>2013-07-21T08:04:03Z</time>
      </trkpt>
      <trkpt lat="45.76948" lon="-0.64921">
        <ele>7.83</ele>
        <time>2013-07-21T08:04:04Z</time>
      </trkpt>
      <trkpt lat="45.76944" lon="-0.64909">
        <ele>7.35</ele>
        <time>2013-07-21T08:04:05Z</time>
      </trkpt>
      <trkpt lat="45.7694" lon="-0.64897">
        <ele>8.31</ele>
        <time>2013-07-21T08:04:06Z</time>
      </trkpt>
      <trkpt lat="45.76937" lon="-0.64884">
        <ele>8.31</ele>
        <time>2013-07-21T08:04:07Z</time>
      </trkpt>
      <trkpt lat="45.76909" lon="-0.64788">
        <ele>10.71</ele>
        <time>2013-07-21T08:04:16Z</time>
      </trkpt>
      <trkpt lat="45.76858" lon="-0.64715">
        <ele>12.15</ele>
        <time>2013-07-21T08:04:28Z</time>
      </trkpt>
      <trkpt lat="45.76854" lon="-0.64709">
        <ele>12.15</ele>
        <time>2013-07-21T08:04:29Z</time>
      </trkpt>
      <trkpt lat="45.7685" lon="-0.64703">
        <ele>12.15</ele>
        <time>2013-07-21T08:04:30Z</time>
      </trkpt>
      <trkpt lat="45.76812" lon="-0.64587">
        <ele>14.56</ele>
        <time>2013-07-21T08:04:45Z</time>
      </trkpt>
      <trkpt lat="45.76799" lon="-0.6454">
        <ele>15.04</ele>
        <time>2013-07-21T08:04:51Z</time>
      </trkpt>
      <trkpt lat="45.76796" lon="-0.64532">
        <ele>15.04</ele>
        <time>2013-07-21T08:04:52Z</time>
      </trkpt>
      <trkpt lat="45.76733" lon="-0.6445">
        <ele>15.04</ele>
        <time>2013-07-21T08:05:05Z</time>
      </trkpt>
      <trkpt lat="45.76722" lon="-0.64441">
        <ele>15.04</ele>
        <time>2013-07-21T08:05:07Z</time>
      </trkpt>
      <trkpt lat="45.76716" lon="-0.64438">
        <ele>15.52</ele>
        <time>2013-07-21T08:05:08Z</time>
      </trkpt>
      <trkpt lat="45.76664" lon="-0.6441">
        <ele>16.96</ele>
        <time>2013-07-21T08:05:17Z</time>
      </trkpt>
      <trkpt lat="45.76659" lon="-0.64405">
        <ele>16.96</ele>
        <time>2013-07-21T08:05:18Z</time>
      </trkpt>
      <trkpt lat="45.76654" lon="-0.64399">
        <ele>17.44</ele>
        <time>2013-07-21T08:05:19Z</time>
      </trkpt>
      <trkpt lat="45.7665" lon="-0.64394">
        <ele>17.92</ele>
        <time>2013-07-21T08:05:20Z</time>
      </trkpt>
      <trkpt lat="45.76646" lon="-0.64388">
        <ele>17.92</ele>
        <time>2013-07-21T08:05:21Z</time>
      </trkpt>
      <trkpt lat="45.76642" lon="-0.64381">
        <ele>18.4</ele>
        <time>2013-07-21T08:05:22Z</time>
      </trkpt>
      <trkpt lat="45.76622" lon="-0.64342">
        <ele>20.32</ele>
        <time>2013-07-21T08:05:28Z</time>
      </trkpt>
      <trkpt lat="45.76619" lon="-0.64337">
        <ele>20.32</ele>
        <time>2013-07-21T08:05:29Z</time>
      </trkpt>
      <trkpt lat="45.7658" lon="-0.6428">
        <ele>22.25</ele>
        <time>2013-07-21T08:05:40Z</time>
      </trkpt>
      <trkpt lat="45.76518" lon="-0.64195">
        <ele>21.29</ele>
        <time>2013-07-21T08:05:55Z</time>
      </trkpt>
      <trkpt lat="45.76445" lon="-0.6411">
        <ele>21.29</ele>
        <time>2013-07-21T08:06:10Z</time>
      </trkpt>
      <trkpt lat="45.76371" lon="-0.64032">
        <ele>21.77</ele>
        <time>2013-07-21T08:06:24Z</time>
      </trkpt>
      <trkpt lat="45.76279" lon="-0.6394">
        <ele>22.73</ele>
        <time>2013-07-21T08:06:40Z</time>
      </trkpt>
      <trkpt lat="45.76198" lon="-0.63874">
        <ele>22.73</ele>
        <time>2013-07-21T08:06:55Z</time>
      </trkpt>
      <trkpt lat="45.76175" lon="-0.63856">
        <ele>22.73</ele>
        <time>2013-07-21T08:07:00Z</time>
      </trkpt>
      <trkpt lat="45.76144" lon="-0.63827">
        <ele>22.25</ele>
        <time>2013-07-21T08:07:08Z</time>
      </trkpt>
      <trkpt lat="45.761" lon="-0.63787">
        <ele>22.25</ele>
        <time>2013-07-21T08:07:18Z</time>
      </trkpt>
      <trkpt lat="45.76096" lon="-0.63784">
        <ele>22.25</ele>
        <time>2013-07-21T08:07:19Z</time>
      </trkpt>
      <trkpt lat="45.76079" lon="-0.63777">
        <ele>21.77</ele>
        <time>2013-07-21T08:07:22Z</time>
      </trkpt>
      <trkpt lat="45.76067" lon="-0.63776">
        <ele>21.29</ele>
        <time>2013-07-21T08:07:24Z</time>
      </trkpt>
      <trkpt lat="45.76062" lon="-0.63776">
        <ele>21.29</ele>
        <time>2013-07-21T08:07:25Z</time>
      </trkpt>
      <trkpt lat="45.76056" lon="-0.63777">
        <ele>20.81</ele>
        <time>2013-07-21T08:07:26Z</time>
      </trkpt>
      <trkpt lat="45.7605" lon="-0.63779">
        <ele>20.81</ele>
        <time>2013-07-21T08:07:27Z</time>
      </trkpt>
      <trkpt lat="45.76045" lon="-0.63781">
        <ele>20.32</ele>
        <time>2013-07-21T08:07:28Z</time>
      </trkpt>
      <trkpt lat="45.7604" lon="-0.63784">
        <ele>20.32</ele>
        <time>2013-07-21T08:07:29Z</time>
      </trkpt>
      <trkpt lat="45.76035" lon="-0.63788">
        <ele>19.84</ele>
        <time>2013-07-21T08:07:30Z</time>
      </trkpt>
      <trkpt lat="45.76022" lon="-0.638">
        <ele>20.81</ele>
        <time>2013-07-21T08:07:33Z</time>
      </trkpt>
      <trkpt lat="45.76018" lon="-0.63803">
        <ele>20.81</ele>
        <time>2013-07-21T08:07:34Z</time>
      </trkpt>
      <trkpt lat="45.76014" lon="-0.63803">
        <ele>21.29</ele>
        <time>2013-07-21T08:07:35Z</time>
      </trkpt>
      <trkpt lat="45.7601" lon="-0.63802">
        <ele>20.81</ele>
        <time>2013-07-21T08:07:36Z</time>
      </trkpt>
      <trkpt lat="45.76007" lon="-0.638">
        <ele>20.81</ele>
        <time>2013-07-21T08:07:37Z</time>
      </trkpt>
      <trkpt lat="45.76004" lon="-0.63796">
        <ele>20.81</ele>
        <time>2013-07-21T08:07:38Z</time>
      </trkpt>
      <trkpt lat="45.76002" lon="-0.63792">
        <ele>20.81</ele>
        <time>2013-07-21T08:07:39Z</time>
      </trkpt>
      <trkpt lat="45.76001" lon="-0.63786">
        <ele>20.81</ele>
        <time>2013-07-21T08:07:40Z</time>
      </trkpt>
      <trkpt lat="45.76001" lon="-0.63779">
        <ele>20.81</ele>
        <time>2013-07-21T08:07:41Z</time>
      </trkpt>
      <trkpt lat="45.76002" lon="-0.63772">
        <ele>20.81</ele>
        <time>2013-07-21T08:07:42Z</time>
      </trkpt>
      <trkpt lat="45.76004" lon="-0.63764">
        <ele>20.81</ele>
        <time>2013-07-21T08:07:43Z</time>
      </trkpt>
      <trkpt lat="45.76007" lon="-0.63758">
        <ele>20.32</ele>
        <time>2013-07-21T08:07:44Z</time>
      </trkpt>
      <trkpt lat="45.7601" lon="-0.6375">
        <ele>20.32</ele>
        <time>2013-07-21T08:07:45Z</time>
      </trkpt>
      <trkpt lat="45.76012" lon="-0.63742">
        <ele>19.84</ele>
        <time>2013-07-21T08:07:46Z</time>
      </trkpt>
      <trkpt lat="45.76012" lon="-0.63734">
        <ele>19.84</ele>
        <time>2013-07-21T08:07:47Z</time>
      </trkpt>
      <trkpt lat="45.76011" lon="-0.63725">
        <ele>19.84</ele>
        <time>2013-07-21T08:07:48Z</time>
      </trkpt>
      <trkpt lat="45.76008" lon="-0.63715">
        <ele>19.84</ele>
        <time>2013-07-21T08:07:49Z</time>
      </trkpt>
      <trkpt lat="45.76005" lon="-0.63706">
        <ele>19.36</ele>
        <time>2013-07-21T08:07:50Z</time>
      </trkpt>
      <trkpt lat="45.76001" lon="-0.63697">
        <ele>18.88</ele>
        <time>2013-07-21T08:07:51Z</time>
      </trkpt>
      <trkpt lat="45.75995" lon="-0.63689">
        <ele>18.4</ele>
        <time>2013-07-21T08:07:52Z</time>
      </trkpt>
      <trkpt lat="45.75989" lon="-0.63682">
        <ele>18.4</ele>
        <time>2013-07-21T08:07:53Z</time>
      </trkpt>
      <trkpt lat="45.75983" lon="-0.63675">
        <ele>17.44</ele>
        <time>2013-07-21T08:07:54Z</time>
      </trkpt>
      <trkpt lat="45.75976" lon="-0.63669">
        <ele>17.44</ele>
        <time>2013-07-21T08:07:55Z</time>
      </trkpt>
      <trkpt lat="45.75899" lon="-0.63601">
        <ele>14.08</ele>
        <time>2013-07-21T08:08:05Z</time>
      </trkpt>
      <trkpt lat="45.75827" lon="-0.63553">
        <ele>15.04</ele>
        <time>2013-07-21T08:08:14Z</time>
      </trkpt>
      <trkpt lat="45.75762" lon="-0.63509">
        <ele>17.92</ele>
        <time>2013-07-21T08:08:26Z</time>
      </trkpt>
      <trkpt lat="45.75707" lon="-0.6345">
        <ele>20.32</ele>
        <time>2013-07-21T08:08:39Z</time>
      </trkpt>
      <trkpt lat="45.75644" lon="-0.63379">
        <ele>22.25</ele>
        <time>2013-07-21T08:08:54Z</time>
      </trkpt>
      <trkpt lat="45.75566" lon="-0.63308">
        <ele>23.21</ele>
        <time>2013-07-21T08:09:10Z</time>
      </trkpt>
      <trkpt lat="45.75518" lon="-0.63265">
        <ele>21.77</ele>
        <time>2013-07-21T08:09:20Z</time>
      </trkpt>
      <trkpt lat="45.75456" lon="-0.63204">
        <ele>19.36</ele>
        <time>2013-07-21T08:09:33Z</time>
      </trkpt>
      <trkpt lat="45.75434" lon="-0.63173">
        <ele>17.44</ele>
        <time>2013-07-21T08:09:37Z</time>
      </trkpt>
      <trkpt lat="45.75416" lon="-0.63146">
        <ele>15.52</ele>
        <time>2013-07-21T08:09:40Z</time>
      </trkpt>
      <trkpt lat="45.75408" lon="-0.63139">
        <ele>14.56</ele>
        <time>2013-07-21T08:09:41Z</time>
      </trkpt>
      <trkpt lat="45.75399" lon="-0.63133">
        <ele>14.08</ele>
        <time>2013-07-21T08:09:42Z</time>
      </trkpt>
      <trkpt lat="45.7539" lon="-0.63129">
        <ele>13.12</ele>
        <time>2013-07-21T08:09:43Z</time>
      </trkpt>
      <trkpt lat="45.75379" lon="-0.63126">
        <ele>13.12</ele>
        <time>2013-07-21T08:09:44Z</time>
      </trkpt>
      <trkpt lat="45.75369" lon="-0.63124">
        <ele>12.63</ele>
        <time>2013-07-21T08:09:45Z</time>
      </trkpt>
      <trkpt lat="45.75348" lon="-0.63121">
        <ele>9.75</ele>
        <time>2013-07-21T08:09:47Z</time>
      </trkpt>
      <trkpt lat="45.75313" lon="-0.63117">
        <ele>7.83</ele>
        <time>2013-07-21T08:09:51Z</time>
      </trkpt>
      <trkpt lat="45.75302" lon="-0.63115">
        <ele>5.91</ele>
        <time>2013-07-21T08:09:53Z</time>
      </trkpt>
      <trkpt lat="45.75297" lon="-0.63112">
        <ele>5.42</ele>
        <time>2013-07-21T08:09:54Z</time>
      </trkpt>
      <trkpt lat="45.75293" lon="-0.63108">
        <ele>5.91</ele>
        <time>2013-07-21T08:09:55Z</time>
      </trkpt>
      <trkpt lat="45.75289" lon="-0.63103">
        <ele>5.42</ele>
        <time>2013-07-21T08:09:56Z</time>
      </trkpt>
      <trkpt lat="45.75286" lon="-0.63098">
        <ele>4.94</ele>
        <time>2013-07-21T08:09:57Z</time>
      </trkpt>
      <trkpt lat="45.75283" lon="-0.63092">
        <ele>5.42</ele>
        <time>2013-07-21T08:09:58Z</time>
      </trkpt>
      <trkpt lat="45.7528" lon="-0.63087">
        <ele>5.42</ele>
        <time>2013-07-21T08:09:59Z</time>
      </trkpt>
      <trkpt lat="45.75275" lon="-0.63085">
        <ele>5.42</ele>
        <time>2013-07-21T08:10:00Z</time>
      </trkpt>
      <trkpt lat="45.75269" lon="-0.63086">
        <ele>5.42</ele>
        <time>2013-07-21T08:10:01Z</time>
      </trkpt>
      <trkpt lat="45.75181" lon="-0.6312">
        <ele>6.39</ele>
        <time>2013-07-21T08:10:15Z</time>
      </trkpt>
      <trkpt lat="45.75169" lon="-0.63123">
        <ele>5.91</ele>
        <time>2013-07-21T08:10:17Z</time>
      </trkpt>
      <trkpt lat="45.75097" lon="-0.63149">
        <ele>5.91</ele>
        <time>2013-07-21T08:10:29Z</time>
      </trkpt>
      <trkpt lat="45.75" lon="-0.63165">
        <ele>5.42</ele>
        <time>2013-07-21T08:10:43Z</time>
      </trkpt>
      <trkpt lat="45.74906" lon="-0.6313">
        <ele>5.42</ele>
        <time>2013-07-21T08:10:57Z</time>
      </trkpt>
      <trkpt lat="45.74796" lon="-0.63077">
        <ele>4.94</ele>
        <time>2013-07-21T08:11:13Z</time>
      </trkpt>
      <trkpt lat="45.74727" lon="-0.63051">
        <ele>5.91</ele>
        <time>2013-07-21T08:11:25Z</time>
      </trkpt>
      <trkpt lat="45.74713" lon="-0.6305">
        <ele>5.91</ele>
        <time>2013-07-21T08:11:36Z</time>
      </trkpt>
      <trkpt lat="45.74712" lon="-0.6305">
        <ele>6.39</ele>
        <time>2013-07-21T08:11:37Z</time>
      </trkpt>
      <trkpt lat="45.74709" lon="-0.6305">
        <ele>6.87</ele>
        <time>2013-07-21T08:11:38Z</time>
      </trkpt>
      <trkpt lat="45.74708" lon="-0.63048">
        <ele>6.87</ele>
        <time>2013-07-21T08:11:39Z</time>
      </trkpt>
      <trkpt lat="45.74706" lon="-0.63047">
        <ele>6.87</ele>
        <time>2013-07-21T08:11:40Z</time>
      </trkpt>
      <trkpt lat="45.74704" lon="-0.63045">
        <ele>7.35</ele>
        <time>2013-07-21T08:11:41Z</time>
      </trkpt>
      <trkpt lat="45.74702" lon="-0.63042">
        <ele>7.35</ele>
        <time>2013-07-21T08:11:42Z</time>
      </trkpt>
      <trkpt lat="45.74701" lon="-0.63038">
        <ele>7.83</ele>
        <time>2013-07-21T08:11:43Z</time>
      </trkpt>
      <trkpt lat="45.74699" lon="-0.63032">
        <ele>7.83</ele>
        <time>2013-07-21T08:11:44Z</time>
      </trkpt>
      <trkpt lat="45.74698" lon="-0.63025">
        <ele>8.31</ele>
        <time>2013-07-21T08:11:45Z</time>
      </trkpt>
      <trkpt lat="45.74698" lon="-0.63017">
        <ele>8.79</ele>
        <time>2013-07-21T08:11:46Z</time>
      </trkpt>
      <trkpt lat="45.74694" lon="-0.6292">
        <ele>7.83</ele>
        <time>2013-07-21T08:12:00Z</time>
      </trkpt>
      <trkpt lat="45.74693" lon="-0.62902">
        <ele>6.39</ele>
        <time>2013-07-21T08:12:03Z</time>
      </trkpt>
      <trkpt lat="45.74688" lon="-0.62872">
        <ele>6.39</ele>
        <time>2013-07-21T08:12:09Z</time>
      </trkpt>
      <trkpt lat="45.74686" lon="-0.62866">
        <ele>5.91</ele>
        <time>2013-07-21T08:12:10Z</time>
      </trkpt>
      <trkpt lat="45.74684" lon="-0.6286">
        <ele>5.91</ele>
        <time>2013-07-21T08:12:11Z</time>
      </trkpt>
      <trkpt lat="45.74684" lon="-0.62853">
        <ele>5.91</ele>
        <time>2013-07-21T08:12:12Z</time>
      </trkpt>
      <trkpt lat="45.74685" lon="-0.62846">
        <ele>5.42</ele>
        <time>2013-07-21T08:12:13Z</time>
      </trkpt>
      <trkpt lat="45.74687" lon="-0.6284">
        <ele>5.91</ele>
        <time>2013-07-21T08:12:14Z</time>
      </trkpt>
      <trkpt lat="45.74688" lon="-0.62833">
        <ele>5.42</ele>
        <time>2013-07-21T08:12:15Z</time>
      </trkpt>
      <trkpt lat="45.74689" lon="-0.62825">
        <ele>5.91</ele>
        <time>2013-07-21T08:12:16Z</time>
      </trkpt>
      <trkpt lat="45.74689" lon="-0.62817">
        <ele>5.91</ele>
        <time>2013-07-21T08:12:17Z</time>
      </trkpt>
      <trkpt lat="45.74689" lon="-0.62808">
        <ele>5.91</ele>
        <time>2013-07-21T08:12:18Z</time>
      </trkpt>
      <trkpt lat="45.74688" lon="-0.628">
        <ele>5.42</ele>
        <time>2013-07-21T08:12:19Z</time>
      </trkpt>
      <trkpt lat="45.74688" lon="-0.62791">
        <ele>5.91</ele>
        <time>2013-07-21T08:12:20Z</time>
      </trkpt>
      <trkpt lat="45.74685" lon="-0.62737">
        <ele>6.39</ele>
        <time>2013-07-21T08:12:26Z</time>
      </trkpt>
      <trkpt lat="45.7468" lon="-0.62626">
        <ele>5.91</ele>
        <time>2013-07-21T08:12:40Z</time>
      </trkpt>
      <trkpt lat="45.74674" lon="-0.62514">
        <ele>5.42</ele>
        <time>2013-07-21T08:12:53Z</time>
      </trkpt>
      <trkpt lat="45.74665" lon="-0.62372">
        <ele>6.39</ele>
        <time>2013-07-21T08:13:09Z</time>
      </trkpt>
      <trkpt lat="45.74655" lon="-0.62232">
        <ele>6.39</ele>
        <time>2013-07-21T08:13:25Z</time>
      </trkpt>
      <trkpt lat="45.74648" lon="-0.62102">
        <ele>6.39</ele>
        <time>2013-07-21T08:13:40Z</time>
      </trkpt>
      <trkpt lat="45.74645" lon="-0.6206">
        <ele>7.35</ele>
        <time>2013-07-21T08:13:45Z</time>
      </trkpt>
      <trkpt lat="45.74642" lon="-0.62047">
        <ele>6.87</ele>
        <time>2013-07-21T08:13:47Z</time>
      </trkpt>
      <trkpt lat="45.74635" lon="-0.62032">
        <ele>6.87</ele>
        <time>2013-07-21T08:13:51Z</time>
      </trkpt>
      <trkpt lat="45.74633" lon="-0.62032">
        <ele>6.87</ele>
        <time>2013-07-21T08:13:52Z</time>
      </trkpt>
      <trkpt lat="45.74631" lon="-0.62034">
        <ele>6.87</ele>
        <time>2013-07-21T08:13:53Z</time>
      </trkpt>
      <trkpt lat="45.74629" lon="-0.62035">
        <ele>7.35</ele>
        <time>2013-07-21T08:13:54Z</time>
      </trkpt>
      <trkpt lat="45.74626" lon="-0.62036">
        <ele>6.87</ele>
        <time>2013-07-21T08:13:55Z</time>
      </trkpt>
      <trkpt lat="45.74622" lon="-0.62036">
        <ele>7.35</ele>
        <time>2013-07-21T08:13:56Z</time>
      </trkpt>
      <trkpt lat="45.74618" lon="-0.62035">
        <ele>7.83</ele>
        <time>2013-07-21T08:13:57Z</time>
      </trkpt>
      <trkpt lat="45.74613" lon="-0.62035">
        <ele>7.83</ele>
        <time>2013-07-21T08:13:58Z</time>
      </trkpt>
      <trkpt lat="45.74609" lon="-0.62035">
        <ele>7.83</ele>
        <time>2013-07-21T08:13:59Z</time>
      </trkpt>
      <trkpt lat="45.74565" lon="-0.62039">
        <ele>9.75</ele>
        <time>2013-07-21T08:14:11Z</time>
      </trkpt>
      <trkpt lat="45.74563" lon="-0.62036">
        <ele>9.75</ele>
        <time>2013-07-21T08:14:12Z</time>
      </trkpt>
      <trkpt lat="45.74563" lon="-0.62032">
        <ele>10.23</ele>
        <time>2013-07-21T08:14:13Z</time>
      </trkpt>
      <trkpt lat="45.74565" lon="-0.6203">
        <ele>9.75</ele>
        <time>2013-07-21T08:14:14Z</time>
      </trkpt>
      <trkpt lat="45.74568" lon="-0.6203">
        <ele>9.75</ele>
        <time>2013-07-21T08:14:15Z</time>
      </trkpt>
      <trkpt lat="45.74571" lon="-0.62031">
        <ele>9.75</ele>
        <time>2013-07-21T08:14:16Z</time>
      </trkpt>
      <trkpt lat="45.74575" lon="-0.62032">
        <ele>9.27</ele>
        <time>2013-07-21T08:14:17Z</time>
      </trkpt>
      <trkpt lat="45.7458" lon="-0.62033">
        <ele>9.27</ele>
        <time>2013-07-21T08:14:18Z</time>
      </trkpt>
      <trkpt lat="45.74584" lon="-0.62032">
        <ele>8.79</ele>
        <time>2013-07-21T08:14:19Z</time>
      </trkpt>
      <trkpt lat="45.74589" lon="-0.62032">
        <ele>8.79</ele>
        <time>2013-07-21T08:14:20Z</time>
      </trkpt>
      <trkpt lat="45.74636" lon="-0.62022">
        <ele>6.87</ele>
        <time>2013-07-21T08:14:31Z</time>
      </trkpt>
      <trkpt lat="45.74647" lon="-0.62023">
        <ele>5.91</ele>
        <time>2013-07-21T08:14:39Z</time>
      </trkpt>
      <trkpt lat="45.74648" lon="-0.62025">
        <ele>6.39</ele>
        <time>2013-07-21T08:14:57Z</time>
      </trkpt>
      <trkpt lat="45.74648" lon="-0.62029">
        <ele>6.39</ele>
        <time>2013-07-21T08:15:00Z</time>
      </trkpt>
      <trkpt lat="45.74648" lon="-0.62031">
        <ele>5.91</ele>
        <time>2013-07-21T08:15:01Z</time>
      </trkpt>
      <trkpt lat="45.7465" lon="-0.62089">
        <ele>6.39</ele>
        <time>2013-07-21T08:15:15Z</time>
      </trkpt>
      <trkpt lat="45.74654" lon="-0.62164">
        <ele>6.39</ele>
        <time>2013-07-21T08:15:27Z</time>
      </trkpt>
      <trkpt lat="45.74659" lon="-0.62236">
        <ele>6.39</ele>
        <time>2013-07-21T08:15:38Z</time>
      </trkpt>
      <trkpt lat="45.74662" lon="-0.62275">
        <ele>6.39</ele>
        <time>2013-07-21T08:15:44Z</time>
      </trkpt>
      <trkpt lat="45.74664" lon="-0.6228">
        <ele>6.39</ele>
        <time>2013-07-21T08:15:45Z</time>
      </trkpt>
      <trkpt lat="45.74668" lon="-0.62284">
        <ele>6.39</ele>
        <time>2013-07-21T08:15:46Z</time>
      </trkpt>
      <trkpt lat="45.74672" lon="-0.62284">
        <ele>6.39</ele>
        <time>2013-07-21T08:15:47Z</time>
      </trkpt>
      <trkpt lat="45.74676" lon="-0.62283">
        <ele>5.91</ele>
        <time>2013-07-21T08:15:48Z</time>
      </trkpt>
      <trkpt lat="45.7468" lon="-0.6228">
        <ele>5.91</ele>
        <time>2013-07-21T08:15:49Z</time>
      </trkpt>
      <trkpt lat="45.74685" lon="-0.62275">
        <ele>5.91</ele>
        <time>2013-07-21T08:15:50Z</time>
      </trkpt>
      <trkpt lat="45.74749" lon="-0.62224">
        <ele>5.42</ele>
        <time>2013-07-21T08:16:02Z</time>
      </trkpt>
      <trkpt lat="45.74822" lon="-0.62163">
        <ele>4.94</ele>
        <time>2013-07-21T08:16:16Z</time>
      </trkpt>
      <trkpt lat="45.74832" lon="-0.62153">
        <ele>4.94</ele>
        <time>2013-07-21T08:16:18Z</time>
      </trkpt>
      <trkpt lat="45.74853" lon="-0.62136">
        <ele>5.42</ele>
        <time>2013-07-21T08:16:22Z</time>
      </trkpt>
      <trkpt lat="45.74857" lon="-0.6213">
        <ele>4.94</ele>
        <time>2013-07-21T08:16:23Z</time>
      </trkpt>
      <trkpt lat="45.74859" lon="-0.62122">
        <ele>4.94</ele>
        <time>2013-07-21T08:16:24Z</time>
      </trkpt>
      <trkpt lat="45.74859" lon="-0.62114">
        <ele>4.94</ele>
        <time>2013-07-21T08:16:25Z</time>
      </trkpt>
      <trkpt lat="45.74858" lon="-0.62105">
        <ele>5.42</ele>
        <time>2013-07-21T08:16:26Z</time>
      </trkpt>
      <trkpt lat="45.74857" lon="-0.62096">
        <ele>5.91</ele>
        <time>2013-07-21T08:16:27Z</time>
      </trkpt>
      <trkpt lat="45.74855" lon="-0.62087">
        <ele>5.91</ele>
        <time>2013-07-21T08:16:28Z</time>
      </trkpt>
      <trkpt lat="45.7484" lon="-0.61989">
        <ele>6.39</ele>
        <time>2013-07-21T08:16:39Z</time>
      </trkpt>
      <trkpt lat="45.74839" lon="-0.61981">
        <ele>6.39</ele>
        <time>2013-07-21T08:16:40Z</time>
      </trkpt>
      <trkpt lat="45.74837" lon="-0.61972">
        <ele>6.39</ele>
        <time>2013-07-21T08:16:41Z</time>
      </trkpt>
      <trkpt lat="45.7483" lon="-0.61931">
        <ele>7.83</ele>
        <time>2013-07-21T08:16:46Z</time>
      </trkpt>
      <trkpt lat="45.74828" lon="-0.61923">
        <ele>8.31</ele>
        <time>2013-07-21T08:16:47Z</time>
      </trkpt>
      <trkpt lat="45.74816" lon="-0.61836">
        <ele>8.79</ele>
        <time>2013-07-21T08:17:01Z</time>
      </trkpt>
      <trkpt lat="45.74818" lon="-0.61833">
        <ele>9.27</ele>
        <time>2013-07-21T08:17:02Z</time>
      </trkpt>
      <trkpt lat="45.7482" lon="-0.61831">
        <ele>9.27</ele>
        <time>2013-07-21T08:17:03Z</time>
      </trkpt>
      <trkpt lat="45.74822" lon="-0.61829">
        <ele>8.79</ele>
        <time>2013-07-21T08:17:04Z</time>
      </trkpt>
      <trkpt lat="45.74825" lon="-0.61828">
        <ele>8.79</ele>
        <time>2013-07-21T08:17:05Z</time>
      </trkpt>
      <trkpt lat="45.74827" lon="-0.61828">
        <ele>8.79</ele>
        <time>2013-07-21T08:17:06Z</time>
      </trkpt>
      <trkpt lat="45.74854" lon="-0.61809">
        <ele>9.75</ele>
        <time>2013-07-21T08:17:18Z</time>
      </trkpt>
      <trkpt lat="45.74874" lon="-0.61799">
        <ele>9.75</ele>
        <time>2013-07-21T08:17:30Z</time>
      </trkpt>
      <trkpt lat="45.74876" lon="-0.61798">
        <ele>9.75</ele>
        <time>2013-07-21T08:17:48Z</time>
      </trkpt>
      <trkpt lat="45.74876" lon="-0.61799">
        <ele>9.75</ele>
        <time>2013-07-21T08:18:07Z</time>
      </trkpt>
    </trkseg>
  </trk>
  <trk>
    <name><![CDATA[Tracé 001]]></name>
    <trkseg>
      <trkpt lat="45.65352" lon="0.16471">
        <ele>38.59</ele>
        <time>2013-07-21T10:12:43Z</time>
      </trkpt>
      <trkpt lat="45.65351" lon="0.16471">
        <ele>38.59</ele>
        <time>2013-07-21T10:12:44Z</time>
      </trkpt>
      <trkpt lat="45.65345" lon="0.16499">
        <ele>41.47</ele>
        <time>2013-07-21T10:12:59Z</time>
      </trkpt>
      <trkpt lat="45.65344" lon="0.16503">
        <ele>44.84</ele>
        <time>2013-07-21T10:13:12Z</time>
      </trkpt>
      <trkpt lat="45.65348" lon="0.16482">
        <ele>48.2</ele>
        <time>2013-07-21T10:13:26Z</time>
      </trkpt>
      <trkpt lat="45.65348" lon="0.16482">
        <ele>48.2</ele>
        <time>2013-07-21T10:13:29Z</time>
      </trkpt>
      <trkpt lat="45.65343" lon="0.1648">
        <ele>48.2</ele>
        <time>2013-07-21T10:13:34Z</time>
      </trkpt>
      <trkpt lat="45.65317" lon="0.16479">
        <ele>49.65</ele>
        <time>2013-07-21T10:13:46Z</time>
      </trkpt>
      <trkpt lat="45.65313" lon="0.16479">
        <ele>49.65</ele>
        <time>2013-07-21T10:13:47Z</time>
      </trkpt>
      <trkpt lat="45.6531" lon="0.16476">
        <ele>49.65</ele>
        <time>2013-07-21T10:13:48Z</time>
      </trkpt>
      <trkpt lat="45.65277" lon="0.16417">
        <ele>52.05</ele>
        <time>2013-07-21T10:14:02Z</time>
      </trkpt>
      <trkpt lat="45.65243" lon="0.16364">
        <ele>55.41</ele>
        <time>2013-07-21T10:14:16Z</time>
      </trkpt>
      <trkpt lat="45.65199" lon="0.16304">
        <ele>58.3</ele>
        <time>2013-07-21T10:14:33Z</time>
      </trkpt>
      <trkpt lat="45.65185" lon="0.16295">
        <ele>59.26</ele>
        <time>2013-07-21T10:14:38Z</time>
      </trkpt>
      <trkpt lat="45.65182" lon="0.16297">
        <ele>59.74</ele>
        <time>2013-07-21T10:14:39Z</time>
      </trkpt>
      <trkpt lat="45.65179" lon="0.163">
        <ele>60.22</ele>
        <time>2013-07-21T10:14:40Z</time>
      </trkpt>
      <trkpt lat="45.65177" lon="0.16304">
        <ele>60.22</ele>
        <time>2013-07-21T10:14:41Z</time>
      </trkpt>
      <trkpt lat="45.65175" lon="0.16309">
        <ele>60.22</ele>
        <time>2013-07-21T10:14:42Z</time>
      </trkpt>
      <trkpt lat="45.65159" lon="0.16377">
        <ele>62.14</ele>
        <time>2013-07-21T10:14:55Z</time>
      </trkpt>
      <trkpt lat="45.65147" lon="0.16438">
        <ele>64.55</ele>
        <time>2013-07-21T10:15:06Z</time>
      </trkpt>
      <trkpt lat="45.6513" lon="0.16528">
        <ele>66.47</ele>
        <time>2013-07-21T10:15:22Z</time>
      </trkpt>
      <trkpt lat="45.65125" lon="0.16558">
        <ele>67.43</ele>
        <time>2013-07-21T10:15:27Z</time>
      </trkpt>
      <trkpt lat="45.65119" lon="0.16598">
        <ele>68.39</ele>
        <time>2013-07-21T10:15:34Z</time>
      </trkpt>
      <trkpt lat="45.65118" lon="0.16604">
        <ele>68.39</ele>
        <time>2013-07-21T10:15:35Z</time>
      </trkpt>
      <trkpt lat="45.65119" lon="0.16647">
        <ele>69.83</ele>
        <time>2013-07-21T10:15:42Z</time>
      </trkpt>
      <trkpt lat="45.65118" lon="0.16658">
        <ele>69.83</ele>
        <time>2013-07-21T10:15:44Z</time>
      </trkpt>
      <trkpt lat="45.65118" lon="0.1673">
        <ele>72.24</ele>
        <time>2013-07-21T10:15:56Z</time>
      </trkpt>
      <trkpt lat="45.65118" lon="0.16742">
        <ele>72.72</ele>
        <time>2013-07-21T10:15:58Z</time>
      </trkpt>
      <trkpt lat="45.65117" lon="0.1684">
        <ele>75.12</ele>
        <time>2013-07-21T10:16:15Z</time>
      </trkpt>
      <trkpt lat="45.65116" lon="0.1694">
        <ele>77.52</ele>
        <time>2013-07-21T10:16:30Z</time>
      </trkpt>
      <trkpt lat="45.65116" lon="0.17027">
        <ele>79.45</ele>
        <time>2013-07-21T10:16:43Z</time>
      </trkpt>
      <trkpt lat="45.65116" lon="0.17033">
        <ele>79.93</ele>
        <time>2013-07-21T10:16:44Z</time>
      </trkpt>
      <trkpt lat="45.65115" lon="0.1704">
        <ele>79.93</ele>
        <time>2013-07-21T10:16:45Z</time>
      </trkpt>
      <trkpt lat="45.65108" lon="0.1709">
        <ele>80.89</ele>
        <time>2013-07-21T10:16:53Z</time>
      </trkpt>
      <trkpt lat="45.65065" lon="0.17179">
        <ele>83.29</ele>
        <time>2013-07-21T10:17:10Z</time>
      </trkpt>
      <trkpt lat="45.65018" lon="0.17256">
        <ele>86.18</ele>
        <time>2013-07-21T10:17:27Z</time>
      </trkpt>
      <trkpt lat="45.64974" lon="0.17325">
        <ele>89.54</ele>
        <time>2013-07-21T10:17:43Z</time>
      </trkpt>
      <trkpt lat="45.64927" lon="0.1737">
        <ele>90.02</ele>
        <time>2013-07-21T10:17:58Z</time>
      </trkpt>
      <trkpt lat="45.64922" lon="0.17369">
        <ele>90.5</ele>
        <time>2013-07-21T10:18:00Z</time>
      </trkpt>
      <trkpt lat="45.64909" lon="0.17363">
        <ele>91.46</ele>
        <time>2013-07-21T10:18:04Z</time>
      </trkpt>
      <trkpt lat="45.64905" lon="0.17362">
        <ele>91.46</ele>
        <time>2013-07-21T10:18:05Z</time>
      </trkpt>
      <trkpt lat="45.649" lon="0.17362">
        <ele>91.46</ele>
        <time>2013-07-21T10:18:06Z</time>
      </trkpt>
      <trkpt lat="45.64886" lon="0.17364">
        <ele>91.46</ele>
        <time>2013-07-21T10:18:09Z</time>
      </trkpt>
      <trkpt lat="45.64881" lon="0.17364">
        <ele>91.94</ele>
        <time>2013-07-21T10:18:10Z</time>
      </trkpt>
      <trkpt lat="45.64876" lon="0.17364">
        <ele>91.46</ele>
        <time>2013-07-21T10:18:11Z</time>
      </trkpt>
      <trkpt lat="45.64871" lon="0.17363">
        <ele>91.46</ele>
        <time>2013-07-21T10:18:12Z</time>
      </trkpt>
      <trkpt lat="45.64866" lon="0.17361">
        <ele>91.46</ele>
        <time>2013-07-21T10:18:13Z</time>
      </trkpt>
      <trkpt lat="45.64783" lon="0.1733">
        <ele>92.9</ele>
        <time>2013-07-21T10:18:30Z</time>
      </trkpt>
      <trkpt lat="45.64711" lon="0.17302">
        <ele>94.35</ele>
        <time>2013-07-21T10:18:45Z</time>
      </trkpt>
      <trkpt lat="45.64667" lon="0.17287">
        <ele>93.87</ele>
        <time>2013-07-21T10:19:00Z</time>
      </trkpt>
      <trkpt lat="45.64666" lon="0.17284">
        <ele>93.39</ele>
        <time>2013-07-21T10:19:14Z</time>
      </trkpt>
      <trkpt lat="45.64652" lon="0.17276">
        <ele>94.35</ele>
        <time>2013-07-21T10:19:31Z</time>
      </trkpt>
      <trkpt lat="45.64605" lon="0.17253">
        <ele>96.27</ele>
        <time>2013-07-21T10:19:42Z</time>
      </trkpt>
      <trkpt lat="45.646" lon="0.17253">
        <ele>96.27</ele>
        <time>2013-07-21T10:19:43Z</time>
      </trkpt>
      <trkpt lat="45.64596" lon="0.17253">
        <ele>96.27</ele>
        <time>2013-07-21T10:19:44Z</time>
      </trkpt>
      <trkpt lat="45.64592" lon="0.17255">
        <ele>96.75</ele>
        <time>2013-07-21T10:19:45Z</time>
      </trkpt>
      <trkpt lat="45.64588" lon="0.17258">
        <ele>97.23</ele>
        <time>2013-07-21T10:19:46Z</time>
      </trkpt>
      <trkpt lat="45.64584" lon="0.17262">
        <ele>97.23</ele>
        <time>2013-07-21T10:19:47Z</time>
      </trkpt>
      <trkpt lat="45.64581" lon="0.17266">
        <ele>97.71</ele>
        <time>2013-07-21T10:19:48Z</time>
      </trkpt>
      <trkpt lat="45.64578" lon="0.17272">
        <ele>97.23</ele>
        <time>2013-07-21T10:19:49Z</time>
      </trkpt>
      <trkpt lat="45.64576" lon="0.17278">
        <ele>97.71</ele>
        <time>2013-07-21T10:19:50Z</time>
      </trkpt>
      <trkpt lat="45.64573" lon="0.17284">
        <ele>97.71</ele>
        <time>2013-07-21T10:19:51Z</time>
      </trkpt>
      <trkpt lat="45.64571" lon="0.1729">
        <ele>97.71</ele>
        <time>2013-07-21T10:19:52Z</time>
      </trkpt>
      <trkpt lat="45.64569" lon="0.17296">
        <ele>97.71</ele>
        <time>2013-07-21T10:19:53Z</time>
      </trkpt>
      <trkpt lat="45.64567" lon="0.17303">
        <ele>97.71</ele>
        <time>2013-07-21T10:19:54Z</time>
      </trkpt>
      <trkpt lat="45.64565" lon="0.1731">
        <ele>97.71</ele>
        <time>2013-07-21T10:19:55Z</time>
      </trkpt>
      <trkpt lat="45.64564" lon="0.17317">
        <ele>97.71</ele>
        <time>2013-07-21T10:19:56Z</time>
      </trkpt>
      <trkpt lat="45.64562" lon="0.17324">
        <ele>98.19</ele>
        <time>2013-07-21T10:19:57Z</time>
      </trkpt>
      <trkpt lat="45.64536" lon="0.17435">
        <ele>99.63</ele>
        <time>2013-07-21T10:20:13Z</time>
      </trkpt>
      <trkpt lat="45.64534" lon="0.17442">
        <ele>99.63</ele>
        <time>2013-07-21T10:20:14Z</time>
      </trkpt>
      <trkpt lat="45.64517" lon="0.17512">
        <ele>100.11</ele>
        <time>2013-07-21T10:20:27Z</time>
      </trkpt>
      <trkpt lat="45.64505" lon="0.17563">
        <ele>101.08</ele>
        <time>2013-07-21T10:20:37Z</time>
      </trkpt>
      <trkpt lat="45.64478" lon="0.17678">
        <ele>103.96</ele>
        <time>2013-07-21T10:20:55Z</time>
      </trkpt>
      <trkpt lat="45.6447" lon="0.17715">
        <ele>104.44</ele>
        <time>2013-07-21T10:21:01Z</time>
      </trkpt>
      <trkpt lat="45.64459" lon="0.17763">
        <ele>105.88</ele>
        <time>2013-07-21T10:21:09Z</time>
      </trkpt>
      <trkpt lat="45.64458" lon="0.17769">
        <ele>105.88</ele>
        <time>2013-07-21T10:21:10Z</time>
      </trkpt>
      <trkpt lat="45.64453" lon="0.17785">
        <ele>106.84</ele>
        <time>2013-07-21T10:21:13Z</time>
      </trkpt>
      <trkpt lat="45.64451" lon="0.17791">
        <ele>106.84</ele>
        <time>2013-07-21T10:21:14Z</time>
      </trkpt>
      <trkpt lat="45.64432" lon="0.1787">
        <ele>109.73</ele>
        <time>2013-07-21T10:21:29Z</time>
      </trkpt>
      <trkpt lat="45.64447" lon="0.17906">
        <ele>110.69</ele>
        <time>2013-07-21T10:21:38Z</time>
      </trkpt>
      <trkpt lat="45.64482" lon="0.17919">
        <ele>111.17</ele>
        <time>2013-07-21T10:21:47Z</time>
      </trkpt>
      <trkpt lat="45.64485" lon="0.17923">
        <ele>110.69</ele>
        <time>2013-07-21T10:21:48Z</time>
      </trkpt>
      <trkpt lat="45.64487" lon="0.17928">
        <ele>111.17</ele>
        <time>2013-07-21T10:21:49Z</time>
      </trkpt>
      <trkpt lat="45.64487" lon="0.17933">
        <ele>111.65</ele>
        <time>2013-07-21T10:21:50Z</time>
      </trkpt>
      <trkpt lat="45.64486" lon="0.17939">
        <ele>111.65</ele>
        <time>2013-07-21T10:21:51Z</time>
      </trkpt>
      <trkpt lat="45.64484" lon="0.17945">
        <ele>112.13</ele>
        <time>2013-07-21T10:21:52Z</time>
      </trkpt>
      <trkpt lat="45.64483" lon="0.1795">
        <ele>112.13</ele>
        <time>2013-07-21T10:21:53Z</time>
      </trkpt>
      <trkpt lat="45.64481" lon="0.17956">
        <ele>112.13</ele>
        <time>2013-07-21T10:21:54Z</time>
      </trkpt>
      <trkpt lat="45.64461" lon="0.18042">
        <ele>115.01</ele>
        <time>2013-07-21T10:22:09Z</time>
      </trkpt>
      <trkpt lat="45.64447" lon="0.18114">
        <ele>117.9</ele>
        <time>2013-07-21T10:22:22Z</time>
      </trkpt>
      <trkpt lat="45.64446" lon="0.18119">
        <ele>118.38</ele>
        <time>2013-07-21T10:22:23Z</time>
      </trkpt>
      <trkpt lat="45.64439" lon="0.18134">
        <ele>118.86</ele>
        <time>2013-07-21T10:22:26Z</time>
      </trkpt>
      <trkpt lat="45.64427" lon="0.18177">
        <ele>120.3</ele>
        <time>2013-07-21T10:22:34Z</time>
      </trkpt>
      <trkpt lat="45.64425" lon="0.18183">
        <ele>120.3</ele>
        <time>2013-07-21T10:22:35Z</time>
      </trkpt>
      <trkpt lat="45.64404" lon="0.18268">
        <ele>123.19</ele>
        <time>2013-07-21T10:22:50Z</time>
      </trkpt>
      <trkpt lat="45.64399" lon="0.18285">
        <ele>123.67</ele>
        <time>2013-07-21T10:22:53Z</time>
      </trkpt>
      <trkpt lat="45.64398" lon="0.1829">
        <ele>123.67</ele>
        <time>2013-07-21T10:22:54Z</time>
      </trkpt>
      <trkpt lat="45.64375" lon="0.18391">
        <ele>126.55</ele>
        <time>2013-07-21T10:23:12Z</time>
      </trkpt>
      <trkpt lat="45.64362" lon="0.18451">
        <ele>127.99</ele>
        <time>2013-07-21T10:23:23Z</time>
      </trkpt>
      <trkpt lat="45.64338" lon="0.18555">
        <ele>128.95</ele>
        <time>2013-07-21T10:23:40Z</time>
      </trkpt>
      <trkpt lat="45.64308" lon="0.18681">
        <ele>129.43</ele>
        <time>2013-07-21T10:23:57Z</time>
      </trkpt>
      <trkpt lat="45.64292" lon="0.18757">
        <ele>129.43</ele>
        <time>2013-07-21T10:24:10Z</time>
      </trkpt>
      <trkpt lat="45.64281" lon="0.18809">
        <ele>129.92</ele>
        <time>2013-07-21T10:24:19Z</time>
      </trkpt>
      <trkpt lat="45.64248" lon="0.18937">
        <ele>131.84</ele>
        <time>2013-07-21T10:24:37Z</time>
      </trkpt>
      <trkpt lat="45.64218" lon="0.19064">
        <ele>133.28</ele>
        <time>2013-07-21T10:24:55Z</time>
      </trkpt>
      <trkpt lat="45.64193" lon="0.19174">
        <ele>133.76</ele>
        <time>2013-07-21T10:25:11Z</time>
      </trkpt>
      <trkpt lat="45.64164" lon="0.19284">
        <ele>133.28</ele>
        <time>2013-07-21T10:25:26Z</time>
      </trkpt>
      <trkpt lat="45.6415" lon="0.19345">
        <ele>133.76</ele>
        <time>2013-07-21T10:25:34Z</time>
      </trkpt>
      <trkpt lat="45.64115" lon="0.1949">
        <ele>134.72</ele>
        <time>2013-07-21T10:25:53Z</time>
      </trkpt>
      <trkpt lat="45.64087" lon="0.19597">
        <ele>135.68</ele>
        <time>2013-07-21T10:26:08Z</time>
      </trkpt>
      <trkpt lat="45.64056" lon="0.19718">
        <ele>134.24</ele>
        <time>2013-07-21T10:26:25Z</time>
      </trkpt>
      <trkpt lat="45.64024" lon="0.19823">
        <ele>133.28</ele>
        <time>2013-07-21T10:26:40Z</time>
      </trkpt>
      <trkpt lat="45.63976" lon="0.19954">
        <ele>131.36</ele>
        <time>2013-07-21T10:26:55Z</time>
      </trkpt>
      <trkpt lat="45.63942" lon="0.20034">
        <ele>128.47</ele>
        <time>2013-07-21T10:27:04Z</time>
      </trkpt>
      <trkpt lat="45.63881" lon="0.20173">
        <ele>127.03</ele>
        <time>2013-07-21T10:27:20Z</time>
      </trkpt>
      <trkpt lat="45.63844" lon="0.20249">
        <ele>126.55</ele>
        <time>2013-07-21T10:27:30Z</time>
      </trkpt>
      <trkpt lat="45.6383" lon="0.20267">
        <ele>126.55</ele>
        <time>2013-07-21T10:27:33Z</time>
      </trkpt>
      <trkpt lat="45.63826" lon="0.20274">
        <ele>126.55</ele>
        <time>2013-07-21T10:27:34Z</time>
      </trkpt>
      <trkpt lat="45.63824" lon="0.20282">
        <ele>126.55</ele>
        <time>2013-07-21T10:27:35Z</time>
      </trkpt>
      <trkpt lat="45.63819" lon="0.20308">
        <ele>126.55</ele>
        <time>2013-07-21T10:27:38Z</time>
      </trkpt>
      <trkpt lat="45.63817" lon="0.20316">
        <ele>127.03</ele>
        <time>2013-07-21T10:27:39Z</time>
      </trkpt>
      <trkpt lat="45.63765" lon="0.20437">
        <ele>128.95</ele>
        <time>2013-07-21T10:27:56Z</time>
      </trkpt>
      <trkpt lat="45.6371" lon="0.2056">
        <ele>130.88</ele>
        <time>2013-07-21T10:28:15Z</time>
      </trkpt>
      <trkpt lat="45.63654" lon="0.20689">
        <ele>130.88</ele>
        <time>2013-07-21T10:28:34Z</time>
      </trkpt>
      <trkpt lat="45.63587" lon="0.20839">
        <ele>129.43</ele>
        <time>2013-07-21T10:28:54Z</time>
      </trkpt>
      <trkpt lat="45.63542" lon="0.20937">
        <ele>129.43</ele>
        <time>2013-07-21T10:29:08Z</time>
      </trkpt>
      <trkpt lat="45.63535" lon="0.2095">
        <ele>129.43</ele>
        <time>2013-07-21T10:29:10Z</time>
      </trkpt>
      <trkpt lat="45.63533" lon="0.20958">
        <ele>129.43</ele>
        <time>2013-07-21T10:29:11Z</time>
      </trkpt>
      <trkpt lat="45.63532" lon="0.20966">
        <ele>129.43</ele>
        <time>2013-07-21T10:29:12Z</time>
      </trkpt>
      <trkpt lat="45.6353" lon="0.20982">
        <ele>129.43</ele>
        <time>2013-07-21T10:29:14Z</time>
      </trkpt>
      <trkpt lat="45.63528" lon="0.2099">
        <ele>129.43</ele>
        <time>2013-07-21T10:29:15Z</time>
      </trkpt>
      <trkpt lat="45.63525" lon="0.20997">
        <ele>129.43</ele>
        <time>2013-07-21T10:29:16Z</time>
      </trkpt>
      <trkpt lat="45.63505" lon="0.2103">
        <ele>129.92</ele>
        <time>2013-07-21T10:29:21Z</time>
      </trkpt>
      <trkpt lat="45.63438" lon="0.21166">
        <ele>129.92</ele>
        <time>2013-07-21T10:29:40Z</time>
      </trkpt>
      <trkpt lat="45.63426" lon="0.21182">
        <ele>129.43</ele>
        <time>2013-07-21T10:29:43Z</time>
      </trkpt>
      <trkpt lat="45.63422" lon="0.21187">
        <ele>129.43</ele>
        <time>2013-07-21T10:29:44Z</time>
      </trkpt>
      <trkpt lat="45.63417" lon="0.2119">
        <ele>130.4</ele>
        <time>2013-07-21T10:29:45Z</time>
      </trkpt>
      <trkpt lat="45.63412" lon="0.21191">
        <ele>129.92</ele>
        <time>2013-07-21T10:29:46Z</time>
      </trkpt>
      <trkpt lat="45.63407" lon="0.21192">
        <ele>129.43</ele>
        <time>2013-07-21T10:29:47Z</time>
      </trkpt>
      <trkpt lat="45.63401" lon="0.21191">
        <ele>129.92</ele>
        <time>2013-07-21T10:29:48Z</time>
      </trkpt>
      <trkpt lat="45.63396" lon="0.21192">
        <ele>129.43</ele>
        <time>2013-07-21T10:29:49Z</time>
      </trkpt>
      <trkpt lat="45.6339" lon="0.21193">
        <ele>129.43</ele>
        <time>2013-07-21T10:29:50Z</time>
      </trkpt>
      <trkpt lat="45.63385" lon="0.21196">
        <ele>129.92</ele>
        <time>2013-07-21T10:29:51Z</time>
      </trkpt>
      <trkpt lat="45.6338" lon="0.212">
        <ele>129.43</ele>
        <time>2013-07-21T10:29:52Z</time>
      </trkpt>
      <trkpt lat="45.63375" lon="0.21204">
        <ele>128.95</ele>
        <time>2013-07-21T10:29:53Z</time>
      </trkpt>
      <trkpt lat="45.63371" lon="0.21209">
        <ele>128.47</ele>
        <time>2013-07-21T10:29:54Z</time>
      </trkpt>
      <trkpt lat="45.63367" lon="0.21215">
        <ele>128.47</ele>
        <time>2013-07-21T10:29:55Z</time>
      </trkpt>
      <trkpt lat="45.63364" lon="0.2122">
        <ele>128.47</ele>
        <time>2013-07-21T10:29:56Z</time>
      </trkpt>
      <trkpt lat="45.63358" lon="0.21231">
        <ele>128.47</ele>
        <time>2013-07-21T10:29:58Z</time>
      </trkpt>
      <trkpt lat="45.63355" lon="0.21235">
        <ele>128.47</ele>
        <time>2013-07-21T10:29:59Z</time>
      </trkpt>
      <trkpt lat="45.63352" lon="0.21239">
        <ele>128.47</ele>
        <time>2013-07-21T10:30:00Z</time>
      </trkpt>
      <trkpt lat="45.63348" lon="0.21241">
        <ele>128.47</ele>
        <time>2013-07-21T10:30:01Z</time>
      </trkpt>
      <trkpt lat="45.63343" lon="0.21243">
        <ele>128.95</ele>
        <time>2013-07-21T10:30:02Z</time>
      </trkpt>
      <trkpt lat="45.63339" lon="0.21244">
        <ele>129.43</ele>
        <time>2013-07-21T10:30:03Z</time>
      </trkpt>
      <trkpt lat="45.63334" lon="0.21246">
        <ele>128.95</ele>
        <time>2013-07-21T10:30:04Z</time>
      </trkpt>
      <trkpt lat="45.63329" lon="0.2125">
        <ele>129.43</ele>
        <time>2013-07-21T10:30:05Z</time>
      </trkpt>
      <trkpt lat="45.63326" lon="0.21255">
        <ele>128.95</ele>
        <time>2013-07-21T10:30:06Z</time>
      </trkpt>
      <trkpt lat="45.63323" lon="0.21262">
        <ele>128.47</ele>
        <time>2013-07-21T10:30:07Z</time>
      </trkpt>
      <trkpt lat="45.63321" lon="0.21269">
        <ele>128.47</ele>
        <time>2013-07-21T10:30:08Z</time>
      </trkpt>
      <trkpt lat="45.6332" lon="0.21277">
        <ele>127.99</ele>
        <time>2013-07-21T10:30:09Z</time>
      </trkpt>
      <trkpt lat="45.63321" lon="0.21284">
        <ele>127.99</ele>
        <time>2013-07-21T10:30:10Z</time>
      </trkpt>
      <trkpt lat="45.63322" lon="0.21291">
        <ele>128.47</ele>
        <time>2013-07-21T10:30:11Z</time>
      </trkpt>
      <trkpt lat="45.63323" lon="0.21298">
        <ele>128.47</ele>
        <time>2013-07-21T10:30:12Z</time>
      </trkpt>
      <trkpt lat="45.63325" lon="0.21304">
        <ele>128.47</ele>
        <time>2013-07-21T10:30:13Z</time>
      </trkpt>
      <trkpt lat="45.63326" lon="0.21311">
        <ele>127.99</ele>
        <time>2013-07-21T10:30:14Z</time>
      </trkpt>
      <trkpt lat="45.63326" lon="0.21317">
        <ele>128.47</ele>
        <time>2013-07-21T10:30:15Z</time>
      </trkpt>
      <trkpt lat="45.63324" lon="0.21321">
        <ele>128.47</ele>
        <time>2013-07-21T10:30:16Z</time>
      </trkpt>
      <trkpt lat="45.63321" lon="0.21324">
        <ele>128.47</ele>
        <time>2013-07-21T10:30:17Z</time>
      </trkpt>
      <trkpt lat="45.63318" lon="0.21325">
        <ele>127.99</ele>
        <time>2013-07-21T10:30:18Z</time>
      </trkpt>
      <trkpt lat="45.63315" lon="0.21322">
        <ele>127.99</ele>
        <time>2013-07-21T10:30:19Z</time>
      </trkpt>
      <trkpt lat="45.63313" lon="0.21318">
        <ele>127.51</ele>
        <time>2013-07-21T10:30:20Z</time>
      </trkpt>
      <trkpt lat="45.63312" lon="0.21312">
        <ele>127.51</ele>
        <time>2013-07-21T10:30:21Z</time>
      </trkpt>
      <trkpt lat="45.63313" lon="0.21306">
        <ele>127.03</ele>
        <time>2013-07-21T10:30:22Z</time>
      </trkpt>
      <trkpt lat="45.63313" lon="0.21299">
        <ele>127.03</ele>
        <time>2013-07-21T10:30:23Z</time>
      </trkpt>
      <trkpt lat="45.63314" lon="0.21292">
        <ele>127.03</ele>
        <time>2013-07-21T10:30:24Z</time>
      </trkpt>
      <trkpt lat="45.63313" lon="0.21285">
        <ele>127.03</ele>
        <time>2013-07-21T10:30:25Z</time>
      </trkpt>
      <trkpt lat="45.63313" lon="0.21277">
        <ele>127.51</ele>
        <time>2013-07-21T10:30:26Z</time>
      </trkpt>
      <trkpt lat="45.63314" lon="0.2127">
        <ele>127.03</ele>
        <time>2013-07-21T10:30:27Z</time>
      </trkpt>
      <trkpt lat="45.63315" lon="0.21263">
        <ele>126.55</ele>
        <time>2013-07-21T10:30:28Z</time>
      </trkpt>
      <trkpt lat="45.63316" lon="0.21256">
        <ele>126.07</ele>
        <time>2013-07-21T10:30:29Z</time>
      </trkpt>
      <trkpt lat="45.63317" lon="0.2125">
        <ele>127.03</ele>
        <time>2013-07-21T10:30:30Z</time>
      </trkpt>
      <trkpt lat="45.63318" lon="0.21244">
        <ele>126.07</ele>
        <time>2013-07-21T10:30:31Z</time>
      </trkpt>
      <trkpt lat="45.63318" lon="0.2124">
        <ele>126.07</ele>
        <time>2013-07-21T10:30:32Z</time>
      </trkpt>
      <trkpt lat="45.63319" lon="0.21232">
        <ele>126.07</ele>
        <time>2013-07-21T10:30:40Z</time>
      </trkpt>
      <trkpt lat="45.63319" lon="0.21232">
        <ele>126.07</ele>
        <time>2013-07-21T10:30:41Z</time>
      </trkpt>
      <trkpt lat="45.63319" lon="0.21232">
        <ele>125.59</ele>
        <time>2013-07-21T10:48:37Z</time>
      </trkpt>
      <trkpt lat="45.6332" lon="0.21233">
        <ele>125.59</ele>
        <time>2013-07-21T10:48:43Z</time>
      </trkpt>
      <trkpt lat="45.6332" lon="0.21233">
        <ele>128.47</ele>
        <time>2013-07-21T10:48:55Z</time>
      </trkpt>
      <trkpt lat="45.63318" lon="0.21235">
        <ele>130.4</ele>
        <time>2013-07-21T10:49:13Z</time>
      </trkpt>
      <trkpt lat="45.63319" lon="0.21237">
        <ele>130.88</ele>
        <time>2013-07-21T10:49:17Z</time>
      </trkpt>
      <trkpt lat="45.63318" lon="0.21246">
        <ele>131.36</ele>
        <time>2013-07-21T10:49:21Z</time>
      </trkpt>
      <trkpt lat="45.63317" lon="0.21249">
        <ele>131.84</ele>
        <time>2013-07-21T10:49:22Z</time>
      </trkpt>
      <trkpt lat="45.63315" lon="0.21251">
        <ele>125.59</ele>
        <time>2013-07-21T10:49:23Z</time>
      </trkpt>
      <trkpt lat="45.63314" lon="0.21254">
        <ele>131.84</ele>
        <time>2013-07-21T10:49:24Z</time>
      </trkpt>
      <trkpt lat="45.63313" lon="0.21258">
        <ele>131.84</ele>
        <time>2013-07-21T10:49:25Z</time>
      </trkpt>
      <trkpt lat="45.63312" lon="0.21262">
        <ele>132.32</ele>
        <time>2013-07-21T10:49:26Z</time>
      </trkpt>
      <trkpt lat="45.63312" lon="0.21323">
        <ele>132.8</ele>
        <time>2013-07-21T10:49:39Z</time>
      </trkpt>
      <trkpt lat="45.63324" lon="0.21331">
        <ele>133.28</ele>
        <time>2013-07-21T10:49:43Z</time>
      </trkpt>
      <trkpt lat="45.63327" lon="0.2133">
        <ele>132.8</ele>
        <time>2013-07-21T10:49:44Z</time>
      </trkpt>
      <trkpt lat="45.6333" lon="0.21327">
        <ele>132.8</ele>
        <time>2013-07-21T10:49:45Z</time>
      </trkpt>
      <trkpt lat="45.63332" lon="0.21323">
        <ele>132.8</ele>
        <time>2013-07-21T10:49:46Z</time>
      </trkpt>
      <trkpt lat="45.63333" lon="0.21318">
        <ele>132.8</ele>
        <time>2013-07-21T10:49:47Z</time>
      </trkpt>
      <trkpt lat="45.63333" lon="0.21312">
        <ele>133.28</ele>
        <time>2013-07-21T10:49:48Z</time>
      </trkpt>
      <trkpt lat="45.63333" lon="0.21306">
        <ele>132.8</ele>
        <time>2013-07-21T10:49:49Z</time>
      </trkpt>
      <trkpt lat="45.63332" lon="0.21299">
        <ele>132.32</ele>
        <time>2013-07-21T10:49:50Z</time>
      </trkpt>
      <trkpt lat="45.6333" lon="0.21292">
        <ele>132.8</ele>
        <time>2013-07-21T10:49:51Z</time>
      </trkpt>
      <trkpt lat="45.6333" lon="0.21285">
        <ele>132.8</ele>
        <time>2013-07-21T10:49:52Z</time>
      </trkpt>
      <trkpt lat="45.6333" lon="0.21278">
        <ele>132.8</ele>
        <time>2013-07-21T10:49:53Z</time>
      </trkpt>
      <trkpt lat="45.63332" lon="0.21272">
        <ele>132.8</ele>
        <time>2013-07-21T10:49:54Z</time>
      </trkpt>
      <trkpt lat="45.63335" lon="0.21266">
        <ele>132.32</ele>
        <time>2013-07-21T10:49:55Z</time>
      </trkpt>
      <trkpt lat="45.63339" lon="0.21261">
        <ele>132.32</ele>
        <time>2013-07-21T10:49:56Z</time>
      </trkpt>
      <trkpt lat="45.63343" lon="0.21259">
        <ele>132.8</ele>
        <time>2013-07-21T10:49:57Z</time>
      </trkpt>
      <trkpt lat="45.63348" lon="0.21257">
        <ele>132.8</ele>
        <time>2013-07-21T10:49:58Z</time>
      </trkpt>
      <trkpt lat="45.63353" lon="0.21258">
        <ele>133.28</ele>
        <time>2013-07-21T10:49:59Z</time>
      </trkpt>
      <trkpt lat="45.63357" lon="0.2126">
        <ele>133.28</ele>
        <time>2013-07-21T10:50:00Z</time>
      </trkpt>
      <trkpt lat="45.63361" lon="0.21265">
        <ele>133.76</ele>
        <time>2013-07-21T10:50:01Z</time>
      </trkpt>
      <trkpt lat="45.63363" lon="0.2127">
        <ele>134.24</ele>
        <time>2013-07-21T10:50:02Z</time>
      </trkpt>
      <trkpt lat="45.63365" lon="0.21276">
        <ele>134.24</ele>
        <time>2013-07-21T10:50:03Z</time>
      </trkpt>
      <trkpt lat="45.63366" lon="0.21282">
        <ele>134.72</ele>
        <time>2013-07-21T10:50:04Z</time>
      </trkpt>
      <trkpt lat="45.63367" lon="0.21289">
        <ele>135.2</ele>
        <time>2013-07-21T10:50:05Z</time>
      </trkpt>
      <trkpt lat="45.63368" lon="0.21296">
        <ele>134.72</ele>
        <time>2013-07-21T10:50:06Z</time>
      </trkpt>
      <trkpt lat="45.63368" lon="0.21303">
        <ele>135.2</ele>
        <time>2013-07-21T10:50:07Z</time>
      </trkpt>
      <trkpt lat="45.63366" lon="0.21309">
        <ele>135.2</ele>
        <time>2013-07-21T10:50:08Z</time>
      </trkpt>
      <trkpt lat="45.63364" lon="0.21315">
        <ele>135.2</ele>
        <time>2013-07-21T10:50:09Z</time>
      </trkpt>
      <trkpt lat="45.63331" lon="0.21417">
        <ele>136.64</ele>
        <time>2013-07-21T10:50:25Z</time>
      </trkpt>
      <trkpt lat="45.63315" lon="0.21455">
        <ele>137.13</ele>
        <time>2013-07-21T10:50:31Z</time>
      </trkpt>
      <trkpt lat="45.63302" lon="0.21487">
        <ele>138.09</ele>
        <time>2013-07-21T10:50:36Z</time>
      </trkpt>
      <trkpt lat="45.63262" lon="0.2158">
        <ele>138.57</ele>
        <time>2013-07-21T10:50:51Z</time>
      </trkpt>
      <trkpt lat="45.63259" lon="0.21586">
        <ele>139.05</ele>
        <time>2013-07-21T10:50:52Z</time>
      </trkpt>
      <trkpt lat="45.63229" lon="0.21654">
        <ele>140.49</ele>
        <time>2013-07-21T10:51:04Z</time>
      </trkpt>
      <trkpt lat="45.6319" lon="0.21746">
        <ele>142.89</ele>
        <time>2013-07-21T10:51:21Z</time>
      </trkpt>
      <trkpt lat="45.63152" lon="0.21833">
        <ele>145.78</ele>
        <time>2013-07-21T10:51:37Z</time>
      </trkpt>
      <trkpt lat="45.63145" lon="0.21849">
        <ele>146.26</ele>
        <time>2013-07-21T10:51:40Z</time>
      </trkpt>
      <trkpt lat="45.63099" lon="0.21951">
        <ele>147.22</ele>
        <time>2013-07-21T10:51:57Z</time>
      </trkpt>
      <trkpt lat="45.63047" lon="0.22072">
        <ele>145.78</ele>
        <time>2013-07-21T10:52:11Z</time>
      </trkpt>
      <trkpt lat="45.63011" lon="0.22179">
        <ele>147.7</ele>
        <time>2013-07-21T10:52:24Z</time>
      </trkpt>
      <trkpt lat="45.62983" lon="0.22293">
        <ele>150.58</ele>
        <time>2013-07-21T10:52:42Z</time>
      </trkpt>
      <trkpt lat="45.62969" lon="0.22402">
        <ele>152.51</ele>
        <time>2013-07-21T10:52:59Z</time>
      </trkpt>
      <trkpt lat="45.6296" lon="0.22494">
        <ele>155.87</ele>
        <time>2013-07-21T10:53:14Z</time>
      </trkpt>
      <trkpt lat="45.62951" lon="0.22575">
        <ele>158.75</ele>
        <time>2013-07-21T10:53:29Z</time>
      </trkpt>
      <trkpt lat="45.62941" lon="0.22628">
        <ele>160.68</ele>
        <time>2013-07-21T10:53:39Z</time>
      </trkpt>
      <trkpt lat="45.62939" lon="0.22633">
        <ele>160.68</ele>
        <time>2013-07-21T10:53:40Z</time>
      </trkpt>
      <trkpt lat="45.62937" lon="0.22638">
        <ele>161.16</ele>
        <time>2013-07-21T10:53:41Z</time>
      </trkpt>
      <trkpt lat="45.62934" lon="0.22643">
        <ele>161.16</ele>
        <time>2013-07-21T10:53:42Z</time>
      </trkpt>
      <trkpt lat="45.62932" lon="0.22648">
        <ele>161.16</ele>
        <time>2013-07-21T10:53:43Z</time>
      </trkpt>
      <trkpt lat="45.6293" lon="0.22653">
        <ele>161.16</ele>
        <time>2013-07-21T10:53:44Z</time>
      </trkpt>
      <trkpt lat="45.62929" lon="0.22659">
        <ele>161.64</ele>
        <time>2013-07-21T10:53:45Z</time>
      </trkpt>
      <trkpt lat="45.62928" lon="0.22666">
        <ele>161.64</ele>
        <time>2013-07-21T10:53:46Z</time>
      </trkpt>
      <trkpt lat="45.62929" lon="0.22672">
        <ele>161.64</ele>
        <time>2013-07-21T10:53:47Z</time>
      </trkpt>
      <trkpt lat="45.62931" lon="0.22678">
        <ele>162.12</ele>
        <time>2013-07-21T10:53:48Z</time>
      </trkpt>
      <trkpt lat="45.62933" lon="0.22685">
        <ele>161.64</ele>
        <time>2013-07-21T10:53:49Z</time>
      </trkpt>
      <trkpt lat="45.62934" lon="0.22692">
        <ele>161.64</ele>
        <time>2013-07-21T10:53:50Z</time>
      </trkpt>
      <trkpt lat="45.62934" lon="0.227">
        <ele>161.64</ele>
        <time>2013-07-21T10:53:51Z</time>
      </trkpt>
      <trkpt lat="45.62933" lon="0.22708">
        <ele>162.12</ele>
        <time>2013-07-21T10:53:52Z</time>
      </trkpt>
      <trkpt lat="45.62924" lon="0.22812">
        <ele>163.08</ele>
        <time>2013-07-21T10:54:07Z</time>
      </trkpt>
      <trkpt lat="45.6292" lon="0.22849">
        <ele>164.52</ele>
        <time>2013-07-21T10:54:13Z</time>
      </trkpt>
      <trkpt lat="45.62907" lon="0.22936">
        <ele>167.41</ele>
        <time>2013-07-21T10:54:28Z</time>
      </trkpt>
      <trkpt lat="45.62881" lon="0.23043">
        <ele>168.85</ele>
        <time>2013-07-21T10:54:44Z</time>
      </trkpt>
      <trkpt lat="45.62846" lon="0.23169">
        <ele>169.33</ele>
        <time>2013-07-21T10:55:00Z</time>
      </trkpt>
      <trkpt lat="45.62808" lon="0.2331">
        <ele>169.33</ele>
        <time>2013-07-21T10:55:17Z</time>
      </trkpt>
      <trkpt lat="45.62773" lon="0.23441">
        <ele>167.41</ele>
        <time>2013-07-21T10:55:31Z</time>
      </trkpt>
      <trkpt lat="45.6273" lon="0.23601">
        <ele>164.52</ele>
        <time>2013-07-21T10:55:46Z</time>
      </trkpt>
      <trkpt lat="45.62705" lon="0.23695">
        <ele>161.64</ele>
        <time>2013-07-21T10:55:54Z</time>
      </trkpt>
      <trkpt lat="45.62669" lon="0.23832">
        <ele>158.27</ele>
        <time>2013-07-21T10:56:05Z</time>
      </trkpt>
      <trkpt lat="45.62645" lon="0.2392">
        <ele>154.91</ele>
        <time>2013-07-21T10:56:12Z</time>
      </trkpt>
      <trkpt lat="45.62631" lon="0.23971">
        <ele>152.99</ele>
        <time>2013-07-21T10:56:16Z</time>
      </trkpt>
      <trkpt lat="45.62581" lon="0.24159">
        <ele>152.03</ele>
        <time>2013-07-21T10:56:32Z</time>
      </trkpt>
      <trkpt lat="45.62558" lon="0.24243">
        <ele>153.95</ele>
        <time>2013-07-21T10:56:42Z</time>
      </trkpt>
      <trkpt lat="45.62556" lon="0.2425">
        <ele>153.95</ele>
        <time>2013-07-21T10:56:43Z</time>
      </trkpt>
      <trkpt lat="45.62523" lon="0.24373">
        <ele>155.87</ele>
        <time>2013-07-21T10:57:00Z</time>
      </trkpt>
      <trkpt lat="45.62496" lon="0.24471">
        <ele>152.51</ele>
        <time>2013-07-21T10:57:12Z</time>
      </trkpt>
      <trkpt lat="45.62464" lon="0.24588">
        <ele>150.1</ele>
        <time>2013-07-21T10:57:24Z</time>
      </trkpt>
      <trkpt lat="45.6246" lon="0.24597">
        <ele>150.1</ele>
        <time>2013-07-21T10:57:25Z</time>
      </trkpt>
      <trkpt lat="45.62455" lon="0.24606">
        <ele>149.14</ele>
        <time>2013-07-21T10:57:26Z</time>
      </trkpt>
      <trkpt lat="45.62446" lon="0.24623">
        <ele>148.66</ele>
        <time>2013-07-21T10:57:28Z</time>
      </trkpt>
      <trkpt lat="45.62443" lon="0.24633">
        <ele>148.18</ele>
        <time>2013-07-21T10:57:29Z</time>
      </trkpt>
      <trkpt lat="45.62442" lon="0.24643">
        <ele>147.7</ele>
        <time>2013-07-21T10:57:30Z</time>
      </trkpt>
      <trkpt lat="45.62442" lon="0.24665">
        <ele>147.22</ele>
        <time>2013-07-21T10:57:32Z</time>
      </trkpt>
      <trkpt lat="45.6244" lon="0.24676">
        <ele>147.22</ele>
        <time>2013-07-21T10:57:33Z</time>
      </trkpt>
      <trkpt lat="45.62395" lon="0.24841">
        <ele>146.26</ele>
        <time>2013-07-21T10:57:48Z</time>
      </trkpt>
      <trkpt lat="45.62337" lon="0.24987">
        <ele>143.37</ele>
        <time>2013-07-21T10:58:03Z</time>
      </trkpt>
      <trkpt lat="45.62279" lon="0.25087">
        <ele>145.3</ele>
        <time>2013-07-21T10:58:17Z</time>
      </trkpt>
      <trkpt lat="45.62267" lon="0.25106">
        <ele>144.82</ele>
        <time>2013-07-21T10:58:20Z</time>
      </trkpt>
      <trkpt lat="45.62172" lon="0.25216">
        <ele>146.26</ele>
        <time>2013-07-21T10:58:40Z</time>
      </trkpt>
      <trkpt lat="45.62087" lon="0.25313">
        <ele>146.74</ele>
        <time>2013-07-21T10:58:58Z</time>
      </trkpt>
      <trkpt lat="45.62064" lon="0.25339">
        <ele>146.26</ele>
        <time>2013-07-21T10:59:03Z</time>
      </trkpt>
      <trkpt lat="45.62053" lon="0.25347">
        <ele>146.74</ele>
        <time>2013-07-21T10:59:05Z</time>
      </trkpt>
      <trkpt lat="45.62049" lon="0.25353">
        <ele>147.22</ele>
        <time>2013-07-21T10:59:06Z</time>
      </trkpt>
      <trkpt lat="45.62046" lon="0.25359">
        <ele>147.22</ele>
        <time>2013-07-21T10:59:07Z</time>
      </trkpt>
      <trkpt lat="45.62045" lon="0.25366">
        <ele>146.74</ele>
        <time>2013-07-21T10:59:08Z</time>
      </trkpt>
      <trkpt lat="45.62046" lon="0.25372">
        <ele>146.74</ele>
        <time>2013-07-21T10:59:09Z</time>
      </trkpt>
      <trkpt lat="45.62049" lon="0.25377">
        <ele>146.74</ele>
        <time>2013-07-21T10:59:10Z</time>
      </trkpt>
      <trkpt lat="45.62052" lon="0.25382">
        <ele>146.26</ele>
        <time>2013-07-21T10:59:11Z</time>
      </trkpt>
      <trkpt lat="45.62056" lon="0.25386">
        <ele>146.26</ele>
        <time>2013-07-21T10:59:12Z</time>
      </trkpt>
      <trkpt lat="45.62062" lon="0.25397">
        <ele>145.78</ele>
        <time>2013-07-21T10:59:14Z</time>
      </trkpt>
      <trkpt lat="45.62065" lon="0.25403">
        <ele>145.78</ele>
        <time>2013-07-21T10:59:15Z</time>
      </trkpt>
      <trkpt lat="45.62084" lon="0.25461">
        <ele>143.37</ele>
        <time>2013-07-21T10:59:22Z</time>
      </trkpt>
      <trkpt lat="45.6211" lon="0.25596">
        <ele>140.49</ele>
        <time>2013-07-21T10:59:33Z</time>
      </trkpt>
      <trkpt lat="45.62118" lon="0.25659">
        <ele>137.13</ele>
        <time>2013-07-21T10:59:37Z</time>
      </trkpt>
      <trkpt lat="45.62119" lon="0.25676">
        <ele>136.64</ele>
        <time>2013-07-21T10:59:38Z</time>
      </trkpt>
      <trkpt lat="45.62115" lon="0.25763">
        <ele>133.76</ele>
        <time>2013-07-21T10:59:43Z</time>
      </trkpt>
      <trkpt lat="45.62102" lon="0.25831">
        <ele>130.4</ele>
        <time>2013-07-21T10:59:47Z</time>
      </trkpt>
      <trkpt lat="45.62082" lon="0.25897">
        <ele>127.03</ele>
        <time>2013-07-21T10:59:51Z</time>
      </trkpt>
      <trkpt lat="45.62067" lon="0.25967">
        <ele>123.67</ele>
        <time>2013-07-21T10:59:55Z</time>
      </trkpt>
      <trkpt lat="45.62056" lon="0.26043">
        <ele>119.82</ele>
        <time>2013-07-21T10:59:59Z</time>
      </trkpt>
      <trkpt lat="45.62044" lon="0.26141">
        <ele>115.98</ele>
        <time>2013-07-21T11:00:04Z</time>
      </trkpt>
      <trkpt lat="45.62033" lon="0.2622">
        <ele>112.61</ele>
        <time>2013-07-21T11:00:08Z</time>
      </trkpt>
      <trkpt lat="45.62023" lon="0.26299">
        <ele>107.81</ele>
        <time>2013-07-21T11:00:12Z</time>
      </trkpt>
      <trkpt lat="45.6202" lon="0.26319">
        <ele>108.29</ele>
        <time>2013-07-21T11:00:13Z</time>
      </trkpt>
      <trkpt lat="45.6201" lon="0.26395">
        <ele>104.44</ele>
        <time>2013-07-21T11:00:17Z</time>
      </trkpt>
      <trkpt lat="45.61985" lon="0.26591">
        <ele>104.44</ele>
        <time>2013-07-21T11:00:29Z</time>
      </trkpt>
      <trkpt lat="45.61964" lon="0.26702">
        <ele>106.84</ele>
        <time>2013-07-21T11:00:38Z</time>
      </trkpt>
      <trkpt lat="45.6192" lon="0.26865">
        <ele>104.92</ele>
        <time>2013-07-21T11:00:54Z</time>
      </trkpt>
      <trkpt lat="45.61874" lon="0.27032">
        <ele>103.48</ele>
        <time>2013-07-21T11:01:10Z</time>
      </trkpt>
      <trkpt lat="45.61843" lon="0.27147">
        <ele>100.11</ele>
        <time>2013-07-21T11:01:20Z</time>
      </trkpt>
      <trkpt lat="45.61823" lon="0.27221">
        <ele>97.23</ele>
        <time>2013-07-21T11:01:26Z</time>
      </trkpt>
      <trkpt lat="45.61775" lon="0.27373">
        <ele>98.67</ele>
        <time>2013-07-21T11:01:41Z</time>
      </trkpt>
      <trkpt lat="45.61769" lon="0.27387">
        <ele>99.63</ele>
        <time>2013-07-21T11:01:43Z</time>
      </trkpt>
      <trkpt lat="45.61743" lon="0.27453">
        <ele>102.04</ele>
        <time>2013-07-21T11:01:54Z</time>
      </trkpt>
      <trkpt lat="45.61739" lon="0.27464">
        <ele>102.52</ele>
        <time>2013-07-21T11:01:56Z</time>
      </trkpt>
      <trkpt lat="45.61708" lon="0.27538">
        <ele>105.4</ele>
        <time>2013-07-21T11:02:11Z</time>
      </trkpt>
      <trkpt lat="45.61681" lon="0.27604">
        <ele>108.77</ele>
        <time>2013-07-21T11:02:25Z</time>
      </trkpt>
      <trkpt lat="45.61662" lon="0.27661">
        <ele>111.17</ele>
        <time>2013-07-21T11:02:37Z</time>
      </trkpt>
      <trkpt lat="45.61641" lon="0.27741">
        <ele>113.57</ele>
        <time>2013-07-21T11:02:53Z</time>
      </trkpt>
      <trkpt lat="45.61633" lon="0.27772">
        <ele>113.09</ele>
        <time>2013-07-21T11:02:59Z</time>
      </trkpt>
      <trkpt lat="45.61604" lon="0.27896">
        <ele>111.65</ele>
        <time>2013-07-21T11:03:16Z</time>
      </trkpt>
      <trkpt lat="45.61575" lon="0.28011">
        <ele>110.21</ele>
        <time>2013-07-21T11:03:29Z</time>
      </trkpt>
      <trkpt lat="45.6155" lon="0.28159">
        <ele>111.65</ele>
        <time>2013-07-21T11:03:46Z</time>
      </trkpt>
      <trkpt lat="45.61544" lon="0.2825">
        <ele>112.61</ele>
        <time>2013-07-21T11:03:59Z</time>
      </trkpt>
      <trkpt lat="45.61545" lon="0.28257">
        <ele>112.13</ele>
        <time>2013-07-21T11:04:00Z</time>
      </trkpt>
      <trkpt lat="45.61545" lon="0.28264">
        <ele>111.65</ele>
        <time>2013-07-21T11:04:01Z</time>
      </trkpt>
      <trkpt lat="45.61545" lon="0.28271">
        <ele>111.65</ele>
        <time>2013-07-21T11:04:02Z</time>
      </trkpt>
      <trkpt lat="45.61545" lon="0.28278">
        <ele>111.17</ele>
        <time>2013-07-21T11:04:03Z</time>
      </trkpt>
      <trkpt lat="45.61544" lon="0.28285">
        <ele>111.17</ele>
        <time>2013-07-21T11:04:04Z</time>
      </trkpt>
      <trkpt lat="45.61544" lon="0.28292">
        <ele>111.17</ele>
        <time>2013-07-21T11:04:05Z</time>
      </trkpt>
      <trkpt lat="45.61543" lon="0.28299">
        <ele>111.17</ele>
        <time>2013-07-21T11:04:06Z</time>
      </trkpt>
      <trkpt lat="45.61544" lon="0.28335">
        <ele>110.69</ele>
        <time>2013-07-21T11:04:11Z</time>
      </trkpt>
      <trkpt lat="45.61544" lon="0.28343">
        <ele>110.69</ele>
        <time>2013-07-21T11:04:12Z</time>
      </trkpt>
      <trkpt lat="45.61544" lon="0.2835">
        <ele>110.69</ele>
        <time>2013-07-21T11:04:13Z</time>
      </trkpt>
      <trkpt lat="45.61548" lon="0.28437">
        <ele>109.25</ele>
        <time>2013-07-21T11:04:24Z</time>
      </trkpt>
      <trkpt lat="45.61557" lon="0.28601">
        <ele>105.88</ele>
        <time>2013-07-21T11:04:40Z</time>
      </trkpt>
      <trkpt lat="45.61557" lon="0.28613">
        <ele>105.88</ele>
        <time>2013-07-21T11:04:41Z</time>
      </trkpt>
      <trkpt lat="45.61552" lon="0.28702">
        <ele>102.52</ele>
        <time>2013-07-21T11:04:48Z</time>
      </trkpt>
      <trkpt lat="45.61547" lon="0.28799">
        <ele>99.15</ele>
        <time>2013-07-21T11:04:55Z</time>
      </trkpt>
      <trkpt lat="45.61543" lon="0.28871">
        <ele>96.75</ele>
        <time>2013-07-21T11:05:00Z</time>
      </trkpt>
      <trkpt lat="45.61537" lon="0.28984">
        <ele>93.39</ele>
        <time>2013-07-21T11:05:08Z</time>
      </trkpt>
      <trkpt lat="45.61535" lon="0.29024">
        <ele>91.94</ele>
        <time>2013-07-21T11:05:11Z</time>
      </trkpt>
      <trkpt lat="45.61527" lon="0.29157">
        <ele>88.58</ele>
        <time>2013-07-21T11:05:21Z</time>
      </trkpt>
      <trkpt lat="45.61524" lon="0.29215">
        <ele>87.14</ele>
        <time>2013-07-21T11:05:25Z</time>
      </trkpt>
      <trkpt lat="45.61522" lon="0.29287">
        <ele>84.73</ele>
        <time>2013-07-21T11:05:30Z</time>
      </trkpt>
      <trkpt lat="45.61519" lon="0.29312">
        <ele>84.73</ele>
        <time>2013-07-21T11:05:32Z</time>
      </trkpt>
      <trkpt lat="45.61517" lon="0.29323">
        <ele>85.21</ele>
        <time>2013-07-21T11:05:33Z</time>
      </trkpt>
      <trkpt lat="45.61512" lon="0.29342">
        <ele>85.69</ele>
        <time>2013-07-21T11:05:35Z</time>
      </trkpt>
      <trkpt lat="45.61508" lon="0.2935">
        <ele>86.18</ele>
        <time>2013-07-21T11:05:36Z</time>
      </trkpt>
      <trkpt lat="45.61504" lon="0.29356">
        <ele>87.14</ele>
        <time>2013-07-21T11:05:37Z</time>
      </trkpt>
      <trkpt lat="45.61501" lon="0.29362">
        <ele>86.66</ele>
        <time>2013-07-21T11:05:38Z</time>
      </trkpt>
      <trkpt lat="45.61497" lon="0.29367">
        <ele>87.14</ele>
        <time>2013-07-21T11:05:39Z</time>
      </trkpt>
      <trkpt lat="45.61458" lon="0.29415">
        <ele>90.02</ele>
        <time>2013-07-21T11:05:52Z</time>
      </trkpt>
      <trkpt lat="45.61423" lon="0.29463">
        <ele>93.39</ele>
        <time>2013-07-21T11:06:06Z</time>
      </trkpt>
      <trkpt lat="45.61392" lon="0.29523">
        <ele>96.27</ele>
        <time>2013-07-21T11:06:22Z</time>
      </trkpt>
      <trkpt lat="45.61369" lon="0.29572">
        <ele>99.15</ele>
        <time>2013-07-21T11:06:35Z</time>
      </trkpt>
      <trkpt lat="45.61346" lon="0.2963">
        <ele>101.56</ele>
        <time>2013-07-21T11:06:49Z</time>
      </trkpt>
      <trkpt lat="45.61323" lon="0.29691">
        <ele>104.92</ele>
        <time>2013-07-21T11:07:04Z</time>
      </trkpt>
      <trkpt lat="45.61322" lon="0.29761">
        <ele>107.81</ele>
        <time>2013-07-21T11:07:19Z</time>
      </trkpt>
      <trkpt lat="45.61333" lon="0.29827">
        <ele>110.69</ele>
        <time>2013-07-21T11:07:33Z</time>
      </trkpt>
      <trkpt lat="45.61355" lon="0.29901">
        <ele>113.57</ele>
        <time>2013-07-21T11:07:49Z</time>
      </trkpt>
      <trkpt lat="45.61393" lon="0.29967">
        <ele>116.46</ele>
        <time>2013-07-21T11:08:05Z</time>
      </trkpt>
      <trkpt lat="45.6145" lon="0.30018">
        <ele>119.34</ele>
        <time>2013-07-21T11:08:23Z</time>
      </trkpt>
      <trkpt lat="45.61504" lon="0.30053">
        <ele>122.22</ele>
        <time>2013-07-21T11:08:38Z</time>
      </trkpt>
      <trkpt lat="45.61559" lon="0.30088">
        <ele>125.59</ele>
        <time>2013-07-21T11:08:53Z</time>
      </trkpt>
      <trkpt lat="45.61582" lon="0.30103">
        <ele>126.55</ele>
        <time>2013-07-21T11:08:59Z</time>
      </trkpt>
      <trkpt lat="45.61636" lon="0.30165">
        <ele>129.43</ele>
        <time>2013-07-21T11:09:16Z</time>
      </trkpt>
      <trkpt lat="45.61646" lon="0.30187">
        <ele>129.92</ele>
        <time>2013-07-21T11:09:20Z</time>
      </trkpt>
      <trkpt lat="45.61677" lon="0.30292">
        <ele>130.4</ele>
        <time>2013-07-21T11:09:36Z</time>
      </trkpt>
      <trkpt lat="45.61711" lon="0.30427">
        <ele>130.4</ele>
        <time>2013-07-21T11:09:52Z</time>
      </trkpt>
      <trkpt lat="45.61729" lon="0.3059">
        <ele>130.88</ele>
        <time>2013-07-21T11:10:09Z</time>
      </trkpt>
      <trkpt lat="45.61742" lon="0.30647">
        <ele>130.4</ele>
        <time>2013-07-21T11:10:15Z</time>
      </trkpt>
      <trkpt lat="45.61745" lon="0.30656">
        <ele>130.4</ele>
        <time>2013-07-21T11:10:16Z</time>
      </trkpt>
      <trkpt lat="45.61793" lon="0.30774">
        <ele>128.95</ele>
        <time>2013-07-21T11:10:29Z</time>
      </trkpt>
      <trkpt lat="45.61831" lon="0.30919">
        <ele>128.95</ele>
        <time>2013-07-21T11:10:44Z</time>
      </trkpt>
      <trkpt lat="45.61844" lon="0.31003">
        <ele>132.32</ele>
        <time>2013-07-21T11:10:54Z</time>
      </trkpt>
      <trkpt lat="45.61862" lon="0.31104">
        <ele>135.68</ele>
        <time>2013-07-21T11:11:08Z</time>
      </trkpt>
      <trkpt lat="45.61872" lon="0.31171">
        <ele>137.13</ele>
        <time>2013-07-21T11:11:18Z</time>
      </trkpt>
      <trkpt lat="45.61886" lon="0.31289">
        <ele>139.53</ele>
        <time>2013-07-21T11:11:35Z</time>
      </trkpt>
      <trkpt lat="45.61889" lon="0.31402">
        <ele>137.61</ele>
        <time>2013-07-21T11:11:49Z</time>
      </trkpt>
      <trkpt lat="45.61886" lon="0.31518">
        <ele>134.72</ele>
        <time>2013-07-21T11:12:00Z</time>
      </trkpt>
      <trkpt lat="45.61892" lon="0.31677">
        <ele>136.16</ele>
        <time>2013-07-21T11:12:15Z</time>
      </trkpt>
      <trkpt lat="45.61895" lon="0.31764">
        <ele>137.61</ele>
        <time>2013-07-21T11:12:25Z</time>
      </trkpt>
      <trkpt lat="45.61901" lon="0.3191">
        <ele>140.01</ele>
        <time>2013-07-21T11:12:43Z</time>
      </trkpt>
      <trkpt lat="45.61901" lon="0.32041">
        <ele>143.37</ele>
        <time>2013-07-21T11:13:00Z</time>
      </trkpt>
      <trkpt lat="45.61898" lon="0.32054">
        <ele>143.37</ele>
        <time>2013-07-21T11:13:02Z</time>
      </trkpt>
      <trkpt lat="45.61896" lon="0.32061">
        <ele>143.37</ele>
        <time>2013-07-21T11:13:03Z</time>
      </trkpt>
      <trkpt lat="45.61894" lon="0.32067">
        <ele>143.37</ele>
        <time>2013-07-21T11:13:04Z</time>
      </trkpt>
      <trkpt lat="45.61891" lon="0.32074">
        <ele>143.85</ele>
        <time>2013-07-21T11:13:05Z</time>
      </trkpt>
      <trkpt lat="45.61887" lon="0.32079">
        <ele>144.34</ele>
        <time>2013-07-21T11:13:06Z</time>
      </trkpt>
      <trkpt lat="45.61879" lon="0.32099">
        <ele>144.34</ele>
        <time>2013-07-21T11:13:09Z</time>
      </trkpt>
      <trkpt lat="45.61877" lon="0.32106">
        <ele>144.34</ele>
        <time>2013-07-21T11:13:10Z</time>
      </trkpt>
      <trkpt lat="45.61876" lon="0.32113">
        <ele>144.34</ele>
        <time>2013-07-21T11:13:11Z</time>
      </trkpt>
      <trkpt lat="45.61876" lon="0.32121">
        <ele>144.82</ele>
        <time>2013-07-21T11:13:12Z</time>
      </trkpt>
      <trkpt lat="45.61877" lon="0.32128">
        <ele>144.34</ele>
        <time>2013-07-21T11:13:13Z</time>
      </trkpt>
      <trkpt lat="45.61878" lon="0.32136">
        <ele>144.34</ele>
        <time>2013-07-21T11:13:14Z</time>
      </trkpt>
      <trkpt lat="45.6188" lon="0.32144">
        <ele>144.82</ele>
        <time>2013-07-21T11:13:15Z</time>
      </trkpt>
      <trkpt lat="45.61918" lon="0.32264">
        <ele>144.34</ele>
        <time>2013-07-21T11:13:29Z</time>
      </trkpt>
      <trkpt lat="45.61965" lon="0.32407">
        <ele>144.34</ele>
        <time>2013-07-21T11:13:44Z</time>
      </trkpt>
      <trkpt lat="45.62007" lon="0.32543">
        <ele>147.22</ele>
        <time>2013-07-21T11:13:59Z</time>
      </trkpt>
      <trkpt lat="45.62056" lon="0.32694">
        <ele>149.14</ele>
        <time>2013-07-21T11:14:19Z</time>
      </trkpt>
      <trkpt lat="45.62094" lon="0.32803">
        <ele>147.7</ele>
        <time>2013-07-21T11:14:32Z</time>
      </trkpt>
      <trkpt lat="45.62138" lon="0.32935">
        <ele>144.82</ele>
        <time>2013-07-21T11:14:47Z</time>
      </trkpt>
      <trkpt lat="45.6219" lon="0.33094">
        <ele>141.45</ele>
        <time>2013-07-21T11:15:01Z</time>
      </trkpt>
      <trkpt lat="45.62199" lon="0.33118">
        <ele>140.49</ele>
        <time>2013-07-21T11:15:03Z</time>
      </trkpt>
      <trkpt lat="45.62233" lon="0.3322">
        <ele>137.13</ele>
        <time>2013-07-21T11:15:11Z</time>
      </trkpt>
      <trkpt lat="45.62265" lon="0.33314">
        <ele>133.76</ele>
        <time>2013-07-21T11:15:19Z</time>
      </trkpt>
      <trkpt lat="45.62269" lon="0.33326">
        <ele>133.76</ele>
        <time>2013-07-21T11:15:20Z</time>
      </trkpt>
      <trkpt lat="45.62339" lon="0.33535">
        <ele>131.36</ele>
        <time>2013-07-21T11:15:38Z</time>
      </trkpt>
      <trkpt lat="45.62391" lon="0.33692">
        <ele>130.4</ele>
        <time>2013-07-21T11:15:53Z</time>
      </trkpt>
      <trkpt lat="45.62452" lon="0.33872">
        <ele>129.92</ele>
        <time>2013-07-21T11:16:11Z</time>
      </trkpt>
      <trkpt lat="45.62512" lon="0.3405">
        <ele>129.92</ele>
        <time>2013-07-21T11:16:29Z</time>
      </trkpt>
      <trkpt lat="45.62577" lon="0.34246">
        <ele>128.47</ele>
        <time>2013-07-21T11:16:49Z</time>
      </trkpt>
      <trkpt lat="45.6265" lon="0.34462">
        <ele>125.59</ele>
        <time>2013-07-21T11:17:09Z</time>
      </trkpt>
      <trkpt lat="45.62669" lon="0.34585">
        <ele>127.03</ele>
        <time>2013-07-21T11:17:21Z</time>
      </trkpt>
      <trkpt lat="45.62667" lon="0.34661">
        <ele>128.47</ele>
        <time>2013-07-21T11:17:30Z</time>
      </trkpt>
      <trkpt lat="45.62664" lon="0.34774">
        <ele>128.95</ele>
        <time>2013-07-21T11:17:45Z</time>
      </trkpt>
      <trkpt lat="45.6266" lon="0.34917">
        <ele>127.51</ele>
        <time>2013-07-21T11:18:00Z</time>
      </trkpt>
      <trkpt lat="45.62655" lon="0.35121">
        <ele>124.63</ele>
        <time>2013-07-21T11:18:18Z</time>
      </trkpt>
      <trkpt lat="45.62651" lon="0.35245">
        <ele>122.71</ele>
        <time>2013-07-21T11:18:28Z</time>
      </trkpt>
      <trkpt lat="45.62648" lon="0.35393">
        <ele>118.86</ele>
        <time>2013-07-21T11:18:39Z</time>
      </trkpt>
      <trkpt lat="45.62643" lon="0.35555">
        <ele>119.82</ele>
        <time>2013-07-21T11:18:53Z</time>
      </trkpt>
      <trkpt lat="45.62642" lon="0.35603">
        <ele>120.78</ele>
        <time>2013-07-21T11:18:59Z</time>
      </trkpt>
      <trkpt lat="45.6264" lon="0.35639">
        <ele>121.74</ele>
        <time>2013-07-21T11:19:04Z</time>
      </trkpt>
      <trkpt lat="45.62636" lon="0.35717">
        <ele>122.71</ele>
        <time>2013-07-21T11:19:15Z</time>
      </trkpt>
      <trkpt lat="45.62629" lon="0.35865">
        <ele>121.26</ele>
        <time>2013-07-21T11:19:30Z</time>
      </trkpt>
      <trkpt lat="45.62617" lon="0.36065">
        <ele>122.22</ele>
        <time>2013-07-21T11:19:49Z</time>
      </trkpt>
      <trkpt lat="45.62608" lon="0.36215">
        <ele>124.63</ele>
        <time>2013-07-21T11:20:07Z</time>
      </trkpt>
      <trkpt lat="45.62602" lon="0.36341">
        <ele>125.11</ele>
        <time>2013-07-21T11:20:24Z</time>
      </trkpt>
      <trkpt lat="45.62594" lon="0.36497">
        <ele>124.63</ele>
        <time>2013-07-21T11:20:40Z</time>
      </trkpt>
      <trkpt lat="45.62583" lon="0.3666">
        <ele>126.07</ele>
        <time>2013-07-21T11:20:58Z</time>
      </trkpt>
      <trkpt lat="45.6258" lon="0.3672">
        <ele>126.55</ele>
        <time>2013-07-21T11:21:05Z</time>
      </trkpt>
      <trkpt lat="45.62575" lon="0.36816">
        <ele>127.51</ele>
        <time>2013-07-21T11:21:18Z</time>
      </trkpt>
      <trkpt lat="45.62575" lon="0.36927">
        <ele>127.03</ele>
        <time>2013-07-21T11:21:32Z</time>
      </trkpt>
      <trkpt lat="45.62576" lon="0.36935">
        <ele>126.55</ele>
        <time>2013-07-21T11:21:33Z</time>
      </trkpt>
      <trkpt lat="45.62578" lon="0.36961">
        <ele>126.07</ele>
        <time>2013-07-21T11:21:36Z</time>
      </trkpt>
      <trkpt lat="45.62591" lon="0.37085">
        <ele>123.19</ele>
        <time>2013-07-21T11:21:48Z</time>
      </trkpt>
      <trkpt lat="45.626" lon="0.37163">
        <ele>119.82</ele>
        <time>2013-07-21T11:21:54Z</time>
      </trkpt>
      <trkpt lat="45.62602" lon="0.37178">
        <ele>119.82</ele>
        <time>2013-07-21T11:21:55Z</time>
      </trkpt>
      <trkpt lat="45.62609" lon="0.37237">
        <ele>117.42</ele>
        <time>2013-07-21T11:21:59Z</time>
      </trkpt>
      <trkpt lat="45.62615" lon="0.37301">
        <ele>114.05</ele>
        <time>2013-07-21T11:22:03Z</time>
      </trkpt>
      <trkpt lat="45.62622" lon="0.37366">
        <ele>110.69</ele>
        <time>2013-07-21T11:22:07Z</time>
      </trkpt>
      <trkpt lat="45.62624" lon="0.37383">
        <ele>110.21</ele>
        <time>2013-07-21T11:22:08Z</time>
      </trkpt>
      <trkpt lat="45.62628" lon="0.37416">
        <ele>109.25</ele>
        <time>2013-07-21T11:22:10Z</time>
      </trkpt>
      <trkpt lat="45.62637" lon="0.3749">
        <ele>110.69</ele>
        <time>2013-07-21T11:22:15Z</time>
      </trkpt>
      <trkpt lat="45.62648" lon="0.37592">
        <ele>113.09</ele>
        <time>2013-07-21T11:22:23Z</time>
      </trkpt>
      <trkpt lat="45.62659" lon="0.37695">
        <ele>115.5</ele>
        <time>2013-07-21T11:22:35Z</time>
      </trkpt>
      <trkpt lat="45.62659" lon="0.37702">
        <ele>115.98</ele>
        <time>2013-07-21T11:22:36Z</time>
      </trkpt>
      <trkpt lat="45.62654" lon="0.37805">
        <ele>118.86</ele>
        <time>2013-07-21T11:22:49Z</time>
      </trkpt>
      <trkpt lat="45.62648" lon="0.37841">
        <ele>116.94</ele>
        <time>2013-07-21T11:22:54Z</time>
      </trkpt>
      <trkpt lat="45.62625" lon="0.37924">
        <ele>116.94</ele>
        <time>2013-07-21T11:23:06Z</time>
      </trkpt>
      <trkpt lat="45.62605" lon="0.37992">
        <ele>114.53</ele>
        <time>2013-07-21T11:23:12Z</time>
      </trkpt>
      <trkpt lat="45.62566" lon="0.38126">
        <ele>115.98</ele>
        <time>2013-07-21T11:23:24Z</time>
      </trkpt>
      <trkpt lat="45.6254" lon="0.38218">
        <ele>117.42</ele>
        <time>2013-07-21T11:23:36Z</time>
      </trkpt>
      <trkpt lat="45.62511" lon="0.38319">
        <ele>113.57</ele>
        <time>2013-07-21T11:23:47Z</time>
      </trkpt>
      <trkpt lat="45.62481" lon="0.38421">
        <ele>110.21</ele>
        <time>2013-07-21T11:23:56Z</time>
      </trkpt>
      <trkpt lat="45.62444" lon="0.38533">
        <ele>106.84</ele>
        <time>2013-07-21T11:24:05Z</time>
      </trkpt>
      <trkpt lat="45.62405" lon="0.38615">
        <ele>103.48</ele>
        <time>2013-07-21T11:24:12Z</time>
      </trkpt>
      <trkpt lat="45.62334" lon="0.38762">
        <ele>100.11</ele>
        <time>2013-07-21T11:24:25Z</time>
      </trkpt>
      <trkpt lat="45.62301" lon="0.38904">
        <ele>100.6</ele>
        <time>2013-07-21T11:24:38Z</time>
      </trkpt>
      <trkpt lat="45.62268" lon="0.39063">
        <ele>100.6</ele>
        <time>2013-07-21T11:24:53Z</time>
      </trkpt>
      <trkpt lat="45.6224" lon="0.39204">
        <ele>100.11</ele>
        <time>2013-07-21T11:25:07Z</time>
      </trkpt>
      <trkpt lat="45.62211" lon="0.3935">
        <ele>99.63</ele>
        <time>2013-07-21T11:25:21Z</time>
      </trkpt>
      <trkpt lat="45.62192" lon="0.39513">
        <ele>102.04</ele>
        <time>2013-07-21T11:25:36Z</time>
      </trkpt>
      <trkpt lat="45.62191" lon="0.39523">
        <ele>101.56</ele>
        <time>2013-07-21T11:25:37Z</time>
      </trkpt>
      <trkpt lat="45.62178" lon="0.3967">
        <ele>100.11</ele>
        <time>2013-07-21T11:25:52Z</time>
      </trkpt>
      <trkpt lat="45.6216" lon="0.39854">
        <ele>99.63</ele>
        <time>2013-07-21T11:26:09Z</time>
      </trkpt>
      <trkpt lat="45.62151" lon="0.39926">
        <ele>99.63</ele>
        <time>2013-07-21T11:26:16Z</time>
      </trkpt>
      <trkpt lat="45.62109" lon="0.4006">
        <ele>100.6</ele>
        <time>2013-07-21T11:26:30Z</time>
      </trkpt>
      <trkpt lat="45.62105" lon="0.40089">
        <ele>101.08</ele>
        <time>2013-07-21T11:26:33Z</time>
      </trkpt>
      <trkpt lat="45.62109" lon="0.40257">
        <ele>101.56</ele>
        <time>2013-07-21T11:26:50Z</time>
      </trkpt>
      <trkpt lat="45.62077" lon="0.40393">
        <ele>102.04</ele>
        <time>2013-07-21T11:27:05Z</time>
      </trkpt>
      <trkpt lat="45.62021" lon="0.40567">
        <ele>100.6</ele>
        <time>2013-07-21T11:27:23Z</time>
      </trkpt>
      <trkpt lat="45.61968" lon="0.40736">
        <ele>101.08</ele>
        <time>2013-07-21T11:27:41Z</time>
      </trkpt>
      <trkpt lat="45.6191" lon="0.4091">
        <ele>101.08</ele>
        <time>2013-07-21T11:28:00Z</time>
      </trkpt>
      <trkpt lat="45.61851" lon="0.41044">
        <ele>101.08</ele>
        <time>2013-07-21T11:28:16Z</time>
      </trkpt>
      <trkpt lat="45.61774" lon="0.41182">
        <ele>101.08</ele>
        <time>2013-07-21T11:28:34Z</time>
      </trkpt>
      <trkpt lat="45.617" lon="0.41318">
        <ele>101.56</ele>
        <time>2013-07-21T11:28:51Z</time>
      </trkpt>
      <trkpt lat="45.61654" lon="0.41456">
        <ele>101.56</ele>
        <time>2013-07-21T11:29:06Z</time>
      </trkpt>
      <trkpt lat="45.61628" lon="0.41615">
        <ele>102.04</ele>
        <time>2013-07-21T11:29:22Z</time>
      </trkpt>
      <trkpt lat="45.61603" lon="0.41791">
        <ele>102.52</ele>
        <time>2013-07-21T11:29:40Z</time>
      </trkpt>
      <trkpt lat="45.61579" lon="0.41963">
        <ele>102.52</ele>
        <time>2013-07-21T11:29:58Z</time>
      </trkpt>
      <trkpt lat="45.61551" lon="0.42147">
        <ele>102.04</ele>
        <time>2013-07-21T11:30:17Z</time>
      </trkpt>
      <trkpt lat="45.61548" lon="0.42167">
        <ele>102.52</ele>
        <time>2013-07-21T11:30:19Z</time>
      </trkpt>
      <trkpt lat="45.61546" lon="0.42177">
        <ele>102.52</ele>
        <time>2013-07-21T11:30:20Z</time>
      </trkpt>
      <trkpt lat="45.61511" lon="0.42294">
        <ele>102.52</ele>
        <time>2013-07-21T11:30:33Z</time>
      </trkpt>
      <trkpt lat="45.61453" lon="0.4243">
        <ele>102.52</ele>
        <time>2013-07-21T11:30:49Z</time>
      </trkpt>
      <trkpt lat="45.61415" lon="0.42553">
        <ele>103.48</ele>
        <time>2013-07-21T11:31:03Z</time>
      </trkpt>
      <trkpt lat="45.61415" lon="0.42656">
        <ele>103</ele>
        <time>2013-07-21T11:31:14Z</time>
      </trkpt>
      <trkpt lat="45.61436" lon="0.42806">
        <ele>101.56</ele>
        <time>2013-07-21T11:31:30Z</time>
      </trkpt>
      <trkpt lat="45.61449" lon="0.4294">
        <ele>103</ele>
        <time>2013-07-21T11:31:45Z</time>
      </trkpt>
      <trkpt lat="45.61441" lon="0.43128">
        <ele>103.96</ele>
        <time>2013-07-21T11:32:05Z</time>
      </trkpt>
      <trkpt lat="45.61414" lon="0.43278">
        <ele>103.48</ele>
        <time>2013-07-21T11:32:22Z</time>
      </trkpt>
      <trkpt lat="45.61364" lon="0.43413">
        <ele>103.48</ele>
        <time>2013-07-21T11:32:38Z</time>
      </trkpt>
      <trkpt lat="45.61309" lon="0.43531">
        <ele>104.92</ele>
        <time>2013-07-21T11:32:54Z</time>
      </trkpt>
      <trkpt lat="45.6128" lon="0.43581">
        <ele>104.44</ele>
        <time>2013-07-21T11:33:03Z</time>
      </trkpt>
      <trkpt lat="45.61276" lon="0.43586">
        <ele>104.44</ele>
        <time>2013-07-21T11:33:04Z</time>
      </trkpt>
      <trkpt lat="45.61217" lon="0.4369">
        <ele>104.44</ele>
        <time>2013-07-21T11:33:19Z</time>
      </trkpt>
      <trkpt lat="45.61211" lon="0.43705">
        <ele>104.44</ele>
        <time>2013-07-21T11:33:21Z</time>
      </trkpt>
      <trkpt lat="45.61208" lon="0.43712">
        <ele>103.96</ele>
        <time>2013-07-21T11:33:22Z</time>
      </trkpt>
      <trkpt lat="45.61182" lon="0.43845">
        <ele>103.48</ele>
        <time>2013-07-21T11:33:38Z</time>
      </trkpt>
      <trkpt lat="45.61167" lon="0.43958">
        <ele>104.44</ele>
        <time>2013-07-21T11:33:51Z</time>
      </trkpt>
      <trkpt lat="45.61149" lon="0.44099">
        <ele>104.44</ele>
        <time>2013-07-21T11:34:08Z</time>
      </trkpt>
      <trkpt lat="45.61148" lon="0.44124">
        <ele>103.96</ele>
        <time>2013-07-21T11:34:11Z</time>
      </trkpt>
      <trkpt lat="45.61156" lon="0.44207">
        <ele>103.96</ele>
        <time>2013-07-21T11:34:22Z</time>
      </trkpt>
      <trkpt lat="45.61159" lon="0.44223">
        <ele>103.96</ele>
        <time>2013-07-21T11:34:24Z</time>
      </trkpt>
      <trkpt lat="45.61161" lon="0.44229">
        <ele>103.96</ele>
        <time>2013-07-21T11:34:25Z</time>
      </trkpt>
      <trkpt lat="45.61192" lon="0.44327">
        <ele>105.88</ele>
        <time>2013-07-21T11:34:40Z</time>
      </trkpt>
      <trkpt lat="45.61195" lon="0.44331">
        <ele>105.88</ele>
        <time>2013-07-21T11:34:41Z</time>
      </trkpt>
      <trkpt lat="45.61233" lon="0.44374">
        <ele>105.88</ele>
        <time>2013-07-21T11:34:54Z</time>
      </trkpt>
      <trkpt lat="45.61237" lon="0.44378">
        <ele>105.4</ele>
        <time>2013-07-21T11:34:55Z</time>
      </trkpt>
      <trkpt lat="45.61239" lon="0.44384">
        <ele>104.92</ele>
        <time>2013-07-21T11:34:56Z</time>
      </trkpt>
      <trkpt lat="45.61241" lon="0.4439">
        <ele>104.92</ele>
        <time>2013-07-21T11:34:57Z</time>
      </trkpt>
      <trkpt lat="45.61242" lon="0.44397">
        <ele>104.92</ele>
        <time>2013-07-21T11:34:58Z</time>
      </trkpt>
      <trkpt lat="45.61242" lon="0.44403">
        <ele>104.92</ele>
        <time>2013-07-21T11:34:59Z</time>
      </trkpt>
      <trkpt lat="45.61237" lon="0.4449">
        <ele>106.84</ele>
        <time>2013-07-21T11:35:13Z</time>
      </trkpt>
      <trkpt lat="45.61233" lon="0.44569">
        <ele>109.25</ele>
        <time>2013-07-21T11:35:27Z</time>
      </trkpt>
      <trkpt lat="45.61224" lon="0.44671">
        <ele>112.13</ele>
        <time>2013-07-21T11:35:45Z</time>
      </trkpt>
      <trkpt lat="45.61217" lon="0.4475">
        <ele>115.01</ele>
        <time>2013-07-21T11:36:01Z</time>
      </trkpt>
      <trkpt lat="45.61209" lon="0.4483">
        <ele>116.94</ele>
        <time>2013-07-21T11:36:16Z</time>
      </trkpt>
      <trkpt lat="45.61204" lon="0.44865">
        <ele>117.9</ele>
        <time>2013-07-21T11:36:22Z</time>
      </trkpt>
      <trkpt lat="45.61172" lon="0.44925">
        <ele>121.26</ele>
        <time>2013-07-21T11:36:36Z</time>
      </trkpt>
      <trkpt lat="45.61139" lon="0.44976">
        <ele>124.63</ele>
        <time>2013-07-21T11:36:50Z</time>
      </trkpt>
      <trkpt lat="45.61115" lon="0.45061">
        <ele>127.51</ele>
        <time>2013-07-21T11:37:07Z</time>
      </trkpt>
      <trkpt lat="45.61108" lon="0.45092">
        <ele>128.47</ele>
        <time>2013-07-21T11:37:13Z</time>
      </trkpt>
      <trkpt lat="45.61087" lon="0.45175">
        <ele>127.99</ele>
        <time>2013-07-21T11:37:26Z</time>
      </trkpt>
      <trkpt lat="45.61039" lon="0.45314">
        <ele>128.95</ele>
        <time>2013-07-21T11:37:44Z</time>
      </trkpt>
      <trkpt lat="45.6098" lon="0.45477">
        <ele>129.92</ele>
        <time>2013-07-21T11:38:05Z</time>
      </trkpt>
      <trkpt lat="45.60943" lon="0.45618">
        <ele>131.84</ele>
        <time>2013-07-21T11:38:23Z</time>
      </trkpt>
      <trkpt lat="45.60939" lon="0.45641">
        <ele>132.32</ele>
        <time>2013-07-21T11:38:26Z</time>
      </trkpt>
      <trkpt lat="45.60921" lon="0.45747">
        <ele>131.36</ele>
        <time>2013-07-21T11:38:41Z</time>
      </trkpt>
      <trkpt lat="45.60905" lon="0.45849">
        <ele>127.99</ele>
        <time>2013-07-21T11:38:52Z</time>
      </trkpt>
      <trkpt lat="45.60906" lon="0.45929">
        <ele>125.59</ele>
        <time>2013-07-21T11:38:59Z</time>
      </trkpt>
      <trkpt lat="45.60916" lon="0.4608">
        <ele>121.74</ele>
        <time>2013-07-21T11:39:11Z</time>
      </trkpt>
      <trkpt lat="45.60918" lon="0.46106">
        <ele>120.78</ele>
        <time>2013-07-21T11:39:13Z</time>
      </trkpt>
      <trkpt lat="45.60924" lon="0.46185">
        <ele>118.86</ele>
        <time>2013-07-21T11:39:19Z</time>
      </trkpt>
      <trkpt lat="45.60925" lon="0.46198">
        <ele>118.86</ele>
        <time>2013-07-21T11:39:20Z</time>
      </trkpt>
      <trkpt lat="45.60936" lon="0.46264">
        <ele>116.46</ele>
        <time>2013-07-21T11:39:25Z</time>
      </trkpt>
      <trkpt lat="45.60967" lon="0.46431">
        <ele>113.57</ele>
        <time>2013-07-21T11:39:39Z</time>
      </trkpt>
      <trkpt lat="45.60994" lon="0.4653">
        <ele>112.13</ele>
        <time>2013-07-21T11:39:48Z</time>
      </trkpt>
      <trkpt lat="45.61024" lon="0.46631">
        <ele>111.17</ele>
        <time>2013-07-21T11:39:58Z</time>
      </trkpt>
      <trkpt lat="45.61026" lon="0.46642">
        <ele>110.69</ele>
        <time>2013-07-21T11:39:59Z</time>
      </trkpt>
      <trkpt lat="45.61026" lon="0.46653">
        <ele>110.21</ele>
        <time>2013-07-21T11:40:00Z</time>
      </trkpt>
      <trkpt lat="45.61026" lon="0.46665">
        <ele>110.21</ele>
        <time>2013-07-21T11:40:01Z</time>
      </trkpt>
      <trkpt lat="45.61025" lon="0.46677">
        <ele>109.73</ele>
        <time>2013-07-21T11:40:02Z</time>
      </trkpt>
      <trkpt lat="45.61022" lon="0.46688">
        <ele>109.73</ele>
        <time>2013-07-21T11:40:03Z</time>
      </trkpt>
      <trkpt lat="45.61017" lon="0.46698">
        <ele>109.73</ele>
        <time>2013-07-21T11:40:04Z</time>
      </trkpt>
      <trkpt lat="45.61012" lon="0.46707">
        <ele>109.25</ele>
        <time>2013-07-21T11:40:05Z</time>
      </trkpt>
      <trkpt lat="45.61005" lon="0.46715">
        <ele>109.25</ele>
        <time>2013-07-21T11:40:06Z</time>
      </trkpt>
      <trkpt lat="45.60999" lon="0.46721">
        <ele>109.25</ele>
        <time>2013-07-21T11:40:07Z</time>
      </trkpt>
      <trkpt lat="45.60992" lon="0.46727">
        <ele>109.25</ele>
        <time>2013-07-21T11:40:08Z</time>
      </trkpt>
      <trkpt lat="45.60984" lon="0.46731">
        <ele>108.77</ele>
        <time>2013-07-21T11:40:09Z</time>
      </trkpt>
      <trkpt lat="45.6089" lon="0.46781">
        <ele>109.73</ele>
        <time>2013-07-21T11:40:23Z</time>
      </trkpt>
      <trkpt lat="45.60879" lon="0.46787">
        <ele>109.73</ele>
        <time>2013-07-21T11:40:25Z</time>
      </trkpt>
      <trkpt lat="45.60875" lon="0.46791">
        <ele>109.25</ele>
        <time>2013-07-21T11:40:26Z</time>
      </trkpt>
      <trkpt lat="45.6087" lon="0.46795">
        <ele>109.25</ele>
        <time>2013-07-21T11:40:27Z</time>
      </trkpt>
      <trkpt lat="45.60862" lon="0.46802">
        <ele>109.25</ele>
        <time>2013-07-21T11:40:29Z</time>
      </trkpt>
      <trkpt lat="45.60859" lon="0.46806">
        <ele>109.25</ele>
        <time>2013-07-21T11:40:30Z</time>
      </trkpt>
      <trkpt lat="45.60856" lon="0.4681">
        <ele>109.25</ele>
        <time>2013-07-21T11:40:31Z</time>
      </trkpt>
      <trkpt lat="45.60854" lon="0.46814">
        <ele>108.77</ele>
        <time>2013-07-21T11:40:32Z</time>
      </trkpt>
      <trkpt lat="45.60853" lon="0.46817">
        <ele>108.77</ele>
        <time>2013-07-21T11:40:33Z</time>
      </trkpt>
      <trkpt lat="45.60852" lon="0.4682">
        <ele>108.77</ele>
        <time>2013-07-21T11:40:34Z</time>
      </trkpt>
      <trkpt lat="45.60852" lon="0.46824">
        <ele>108.77</ele>
        <time>2013-07-21T11:40:35Z</time>
      </trkpt>
      <trkpt lat="45.60851" lon="0.46827">
        <ele>108.29</ele>
        <time>2013-07-21T11:40:36Z</time>
      </trkpt>
      <trkpt lat="45.60852" lon="0.4683">
        <ele>107.81</ele>
        <time>2013-07-21T11:40:37Z</time>
      </trkpt>
      <trkpt lat="45.60854" lon="0.46831">
        <ele>107.32</ele>
        <time>2013-07-21T11:40:38Z</time>
      </trkpt>
      <trkpt lat="45.60855" lon="0.46831">
        <ele>106.84</ele>
        <time>2013-07-21T11:40:39Z</time>
      </trkpt>
      <trkpt lat="45.60857" lon="0.46832">
        <ele>106.84</ele>
        <time>2013-07-21T11:40:40Z</time>
      </trkpt>
      <trkpt lat="45.60859" lon="0.46833">
        <ele>106.84</ele>
        <time>2013-07-21T11:40:41Z</time>
      </trkpt>
      <trkpt lat="45.6086" lon="0.46835">
        <ele>106.84</ele>
        <time>2013-07-21T11:40:42Z</time>
      </trkpt>
      <trkpt lat="45.60862" lon="0.46837">
        <ele>106.36</ele>
        <time>2013-07-21T11:40:43Z</time>
      </trkpt>
      <trkpt lat="45.60891" lon="0.46885">
        <ele>106.84</ele>
        <time>2013-07-21T11:40:57Z</time>
      </trkpt>
      <trkpt lat="45.60894" lon="0.46896">
        <ele>106.84</ele>
        <time>2013-07-21T11:41:07Z</time>
      </trkpt>
      <trkpt lat="45.60897" lon="0.46895">
        <ele>106.84</ele>
        <time>2013-07-21T11:41:29Z</time>
      </trkpt>
      <trkpt lat="45.60899" lon="0.46895">
        <ele>106.36</ele>
        <time>2013-07-21T11:41:56Z</time>
      </trkpt>
      <trkpt lat="45.60899" lon="0.46896">
        <ele>106.36</ele>
        <time>2013-07-21T11:42:25Z</time>
      </trkpt>
      <trkpt lat="45.60899" lon="0.46896">
        <ele>106.84</ele>
        <time>2013-07-21T11:42:54Z</time>
      </trkpt>
      <trkpt lat="45.609" lon="0.46895">
        <ele>106.84</ele>
        <time>2013-07-21T11:43:21Z</time>
      </trkpt>
      <trkpt lat="45.609" lon="0.46895">
        <ele>106.84</ele>
        <time>2013-07-21T11:43:53Z</time>
      </trkpt>
      <trkpt lat="45.60901" lon="0.46894">
        <ele>107.32</ele>
        <time>2013-07-21T11:44:22Z</time>
      </trkpt>
      <trkpt lat="45.60901" lon="0.46891">
        <ele>106.84</ele>
        <time>2013-07-21T11:44:31Z</time>
      </trkpt>
      <trkpt lat="45.60899" lon="0.46889">
        <ele>106.84</ele>
        <time>2013-07-21T11:44:33Z</time>
      </trkpt>
      <trkpt lat="45.60896" lon="0.46885">
        <ele>106.84</ele>
        <time>2013-07-21T11:44:36Z</time>
      </trkpt>
      <trkpt lat="45.60895" lon="0.46884">
        <ele>106.84</ele>
        <time>2013-07-21T11:44:37Z</time>
      </trkpt>
      <trkpt lat="45.60894" lon="0.46882">
        <ele>107.32</ele>
        <time>2013-07-21T11:44:38Z</time>
      </trkpt>
      <trkpt lat="45.60882" lon="0.46864">
        <ele>107.32</ele>
        <time>2013-07-21T11:44:52Z</time>
      </trkpt>
      <trkpt lat="45.60857" lon="0.46857">
        <ele>106.84</ele>
        <time>2013-07-21T11:45:13Z</time>
      </trkpt>
      <trkpt lat="45.60838" lon="0.46853">
        <ele>106.84</ele>
        <time>2013-07-21T11:45:32Z</time>
      </trkpt>
      <trkpt lat="45.60836" lon="0.46854">
        <ele>107.32</ele>
        <time>2013-07-21T11:45:35Z</time>
      </trkpt>
      <trkpt lat="45.60832" lon="0.46857">
        <ele>106.84</ele>
        <time>2013-07-21T11:45:38Z</time>
      </trkpt>
      <trkpt lat="45.6083" lon="0.46859">
        <ele>107.32</ele>
        <time>2013-07-21T11:45:39Z</time>
      </trkpt>
      <trkpt lat="45.60828" lon="0.46861">
        <ele>107.81</ele>
        <time>2013-07-21T11:45:40Z</time>
      </trkpt>
      <trkpt lat="45.60808" lon="0.46884">
        <ele>107.81</ele>
        <time>2013-07-21T11:45:48Z</time>
      </trkpt>
      <trkpt lat="45.60785" lon="0.46913">
        <ele>107.81</ele>
        <time>2013-07-21T11:45:55Z</time>
      </trkpt>
      <trkpt lat="45.60782" lon="0.46918">
        <ele>108.29</ele>
        <time>2013-07-21T11:45:56Z</time>
      </trkpt>
      <trkpt lat="45.60779" lon="0.46924">
        <ele>108.29</ele>
        <time>2013-07-21T11:45:57Z</time>
      </trkpt>
      <trkpt lat="45.60777" lon="0.4693">
        <ele>108.29</ele>
        <time>2013-07-21T11:45:58Z</time>
      </trkpt>
      <trkpt lat="45.60776" lon="0.46936">
        <ele>108.29</ele>
        <time>2013-07-21T11:45:59Z</time>
      </trkpt>
      <trkpt lat="45.60768" lon="0.46959">
        <ele>107.81</ele>
        <time>2013-07-21T11:46:03Z</time>
      </trkpt>
      <trkpt lat="45.60767" lon="0.46965">
        <ele>107.81</ele>
        <time>2013-07-21T11:46:04Z</time>
      </trkpt>
      <trkpt lat="45.60767" lon="0.46972">
        <ele>108.29</ele>
        <time>2013-07-21T11:46:05Z</time>
      </trkpt>
      <trkpt lat="45.60765" lon="0.46984">
        <ele>107.81</ele>
        <time>2013-07-21T11:46:07Z</time>
      </trkpt>
      <trkpt lat="45.60764" lon="0.4699">
        <ele>107.81</ele>
        <time>2013-07-21T11:46:08Z</time>
      </trkpt>
      <trkpt lat="45.60761" lon="0.46994">
        <ele>108.29</ele>
        <time>2013-07-21T11:46:09Z</time>
      </trkpt>
      <trkpt lat="45.60757" lon="0.46998">
        <ele>108.29</ele>
        <time>2013-07-21T11:46:10Z</time>
      </trkpt>
      <trkpt lat="45.60754" lon="0.47">
        <ele>108.29</ele>
        <time>2013-07-21T11:46:11Z</time>
      </trkpt>
      <trkpt lat="45.60751" lon="0.47">
        <ele>108.29</ele>
        <time>2013-07-21T11:46:12Z</time>
      </trkpt>
      <trkpt lat="45.60749" lon="0.47001">
        <ele>108.29</ele>
        <time>2013-07-21T11:46:13Z</time>
      </trkpt>
      <trkpt lat="45.60748" lon="0.47002">
        <ele>108.29</ele>
        <time>2013-07-21T11:46:14Z</time>
      </trkpt>
      <trkpt lat="45.60746" lon="0.47004">
        <ele>108.29</ele>
        <time>2013-07-21T11:46:15Z</time>
      </trkpt>
      <trkpt lat="45.60739" lon="0.47052">
        <ele>108.77</ele>
        <time>2013-07-21T11:46:25Z</time>
      </trkpt>
      <trkpt lat="45.60725" lon="0.47172">
        <ele>109.25</ele>
        <time>2013-07-21T11:46:42Z</time>
      </trkpt>
      <trkpt lat="45.60722" lon="0.47187">
        <ele>109.25</ele>
        <time>2013-07-21T11:46:44Z</time>
      </trkpt>
      <trkpt lat="45.60732" lon="0.47295">
        <ele>110.69</ele>
        <time>2013-07-21T11:46:58Z</time>
      </trkpt>
      <trkpt lat="45.6076" lon="0.47432">
        <ele>110.21</ele>
        <time>2013-07-21T11:47:13Z</time>
      </trkpt>
      <trkpt lat="45.60777" lon="0.47535">
        <ele>110.21</ele>
        <time>2013-07-21T11:47:24Z</time>
      </trkpt>
      <trkpt lat="45.60776" lon="0.47545">
        <ele>110.69</ele>
        <time>2013-07-21T11:47:25Z</time>
      </trkpt>
      <trkpt lat="45.60775" lon="0.47555">
        <ele>110.21</ele>
        <time>2013-07-21T11:47:26Z</time>
      </trkpt>
      <trkpt lat="45.60773" lon="0.47564">
        <ele>110.69</ele>
        <time>2013-07-21T11:47:27Z</time>
      </trkpt>
      <trkpt lat="45.60771" lon="0.47573">
        <ele>110.69</ele>
        <time>2013-07-21T11:47:28Z</time>
      </trkpt>
      <trkpt lat="45.60768" lon="0.47581">
        <ele>110.69</ele>
        <time>2013-07-21T11:47:29Z</time>
      </trkpt>
      <trkpt lat="45.60764" lon="0.47589">
        <ele>111.17</ele>
        <time>2013-07-21T11:47:30Z</time>
      </trkpt>
      <trkpt lat="45.6076" lon="0.47597">
        <ele>112.13</ele>
        <time>2013-07-21T11:47:31Z</time>
      </trkpt>
      <trkpt lat="45.60756" lon="0.47604">
        <ele>112.13</ele>
        <time>2013-07-21T11:47:32Z</time>
      </trkpt>
      <trkpt lat="45.60731" lon="0.47641">
        <ele>111.65</ele>
        <time>2013-07-21T11:47:38Z</time>
      </trkpt>
      <trkpt lat="45.60714" lon="0.47676">
        <ele>112.13</ele>
        <time>2013-07-21T11:47:43Z</time>
      </trkpt>
      <trkpt lat="45.60675" lon="0.4779">
        <ele>112.13</ele>
        <time>2013-07-21T11:47:57Z</time>
      </trkpt>
      <trkpt lat="45.60631" lon="0.47941">
        <ele>111.65</ele>
        <time>2013-07-21T11:48:14Z</time>
      </trkpt>
      <trkpt lat="45.60592" lon="0.4807">
        <ele>112.61</ele>
        <time>2013-07-21T11:48:29Z</time>
      </trkpt>
      <trkpt lat="45.6059" lon="0.48079">
        <ele>112.61</ele>
        <time>2013-07-21T11:48:30Z</time>
      </trkpt>
      <trkpt lat="45.60578" lon="0.48141">
        <ele>111.65</ele>
        <time>2013-07-21T11:48:37Z</time>
      </trkpt>
      <trkpt lat="45.60574" lon="0.48165">
        <ele>111.65</ele>
        <time>2013-07-21T11:48:40Z</time>
      </trkpt>
      <trkpt lat="45.60573" lon="0.48173">
        <ele>112.13</ele>
        <time>2013-07-21T11:48:41Z</time>
      </trkpt>
      <trkpt lat="45.6057" lon="0.48195">
        <ele>112.13</ele>
        <time>2013-07-21T11:48:44Z</time>
      </trkpt>
      <trkpt lat="45.60555" lon="0.483">
        <ele>111.17</ele>
        <time>2013-07-21T11:48:57Z</time>
      </trkpt>
      <trkpt lat="45.60519" lon="0.48443">
        <ele>110.69</ele>
        <time>2013-07-21T11:49:13Z</time>
      </trkpt>
      <trkpt lat="45.60486" lon="0.4857">
        <ele>112.13</ele>
        <time>2013-07-21T11:49:28Z</time>
      </trkpt>
      <trkpt lat="45.6044" lon="0.48746">
        <ele>111.65</ele>
        <time>2013-07-21T11:49:48Z</time>
      </trkpt>
      <trkpt lat="45.60401" lon="0.48899">
        <ele>112.61</ele>
        <time>2013-07-21T11:50:06Z</time>
      </trkpt>
      <trkpt lat="45.60361" lon="0.49048">
        <ele>113.57</ele>
        <time>2013-07-21T11:50:24Z</time>
      </trkpt>
      <trkpt lat="45.60313" lon="0.49187">
        <ele>112.61</ele>
        <time>2013-07-21T11:50:42Z</time>
      </trkpt>
      <trkpt lat="45.60258" lon="0.49276">
        <ele>113.09</ele>
        <time>2013-07-21T11:50:55Z</time>
      </trkpt>
      <trkpt lat="45.60201" lon="0.49371">
        <ele>114.53</ele>
        <time>2013-07-21T11:51:10Z</time>
      </trkpt>
      <trkpt lat="45.60149" lon="0.49484">
        <ele>115.98</ele>
        <time>2013-07-21T11:51:27Z</time>
      </trkpt>
      <trkpt lat="45.60113" lon="0.49603">
        <ele>115.01</ele>
        <time>2013-07-21T11:51:41Z</time>
      </trkpt>
      <trkpt lat="45.60074" lon="0.49736">
        <ele>116.46</ele>
        <time>2013-07-21T11:51:57Z</time>
      </trkpt>
      <trkpt lat="45.60033" lon="0.49877">
        <ele>116.94</ele>
        <time>2013-07-21T11:52:13Z</time>
      </trkpt>
      <trkpt lat="45.59981" lon="0.50017">
        <ele>118.38</ele>
        <time>2013-07-21T11:52:30Z</time>
      </trkpt>
      <trkpt lat="45.59927" lon="0.50162">
        <ele>119.34</ele>
        <time>2013-07-21T11:52:49Z</time>
      </trkpt>
      <trkpt lat="45.59868" lon="0.50321">
        <ele>119.34</ele>
        <time>2013-07-21T11:53:09Z</time>
      </trkpt>
      <trkpt lat="45.59815" lon="0.50464">
        <ele>118.86</ele>
        <time>2013-07-21T11:53:26Z</time>
      </trkpt>
      <trkpt lat="45.59759" lon="0.50613">
        <ele>118.86</ele>
        <time>2013-07-21T11:53:44Z</time>
      </trkpt>
      <trkpt lat="45.59711" lon="0.50741">
        <ele>118.86</ele>
        <time>2013-07-21T11:54:00Z</time>
      </trkpt>
      <trkpt lat="45.5965" lon="0.50893">
        <ele>119.82</ele>
        <time>2013-07-21T11:54:20Z</time>
      </trkpt>
      <trkpt lat="45.59576" lon="0.51005">
        <ele>119.34</ele>
        <time>2013-07-21T11:54:37Z</time>
      </trkpt>
      <trkpt lat="45.59495" lon="0.51112">
        <ele>118.38</ele>
        <time>2013-07-21T11:54:53Z</time>
      </trkpt>
      <trkpt lat="45.59414" lon="0.51219">
        <ele>119.34</ele>
        <time>2013-07-21T11:55:09Z</time>
      </trkpt>
      <trkpt lat="45.59326" lon="0.5134">
        <ele>119.34</ele>
        <time>2013-07-21T11:55:27Z</time>
      </trkpt>
      <trkpt lat="45.59243" lon="0.51452">
        <ele>118.86</ele>
        <time>2013-07-21T11:55:43Z</time>
      </trkpt>
      <trkpt lat="45.59145" lon="0.51583">
        <ele>118.86</ele>
        <time>2013-07-21T11:56:02Z</time>
      </trkpt>
      <trkpt lat="45.59035" lon="0.51732">
        <ele>117.9</ele>
        <time>2013-07-21T11:56:23Z</time>
      </trkpt>
      <trkpt lat="45.58963" lon="0.51832">
        <ele>118.38</ele>
        <time>2013-07-21T11:56:37Z</time>
      </trkpt>
      <trkpt lat="45.58945" lon="0.51864">
        <ele>118.38</ele>
        <time>2013-07-21T11:56:41Z</time>
      </trkpt>
      <trkpt lat="45.58941" lon="0.51872">
        <ele>118.38</ele>
        <time>2013-07-21T11:56:42Z</time>
      </trkpt>
      <trkpt lat="45.58938" lon="0.51881">
        <ele>118.38</ele>
        <time>2013-07-21T11:56:43Z</time>
      </trkpt>
      <trkpt lat="45.58935" lon="0.5189">
        <ele>118.38</ele>
        <time>2013-07-21T11:56:44Z</time>
      </trkpt>
      <trkpt lat="45.58933" lon="0.51899">
        <ele>117.9</ele>
        <time>2013-07-21T11:56:45Z</time>
      </trkpt>
      <trkpt lat="45.58921" lon="0.52029">
        <ele>117.42</ele>
        <time>2013-07-21T11:56:58Z</time>
      </trkpt>
      <trkpt lat="45.58922" lon="0.52227">
        <ele>116.94</ele>
        <time>2013-07-21T11:57:17Z</time>
      </trkpt>
      <trkpt lat="45.58918" lon="0.52257">
        <ele>116.94</ele>
        <time>2013-07-21T11:57:20Z</time>
      </trkpt>
      <trkpt lat="45.58885" lon="0.52385">
        <ele>117.42</ele>
        <time>2013-07-21T11:57:34Z</time>
      </trkpt>
      <trkpt lat="45.58844" lon="0.52512">
        <ele>117.42</ele>
        <time>2013-07-21T11:57:49Z</time>
      </trkpt>
      <trkpt lat="45.58796" lon="0.5265">
        <ele>118.38</ele>
        <time>2013-07-21T11:58:05Z</time>
      </trkpt>
      <trkpt lat="45.58729" lon="0.52744">
        <ele>118.86</ele>
        <time>2013-07-21T11:58:19Z</time>
      </trkpt>
      <trkpt lat="45.58644" lon="0.52838">
        <ele>118.86</ele>
        <time>2013-07-21T11:58:35Z</time>
      </trkpt>
      <trkpt lat="45.58568" lon="0.52947">
        <ele>118.38</ele>
        <time>2013-07-21T11:58:51Z</time>
      </trkpt>
      <trkpt lat="45.5851" lon="0.53093">
        <ele>117.9</ele>
        <time>2013-07-21T11:59:08Z</time>
      </trkpt>
      <trkpt lat="45.58451" lon="0.53236">
        <ele>118.38</ele>
        <time>2013-07-21T11:59:25Z</time>
      </trkpt>
      <trkpt lat="45.58422" lon="0.53313">
        <ele>119.34</ele>
        <time>2013-07-21T11:59:34Z</time>
      </trkpt>
      <trkpt lat="45.5842" lon="0.53323">
        <ele>119.82</ele>
        <time>2013-07-21T11:59:35Z</time>
      </trkpt>
      <trkpt lat="45.58407" lon="0.5348">
        <ele>117.9</ele>
        <time>2013-07-21T11:59:50Z</time>
      </trkpt>
      <trkpt lat="45.58374" lon="0.53665">
        <ele>118.38</ele>
        <time>2013-07-21T12:00:07Z</time>
      </trkpt>
      <trkpt lat="45.58318" lon="0.53867">
        <ele>119.34</ele>
        <time>2013-07-21T12:00:28Z</time>
      </trkpt>
      <trkpt lat="45.58274" lon="0.54021">
        <ele>119.82</ele>
        <time>2013-07-21T12:00:45Z</time>
      </trkpt>
      <trkpt lat="45.58255" lon="0.54077">
        <ele>119.82</ele>
        <time>2013-07-21T12:00:51Z</time>
      </trkpt>
      <trkpt lat="45.58222" lon="0.54133">
        <ele>119.82</ele>
        <time>2013-07-21T12:00:58Z</time>
      </trkpt>
      <trkpt lat="45.58131" lon="0.54205">
        <ele>119.34</ele>
        <time>2013-07-21T12:01:12Z</time>
      </trkpt>
      <trkpt lat="45.5801" lon="0.54275">
        <ele>119.82</ele>
        <time>2013-07-21T12:01:30Z</time>
      </trkpt>
      <trkpt lat="45.57985" lon="0.54293">
        <ele>119.34</ele>
        <time>2013-07-21T12:01:34Z</time>
      </trkpt>
      <trkpt lat="45.57908" lon="0.54387">
        <ele>118.86</ele>
        <time>2013-07-21T12:01:48Z</time>
      </trkpt>
      <trkpt lat="45.57798" lon="0.54535">
        <ele>119.34</ele>
        <time>2013-07-21T12:02:08Z</time>
      </trkpt>
      <trkpt lat="45.57742" lon="0.54625">
        <ele>119.34</ele>
        <time>2013-07-21T12:02:19Z</time>
      </trkpt>
      <trkpt lat="45.57738" lon="0.54634">
        <ele>119.34</ele>
        <time>2013-07-21T12:02:20Z</time>
      </trkpt>
      <trkpt lat="45.57709" lon="0.54772">
        <ele>119.34</ele>
        <time>2013-07-21T12:02:33Z</time>
      </trkpt>
      <trkpt lat="45.57677" lon="0.54924">
        <ele>118.86</ele>
        <time>2013-07-21T12:02:48Z</time>
      </trkpt>
      <trkpt lat="45.57624" lon="0.55061">
        <ele>121.74</ele>
        <time>2013-07-21T12:03:04Z</time>
      </trkpt>
      <trkpt lat="45.57576" lon="0.55177">
        <ele>123.19</ele>
        <time>2013-07-21T12:03:19Z</time>
      </trkpt>
      <trkpt lat="45.57529" lon="0.55288">
        <ele>124.15</ele>
        <time>2013-07-21T12:03:34Z</time>
      </trkpt>
      <trkpt lat="45.57464" lon="0.55389">
        <ele>123.19</ele>
        <time>2013-07-21T12:03:49Z</time>
      </trkpt>
      <trkpt lat="45.57372" lon="0.55489">
        <ele>121.74</ele>
        <time>2013-07-21T12:04:06Z</time>
      </trkpt>
      <trkpt lat="45.57295" lon="0.55569">
        <ele>122.22</ele>
        <time>2013-07-21T12:04:21Z</time>
      </trkpt>
      <trkpt lat="45.57222" lon="0.55681">
        <ele>122.22</ele>
        <time>2013-07-21T12:04:37Z</time>
      </trkpt>
      <trkpt lat="45.57174" lon="0.55751">
        <ele>120.78</ele>
        <time>2013-07-21T12:04:48Z</time>
      </trkpt>
      <trkpt lat="45.57083" lon="0.55827">
        <ele>121.26</ele>
        <time>2013-07-21T12:05:04Z</time>
      </trkpt>
      <trkpt lat="45.57019" lon="0.55903">
        <ele>119.82</ele>
        <time>2013-07-21T12:05:19Z</time>
      </trkpt>
      <trkpt lat="45.56991" lon="0.55942">
        <ele>119.34</ele>
        <time>2013-07-21T12:05:30Z</time>
      </trkpt>
      <trkpt lat="45.56991" lon="0.55946">
        <ele>119.82</ele>
        <time>2013-07-21T12:05:31Z</time>
      </trkpt>
      <trkpt lat="45.56992" lon="0.55949">
        <ele>119.82</ele>
        <time>2013-07-21T12:05:32Z</time>
      </trkpt>
      <trkpt lat="45.56994" lon="0.55951">
        <ele>119.82</ele>
        <time>2013-07-21T12:05:33Z</time>
      </trkpt>
      <trkpt lat="45.56996" lon="0.55952">
        <ele>119.34</ele>
        <time>2013-07-21T12:05:34Z</time>
      </trkpt>
      <trkpt lat="45.56998" lon="0.55951">
        <ele>119.34</ele>
        <time>2013-07-21T12:05:35Z</time>
      </trkpt>
      <trkpt lat="45.56999" lon="0.55949">
        <ele>119.82</ele>
        <time>2013-07-21T12:05:36Z</time>
      </trkpt>
      <trkpt lat="45.57006" lon="0.55943">
        <ele>119.82</ele>
        <time>2013-07-21T12:05:49Z</time>
      </trkpt>
    </trkseg>
  </trk>
</gpx>